<?xml version="1.0" encoding="UTF-8" standalone="no" ?>
<gpx xmlns="http://www.topografix.com/GPX/1/1" xmlns:xsi="http://www.w3.org/2001/XMLSchema-instance" xsi:schemaLocation="http://www.topografix.com/GPX/1/1 http://www.topografix.com/GPX/1/1/gpx.xsd" version="1.1" creator="VisuGPX - https://www.visugpx.com">
  <metadata>
    <name>Ajout Pyrénées</name>
    <desc><![CDATA[Randonnée sur le GR®654 Via Lemovicensis vers Saint-Jacques-de-Compostelle à travers les Landes et les Pyrénées-Atlantiques de Mont-de-Marsan à Saint-Palais. Gîtes d'étapes, Chambres d'hôtes, Maison d'hôtes, Hôtels, Camping, Refuges, Auberges, Commerces.]]></desc>
  </metadata>
  <trk>
    <name><![CDATA[GR®654 De Mont-de-Marsan (Landes) à Saint-Palais (Pyrénées-Atlantiques) (2021)]]></name>
    <desc><![CDATA[Randonnée sur le GR®654 Via Lemovicensis vers Saint-Jacques-de-Compostelle à travers les Landes et les Pyrénées-Atlantiques de Mont-de-Marsan à Saint-Palais. Gîtes d'étapes, Chambres d'hôtes, Maison d'hôtes, Hôtels, Camping, Refuges, Auberges, Commerces.]]></desc>
    <extensions>
      <line xmlns="http://www.topografix.com/GPX/gpx_style/0/2">
        <color>000000</color>
        <width>4</width>
      </line>
    </extensions>
    <trkseg>
      <trkpt lat="43.89026" lon="-0.50127">
        <ele>47.571</ele>
        <time>2021-04-27T09:40:02Z</time>
      </trkpt>
      <trkpt lat="43.88995" lon="-0.50125">
        <ele>48.141</ele>
        <time>2021-04-27T09:40:22Z</time>
      </trkpt>
      <trkpt lat="43.88967" lon="-0.50116">
        <ele>48.815</ele>
        <time>2021-04-27T09:40:42Z</time>
      </trkpt>
      <trkpt lat="43.88777" lon="-0.50022">
        <ele>52.608</ele>
        <time>2021-04-27T09:41:02Z</time>
      </trkpt>
      <trkpt lat="43.88746" lon="-0.5">
        <ele>53.324</ele>
        <time>2021-04-27T09:41:22Z</time>
      </trkpt>
      <trkpt lat="43.88721" lon="-0.50013">
        <ele>54.618</ele>
        <time>2021-04-27T09:41:42Z</time>
      </trkpt>
      <trkpt lat="43.88703" lon="-0.50007">
        <ele>55.814</ele>
        <time>2021-04-27T09:42:02Z</time>
      </trkpt>
      <trkpt lat="43.88689" lon="-0.49979">
        <ele>56.987</ele>
        <time>2021-04-27T09:42:22Z</time>
      </trkpt>
      <trkpt lat="43.8815" lon="-0.49668">
        <ele>76.65</ele>
        <time>2021-04-27T09:42:42Z</time>
      </trkpt>
      <trkpt lat="43.87832" lon="-0.49487">
        <ele>71.812</ele>
        <time>2021-04-27T09:43:02Z</time>
      </trkpt>
      <trkpt lat="43.86955" lon="-0.48981">
        <ele>77.05</ele>
        <time>2021-04-27T09:43:22Z</time>
      </trkpt>
      <trkpt lat="43.86921" lon="-0.48959">
        <ele>78.925</ele>
        <time>2021-04-27T09:43:42Z</time>
      </trkpt>
      <trkpt lat="43.86899" lon="-0.48932">
        <ele>80.511</ele>
        <time>2021-04-27T09:44:02Z</time>
      </trkpt>
      <trkpt lat="43.86871" lon="-0.48951">
        <ele>77.821</ele>
        <time>2021-04-27T09:44:22Z</time>
      </trkpt>
      <trkpt lat="43.86879" lon="-0.4912">
        <ele>79.103</ele>
        <time>2021-04-27T09:44:42Z</time>
      </trkpt>
      <trkpt lat="43.86785" lon="-0.4915">
        <ele>81.608</ele>
        <time>2021-04-27T09:45:02Z</time>
      </trkpt>
      <trkpt lat="43.86715" lon="-0.49163">
        <ele>84.288</ele>
        <time>2021-04-27T09:45:22Z</time>
      </trkpt>
      <trkpt lat="43.86625" lon="-0.49168">
        <ele>84.682</ele>
        <time>2021-04-27T09:45:42Z</time>
      </trkpt>
      <trkpt lat="43.86583" lon="-0.49157">
        <ele>82.848</ele>
        <time>2021-04-27T09:46:02Z</time>
      </trkpt>
      <trkpt lat="43.86568" lon="-0.49174">
        <ele>84.331</ele>
        <time>2021-04-27T09:46:22Z</time>
      </trkpt>
      <trkpt lat="43.86554" lon="-0.492">
        <ele>86.754</ele>
        <time>2021-04-27T09:46:42Z</time>
      </trkpt>
      <trkpt lat="43.86551" lon="-0.49213">
        <ele>87.686</ele>
        <time>2021-04-27T09:47:02Z</time>
      </trkpt>
      <trkpt lat="43.86438" lon="-0.49256">
        <ele>89.184</ele>
        <time>2021-04-27T09:47:22Z</time>
      </trkpt>
      <trkpt lat="43.86251" lon="-0.49337">
        <ele>92.889</ele>
        <time>2021-04-27T09:47:42Z</time>
      </trkpt>
      <trkpt lat="43.86203" lon="-0.49354">
        <ele>93.422</ele>
        <time>2021-04-27T09:48:02Z</time>
      </trkpt>
      <trkpt lat="43.86064" lon="-0.49389">
        <ele>92.662</ele>
        <time>2021-04-27T09:48:22Z</time>
      </trkpt>
      <trkpt lat="43.86054" lon="-0.49393">
        <ele>92.608</ele>
        <time>2021-04-27T09:48:42Z</time>
      </trkpt>
      <trkpt lat="43.8603" lon="-0.49442">
        <ele>92.508</ele>
        <time>2021-04-27T09:49:02Z</time>
      </trkpt>
      <trkpt lat="43.85991" lon="-0.49498">
        <ele>92.099</ele>
        <time>2021-04-27T09:49:22Z</time>
      </trkpt>
      <trkpt lat="43.85946" lon="-0.49535">
        <ele>91.673</ele>
        <time>2021-04-27T09:49:42Z</time>
      </trkpt>
      <trkpt lat="43.85924" lon="-0.49543">
        <ele>91.949</ele>
        <time>2021-04-27T09:50:02Z</time>
      </trkpt>
      <trkpt lat="43.85889" lon="-0.49552">
        <ele>92.132</ele>
        <time>2021-04-27T09:50:22Z</time>
      </trkpt>
      <trkpt lat="43.85875" lon="-0.49552">
        <ele>92.165</ele>
        <time>2021-04-27T09:50:42Z</time>
      </trkpt>
      <trkpt lat="43.85836" lon="-0.49541">
        <ele>92.057</ele>
        <time>2021-04-27T09:51:02Z</time>
      </trkpt>
      <trkpt lat="43.85722" lon="-0.49554">
        <ele>95.155</ele>
        <time>2021-04-27T09:51:22Z</time>
      </trkpt>
      <trkpt lat="43.85698" lon="-0.49552">
        <ele>95.33</ele>
        <time>2021-04-27T09:51:42Z</time>
      </trkpt>
      <trkpt lat="43.85681" lon="-0.49543">
        <ele>95.862</ele>
        <time>2021-04-27T09:52:02Z</time>
      </trkpt>
      <trkpt lat="43.8566" lon="-0.49537">
        <ele>95.883</ele>
        <time>2021-04-27T09:52:22Z</time>
      </trkpt>
      <trkpt lat="43.85533" lon="-0.49526">
        <ele>90.311</ele>
        <time>2021-04-27T09:52:42Z</time>
      </trkpt>
      <trkpt lat="43.85517" lon="-0.49522">
        <ele>90.308</ele>
        <time>2021-04-27T09:53:02Z</time>
      </trkpt>
      <trkpt lat="43.85507" lon="-0.49513">
        <ele>90.213</ele>
        <time>2021-04-27T09:53:22Z</time>
      </trkpt>
      <trkpt lat="43.8546" lon="-0.49455">
        <ele>93.077</ele>
        <time>2021-04-27T09:53:42Z</time>
      </trkpt>
      <trkpt lat="43.85428" lon="-0.49434">
        <ele>93.833</ele>
        <time>2021-04-27T09:54:02Z</time>
      </trkpt>
      <trkpt lat="43.85432" lon="-0.49462">
        <ele>95.576</ele>
        <time>2021-04-27T09:54:22Z</time>
      </trkpt>
      <trkpt lat="43.85462" lon="-0.4956">
        <ele>96.039</ele>
        <time>2021-04-27T09:54:42Z</time>
      </trkpt>
      <trkpt lat="43.85479" lon="-0.49657">
        <ele>91.251</ele>
        <time>2021-04-27T09:55:02Z</time>
      </trkpt>
      <trkpt lat="43.85497" lon="-0.49723">
        <ele>89.139</ele>
        <time>2021-04-27T09:55:22Z</time>
      </trkpt>
      <trkpt lat="43.85443" lon="-0.49777">
        <ele>90.244</ele>
        <time>2021-04-27T09:55:42Z</time>
      </trkpt>
      <trkpt lat="43.85409" lon="-0.49796">
        <ele>91.092</ele>
        <time>2021-04-27T09:56:02Z</time>
      </trkpt>
      <trkpt lat="43.85369" lon="-0.49811">
        <ele>93.573</ele>
        <time>2021-04-27T09:56:22Z</time>
      </trkpt>
      <trkpt lat="43.85313" lon="-0.49824">
        <ele>93.92</ele>
        <time>2021-04-27T09:56:42Z</time>
      </trkpt>
      <trkpt lat="43.85285" lon="-0.49839">
        <ele>92.208</ele>
        <time>2021-04-27T09:57:02Z</time>
      </trkpt>
      <trkpt lat="43.85219" lon="-0.49846">
        <ele>90.696</ele>
        <time>2021-04-27T09:57:22Z</time>
      </trkpt>
      <trkpt lat="43.85193" lon="-0.49852">
        <ele>90.64</ele>
        <time>2021-04-27T09:57:42Z</time>
      </trkpt>
      <trkpt lat="43.85134" lon="-0.49859">
        <ele>92.656</ele>
        <time>2021-04-27T09:58:02Z</time>
      </trkpt>
      <trkpt lat="43.85123" lon="-0.49863">
        <ele>93.339</ele>
        <time>2021-04-27T09:58:22Z</time>
      </trkpt>
      <trkpt lat="43.85095" lon="-0.49893">
        <ele>94.442</ele>
        <time>2021-04-27T09:58:42Z</time>
      </trkpt>
      <trkpt lat="43.85055" lon="-0.49927">
        <ele>93.174</ele>
        <time>2021-04-27T09:59:02Z</time>
      </trkpt>
      <trkpt lat="43.8492" lon="-0.50017">
        <ele>94.512</ele>
        <time>2021-04-27T09:59:22Z</time>
      </trkpt>
      <trkpt lat="43.84877" lon="-0.50058">
        <ele>90.747</ele>
        <time>2021-04-27T09:59:42Z</time>
      </trkpt>
      <trkpt lat="43.84801" lon="-0.50138">
        <ele>87.765</ele>
        <time>2021-04-27T10:00:02Z</time>
      </trkpt>
      <trkpt lat="43.84778" lon="-0.50183">
        <ele>88.068</ele>
        <time>2021-04-27T10:00:22Z</time>
      </trkpt>
      <trkpt lat="43.84704" lon="-0.50193">
        <ele>87.814</ele>
        <time>2021-04-27T10:00:42Z</time>
      </trkpt>
      <trkpt lat="43.84584" lon="-0.50204">
        <ele>84.408</ele>
        <time>2021-04-27T10:01:02Z</time>
      </trkpt>
      <trkpt lat="43.84519" lon="-0.50202">
        <ele>84.853</ele>
        <time>2021-04-27T10:01:22Z</time>
      </trkpt>
      <trkpt lat="43.84484" lon="-0.50193">
        <ele>84.757</ele>
        <time>2021-04-27T10:01:42Z</time>
      </trkpt>
      <trkpt lat="43.8443" lon="-0.50163">
        <ele>83.393</ele>
        <time>2021-04-27T10:02:02Z</time>
      </trkpt>
      <trkpt lat="43.84358" lon="-0.50163">
        <ele>82.346</ele>
        <time>2021-04-27T10:02:22Z</time>
      </trkpt>
      <trkpt lat="43.84306" lon="-0.50157">
        <ele>81.359</ele>
        <time>2021-04-27T10:02:42Z</time>
      </trkpt>
      <trkpt lat="43.84049" lon="-0.5008">
        <ele>77.831</ele>
        <time>2021-04-27T10:03:02Z</time>
      </trkpt>
      <trkpt lat="43.84012" lon="-0.50071">
        <ele>76.769</ele>
        <time>2021-04-27T10:03:22Z</time>
      </trkpt>
      <trkpt lat="43.83982" lon="-0.50069">
        <ele>76.324</ele>
        <time>2021-04-27T10:03:42Z</time>
      </trkpt>
      <trkpt lat="43.83961" lon="-0.50077">
        <ele>76.178</ele>
        <time>2021-04-27T10:04:02Z</time>
      </trkpt>
      <trkpt lat="43.83919" lon="-0.5011">
        <ele>75.733</ele>
        <time>2021-04-27T10:04:22Z</time>
      </trkpt>
      <trkpt lat="43.83885" lon="-0.50118">
        <ele>75.526</ele>
        <time>2021-04-27T10:04:42Z</time>
      </trkpt>
      <trkpt lat="43.83828" lon="-0.50116">
        <ele>75.608</ele>
        <time>2021-04-27T10:05:02Z</time>
      </trkpt>
      <trkpt lat="43.83764" lon="-0.50101">
        <ele>77.284</ele>
        <time>2021-04-27T10:05:22Z</time>
      </trkpt>
      <trkpt lat="43.83688" lon="-0.50071">
        <ele>78.358</ele>
        <time>2021-04-27T10:05:42Z</time>
      </trkpt>
      <trkpt lat="43.8364" lon="-0.5006">
        <ele>78.244</ele>
        <time>2021-04-27T10:06:02Z</time>
      </trkpt>
      <trkpt lat="43.83574" lon="-0.5003">
        <ele>77.577</ele>
        <time>2021-04-27T10:06:22Z</time>
      </trkpt>
      <trkpt lat="43.83451" lon="-0.49987">
        <ele>77.78</ele>
        <time>2021-04-27T10:06:42Z</time>
      </trkpt>
      <trkpt lat="43.83394" lon="-0.49972">
        <ele>75.432</ele>
        <time>2021-04-27T10:07:02Z</time>
      </trkpt>
      <trkpt lat="43.83357" lon="-0.4997">
        <ele>73.37</ele>
        <time>2021-04-27T10:07:22Z</time>
      </trkpt>
      <trkpt lat="43.8334" lon="-0.49974">
        <ele>72.485</ele>
        <time>2021-04-27T10:07:42Z</time>
      </trkpt>
      <trkpt lat="43.83281" lon="-0.50011">
        <ele>71.522</ele>
        <time>2021-04-27T10:08:02Z</time>
      </trkpt>
      <trkpt lat="43.83235" lon="-0.50028">
        <ele>71.462</ele>
        <time>2021-04-27T10:08:22Z</time>
      </trkpt>
      <trkpt lat="43.83165" lon="-0.50052">
        <ele>72.208</ele>
        <time>2021-04-27T10:08:42Z</time>
      </trkpt>
      <trkpt lat="43.83126" lon="-0.5006">
        <ele>71.608</ele>
        <time>2021-04-27T10:09:02Z</time>
      </trkpt>
      <trkpt lat="43.83041" lon="-0.50097">
        <ele>71.069</ele>
        <time>2021-04-27T10:09:22Z</time>
      </trkpt>
      <trkpt lat="43.82917" lon="-0.50142">
        <ele>67.013</ele>
        <time>2021-04-27T10:09:42Z</time>
      </trkpt>
      <trkpt lat="43.82908" lon="-0.50146">
        <ele>67.099</ele>
        <time>2021-04-27T10:10:02Z</time>
      </trkpt>
      <trkpt lat="43.82902" lon="-0.5017">
        <ele>67.022</ele>
        <time>2021-04-27T10:10:22Z</time>
      </trkpt>
      <trkpt lat="43.8291" lon="-0.50264">
        <ele>68.015</ele>
        <time>2021-04-27T10:10:42Z</time>
      </trkpt>
      <trkpt lat="43.82913" lon="-0.50277">
        <ele>68.277</ele>
        <time>2021-04-27T10:11:02Z</time>
      </trkpt>
      <trkpt lat="43.829" lon="-0.50301">
        <ele>68.395</ele>
        <time>2021-04-27T10:11:22Z</time>
      </trkpt>
      <trkpt lat="43.82835" lon="-0.50298">
        <ele>67.24</ele>
        <time>2021-04-27T10:11:42Z</time>
      </trkpt>
      <trkpt lat="43.82554" lon="-0.50266">
        <ele>70.843</ele>
        <time>2021-04-27T10:12:02Z</time>
      </trkpt>
      <trkpt lat="43.82527" lon="-0.50258">
        <ele>70.064</ele>
        <time>2021-04-27T10:12:22Z</time>
      </trkpt>
      <trkpt lat="43.82417" lon="-0.5017">
        <ele>74.91</ele>
        <time>2021-04-27T10:12:42Z</time>
      </trkpt>
      <trkpt lat="43.8238" lon="-0.50161">
        <ele>75.408</ele>
        <time>2021-04-27T10:13:02Z</time>
      </trkpt>
      <trkpt lat="43.8234" lon="-0.50163">
        <ele>76.021</ele>
        <time>2021-04-27T10:13:22Z</time>
      </trkpt>
      <trkpt lat="43.82329" lon="-0.50161">
        <ele>76.125</ele>
        <time>2021-04-27T10:13:42Z</time>
      </trkpt>
      <trkpt lat="43.82317" lon="-0.5015">
        <ele>76.221</ele>
        <time>2021-04-27T10:14:02Z</time>
      </trkpt>
      <trkpt lat="43.82275" lon="-0.50105">
        <ele>77.334</ele>
        <time>2021-04-27T10:14:22Z</time>
      </trkpt>
      <trkpt lat="43.82266" lon="-0.50101">
        <ele>77.487</ele>
        <time>2021-04-27T10:14:42Z</time>
      </trkpt>
      <trkpt lat="43.82077" lon="-0.5015">
        <ele>75.589</ele>
        <time>2021-04-27T10:15:02Z</time>
      </trkpt>
      <trkpt lat="43.82057" lon="-0.50176">
        <ele>74.937</ele>
        <time>2021-04-27T10:15:22Z</time>
      </trkpt>
      <trkpt lat="43.82043" lon="-0.50189">
        <ele>74.642</ele>
        <time>2021-04-27T10:15:42Z</time>
      </trkpt>
      <trkpt lat="43.81787" lon="-0.50335">
        <ele>74.093</ele>
        <time>2021-04-27T10:16:02Z</time>
      </trkpt>
      <trkpt lat="43.81758" lon="-0.50341">
        <ele>73.765</ele>
        <time>2021-04-27T10:16:22Z</time>
      </trkpt>
      <trkpt lat="43.81741" lon="-0.50335">
        <ele>74.221</ele>
        <time>2021-04-27T10:16:42Z</time>
      </trkpt>
      <trkpt lat="43.81724" lon="-0.50318">
        <ele>74.408</ele>
        <time>2021-04-27T10:17:02Z</time>
      </trkpt>
      <trkpt lat="43.81657" lon="-0.50232">
        <ele>74.986</ele>
        <time>2021-04-27T10:17:22Z</time>
      </trkpt>
      <trkpt lat="43.81555" lon="-0.50086">
        <ele>72.19</ele>
        <time>2021-04-27T10:17:42Z</time>
      </trkpt>
      <trkpt lat="43.81439" lon="-0.50015">
        <ele>67.966</ele>
        <time>2021-04-27T10:18:02Z</time>
      </trkpt>
      <trkpt lat="43.81425" lon="-0.50013">
        <ele>67.479</ele>
        <time>2021-04-27T10:18:22Z</time>
      </trkpt>
      <trkpt lat="43.81354" lon="-0.50039">
        <ele>70.162</ele>
        <time>2021-04-27T10:18:42Z</time>
      </trkpt>
      <trkpt lat="43.81134" lon="-0.50107">
        <ele>71.234</ele>
        <time>2021-04-27T10:19:02Z</time>
      </trkpt>
      <trkpt lat="43.81123" lon="-0.50118">
        <ele>71.062</ele>
        <time>2021-04-27T10:19:22Z</time>
      </trkpt>
      <trkpt lat="43.81108" lon="-0.50223">
        <ele>72.467</ele>
        <time>2021-04-27T10:19:42Z</time>
      </trkpt>
      <trkpt lat="43.81061" lon="-0.50337">
        <ele>74.699</ele>
        <time>2021-04-27T10:20:02Z</time>
      </trkpt>
      <trkpt lat="43.81047" lon="-0.50393">
        <ele>73.607</ele>
        <time>2021-04-27T10:20:22Z</time>
      </trkpt>
      <trkpt lat="43.8103" lon="-0.50444">
        <ele>72.427</ele>
        <time>2021-04-27T10:20:42Z</time>
      </trkpt>
      <trkpt lat="43.8093" lon="-0.50453">
        <ele>68.308</ele>
        <time>2021-04-27T10:21:02Z</time>
      </trkpt>
      <trkpt lat="43.80823" lon="-0.50468">
        <ele>69.076</ele>
        <time>2021-04-27T10:21:22Z</time>
      </trkpt>
      <trkpt lat="43.80803" lon="-0.50474">
        <ele>69.11</ele>
        <time>2021-04-27T10:21:42Z</time>
      </trkpt>
      <trkpt lat="43.80772" lon="-0.50485">
        <ele>69.146</ele>
        <time>2021-04-27T10:22:02Z</time>
      </trkpt>
      <trkpt lat="43.80669" lon="-0.50543">
        <ele>69.049</ele>
        <time>2021-04-27T10:22:22Z</time>
      </trkpt>
      <trkpt lat="43.80638" lon="-0.50567">
        <ele>69.562</ele>
        <time>2021-04-27T10:22:42Z</time>
      </trkpt>
      <trkpt lat="43.80607" lon="-0.50597">
        <ele>70.464</ele>
        <time>2021-04-27T10:23:02Z</time>
      </trkpt>
      <trkpt lat="43.80581" lon="-0.50618">
        <ele>71.452</ele>
        <time>2021-04-27T10:23:22Z</time>
      </trkpt>
      <trkpt lat="43.80553" lon="-0.50629">
        <ele>71.937</ele>
        <time>2021-04-27T10:23:42Z</time>
      </trkpt>
      <trkpt lat="43.80525" lon="-0.50631">
        <ele>72.475</ele>
        <time>2021-04-27T10:24:02Z</time>
      </trkpt>
      <trkpt lat="43.80471" lon="-0.50631">
        <ele>72.728</ele>
        <time>2021-04-27T10:24:22Z</time>
      </trkpt>
      <trkpt lat="43.80431" lon="-0.50753">
        <ele>73.62</ele>
        <time>2021-04-27T10:24:42Z</time>
      </trkpt>
      <trkpt lat="43.80401" lon="-0.50854">
        <ele>71.808</ele>
        <time>2021-04-27T10:25:02Z</time>
      </trkpt>
      <trkpt lat="43.80431" lon="-0.50867">
        <ele>72.354</ele>
        <time>2021-04-27T10:25:22Z</time>
      </trkpt>
      <trkpt lat="43.80436" lon="-0.50876">
        <ele>72.388</ele>
        <time>2021-04-27T10:25:42Z</time>
      </trkpt>
      <trkpt lat="43.80408" lon="-0.50998">
        <ele>69.974</ele>
        <time>2021-04-27T10:26:02Z</time>
      </trkpt>
      <trkpt lat="43.80361" lon="-0.51176">
        <ele>71.467</ele>
        <time>2021-04-27T10:26:22Z</time>
      </trkpt>
      <trkpt lat="43.80355" lon="-0.51191">
        <ele>71.68</ele>
        <time>2021-04-27T10:26:42Z</time>
      </trkpt>
      <trkpt lat="43.80209" lon="-0.51318">
        <ele>71.542</ele>
        <time>2021-04-27T10:27:02Z</time>
      </trkpt>
      <trkpt lat="43.80202" lon="-0.51328">
        <ele>71.45</ele>
        <time>2021-04-27T10:27:22Z</time>
      </trkpt>
      <trkpt lat="43.80157" lon="-0.51408">
        <ele>71.185</ele>
        <time>2021-04-27T10:27:42Z</time>
      </trkpt>
      <trkpt lat="43.80065" lon="-0.51515">
        <ele>72.478</ele>
        <time>2021-04-27T10:28:02Z</time>
      </trkpt>
      <trkpt lat="43.80073" lon="-0.51526">
        <ele>71.833</ele>
        <time>2021-04-27T10:28:22Z</time>
      </trkpt>
      <trkpt lat="43.80079" lon="-0.51545">
        <ele>70.926</ele>
        <time>2021-04-27T10:28:42Z</time>
      </trkpt>
      <trkpt lat="43.80076" lon="-0.51579">
        <ele>69.408</ele>
        <time>2021-04-27T10:29:02Z</time>
      </trkpt>
      <trkpt lat="43.80056" lon="-0.51725">
        <ele>70.894</ele>
        <time>2021-04-27T10:29:22Z</time>
      </trkpt>
      <trkpt lat="43.80045" lon="-0.51775">
        <ele>70.018</ele>
        <time>2021-04-27T10:29:42Z</time>
      </trkpt>
      <trkpt lat="43.80008" lon="-0.51893">
        <ele>67.814</ele>
        <time>2021-04-27T10:30:02Z</time>
      </trkpt>
      <trkpt lat="43.79963" lon="-0.52058">
        <ele>68.117</ele>
        <time>2021-04-27T10:30:22Z</time>
      </trkpt>
      <trkpt lat="43.79949" lon="-0.5212">
        <ele>70.78</ele>
        <time>2021-04-27T10:30:42Z</time>
      </trkpt>
      <trkpt lat="43.79909" lon="-0.5232">
        <ele>74.652</ele>
        <time>2021-04-27T10:31:02Z</time>
      </trkpt>
      <trkpt lat="43.79878" lon="-0.52455">
        <ele>74.06</ele>
        <time>2021-04-27T10:31:22Z</time>
      </trkpt>
      <trkpt lat="43.7966" lon="-0.53051">
        <ele>69.695</ele>
        <time>2021-04-27T10:31:42Z</time>
      </trkpt>
      <trkpt lat="43.79511" lon="-0.53532">
        <ele>68.492</ele>
        <time>2021-04-27T10:32:02Z</time>
      </trkpt>
      <trkpt lat="43.79392" lon="-0.54144">
        <ele>64.073</ele>
        <time>2021-04-27T10:32:22Z</time>
      </trkpt>
      <trkpt lat="43.79296" lon="-0.54165">
        <ele>60.12</ele>
        <time>2021-04-27T10:32:42Z</time>
      </trkpt>
      <trkpt lat="43.79196" lon="-0.54184">
        <ele>56.908</ele>
        <time>2021-04-27T10:33:02Z</time>
      </trkpt>
      <trkpt lat="43.79164" lon="-0.54184">
        <ele>55.966</ele>
        <time>2021-04-27T10:33:22Z</time>
      </trkpt>
      <trkpt lat="43.78998" lon="-0.54227">
        <ele>53.86</ele>
        <time>2021-04-27T10:33:42Z</time>
      </trkpt>
      <trkpt lat="43.78963" lon="-0.54242">
        <ele>52.526</ele>
        <time>2021-04-27T10:34:02Z</time>
      </trkpt>
      <trkpt lat="43.78901" lon="-0.54287">
        <ele>49.299</ele>
        <time>2021-04-27T10:34:22Z</time>
      </trkpt>
      <trkpt lat="43.78857" lon="-0.54365">
        <ele>48.232</ele>
        <time>2021-04-27T10:34:42Z</time>
      </trkpt>
      <trkpt lat="43.78857" lon="-0.54373">
        <ele>48.374</ele>
        <time>2021-04-27T10:35:02Z</time>
      </trkpt>
      <trkpt lat="43.7898" lon="-0.54624">
        <ele>53.942</ele>
        <time>2021-04-27T10:35:22Z</time>
      </trkpt>
      <trkpt lat="43.78981" lon="-0.54637">
        <ele>54.077</ele>
        <time>2021-04-27T10:35:42Z</time>
      </trkpt>
      <trkpt lat="43.78823" lon="-0.54925">
        <ele>50.529</ele>
        <time>2021-04-27T10:36:02Z</time>
      </trkpt>
      <trkpt lat="43.78595" lon="-0.55285">
        <ele>47</ele>
        <time>2021-04-27T10:36:22Z</time>
      </trkpt>
      <trkpt lat="43.78286" lon="-0.55588">
        <ele>47.22</ele>
        <time>2021-04-27T10:36:42Z</time>
      </trkpt>
      <trkpt lat="43.78211" lon="-0.55596">
        <ele>44.608</ele>
        <time>2021-04-27T10:37:02Z</time>
      </trkpt>
      <trkpt lat="43.78131" lon="-0.55614">
        <ele>43.689</ele>
        <time>2021-04-27T10:37:22Z</time>
      </trkpt>
      <trkpt lat="43.77796" lon="-0.55669">
        <ele>42.143</ele>
        <time>2021-04-27T10:37:42Z</time>
      </trkpt>
      <trkpt lat="43.77774" lon="-0.55669">
        <ele>41.699</ele>
        <time>2021-04-27T10:38:02Z</time>
      </trkpt>
      <trkpt lat="43.77774" lon="-0.55659">
        <ele>41.482</ele>
        <time>2021-04-27T10:38:22Z</time>
      </trkpt>
      <trkpt lat="43.7779" lon="-0.55654">
        <ele>41.715</ele>
        <time>2021-04-27T10:38:42Z</time>
      </trkpt>
      <trkpt lat="43.77788" lon="-0.55592">
        <ele>40.587</ele>
        <time>2021-04-27T10:39:02Z</time>
      </trkpt>
      <trkpt lat="43.77782" lon="-0.555">
        <ele>40.455</ele>
        <time>2021-04-27T10:39:22Z</time>
      </trkpt>
      <trkpt lat="43.77785" lon="-0.5544">
        <ele>40.48</ele>
        <time>2021-04-27T10:39:42Z</time>
      </trkpt>
      <trkpt lat="43.77702" lon="-0.55416">
        <ele>38.951</ele>
        <time>2021-04-27T10:40:02Z</time>
      </trkpt>
      <trkpt lat="43.77716" lon="-0.55339">
        <ele>41.401</ele>
        <time>2021-04-27T10:40:22Z</time>
      </trkpt>
      <trkpt lat="43.77717" lon="-0.55294">
        <ele>41.611</ele>
        <time>2021-04-27T10:40:42Z</time>
      </trkpt>
      <trkpt lat="43.77697" lon="-0.55307">
        <ele>41.408</ele>
        <time>2021-04-27T10:41:02Z</time>
      </trkpt>
      <trkpt lat="43.77675" lon="-0.55337">
        <ele>41.012</ele>
        <time>2021-04-27T10:41:22Z</time>
      </trkpt>
      <trkpt lat="43.77658" lon="-0.55347">
        <ele>40.446</ele>
        <time>2021-04-27T10:41:42Z</time>
      </trkpt>
      <trkpt lat="43.77644" lon="-0.55345">
        <ele>40.372</ele>
        <time>2021-04-27T10:42:02Z</time>
      </trkpt>
      <trkpt lat="43.77633" lon="-0.55339">
        <ele>40.465</ele>
        <time>2021-04-27T10:42:22Z</time>
      </trkpt>
      <trkpt lat="43.7764" lon="-0.55315">
        <ele>40.698</ele>
        <time>2021-04-27T10:42:42Z</time>
      </trkpt>
      <trkpt lat="43.77426" lon="-0.55114">
        <ele>40.97</ele>
        <time>2021-04-27T10:43:02Z</time>
      </trkpt>
      <trkpt lat="43.77409" lon="-0.55146">
        <ele>40.978</ele>
        <time>2021-04-27T10:43:22Z</time>
      </trkpt>
      <trkpt lat="43.77379" lon="-0.55182">
        <ele>40.363</ele>
        <time>2021-04-27T10:43:42Z</time>
      </trkpt>
      <trkpt lat="43.76983" lon="-0.55526">
        <ele>40.126</ele>
        <time>2021-04-27T10:44:02Z</time>
      </trkpt>
      <trkpt lat="43.76891" lon="-0.55624">
        <ele>40.147</ele>
        <time>2021-04-27T10:44:22Z</time>
      </trkpt>
      <trkpt lat="43.76866" lon="-0.55661">
        <ele>41.111</ele>
        <time>2021-04-27T10:44:42Z</time>
      </trkpt>
      <trkpt lat="43.76851" lon="-0.55693">
        <ele>41.308</ele>
        <time>2021-04-27T10:45:02Z</time>
      </trkpt>
      <trkpt lat="43.76835" lon="-0.55757">
        <ele>41.029</ele>
        <time>2021-04-27T10:45:22Z</time>
      </trkpt>
      <trkpt lat="43.76826" lon="-0.55828">
        <ele>40.773</ele>
        <time>2021-04-27T10:45:42Z</time>
      </trkpt>
      <trkpt lat="43.76823" lon="-0.55905">
        <ele>41.349</ele>
        <time>2021-04-27T10:46:02Z</time>
      </trkpt>
      <trkpt lat="43.76828" lon="-0.55991">
        <ele>40.192</ele>
        <time>2021-04-27T10:46:22Z</time>
      </trkpt>
      <trkpt lat="43.76829" lon="-0.56169">
        <ele>39.725</ele>
        <time>2021-04-27T10:46:42Z</time>
      </trkpt>
      <trkpt lat="43.76811" lon="-0.56978">
        <ele>38.817</ele>
        <time>2021-04-27T10:47:02Z</time>
      </trkpt>
      <trkpt lat="43.76665" lon="-0.56965">
        <ele>35.595</ele>
        <time>2021-04-27T10:47:22Z</time>
      </trkpt>
      <trkpt lat="43.76603" lon="-0.56963">
        <ele>37.19</ele>
        <time>2021-04-27T10:47:42Z</time>
      </trkpt>
      <trkpt lat="43.7646" lon="-0.5695">
        <ele>40.623</ele>
        <time>2021-04-27T10:48:02Z</time>
      </trkpt>
      <trkpt lat="43.76386" lon="-0.5695">
        <ele>45.883</ele>
        <time>2021-04-27T10:48:22Z</time>
      </trkpt>
      <trkpt lat="43.76355" lon="-0.56959">
        <ele>49.511</ele>
        <time>2021-04-27T10:48:42Z</time>
      </trkpt>
      <trkpt lat="43.7633" lon="-0.5698">
        <ele>53.408</ele>
        <time>2021-04-27T10:49:02Z</time>
      </trkpt>
      <trkpt lat="43.76318" lon="-0.57013">
        <ele>59.219</ele>
        <time>2021-04-27T10:49:22Z</time>
      </trkpt>
      <trkpt lat="43.76313" lon="-0.57032">
        <ele>61.513</ele>
        <time>2021-04-27T10:49:42Z</time>
      </trkpt>
      <trkpt lat="43.76313" lon="-0.57053">
        <ele>61.869</ele>
        <time>2021-04-27T10:50:02Z</time>
      </trkpt>
      <trkpt lat="43.7629" lon="-0.5707">
        <ele>68.962</ele>
        <time>2021-04-27T10:50:22Z</time>
      </trkpt>
      <trkpt lat="43.76265" lon="-0.57107">
        <ele>77.795</ele>
        <time>2021-04-27T10:50:42Z</time>
      </trkpt>
      <trkpt lat="43.76248" lon="-0.57118">
        <ele>83.137</ele>
        <time>2021-04-27T10:51:02Z</time>
      </trkpt>
      <trkpt lat="43.7623" lon="-0.57176">
        <ele>91.135</ele>
        <time>2021-04-27T10:51:22Z</time>
      </trkpt>
      <trkpt lat="43.76172" lon="-0.57223">
        <ele>96.94</ele>
        <time>2021-04-27T10:51:42Z</time>
      </trkpt>
      <trkpt lat="43.76154" lon="-0.57274">
        <ele>97.238</ele>
        <time>2021-04-27T10:52:02Z</time>
      </trkpt>
      <trkpt lat="43.76137" lon="-0.57298">
        <ele>97.47</ele>
        <time>2021-04-27T10:52:22Z</time>
      </trkpt>
      <trkpt lat="43.76071" lon="-0.5741">
        <ele>99.917</ele>
        <time>2021-04-27T10:52:42Z</time>
      </trkpt>
      <trkpt lat="43.7603" lon="-0.57446">
        <ele>102.808</ele>
        <time>2021-04-27T10:53:02Z</time>
      </trkpt>
      <trkpt lat="43.75994" lon="-0.57459">
        <ele>104.51</ele>
        <time>2021-04-27T10:53:22Z</time>
      </trkpt>
      <trkpt lat="43.75982" lon="-0.57373">
        <ele>105.494</ele>
        <time>2021-04-27T10:53:42Z</time>
      </trkpt>
      <trkpt lat="43.75963" lon="-0.57334">
        <ele>105.37</ele>
        <time>2021-04-27T10:54:02Z</time>
      </trkpt>
      <trkpt lat="43.75903" lon="-0.5724">
        <ele>107.843</ele>
        <time>2021-04-27T10:54:22Z</time>
      </trkpt>
      <trkpt lat="43.75881" lon="-0.57223">
        <ele>107.536</ele>
        <time>2021-04-27T10:54:42Z</time>
      </trkpt>
      <trkpt lat="43.75819" lon="-0.57216">
        <ele>106.928</ele>
        <time>2021-04-27T10:55:02Z</time>
      </trkpt>
      <trkpt lat="43.75775" lon="-0.57206">
        <ele>105.496</ele>
        <time>2021-04-27T10:55:22Z</time>
      </trkpt>
      <trkpt lat="43.75673" lon="-0.57167">
        <ele>105.871</ele>
        <time>2021-04-27T10:55:42Z</time>
      </trkpt>
      <trkpt lat="43.75638" lon="-0.57143">
        <ele>106.035</ele>
        <time>2021-04-27T10:56:02Z</time>
      </trkpt>
      <trkpt lat="43.75534" lon="-0.57062">
        <ele>105.186</ele>
        <time>2021-04-27T10:56:22Z</time>
      </trkpt>
      <trkpt lat="43.755" lon="-0.5707">
        <ele>104.814</ele>
        <time>2021-04-27T10:56:42Z</time>
      </trkpt>
      <trkpt lat="43.75383" lon="-0.57068">
        <ele>102.708</ele>
        <time>2021-04-27T10:57:02Z</time>
      </trkpt>
      <trkpt lat="43.7538" lon="-0.57249">
        <ele>98.08</ele>
        <time>2021-04-27T10:57:22Z</time>
      </trkpt>
      <trkpt lat="43.75382" lon="-0.57339">
        <ele>99.094</ele>
        <time>2021-04-27T10:57:42Z</time>
      </trkpt>
      <trkpt lat="43.7539" lon="-0.57401">
        <ele>98.76</ele>
        <time>2021-04-27T10:58:02Z</time>
      </trkpt>
      <trkpt lat="43.75345" lon="-0.57412">
        <ele>98.293</ele>
        <time>2021-04-27T10:58:22Z</time>
      </trkpt>
      <trkpt lat="43.75328" lon="-0.5742">
        <ele>98.146</ele>
        <time>2021-04-27T10:58:42Z</time>
      </trkpt>
      <trkpt lat="43.75317" lon="-0.57433">
        <ele>98.238</ele>
        <time>2021-04-27T10:59:02Z</time>
      </trkpt>
      <trkpt lat="43.75306" lon="-0.57457">
        <ele>97.986</ele>
        <time>2021-04-27T10:59:22Z</time>
      </trkpt>
      <trkpt lat="43.75272" lon="-0.57506">
        <ele>97.491</ele>
        <time>2021-04-27T10:59:42Z</time>
      </trkpt>
      <trkpt lat="43.75253" lon="-0.57562">
        <ele>96.526</ele>
        <time>2021-04-27T11:00:02Z</time>
      </trkpt>
      <trkpt lat="43.75242" lon="-0.57609">
        <ele>96.147</ele>
        <time>2021-04-27T11:00:22Z</time>
      </trkpt>
      <trkpt lat="43.75179" lon="-0.57742">
        <ele>97.511</ele>
        <time>2021-04-27T11:00:42Z</time>
      </trkpt>
      <trkpt lat="43.75168" lon="-0.57755">
        <ele>97.908</ele>
        <time>2021-04-27T11:01:02Z</time>
      </trkpt>
      <trkpt lat="43.75151" lon="-0.57766">
        <ele>97.459</ele>
        <time>2021-04-27T11:01:22Z</time>
      </trkpt>
      <trkpt lat="43.75134" lon="-0.57802">
        <ele>96.623</ele>
        <time>2021-04-27T11:01:42Z</time>
      </trkpt>
      <trkpt lat="43.75109" lon="-0.57907">
        <ele>95.349</ele>
        <time>2021-04-27T11:02:02Z</time>
      </trkpt>
      <trkpt lat="43.75104" lon="-0.57955">
        <ele>95.392</ele>
        <time>2021-04-27T11:02:22Z</time>
      </trkpt>
      <trkpt lat="43.75083" lon="-0.5801">
        <ele>94.745</ele>
        <time>2021-04-27T11:02:42Z</time>
      </trkpt>
      <trkpt lat="43.7508" lon="-0.58045">
        <ele>93.747</ele>
        <time>2021-04-27T11:03:02Z</time>
      </trkpt>
      <trkpt lat="43.75083" lon="-0.58167">
        <ele>92.055</ele>
        <time>2021-04-27T11:03:22Z</time>
      </trkpt>
      <trkpt lat="43.75087" lon="-0.58197">
        <ele>91.84</ele>
        <time>2021-04-27T11:03:42Z</time>
      </trkpt>
      <trkpt lat="43.75095" lon="-0.58218">
        <ele>91.812</ele>
        <time>2021-04-27T11:04:02Z</time>
      </trkpt>
      <trkpt lat="43.75118" lon="-0.58244">
        <ele>92.332</ele>
        <time>2021-04-27T11:04:22Z</time>
      </trkpt>
      <trkpt lat="43.75156" lon="-0.58272">
        <ele>92.405</ele>
        <time>2021-04-27T11:04:42Z</time>
      </trkpt>
      <trkpt lat="43.75066" lon="-0.58334">
        <ele>83.108</ele>
        <time>2021-04-27T11:05:02Z</time>
      </trkpt>
      <trkpt lat="43.75055" lon="-0.58356">
        <ele>81.398</ele>
        <time>2021-04-27T11:05:22Z</time>
      </trkpt>
      <trkpt lat="43.74996" lon="-0.58506">
        <ele>69.842</ele>
        <time>2021-04-27T11:05:42Z</time>
      </trkpt>
      <trkpt lat="43.74983" lon="-0.58532">
        <ele>68.888</ele>
        <time>2021-04-27T11:06:02Z</time>
      </trkpt>
      <trkpt lat="43.74962" lon="-0.5856">
        <ele>67.791</ele>
        <time>2021-04-27T11:06:22Z</time>
      </trkpt>
      <trkpt lat="43.74884" lon="-0.58607">
        <ele>64.564</ele>
        <time>2021-04-27T11:06:42Z</time>
      </trkpt>
      <trkpt lat="43.74852" lon="-0.58637">
        <ele>63.016</ele>
        <time>2021-04-27T11:07:02Z</time>
      </trkpt>
      <trkpt lat="43.74805" lon="-0.58667">
        <ele>61.354</ele>
        <time>2021-04-27T11:07:22Z</time>
      </trkpt>
      <trkpt lat="43.7478" lon="-0.58673">
        <ele>60.569</ele>
        <time>2021-04-27T11:07:42Z</time>
      </trkpt>
      <trkpt lat="43.74739" lon="-0.58673">
        <ele>60.392</ele>
        <time>2021-04-27T11:08:02Z</time>
      </trkpt>
      <trkpt lat="43.74731" lon="-0.58678">
        <ele>60.573</ele>
        <time>2021-04-27T11:08:22Z</time>
      </trkpt>
      <trkpt lat="43.7468" lon="-0.58755">
        <ele>61.42</ele>
        <time>2021-04-27T11:08:42Z</time>
      </trkpt>
      <trkpt lat="43.74658" lon="-0.58774">
        <ele>62.408</ele>
        <time>2021-04-27T11:09:02Z</time>
      </trkpt>
      <trkpt lat="43.74615" lon="-0.58776">
        <ele>63.286</ele>
        <time>2021-04-27T11:09:22Z</time>
      </trkpt>
      <trkpt lat="43.74566" lon="-0.58761">
        <ele>63.63</ele>
        <time>2021-04-27T11:09:42Z</time>
      </trkpt>
      <trkpt lat="43.74548" lon="-0.58764">
        <ele>63.356</ele>
        <time>2021-04-27T11:10:02Z</time>
      </trkpt>
      <trkpt lat="43.74526" lon="-0.58783">
        <ele>62.659</ele>
        <time>2021-04-27T11:10:22Z</time>
      </trkpt>
      <trkpt lat="43.74509" lon="-0.58806">
        <ele>61.842</ele>
        <time>2021-04-27T11:10:42Z</time>
      </trkpt>
      <trkpt lat="43.7447" lon="-0.58877">
        <ele>60.484</ele>
        <time>2021-04-27T11:11:02Z</time>
      </trkpt>
      <trkpt lat="43.74452" lon="-0.58922">
        <ele>59.422</ele>
        <time>2021-04-27T11:11:22Z</time>
      </trkpt>
      <trkpt lat="43.74436" lon="-0.59036">
        <ele>53.237</ele>
        <time>2021-04-27T11:11:42Z</time>
      </trkpt>
      <trkpt lat="43.74427" lon="-0.59072">
        <ele>51.014</ele>
        <time>2021-04-27T11:12:02Z</time>
      </trkpt>
      <trkpt lat="43.74418" lon="-0.5909">
        <ele>50.054</ele>
        <time>2021-04-27T11:12:22Z</time>
      </trkpt>
      <trkpt lat="43.74396" lon="-0.59113">
        <ele>49.509</ele>
        <time>2021-04-27T11:12:42Z</time>
      </trkpt>
      <trkpt lat="43.74387" lon="-0.59137">
        <ele>49.308</ele>
        <time>2021-04-27T11:13:02Z</time>
      </trkpt>
      <trkpt lat="43.74356" lon="-0.59233">
        <ele>47.348</ele>
        <time>2021-04-27T11:13:22Z</time>
      </trkpt>
      <trkpt lat="43.74345" lon="-0.59251">
        <ele>47.042</ele>
        <time>2021-04-27T11:13:42Z</time>
      </trkpt>
      <trkpt lat="43.74491" lon="-0.59592">
        <ele>44.248</ele>
        <time>2021-04-27T11:14:02Z</time>
      </trkpt>
      <trkpt lat="43.73987" lon="-0.59961">
        <ele>40.521</ele>
        <time>2021-04-27T11:14:22Z</time>
      </trkpt>
      <trkpt lat="43.7385" lon="-0.60068">
        <ele>41.044</ele>
        <time>2021-04-27T11:14:42Z</time>
      </trkpt>
      <trkpt lat="43.73807" lon="-0.60111">
        <ele>46.676</ele>
        <time>2021-04-27T11:15:02Z</time>
      </trkpt>
      <trkpt lat="43.73802" lon="-0.60122">
        <ele>47.774</ele>
        <time>2021-04-27T11:15:22Z</time>
      </trkpt>
      <trkpt lat="43.73799" lon="-0.6033">
        <ele>46.859</ele>
        <time>2021-04-27T11:15:42Z</time>
      </trkpt>
      <trkpt lat="43.73804" lon="-0.60377">
        <ele>45.666</ele>
        <time>2021-04-27T11:16:02Z</time>
      </trkpt>
      <trkpt lat="43.73835" lon="-0.60512">
        <ele>42.129</ele>
        <time>2021-04-27T11:16:22Z</time>
      </trkpt>
      <trkpt lat="43.73856" lon="-0.60581">
        <ele>42.421</ele>
        <time>2021-04-27T11:16:42Z</time>
      </trkpt>
      <trkpt lat="43.73855" lon="-0.6059">
        <ele>42.408</ele>
        <time>2021-04-27T11:17:02Z</time>
      </trkpt>
      <trkpt lat="43.73802" lon="-0.60611">
        <ele>42.943</ele>
        <time>2021-04-27T11:17:22Z</time>
      </trkpt>
      <trkpt lat="43.73779" lon="-0.60611">
        <ele>43.137</ele>
        <time>2021-04-27T11:17:42Z</time>
      </trkpt>
      <trkpt lat="43.73639" lon="-0.60575">
        <ele>44.863</ele>
        <time>2021-04-27T11:18:02Z</time>
      </trkpt>
      <trkpt lat="43.73604" lon="-0.60562">
        <ele>45.346</ele>
        <time>2021-04-27T11:18:22Z</time>
      </trkpt>
      <trkpt lat="43.73542" lon="-0.60517">
        <ele>44.779</ele>
        <time>2021-04-27T11:18:42Z</time>
      </trkpt>
      <trkpt lat="43.735" lon="-0.60482">
        <ele>44.431</ele>
        <time>2021-04-27T11:19:02Z</time>
      </trkpt>
      <trkpt lat="43.73481" lon="-0.60446">
        <ele>44.989</ele>
        <time>2021-04-27T11:19:22Z</time>
      </trkpt>
      <trkpt lat="43.73416" lon="-0.60394">
        <ele>44.384</ele>
        <time>2021-04-27T11:19:42Z</time>
      </trkpt>
      <trkpt lat="43.73405" lon="-0.60381">
        <ele>44.257</ele>
        <time>2021-04-27T11:20:02Z</time>
      </trkpt>
      <trkpt lat="43.73401" lon="-0.60373">
        <ele>44.2</ele>
        <time>2021-04-27T11:20:22Z</time>
      </trkpt>
      <trkpt lat="43.73391" lon="-0.60227">
        <ele>47.62</ele>
        <time>2021-04-27T11:20:42Z</time>
      </trkpt>
      <trkpt lat="43.7339" lon="-0.6022">
        <ele>47.908</ele>
        <time>2021-04-27T11:21:02Z</time>
      </trkpt>
      <trkpt lat="43.73379" lon="-0.6021">
        <ele>48.412</ele>
        <time>2021-04-27T11:21:22Z</time>
      </trkpt>
      <trkpt lat="43.73367" lon="-0.60205">
        <ele>48.756</ele>
        <time>2021-04-27T11:21:42Z</time>
      </trkpt>
      <trkpt lat="43.73204" lon="-0.6022">
        <ele>51.092</ele>
        <time>2021-04-27T11:22:02Z</time>
      </trkpt>
      <trkpt lat="43.73128" lon="-0.60236">
        <ele>50.415</ele>
        <time>2021-04-27T11:22:22Z</time>
      </trkpt>
      <trkpt lat="43.73109" lon="-0.60236">
        <ele>50.448</ele>
        <time>2021-04-27T11:22:42Z</time>
      </trkpt>
      <trkpt lat="43.73036" lon="-0.60216">
        <ele>49.47</ele>
        <time>2021-04-27T11:23:02Z</time>
      </trkpt>
      <trkpt lat="43.72922" lon="-0.60236">
        <ele>46.038</ele>
        <time>2021-04-27T11:23:22Z</time>
      </trkpt>
      <trkpt lat="43.72901" lon="-0.60242">
        <ele>46.943</ele>
        <time>2021-04-27T11:23:42Z</time>
      </trkpt>
      <trkpt lat="43.72877" lon="-0.60242">
        <ele>48.591</ele>
        <time>2021-04-27T11:24:02Z</time>
      </trkpt>
      <trkpt lat="43.72855" lon="-0.60238">
        <ele>49.881</ele>
        <time>2021-04-27T11:24:22Z</time>
      </trkpt>
      <trkpt lat="43.72861" lon="-0.603">
        <ele>51.719</ele>
        <time>2021-04-27T11:24:42Z</time>
      </trkpt>
      <trkpt lat="43.72858" lon="-0.60311">
        <ele>52.408</ele>
        <time>2021-04-27T11:25:02Z</time>
      </trkpt>
      <trkpt lat="43.72825" lon="-0.60298">
        <ele>54.996</ele>
        <time>2021-04-27T11:25:22Z</time>
      </trkpt>
      <trkpt lat="43.72743" lon="-0.60293">
        <ele>69.03</ele>
        <time>2021-04-27T11:25:42Z</time>
      </trkpt>
      <trkpt lat="43.72656" lon="-0.60263">
        <ele>57.216</ele>
        <time>2021-04-27T11:26:02Z</time>
      </trkpt>
      <trkpt lat="43.72472" lon="-0.60266">
        <ele>49.479</ele>
        <time>2021-04-27T11:26:22Z</time>
      </trkpt>
      <trkpt lat="43.72432" lon="-0.60272">
        <ele>49.762</ele>
        <time>2021-04-27T11:26:42Z</time>
      </trkpt>
      <trkpt lat="43.72373" lon="-0.60293">
        <ele>51.184</ele>
        <time>2021-04-27T11:27:02Z</time>
      </trkpt>
      <trkpt lat="43.72329" lon="-0.60313">
        <ele>52.462</ele>
        <time>2021-04-27T11:27:22Z</time>
      </trkpt>
      <trkpt lat="43.72301" lon="-0.6033">
        <ele>53.257</ele>
        <time>2021-04-27T11:27:42Z</time>
      </trkpt>
      <trkpt lat="43.72219" lon="-0.6042">
        <ele>53.934</ele>
        <time>2021-04-27T11:28:02Z</time>
      </trkpt>
      <trkpt lat="43.72013" lon="-0.60628">
        <ele>51.155</ele>
        <time>2021-04-27T11:28:22Z</time>
      </trkpt>
      <trkpt lat="43.71965" lon="-0.60697">
        <ele>52.21</ele>
        <time>2021-04-27T11:28:42Z</time>
      </trkpt>
      <trkpt lat="43.71955" lon="-0.60705">
        <ele>52.408</ele>
        <time>2021-04-27T11:29:02Z</time>
      </trkpt>
      <trkpt lat="43.71878" lon="-0.60703">
        <ele>51.34</ele>
        <time>2021-04-27T11:29:22Z</time>
      </trkpt>
      <trkpt lat="43.71825" lon="-0.6069">
        <ele>50.784</ele>
        <time>2021-04-27T11:29:42Z</time>
      </trkpt>
      <trkpt lat="43.71738" lon="-0.6066">
        <ele>51.18</ele>
        <time>2021-04-27T11:30:02Z</time>
      </trkpt>
      <trkpt lat="43.71655" lon="-0.60652">
        <ele>52.013</ele>
        <time>2021-04-27T11:30:22Z</time>
      </trkpt>
      <trkpt lat="43.71616" lon="-0.60654">
        <ele>53.036</ele>
        <time>2021-04-27T11:30:42Z</time>
      </trkpt>
      <trkpt lat="43.71568" lon="-0.60645">
        <ele>55.188</ele>
        <time>2021-04-27T11:31:02Z</time>
      </trkpt>
      <trkpt lat="43.71527" lon="-0.60628">
        <ele>57.776</ele>
        <time>2021-04-27T11:31:22Z</time>
      </trkpt>
      <trkpt lat="43.71402" lon="-0.60555">
        <ele>60.161</ele>
        <time>2021-04-27T11:31:42Z</time>
      </trkpt>
      <trkpt lat="43.7136" lon="-0.60525">
        <ele>61.848</ele>
        <time>2021-04-27T11:32:02Z</time>
      </trkpt>
      <trkpt lat="43.7123" lon="-0.60409">
        <ele>57.761</ele>
        <time>2021-04-27T11:32:22Z</time>
      </trkpt>
      <trkpt lat="43.71206" lon="-0.60396">
        <ele>58.217</ele>
        <time>2021-04-27T11:32:42Z</time>
      </trkpt>
      <trkpt lat="43.71025" lon="-0.60338">
        <ele>66.908</ele>
        <time>2021-04-27T11:33:02Z</time>
      </trkpt>
      <trkpt lat="43.70992" lon="-0.60334">
        <ele>68.461</ele>
        <time>2021-04-27T11:33:22Z</time>
      </trkpt>
      <trkpt lat="43.70957" lon="-0.60336">
        <ele>70.115</ele>
        <time>2021-04-27T11:33:42Z</time>
      </trkpt>
      <trkpt lat="43.70884" lon="-0.60358">
        <ele>74.351</ele>
        <time>2021-04-27T11:34:02Z</time>
      </trkpt>
      <trkpt lat="43.70834" lon="-0.60381">
        <ele>78.564</ele>
        <time>2021-04-27T11:34:22Z</time>
      </trkpt>
      <trkpt lat="43.70712" lon="-0.60452">
        <ele>85.457</ele>
        <time>2021-04-27T11:34:42Z</time>
      </trkpt>
      <trkpt lat="43.70653" lon="-0.60459">
        <ele>86.839</ele>
        <time>2021-04-27T11:35:02Z</time>
      </trkpt>
      <trkpt lat="43.7057" lon="-0.60461">
        <ele>88.687</ele>
        <time>2021-04-27T11:35:22Z</time>
      </trkpt>
      <trkpt lat="43.7053" lon="-0.60459">
        <ele>90.632</ele>
        <time>2021-04-27T11:35:42Z</time>
      </trkpt>
      <trkpt lat="43.70406" lon="-0.60435">
        <ele>92.896</ele>
        <time>2021-04-27T11:36:02Z</time>
      </trkpt>
      <trkpt lat="43.70404" lon="-0.60366">
        <ele>91.931</ele>
        <time>2021-04-27T11:36:22Z</time>
      </trkpt>
      <trkpt lat="43.70397" lon="-0.60313">
        <ele>90.824</ele>
        <time>2021-04-27T11:36:42Z</time>
      </trkpt>
      <trkpt lat="43.70327" lon="-0.60124">
        <ele>90.108</ele>
        <time>2021-04-27T11:37:02Z</time>
      </trkpt>
      <trkpt lat="43.70313" lon="-0.60072">
        <ele>88.716</ele>
        <time>2021-04-27T11:37:22Z</time>
      </trkpt>
      <trkpt lat="43.70287" lon="-0.59963">
        <ele>85.25</ele>
        <time>2021-04-27T11:37:42Z</time>
      </trkpt>
      <trkpt lat="43.70263" lon="-0.598">
        <ele>74.686</ele>
        <time>2021-04-27T11:38:02Z</time>
      </trkpt>
      <trkpt lat="43.70228" lon="-0.598">
        <ele>73.459</ele>
        <time>2021-04-27T11:38:22Z</time>
      </trkpt>
      <trkpt lat="43.7019" lon="-0.59789">
        <ele>70.822</ele>
        <time>2021-04-27T11:38:42Z</time>
      </trkpt>
      <trkpt lat="43.70119" lon="-0.59736">
        <ele>65.744</ele>
        <time>2021-04-27T11:39:02Z</time>
      </trkpt>
      <trkpt lat="43.70107" lon="-0.59738">
        <ele>65.632</ele>
        <time>2021-04-27T11:39:22Z</time>
      </trkpt>
      <trkpt lat="43.6999" lon="-0.59806">
        <ele>63.727</ele>
        <time>2021-04-27T11:39:42Z</time>
      </trkpt>
      <trkpt lat="43.69951" lon="-0.59826">
        <ele>64.168</ele>
        <time>2021-04-27T11:40:02Z</time>
      </trkpt>
      <trkpt lat="43.69934" lon="-0.59828">
        <ele>64.442</ele>
        <time>2021-04-27T11:40:22Z</time>
      </trkpt>
      <trkpt lat="43.69927" lon="-0.59817">
        <ele>64.326</ele>
        <time>2021-04-27T11:40:42Z</time>
      </trkpt>
      <trkpt lat="43.69888" lon="-0.59697">
        <ele>60.008</ele>
        <time>2021-04-27T11:41:02Z</time>
      </trkpt>
      <trkpt lat="43.69874" lon="-0.59628">
        <ele>61.283</ele>
        <time>2021-04-27T11:41:22Z</time>
      </trkpt>
      <trkpt lat="43.69866" lon="-0.59598">
        <ele>62.897</ele>
        <time>2021-04-27T11:41:42Z</time>
      </trkpt>
      <trkpt lat="43.69793" lon="-0.59547">
        <ele>70.563</ele>
        <time>2021-04-27T11:42:02Z</time>
      </trkpt>
      <trkpt lat="43.69733" lon="-0.59515">
        <ele>77.396</ele>
        <time>2021-04-27T11:42:22Z</time>
      </trkpt>
      <trkpt lat="43.69709" lon="-0.59506">
        <ele>79.659</ele>
        <time>2021-04-27T11:42:42Z</time>
      </trkpt>
      <trkpt lat="43.69661" lon="-0.59523">
        <ele>82.181</ele>
        <time>2021-04-27T11:43:02Z</time>
      </trkpt>
      <trkpt lat="43.69651" lon="-0.59523">
        <ele>82.679</ele>
        <time>2021-04-27T11:43:22Z</time>
      </trkpt>
      <trkpt lat="43.69637" lon="-0.59517">
        <ele>83.424</ele>
        <time>2021-04-27T11:43:42Z</time>
      </trkpt>
      <trkpt lat="43.69585" lon="-0.5948">
        <ele>85.965</ele>
        <time>2021-04-27T11:44:02Z</time>
      </trkpt>
      <trkpt lat="43.6957" lon="-0.59472">
        <ele>86.568</ele>
        <time>2021-04-27T11:44:22Z</time>
      </trkpt>
      <trkpt lat="43.69384" lon="-0.59495">
        <ele>86.514</ele>
        <time>2021-04-27T11:44:42Z</time>
      </trkpt>
      <trkpt lat="43.69339" lon="-0.59504">
        <ele>84.208</ele>
        <time>2021-04-27T11:45:02Z</time>
      </trkpt>
      <trkpt lat="43.69323" lon="-0.59512">
        <ele>83.823</ele>
        <time>2021-04-27T11:45:22Z</time>
      </trkpt>
      <trkpt lat="43.69283" lon="-0.59545">
        <ele>82.517</ele>
        <time>2021-04-27T11:45:42Z</time>
      </trkpt>
      <trkpt lat="43.69208" lon="-0.5959">
        <ele>77.973</ele>
        <time>2021-04-27T11:46:02Z</time>
      </trkpt>
      <trkpt lat="43.69166" lon="-0.59609">
        <ele>75.456</ele>
        <time>2021-04-27T11:46:22Z</time>
      </trkpt>
      <trkpt lat="43.69087" lon="-0.59658">
        <ele>70.429</ele>
        <time>2021-04-27T11:46:42Z</time>
      </trkpt>
      <trkpt lat="43.68903" lon="-0.59744">
        <ele>72.661</ele>
        <time>2021-04-27T11:47:02Z</time>
      </trkpt>
      <trkpt lat="43.68789" lon="-0.59791">
        <ele>78.599</ele>
        <time>2021-04-27T11:47:22Z</time>
      </trkpt>
      <trkpt lat="43.68766" lon="-0.59793">
        <ele>80.534</ele>
        <time>2021-04-27T11:47:42Z</time>
      </trkpt>
      <trkpt lat="43.68699" lon="-0.59783">
        <ele>86.616</ele>
        <time>2021-04-27T11:48:02Z</time>
      </trkpt>
      <trkpt lat="43.68662" lon="-0.59789">
        <ele>90.276</ele>
        <time>2021-04-27T11:48:22Z</time>
      </trkpt>
      <trkpt lat="43.68609" lon="-0.59813">
        <ele>99.213</ele>
        <time>2021-04-27T11:48:42Z</time>
      </trkpt>
      <trkpt lat="43.68533" lon="-0.59892">
        <ele>110.508</ele>
        <time>2021-04-27T11:49:02Z</time>
      </trkpt>
      <trkpt lat="43.68509" lon="-0.59909">
        <ele>113.138</ele>
        <time>2021-04-27T11:49:22Z</time>
      </trkpt>
      <trkpt lat="43.68485" lon="-0.59907">
        <ele>115.682</ele>
        <time>2021-04-27T11:49:42Z</time>
      </trkpt>
      <trkpt lat="43.68442" lon="-0.59881">
        <ele>120.198</ele>
        <time>2021-04-27T11:50:02Z</time>
      </trkpt>
      <trkpt lat="43.68001" lon="-0.59439">
        <ele>127.511</ele>
        <time>2021-04-27T11:50:22Z</time>
      </trkpt>
      <trkpt lat="43.67945" lon="-0.59373">
        <ele>126.834</ele>
        <time>2021-04-27T11:50:42Z</time>
      </trkpt>
      <trkpt lat="43.67927" lon="-0.59343">
        <ele>126.876</ele>
        <time>2021-04-27T11:51:02Z</time>
      </trkpt>
      <trkpt lat="43.67899" lon="-0.59278">
        <ele>126.694</ele>
        <time>2021-04-27T11:51:22Z</time>
      </trkpt>
      <trkpt lat="43.67883" lon="-0.59253">
        <ele>126.859</ele>
        <time>2021-04-27T11:51:42Z</time>
      </trkpt>
      <trkpt lat="43.67861" lon="-0.59229">
        <ele>127.638</ele>
        <time>2021-04-27T11:52:02Z</time>
      </trkpt>
      <trkpt lat="43.67821" lon="-0.59199">
        <ele>128.97</ele>
        <time>2021-04-27T11:52:22Z</time>
      </trkpt>
      <trkpt lat="43.6779" lon="-0.59184">
        <ele>130.117</ele>
        <time>2021-04-27T11:52:42Z</time>
      </trkpt>
      <trkpt lat="43.67748" lon="-0.5915">
        <ele>131.708</ele>
        <time>2021-04-27T11:53:02Z</time>
      </trkpt>
      <trkpt lat="43.6772" lon="-0.59124">
        <ele>130.62</ele>
        <time>2021-04-27T11:53:22Z</time>
      </trkpt>
      <trkpt lat="43.67658" lon="-0.5903">
        <ele>128.544</ele>
        <time>2021-04-27T11:53:42Z</time>
      </trkpt>
      <trkpt lat="43.67595" lon="-0.58886">
        <ele>127.55</ele>
        <time>2021-04-27T11:54:02Z</time>
      </trkpt>
      <trkpt lat="43.67568" lon="-0.58854">
        <ele>128.323</ele>
        <time>2021-04-27T11:54:22Z</time>
      </trkpt>
      <trkpt lat="43.67509" lon="-0.58806">
        <ele>128.566</ele>
        <time>2021-04-27T11:54:42Z</time>
      </trkpt>
      <trkpt lat="43.67474" lon="-0.58783">
        <ele>126.958</ele>
        <time>2021-04-27T11:55:02Z</time>
      </trkpt>
      <trkpt lat="43.67439" lon="-0.58772">
        <ele>125.716</ele>
        <time>2021-04-27T11:55:22Z</time>
      </trkpt>
      <trkpt lat="43.67421" lon="-0.58772">
        <ele>125.151</ele>
        <time>2021-04-27T11:55:42Z</time>
      </trkpt>
      <trkpt lat="43.6739" lon="-0.58785">
        <ele>124.925</ele>
        <time>2021-04-27T11:56:02Z</time>
      </trkpt>
      <trkpt lat="43.67301" lon="-0.58847">
        <ele>122.626</ele>
        <time>2021-04-27T11:56:22Z</time>
      </trkpt>
      <trkpt lat="43.67248" lon="-0.58873">
        <ele>119.708</ele>
        <time>2021-04-27T11:56:42Z</time>
      </trkpt>
      <trkpt lat="43.67151" lon="-0.58888">
        <ele>122.508</ele>
        <time>2021-04-27T11:57:02Z</time>
      </trkpt>
      <trkpt lat="43.66873" lon="-0.58905">
        <ele>130.229</ele>
        <time>2021-04-27T11:57:22Z</time>
      </trkpt>
      <trkpt lat="43.66784" lon="-0.58864">
        <ele>130.683</ele>
        <time>2021-04-27T11:57:42Z</time>
      </trkpt>
      <trkpt lat="43.66753" lon="-0.58875">
        <ele>130.569</ele>
        <time>2021-04-27T11:58:02Z</time>
      </trkpt>
      <trkpt lat="43.66716" lon="-0.58905">
        <ele>130.152</ele>
        <time>2021-04-27T11:58:22Z</time>
      </trkpt>
      <trkpt lat="43.66705" lon="-0.58909">
        <ele>129.715</ele>
        <time>2021-04-27T11:58:42Z</time>
      </trkpt>
      <trkpt lat="43.6668" lon="-0.58959">
        <ele>129.457</ele>
        <time>2021-04-27T11:59:02Z</time>
      </trkpt>
      <trkpt lat="43.6669" lon="-0.59122">
        <ele>129.175</ele>
        <time>2021-04-27T11:59:22Z</time>
      </trkpt>
      <trkpt lat="43.66656" lon="-0.59171">
        <ele>127.82</ele>
        <time>2021-04-27T11:59:42Z</time>
      </trkpt>
      <trkpt lat="43.66623" lon="-0.59246">
        <ele>126.978</ele>
        <time>2021-04-27T12:00:02Z</time>
      </trkpt>
      <trkpt lat="43.66615" lon="-0.59281">
        <ele>126.833</ele>
        <time>2021-04-27T12:00:22Z</time>
      </trkpt>
      <trkpt lat="43.666" lon="-0.59377">
        <ele>125.926</ele>
        <time>2021-04-27T12:00:42Z</time>
      </trkpt>
      <trkpt lat="43.6659" lon="-0.59407">
        <ele>124.608</ele>
        <time>2021-04-27T12:01:02Z</time>
      </trkpt>
      <trkpt lat="43.66575" lon="-0.59448">
        <ele>122.734</ele>
        <time>2021-04-27T12:01:22Z</time>
      </trkpt>
      <trkpt lat="43.66559" lon="-0.59476">
        <ele>121.348</ele>
        <time>2021-04-27T12:01:42Z</time>
      </trkpt>
      <trkpt lat="43.66533" lon="-0.59508">
        <ele>119.894</ele>
        <time>2021-04-27T12:02:02Z</time>
      </trkpt>
      <trkpt lat="43.66505" lon="-0.59536">
        <ele>119.137</ele>
        <time>2021-04-27T12:02:22Z</time>
      </trkpt>
      <trkpt lat="43.66353" lon="-0.59723">
        <ele>114.43</ele>
        <time>2021-04-27T12:02:42Z</time>
      </trkpt>
      <trkpt lat="43.66224" lon="-0.59836">
        <ele>115.082</ele>
        <time>2021-04-27T12:03:02Z</time>
      </trkpt>
      <trkpt lat="43.66184" lon="-0.59866">
        <ele>115.07</ele>
        <time>2021-04-27T12:03:22Z</time>
      </trkpt>
      <trkpt lat="43.66168" lon="-0.59875">
        <ele>115.065</ele>
        <time>2021-04-27T12:03:42Z</time>
      </trkpt>
      <trkpt lat="43.66159" lon="-0.59877">
        <ele>114.871</ele>
        <time>2021-04-27T12:04:02Z</time>
      </trkpt>
      <trkpt lat="43.66122" lon="-0.59871">
        <ele>113.941</ele>
        <time>2021-04-27T12:04:22Z</time>
      </trkpt>
      <trkpt lat="43.66098" lon="-0.59881">
        <ele>113.415</ele>
        <time>2021-04-27T12:04:42Z</time>
      </trkpt>
      <trkpt lat="43.66067" lon="-0.59916">
        <ele>113.008</ele>
        <time>2021-04-27T12:05:02Z</time>
      </trkpt>
      <trkpt lat="43.66028" lon="-0.59967">
        <ele>113.064</ele>
        <time>2021-04-27T12:05:22Z</time>
      </trkpt>
      <trkpt lat="43.6601" lon="-0.59984">
        <ele>113.088</ele>
        <time>2021-04-27T12:05:42Z</time>
      </trkpt>
      <trkpt lat="43.65949" lon="-0.60049">
        <ele>106.794</ele>
        <time>2021-04-27T12:06:02Z</time>
      </trkpt>
      <trkpt lat="43.65912" lon="-0.60066">
        <ele>103.397</ele>
        <time>2021-04-27T12:06:22Z</time>
      </trkpt>
      <trkpt lat="43.65895" lon="-0.60083">
        <ele>101.45</ele>
        <time>2021-04-27T12:06:42Z</time>
      </trkpt>
      <trkpt lat="43.65876" lon="-0.60105">
        <ele>99.812</ele>
        <time>2021-04-27T12:07:02Z</time>
      </trkpt>
      <trkpt lat="43.65797" lon="-0.59957">
        <ele>97.74</ele>
        <time>2021-04-27T12:07:22Z</time>
      </trkpt>
      <trkpt lat="43.65775" lon="-0.59909">
        <ele>98.735</ele>
        <time>2021-04-27T12:07:42Z</time>
      </trkpt>
      <trkpt lat="43.65758" lon="-0.59866">
        <ele>100.626</ele>
        <time>2021-04-27T12:08:02Z</time>
      </trkpt>
      <trkpt lat="43.65744" lon="-0.59817">
        <ele>101.747</ele>
        <time>2021-04-27T12:08:22Z</time>
      </trkpt>
      <trkpt lat="43.6572" lon="-0.59673">
        <ele>102.011</ele>
        <time>2021-04-27T12:08:42Z</time>
      </trkpt>
      <trkpt lat="43.65668" lon="-0.59461">
        <ele>104.008</ele>
        <time>2021-04-27T12:09:02Z</time>
      </trkpt>
      <trkpt lat="43.65643" lon="-0.59424">
        <ele>103.949</ele>
        <time>2021-04-27T12:09:22Z</time>
      </trkpt>
      <trkpt lat="43.65603" lon="-0.59469">
        <ele>100.593</ele>
        <time>2021-04-27T12:09:42Z</time>
      </trkpt>
      <trkpt lat="43.6557" lon="-0.59478">
        <ele>98.359</ele>
        <time>2021-04-27T12:10:02Z</time>
      </trkpt>
      <trkpt lat="43.65541" lon="-0.59472">
        <ele>96.852</ele>
        <time>2021-04-27T12:10:22Z</time>
      </trkpt>
      <trkpt lat="43.65519" lon="-0.59452">
        <ele>96.455</ele>
        <time>2021-04-27T12:10:42Z</time>
      </trkpt>
      <trkpt lat="43.65477" lon="-0.59401">
        <ele>95.657</ele>
        <time>2021-04-27T12:11:02Z</time>
      </trkpt>
      <trkpt lat="43.65429" lon="-0.59371">
        <ele>92.985</ele>
        <time>2021-04-27T12:11:22Z</time>
      </trkpt>
      <trkpt lat="43.65411" lon="-0.59349">
        <ele>92.69</ele>
        <time>2021-04-27T12:11:42Z</time>
      </trkpt>
      <trkpt lat="43.65381" lon="-0.59379">
        <ele>92.457</ele>
        <time>2021-04-27T12:12:02Z</time>
      </trkpt>
      <trkpt lat="43.65328" lon="-0.59424">
        <ele>92.9</ele>
        <time>2021-04-27T12:12:22Z</time>
      </trkpt>
      <trkpt lat="43.65204" lon="-0.59613">
        <ele>92.32</ele>
        <time>2021-04-27T12:12:42Z</time>
      </trkpt>
      <trkpt lat="43.65114" lon="-0.59851">
        <ele>98.708</ele>
        <time>2021-04-27T12:13:02Z</time>
      </trkpt>
      <trkpt lat="43.65004" lon="-0.60167">
        <ele>113.042</ele>
        <time>2021-04-27T12:13:22Z</time>
      </trkpt>
      <trkpt lat="43.64968" lon="-0.6016">
        <ele>112.656</ele>
        <time>2021-04-27T12:13:42Z</time>
      </trkpt>
      <trkpt lat="43.64943" lon="-0.60143">
        <ele>112.532</ele>
        <time>2021-04-27T12:14:02Z</time>
      </trkpt>
      <trkpt lat="43.64884" lon="-0.60062">
        <ele>113.485</ele>
        <time>2021-04-27T12:14:22Z</time>
      </trkpt>
      <trkpt lat="43.64819" lon="-0.59946">
        <ele>113.788</ele>
        <time>2021-04-27T12:14:42Z</time>
      </trkpt>
      <trkpt lat="43.64743" lon="-0.59839">
        <ele>115.11</ele>
        <time>2021-04-27T12:15:02Z</time>
      </trkpt>
      <trkpt lat="43.64734" lon="-0.59808">
        <ele>115.078</ele>
        <time>2021-04-27T12:15:22Z</time>
      </trkpt>
      <trkpt lat="43.64673" lon="-0.59819">
        <ele>115.983</ele>
        <time>2021-04-27T12:15:42Z</time>
      </trkpt>
      <trkpt lat="43.646" lon="-0.59828">
        <ele>116.833</ele>
        <time>2021-04-27T12:16:02Z</time>
      </trkpt>
      <trkpt lat="43.64324" lon="-0.59888">
        <ele>118.223</ele>
        <time>2021-04-27T12:16:22Z</time>
      </trkpt>
      <trkpt lat="43.64254" lon="-0.59899">
        <ele>117.315</ele>
        <time>2021-04-27T12:16:42Z</time>
      </trkpt>
      <trkpt lat="43.64223" lon="-0.59911">
        <ele>117.008</ele>
        <time>2021-04-27T12:17:02Z</time>
      </trkpt>
      <trkpt lat="43.64162" lon="-0.59954">
        <ele>116.55</ele>
        <time>2021-04-27T12:17:22Z</time>
      </trkpt>
      <trkpt lat="43.6413" lon="-0.59972">
        <ele>116.374</ele>
        <time>2021-04-27T12:17:42Z</time>
      </trkpt>
      <trkpt lat="43.64043" lon="-0.59993">
        <ele>117.03</ele>
        <time>2021-04-27T12:18:02Z</time>
      </trkpt>
      <trkpt lat="43.64005" lon="-0.6001">
        <ele>117.623</ele>
        <time>2021-04-27T12:18:22Z</time>
      </trkpt>
      <trkpt lat="43.63914" lon="-0.60064">
        <ele>116.386</ele>
        <time>2021-04-27T12:18:42Z</time>
      </trkpt>
      <trkpt lat="43.63847" lon="-0.60087">
        <ele>117.638</ele>
        <time>2021-04-27T12:19:02Z</time>
      </trkpt>
      <trkpt lat="43.63772" lon="-0.60102">
        <ele>121.326</ele>
        <time>2021-04-27T12:19:22Z</time>
      </trkpt>
      <trkpt lat="43.63717" lon="-0.60128">
        <ele>123.621</ele>
        <time>2021-04-27T12:19:42Z</time>
      </trkpt>
      <trkpt lat="43.63603" lon="-0.60193">
        <ele>125.296</ele>
        <time>2021-04-27T12:20:02Z</time>
      </trkpt>
      <trkpt lat="43.63516" lon="-0.60214">
        <ele>125.931</ele>
        <time>2021-04-27T12:20:22Z</time>
      </trkpt>
      <trkpt lat="43.63358" lon="-0.60236">
        <ele>125.424</ele>
        <time>2021-04-27T12:20:42Z</time>
      </trkpt>
      <trkpt lat="43.63106" lon="-0.60281">
        <ele>118.708</ele>
        <time>2021-04-27T12:21:02Z</time>
      </trkpt>
      <trkpt lat="43.63064" lon="-0.60281">
        <ele>116.416</ele>
        <time>2021-04-27T12:21:22Z</time>
      </trkpt>
      <trkpt lat="43.63039" lon="-0.60272">
        <ele>115.25</ele>
        <time>2021-04-27T12:21:42Z</time>
      </trkpt>
      <trkpt lat="43.62895" lon="-0.60197">
        <ele>109.966</ele>
        <time>2021-04-27T12:22:02Z</time>
      </trkpt>
      <trkpt lat="43.6287" lon="-0.60188">
        <ele>110.449</ele>
        <time>2021-04-27T12:22:22Z</time>
      </trkpt>
      <trkpt lat="43.62847" lon="-0.60195">
        <ele>110.512</ele>
        <time>2021-04-27T12:22:42Z</time>
      </trkpt>
      <trkpt lat="43.62833" lon="-0.60201">
        <ele>110.464</ele>
        <time>2021-04-27T12:23:02Z</time>
      </trkpt>
      <trkpt lat="43.62642" lon="-0.60371">
        <ele>114.132</ele>
        <time>2021-04-27T12:23:22Z</time>
      </trkpt>
      <trkpt lat="43.62589" lon="-0.60437">
        <ele>117.387</ele>
        <time>2021-04-27T12:23:42Z</time>
      </trkpt>
      <trkpt lat="43.6256" lon="-0.60489">
        <ele>117.913</ele>
        <time>2021-04-27T12:24:02Z</time>
      </trkpt>
      <trkpt lat="43.62519" lon="-0.6054">
        <ele>118.843</ele>
        <time>2021-04-27T12:24:22Z</time>
      </trkpt>
      <trkpt lat="43.62454" lon="-0.60613">
        <ele>121.007</ele>
        <time>2021-04-27T12:24:42Z</time>
      </trkpt>
      <trkpt lat="43.62322" lon="-0.60787">
        <ele>121.408</ele>
        <time>2021-04-27T12:25:02Z</time>
      </trkpt>
      <trkpt lat="43.62278" lon="-0.60826">
        <ele>120.248</ele>
        <time>2021-04-27T12:25:22Z</time>
      </trkpt>
      <trkpt lat="43.6192" lon="-0.60901">
        <ele>120.232</ele>
        <time>2021-04-27T12:25:42Z</time>
      </trkpt>
      <trkpt lat="43.61652" lon="-0.60952">
        <ele>106.918</ele>
        <time>2021-04-27T12:26:02Z</time>
      </trkpt>
      <trkpt lat="43.61561" lon="-0.60974">
        <ele>109.641</ele>
        <time>2021-04-27T12:26:22Z</time>
      </trkpt>
      <trkpt lat="43.61531" lon="-0.60974">
        <ele>110.874</ele>
        <time>2021-04-27T12:26:42Z</time>
      </trkpt>
      <trkpt lat="43.61408" lon="-0.60952">
        <ele>110.946</ele>
        <time>2021-04-27T12:27:02Z</time>
      </trkpt>
      <trkpt lat="43.61373" lon="-0.60963">
        <ele>111.554</ele>
        <time>2021-04-27T12:27:22Z</time>
      </trkpt>
      <trkpt lat="43.61325" lon="-0.61006">
        <ele>112.559</ele>
        <time>2021-04-27T12:27:42Z</time>
      </trkpt>
      <trkpt lat="43.61253" lon="-0.61092">
        <ele>110.817</ele>
        <time>2021-04-27T12:28:02Z</time>
      </trkpt>
      <trkpt lat="43.61225" lon="-0.61128">
        <ele>109.087</ele>
        <time>2021-04-27T12:28:22Z</time>
      </trkpt>
      <trkpt lat="43.61182" lon="-0.61201">
        <ele>110.115</ele>
        <time>2021-04-27T12:28:42Z</time>
      </trkpt>
      <trkpt lat="43.61138" lon="-0.6115">
        <ele>105.408</ele>
        <time>2021-04-27T12:29:02Z</time>
      </trkpt>
      <trkpt lat="43.61123" lon="-0.61137">
        <ele>102.128</ele>
        <time>2021-04-27T12:29:22Z</time>
      </trkpt>
      <trkpt lat="43.61109" lon="-0.61132">
        <ele>99.882</ele>
        <time>2021-04-27T12:29:42Z</time>
      </trkpt>
      <trkpt lat="43.61088" lon="-0.61135">
        <ele>97.688</ele>
        <time>2021-04-27T12:30:02Z</time>
      </trkpt>
      <trkpt lat="43.61065" lon="-0.61147">
        <ele>95.771</ele>
        <time>2021-04-27T12:30:22Z</time>
      </trkpt>
      <trkpt lat="43.6105" lon="-0.61162">
        <ele>94.984</ele>
        <time>2021-04-27T12:30:42Z</time>
      </trkpt>
      <trkpt lat="43.61034" lon="-0.61197">
        <ele>94.916</ele>
        <time>2021-04-27T12:31:02Z</time>
      </trkpt>
      <trkpt lat="43.61018" lon="-0.61248">
        <ele>96.264</ele>
        <time>2021-04-27T12:31:22Z</time>
      </trkpt>
      <trkpt lat="43.61014" lon="-0.61257">
        <ele>96.059</ele>
        <time>2021-04-27T12:31:42Z</time>
      </trkpt>
      <trkpt lat="43.61005" lon="-0.61259">
        <ele>94.539</ele>
        <time>2021-04-27T12:32:02Z</time>
      </trkpt>
      <trkpt lat="43.60997" lon="-0.61255">
        <ele>92.601</ele>
        <time>2021-04-27T12:32:22Z</time>
      </trkpt>
      <trkpt lat="43.60961" lon="-0.61216">
        <ele>80.921</ele>
        <time>2021-04-27T12:32:42Z</time>
      </trkpt>
      <trkpt lat="43.6095" lon="-0.61214">
        <ele>78.208</ele>
        <time>2021-04-27T12:33:02Z</time>
      </trkpt>
      <trkpt lat="43.60933" lon="-0.61214">
        <ele>74.18</ele>
        <time>2021-04-27T12:33:22Z</time>
      </trkpt>
      <trkpt lat="43.60919" lon="-0.6121">
        <ele>70.674</ele>
        <time>2021-04-27T12:33:42Z</time>
      </trkpt>
      <trkpt lat="43.60869" lon="-0.61175">
        <ele>64.34</ele>
        <time>2021-04-27T12:34:02Z</time>
      </trkpt>
      <trkpt lat="43.60837" lon="-0.61255">
        <ele>63.453</ele>
        <time>2021-04-27T12:34:22Z</time>
      </trkpt>
      <trkpt lat="43.6081" lon="-0.61311">
        <ele>61.726</ele>
        <time>2021-04-27T12:34:42Z</time>
      </trkpt>
      <trkpt lat="43.60747" lon="-0.61422">
        <ele>58.068</ele>
        <time>2021-04-27T12:35:02Z</time>
      </trkpt>
      <trkpt lat="43.60681" lon="-0.61557">
        <ele>58.246</ele>
        <time>2021-04-27T12:35:22Z</time>
      </trkpt>
      <trkpt lat="43.60677" lon="-0.61577">
        <ele>58.641</ele>
        <time>2021-04-27T12:35:42Z</time>
      </trkpt>
      <trkpt lat="43.60678" lon="-0.61605">
        <ele>59.886</ele>
        <time>2021-04-27T12:36:02Z</time>
      </trkpt>
      <trkpt lat="43.60683" lon="-0.61628">
        <ele>61.36</ele>
        <time>2021-04-27T12:36:22Z</time>
      </trkpt>
      <trkpt lat="43.60698" lon="-0.61662">
        <ele>64.626</ele>
        <time>2021-04-27T12:36:42Z</time>
      </trkpt>
      <trkpt lat="43.60526" lon="-0.61723">
        <ele>56.608</ele>
        <time>2021-04-27T12:37:02Z</time>
      </trkpt>
      <trkpt lat="43.60514" lon="-0.61729">
        <ele>56.985</ele>
        <time>2021-04-27T12:37:22Z</time>
      </trkpt>
      <trkpt lat="43.60501" lon="-0.61742">
        <ele>57.639</ele>
        <time>2021-04-27T12:37:42Z</time>
      </trkpt>
      <trkpt lat="43.60482" lon="-0.61808">
        <ele>57.355</ele>
        <time>2021-04-27T12:38:02Z</time>
      </trkpt>
      <trkpt lat="43.60467" lon="-0.61853">
        <ele>56.578</ele>
        <time>2021-04-27T12:38:22Z</time>
      </trkpt>
      <trkpt lat="43.60389" lon="-0.61961">
        <ele>53.931</ele>
        <time>2021-04-27T12:38:42Z</time>
      </trkpt>
      <trkpt lat="43.60313" lon="-0.62079">
        <ele>54.943</ele>
        <time>2021-04-27T12:39:02Z</time>
      </trkpt>
      <trkpt lat="43.60279" lon="-0.62109">
        <ele>55.411</ele>
        <time>2021-04-27T12:39:22Z</time>
      </trkpt>
      <trkpt lat="43.60235" lon="-0.62141">
        <ele>55.236</ele>
        <time>2021-04-27T12:39:42Z</time>
      </trkpt>
      <trkpt lat="43.60203" lon="-0.62169">
        <ele>55.245</ele>
        <time>2021-04-27T12:40:02Z</time>
      </trkpt>
      <trkpt lat="43.60173" lon="-0.62205">
        <ele>55.447</ele>
        <time>2021-04-27T12:40:22Z</time>
      </trkpt>
      <trkpt lat="43.6013" lon="-0.62293">
        <ele>53.411</ele>
        <time>2021-04-27T12:40:42Z</time>
      </trkpt>
      <trkpt lat="43.60097" lon="-0.62381">
        <ele>52.308</ele>
        <time>2021-04-27T12:41:02Z</time>
      </trkpt>
      <trkpt lat="43.60082" lon="-0.62413">
        <ele>52.141</ele>
        <time>2021-04-27T12:41:22Z</time>
      </trkpt>
      <trkpt lat="43.60054" lon="-0.62463">
        <ele>52.455</ele>
        <time>2021-04-27T12:41:42Z</time>
      </trkpt>
      <trkpt lat="43.6003" lon="-0.62435">
        <ele>52.691</ele>
        <time>2021-04-27T12:42:02Z</time>
      </trkpt>
      <trkpt lat="43.60009" lon="-0.62418">
        <ele>52.944</ele>
        <time>2021-04-27T12:42:22Z</time>
      </trkpt>
      <trkpt lat="43.59987" lon="-0.62407">
        <ele>52.737</ele>
        <time>2021-04-27T12:42:42Z</time>
      </trkpt>
      <trkpt lat="43.59937" lon="-0.62405">
        <ele>52.689</ele>
        <time>2021-04-27T12:43:02Z</time>
      </trkpt>
      <trkpt lat="43.59897" lon="-0.62418">
        <ele>52.547</ele>
        <time>2021-04-27T12:43:22Z</time>
      </trkpt>
      <trkpt lat="43.5978" lon="-0.62471">
        <ele>51.562</ele>
        <time>2021-04-27T12:43:42Z</time>
      </trkpt>
      <trkpt lat="43.59752" lon="-0.62486">
        <ele>51.284</ele>
        <time>2021-04-27T12:44:02Z</time>
      </trkpt>
      <trkpt lat="43.59682" lon="-0.62514">
        <ele>53.307</ele>
        <time>2021-04-27T12:44:22Z</time>
      </trkpt>
      <trkpt lat="43.5948" lon="-0.62583">
        <ele>56.517</ele>
        <time>2021-04-27T12:44:42Z</time>
      </trkpt>
      <trkpt lat="43.59465" lon="-0.62585">
        <ele>56.908</ele>
        <time>2021-04-27T12:45:02Z</time>
      </trkpt>
      <trkpt lat="43.59398" lon="-0.62574">
        <ele>57.945</ele>
        <time>2021-04-27T12:45:22Z</time>
      </trkpt>
      <trkpt lat="43.59334" lon="-0.62568">
        <ele>58.279</ele>
        <time>2021-04-27T12:45:42Z</time>
      </trkpt>
      <trkpt lat="43.5926" lon="-0.62568">
        <ele>64.715</ele>
        <time>2021-04-27T12:46:02Z</time>
      </trkpt>
      <trkpt lat="43.59233" lon="-0.62566">
        <ele>68.218</ele>
        <time>2021-04-27T12:46:22Z</time>
      </trkpt>
      <trkpt lat="43.59227" lon="-0.62562">
        <ele>69.311</ele>
        <time>2021-04-27T12:46:42Z</time>
      </trkpt>
      <trkpt lat="43.59221" lon="-0.62551">
        <ele>70.823</ele>
        <time>2021-04-27T12:47:02Z</time>
      </trkpt>
      <trkpt lat="43.59213" lon="-0.62516">
        <ele>73.871</ele>
        <time>2021-04-27T12:47:22Z</time>
      </trkpt>
      <trkpt lat="43.59205" lon="-0.6251">
        <ele>75.526</ele>
        <time>2021-04-27T12:47:42Z</time>
      </trkpt>
      <trkpt lat="43.59194" lon="-0.62512">
        <ele>77.349</ele>
        <time>2021-04-27T12:48:02Z</time>
      </trkpt>
      <trkpt lat="43.59155" lon="-0.62544">
        <ele>81.902</ele>
        <time>2021-04-27T12:48:22Z</time>
      </trkpt>
      <trkpt lat="43.59134" lon="-0.62553">
        <ele>85.422</ele>
        <time>2021-04-27T12:48:42Z</time>
      </trkpt>
      <trkpt lat="43.5911" lon="-0.6257">
        <ele>88.708</ele>
        <time>2021-04-27T12:49:02Z</time>
      </trkpt>
      <trkpt lat="43.59079" lon="-0.62613">
        <ele>91.391</ele>
        <time>2021-04-27T12:49:22Z</time>
      </trkpt>
      <trkpt lat="43.59073" lon="-0.62617">
        <ele>92.055</ele>
        <time>2021-04-27T12:49:42Z</time>
      </trkpt>
      <trkpt lat="43.59064" lon="-0.62615">
        <ele>93.921</ele>
        <time>2021-04-27T12:50:02Z</time>
      </trkpt>
      <trkpt lat="43.59059" lon="-0.62598">
        <ele>96.594</ele>
        <time>2021-04-27T12:50:22Z</time>
      </trkpt>
      <trkpt lat="43.59068" lon="-0.62542">
        <ele>98.657</ele>
        <time>2021-04-27T12:50:42Z</time>
      </trkpt>
      <trkpt lat="43.59068" lon="-0.62514">
        <ele>100.489</ele>
        <time>2021-04-27T12:51:02Z</time>
      </trkpt>
      <trkpt lat="43.59059" lon="-0.62471">
        <ele>105.197</ele>
        <time>2021-04-27T12:51:22Z</time>
      </trkpt>
      <trkpt lat="43.59036" lon="-0.62392">
        <ele>111.972</ele>
        <time>2021-04-27T12:51:42Z</time>
      </trkpt>
      <trkpt lat="43.59019" lon="-0.62356">
        <ele>114.133</ele>
        <time>2021-04-27T12:52:02Z</time>
      </trkpt>
      <trkpt lat="43.59009" lon="-0.62347">
        <ele>115.123</ele>
        <time>2021-04-27T12:52:22Z</time>
      </trkpt>
      <trkpt lat="43.59" lon="-0.62347">
        <ele>116.215</ele>
        <time>2021-04-27T12:52:42Z</time>
      </trkpt>
      <trkpt lat="43.58992" lon="-0.62349">
        <ele>116.408</ele>
        <time>2021-04-27T12:53:02Z</time>
      </trkpt>
      <trkpt lat="43.58969" lon="-0.62377">
        <ele>117.77</ele>
        <time>2021-04-27T12:53:22Z</time>
      </trkpt>
      <trkpt lat="43.58924" lon="-0.6242">
        <ele>120.774</ele>
        <time>2021-04-27T12:53:42Z</time>
      </trkpt>
      <trkpt lat="43.58888" lon="-0.62439">
        <ele>122.12</ele>
        <time>2021-04-27T12:54:02Z</time>
      </trkpt>
      <trkpt lat="43.58868" lon="-0.62448">
        <ele>122.753</ele>
        <time>2021-04-27T12:54:22Z</time>
      </trkpt>
      <trkpt lat="43.58834" lon="-0.62454">
        <ele>123.496</ele>
        <time>2021-04-27T12:54:42Z</time>
      </trkpt>
      <trkpt lat="43.58813" lon="-0.62463">
        <ele>124.088</ele>
        <time>2021-04-27T12:55:02Z</time>
      </trkpt>
      <trkpt lat="43.58776" lon="-0.62508">
        <ele>124.276</ele>
        <time>2021-04-27T12:55:22Z</time>
      </trkpt>
      <trkpt lat="43.5866" lon="-0.62562">
        <ele>125.991</ele>
        <time>2021-04-27T12:55:42Z</time>
      </trkpt>
      <trkpt lat="43.58633" lon="-0.62568">
        <ele>126.781</ele>
        <time>2021-04-27T12:56:02Z</time>
      </trkpt>
      <trkpt lat="43.5861" lon="-0.62589">
        <ele>127.161</ele>
        <time>2021-04-27T12:56:22Z</time>
      </trkpt>
      <trkpt lat="43.5856" lon="-0.62656">
        <ele>126.817</ele>
        <time>2021-04-27T12:56:42Z</time>
      </trkpt>
      <trkpt lat="43.5854" lon="-0.62688">
        <ele>126.908</ele>
        <time>2021-04-27T12:57:02Z</time>
      </trkpt>
      <trkpt lat="43.58493" lon="-0.62808">
        <ele>131.525</ele>
        <time>2021-04-27T12:57:22Z</time>
      </trkpt>
      <trkpt lat="43.58475" lon="-0.62866">
        <ele>133.439</ele>
        <time>2021-04-27T12:57:42Z</time>
      </trkpt>
      <trkpt lat="43.5843" lon="-0.62905">
        <ele>136.775</ele>
        <time>2021-04-27T12:58:02Z</time>
      </trkpt>
      <trkpt lat="43.58378" lon="-0.62924">
        <ele>136.298</ele>
        <time>2021-04-27T12:58:22Z</time>
      </trkpt>
      <trkpt lat="43.58299" lon="-0.62943">
        <ele>133.421</ele>
        <time>2021-04-27T12:58:42Z</time>
      </trkpt>
      <trkpt lat="43.58259" lon="-0.62946">
        <ele>133.053</ele>
        <time>2021-04-27T12:59:02Z</time>
      </trkpt>
      <trkpt lat="43.58249" lon="-0.62965">
        <ele>132.221</ele>
        <time>2021-04-27T12:59:22Z</time>
      </trkpt>
      <trkpt lat="43.58182" lon="-0.63049">
        <ele>128.156</ele>
        <time>2021-04-27T12:59:42Z</time>
      </trkpt>
      <trkpt lat="43.58173" lon="-0.63066">
        <ele>128.063</ele>
        <time>2021-04-27T13:00:02Z</time>
      </trkpt>
      <trkpt lat="43.58142" lon="-0.63179">
        <ele>117.644</ele>
        <time>2021-04-27T13:00:22Z</time>
      </trkpt>
      <trkpt lat="43.58126" lon="-0.63248">
        <ele>108.918</ele>
        <time>2021-04-27T13:00:42Z</time>
      </trkpt>
      <trkpt lat="43.58098" lon="-0.6328">
        <ele>100.408</ele>
        <time>2021-04-27T13:01:02Z</time>
      </trkpt>
      <trkpt lat="43.58091" lon="-0.63306">
        <ele>95.713</ele>
        <time>2021-04-27T13:01:22Z</time>
      </trkpt>
      <trkpt lat="43.58091" lon="-0.63377">
        <ele>86.397</ele>
        <time>2021-04-27T13:01:42Z</time>
      </trkpt>
      <trkpt lat="43.58095" lon="-0.63454">
        <ele>81.463</ele>
        <time>2021-04-27T13:02:02Z</time>
      </trkpt>
      <trkpt lat="43.58103" lon="-0.63534">
        <ele>82.856</ele>
        <time>2021-04-27T13:02:22Z</time>
      </trkpt>
      <trkpt lat="43.58097" lon="-0.63574">
        <ele>86.179</ele>
        <time>2021-04-27T13:02:42Z</time>
      </trkpt>
      <trkpt lat="43.58019" lon="-0.63817">
        <ele>106.711</ele>
        <time>2021-04-27T13:03:02Z</time>
      </trkpt>
      <trkpt lat="43.58007" lon="-0.6384">
        <ele>108.259</ele>
        <time>2021-04-27T13:03:22Z</time>
      </trkpt>
      <trkpt lat="43.57965" lon="-0.63896">
        <ele>108.944</ele>
        <time>2021-04-27T13:03:42Z</time>
      </trkpt>
      <trkpt lat="43.57931" lon="-0.63954">
        <ele>116.288</ele>
        <time>2021-04-27T13:04:02Z</time>
      </trkpt>
      <trkpt lat="43.5789" lon="-0.64042">
        <ele>125.024</ele>
        <time>2021-04-27T13:04:22Z</time>
      </trkpt>
      <trkpt lat="43.57856" lon="-0.64106">
        <ele>129.726</ele>
        <time>2021-04-27T13:04:42Z</time>
      </trkpt>
      <trkpt lat="43.57833" lon="-0.64134">
        <ele>132.908</ele>
        <time>2021-04-27T13:05:02Z</time>
      </trkpt>
      <trkpt lat="43.57811" lon="-0.64154">
        <ele>135.885</ele>
        <time>2021-04-27T13:05:22Z</time>
      </trkpt>
      <trkpt lat="43.57716" lon="-0.64207">
        <ele>140.979</ele>
        <time>2021-04-27T13:05:42Z</time>
      </trkpt>
      <trkpt lat="43.57673" lon="-0.64175">
        <ele>139.285</ele>
        <time>2021-04-27T13:06:02Z</time>
      </trkpt>
      <trkpt lat="43.57598" lon="-0.64139">
        <ele>134.938</ele>
        <time>2021-04-27T13:06:22Z</time>
      </trkpt>
      <trkpt lat="43.57522" lon="-0.64111">
        <ele>133.781</ele>
        <time>2021-04-27T13:06:42Z</time>
      </trkpt>
      <trkpt lat="43.57481" lon="-0.64102">
        <ele>134.033</ele>
        <time>2021-04-27T13:07:02Z</time>
      </trkpt>
      <trkpt lat="43.5741" lon="-0.64102">
        <ele>135.581</ele>
        <time>2021-04-27T13:07:22Z</time>
      </trkpt>
      <trkpt lat="43.57394" lon="-0.64091">
        <ele>135.696</ele>
        <time>2021-04-27T13:07:42Z</time>
      </trkpt>
      <trkpt lat="43.57345" lon="-0.64036">
        <ele>133.727</ele>
        <time>2021-04-27T13:08:02Z</time>
      </trkpt>
      <trkpt lat="43.57289" lon="-0.63933">
        <ele>131.568</ele>
        <time>2021-04-27T13:08:22Z</time>
      </trkpt>
      <trkpt lat="43.57276" lon="-0.63984">
        <ele>131.814</ele>
        <time>2021-04-27T13:08:42Z</time>
      </trkpt>
      <trkpt lat="43.57258" lon="-0.64016">
        <ele>132.408</ele>
        <time>2021-04-27T13:09:02Z</time>
      </trkpt>
      <trkpt lat="43.57239" lon="-0.6404">
        <ele>132.419</ele>
        <time>2021-04-27T13:09:22Z</time>
      </trkpt>
      <trkpt lat="43.57222" lon="-0.64072">
        <ele>132.113</ele>
        <time>2021-04-27T13:09:42Z</time>
      </trkpt>
      <trkpt lat="43.57211" lon="-0.64106">
        <ele>132.299</ele>
        <time>2021-04-27T13:10:02Z</time>
      </trkpt>
      <trkpt lat="43.57139" lon="-0.64083">
        <ele>128.352</ele>
        <time>2021-04-27T13:10:22Z</time>
      </trkpt>
      <trkpt lat="43.5713" lon="-0.64083">
        <ele>128.185</ele>
        <time>2021-04-27T13:10:42Z</time>
      </trkpt>
      <trkpt lat="43.57113" lon="-0.64096">
        <ele>128.277</ele>
        <time>2021-04-27T13:11:02Z</time>
      </trkpt>
      <trkpt lat="43.57077" lon="-0.64134">
        <ele>129.975</ele>
        <time>2021-04-27T13:11:22Z</time>
      </trkpt>
      <trkpt lat="43.57049" lon="-0.64171">
        <ele>131.43</ele>
        <time>2021-04-27T13:11:42Z</time>
      </trkpt>
      <trkpt lat="43.5701" lon="-0.64235">
        <ele>136.339</ele>
        <time>2021-04-27T13:12:02Z</time>
      </trkpt>
      <trkpt lat="43.56982" lon="-0.64287">
        <ele>139.401</ele>
        <time>2021-04-27T13:12:22Z</time>
      </trkpt>
      <trkpt lat="43.56951" lon="-0.64351">
        <ele>142.421</ele>
        <time>2021-04-27T13:12:42Z</time>
      </trkpt>
      <trkpt lat="43.56917" lon="-0.64407">
        <ele>143.608</ele>
        <time>2021-04-27T13:13:02Z</time>
      </trkpt>
      <trkpt lat="43.56864" lon="-0.64478">
        <ele>143.22</ele>
        <time>2021-04-27T13:13:22Z</time>
      </trkpt>
      <trkpt lat="43.56727" lon="-0.64617">
        <ele>138.194</ele>
        <time>2021-04-27T13:13:42Z</time>
      </trkpt>
      <trkpt lat="43.56699" lon="-0.64651">
        <ele>137.86</ele>
        <time>2021-04-27T13:14:02Z</time>
      </trkpt>
      <trkpt lat="43.56587" lon="-0.64819">
        <ele>135.363</ele>
        <time>2021-04-27T13:14:22Z</time>
      </trkpt>
      <trkpt lat="43.56367" lon="-0.65115">
        <ele>128.226</ele>
        <time>2021-04-27T13:14:42Z</time>
      </trkpt>
      <trkpt lat="43.56323" lon="-0.65184">
        <ele>129.868</ele>
        <time>2021-04-27T13:15:02Z</time>
      </trkpt>
      <trkpt lat="43.56242" lon="-0.65295">
        <ele>128.366</ele>
        <time>2021-04-27T13:15:22Z</time>
      </trkpt>
      <trkpt lat="43.56124" lon="-0.65506">
        <ele>128.531</ele>
        <time>2021-04-27T13:15:42Z</time>
      </trkpt>
      <trkpt lat="43.56065" lon="-0.65576">
        <ele>121.387</ele>
        <time>2021-04-27T13:16:02Z</time>
      </trkpt>
      <trkpt lat="43.56042" lon="-0.65613">
        <ele>117.942</ele>
        <time>2021-04-27T13:16:22Z</time>
      </trkpt>
      <trkpt lat="43.56004" lon="-0.65664">
        <ele>116.926</ele>
        <time>2021-04-27T13:16:42Z</time>
      </trkpt>
      <trkpt lat="43.55944" lon="-0.65718">
        <ele>108.908</ele>
        <time>2021-04-27T13:17:02Z</time>
      </trkpt>
      <trkpt lat="43.55923" lon="-0.65731">
        <ele>107.755</ele>
        <time>2021-04-27T13:17:22Z</time>
      </trkpt>
      <trkpt lat="43.55897" lon="-0.65739">
        <ele>104.829</ele>
        <time>2021-04-27T13:17:42Z</time>
      </trkpt>
      <trkpt lat="43.55878" lon="-0.65739">
        <ele>102.035</ele>
        <time>2021-04-27T13:18:02Z</time>
      </trkpt>
      <trkpt lat="43.55863" lon="-0.6575">
        <ele>100.258</ele>
        <time>2021-04-27T13:18:22Z</time>
      </trkpt>
      <trkpt lat="43.55841" lon="-0.65799">
        <ele>94.041</ele>
        <time>2021-04-27T13:18:42Z</time>
      </trkpt>
      <trkpt lat="43.55788" lon="-0.6583">
        <ele>87.923</ele>
        <time>2021-04-27T13:19:02Z</time>
      </trkpt>
      <trkpt lat="43.55773" lon="-0.6586">
        <ele>86.991</ele>
        <time>2021-04-27T13:19:22Z</time>
      </trkpt>
      <trkpt lat="43.55766" lon="-0.65896">
        <ele>86.886</ele>
        <time>2021-04-27T13:19:42Z</time>
      </trkpt>
      <trkpt lat="43.55768" lon="-0.65965">
        <ele>90.663</ele>
        <time>2021-04-27T13:20:02Z</time>
      </trkpt>
      <trkpt lat="43.55765" lon="-0.66001">
        <ele>93.144</ele>
        <time>2021-04-27T13:20:22Z</time>
      </trkpt>
      <trkpt lat="43.55748" lon="-0.66031">
        <ele>92.518</ele>
        <time>2021-04-27T13:20:42Z</time>
      </trkpt>
      <trkpt lat="43.557" lon="-0.66089">
        <ele>88.508</ele>
        <time>2021-04-27T13:21:02Z</time>
      </trkpt>
      <trkpt lat="43.55662" lon="-0.66151">
        <ele>84.143</ele>
        <time>2021-04-27T13:21:22Z</time>
      </trkpt>
      <trkpt lat="43.55603" lon="-0.66278">
        <ele>81.967</ele>
        <time>2021-04-27T13:21:42Z</time>
      </trkpt>
      <trkpt lat="43.55571" lon="-0.6637">
        <ele>80.433</ele>
        <time>2021-04-27T13:22:02Z</time>
      </trkpt>
      <trkpt lat="43.55564" lon="-0.66379">
        <ele>80.456</ele>
        <time>2021-04-27T13:22:22Z</time>
      </trkpt>
      <trkpt lat="43.55508" lon="-0.66417">
        <ele>78.239</ele>
        <time>2021-04-27T13:22:42Z</time>
      </trkpt>
      <trkpt lat="43.55499" lon="-0.6643">
        <ele>78.361</ele>
        <time>2021-04-27T13:23:02Z</time>
      </trkpt>
      <trkpt lat="43.55485" lon="-0.6646">
        <ele>80.249</ele>
        <time>2021-04-27T13:23:22Z</time>
      </trkpt>
      <trkpt lat="43.55438" lon="-0.66619">
        <ele>79.644</ele>
        <time>2021-04-27T13:23:42Z</time>
      </trkpt>
      <trkpt lat="43.55424" lon="-0.66681">
        <ele>79.227</ele>
        <time>2021-04-27T13:24:02Z</time>
      </trkpt>
      <trkpt lat="43.55407" lon="-0.66774">
        <ele>78.668</ele>
        <time>2021-04-27T13:24:22Z</time>
      </trkpt>
      <trkpt lat="43.55395" lon="-0.66825">
        <ele>79.114</ele>
        <time>2021-04-27T13:24:42Z</time>
      </trkpt>
      <trkpt lat="43.55384" lon="-0.66855">
        <ele>78.608</ele>
        <time>2021-04-27T13:25:02Z</time>
      </trkpt>
      <trkpt lat="43.55331" lon="-0.66967">
        <ele>77.269</ele>
        <time>2021-04-27T13:25:22Z</time>
      </trkpt>
      <trkpt lat="43.55308" lon="-0.6699">
        <ele>77.293</ele>
        <time>2021-04-27T13:25:42Z</time>
      </trkpt>
      <trkpt lat="43.55284" lon="-0.67003">
        <ele>76.899</ele>
        <time>2021-04-27T13:26:02Z</time>
      </trkpt>
      <trkpt lat="43.55242" lon="-0.67016">
        <ele>76.272</ele>
        <time>2021-04-27T13:26:22Z</time>
      </trkpt>
      <trkpt lat="43.55213" lon="-0.67053">
        <ele>76.345</ele>
        <time>2021-04-27T13:26:42Z</time>
      </trkpt>
      <trkpt lat="43.55138" lon="-0.67164">
        <ele>73.787</ele>
        <time>2021-04-27T13:27:02Z</time>
      </trkpt>
      <trkpt lat="43.5512" lon="-0.67201">
        <ele>73.295</ele>
        <time>2021-04-27T13:27:22Z</time>
      </trkpt>
      <trkpt lat="43.55088" lon="-0.67278">
        <ele>72.83</ele>
        <time>2021-04-27T13:27:42Z</time>
      </trkpt>
      <trkpt lat="43.55082" lon="-0.67289">
        <ele>72.656</ele>
        <time>2021-04-27T13:28:02Z</time>
      </trkpt>
      <trkpt lat="43.5507" lon="-0.67297">
        <ele>72.859</ele>
        <time>2021-04-27T13:28:22Z</time>
      </trkpt>
      <trkpt lat="43.55054" lon="-0.67302">
        <ele>73.014</ele>
        <time>2021-04-27T13:28:42Z</time>
      </trkpt>
      <trkpt lat="43.55014" lon="-0.67304">
        <ele>73.608</ele>
        <time>2021-04-27T13:29:02Z</time>
      </trkpt>
      <trkpt lat="43.54964" lon="-0.67344">
        <ele>71.442</ele>
        <time>2021-04-27T13:29:22Z</time>
      </trkpt>
      <trkpt lat="43.54948" lon="-0.67351">
        <ele>71.476</ele>
        <time>2021-04-27T13:29:42Z</time>
      </trkpt>
      <trkpt lat="43.54919" lon="-0.67351">
        <ele>71.922</ele>
        <time>2021-04-27T13:30:02Z</time>
      </trkpt>
      <trkpt lat="43.54875" lon="-0.67344">
        <ele>70.495</ele>
        <time>2021-04-27T13:30:22Z</time>
      </trkpt>
      <trkpt lat="43.54854" lon="-0.67351">
        <ele>69.158</ele>
        <time>2021-04-27T13:30:42Z</time>
      </trkpt>
      <trkpt lat="43.54807" lon="-0.67385">
        <ele>65.79</ele>
        <time>2021-04-27T13:31:02Z</time>
      </trkpt>
      <trkpt lat="43.54655" lon="-0.6752">
        <ele>65.558</ele>
        <time>2021-04-27T13:31:22Z</time>
      </trkpt>
      <trkpt lat="43.54586" lon="-0.67574">
        <ele>65.163</ele>
        <time>2021-04-27T13:31:42Z</time>
      </trkpt>
      <trkpt lat="43.54563" lon="-0.67602">
        <ele>64.992</ele>
        <time>2021-04-27T13:32:02Z</time>
      </trkpt>
      <trkpt lat="43.54536" lon="-0.67623">
        <ele>64.773</ele>
        <time>2021-04-27T13:32:22Z</time>
      </trkpt>
      <trkpt lat="43.54536" lon="-0.67645">
        <ele>64.62</ele>
        <time>2021-04-27T13:32:42Z</time>
      </trkpt>
      <trkpt lat="43.54532" lon="-0.67651">
        <ele>64.508</ele>
        <time>2021-04-27T13:33:02Z</time>
      </trkpt>
      <trkpt lat="43.54519" lon="-0.67653">
        <ele>64.436</ele>
        <time>2021-04-27T13:33:22Z</time>
      </trkpt>
      <trkpt lat="43.54505" lon="-0.67686">
        <ele>64.31</ele>
        <time>2021-04-27T13:33:42Z</time>
      </trkpt>
      <trkpt lat="43.54476" lon="-0.67735">
        <ele>64.986</ele>
        <time>2021-04-27T13:34:02Z</time>
      </trkpt>
      <trkpt lat="43.54249" lon="-0.6807">
        <ele>65.899</ele>
        <time>2021-04-27T13:34:22Z</time>
      </trkpt>
      <trkpt lat="43.54224" lon="-0.68143">
        <ele>66.222</ele>
        <time>2021-04-27T13:34:42Z</time>
      </trkpt>
      <trkpt lat="43.54228" lon="-0.68171">
        <ele>66.314</ele>
        <time>2021-04-27T13:35:02Z</time>
      </trkpt>
      <trkpt lat="43.54224" lon="-0.68183">
        <ele>66.392</ele>
        <time>2021-04-27T13:35:22Z</time>
      </trkpt>
      <trkpt lat="43.54216" lon="-0.68192">
        <ele>66.467</ele>
        <time>2021-04-27T13:35:42Z</time>
      </trkpt>
      <trkpt lat="43.54219" lon="-0.6822">
        <ele>66.448</ele>
        <time>2021-04-27T13:36:02Z</time>
      </trkpt>
      <trkpt lat="43.54241" lon="-0.68213">
        <ele>66.161</ele>
        <time>2021-04-27T13:36:22Z</time>
      </trkpt>
      <trkpt lat="43.54278" lon="-0.68216">
        <ele>66.017</ele>
        <time>2021-04-27T13:36:42Z</time>
      </trkpt>
      <trkpt lat="43.54364" lon="-0.6825">
        <ele>65.608</ele>
        <time>2021-04-27T13:37:02Z</time>
      </trkpt>
      <trkpt lat="43.5441" lon="-0.68263">
        <ele>65.181</ele>
        <time>2021-04-27T13:37:22Z</time>
      </trkpt>
      <trkpt lat="43.5442" lon="-0.68271">
        <ele>65.035</ele>
        <time>2021-04-27T13:37:42Z</time>
      </trkpt>
      <trkpt lat="43.54423" lon="-0.68276">
        <ele>64.931</ele>
        <time>2021-04-27T13:38:02Z</time>
      </trkpt>
      <trkpt lat="43.54429" lon="-0.68336">
        <ele>65.034</ele>
        <time>2021-04-27T13:38:22Z</time>
      </trkpt>
      <trkpt lat="43.54432" lon="-0.68434">
        <ele>64.857</ele>
        <time>2021-04-27T13:38:42Z</time>
      </trkpt>
      <trkpt lat="43.54432" lon="-0.68465">
        <ele>64.449</ele>
        <time>2021-04-27T13:39:02Z</time>
      </trkpt>
      <trkpt lat="43.54412" lon="-0.68497">
        <ele>64.127</ele>
        <time>2021-04-27T13:39:22Z</time>
      </trkpt>
      <trkpt lat="43.54389" lon="-0.68527">
        <ele>64.672</ele>
        <time>2021-04-27T13:39:42Z</time>
      </trkpt>
      <trkpt lat="43.5435" lon="-0.68636">
        <ele>67.644</ele>
        <time>2021-04-27T13:40:02Z</time>
      </trkpt>
      <trkpt lat="43.54315" lon="-0.68698">
        <ele>69.305</ele>
        <time>2021-04-27T13:40:22Z</time>
      </trkpt>
      <trkpt lat="43.54295" lon="-0.68726">
        <ele>69.815</ele>
        <time>2021-04-27T13:40:42Z</time>
      </trkpt>
      <trkpt lat="43.54277" lon="-0.68746">
        <ele>70.308</ele>
        <time>2021-04-27T13:41:02Z</time>
      </trkpt>
      <trkpt lat="43.5427" lon="-0.68758">
        <ele>70.691</ele>
        <time>2021-04-27T13:41:22Z</time>
      </trkpt>
      <trkpt lat="43.54256" lon="-0.68889">
        <ele>71.775</ele>
        <time>2021-04-27T13:41:42Z</time>
      </trkpt>
      <trkpt lat="43.54264" lon="-0.69003">
        <ele>74.271</ele>
        <time>2021-04-27T13:42:02Z</time>
      </trkpt>
      <trkpt lat="43.54264" lon="-0.69044">
        <ele>75.044</ele>
        <time>2021-04-27T13:42:22Z</time>
      </trkpt>
      <trkpt lat="43.54219" lon="-0.69117">
        <ele>78.487</ele>
        <time>2021-04-27T13:42:42Z</time>
      </trkpt>
      <trkpt lat="43.54188" lon="-0.69181">
        <ele>81.639</ele>
        <time>2021-04-27T13:43:02Z</time>
      </trkpt>
      <trkpt lat="43.54182" lon="-0.6919">
        <ele>82.327</ele>
        <time>2021-04-27T13:43:22Z</time>
      </trkpt>
      <trkpt lat="43.54161" lon="-0.69198">
        <ele>83.662</ele>
        <time>2021-04-27T13:43:42Z</time>
      </trkpt>
      <trkpt lat="43.54138" lon="-0.69218">
        <ele>85.188</ele>
        <time>2021-04-27T13:44:02Z</time>
      </trkpt>
      <trkpt lat="43.54073" lon="-0.6931">
        <ele>90.124</ele>
        <time>2021-04-27T13:44:22Z</time>
      </trkpt>
      <trkpt lat="43.5397" lon="-0.69434">
        <ele>92.526</ele>
        <time>2021-04-27T13:44:42Z</time>
      </trkpt>
      <trkpt lat="43.53919" lon="-0.69514">
        <ele>92.208</ele>
        <time>2021-04-27T13:45:02Z</time>
      </trkpt>
      <trkpt lat="43.53917" lon="-0.69527">
        <ele>92.355</ele>
        <time>2021-04-27T13:45:22Z</time>
      </trkpt>
      <trkpt lat="43.53881" lon="-0.69587">
        <ele>93.089</ele>
        <time>2021-04-27T13:45:42Z</time>
      </trkpt>
      <trkpt lat="43.53755" lon="-0.69816">
        <ele>95.995</ele>
        <time>2021-04-27T13:46:02Z</time>
      </trkpt>
      <trkpt lat="43.53759" lon="-0.69829">
        <ele>95.878</ele>
        <time>2021-04-27T13:46:22Z</time>
      </trkpt>
      <trkpt lat="43.53759" lon="-0.69849">
        <ele>95.631</ele>
        <time>2021-04-27T13:46:42Z</time>
      </trkpt>
      <trkpt lat="43.53661" lon="-0.7016">
        <ele>92.293</ele>
        <time>2021-04-27T13:47:02Z</time>
      </trkpt>
      <trkpt lat="43.53611" lon="-0.70297">
        <ele>95.131</ele>
        <time>2021-04-27T13:47:22Z</time>
      </trkpt>
      <trkpt lat="43.53583" lon="-0.70366">
        <ele>96.066</ele>
        <time>2021-04-27T13:47:42Z</time>
      </trkpt>
      <trkpt lat="43.53569" lon="-0.70391">
        <ele>95.639</ele>
        <time>2021-04-27T13:48:02Z</time>
      </trkpt>
      <trkpt lat="43.53564" lon="-0.70398">
        <ele>95.501</ele>
        <time>2021-04-27T13:48:22Z</time>
      </trkpt>
      <trkpt lat="43.53556" lon="-0.70396">
        <ele>95.321</ele>
        <time>2021-04-27T13:48:42Z</time>
      </trkpt>
      <trkpt lat="43.53437" lon="-0.70711">
        <ele>97.808</ele>
        <time>2021-04-27T13:49:02Z</time>
      </trkpt>
      <trkpt lat="43.53424" lon="-0.70756">
        <ele>98.53</ele>
        <time>2021-04-27T13:49:22Z</time>
      </trkpt>
      <trkpt lat="43.53413" lon="-0.70778">
        <ele>97.724</ele>
        <time>2021-04-27T13:49:42Z</time>
      </trkpt>
      <trkpt lat="43.53363" lon="-0.70853">
        <ele>95.49</ele>
        <time>2021-04-27T13:50:02Z</time>
      </trkpt>
      <trkpt lat="43.53297" lon="-0.71012">
        <ele>94.133</ele>
        <time>2021-04-27T13:50:22Z</time>
      </trkpt>
      <trkpt lat="43.53094" lon="-0.7129">
        <ele>100.026</ele>
        <time>2021-04-27T13:50:42Z</time>
      </trkpt>
      <trkpt lat="43.53059" lon="-0.71333">
        <ele>101.618</ele>
        <time>2021-04-27T13:51:02Z</time>
      </trkpt>
      <trkpt lat="43.53049" lon="-0.71385">
        <ele>100.796</ele>
        <time>2021-04-27T13:51:22Z</time>
      </trkpt>
      <trkpt lat="43.53038" lon="-0.71415">
        <ele>100.771</ele>
        <time>2021-04-27T13:51:42Z</time>
      </trkpt>
      <trkpt lat="43.53021" lon="-0.71447">
        <ele>101.568</ele>
        <time>2021-04-27T13:52:02Z</time>
      </trkpt>
      <trkpt lat="43.52919" lon="-0.71559">
        <ele>107.042</ele>
        <time>2021-04-27T13:52:22Z</time>
      </trkpt>
      <trkpt lat="43.52835" lon="-0.71664">
        <ele>111.826</ele>
        <time>2021-04-27T13:52:42Z</time>
      </trkpt>
      <trkpt lat="43.5271" lon="-0.71788">
        <ele>134.408</ele>
        <time>2021-04-27T13:53:02Z</time>
      </trkpt>
      <trkpt lat="43.52629" lon="-0.71857">
        <ele>140.713</ele>
        <time>2021-04-27T13:53:22Z</time>
      </trkpt>
      <trkpt lat="43.52618" lon="-0.71855">
        <ele>141.587</ele>
        <time>2021-04-27T13:53:42Z</time>
      </trkpt>
      <trkpt lat="43.52593" lon="-0.71816">
        <ele>145.383</ele>
        <time>2021-04-27T13:54:02Z</time>
      </trkpt>
      <trkpt lat="43.52547" lon="-0.71763">
        <ele>150.736</ele>
        <time>2021-04-27T13:54:22Z</time>
      </trkpt>
      <trkpt lat="43.52502" lon="-0.7173">
        <ele>152.739</ele>
        <time>2021-04-27T13:54:42Z</time>
      </trkpt>
      <trkpt lat="43.52478" lon="-0.7172">
        <ele>153.541</ele>
        <time>2021-04-27T13:55:02Z</time>
      </trkpt>
      <trkpt lat="43.52466" lon="-0.71726">
        <ele>154.119</ele>
        <time>2021-04-27T13:55:22Z</time>
      </trkpt>
      <trkpt lat="43.52449" lon="-0.7179">
        <ele>153.144</ele>
        <time>2021-04-27T13:55:42Z</time>
      </trkpt>
      <trkpt lat="43.52444" lon="-0.71831">
        <ele>151.493</ele>
        <time>2021-04-27T13:56:02Z</time>
      </trkpt>
      <trkpt lat="43.52442" lon="-0.71848">
        <ele>151.065</ele>
        <time>2021-04-27T13:56:22Z</time>
      </trkpt>
      <trkpt lat="43.52453" lon="-0.71966">
        <ele>151.021</ele>
        <time>2021-04-27T13:56:42Z</time>
      </trkpt>
      <trkpt lat="43.52467" lon="-0.72078">
        <ele>157.308</ele>
        <time>2021-04-27T13:57:02Z</time>
      </trkpt>
      <trkpt lat="43.52475" lon="-0.72112">
        <ele>157.566</ele>
        <time>2021-04-27T13:57:22Z</time>
      </trkpt>
      <trkpt lat="43.52486" lon="-0.7214">
        <ele>157.32</ele>
        <time>2021-04-27T13:57:42Z</time>
      </trkpt>
      <trkpt lat="43.52502" lon="-0.72162">
        <ele>157.026</ele>
        <time>2021-04-27T13:58:02Z</time>
      </trkpt>
      <trkpt lat="43.52523" lon="-0.72209">
        <ele>154.679</ele>
        <time>2021-04-27T13:58:22Z</time>
      </trkpt>
      <trkpt lat="43.52528" lon="-0.72248">
        <ele>154.662</ele>
        <time>2021-04-27T13:58:42Z</time>
      </trkpt>
      <trkpt lat="43.52527" lon="-0.72275">
        <ele>154.874</ele>
        <time>2021-04-27T13:59:02Z</time>
      </trkpt>
      <trkpt lat="43.5252" lon="-0.7231">
        <ele>155.692</ele>
        <time>2021-04-27T13:59:22Z</time>
      </trkpt>
      <trkpt lat="43.52477" lon="-0.72426">
        <ele>161.137</ele>
        <time>2021-04-27T13:59:42Z</time>
      </trkpt>
      <trkpt lat="43.52455" lon="-0.72473">
        <ele>163.074</ele>
        <time>2021-04-27T14:00:02Z</time>
      </trkpt>
      <trkpt lat="43.52416" lon="-0.72591">
        <ele>167.956</ele>
        <time>2021-04-27T14:00:22Z</time>
      </trkpt>
      <trkpt lat="43.52363" lon="-0.727">
        <ele>164.321</ele>
        <time>2021-04-27T14:00:42Z</time>
      </trkpt>
      <trkpt lat="43.52335" lon="-0.72735">
        <ele>164.208</ele>
        <time>2021-04-27T14:01:02Z</time>
      </trkpt>
      <trkpt lat="43.52276" lon="-0.7272">
        <ele>159.564</ele>
        <time>2021-04-27T14:01:22Z</time>
      </trkpt>
      <trkpt lat="43.52234" lon="-0.72715">
        <ele>158.238</ele>
        <time>2021-04-27T14:01:42Z</time>
      </trkpt>
      <trkpt lat="43.5217" lon="-0.72724">
        <ele>159.964</ele>
        <time>2021-04-27T14:02:02Z</time>
      </trkpt>
      <trkpt lat="43.52134" lon="-0.72737">
        <ele>162.337</ele>
        <time>2021-04-27T14:02:22Z</time>
      </trkpt>
      <trkpt lat="43.52102" lon="-0.72758">
        <ele>164.15</ele>
        <time>2021-04-27T14:02:42Z</time>
      </trkpt>
      <trkpt lat="43.52078" lon="-0.72784">
        <ele>164.042</ele>
        <time>2021-04-27T14:03:02Z</time>
      </trkpt>
      <trkpt lat="43.52058" lon="-0.72812">
        <ele>162.91</ele>
        <time>2021-04-27T14:03:22Z</time>
      </trkpt>
      <trkpt lat="43.52026" lon="-0.72872">
        <ele>161.745</ele>
        <time>2021-04-27T14:03:42Z</time>
      </trkpt>
      <trkpt lat="43.51949" lon="-0.73114">
        <ele>159.638</ele>
        <time>2021-04-27T14:04:02Z</time>
      </trkpt>
      <trkpt lat="43.51926" lon="-0.73207">
        <ele>159.97</ele>
        <time>2021-04-27T14:04:22Z</time>
      </trkpt>
      <trkpt lat="43.51912" lon="-0.7325">
        <ele>160.617</ele>
        <time>2021-04-27T14:04:42Z</time>
      </trkpt>
      <trkpt lat="43.51899" lon="-0.73282">
        <ele>160.808</ele>
        <time>2021-04-27T14:05:02Z</time>
      </trkpt>
      <trkpt lat="43.51853" lon="-0.73368">
        <ele>163.89</ele>
        <time>2021-04-27T14:05:22Z</time>
      </trkpt>
      <trkpt lat="43.51831" lon="-0.73426">
        <ele>163.654</ele>
        <time>2021-04-27T14:05:42Z</time>
      </trkpt>
      <trkpt lat="43.51828" lon="-0.73505">
        <ele>160.31</ele>
        <time>2021-04-27T14:06:02Z</time>
      </trkpt>
      <trkpt lat="43.51811" lon="-0.73574">
        <ele>156.243</ele>
        <time>2021-04-27T14:06:22Z</time>
      </trkpt>
      <trkpt lat="43.51806" lon="-0.73627">
        <ele>154.616</ele>
        <time>2021-04-27T14:06:42Z</time>
      </trkpt>
      <trkpt lat="43.51809" lon="-0.73786">
        <ele>153.548</ele>
        <time>2021-04-27T14:07:02Z</time>
      </trkpt>
      <trkpt lat="43.51789" lon="-0.73913">
        <ele>152.936</ele>
        <time>2021-04-27T14:07:22Z</time>
      </trkpt>
      <trkpt lat="43.51783" lon="-0.73988">
        <ele>150.811</ele>
        <time>2021-04-27T14:07:42Z</time>
      </trkpt>
      <trkpt lat="43.51783" lon="-0.74039">
        <ele>150.726</ele>
        <time>2021-04-27T14:08:02Z</time>
      </trkpt>
      <trkpt lat="43.51786" lon="-0.74097">
        <ele>151.447</ele>
        <time>2021-04-27T14:08:22Z</time>
      </trkpt>
      <trkpt lat="43.51781" lon="-0.74114">
        <ele>152.011</ele>
        <time>2021-04-27T14:08:42Z</time>
      </trkpt>
      <trkpt lat="43.51775" lon="-0.74129">
        <ele>152.808</ele>
        <time>2021-04-27T14:09:02Z</time>
      </trkpt>
      <trkpt lat="43.51764" lon="-0.7414">
        <ele>153.799</ele>
        <time>2021-04-27T14:09:22Z</time>
      </trkpt>
      <trkpt lat="43.51744" lon="-0.74151">
        <ele>155.163</ele>
        <time>2021-04-27T14:09:42Z</time>
      </trkpt>
      <trkpt lat="43.51686" lon="-0.74226">
        <ele>161.699</ele>
        <time>2021-04-27T14:10:02Z</time>
      </trkpt>
      <trkpt lat="43.5164" lon="-0.74284">
        <ele>165.662</ele>
        <time>2021-04-27T14:10:22Z</time>
      </trkpt>
      <trkpt lat="43.51623" lon="-0.74318">
        <ele>167.355</ele>
        <time>2021-04-27T14:10:42Z</time>
      </trkpt>
      <trkpt lat="43.5159" lon="-0.74365">
        <ele>169.877</ele>
        <time>2021-04-27T14:11:02Z</time>
      </trkpt>
      <trkpt lat="43.51566" lon="-0.74428">
        <ele>171.675</ele>
        <time>2021-04-27T14:11:22Z</time>
      </trkpt>
      <trkpt lat="43.51517" lon="-0.74483">
        <ele>173.44</ele>
        <time>2021-04-27T14:11:42Z</time>
      </trkpt>
      <trkpt lat="43.51506" lon="-0.7449">
        <ele>173.888</ele>
        <time>2021-04-27T14:12:02Z</time>
      </trkpt>
      <trkpt lat="43.51448" lon="-0.74483">
        <ele>171.424</ele>
        <time>2021-04-27T14:12:22Z</time>
      </trkpt>
      <trkpt lat="43.51425" lon="-0.74496">
        <ele>170.326</ele>
        <time>2021-04-27T14:12:42Z</time>
      </trkpt>
      <trkpt lat="43.51367" lon="-0.7455">
        <ele>167.708</ele>
        <time>2021-04-27T14:13:02Z</time>
      </trkpt>
      <trkpt lat="43.51344" lon="-0.74582">
        <ele>166.765</ele>
        <time>2021-04-27T14:13:22Z</time>
      </trkpt>
      <trkpt lat="43.51288" lon="-0.74687">
        <ele>165.349</ele>
        <time>2021-04-27T14:13:42Z</time>
      </trkpt>
      <trkpt lat="43.51254" lon="-0.74726">
        <ele>168.345</ele>
        <time>2021-04-27T14:14:02Z</time>
      </trkpt>
      <trkpt lat="43.51193" lon="-0.7482">
        <ele>166.998</ele>
        <time>2021-04-27T14:14:22Z</time>
      </trkpt>
      <trkpt lat="43.51149" lon="-0.74955">
        <ele>173.261</ele>
        <time>2021-04-27T14:14:42Z</time>
      </trkpt>
      <trkpt lat="43.51134" lon="-0.74983">
        <ele>174.253</ele>
        <time>2021-04-27T14:15:02Z</time>
      </trkpt>
      <trkpt lat="43.51101" lon="-0.75026">
        <ele>173.121</ele>
        <time>2021-04-27T14:15:22Z</time>
      </trkpt>
      <trkpt lat="43.51051" lon="-0.75112">
        <ele>162.236</ele>
        <time>2021-04-27T14:15:42Z</time>
      </trkpt>
      <trkpt lat="43.51017" lon="-0.75157">
        <ele>157.176</ele>
        <time>2021-04-27T14:16:02Z</time>
      </trkpt>
      <trkpt lat="43.50972" lon="-0.75207">
        <ele>152.59</ele>
        <time>2021-04-27T14:16:22Z</time>
      </trkpt>
      <trkpt lat="43.50952" lon="-0.75239">
        <ele>153.119</ele>
        <time>2021-04-27T14:16:42Z</time>
      </trkpt>
      <trkpt lat="43.50908" lon="-0.7532">
        <ele>155.008</ele>
        <time>2021-04-27T14:17:02Z</time>
      </trkpt>
      <trkpt lat="43.50876" lon="-0.75415">
        <ele>153.124</ele>
        <time>2021-04-27T14:17:22Z</time>
      </trkpt>
      <trkpt lat="43.50855" lon="-0.7544">
        <ele>152.518</ele>
        <time>2021-04-27T14:17:42Z</time>
      </trkpt>
      <trkpt lat="43.5079" lon="-0.7547">
        <ele>151.564</ele>
        <time>2021-04-27T14:18:02Z</time>
      </trkpt>
      <trkpt lat="43.5077" lon="-0.75468">
        <ele>152.557</ele>
        <time>2021-04-27T14:18:22Z</time>
      </trkpt>
      <trkpt lat="43.5074" lon="-0.75455">
        <ele>154.29</ele>
        <time>2021-04-27T14:18:42Z</time>
      </trkpt>
      <trkpt lat="43.50704" lon="-0.75432">
        <ele>153.862</ele>
        <time>2021-04-27T14:19:02Z</time>
      </trkpt>
      <trkpt lat="43.50651" lon="-0.7537">
        <ele>152.26</ele>
        <time>2021-04-27T14:19:22Z</time>
      </trkpt>
      <trkpt lat="43.50644" lon="-0.75365">
        <ele>151.165</ele>
        <time>2021-04-27T14:19:42Z</time>
      </trkpt>
      <trkpt lat="43.50609" lon="-0.75357">
        <ele>145.413</ele>
        <time>2021-04-27T14:20:02Z</time>
      </trkpt>
      <trkpt lat="43.50588" lon="-0.75348">
        <ele>141.943</ele>
        <time>2021-04-27T14:20:22Z</time>
      </trkpt>
      <trkpt lat="43.50574" lon="-0.75333">
        <ele>141.107</ele>
        <time>2021-04-27T14:20:42Z</time>
      </trkpt>
      <trkpt lat="43.50547" lon="-0.75325">
        <ele>138.208</ele>
        <time>2021-04-27T14:21:02Z</time>
      </trkpt>
      <trkpt lat="43.50514" lon="-0.75325">
        <ele>134.918</ele>
        <time>2021-04-27T14:21:22Z</time>
      </trkpt>
      <trkpt lat="43.50483" lon="-0.75331">
        <ele>131.582</ele>
        <time>2021-04-27T14:21:42Z</time>
      </trkpt>
      <trkpt lat="43.50469" lon="-0.75348">
        <ele>128.198</ele>
        <time>2021-04-27T14:22:02Z</time>
      </trkpt>
      <trkpt lat="43.50275" lon="-0.7543">
        <ele>104.471</ele>
        <time>2021-04-27T14:22:22Z</time>
      </trkpt>
      <trkpt lat="43.50177" lon="-0.75488">
        <ele>102.264</ele>
        <time>2021-04-27T14:22:42Z</time>
      </trkpt>
      <trkpt lat="43.5013" lon="-0.75524">
        <ele>101.556</ele>
        <time>2021-04-27T14:23:02Z</time>
      </trkpt>
      <trkpt lat="43.50068" lon="-0.7555">
        <ele>101.614</ele>
        <time>2021-04-27T14:23:22Z</time>
      </trkpt>
      <trkpt lat="43.50021" lon="-0.75576">
        <ele>103.459</ele>
        <time>2021-04-27T14:23:42Z</time>
      </trkpt>
      <trkpt lat="43.49957" lon="-0.75629">
        <ele>107.077</ele>
        <time>2021-04-27T14:24:02Z</time>
      </trkpt>
      <trkpt lat="43.49915" lon="-0.75672">
        <ele>109.261</ele>
        <time>2021-04-27T14:24:22Z</time>
      </trkpt>
      <trkpt lat="43.49836" lon="-0.75769">
        <ele>109.127</ele>
        <time>2021-04-27T14:24:42Z</time>
      </trkpt>
      <trkpt lat="43.49771" lon="-0.75857">
        <ele>107.208</ele>
        <time>2021-04-27T14:25:02Z</time>
      </trkpt>
      <trkpt lat="43.49738" lon="-0.75912">
        <ele>105.994</ele>
        <time>2021-04-27T14:25:22Z</time>
      </trkpt>
      <trkpt lat="43.49697" lon="-0.75992">
        <ele>104.288</ele>
        <time>2021-04-27T14:25:42Z</time>
      </trkpt>
      <trkpt lat="43.49686" lon="-0.76009">
        <ele>104.654</ele>
        <time>2021-04-27T14:26:02Z</time>
      </trkpt>
      <trkpt lat="43.4962" lon="-0.76091">
        <ele>108.377</ele>
        <time>2021-04-27T14:26:22Z</time>
      </trkpt>
      <trkpt lat="43.49537" lon="-0.76206">
        <ele>110.55</ele>
        <time>2021-04-27T14:26:42Z</time>
      </trkpt>
      <trkpt lat="43.49467" lon="-0.76314">
        <ele>111.192</ele>
        <time>2021-04-27T14:27:02Z</time>
      </trkpt>
      <trkpt lat="43.49439" lon="-0.7637">
        <ele>113.88</ele>
        <time>2021-04-27T14:27:22Z</time>
      </trkpt>
      <trkpt lat="43.4938" lon="-0.7647">
        <ele>116.075</ele>
        <time>2021-04-27T14:27:42Z</time>
      </trkpt>
      <trkpt lat="43.4935" lon="-0.76503">
        <ele>115.913</ele>
        <time>2021-04-27T14:28:02Z</time>
      </trkpt>
      <trkpt lat="43.49324" lon="-0.76548">
        <ele>113.043</ele>
        <time>2021-04-27T14:28:22Z</time>
      </trkpt>
      <trkpt lat="43.49224" lon="-0.76747">
        <ele>102.707</ele>
        <time>2021-04-27T14:28:42Z</time>
      </trkpt>
      <trkpt lat="43.49167" lon="-0.76902">
        <ele>103.608</ele>
        <time>2021-04-27T14:29:02Z</time>
      </trkpt>
      <trkpt lat="43.49145" lon="-0.76949">
        <ele>102.828</ele>
        <time>2021-04-27T14:29:22Z</time>
      </trkpt>
      <trkpt lat="43.49135" lon="-0.76983">
        <ele>102.762</ele>
        <time>2021-04-27T14:29:42Z</time>
      </trkpt>
      <trkpt lat="43.491" lon="-0.77056">
        <ele>97.878</ele>
        <time>2021-04-27T14:30:02Z</time>
      </trkpt>
      <trkpt lat="43.4902" lon="-0.77189">
        <ele>85.581</ele>
        <time>2021-04-27T14:30:22Z</time>
      </trkpt>
      <trkpt lat="43.48852" lon="-0.77455">
        <ele>74.344</ele>
        <time>2021-04-27T14:30:42Z</time>
      </trkpt>
      <trkpt lat="43.48827" lon="-0.77481">
        <ele>74.366</ele>
        <time>2021-04-27T14:31:02Z</time>
      </trkpt>
      <trkpt lat="43.48802" lon="-0.77498">
        <ele>74.424</ele>
        <time>2021-04-27T14:31:22Z</time>
      </trkpt>
      <trkpt lat="43.48637" lon="-0.77578">
        <ele>62.149</ele>
        <time>2021-04-27T14:31:42Z</time>
      </trkpt>
      <trkpt lat="43.48664" lon="-0.77687">
        <ele>60.366</ele>
        <time>2021-04-27T14:32:02Z</time>
      </trkpt>
      <trkpt lat="43.48563" lon="-0.7773">
        <ele>64.329</ele>
        <time>2021-04-27T14:32:22Z</time>
      </trkpt>
      <trkpt lat="43.48508" lon="-0.7776">
        <ele>67.621</ele>
        <time>2021-04-27T14:32:42Z</time>
      </trkpt>
      <trkpt lat="43.48492" lon="-0.77689">
        <ele>67.008</ele>
        <time>2021-04-27T14:33:02Z</time>
      </trkpt>
      <trkpt lat="43.4848" lon="-0.7767">
        <ele>67.563</ele>
        <time>2021-04-27T14:33:22Z</time>
      </trkpt>
      <trkpt lat="43.48466" lon="-0.77659">
        <ele>68.377</ele>
        <time>2021-04-27T14:33:42Z</time>
      </trkpt>
      <trkpt lat="43.48449" lon="-0.77653">
        <ele>69.513</ele>
        <time>2021-04-27T14:34:02Z</time>
      </trkpt>
      <trkpt lat="43.48301" lon="-0.77786">
        <ele>77.486</ele>
        <time>2021-04-27T14:34:22Z</time>
      </trkpt>
      <trkpt lat="43.48293" lon="-0.77796">
        <ele>78.169</ele>
        <time>2021-04-27T14:34:42Z</time>
      </trkpt>
      <trkpt lat="43.48284" lon="-0.7782">
        <ele>79.651</ele>
        <time>2021-04-27T14:35:02Z</time>
      </trkpt>
      <trkpt lat="43.48262" lon="-0.77893">
        <ele>82.619</ele>
        <time>2021-04-27T14:35:22Z</time>
      </trkpt>
      <trkpt lat="43.48242" lon="-0.77945">
        <ele>84.224</ele>
        <time>2021-04-27T14:35:42Z</time>
      </trkpt>
      <trkpt lat="43.48232" lon="-0.77962">
        <ele>84.529</ele>
        <time>2021-04-27T14:36:02Z</time>
      </trkpt>
      <trkpt lat="43.48218" lon="-0.77977">
        <ele>84.8</ele>
        <time>2021-04-27T14:36:22Z</time>
      </trkpt>
      <trkpt lat="43.48201" lon="-0.77987">
        <ele>85.32</ele>
        <time>2021-04-27T14:36:42Z</time>
      </trkpt>
      <trkpt lat="43.48175" lon="-0.77992">
        <ele>86.208</ele>
        <time>2021-04-27T14:37:02Z</time>
      </trkpt>
      <trkpt lat="43.48078" lon="-0.77979">
        <ele>96.039</ele>
        <time>2021-04-27T14:37:22Z</time>
      </trkpt>
      <trkpt lat="43.48013" lon="-0.77977">
        <ele>102.283</ele>
        <time>2021-04-27T14:37:42Z</time>
      </trkpt>
      <trkpt lat="43.47994" lon="-0.77983">
        <ele>104.089</ele>
        <time>2021-04-27T14:38:02Z</time>
      </trkpt>
      <trkpt lat="43.47972" lon="-0.77998">
        <ele>106.892</ele>
        <time>2021-04-27T14:38:22Z</time>
      </trkpt>
      <trkpt lat="43.47977" lon="-0.78013">
        <ele>106.085</ele>
        <time>2021-04-27T14:38:42Z</time>
      </trkpt>
      <trkpt lat="43.47979" lon="-0.78024">
        <ele>105.917</ele>
        <time>2021-04-27T14:39:02Z</time>
      </trkpt>
      <trkpt lat="43.47943" lon="-0.78163">
        <ele>108.895</ele>
        <time>2021-04-27T14:39:22Z</time>
      </trkpt>
      <trkpt lat="43.4794" lon="-0.78217">
        <ele>106.62</ele>
        <time>2021-04-27T14:39:42Z</time>
      </trkpt>
      <trkpt lat="43.47913" lon="-0.78284">
        <ele>104.864</ele>
        <time>2021-04-27T14:40:02Z</time>
      </trkpt>
      <trkpt lat="43.47877" lon="-0.78359">
        <ele>105.106</ele>
        <time>2021-04-27T14:40:22Z</time>
      </trkpt>
      <trkpt lat="43.47862" lon="-0.78378">
        <ele>106.616</ele>
        <time>2021-04-27T14:40:42Z</time>
      </trkpt>
      <trkpt lat="43.47849" lon="-0.78389">
        <ele>108.208</ele>
        <time>2021-04-27T14:41:02Z</time>
      </trkpt>
      <trkpt lat="43.47842" lon="-0.78404">
        <ele>109.073</ele>
        <time>2021-04-27T14:41:22Z</time>
      </trkpt>
      <trkpt lat="43.47817" lon="-0.78509">
        <ele>111.467</ele>
        <time>2021-04-27T14:41:42Z</time>
      </trkpt>
      <trkpt lat="43.47807" lon="-0.7853">
        <ele>111.963</ele>
        <time>2021-04-27T14:42:02Z</time>
      </trkpt>
      <trkpt lat="43.47772" lon="-0.78599">
        <ele>113.376</ele>
        <time>2021-04-27T14:42:22Z</time>
      </trkpt>
      <trkpt lat="43.47759" lon="-0.78633">
        <ele>114.169</ele>
        <time>2021-04-27T14:42:42Z</time>
      </trkpt>
      <trkpt lat="43.47756" lon="-0.78659">
        <ele>114.441</ele>
        <time>2021-04-27T14:43:02Z</time>
      </trkpt>
      <trkpt lat="43.47761" lon="-0.78704">
        <ele>115.799</ele>
        <time>2021-04-27T14:43:22Z</time>
      </trkpt>
      <trkpt lat="43.47759" lon="-0.78723">
        <ele>116.784</ele>
        <time>2021-04-27T14:43:42Z</time>
      </trkpt>
      <trkpt lat="43.47733" lon="-0.78777">
        <ele>119.421</ele>
        <time>2021-04-27T14:44:02Z</time>
      </trkpt>
      <trkpt lat="43.47728" lon="-0.7879">
        <ele>119.541</ele>
        <time>2021-04-27T14:44:22Z</time>
      </trkpt>
      <trkpt lat="43.47726" lon="-0.78799">
        <ele>119.605</ele>
        <time>2021-04-27T14:44:42Z</time>
      </trkpt>
      <trkpt lat="43.47728" lon="-0.78814">
        <ele>120.108</ele>
        <time>2021-04-27T14:45:02Z</time>
      </trkpt>
      <trkpt lat="43.47751" lon="-0.7888">
        <ele>123.519</ele>
        <time>2021-04-27T14:45:22Z</time>
      </trkpt>
      <trkpt lat="43.47798" lon="-0.78996">
        <ele>120.113</ele>
        <time>2021-04-27T14:45:42Z</time>
      </trkpt>
      <trkpt lat="43.47815" lon="-0.79032">
        <ele>118.199</ele>
        <time>2021-04-27T14:46:02Z</time>
      </trkpt>
      <trkpt lat="43.4787" lon="-0.79084">
        <ele>115.822</ele>
        <time>2021-04-27T14:46:22Z</time>
      </trkpt>
      <trkpt lat="43.47907" lon="-0.79135">
        <ele>112.965</ele>
        <time>2021-04-27T14:46:42Z</time>
      </trkpt>
      <trkpt lat="43.47965" lon="-0.79236">
        <ele>116.577</ele>
        <time>2021-04-27T14:47:02Z</time>
      </trkpt>
      <trkpt lat="43.47999" lon="-0.79359">
        <ele>117.865</ele>
        <time>2021-04-27T14:47:22Z</time>
      </trkpt>
      <trkpt lat="43.48011" lon="-0.79382">
        <ele>121.16</ele>
        <time>2021-04-27T14:47:42Z</time>
      </trkpt>
      <trkpt lat="43.4801" lon="-0.79399">
        <ele>120.758</ele>
        <time>2021-04-27T14:48:02Z</time>
      </trkpt>
      <trkpt lat="43.47988" lon="-0.79432">
        <ele>116.152</ele>
        <time>2021-04-27T14:48:22Z</time>
      </trkpt>
      <trkpt lat="43.47986" lon="-0.79455">
        <ele>116.117</ele>
        <time>2021-04-27T14:48:42Z</time>
      </trkpt>
      <trkpt lat="43.47991" lon="-0.79492">
        <ele>117.308</ele>
        <time>2021-04-27T14:49:02Z</time>
      </trkpt>
      <trkpt lat="43.47997" lon="-0.79522">
        <ele>117.282</ele>
        <time>2021-04-27T14:49:22Z</time>
      </trkpt>
      <trkpt lat="43.48013" lon="-0.79562">
        <ele>117.386</ele>
        <time>2021-04-27T14:49:42Z</time>
      </trkpt>
      <trkpt lat="43.48025" lon="-0.79614">
        <ele>113.452</ele>
        <time>2021-04-27T14:50:02Z</time>
      </trkpt>
      <trkpt lat="43.4805" lon="-0.79668">
        <ele>108.175</ele>
        <time>2021-04-27T14:50:22Z</time>
      </trkpt>
      <trkpt lat="43.4805" lon="-0.79683">
        <ele>106.868</ele>
        <time>2021-04-27T14:50:42Z</time>
      </trkpt>
      <trkpt lat="43.48028" lon="-0.79734">
        <ele>101.54</ele>
        <time>2021-04-27T14:51:02Z</time>
      </trkpt>
      <trkpt lat="43.48028" lon="-0.79798">
        <ele>97.888</ele>
        <time>2021-04-27T14:51:22Z</time>
      </trkpt>
      <trkpt lat="43.48014" lon="-0.79861">
        <ele>94.233</ele>
        <time>2021-04-27T14:51:42Z</time>
      </trkpt>
      <trkpt lat="43.48063" lon="-0.79897">
        <ele>93.179</ele>
        <time>2021-04-27T14:52:02Z</time>
      </trkpt>
      <trkpt lat="43.48091" lon="-0.79931">
        <ele>92.505</ele>
        <time>2021-04-27T14:52:22Z</time>
      </trkpt>
      <trkpt lat="43.48113" lon="-0.79981">
        <ele>90.225</ele>
        <time>2021-04-27T14:52:42Z</time>
      </trkpt>
      <trkpt lat="43.48192" lon="-0.80099">
        <ele>83.708</ele>
        <time>2021-04-27T14:53:02Z</time>
      </trkpt>
      <trkpt lat="43.48169" lon="-0.80129">
        <ele>84.894</ele>
        <time>2021-04-27T14:53:22Z</time>
      </trkpt>
      <trkpt lat="43.48144" lon="-0.8017">
        <ele>83.878</ele>
        <time>2021-04-27T14:53:42Z</time>
      </trkpt>
      <trkpt lat="43.48103" lon="-0.80245">
        <ele>79.354</ele>
        <time>2021-04-27T14:54:02Z</time>
      </trkpt>
      <trkpt lat="43.48081" lon="-0.80273">
        <ele>78.297</ele>
        <time>2021-04-27T14:54:22Z</time>
      </trkpt>
      <trkpt lat="43.48052" lon="-0.80305">
        <ele>77.09</ele>
        <time>2021-04-27T14:54:42Z</time>
      </trkpt>
      <trkpt lat="43.47999" lon="-0.80348">
        <ele>75.952</ele>
        <time>2021-04-27T14:55:02Z</time>
      </trkpt>
      <trkpt lat="43.47941" lon="-0.80389">
        <ele>72.32</ele>
        <time>2021-04-27T14:55:22Z</time>
      </trkpt>
      <trkpt lat="43.47882" lon="-0.80427">
        <ele>71.335</ele>
        <time>2021-04-27T14:55:42Z</time>
      </trkpt>
      <trkpt lat="43.47803" lon="-0.80464">
        <ele>69.231</ele>
        <time>2021-04-27T14:56:02Z</time>
      </trkpt>
      <trkpt lat="43.47772" lon="-0.80489">
        <ele>68.361</ele>
        <time>2021-04-27T14:56:22Z</time>
      </trkpt>
      <trkpt lat="43.47756" lon="-0.80519">
        <ele>67.607</ele>
        <time>2021-04-27T14:56:42Z</time>
      </trkpt>
      <trkpt lat="43.47736" lon="-0.80567">
        <ele>65.508</ele>
        <time>2021-04-27T14:57:02Z</time>
      </trkpt>
      <trkpt lat="43.47692" lon="-0.8059">
        <ele>62.29</ele>
        <time>2021-04-27T14:57:22Z</time>
      </trkpt>
      <trkpt lat="43.47624" lon="-0.8061">
        <ele>59.634</ele>
        <time>2021-04-27T14:57:42Z</time>
      </trkpt>
      <trkpt lat="43.47596" lon="-0.80631">
        <ele>59.25</ele>
        <time>2021-04-27T14:58:02Z</time>
      </trkpt>
      <trkpt lat="43.47569" lon="-0.80657">
        <ele>60.283</ele>
        <time>2021-04-27T14:58:22Z</time>
      </trkpt>
      <trkpt lat="43.4753" lon="-0.8068">
        <ele>63.566</ele>
        <time>2021-04-27T14:58:42Z</time>
      </trkpt>
      <trkpt lat="43.47491" lon="-0.80693">
        <ele>66.858</ele>
        <time>2021-04-27T14:59:02Z</time>
      </trkpt>
      <trkpt lat="43.47427" lon="-0.80702">
        <ele>72.796</ele>
        <time>2021-04-27T14:59:22Z</time>
      </trkpt>
      <trkpt lat="43.47398" lon="-0.80719">
        <ele>75.281</ele>
        <time>2021-04-27T14:59:42Z</time>
      </trkpt>
      <trkpt lat="43.47378" lon="-0.80728">
        <ele>76.548</ele>
        <time>2021-04-27T15:00:02Z</time>
      </trkpt>
      <trkpt lat="43.47214" lon="-0.80745">
        <ele>80.561</ele>
        <time>2021-04-27T15:00:22Z</time>
      </trkpt>
      <trkpt lat="43.4718" lon="-0.80764">
        <ele>82.617</ele>
        <time>2021-04-27T15:00:42Z</time>
      </trkpt>
      <trkpt lat="43.47169" lon="-0.80779">
        <ele>83.708</ele>
        <time>2021-04-27T15:01:02Z</time>
      </trkpt>
      <trkpt lat="43.47138" lon="-0.80811">
        <ele>84.961</ele>
        <time>2021-04-27T15:01:22Z</time>
      </trkpt>
      <trkpt lat="43.47122" lon="-0.80818">
        <ele>84.875</ele>
        <time>2021-04-27T15:01:42Z</time>
      </trkpt>
      <trkpt lat="43.47068" lon="-0.8082">
        <ele>84.031</ele>
        <time>2021-04-27T15:02:02Z</time>
      </trkpt>
      <trkpt lat="43.4704" lon="-0.80831">
        <ele>85.024</ele>
        <time>2021-04-27T15:02:22Z</time>
      </trkpt>
      <trkpt lat="43.47027" lon="-0.80841">
        <ele>85.727</ele>
        <time>2021-04-27T15:02:42Z</time>
      </trkpt>
      <trkpt lat="43.46977" lon="-0.80908">
        <ele>87.289</ele>
        <time>2021-04-27T15:03:02Z</time>
      </trkpt>
      <trkpt lat="43.46946" lon="-0.8094">
        <ele>84.837</ele>
        <time>2021-04-27T15:03:22Z</time>
      </trkpt>
      <trkpt lat="43.46924" lon="-0.80955">
        <ele>82.752</ele>
        <time>2021-04-27T15:03:42Z</time>
      </trkpt>
      <trkpt lat="43.46914" lon="-0.80968">
        <ele>81.597</ele>
        <time>2021-04-27T15:04:02Z</time>
      </trkpt>
      <trkpt lat="43.4689" lon="-0.81032">
        <ele>78.323</ele>
        <time>2021-04-27T15:04:22Z</time>
      </trkpt>
      <trkpt lat="43.46858" lon="-0.81105">
        <ele>75.525</ele>
        <time>2021-04-27T15:04:42Z</time>
      </trkpt>
      <trkpt lat="43.46834" lon="-0.8115">
        <ele>74.008</ele>
        <time>2021-04-27T15:05:02Z</time>
      </trkpt>
      <trkpt lat="43.46781" lon="-0.81193">
        <ele>74.676</ele>
        <time>2021-04-27T15:05:22Z</time>
      </trkpt>
      <trkpt lat="43.4672" lon="-0.81294">
        <ele>76.51</ele>
        <time>2021-04-27T15:05:42Z</time>
      </trkpt>
      <trkpt lat="43.46616" lon="-0.81436">
        <ele>78.696</ele>
        <time>2021-04-27T15:06:02Z</time>
      </trkpt>
      <trkpt lat="43.46554" lon="-0.81537">
        <ele>79.829</ele>
        <time>2021-04-27T15:06:22Z</time>
      </trkpt>
      <trkpt lat="43.46471" lon="-0.81663">
        <ele>80.242</ele>
        <time>2021-04-27T15:06:42Z</time>
      </trkpt>
      <trkpt lat="43.46443" lon="-0.81695">
        <ele>79.624</ele>
        <time>2021-04-27T15:07:02Z</time>
      </trkpt>
      <trkpt lat="43.464" lon="-0.81732">
        <ele>79.882</ele>
        <time>2021-04-27T15:07:22Z</time>
      </trkpt>
      <trkpt lat="43.46368" lon="-0.81768">
        <ele>81.867</ele>
        <time>2021-04-27T15:07:42Z</time>
      </trkpt>
      <trkpt lat="43.46348" lon="-0.81809">
        <ele>84.248</ele>
        <time>2021-04-27T15:08:02Z</time>
      </trkpt>
      <trkpt lat="43.46326" lon="-0.81833">
        <ele>86.261</ele>
        <time>2021-04-27T15:08:22Z</time>
      </trkpt>
      <trkpt lat="43.46256" lon="-0.81931">
        <ele>90.717</ele>
        <time>2021-04-27T15:08:42Z</time>
      </trkpt>
      <trkpt lat="43.46202" lon="-0.82">
        <ele>95.008</ele>
        <time>2021-04-27T15:09:02Z</time>
      </trkpt>
      <trkpt lat="43.46188" lon="-0.82009">
        <ele>96.771</ele>
        <time>2021-04-27T15:09:22Z</time>
      </trkpt>
      <trkpt lat="43.46161" lon="-0.82021">
        <ele>99.835</ele>
        <time>2021-04-27T15:09:42Z</time>
      </trkpt>
      <trkpt lat="43.46132" lon="-0.82028">
        <ele>102.051</ele>
        <time>2021-04-27T15:10:02Z</time>
      </trkpt>
      <trkpt lat="43.46133" lon="-0.82064">
        <ele>104.864</ele>
        <time>2021-04-27T15:10:22Z</time>
      </trkpt>
      <trkpt lat="43.46132" lon="-0.82092">
        <ele>106.987</ele>
        <time>2021-04-27T15:10:42Z</time>
      </trkpt>
      <trkpt lat="43.46124" lon="-0.82109">
        <ele>108.289</ele>
        <time>2021-04-27T15:11:02Z</time>
      </trkpt>
      <trkpt lat="43.46121" lon="-0.82103">
        <ele>108.257</ele>
        <time>2021-04-27T15:11:22Z</time>
      </trkpt>
      <trkpt lat="43.46105" lon="-0.82101">
        <ele>109.382</ele>
        <time>2021-04-27T15:11:42Z</time>
      </trkpt>
      <trkpt lat="43.46094" lon="-0.82103">
        <ele>110.324</ele>
        <time>2021-04-27T15:12:02Z</time>
      </trkpt>
      <trkpt lat="43.46087" lon="-0.82101">
        <ele>110.804</ele>
        <time>2021-04-27T15:12:22Z</time>
      </trkpt>
      <trkpt lat="43.46087" lon="-0.82073">
        <ele>108.814</ele>
        <time>2021-04-27T15:12:42Z</time>
      </trkpt>
      <trkpt lat="43.46091" lon="-0.82045">
        <ele>105.808</ele>
        <time>2021-04-27T15:13:02Z</time>
      </trkpt>
      <trkpt lat="43.46115" lon="-0.81989">
        <ele>99.999</ele>
        <time>2021-04-27T15:13:22Z</time>
      </trkpt>
      <trkpt lat="43.46112" lon="-0.81966">
        <ele>98.673</ele>
        <time>2021-04-27T15:13:42Z</time>
      </trkpt>
      <trkpt lat="43.46121" lon="-0.81863">
        <ele>92.529</ele>
        <time>2021-04-27T15:14:02Z</time>
      </trkpt>
      <trkpt lat="43.46118" lon="-0.81828">
        <ele>91.082</ele>
        <time>2021-04-27T15:14:22Z</time>
      </trkpt>
      <trkpt lat="43.4611" lon="-0.81807">
        <ele>91.145</ele>
        <time>2021-04-27T15:14:42Z</time>
      </trkpt>
      <trkpt lat="43.46101" lon="-0.81743">
        <ele>91.697</ele>
        <time>2021-04-27T15:15:02Z</time>
      </trkpt>
      <trkpt lat="43.46009" lon="-0.81618">
        <ele>100.355</ele>
        <time>2021-04-27T15:15:22Z</time>
      </trkpt>
      <trkpt lat="43.45993" lon="-0.81605">
        <ele>101.12</ele>
        <time>2021-04-27T15:15:42Z</time>
      </trkpt>
      <trkpt lat="43.45974" lon="-0.81594">
        <ele>101.457</ele>
        <time>2021-04-27T15:16:02Z</time>
      </trkpt>
      <trkpt lat="43.45948" lon="-0.81588">
        <ele>102.1</ele>
        <time>2021-04-27T15:16:22Z</time>
      </trkpt>
      <trkpt lat="43.45937" lon="-0.8159">
        <ele>102.72</ele>
        <time>2021-04-27T15:16:42Z</time>
      </trkpt>
      <trkpt lat="43.45931" lon="-0.81697">
        <ele>110.308</ele>
        <time>2021-04-27T15:17:02Z</time>
      </trkpt>
      <trkpt lat="43.45879" lon="-0.81835">
        <ele>124.462</ele>
        <time>2021-04-27T15:17:22Z</time>
      </trkpt>
      <trkpt lat="43.45811" lon="-0.81985">
        <ele>130.356</ele>
        <time>2021-04-27T15:17:42Z</time>
      </trkpt>
      <trkpt lat="43.45772" lon="-0.82094">
        <ele>125.672</ele>
        <time>2021-04-27T15:18:02Z</time>
      </trkpt>
      <trkpt lat="43.45761" lon="-0.82114">
        <ele>126.215</ele>
        <time>2021-04-27T15:18:22Z</time>
      </trkpt>
      <trkpt lat="43.45719" lon="-0.82155">
        <ele>125.558</ele>
        <time>2021-04-27T15:18:42Z</time>
      </trkpt>
      <trkpt lat="43.45685" lon="-0.8218">
        <ele>126.06</ele>
        <time>2021-04-27T15:19:02Z</time>
      </trkpt>
      <trkpt lat="43.45672" lon="-0.82187">
        <ele>126.798</ele>
        <time>2021-04-27T15:19:22Z</time>
      </trkpt>
      <trkpt lat="43.45613" lon="-0.82197">
        <ele>122.613</ele>
        <time>2021-04-27T15:19:42Z</time>
      </trkpt>
      <trkpt lat="43.45579" lon="-0.82223">
        <ele>121.085</ele>
        <time>2021-04-27T15:20:02Z</time>
      </trkpt>
      <trkpt lat="43.45566" lon="-0.82234">
        <ele>119.989</ele>
        <time>2021-04-27T15:20:22Z</time>
      </trkpt>
      <trkpt lat="43.45549" lon="-0.8226">
        <ele>119.017</ele>
        <time>2021-04-27T15:20:42Z</time>
      </trkpt>
      <trkpt lat="43.45534" lon="-0.82292">
        <ele>117.608</ele>
        <time>2021-04-27T15:21:02Z</time>
      </trkpt>
      <trkpt lat="43.45499" lon="-0.82401">
        <ele>110.425</ele>
        <time>2021-04-27T15:21:22Z</time>
      </trkpt>
      <trkpt lat="43.45498" lon="-0.82425">
        <ele>109.079</ele>
        <time>2021-04-27T15:21:42Z</time>
      </trkpt>
      <trkpt lat="43.45499" lon="-0.82451">
        <ele>107.455</ele>
        <time>2021-04-27T15:22:02Z</time>
      </trkpt>
      <trkpt lat="43.45526" lon="-0.82631">
        <ele>102.868</ele>
        <time>2021-04-27T15:22:22Z</time>
      </trkpt>
      <trkpt lat="43.45495" lon="-0.82652">
        <ele>99.171</ele>
        <time>2021-04-27T15:22:42Z</time>
      </trkpt>
      <trkpt lat="43.45459" lon="-0.82665">
        <ele>98.513</ele>
        <time>2021-04-27T15:23:02Z</time>
      </trkpt>
      <trkpt lat="43.45431" lon="-0.82669">
        <ele>98.261</ele>
        <time>2021-04-27T15:23:22Z</time>
      </trkpt>
      <trkpt lat="43.45425" lon="-0.82674">
        <ele>98.086</ele>
        <time>2021-04-27T15:23:42Z</time>
      </trkpt>
      <trkpt lat="43.45398" lon="-0.82721">
        <ele>100.544</ele>
        <time>2021-04-27T15:24:02Z</time>
      </trkpt>
      <trkpt lat="43.45393" lon="-0.82742">
        <ele>101.205</ele>
        <time>2021-04-27T15:24:22Z</time>
      </trkpt>
      <trkpt lat="43.45397" lon="-0.82839">
        <ele>104.015</ele>
        <time>2021-04-27T15:24:42Z</time>
      </trkpt>
      <trkpt lat="43.4539" lon="-0.82944">
        <ele>106.808</ele>
        <time>2021-04-27T15:25:02Z</time>
      </trkpt>
      <trkpt lat="43.45364" lon="-0.83013">
        <ele>113.471</ele>
        <time>2021-04-27T15:25:22Z</time>
      </trkpt>
      <trkpt lat="43.45353" lon="-0.83032">
        <ele>116.035</ele>
        <time>2021-04-27T15:25:42Z</time>
      </trkpt>
      <trkpt lat="43.45305" lon="-0.83182">
        <ele>126.461</ele>
        <time>2021-04-27T15:26:02Z</time>
      </trkpt>
      <trkpt lat="43.45298" lon="-0.83193">
        <ele>127.164</ele>
        <time>2021-04-27T15:26:22Z</time>
      </trkpt>
      <trkpt lat="43.45288" lon="-0.83191">
        <ele>129.697</ele>
        <time>2021-04-27T15:26:42Z</time>
      </trkpt>
      <trkpt lat="43.45263" lon="-0.83116">
        <ele>135.229</ele>
        <time>2021-04-27T15:27:02Z</time>
      </trkpt>
      <trkpt lat="43.45253" lon="-0.83099">
        <ele>136.797</ele>
        <time>2021-04-27T15:27:22Z</time>
      </trkpt>
      <trkpt lat="43.45241" lon="-0.83086">
        <ele>136.662</ele>
        <time>2021-04-27T15:27:42Z</time>
      </trkpt>
      <trkpt lat="43.45227" lon="-0.83081">
        <ele>135.865</ele>
        <time>2021-04-27T15:28:02Z</time>
      </trkpt>
      <trkpt lat="43.45219" lon="-0.83086">
        <ele>135.668</ele>
        <time>2021-04-27T15:28:22Z</time>
      </trkpt>
      <trkpt lat="43.45147" lon="-0.83227">
        <ele>145.214</ele>
        <time>2021-04-27T15:28:42Z</time>
      </trkpt>
      <trkpt lat="43.45129" lon="-0.83262">
        <ele>146.608</ele>
        <time>2021-04-27T15:29:02Z</time>
      </trkpt>
      <trkpt lat="43.45105" lon="-0.83294">
        <ele>147.453</ele>
        <time>2021-04-27T15:29:22Z</time>
      </trkpt>
      <trkpt lat="43.45059" lon="-0.83335">
        <ele>153.217</ele>
        <time>2021-04-27T15:29:42Z</time>
      </trkpt>
      <trkpt lat="43.44982" lon="-0.83378">
        <ele>158.263</ele>
        <time>2021-04-27T15:30:02Z</time>
      </trkpt>
      <trkpt lat="43.44937" lon="-0.83478">
        <ele>156.796</ele>
        <time>2021-04-27T15:30:22Z</time>
      </trkpt>
      <trkpt lat="43.44903" lon="-0.83541">
        <ele>159.589</ele>
        <time>2021-04-27T15:30:42Z</time>
      </trkpt>
      <trkpt lat="43.44897" lon="-0.83541">
        <ele>160.091</ele>
        <time>2021-04-27T15:31:02Z</time>
      </trkpt>
      <trkpt lat="43.44837" lon="-0.83521">
        <ele>164.039</ele>
        <time>2021-04-27T15:31:22Z</time>
      </trkpt>
      <trkpt lat="43.44752" lon="-0.83601">
        <ele>168.924</ele>
        <time>2021-04-27T15:31:42Z</time>
      </trkpt>
      <trkpt lat="43.44741" lon="-0.83652">
        <ele>170.099</ele>
        <time>2021-04-27T15:32:02Z</time>
      </trkpt>
      <trkpt lat="43.44733" lon="-0.83665">
        <ele>171.207</ele>
        <time>2021-04-27T15:32:22Z</time>
      </trkpt>
      <trkpt lat="43.44688" lon="-0.83697">
        <ele>177.627</ele>
        <time>2021-04-27T15:32:42Z</time>
      </trkpt>
      <trkpt lat="43.44677" lon="-0.83697">
        <ele>179.008</ele>
        <time>2021-04-27T15:33:02Z</time>
      </trkpt>
      <trkpt lat="43.44663" lon="-0.83669">
        <ele>180.026</ele>
        <time>2021-04-27T15:33:22Z</time>
      </trkpt>
      <trkpt lat="43.44652" lon="-0.83659">
        <ele>179.18</ele>
        <time>2021-04-27T15:33:42Z</time>
      </trkpt>
      <trkpt lat="43.44624" lon="-0.83648">
        <ele>178.346</ele>
        <time>2021-04-27T15:34:02Z</time>
      </trkpt>
      <trkpt lat="43.44538" lon="-0.83637">
        <ele>175.439</ele>
        <time>2021-04-27T15:34:22Z</time>
      </trkpt>
      <trkpt lat="43.44459" lon="-0.83624">
        <ele>172.342</ele>
        <time>2021-04-27T15:34:42Z</time>
      </trkpt>
      <trkpt lat="43.44415" lon="-0.83611">
        <ele>172.384</ele>
        <time>2021-04-27T15:35:02Z</time>
      </trkpt>
      <trkpt lat="43.4439" lon="-0.83601">
        <ele>172.222</ele>
        <time>2021-04-27T15:35:22Z</time>
      </trkpt>
      <trkpt lat="43.44368" lon="-0.83581">
        <ele>172.947</ele>
        <time>2021-04-27T15:35:42Z</time>
      </trkpt>
      <trkpt lat="43.44336" lon="-0.83534">
        <ele>173.297</ele>
        <time>2021-04-27T15:36:02Z</time>
      </trkpt>
      <trkpt lat="43.443" lon="-0.83543">
        <ele>170.823</ele>
        <time>2021-04-27T15:36:22Z</time>
      </trkpt>
      <trkpt lat="43.44275" lon="-0.83554">
        <ele>169.425</ele>
        <time>2021-04-27T15:36:42Z</time>
      </trkpt>
      <trkpt lat="43.4423" lon="-0.83586">
        <ele>166.808</ele>
        <time>2021-04-27T15:37:02Z</time>
      </trkpt>
      <trkpt lat="43.44203" lon="-0.83594">
        <ele>164.256</ele>
        <time>2021-04-27T15:37:22Z</time>
      </trkpt>
      <trkpt lat="43.44174" lon="-0.83639">
        <ele>163.24</ele>
        <time>2021-04-27T15:37:42Z</time>
      </trkpt>
      <trkpt lat="43.4413" lon="-0.8373">
        <ele>156.316</ele>
        <time>2021-04-27T15:38:02Z</time>
      </trkpt>
      <trkpt lat="43.4404" lon="-0.84041">
        <ele>137.559</ele>
        <time>2021-04-27T15:38:22Z</time>
      </trkpt>
      <trkpt lat="43.43826" lon="-0.84401">
        <ele>107.972</ele>
        <time>2021-04-27T15:38:42Z</time>
      </trkpt>
      <trkpt lat="43.43784" lon="-0.84493">
        <ele>97.054</ele>
        <time>2021-04-27T15:39:02Z</time>
      </trkpt>
      <trkpt lat="43.43739" lon="-0.84641">
        <ele>83.572</ele>
        <time>2021-04-27T15:39:22Z</time>
      </trkpt>
      <trkpt lat="43.43737" lon="-0.84667">
        <ele>81.827</ele>
        <time>2021-04-27T15:39:42Z</time>
      </trkpt>
      <trkpt lat="43.43742" lon="-0.84678">
        <ele>81.516</ele>
        <time>2021-04-27T15:40:02Z</time>
      </trkpt>
      <trkpt lat="43.43755" lon="-0.84693">
        <ele>81.176</ele>
        <time>2021-04-27T15:40:22Z</time>
      </trkpt>
      <trkpt lat="43.43708" lon="-0.84772">
        <ele>79.813</ele>
        <time>2021-04-27T15:40:42Z</time>
      </trkpt>
      <trkpt lat="43.43691" lon="-0.84807">
        <ele>80.708</ele>
        <time>2021-04-27T15:41:02Z</time>
      </trkpt>
      <trkpt lat="43.43644" lon="-0.84916">
        <ele>83.538</ele>
        <time>2021-04-27T15:41:22Z</time>
      </trkpt>
      <trkpt lat="43.43619" lon="-0.84901">
        <ele>83.692</ele>
        <time>2021-04-27T15:41:42Z</time>
      </trkpt>
      <trkpt lat="43.43599" lon="-0.84893">
        <ele>83.658</ele>
        <time>2021-04-27T15:42:02Z</time>
      </trkpt>
      <trkpt lat="43.43555" lon="-0.84886">
        <ele>87.061</ele>
        <time>2021-04-27T15:42:22Z</time>
      </trkpt>
      <trkpt lat="43.43526" lon="-0.84905">
        <ele>89.254</ele>
        <time>2021-04-27T15:42:42Z</time>
      </trkpt>
      <trkpt lat="43.43502" lon="-0.84931">
        <ele>89.526</ele>
        <time>2021-04-27T15:43:02Z</time>
      </trkpt>
      <trkpt lat="43.43526" lon="-0.85011">
        <ele>88.654</ele>
        <time>2021-04-27T15:43:22Z</time>
      </trkpt>
      <trkpt lat="43.43526" lon="-0.85051">
        <ele>90.999</ele>
        <time>2021-04-27T15:43:42Z</time>
      </trkpt>
      <trkpt lat="43.43501" lon="-0.85118">
        <ele>98.465</ele>
        <time>2021-04-27T15:44:02Z</time>
      </trkpt>
      <trkpt lat="43.43496" lon="-0.85156">
        <ele>104.268</ele>
        <time>2021-04-27T15:44:22Z</time>
      </trkpt>
      <trkpt lat="43.43496" lon="-0.85176">
        <ele>106.614</ele>
        <time>2021-04-27T15:44:42Z</time>
      </trkpt>
      <trkpt lat="43.43415" lon="-0.85605">
        <ele>138.508</ele>
        <time>2021-04-27T15:45:02Z</time>
      </trkpt>
      <trkpt lat="43.4341" lon="-0.85667">
        <ele>142.643</ele>
        <time>2021-04-27T15:45:22Z</time>
      </trkpt>
      <trkpt lat="43.43427" lon="-0.85734">
        <ele>145.827</ele>
        <time>2021-04-27T15:45:42Z</time>
      </trkpt>
      <trkpt lat="43.43465" lon="-0.85826">
        <ele>152.973</ele>
        <time>2021-04-27T15:46:02Z</time>
      </trkpt>
      <trkpt lat="43.4348" lon="-0.85852">
        <ele>155.776</ele>
        <time>2021-04-27T15:46:22Z</time>
      </trkpt>
      <trkpt lat="43.43519" lon="-0.85892">
        <ele>161.339</ele>
        <time>2021-04-27T15:46:42Z</time>
      </trkpt>
      <trkpt lat="43.43535" lon="-0.85905">
        <ele>163.321</ele>
        <time>2021-04-27T15:47:02Z</time>
      </trkpt>
      <trkpt lat="43.43552" lon="-0.85914">
        <ele>165.579</ele>
        <time>2021-04-27T15:47:22Z</time>
      </trkpt>
      <trkpt lat="43.43574" lon="-0.85987">
        <ele>171.064</ele>
        <time>2021-04-27T15:47:42Z</time>
      </trkpt>
      <trkpt lat="43.43579" lon="-0.86015">
        <ele>174.039</ele>
        <time>2021-04-27T15:48:02Z</time>
      </trkpt>
      <trkpt lat="43.43571" lon="-0.86204">
        <ele>182.701</ele>
        <time>2021-04-27T15:48:22Z</time>
      </trkpt>
      <trkpt lat="43.43557" lon="-0.86266">
        <ele>184.221</ele>
        <time>2021-04-27T15:48:42Z</time>
      </trkpt>
      <trkpt lat="43.4353" lon="-0.86352">
        <ele>186.008</ele>
        <time>2021-04-27T15:49:02Z</time>
      </trkpt>
      <trkpt lat="43.4351" lon="-0.86397">
        <ele>186.26</ele>
        <time>2021-04-27T15:49:22Z</time>
      </trkpt>
      <trkpt lat="43.4339" lon="-0.86598">
        <ele>191.264</ele>
        <time>2021-04-27T15:49:42Z</time>
      </trkpt>
      <trkpt lat="43.4337" lon="-0.86626">
        <ele>192.68</ele>
        <time>2021-04-27T15:50:02Z</time>
      </trkpt>
      <trkpt lat="43.43332" lon="-0.86656">
        <ele>197.163</ele>
        <time>2021-04-27T15:50:22Z</time>
      </trkpt>
      <trkpt lat="43.43311" lon="-0.86673">
        <ele>197.466</ele>
        <time>2021-04-27T15:50:42Z</time>
      </trkpt>
      <trkpt lat="43.43253" lon="-0.86693">
        <ele>195.158</ele>
        <time>2021-04-27T15:51:02Z</time>
      </trkpt>
      <trkpt lat="43.43225" lon="-0.86691">
        <ele>194.586</ele>
        <time>2021-04-27T15:51:22Z</time>
      </trkpt>
      <trkpt lat="43.43083" lon="-0.86695">
        <ele>190.331</ele>
        <time>2021-04-27T15:51:42Z</time>
      </trkpt>
      <trkpt lat="43.43078" lon="-0.86714">
        <ele>190.798</ele>
        <time>2021-04-27T15:52:02Z</time>
      </trkpt>
      <trkpt lat="43.43072" lon="-0.86723">
        <ele>191.115</ele>
        <time>2021-04-27T15:52:22Z</time>
      </trkpt>
      <trkpt lat="43.43036" lon="-0.86751">
        <ele>193.226</ele>
        <time>2021-04-27T15:52:42Z</time>
      </trkpt>
      <trkpt lat="43.42983" lon="-0.86819">
        <ele>195.508</ele>
        <time>2021-04-27T15:53:02Z</time>
      </trkpt>
      <trkpt lat="43.42974" lon="-0.86826">
        <ele>196.766</ele>
        <time>2021-04-27T15:53:22Z</time>
      </trkpt>
      <trkpt lat="43.42946" lon="-0.86837">
        <ele>200.53</ele>
        <time>2021-04-27T15:53:42Z</time>
      </trkpt>
      <trkpt lat="43.42771" lon="-0.86974">
        <ele>182.686</ele>
        <time>2021-04-27T15:54:02Z</time>
      </trkpt>
      <trkpt lat="43.42723" lon="-0.87015">
        <ele>175.129</ele>
        <time>2021-04-27T15:54:22Z</time>
      </trkpt>
      <trkpt lat="43.42698" lon="-0.87066">
        <ele>168.782</ele>
        <time>2021-04-27T15:54:42Z</time>
      </trkpt>
      <trkpt lat="43.42622" lon="-0.87191">
        <ele>158.294</ele>
        <time>2021-04-27T15:55:02Z</time>
      </trkpt>
      <trkpt lat="43.42581" lon="-0.87234">
        <ele>161.452</ele>
        <time>2021-04-27T15:55:22Z</time>
      </trkpt>
      <trkpt lat="43.42548" lon="-0.87253">
        <ele>167.377</ele>
        <time>2021-04-27T15:55:42Z</time>
      </trkpt>
      <trkpt lat="43.425" lon="-0.87294">
        <ele>174.926</ele>
        <time>2021-04-27T15:56:02Z</time>
      </trkpt>
      <trkpt lat="43.42446" lon="-0.87322">
        <ele>183.847</ele>
        <time>2021-04-27T15:56:22Z</time>
      </trkpt>
      <trkpt lat="43.4238" lon="-0.87362">
        <ele>195.011</ele>
        <time>2021-04-27T15:56:42Z</time>
      </trkpt>
      <trkpt lat="43.42351" lon="-0.87375">
        <ele>200.308</ele>
        <time>2021-04-27T15:57:02Z</time>
      </trkpt>
      <trkpt lat="43.42305" lon="-0.87377">
        <ele>204.399</ele>
        <time>2021-04-27T15:57:22Z</time>
      </trkpt>
      <trkpt lat="43.42288" lon="-0.87388">
        <ele>204.413</ele>
        <time>2021-04-27T15:57:42Z</time>
      </trkpt>
      <trkpt lat="43.42245" lon="-0.87459">
        <ele>203.079</ele>
        <time>2021-04-27T15:58:02Z</time>
      </trkpt>
      <trkpt lat="43.42165" lon="-0.87596">
        <ele>190.932</ele>
        <time>2021-04-27T15:58:22Z</time>
      </trkpt>
      <trkpt lat="43.42145" lon="-0.87615">
        <ele>189.715</ele>
        <time>2021-04-27T15:58:42Z</time>
      </trkpt>
      <trkpt lat="43.42129" lon="-0.87641">
        <ele>188.927</ele>
        <time>2021-04-27T15:59:02Z</time>
      </trkpt>
      <trkpt lat="43.42104" lon="-0.87703">
        <ele>186.045</ele>
        <time>2021-04-27T15:59:22Z</time>
      </trkpt>
      <trkpt lat="43.42079" lon="-0.8774">
        <ele>181.77</ele>
        <time>2021-04-27T15:59:42Z</time>
      </trkpt>
      <trkpt lat="43.41967" lon="-0.87854">
        <ele>173.571</ele>
        <time>2021-04-27T16:00:02Z</time>
      </trkpt>
      <trkpt lat="43.41911" lon="-0.87907">
        <ele>171.941</ele>
        <time>2021-04-27T16:00:22Z</time>
      </trkpt>
      <trkpt lat="43.41897" lon="-0.87924">
        <ele>170.315</ele>
        <time>2021-04-27T16:00:42Z</time>
      </trkpt>
      <trkpt lat="43.41832" lon="-0.88053">
        <ele>157.408</ele>
        <time>2021-04-27T16:01:02Z</time>
      </trkpt>
      <trkpt lat="43.41822" lon="-0.88064">
        <ele>155.924</ele>
        <time>2021-04-27T16:01:22Z</time>
      </trkpt>
      <trkpt lat="43.41766" lon="-0.88107">
        <ele>148.988</ele>
        <time>2021-04-27T16:01:42Z</time>
      </trkpt>
      <trkpt lat="43.41665" lon="-0.88193">
        <ele>140.524</ele>
        <time>2021-04-27T16:02:02Z</time>
      </trkpt>
      <trkpt lat="43.4166" lon="-0.88238">
        <ele>143.397</ele>
        <time>2021-04-27T16:02:22Z</time>
      </trkpt>
      <trkpt lat="43.41657" lon="-0.88298">
        <ele>145.68</ele>
        <time>2021-04-27T16:02:42Z</time>
      </trkpt>
      <trkpt lat="43.41632" lon="-0.88345">
        <ele>151.772</ele>
        <time>2021-04-27T16:03:02Z</time>
      </trkpt>
      <trkpt lat="43.41598" lon="-0.88427">
        <ele>161.15</ele>
        <time>2021-04-27T16:03:22Z</time>
      </trkpt>
      <trkpt lat="43.41545" lon="-0.8851">
        <ele>172.555</ele>
        <time>2021-04-27T16:03:42Z</time>
      </trkpt>
      <trkpt lat="43.415" lon="-0.88573">
        <ele>184.057</ele>
        <time>2021-04-27T16:04:02Z</time>
      </trkpt>
      <trkpt lat="43.41462" lon="-0.88605">
        <ele>191.3</ele>
        <time>2021-04-27T16:04:22Z</time>
      </trkpt>
      <trkpt lat="43.41436" lon="-0.88618">
        <ele>195.62</ele>
        <time>2021-04-27T16:04:42Z</time>
      </trkpt>
      <trkpt lat="43.41378" lon="-0.88624">
        <ele>201.008</ele>
        <time>2021-04-27T16:05:02Z</time>
      </trkpt>
      <trkpt lat="43.41334" lon="-0.88643">
        <ele>205.372</ele>
        <time>2021-04-27T16:05:22Z</time>
      </trkpt>
      <trkpt lat="43.41277" lon="-0.88718">
        <ele>210.746</ele>
        <time>2021-04-27T16:05:42Z</time>
      </trkpt>
      <trkpt lat="43.41263" lon="-0.88744">
        <ele>212.362</ele>
        <time>2021-04-27T16:06:02Z</time>
      </trkpt>
      <trkpt lat="43.41255" lon="-0.88789">
        <ele>213.775</ele>
        <time>2021-04-27T16:06:22Z</time>
      </trkpt>
      <trkpt lat="43.41253" lon="-0.88839">
        <ele>214.428</ele>
        <time>2021-04-27T16:06:42Z</time>
      </trkpt>
      <trkpt lat="43.41263" lon="-0.88873">
        <ele>212.93</ele>
        <time>2021-04-27T16:07:02Z</time>
      </trkpt>
      <trkpt lat="43.41272" lon="-0.88897">
        <ele>211.388</ele>
        <time>2021-04-27T16:07:22Z</time>
      </trkpt>
      <trkpt lat="43.41269" lon="-0.88929">
        <ele>210.953</ele>
        <time>2021-04-27T16:07:42Z</time>
      </trkpt>
      <trkpt lat="43.41266" lon="-0.88939">
        <ele>210.363</ele>
        <time>2021-04-27T16:08:02Z</time>
      </trkpt>
      <trkpt lat="43.41256" lon="-0.88952">
        <ele>210.844</ele>
        <time>2021-04-27T16:08:22Z</time>
      </trkpt>
      <trkpt lat="43.41224" lon="-0.88974">
        <ele>209.318</ele>
        <time>2021-04-27T16:08:42Z</time>
      </trkpt>
      <trkpt lat="43.412" lon="-0.89">
        <ele>207.008</ele>
        <time>2021-04-27T16:09:02Z</time>
      </trkpt>
      <trkpt lat="43.41163" lon="-0.89051">
        <ele>207.933</ele>
        <time>2021-04-27T16:09:22Z</time>
      </trkpt>
      <trkpt lat="43.41135" lon="-0.89152">
        <ele>209.977</ele>
        <time>2021-04-27T16:09:42Z</time>
      </trkpt>
      <trkpt lat="43.41132" lon="-0.8919">
        <ele>210.583</ele>
        <time>2021-04-27T16:10:02Z</time>
      </trkpt>
      <trkpt lat="43.41132" lon="-0.89257">
        <ele>210.616</ele>
        <time>2021-04-27T16:10:22Z</time>
      </trkpt>
      <trkpt lat="43.41135" lon="-0.89281">
        <ele>209.999</ele>
        <time>2021-04-27T16:10:42Z</time>
      </trkpt>
      <trkpt lat="43.41146" lon="-0.89336">
        <ele>208.081</ele>
        <time>2021-04-27T16:11:02Z</time>
      </trkpt>
      <trkpt lat="43.41161" lon="-0.89394">
        <ele>203.759</ele>
        <time>2021-04-27T16:11:22Z</time>
      </trkpt>
      <trkpt lat="43.41164" lon="-0.89461">
        <ele>198.144</ele>
        <time>2021-04-27T16:11:42Z</time>
      </trkpt>
      <trkpt lat="43.41113" lon="-0.89416">
        <ele>200.177</ele>
        <time>2021-04-27T16:12:02Z</time>
      </trkpt>
      <trkpt lat="43.4109" lon="-0.89414">
        <ele>199.561</ele>
        <time>2021-04-27T16:12:22Z</time>
      </trkpt>
      <trkpt lat="43.41063" lon="-0.89418">
        <ele>196.927</ele>
        <time>2021-04-27T16:12:42Z</time>
      </trkpt>
      <trkpt lat="43.41058" lon="-0.89427">
        <ele>195.408</ele>
        <time>2021-04-27T16:13:02Z</time>
      </trkpt>
      <trkpt lat="43.41032" lon="-0.8951">
        <ele>184.344</ele>
        <time>2021-04-27T16:13:22Z</time>
      </trkpt>
      <trkpt lat="43.41018" lon="-0.89536">
        <ele>181.968</ele>
        <time>2021-04-27T16:13:42Z</time>
      </trkpt>
      <trkpt lat="43.40923" lon="-0.8963">
        <ele>173.454</ele>
        <time>2021-04-27T16:14:02Z</time>
      </trkpt>
      <trkpt lat="43.40829" lon="-0.89716">
        <ele>171.057</ele>
        <time>2021-04-27T16:14:22Z</time>
      </trkpt>
      <trkpt lat="43.4079" lon="-0.89742">
        <ele>173.85</ele>
        <time>2021-04-27T16:14:42Z</time>
      </trkpt>
      <trkpt lat="43.40755" lon="-0.89757">
        <ele>177.522</ele>
        <time>2021-04-27T16:15:02Z</time>
      </trkpt>
      <trkpt lat="43.40642" lon="-0.89789">
        <ele>183.57</ele>
        <time>2021-04-27T16:15:22Z</time>
      </trkpt>
      <trkpt lat="43.4061" lon="-0.89806">
        <ele>182.775</ele>
        <time>2021-04-27T16:15:42Z</time>
      </trkpt>
      <trkpt lat="43.40535" lon="-0.89856">
        <ele>179.324</ele>
        <time>2021-04-27T16:16:02Z</time>
      </trkpt>
      <trkpt lat="43.40455" lon="-0.89881">
        <ele>173.204</ele>
        <time>2021-04-27T16:16:22Z</time>
      </trkpt>
      <trkpt lat="43.40421" lon="-0.89896">
        <ele>170.914</ele>
        <time>2021-04-27T16:16:42Z</time>
      </trkpt>
      <trkpt lat="43.40382" lon="-0.89926">
        <ele>173.108</ele>
        <time>2021-04-27T16:17:02Z</time>
      </trkpt>
      <trkpt lat="43.40326" lon="-0.90006">
        <ele>178.759</ele>
        <time>2021-04-27T16:17:22Z</time>
      </trkpt>
      <trkpt lat="43.40309" lon="-0.90017">
        <ele>178.553</ele>
        <time>2021-04-27T16:17:42Z</time>
      </trkpt>
      <trkpt lat="43.40215" lon="-0.90057">
        <ele>177.579</ele>
        <time>2021-04-27T16:18:02Z</time>
      </trkpt>
      <trkpt lat="43.40185" lon="-0.90075">
        <ele>176.952</ele>
        <time>2021-04-27T16:18:22Z</time>
      </trkpt>
      <trkpt lat="43.40137" lon="-0.90085">
        <ele>173.435</ele>
        <time>2021-04-27T16:18:42Z</time>
      </trkpt>
      <trkpt lat="43.40072" lon="-0.90087">
        <ele>166.167</ele>
        <time>2021-04-27T16:19:02Z</time>
      </trkpt>
      <trkpt lat="43.39947" lon="-0.90137">
        <ele>161.915</ele>
        <time>2021-04-27T16:19:22Z</time>
      </trkpt>
      <trkpt lat="43.39913" lon="-0.90143">
        <ele>162.84</ele>
        <time>2021-04-27T16:19:42Z</time>
      </trkpt>
      <trkpt lat="43.3983" lon="-0.9015">
        <ele>161.724</ele>
        <time>2021-04-27T16:20:02Z</time>
      </trkpt>
      <trkpt lat="43.39793" lon="-0.90124">
        <ele>156.904</ele>
        <time>2021-04-27T16:20:22Z</time>
      </trkpt>
      <trkpt lat="43.39726" lon="-0.90066">
        <ele>147.414</ele>
        <time>2021-04-27T16:20:42Z</time>
      </trkpt>
      <trkpt lat="43.39713" lon="-0.9006">
        <ele>145.408</ele>
        <time>2021-04-27T16:21:02Z</time>
      </trkpt>
      <trkpt lat="43.3969" lon="-0.90055">
        <ele>142.759</ele>
        <time>2021-04-27T16:21:22Z</time>
      </trkpt>
      <trkpt lat="43.39446" lon="-0.89864">
        <ele>113.253</ele>
        <time>2021-04-27T16:21:42Z</time>
      </trkpt>
      <trkpt lat="43.3932" lon="-0.8986">
        <ele>107.659</ele>
        <time>2021-04-27T16:22:02Z</time>
      </trkpt>
      <trkpt lat="43.39262" lon="-0.89888">
        <ele>102.662</ele>
        <time>2021-04-27T16:22:22Z</time>
      </trkpt>
      <trkpt lat="43.39255" lon="-0.89894">
        <ele>101.915</ele>
        <time>2021-04-27T16:22:42Z</time>
      </trkpt>
      <trkpt lat="43.39245" lon="-0.89916">
        <ele>101.467</ele>
        <time>2021-04-27T16:23:02Z</time>
      </trkpt>
      <trkpt lat="43.39231" lon="-0.89954">
        <ele>99.795</ele>
        <time>2021-04-27T16:23:22Z</time>
      </trkpt>
      <trkpt lat="43.39216" lon="-0.89987">
        <ele>97.57</ele>
        <time>2021-04-27T16:23:42Z</time>
      </trkpt>
      <trkpt lat="43.39206" lon="-0.89995">
        <ele>96.328</ele>
        <time>2021-04-27T16:24:02Z</time>
      </trkpt>
      <trkpt lat="43.39169" lon="-0.89997">
        <ele>91.389</ele>
        <time>2021-04-27T16:24:22Z</time>
      </trkpt>
      <trkpt lat="43.39158" lon="-0.90124">
        <ele>94.117</ele>
        <time>2021-04-27T16:24:42Z</time>
      </trkpt>
      <trkpt lat="43.39139" lon="-0.90281">
        <ele>94.908</ele>
        <time>2021-04-27T16:25:02Z</time>
      </trkpt>
      <trkpt lat="43.39132" lon="-0.90364">
        <ele>92.959</ele>
        <time>2021-04-27T16:25:22Z</time>
      </trkpt>
      <trkpt lat="43.39133" lon="-0.90424">
        <ele>94.173</ele>
        <time>2021-04-27T16:25:42Z</time>
      </trkpt>
      <trkpt lat="43.39156" lon="-0.90534">
        <ele>94.569</ele>
        <time>2021-04-27T16:26:02Z</time>
      </trkpt>
      <trkpt lat="43.39199" lon="-0.90686">
        <ele>90.982</ele>
        <time>2021-04-27T16:26:22Z</time>
      </trkpt>
      <trkpt lat="43.39242" lon="-0.90796">
        <ele>91.995</ele>
        <time>2021-04-27T16:26:42Z</time>
      </trkpt>
      <trkpt lat="43.39275" lon="-0.90853">
        <ele>90.787</ele>
        <time>2021-04-27T16:27:02Z</time>
      </trkpt>
      <trkpt lat="43.39326" lon="-0.90911">
        <ele>92.465</ele>
        <time>2021-04-27T16:27:22Z</time>
      </trkpt>
      <trkpt lat="43.39342" lon="-0.9095">
        <ele>90.79</ele>
        <time>2021-04-27T16:27:42Z</time>
      </trkpt>
      <trkpt lat="43.39362" lon="-0.90991">
        <ele>87.949</ele>
        <time>2021-04-27T16:28:02Z</time>
      </trkpt>
      <trkpt lat="43.39398" lon="-0.91023">
        <ele>86.602</ele>
        <time>2021-04-27T16:28:22Z</time>
      </trkpt>
      <trkpt lat="43.39436" lon="-0.91049">
        <ele>86.522</ele>
        <time>2021-04-27T16:28:42Z</time>
      </trkpt>
      <trkpt lat="43.39446" lon="-0.91062">
        <ele>86.308</ele>
        <time>2021-04-27T16:29:02Z</time>
      </trkpt>
      <trkpt lat="43.39453" lon="-0.91083">
        <ele>85.641</ele>
        <time>2021-04-27T16:29:22Z</time>
      </trkpt>
      <trkpt lat="43.39453" lon="-0.91107">
        <ele>86.095</ele>
        <time>2021-04-27T16:29:42Z</time>
      </trkpt>
      <trkpt lat="43.39448" lon="-0.91139">
        <ele>86.281</ele>
        <time>2021-04-27T16:30:02Z</time>
      </trkpt>
      <trkpt lat="43.39407" lon="-0.91169">
        <ele>82.714</ele>
        <time>2021-04-27T16:30:22Z</time>
      </trkpt>
      <trkpt lat="43.39403" lon="-0.91184">
        <ele>81.867</ele>
        <time>2021-04-27T16:30:42Z</time>
      </trkpt>
      <trkpt lat="43.39407" lon="-0.91205">
        <ele>82.179</ele>
        <time>2021-04-27T16:31:02Z</time>
      </trkpt>
      <trkpt lat="43.39422" lon="-0.91242">
        <ele>83.737</ele>
        <time>2021-04-27T16:31:22Z</time>
      </trkpt>
      <trkpt lat="43.39434" lon="-0.91287">
        <ele>83.362</ele>
        <time>2021-04-27T16:31:42Z</time>
      </trkpt>
      <trkpt lat="43.39442" lon="-0.91351">
        <ele>81.653</ele>
        <time>2021-04-27T16:32:02Z</time>
      </trkpt>
      <trkpt lat="43.39443" lon="-0.91482">
        <ele>80.304</ele>
        <time>2021-04-27T16:32:22Z</time>
      </trkpt>
      <trkpt lat="43.39437" lon="-0.91607">
        <ele>84.514</ele>
        <time>2021-04-27T16:32:42Z</time>
      </trkpt>
      <trkpt lat="43.39403" lon="-0.91765">
        <ele>82.908</ele>
        <time>2021-04-27T16:33:02Z</time>
      </trkpt>
      <trkpt lat="43.39401" lon="-0.91847">
        <ele>83.172</ele>
        <time>2021-04-27T16:33:22Z</time>
      </trkpt>
      <trkpt lat="43.39409" lon="-0.91881">
        <ele>82.696</ele>
        <time>2021-04-27T16:33:42Z</time>
      </trkpt>
      <trkpt lat="43.39478" lon="-0.92124">
        <ele>82.062</ele>
        <time>2021-04-27T16:34:02Z</time>
      </trkpt>
      <trkpt lat="43.39482" lon="-0.92158">
        <ele>82.085</ele>
        <time>2021-04-27T16:34:22Z</time>
      </trkpt>
      <trkpt lat="43.39485" lon="-0.9222">
        <ele>82.028</ele>
        <time>2021-04-27T16:34:42Z</time>
      </trkpt>
      <trkpt lat="43.3949" lon="-0.92246">
        <ele>82.38</ele>
        <time>2021-04-27T16:35:02Z</time>
      </trkpt>
      <trkpt lat="43.39446" lon="-0.92272">
        <ele>79.318</ele>
        <time>2021-04-27T16:35:22Z</time>
      </trkpt>
      <trkpt lat="43.39406" lon="-0.9228">
        <ele>77.243</ele>
        <time>2021-04-27T16:35:42Z</time>
      </trkpt>
      <trkpt lat="43.394" lon="-0.92293">
        <ele>77.276</ele>
        <time>2021-04-27T16:36:02Z</time>
      </trkpt>
      <trkpt lat="43.39397" lon="-0.92424">
        <ele>76.79</ele>
        <time>2021-04-27T16:36:22Z</time>
      </trkpt>
      <trkpt lat="43.39384" lon="-0.92446">
        <ele>76.419</ele>
        <time>2021-04-27T16:36:42Z</time>
      </trkpt>
      <trkpt lat="43.3937" lon="-0.92484">
        <ele>76.108</ele>
        <time>2021-04-27T16:37:02Z</time>
      </trkpt>
      <trkpt lat="43.39284" lon="-0.92634">
        <ele>68.854</ele>
        <time>2021-04-27T16:37:22Z</time>
      </trkpt>
      <trkpt lat="43.39284" lon="-0.92735">
        <ele>64.238</ele>
        <time>2021-04-27T16:37:42Z</time>
      </trkpt>
      <trkpt lat="43.39298" lon="-0.92772">
        <ele>64.724</ele>
        <time>2021-04-27T16:38:02Z</time>
      </trkpt>
      <trkpt lat="43.39306" lon="-0.928">
        <ele>64.887</ele>
        <time>2021-04-27T16:38:22Z</time>
      </trkpt>
      <trkpt lat="43.39308" lon="-0.92834">
        <ele>63.92</ele>
        <time>2021-04-27T16:38:42Z</time>
      </trkpt>
      <trkpt lat="43.39308" lon="-0.92868">
        <ele>63.582</ele>
        <time>2021-04-27T16:39:02Z</time>
      </trkpt>
      <trkpt lat="43.39305" lon="-0.92883">
        <ele>63.06</ele>
        <time>2021-04-27T16:39:22Z</time>
      </trkpt>
      <trkpt lat="43.39292" lon="-0.92916">
        <ele>61.595</ele>
        <time>2021-04-27T16:39:42Z</time>
      </trkpt>
      <trkpt lat="43.39292" lon="-0.92922">
        <ele>61.316</ele>
        <time>2021-04-27T16:40:02Z</time>
      </trkpt>
      <trkpt lat="43.39305" lon="-0.92967">
        <ele>60.276</ele>
        <time>2021-04-27T16:40:22Z</time>
      </trkpt>
      <trkpt lat="43.39393" lon="-0.93128">
        <ele>58.613</ele>
        <time>2021-04-27T16:40:42Z</time>
      </trkpt>
      <trkpt lat="43.39465" lon="-0.933">
        <ele>55.808</ele>
        <time>2021-04-27T16:41:02Z</time>
      </trkpt>
      <trkpt lat="43.39517" lon="-0.93377">
        <ele>55.938</ele>
        <time>2021-04-27T16:41:22Z</time>
      </trkpt>
      <trkpt lat="43.39526" lon="-0.93385">
        <ele>56.262</ele>
        <time>2021-04-27T16:41:42Z</time>
      </trkpt>
      <trkpt lat="43.3957" lon="-0.93362">
        <ele>59.448</ele>
        <time>2021-04-27T16:42:02Z</time>
      </trkpt>
      <trkpt lat="43.39585" lon="-0.9336">
        <ele>60.761</ele>
        <time>2021-04-27T16:42:22Z</time>
      </trkpt>
      <trkpt lat="43.39582" lon="-0.93379">
        <ele>59.244</ele>
        <time>2021-04-27T16:42:42Z</time>
      </trkpt>
      <trkpt lat="43.39595" lon="-0.93439">
        <ele>58.356</ele>
        <time>2021-04-27T16:43:02Z</time>
      </trkpt>
      <trkpt lat="43.3963" lon="-0.93518">
        <ele>59.194</ele>
        <time>2021-04-27T16:43:22Z</time>
      </trkpt>
      <trkpt lat="43.39665" lon="-0.93621">
        <ele>56.579</ele>
        <time>2021-04-27T16:43:42Z</time>
      </trkpt>
      <trkpt lat="43.39702" lon="-0.93712">
        <ele>58.353</ele>
        <time>2021-04-27T16:44:02Z</time>
      </trkpt>
      <trkpt lat="43.39727" lon="-0.93791">
        <ele>56.804</ele>
        <time>2021-04-27T16:44:22Z</time>
      </trkpt>
      <trkpt lat="43.3976" lon="-0.93827">
        <ele>57.414</ele>
        <time>2021-04-27T16:44:42Z</time>
      </trkpt>
      <trkpt lat="43.39779" lon="-0.93866">
        <ele>62.808</ele>
        <time>2021-04-27T16:45:02Z</time>
      </trkpt>
      <trkpt lat="43.398" lon="-0.93911">
        <ele>70.632</ele>
        <time>2021-04-27T16:45:22Z</time>
      </trkpt>
      <trkpt lat="43.39808" lon="-0.93958">
        <ele>77.186</ele>
        <time>2021-04-27T16:45:42Z</time>
      </trkpt>
      <trkpt lat="43.39821" lon="-0.93971">
        <ele>81.732</ele>
        <time>2021-04-27T16:46:02Z</time>
      </trkpt>
      <trkpt lat="43.39836" lon="-0.93961">
        <ele>84.425</ele>
        <time>2021-04-27T16:46:22Z</time>
      </trkpt>
      <trkpt lat="43.3986" lon="-0.93984">
        <ele>87.368</ele>
        <time>2021-04-27T16:46:42Z</time>
      </trkpt>
      <trkpt lat="43.39839" lon="-0.94044">
        <ele>89.06</ele>
        <time>2021-04-27T16:47:02Z</time>
      </trkpt>
      <trkpt lat="43.39818" lon="-0.94154">
        <ele>86.368</ele>
        <time>2021-04-27T16:47:22Z</time>
      </trkpt>
      <trkpt lat="43.3976" lon="-0.94156">
        <ele>81.963</ele>
        <time>2021-04-27T16:47:42Z</time>
      </trkpt>
      <trkpt lat="43.39726" lon="-0.94179">
        <ele>76.621</ele>
        <time>2021-04-27T16:48:02Z</time>
      </trkpt>
      <trkpt lat="43.39651" lon="-0.94203">
        <ele>62.841</ele>
        <time>2021-04-27T16:48:22Z</time>
      </trkpt>
      <trkpt lat="43.39662" lon="-0.94156">
        <ele>62.405</ele>
        <time>2021-04-27T16:48:42Z</time>
      </trkpt>
      <trkpt lat="43.39683" lon="-0.941">
        <ele>62.208</ele>
        <time>2021-04-27T16:49:02Z</time>
      </trkpt>
      <trkpt lat="43.39659" lon="-0.94113">
        <ele>58.869</ele>
        <time>2021-04-27T16:49:22Z</time>
      </trkpt>
      <trkpt lat="43.39629" lon="-0.94119">
        <ele>56.623</ele>
        <time>2021-04-27T16:49:42Z</time>
      </trkpt>
      <trkpt lat="43.39599" lon="-0.94132">
        <ele>54.139</ele>
        <time>2021-04-27T16:50:02Z</time>
      </trkpt>
      <trkpt lat="43.39574" lon="-0.9416">
        <ele>52.262</ele>
        <time>2021-04-27T16:50:22Z</time>
      </trkpt>
      <trkpt lat="43.39537" lon="-0.94248">
        <ele>53.025</ele>
        <time>2021-04-27T16:50:42Z</time>
      </trkpt>
      <trkpt lat="43.39523" lon="-0.94302">
        <ele>52.137</ele>
        <time>2021-04-27T16:51:02Z</time>
      </trkpt>
      <trkpt lat="43.39518" lon="-0.94394">
        <ele>51.625</ele>
        <time>2021-04-27T16:51:22Z</time>
      </trkpt>
      <trkpt lat="43.39507" lon="-0.94424">
        <ele>51.49</ele>
        <time>2021-04-27T16:51:42Z</time>
      </trkpt>
      <trkpt lat="43.39574" lon="-0.94467">
        <ele>55.935</ele>
        <time>2021-04-27T16:52:02Z</time>
      </trkpt>
      <trkpt lat="43.39591" lon="-0.94493">
        <ele>58.586</ele>
        <time>2021-04-27T16:52:22Z</time>
      </trkpt>
      <trkpt lat="43.39584" lon="-0.94508">
        <ele>57.914</ele>
        <time>2021-04-27T16:52:42Z</time>
      </trkpt>
      <trkpt lat="43.39562" lon="-0.94521">
        <ele>56.208</ele>
        <time>2021-04-27T16:53:02Z</time>
      </trkpt>
      <trkpt lat="43.39487" lon="-0.94482">
        <ele>51.78</ele>
        <time>2021-04-27T16:53:22Z</time>
      </trkpt>
      <trkpt lat="43.39412" lon="-0.94454">
        <ele>52.884</ele>
        <time>2021-04-27T16:53:42Z</time>
      </trkpt>
      <trkpt lat="43.39359" lon="-0.94424">
        <ele>60.08</ele>
        <time>2021-04-27T16:54:02Z</time>
      </trkpt>
      <trkpt lat="43.39208" lon="-0.94289">
        <ele>68.813</ele>
        <time>2021-04-27T16:54:22Z</time>
      </trkpt>
      <trkpt lat="43.39197" lon="-0.94285">
        <ele>69.236</ele>
        <time>2021-04-27T16:54:42Z</time>
      </trkpt>
      <trkpt lat="43.39166" lon="-0.94282">
        <ele>70.458</ele>
        <time>2021-04-27T16:55:02Z</time>
      </trkpt>
      <trkpt lat="43.39086" lon="-0.943">
        <ele>71.226</ele>
        <time>2021-04-27T16:55:22Z</time>
      </trkpt>
      <trkpt lat="43.39035" lon="-0.94315">
        <ele>71.021</ele>
        <time>2021-04-27T16:55:42Z</time>
      </trkpt>
      <trkpt lat="43.38988" lon="-0.94342">
        <ele>70.871</ele>
        <time>2021-04-27T16:56:02Z</time>
      </trkpt>
      <trkpt lat="43.38965" lon="-0.94357">
        <ele>70.741</ele>
        <time>2021-04-27T16:56:22Z</time>
      </trkpt>
      <trkpt lat="43.38963" lon="-0.94366">
        <ele>70.615</ele>
        <time>2021-04-27T16:56:42Z</time>
      </trkpt>
      <trkpt lat="43.38954" lon="-0.94381">
        <ele>70.508</ele>
        <time>2021-04-27T16:57:02Z</time>
      </trkpt>
      <trkpt lat="43.38943" lon="-0.94383">
        <ele>70.664</ele>
        <time>2021-04-27T16:57:22Z</time>
      </trkpt>
      <trkpt lat="43.38919" lon="-0.94415">
        <ele>70.948</ele>
        <time>2021-04-27T16:57:42Z</time>
      </trkpt>
      <trkpt lat="43.38894" lon="-0.94426">
        <ele>71.674</ele>
        <time>2021-04-27T16:58:02Z</time>
      </trkpt>
      <trkpt lat="43.38712" lon="-0.94546">
        <ele>71.277</ele>
        <time>2021-04-27T16:58:22Z</time>
      </trkpt>
      <trkpt lat="43.38647" lon="-0.94594">
        <ele>72.48</ele>
        <time>2021-04-27T16:58:42Z</time>
      </trkpt>
      <trkpt lat="43.3857" lon="-0.94666">
        <ele>71.342</ele>
        <time>2021-04-27T16:59:02Z</time>
      </trkpt>
      <trkpt lat="43.3847" lon="-0.94789">
        <ele>70.01</ele>
        <time>2021-04-27T16:59:22Z</time>
      </trkpt>
      <trkpt lat="43.3845" lon="-0.94802">
        <ele>70.495</ele>
        <time>2021-04-27T16:59:42Z</time>
      </trkpt>
      <trkpt lat="43.38377" lon="-0.94832">
        <ele>71.513</ele>
        <time>2021-04-27T17:00:02Z</time>
      </trkpt>
      <trkpt lat="43.38293" lon="-0.94894">
        <ele>69.643</ele>
        <time>2021-04-27T17:00:22Z</time>
      </trkpt>
      <trkpt lat="43.38289" lon="-0.94911">
        <ele>69.107</ele>
        <time>2021-04-27T17:00:42Z</time>
      </trkpt>
      <trkpt lat="43.38271" lon="-0.94956">
        <ele>68.708</ele>
        <time>2021-04-27T17:01:02Z</time>
      </trkpt>
      <trkpt lat="43.38247" lon="-0.94975">
        <ele>68.448</ele>
        <time>2021-04-27T17:01:22Z</time>
      </trkpt>
      <trkpt lat="43.38241" lon="-0.94978">
        <ele>67.762</ele>
        <time>2021-04-27T17:01:42Z</time>
      </trkpt>
      <trkpt lat="43.38229" lon="-0.94941">
        <ele>66.128</ele>
        <time>2021-04-27T17:02:02Z</time>
      </trkpt>
      <trkpt lat="43.38183" lon="-0.94963">
        <ele>61.331</ele>
        <time>2021-04-27T17:02:22Z</time>
      </trkpt>
      <trkpt lat="43.38143" lon="-0.94967">
        <ele>57.974</ele>
        <time>2021-04-27T17:02:42Z</time>
      </trkpt>
      <trkpt lat="43.38141" lon="-0.9495">
        <ele>57.996</ele>
        <time>2021-04-27T17:03:02Z</time>
      </trkpt>
      <trkpt lat="43.38137" lon="-0.94943">
        <ele>57.684</ele>
        <time>2021-04-27T17:03:22Z</time>
      </trkpt>
      <trkpt lat="43.3807" lon="-0.94909">
        <ele>54.229</ele>
        <time>2021-04-27T17:03:42Z</time>
      </trkpt>
      <trkpt lat="43.3806" lon="-0.94909">
        <ele>54.295</ele>
        <time>2021-04-27T17:04:02Z</time>
      </trkpt>
      <trkpt lat="43.38051" lon="-0.94913">
        <ele>54.149</ele>
        <time>2021-04-27T17:04:22Z</time>
      </trkpt>
      <trkpt lat="43.38029" lon="-0.94952">
        <ele>54.623</ele>
        <time>2021-04-27T17:04:42Z</time>
      </trkpt>
      <trkpt lat="43.38021" lon="-0.94971">
        <ele>55.008</ele>
        <time>2021-04-27T17:05:02Z</time>
      </trkpt>
      <trkpt lat="43.37963" lon="-0.94965">
        <ele>53.816</ele>
        <time>2021-04-27T17:05:22Z</time>
      </trkpt>
      <trkpt lat="43.37918" lon="-0.94945">
        <ele>51.72</ele>
        <time>2021-04-27T17:05:42Z</time>
      </trkpt>
      <trkpt lat="43.37878" lon="-0.94922">
        <ele>55.486</ele>
        <time>2021-04-27T17:06:02Z</time>
      </trkpt>
      <trkpt lat="43.37864" lon="-0.94939">
        <ele>57.449</ele>
        <time>2021-04-27T17:06:22Z</time>
      </trkpt>
      <trkpt lat="43.37859" lon="-0.94956">
        <ele>58.552</ele>
        <time>2021-04-27T17:06:42Z</time>
      </trkpt>
      <trkpt lat="43.37859" lon="-0.94982">
        <ele>59.324</ele>
        <time>2021-04-27T17:07:02Z</time>
      </trkpt>
      <trkpt lat="43.37822" lon="-0.95063">
        <ele>64.362</ele>
        <time>2021-04-27T17:07:22Z</time>
      </trkpt>
      <trkpt lat="43.37814" lon="-0.95109">
        <ele>64.327</ele>
        <time>2021-04-27T17:07:42Z</time>
      </trkpt>
      <trkpt lat="43.37806" lon="-0.95212">
        <ele>64.465</ele>
        <time>2021-04-27T17:08:02Z</time>
      </trkpt>
      <trkpt lat="43.37806" lon="-0.95272">
        <ele>65.668</ele>
        <time>2021-04-27T17:08:22Z</time>
      </trkpt>
      <trkpt lat="43.37801" lon="-0.95297">
        <ele>66.314</ele>
        <time>2021-04-27T17:08:42Z</time>
      </trkpt>
      <trkpt lat="43.37848" lon="-0.95379">
        <ele>63.108</ele>
        <time>2021-04-27T17:09:02Z</time>
      </trkpt>
      <trkpt lat="43.37851" lon="-0.95394">
        <ele>63.193</ele>
        <time>2021-04-27T17:09:22Z</time>
      </trkpt>
      <trkpt lat="43.37851" lon="-0.95437">
        <ele>63.797</ele>
        <time>2021-04-27T17:09:42Z</time>
      </trkpt>
      <trkpt lat="43.37843" lon="-0.95505">
        <ele>63.383</ele>
        <time>2021-04-27T17:10:02Z</time>
      </trkpt>
      <trkpt lat="43.37839" lon="-0.95516">
        <ele>62.696</ele>
        <time>2021-04-27T17:10:22Z</time>
      </trkpt>
      <trkpt lat="43.3779" lon="-0.95572">
        <ele>58.519</ele>
        <time>2021-04-27T17:10:42Z</time>
      </trkpt>
      <trkpt lat="43.37787" lon="-0.95585">
        <ele>57.661</ele>
        <time>2021-04-27T17:11:02Z</time>
      </trkpt>
      <trkpt lat="43.37786" lon="-0.95604">
        <ele>58.579</ele>
        <time>2021-04-27T17:11:22Z</time>
      </trkpt>
      <trkpt lat="43.37797" lon="-0.95634">
        <ele>60.034</ele>
        <time>2021-04-27T17:11:42Z</time>
      </trkpt>
      <trkpt lat="43.3782" lon="-0.95735">
        <ele>67.255</ele>
        <time>2021-04-27T17:12:02Z</time>
      </trkpt>
      <trkpt lat="43.37828" lon="-0.95754">
        <ele>68.907</ele>
        <time>2021-04-27T17:12:22Z</time>
      </trkpt>
      <trkpt lat="43.37868" lon="-0.95812">
        <ele>70.917</ele>
        <time>2021-04-27T17:12:42Z</time>
      </trkpt>
      <trkpt lat="43.37886" lon="-0.95842">
        <ele>71.108</ele>
        <time>2021-04-27T17:13:02Z</time>
      </trkpt>
      <trkpt lat="43.37861" lon="-0.95851">
        <ele>71.042</ele>
        <time>2021-04-27T17:13:22Z</time>
      </trkpt>
      <trkpt lat="43.37845" lon="-0.95864">
        <ele>70.586</ele>
        <time>2021-04-27T17:13:42Z</time>
      </trkpt>
      <trkpt lat="43.37825" lon="-0.95892">
        <ele>69.162</ele>
        <time>2021-04-27T17:14:02Z</time>
      </trkpt>
      <trkpt lat="43.37804" lon="-0.95924">
        <ele>68.025</ele>
        <time>2021-04-27T17:14:22Z</time>
      </trkpt>
      <trkpt lat="43.37786" lon="-0.95965">
        <ele>67.738</ele>
        <time>2021-04-27T17:14:42Z</time>
      </trkpt>
      <trkpt lat="43.3777" lon="-0.96008">
        <ele>67.31</ele>
        <time>2021-04-27T17:15:02Z</time>
      </trkpt>
      <trkpt lat="43.37762" lon="-0.96046">
        <ele>67.758</ele>
        <time>2021-04-27T17:15:22Z</time>
      </trkpt>
      <trkpt lat="43.37786" lon="-0.96076">
        <ele>68.353</ele>
        <time>2021-04-27T17:15:42Z</time>
      </trkpt>
      <trkpt lat="43.37789" lon="-0.96091">
        <ele>68.629</ele>
        <time>2021-04-27T17:16:02Z</time>
      </trkpt>
      <trkpt lat="43.37787" lon="-0.96104">
        <ele>68.7</ele>
        <time>2021-04-27T17:16:22Z</time>
      </trkpt>
      <trkpt lat="43.37755" lon="-0.96235">
        <ele>69.82</ele>
        <time>2021-04-27T17:16:42Z</time>
      </trkpt>
      <trkpt lat="43.37742" lon="-0.96432">
        <ele>79.608</ele>
        <time>2021-04-27T17:17:02Z</time>
      </trkpt>
      <trkpt lat="43.37708" lon="-0.96548">
        <ele>92.079</ele>
        <time>2021-04-27T17:17:22Z</time>
      </trkpt>
      <trkpt lat="43.37678" lon="-0.96636">
        <ele>93.443</ele>
        <time>2021-04-27T17:17:42Z</time>
      </trkpt>
      <trkpt lat="43.37672" lon="-0.96737">
        <ele>94.619</ele>
        <time>2021-04-27T17:18:02Z</time>
      </trkpt>
      <trkpt lat="43.37664" lon="-0.96797">
        <ele>99.192</ele>
        <time>2021-04-27T17:18:22Z</time>
      </trkpt>
      <trkpt lat="43.37623" lon="-0.96892">
        <ele>105.235</ele>
        <time>2021-04-27T17:18:42Z</time>
      </trkpt>
      <trkpt lat="43.37611" lon="-0.96935">
        <ele>106.797</ele>
        <time>2021-04-27T17:19:02Z</time>
      </trkpt>
      <trkpt lat="43.37603" lon="-0.96969">
        <ele>108.425</ele>
        <time>2021-04-27T17:19:22Z</time>
      </trkpt>
      <trkpt lat="43.37614" lon="-0.97029">
        <ele>117.37</ele>
        <time>2021-04-27T17:19:42Z</time>
      </trkpt>
      <trkpt lat="43.37623" lon="-0.97055">
        <ele>122.639</ele>
        <time>2021-04-27T17:20:02Z</time>
      </trkpt>
      <trkpt lat="43.37634" lon="-0.97074">
        <ele>127.301</ele>
        <time>2021-04-27T17:20:22Z</time>
      </trkpt>
      <trkpt lat="43.37613" lon="-0.97121">
        <ele>128.621</ele>
        <time>2021-04-27T17:20:42Z</time>
      </trkpt>
      <trkpt lat="43.37586" lon="-0.97136">
        <ele>126.608</ele>
        <time>2021-04-27T17:21:02Z</time>
      </trkpt>
      <trkpt lat="43.37572" lon="-0.97164">
        <ele>131.15</ele>
        <time>2021-04-27T17:21:22Z</time>
      </trkpt>
      <trkpt lat="43.37516" lon="-0.97211">
        <ele>138.164</ele>
        <time>2021-04-27T17:21:42Z</time>
      </trkpt>
      <trkpt lat="43.37507" lon="-0.97224">
        <ele>139.25</ele>
        <time>2021-04-27T17:22:02Z</time>
      </trkpt>
      <trkpt lat="43.375" lon="-0.97244">
        <ele>140.543</ele>
        <time>2021-04-27T17:22:22Z</time>
      </trkpt>
      <trkpt lat="43.3751" lon="-0.97265">
        <ele>140.626</ele>
        <time>2021-04-27T17:22:42Z</time>
      </trkpt>
      <trkpt lat="43.37553" lon="-0.97336">
        <ele>141.428</ele>
        <time>2021-04-27T17:23:02Z</time>
      </trkpt>
      <trkpt lat="43.37555" lon="-0.97351">
        <ele>141.076</ele>
        <time>2021-04-27T17:23:22Z</time>
      </trkpt>
      <trkpt lat="43.37546" lon="-0.97379">
        <ele>139.281</ele>
        <time>2021-04-27T17:23:42Z</time>
      </trkpt>
      <trkpt lat="43.37533" lon="-0.97428">
        <ele>136.483</ele>
        <time>2021-04-27T17:24:02Z</time>
      </trkpt>
      <trkpt lat="43.37524" lon="-0.9745">
        <ele>134.925</ele>
        <time>2021-04-27T17:24:22Z</time>
      </trkpt>
      <trkpt lat="43.37508" lon="-0.97499">
        <ele>131.817</ele>
        <time>2021-04-27T17:24:42Z</time>
      </trkpt>
      <trkpt lat="43.37477" lon="-0.97538">
        <ele>132.408</ele>
        <time>2021-04-27T17:25:02Z</time>
      </trkpt>
      <trkpt lat="43.37471" lon="-0.97563">
        <ele>132.125</ele>
        <time>2021-04-27T17:25:22Z</time>
      </trkpt>
      <trkpt lat="43.37471" lon="-0.97613">
        <ele>129.519</ele>
        <time>2021-04-27T17:25:42Z</time>
      </trkpt>
      <trkpt lat="43.37466" lon="-0.97643">
        <ele>127.725</ele>
        <time>2021-04-27T17:26:02Z</time>
      </trkpt>
      <trkpt lat="43.37461" lon="-0.97656">
        <ele>126.818</ele>
        <time>2021-04-27T17:26:22Z</time>
      </trkpt>
      <trkpt lat="43.3743" lon="-0.97692">
        <ele>125.971</ele>
        <time>2021-04-27T17:26:42Z</time>
      </trkpt>
      <trkpt lat="43.37377" lon="-0.97746">
        <ele>127.163</ele>
        <time>2021-04-27T17:27:02Z</time>
      </trkpt>
      <trkpt lat="43.3736" lon="-0.97767">
        <ele>126.571</ele>
        <time>2021-04-27T17:27:22Z</time>
      </trkpt>
      <trkpt lat="43.37351" lon="-0.97784">
        <ele>125.516</ele>
        <time>2021-04-27T17:27:42Z</time>
      </trkpt>
      <trkpt lat="43.37344" lon="-0.97806">
        <ele>123.744</ele>
        <time>2021-04-27T17:28:02Z</time>
      </trkpt>
      <trkpt lat="43.37343" lon="-0.9784">
        <ele>121.305</ele>
        <time>2021-04-27T17:28:22Z</time>
      </trkpt>
      <trkpt lat="43.37316" lon="-0.97859">
        <ele>121.815</ele>
        <time>2021-04-27T17:28:42Z</time>
      </trkpt>
      <trkpt lat="43.3729" lon="-0.97894">
        <ele>121.008</ele>
        <time>2021-04-27T17:29:02Z</time>
      </trkpt>
      <trkpt lat="43.37249" lon="-0.9795">
        <ele>118.721</ele>
        <time>2021-04-27T17:29:22Z</time>
      </trkpt>
      <trkpt lat="43.37216" lon="-0.9801">
        <ele>117.895</ele>
        <time>2021-04-27T17:29:42Z</time>
      </trkpt>
      <trkpt lat="43.37193" lon="-0.9804">
        <ele>116.921</ele>
        <time>2021-04-27T17:30:02Z</time>
      </trkpt>
      <trkpt lat="43.37171" lon="-0.98065">
        <ele>114.354</ele>
        <time>2021-04-27T17:30:22Z</time>
      </trkpt>
      <trkpt lat="43.37137" lon="-0.98095">
        <ele>115.567</ele>
        <time>2021-04-27T17:30:42Z</time>
      </trkpt>
      <trkpt lat="43.37025" lon="-0.98175">
        <ele>117.039</ele>
        <time>2021-04-27T17:31:02Z</time>
      </trkpt>
      <trkpt lat="43.36987" lon="-0.98181">
        <ele>115.347</ele>
        <time>2021-04-27T17:31:22Z</time>
      </trkpt>
      <trkpt lat="43.3694" lon="-0.98218">
        <ele>113.572</ele>
        <time>2021-04-27T17:31:42Z</time>
      </trkpt>
      <trkpt lat="43.36879" lon="-0.98237">
        <ele>108.668</ele>
        <time>2021-04-27T17:32:02Z</time>
      </trkpt>
      <trkpt lat="43.36828" lon="-0.98228">
        <ele>109.342</ele>
        <time>2021-04-27T17:32:22Z</time>
      </trkpt>
      <trkpt lat="43.368" lon="-0.98231">
        <ele>108.426</ele>
        <time>2021-04-27T17:32:42Z</time>
      </trkpt>
      <trkpt lat="43.36723" lon="-0.98267">
        <ele>107.008</ele>
        <time>2021-04-27T17:33:02Z</time>
      </trkpt>
      <trkpt lat="43.36666" lon="-0.98306">
        <ele>106.363</ele>
        <time>2021-04-27T17:33:22Z</time>
      </trkpt>
      <trkpt lat="43.36641" lon="-0.98338">
        <ele>104.847</ele>
        <time>2021-04-27T17:33:42Z</time>
      </trkpt>
      <trkpt lat="43.3663" lon="-0.98355">
        <ele>105.733</ele>
        <time>2021-04-27T17:34:02Z</time>
      </trkpt>
      <trkpt lat="43.3661" lon="-0.98396">
        <ele>106.056</ele>
        <time>2021-04-27T17:34:22Z</time>
      </trkpt>
      <trkpt lat="43.36583" lon="-0.98424">
        <ele>102.749</ele>
        <time>2021-04-27T17:34:42Z</time>
      </trkpt>
      <trkpt lat="43.36578" lon="-0.98434">
        <ele>103.911</ele>
        <time>2021-04-27T17:35:02Z</time>
      </trkpt>
      <trkpt lat="43.36569" lon="-0.9848">
        <ele>107.179</ele>
        <time>2021-04-27T17:35:22Z</time>
      </trkpt>
      <trkpt lat="43.36552" lon="-0.98503">
        <ele>107.034</ele>
        <time>2021-04-27T17:35:42Z</time>
      </trkpt>
      <trkpt lat="43.36494" lon="-0.98531">
        <ele>104.363</ele>
        <time>2021-04-27T17:36:02Z</time>
      </trkpt>
      <trkpt lat="43.36451" lon="-0.98542">
        <ele>101.844</ele>
        <time>2021-04-27T17:36:22Z</time>
      </trkpt>
      <trkpt lat="43.36407" lon="-0.98561">
        <ele>98.318</ele>
        <time>2021-04-27T17:36:42Z</time>
      </trkpt>
      <trkpt lat="43.36346" lon="-0.98604">
        <ele>92.308</ele>
        <time>2021-04-27T17:37:02Z</time>
      </trkpt>
      <trkpt lat="43.36318" lon="-0.9861">
        <ele>91.483</ele>
        <time>2021-04-27T17:37:22Z</time>
      </trkpt>
      <trkpt lat="43.36279" lon="-0.98606">
        <ele>91.787</ele>
        <time>2021-04-27T17:37:42Z</time>
      </trkpt>
      <trkpt lat="43.36202" lon="-0.98634">
        <ele>95.133</ele>
        <time>2021-04-27T17:38:02Z</time>
      </trkpt>
      <trkpt lat="43.3609" lon="-0.98638">
        <ele>105.656</ele>
        <time>2021-04-27T17:38:22Z</time>
      </trkpt>
      <trkpt lat="43.36012" lon="-0.98632">
        <ele>107.149</ele>
        <time>2021-04-27T17:38:42Z</time>
      </trkpt>
      <trkpt lat="43.35973" lon="-0.98634">
        <ele>109.161</ele>
        <time>2021-04-27T17:39:02Z</time>
      </trkpt>
      <trkpt lat="43.35928" lon="-0.98619">
        <ele>111.789</ele>
        <time>2021-04-27T17:39:22Z</time>
      </trkpt>
      <trkpt lat="43.3588" lon="-0.98638">
        <ele>114.084</ele>
        <time>2021-04-27T17:39:42Z</time>
      </trkpt>
      <trkpt lat="43.35839" lon="-0.9861">
        <ele>116.178</ele>
        <time>2021-04-27T17:40:02Z</time>
      </trkpt>
      <trkpt lat="43.35745" lon="-0.98576">
        <ele>118.633</ele>
        <time>2021-04-27T17:40:22Z</time>
      </trkpt>
      <trkpt lat="43.35724" lon="-0.9857">
        <ele>117.826</ele>
        <time>2021-04-27T17:40:42Z</time>
      </trkpt>
      <trkpt lat="43.35711" lon="-0.98559">
        <ele>117.408</ele>
        <time>2021-04-27T17:41:02Z</time>
      </trkpt>
      <trkpt lat="43.35694" lon="-0.98531">
        <ele>117.214</ele>
        <time>2021-04-27T17:41:22Z</time>
      </trkpt>
      <trkpt lat="43.35688" lon="-0.98503">
        <ele>117.568</ele>
        <time>2021-04-27T17:41:42Z</time>
      </trkpt>
      <trkpt lat="43.35608" lon="-0.98533">
        <ele>114.434</ele>
        <time>2021-04-27T17:42:02Z</time>
      </trkpt>
      <trkpt lat="43.35572" lon="-0.9855">
        <ele>111.877</ele>
        <time>2021-04-27T17:42:22Z</time>
      </trkpt>
      <trkpt lat="43.35564" lon="-0.98555">
        <ele>111.18</ele>
        <time>2021-04-27T17:42:42Z</time>
      </trkpt>
      <trkpt lat="43.35557" lon="-0.98567">
        <ele>110.132</ele>
        <time>2021-04-27T17:43:02Z</time>
      </trkpt>
      <trkpt lat="43.35547" lon="-0.986">
        <ele>108.38</ele>
        <time>2021-04-27T17:43:22Z</time>
      </trkpt>
      <trkpt lat="43.35505" lon="-0.98696">
        <ele>105.075</ele>
        <time>2021-04-27T17:43:42Z</time>
      </trkpt>
      <trkpt lat="43.35471" lon="-0.9893">
        <ele>99.545</ele>
        <time>2021-04-27T17:44:02Z</time>
      </trkpt>
      <trkpt lat="43.35461" lon="-0.98982">
        <ele>96.547</ele>
        <time>2021-04-27T17:44:22Z</time>
      </trkpt>
      <trkpt lat="43.35446" lon="-0.99031">
        <ele>95.111</ele>
        <time>2021-04-27T17:44:42Z</time>
      </trkpt>
      <trkpt lat="43.3541" lon="-0.99125">
        <ele>99.808</ele>
        <time>2021-04-27T17:45:02Z</time>
      </trkpt>
      <trkpt lat="43.3538" lon="-0.99192">
        <ele>99.291</ele>
        <time>2021-04-27T17:45:22Z</time>
      </trkpt>
      <trkpt lat="43.35376" lon="-0.99265">
        <ele>96.135</ele>
        <time>2021-04-27T17:45:42Z</time>
      </trkpt>
      <trkpt lat="43.35368" lon="-0.99316">
        <ele>92.041</ele>
        <time>2021-04-27T17:46:02Z</time>
      </trkpt>
      <trkpt lat="43.3536" lon="-0.99357">
        <ele>88.994</ele>
        <time>2021-04-27T17:46:22Z</time>
      </trkpt>
      <trkpt lat="43.35348" lon="-0.99396">
        <ele>86.597</ele>
        <time>2021-04-27T17:46:42Z</time>
      </trkpt>
      <trkpt lat="43.35332" lon="-0.99437">
        <ele>84.829</ele>
        <time>2021-04-27T17:47:02Z</time>
      </trkpt>
      <trkpt lat="43.35312" lon="-0.99471">
        <ele>82.917</ele>
        <time>2021-04-27T17:47:22Z</time>
      </trkpt>
      <trkpt lat="43.35285" lon="-0.99501">
        <ele>82.152</ele>
        <time>2021-04-27T17:47:42Z</time>
      </trkpt>
      <trkpt lat="43.35252" lon="-0.99533">
        <ele>80.261</ele>
        <time>2021-04-27T17:48:02Z</time>
      </trkpt>
      <trkpt lat="43.3529" lon="-0.99602">
        <ele>75.521</ele>
        <time>2021-04-27T17:48:22Z</time>
      </trkpt>
      <trkpt lat="43.35315" lon="-0.99625">
        <ele>74.413</ele>
        <time>2021-04-27T17:48:42Z</time>
      </trkpt>
      <trkpt lat="43.35366" lon="-0.99664">
        <ele>73.308</ele>
        <time>2021-04-27T17:49:02Z</time>
      </trkpt>
      <trkpt lat="43.35387" lon="-0.99683">
        <ele>74.213</ele>
        <time>2021-04-27T17:49:22Z</time>
      </trkpt>
      <trkpt lat="43.35397" lon="-0.99703">
        <ele>75.197</ele>
        <time>2021-04-27T17:49:42Z</time>
      </trkpt>
      <trkpt lat="43.35415" lon="-0.99761">
        <ele>77.263</ele>
        <time>2021-04-27T17:50:02Z</time>
      </trkpt>
      <trkpt lat="43.35302" lon="-0.99857">
        <ele>75.626</ele>
        <time>2021-04-27T17:50:22Z</time>
      </trkpt>
      <trkpt lat="43.35243" lon="-0.999">
        <ele>75.569</ele>
        <time>2021-04-27T17:50:42Z</time>
      </trkpt>
      <trkpt lat="43.35134" lon="-0.9999">
        <ele>68.211</ele>
        <time>2021-04-27T17:51:02Z</time>
      </trkpt>
      <trkpt lat="43.35117" lon="-1.00001">
        <ele>66.799</ele>
        <time>2021-04-27T17:51:22Z</time>
      </trkpt>
      <trkpt lat="43.35062" lon="-1.0002">
        <ele>63.574</ele>
        <time>2021-04-27T17:51:42Z</time>
      </trkpt>
      <trkpt lat="43.35037" lon="-1.00033">
        <ele>63.568</ele>
        <time>2021-04-27T17:52:02Z</time>
      </trkpt>
      <trkpt lat="43.35026" lon="-1.00044">
        <ele>63.142</ele>
        <time>2021-04-27T17:52:22Z</time>
      </trkpt>
      <trkpt lat="43.35017" lon="-1.00061">
        <ele>62.226</ele>
        <time>2021-04-27T17:52:42Z</time>
      </trkpt>
      <trkpt lat="43.35014" lon="-1.00093">
        <ele>60.808</ele>
        <time>2021-04-27T17:53:02Z</time>
      </trkpt>
      <trkpt lat="43.35014" lon="-1.00145">
        <ele>61.513</ele>
        <time>2021-04-27T17:53:22Z</time>
      </trkpt>
      <trkpt lat="43.35021" lon="-1.00155">
        <ele>61.147</ele>
        <time>2021-04-27T17:53:42Z</time>
      </trkpt>
      <trkpt lat="43.35034" lon="-1.00194">
        <ele>60.273</ele>
        <time>2021-04-27T17:54:02Z</time>
      </trkpt>
      <trkpt lat="43.35046" lon="-1.00224">
        <ele>59.166</ele>
        <time>2021-04-27T17:54:22Z</time>
      </trkpt>
      <trkpt lat="43.35115" lon="-1.00351">
        <ele>56.859</ele>
        <time>2021-04-27T17:54:42Z</time>
      </trkpt>
      <trkpt lat="43.35134" lon="-1.00396">
        <ele>56.541</ele>
        <time>2021-04-27T17:55:02Z</time>
      </trkpt>
      <trkpt lat="43.35162" lon="-1.00484">
        <ele>59.369</ele>
        <time>2021-04-27T17:55:22Z</time>
      </trkpt>
      <trkpt lat="43.35209" lon="-1.00595">
        <ele>58.544</ele>
        <time>2021-04-27T17:55:42Z</time>
      </trkpt>
      <trkpt lat="43.3523" lon="-1.0066">
        <ele>56.344</ele>
        <time>2021-04-27T17:56:02Z</time>
      </trkpt>
      <trkpt lat="43.35251" lon="-1.0072">
        <ele>55.905</ele>
        <time>2021-04-27T17:56:22Z</time>
      </trkpt>
      <trkpt lat="43.35291" lon="-1.00881">
        <ele>62.515</ele>
        <time>2021-04-27T17:56:42Z</time>
      </trkpt>
      <trkpt lat="43.35309" lon="-1.00913">
        <ele>63.408</ele>
        <time>2021-04-27T17:57:02Z</time>
      </trkpt>
      <trkpt lat="43.35382" lon="-1.01022">
        <ele>64.441</ele>
        <time>2021-04-27T17:57:22Z</time>
      </trkpt>
      <trkpt lat="43.35387" lon="-1.01035">
        <ele>64.745</ele>
        <time>2021-04-27T17:57:42Z</time>
      </trkpt>
      <trkpt lat="43.35388" lon="-1.01076">
        <ele>65.561</ele>
        <time>2021-04-27T17:58:02Z</time>
      </trkpt>
      <trkpt lat="43.35401" lon="-1.01132">
        <ele>67.294</ele>
        <time>2021-04-27T17:58:22Z</time>
      </trkpt>
      <trkpt lat="43.35419" lon="-1.01166">
        <ele>68.097</ele>
        <time>2021-04-27T17:58:42Z</time>
      </trkpt>
      <trkpt lat="43.35455" lon="-1.01218">
        <ele>70.059</ele>
        <time>2021-04-27T17:59:02Z</time>
      </trkpt>
      <trkpt lat="43.3546" lon="-1.01254">
        <ele>71.757</ele>
        <time>2021-04-27T17:59:22Z</time>
      </trkpt>
      <trkpt lat="43.3545" lon="-1.01321">
        <ele>75.562</ele>
        <time>2021-04-27T17:59:42Z</time>
      </trkpt>
      <trkpt lat="43.3543" lon="-1.01389">
        <ele>80.385</ele>
        <time>2021-04-27T18:00:02Z</time>
      </trkpt>
      <trkpt lat="43.35429" lon="-1.01419">
        <ele>82.389</ele>
        <time>2021-04-27T18:00:22Z</time>
      </trkpt>
      <trkpt lat="43.35441" lon="-1.01445">
        <ele>83.417</ele>
        <time>2021-04-27T18:00:42Z</time>
      </trkpt>
      <trkpt lat="43.35458" lon="-1.0146">
        <ele>84.108</ele>
        <time>2021-04-27T18:01:02Z</time>
      </trkpt>
      <trkpt lat="43.35511" lon="-1.01471">
        <ele>84.265</ele>
        <time>2021-04-27T18:01:22Z</time>
      </trkpt>
      <trkpt lat="43.3553" lon="-1.01486">
        <ele>84.399</ele>
        <time>2021-04-27T18:01:42Z</time>
      </trkpt>
      <trkpt lat="43.35544" lon="-1.0152">
        <ele>83.465</ele>
        <time>2021-04-27T18:02:02Z</time>
      </trkpt>
      <trkpt lat="43.35552" lon="-1.01557">
        <ele>81.478</ele>
        <time>2021-04-27T18:02:22Z</time>
      </trkpt>
      <trkpt lat="43.35533" lon="-1.0155">
        <ele>81.821</ele>
        <time>2021-04-27T18:02:42Z</time>
      </trkpt>
      <trkpt lat="43.35489" lon="-1.0155">
        <ele>82.213</ele>
        <time>2021-04-27T18:03:02Z</time>
      </trkpt>
      <trkpt lat="43.35433" lon="-1.01559">
        <ele>82.821</ele>
        <time>2021-04-27T18:03:22Z</time>
      </trkpt>
      <trkpt lat="43.35321" lon="-1.01537">
        <ele>85.566</ele>
        <time>2021-04-27T18:03:42Z</time>
      </trkpt>
      <trkpt lat="43.35265" lon="-1.01537">
        <ele>88.276</ele>
        <time>2021-04-27T18:04:02Z</time>
      </trkpt>
      <trkpt lat="43.3516" lon="-1.01481">
        <ele>89.39</ele>
        <time>2021-04-27T18:04:22Z</time>
      </trkpt>
      <trkpt lat="43.35064" lon="-1.01449">
        <ele>89.719</ele>
        <time>2021-04-27T18:04:42Z</time>
      </trkpt>
      <trkpt lat="43.35062" lon="-1.01486">
        <ele>88.708</ele>
        <time>2021-04-27T18:05:02Z</time>
      </trkpt>
      <trkpt lat="43.35053" lon="-1.0152">
        <ele>86.984</ele>
        <time>2021-04-27T18:05:22Z</time>
      </trkpt>
      <trkpt lat="43.35003" lon="-1.01604">
        <ele>82.078</ele>
        <time>2021-04-27T18:05:42Z</time>
      </trkpt>
      <trkpt lat="43.34992" lon="-1.01638">
        <ele>79.094</ele>
        <time>2021-04-27T18:06:02Z</time>
      </trkpt>
      <trkpt lat="43.34978" lon="-1.0172">
        <ele>70.997</ele>
        <time>2021-04-27T18:06:22Z</time>
      </trkpt>
      <trkpt lat="43.34964" lon="-1.01741">
        <ele>68.96</ele>
        <time>2021-04-27T18:06:42Z</time>
      </trkpt>
      <trkpt lat="43.3492" lon="-1.01745">
        <ele>69.592</ele>
        <time>2021-04-27T18:07:02Z</time>
      </trkpt>
      <trkpt lat="43.34837" lon="-1.01745">
        <ele>68.42</ele>
        <time>2021-04-27T18:07:22Z</time>
      </trkpt>
      <trkpt lat="43.34833" lon="-1.01758">
        <ele>67.715</ele>
        <time>2021-04-27T18:07:42Z</time>
      </trkpt>
      <trkpt lat="43.34831" lon="-1.01803">
        <ele>66.153</ele>
        <time>2021-04-27T18:08:02Z</time>
      </trkpt>
      <trkpt lat="43.34823" lon="-1.01866">
        <ele>64.604</ele>
        <time>2021-04-27T18:08:22Z</time>
      </trkpt>
      <trkpt lat="43.34808" lon="-1.01932">
        <ele>62.614</ele>
        <time>2021-04-27T18:08:42Z</time>
      </trkpt>
      <trkpt lat="43.34787" lon="-1.0199">
        <ele>59.408</ele>
        <time>2021-04-27T18:09:02Z</time>
      </trkpt>
      <trkpt lat="43.34772" lon="-1.02024">
        <ele>57.162</ele>
        <time>2021-04-27T18:09:22Z</time>
      </trkpt>
      <trkpt lat="43.34758" lon="-1.02209">
        <ele>50.196</ele>
        <time>2021-04-27T18:09:42Z</time>
      </trkpt>
      <trkpt lat="43.34728" lon="-1.02265">
        <ele>49.952</ele>
        <time>2021-04-27T18:10:02Z</time>
      </trkpt>
      <trkpt lat="43.34708" lon="-1.02342">
        <ele>50.395</ele>
        <time>2021-04-27T18:10:22Z</time>
      </trkpt>
      <trkpt lat="43.34702" lon="-1.02383">
        <ele>49.478</ele>
        <time>2021-04-27T18:10:42Z</time>
      </trkpt>
      <trkpt lat="43.3438" lon="-1.02529">
        <ele>46.91</ele>
        <time>2021-04-27T18:11:02Z</time>
      </trkpt>
      <trkpt lat="43.34168" lon="-1.02629">
        <ele>40.628</ele>
        <time>2021-04-27T18:11:22Z</time>
      </trkpt>
      <trkpt lat="43.33956" lon="-1.0278">
        <ele>40.473</ele>
        <time>2021-04-27T18:11:42Z</time>
      </trkpt>
      <trkpt lat="43.33592" lon="-1.03059">
        <ele>41.089</ele>
        <time>2021-04-27T18:12:02Z</time>
      </trkpt>
      <trkpt lat="43.33578" lon="-1.03005">
        <ele>43.006</ele>
        <time>2021-04-27T18:12:22Z</time>
      </trkpt>
      <trkpt lat="43.33559" lon="-1.02964">
        <ele>43.626</ele>
        <time>2021-04-27T18:12:42Z</time>
      </trkpt>
      <trkpt lat="43.33534" lon="-1.02936">
        <ele>43.908</ele>
        <time>2021-04-27T18:13:02Z</time>
      </trkpt>
      <trkpt lat="43.33509" lon="-1.02917">
        <ele>43.915</ele>
        <time>2021-04-27T18:13:22Z</time>
      </trkpt>
      <trkpt lat="43.33491" lon="-1.02891">
        <ele>43.029</ele>
        <time>2021-04-27T18:13:42Z</time>
      </trkpt>
      <trkpt lat="43.33336" lon="-1.03016">
        <ele>45.675</ele>
        <time>2021-04-27T18:14:02Z</time>
      </trkpt>
      <trkpt lat="43.33191" lon="-1.03121">
        <ele>49.238</ele>
        <time>2021-04-27T18:14:22Z</time>
      </trkpt>
      <trkpt lat="43.33075" lon="-1.03119">
        <ele>49.681</ele>
        <time>2021-04-27T18:14:42Z</time>
      </trkpt>
      <trkpt lat="43.33046" lon="-1.03125">
        <ele>49.673</ele>
        <time>2021-04-27T18:15:02Z</time>
      </trkpt>
      <trkpt lat="43.32983" lon="-1.03147">
        <ele>49.671</ele>
        <time>2021-04-27T18:15:22Z</time>
      </trkpt>
      <trkpt lat="43.32943" lon="-1.03153">
        <ele>46.946</ele>
        <time>2021-04-27T18:15:42Z</time>
      </trkpt>
      <trkpt lat="43.32849" lon="-1.03185">
        <ele>48.055</ele>
        <time>2021-04-27T18:16:02Z</time>
      </trkpt>
      <trkpt lat="43.32776" lon="-1.03204">
        <ele>49.307</ele>
        <time>2021-04-27T18:16:22Z</time>
      </trkpt>
      <trkpt lat="43.32737" lon="-1.03222">
        <ele>49.117</ele>
        <time>2021-04-27T18:16:42Z</time>
      </trkpt>
      <trkpt lat="43.32716" lon="-1.03245">
        <ele>48.708</ele>
        <time>2021-04-27T18:17:02Z</time>
      </trkpt>
      <trkpt lat="43.32668" lon="-1.03318">
        <ele>51.162</ele>
        <time>2021-04-27T18:17:22Z</time>
      </trkpt>
      <trkpt lat="43.32638" lon="-1.0335">
        <ele>51.776</ele>
        <time>2021-04-27T18:17:42Z</time>
      </trkpt>
      <trkpt lat="43.32595" lon="-1.03383">
        <ele>51.982</ele>
        <time>2021-04-27T18:18:02Z</time>
      </trkpt>
      <trkpt lat="43.32465" lon="-1.0343">
        <ele>55.085</ele>
        <time>2021-04-27T18:18:22Z</time>
      </trkpt>
      <trkpt lat="43.3239" lon="-1.03468">
        <ele>56.398</ele>
        <time>2021-04-27T18:18:42Z</time>
      </trkpt>
      <trkpt lat="43.32364" lon="-1.03395">
        <ele>56.39</ele>
        <time>2021-04-27T18:19:02Z</time>
      </trkpt>
      <trkpt lat="43.32304" lon="-1.03247">
        <ele>54.368</ele>
        <time>2021-04-27T18:19:22Z</time>
      </trkpt>
      <trkpt lat="43.32289" lon="-1.03267">
        <ele>54.723</ele>
        <time>2021-04-27T18:19:42Z</time>
      </trkpt>
      <trkpt lat="43.3227" lon="-1.03273">
        <ele>54.937</ele>
        <time>2021-04-27T18:20:02Z</time>
      </trkpt>
      <trkpt lat="43.32245" lon="-1.03275">
        <ele>55.049</ele>
        <time>2021-04-27T18:20:22Z</time>
      </trkpt>
      <trkpt lat="43.32145" lon="-1.0325">
        <ele>54.713</ele>
        <time>2021-04-27T18:20:42Z</time>
      </trkpt>
      <trkpt lat="43.32062" lon="-1.03222">
        <ele>54.408</ele>
        <time>2021-04-27T18:21:02Z</time>
      </trkpt>
      <trkpt lat="43.32044" lon="-1.03222">
        <ele>54.82</ele>
        <time>2021-04-27T18:21:22Z</time>
      </trkpt>
      <trkpt lat="43.32031" lon="-1.03224">
        <ele>55.174</ele>
        <time>2021-04-27T18:21:42Z</time>
      </trkpt>
      <trkpt lat="43.32003" lon="-1.03243">
        <ele>55.94</ele>
        <time>2021-04-27T18:22:02Z</time>
      </trkpt>
      <trkpt lat="43.31983" lon="-1.03252">
        <ele>56.973</ele>
        <time>2021-04-27T18:22:22Z</time>
      </trkpt>
      <trkpt lat="43.31962" lon="-1.03258">
        <ele>57.996</ele>
        <time>2021-04-27T18:22:42Z</time>
      </trkpt>
      <trkpt lat="43.31944" lon="-1.03256">
        <ele>58.828</ele>
        <time>2021-04-27T18:23:02Z</time>
      </trkpt>
      <trkpt lat="43.3193" lon="-1.03247">
        <ele>59.386</ele>
        <time>2021-04-27T18:23:22Z</time>
      </trkpt>
      <trkpt lat="43.31914" lon="-1.03183">
        <ele>58.561</ele>
        <time>2021-04-27T18:23:42Z</time>
      </trkpt>
      <trkpt lat="43.31905" lon="-1.03153">
        <ele>58.421</ele>
        <time>2021-04-27T18:24:02Z</time>
      </trkpt>
      <trkpt lat="43.31894" lon="-1.03138">
        <ele>58.941</ele>
        <time>2021-04-27T18:24:22Z</time>
      </trkpt>
      <trkpt lat="43.3188" lon="-1.03129">
        <ele>59.505</ele>
        <time>2021-04-27T18:24:42Z</time>
      </trkpt>
      <trkpt lat="43.31859" lon="-1.03134">
        <ele>60.608</ele>
        <time>2021-04-27T18:25:02Z</time>
      </trkpt>
      <trkpt lat="43.31816" lon="-1.03149">
        <ele>63.179</ele>
        <time>2021-04-27T18:25:22Z</time>
      </trkpt>
      <trkpt lat="43.31756" lon="-1.03185">
        <ele>67.843</ele>
        <time>2021-04-27T18:25:42Z</time>
      </trkpt>
      <trkpt lat="43.31748" lon="-1.03138">
        <ele>67.179</ele>
        <time>2021-04-27T18:26:02Z</time>
      </trkpt>
      <trkpt lat="43.31741" lon="-1.03106">
        <ele>66.772</ele>
        <time>2021-04-27T18:26:22Z</time>
      </trkpt>
      <trkpt lat="43.31716" lon="-1.03039">
        <ele>68.075</ele>
        <time>2021-04-27T18:26:42Z</time>
      </trkpt>
      <trkpt lat="43.31683" lon="-1.02938">
        <ele>69.047</ele>
        <time>2021-04-27T18:27:02Z</time>
      </trkpt>
      <trkpt lat="43.31455" lon="-1.03031">
        <ele>121.945</ele>
        <time>2021-04-27T18:27:22Z</time>
      </trkpt>
      <trkpt lat="43.31413" lon="-1.03044">
        <ele>129.16</ele>
        <time>2021-04-27T18:27:42Z</time>
      </trkpt>
      <trkpt lat="43.31341" lon="-1.03054">
        <ele>133.514</ele>
        <time>2021-04-27T18:28:02Z</time>
      </trkpt>
      <trkpt lat="43.31313" lon="-1.03063">
        <ele>135.854</ele>
        <time>2021-04-27T18:28:22Z</time>
      </trkpt>
      <trkpt lat="43.31199" lon="-1.03082">
        <ele>148.409</ele>
        <time>2021-04-27T18:28:42Z</time>
      </trkpt>
      <trkpt lat="43.31165" lon="-1.03091">
        <ele>151.708</ele>
        <time>2021-04-27T18:29:02Z</time>
      </trkpt>
      <trkpt lat="43.31136" lon="-1.03108">
        <ele>149.018</ele>
        <time>2021-04-27T18:29:22Z</time>
      </trkpt>
      <trkpt lat="43.31115" lon="-1.03134">
        <ele>149.052</ele>
        <time>2021-04-27T18:29:42Z</time>
      </trkpt>
      <trkpt lat="43.31101" lon="-1.03144">
        <ele>149.558</ele>
        <time>2021-04-27T18:30:02Z</time>
      </trkpt>
      <trkpt lat="43.31087" lon="-1.03149">
        <ele>149.741</ele>
        <time>2021-04-27T18:30:22Z</time>
      </trkpt>
      <trkpt lat="43.31091" lon="-1.03172">
        <ele>152.344</ele>
        <time>2021-04-27T18:30:42Z</time>
      </trkpt>
      <trkpt lat="43.31091" lon="-1.03189">
        <ele>153.726</ele>
        <time>2021-04-27T18:31:02Z</time>
      </trkpt>
      <trkpt lat="43.31079" lon="-1.03239">
        <ele>159.974</ele>
        <time>2021-04-27T18:31:22Z</time>
      </trkpt>
      <trkpt lat="43.3108" lon="-1.03277">
        <ele>161.829</ele>
        <time>2021-04-27T18:31:42Z</time>
      </trkpt>
      <trkpt lat="43.31102" lon="-1.03368">
        <ele>159.664</ele>
        <time>2021-04-27T18:32:02Z</time>
      </trkpt>
      <trkpt lat="43.3111" lon="-1.03413">
        <ele>160.706</ele>
        <time>2021-04-27T18:32:22Z</time>
      </trkpt>
      <trkpt lat="43.31122" lon="-1.03554">
        <ele>162.116</ele>
        <time>2021-04-27T18:32:42Z</time>
      </trkpt>
      <trkpt lat="43.31122" lon="-1.03601">
        <ele>161.608</ele>
        <time>2021-04-27T18:33:02Z</time>
      </trkpt>
      <trkpt lat="43.31113" lon="-1.03644">
        <ele>160.323</ele>
        <time>2021-04-27T18:33:22Z</time>
      </trkpt>
      <trkpt lat="43.31032" lon="-1.03586">
        <ele>174.097</ele>
        <time>2021-04-27T18:33:42Z</time>
      </trkpt>
      <trkpt lat="43.3101" lon="-1.03561">
        <ele>179.783</ele>
        <time>2021-04-27T18:34:02Z</time>
      </trkpt>
      <trkpt lat="43.30949" lon="-1.03451">
        <ele>191.886</ele>
        <time>2021-04-27T18:34:22Z</time>
      </trkpt>
      <trkpt lat="43.30891" lon="-1.03389">
        <ele>197.529</ele>
        <time>2021-04-27T18:34:42Z</time>
      </trkpt>
      <trkpt lat="43.30834" lon="-1.03342">
        <ele>205.311</ele>
        <time>2021-04-27T18:35:02Z</time>
      </trkpt>
      <trkpt lat="43.30823" lon="-1.03312">
        <ele>208.619</ele>
        <time>2021-04-27T18:35:22Z</time>
      </trkpt>
      <trkpt lat="43.30807" lon="-1.0329">
        <ele>211.294</ele>
        <time>2021-04-27T18:35:42Z</time>
      </trkpt>
      <trkpt lat="43.30791" lon="-1.03258">
        <ele>216.583</ele>
        <time>2021-04-27T18:36:02Z</time>
      </trkpt>
      <trkpt lat="43.30751" lon="-1.03153">
        <ele>233.225</ele>
        <time>2021-04-27T18:36:22Z</time>
      </trkpt>
      <trkpt lat="43.30731" lon="-1.03112">
        <ele>240.117</ele>
        <time>2021-04-27T18:36:42Z</time>
      </trkpt>
      <trkpt lat="43.30715" lon="-1.03095">
        <ele>245.408</ele>
        <time>2021-04-27T18:37:02Z</time>
      </trkpt>
      <trkpt lat="43.30696" lon="-1.03097">
        <ele>250.465</ele>
        <time>2021-04-27T18:37:22Z</time>
      </trkpt>
      <trkpt lat="43.30643" lon="-1.03134">
        <ele>255.099</ele>
        <time>2021-04-27T18:37:42Z</time>
      </trkpt>
      <trkpt lat="43.30587" lon="-1.03104">
        <ele>259.525</ele>
        <time>2021-04-27T18:38:02Z</time>
      </trkpt>
      <trkpt lat="43.30565" lon="-1.03084">
        <ele>261.788</ele>
        <time>2021-04-27T18:38:22Z</time>
      </trkpt>
      <trkpt lat="43.30367" lon="-1.03273">
        <ele>220.141</ele>
        <time>2021-04-27T18:38:42Z</time>
      </trkpt>
      <trkpt lat="43.3042" lon="-1.03449">
        <ele>203.313</ele>
        <time>2021-04-27T18:39:02Z</time>
      </trkpt>
      <trkpt lat="43.30448" lon="-1.03511">
        <ele>194.541</ele>
        <time>2021-04-27T18:39:22Z</time>
      </trkpt>
      <trkpt lat="43.30464" lon="-1.03526">
        <ele>191.676</ele>
        <time>2021-04-27T18:39:42Z</time>
      </trkpt>
      <trkpt lat="43.30485" lon="-1.03533">
        <ele>189.239</ele>
        <time>2021-04-27T18:40:02Z</time>
      </trkpt>
      <trkpt lat="43.30499" lon="-1.03544">
        <ele>186.801</ele>
        <time>2021-04-27T18:40:22Z</time>
      </trkpt>
      <trkpt lat="43.30495" lon="-1.03574">
        <ele>183.621</ele>
        <time>2021-04-27T18:40:42Z</time>
      </trkpt>
      <trkpt lat="43.30496" lon="-1.03591">
        <ele>181.308</ele>
        <time>2021-04-27T18:41:02Z</time>
      </trkpt>
      <trkpt lat="43.30506" lon="-1.03614">
        <ele>177.12</ele>
        <time>2021-04-27T18:41:22Z</time>
      </trkpt>
      <trkpt lat="43.30421" lon="-1.03604">
        <ele>185.944</ele>
        <time>2021-04-27T18:41:42Z</time>
      </trkpt>
      <trkpt lat="43.30357" lon="-1.03589">
        <ele>189.11</ele>
        <time>2021-04-27T18:42:02Z</time>
      </trkpt>
      <trkpt lat="43.3032" lon="-1.03574">
        <ele>189.513</ele>
        <time>2021-04-27T18:42:22Z</time>
      </trkpt>
      <trkpt lat="43.30267" lon="-1.03533">
        <ele>187.926</ele>
        <time>2021-04-27T18:42:42Z</time>
      </trkpt>
      <trkpt lat="43.30128" lon="-1.03483">
        <ele>177.728</ele>
        <time>2021-04-27T18:43:02Z</time>
      </trkpt>
      <trkpt lat="43.30045" lon="-1.03492">
        <ele>168.276</ele>
        <time>2021-04-27T18:43:22Z</time>
      </trkpt>
      <trkpt lat="43.30008" lon="-1.03501">
        <ele>163.851</ele>
        <time>2021-04-27T18:43:42Z</time>
      </trkpt>
      <trkpt lat="43.2997" lon="-1.03481">
        <ele>159.043</ele>
        <time>2021-04-27T18:44:02Z</time>
      </trkpt>
      <trkpt lat="43.29951" lon="-1.03441">
        <ele>156.664</ele>
        <time>2021-04-27T18:44:22Z</time>
      </trkpt>
      <trkpt lat="43.29897" lon="-1.03477">
        <ele>149.61</ele>
        <time>2021-04-27T18:44:42Z</time>
      </trkpt>
    </trkseg>
  </trk>
  <trk>
    <name><![CDATA[GR®101 De Maubourguet au Col de Saucède (Hautes-Pyrénées) (2021)]]></name>
    <desc><![CDATA[Randonnée sur le GR®101 à travers les Hautes-Pyrénées de Maubourguet au Col de Saucède. Gîtes d'étapes, Chambres d'hôtes, Maison d'hôtes, Hôtels, Camping, Refuges, Auberges.]]></desc>
    <extensions>
      <line xmlns="http://www.topografix.com/GPX/gpx_style/0/2">
        <color>000000</color>
        <width>4</width>
      </line>
    </extensions>
    <trkseg>
      <trkpt lat="43.46333" lon="0.01592">
        <ele>179.043</ele>
        <time>2021-02-12T15:20:23Z</time>
      </trkpt>
      <trkpt lat="43.46295" lon="0.01565">
        <ele>179.764</ele>
        <time>2021-02-12T15:20:43Z</time>
      </trkpt>
      <trkpt lat="43.46047" lon="0.01584">
        <ele>181.01</ele>
        <time>2021-02-12T15:21:03Z</time>
      </trkpt>
      <trkpt lat="43.45967" lon="0.0158">
        <ele>181.408</ele>
        <time>2021-02-12T15:21:23Z</time>
      </trkpt>
      <trkpt lat="43.45912" lon="0.01548">
        <ele>182.04</ele>
        <time>2021-02-12T15:21:43Z</time>
      </trkpt>
      <trkpt lat="43.45878" lon="0.01539">
        <ele>181.819</ele>
        <time>2021-02-12T15:22:03Z</time>
      </trkpt>
      <trkpt lat="43.45862" lon="0.01516">
        <ele>181.59</ele>
        <time>2021-02-12T15:22:23Z</time>
      </trkpt>
      <trkpt lat="43.45545" lon="0.01541">
        <ele>182.235</ele>
        <time>2021-02-12T15:22:43Z</time>
      </trkpt>
      <trkpt lat="43.45497" lon="0.0153">
        <ele>182.635</ele>
        <time>2021-02-12T15:23:03Z</time>
      </trkpt>
      <trkpt lat="43.45392" lon="0.01521">
        <ele>182.384</ele>
        <time>2021-02-12T15:23:23Z</time>
      </trkpt>
      <trkpt lat="43.45317" lon="0.01541">
        <ele>183.24</ele>
        <time>2021-02-12T15:23:43Z</time>
      </trkpt>
      <trkpt lat="43.45278" lon="0.01568">
        <ele>183.786</ele>
        <time>2021-02-12T15:24:03Z</time>
      </trkpt>
      <trkpt lat="43.45019" lon="0.01568">
        <ele>184.943</ele>
        <time>2021-02-12T15:24:23Z</time>
      </trkpt>
      <trkpt lat="43.44924" lon="0.0162">
        <ele>184.964</ele>
        <time>2021-02-12T15:24:43Z</time>
      </trkpt>
      <trkpt lat="43.44794" lon="0.01637">
        <ele>185.61</ele>
        <time>2021-02-12T15:25:03Z</time>
      </trkpt>
      <trkpt lat="43.44743" lon="0.01646">
        <ele>186.208</ele>
        <time>2021-02-12T15:25:23Z</time>
      </trkpt>
      <trkpt lat="43.44708" lon="0.01623">
        <ele>187.07</ele>
        <time>2021-02-12T15:25:43Z</time>
      </trkpt>
      <trkpt lat="43.44657" lon="0.016">
        <ele>187.589</ele>
        <time>2021-02-12T15:26:03Z</time>
      </trkpt>
      <trkpt lat="43.44641" lon="0.01618">
        <ele>188.05</ele>
        <time>2021-02-12T15:26:23Z</time>
      </trkpt>
      <trkpt lat="43.44632" lon="0.0171">
        <ele>188.285</ele>
        <time>2021-02-12T15:26:43Z</time>
      </trkpt>
      <trkpt lat="43.44605" lon="0.01729">
        <ele>188.165</ele>
        <time>2021-02-12T15:27:03Z</time>
      </trkpt>
      <trkpt lat="43.44598" lon="0.01768">
        <ele>187.964</ele>
        <time>2021-02-12T15:27:23Z</time>
      </trkpt>
      <trkpt lat="43.44514" lon="0.01758">
        <ele>189.83</ele>
        <time>2021-02-12T15:27:43Z</time>
      </trkpt>
      <trkpt lat="43.44521" lon="0.01667">
        <ele>189.016</ele>
        <time>2021-02-12T15:28:03Z</time>
      </trkpt>
      <trkpt lat="43.44541" lon="0.01643">
        <ele>188.675</ele>
        <time>2021-02-12T15:28:23Z</time>
      </trkpt>
      <trkpt lat="43.44539" lon="0.01588">
        <ele>187.628</ele>
        <time>2021-02-12T15:28:43Z</time>
      </trkpt>
      <trkpt lat="43.44569" lon="0.01579">
        <ele>187.82</ele>
        <time>2021-02-12T15:29:03Z</time>
      </trkpt>
      <trkpt lat="43.44589" lon="0.01489">
        <ele>186.908</ele>
        <time>2021-02-12T15:29:23Z</time>
      </trkpt>
      <trkpt lat="43.44522" lon="0.01503">
        <ele>187.793</ele>
        <time>2021-02-12T15:29:43Z</time>
      </trkpt>
      <trkpt lat="43.44503" lon="0.01493">
        <ele>188.072</ele>
        <time>2021-02-12T15:30:03Z</time>
      </trkpt>
      <trkpt lat="43.44488" lon="0.0151">
        <ele>187.933</ele>
        <time>2021-02-12T15:30:23Z</time>
      </trkpt>
      <trkpt lat="43.44456" lon="0.0153">
        <ele>187.838</ele>
        <time>2021-02-12T15:30:43Z</time>
      </trkpt>
      <trkpt lat="43.4439" lon="0.0154">
        <ele>188.288</ele>
        <time>2021-02-12T15:31:03Z</time>
      </trkpt>
      <trkpt lat="43.44139" lon="0.01615">
        <ele>189.547</ele>
        <time>2021-02-12T15:31:23Z</time>
      </trkpt>
      <trkpt lat="43.44125" lon="0.01609">
        <ele>189.583</ele>
        <time>2021-02-12T15:31:43Z</time>
      </trkpt>
      <trkpt lat="43.44008" lon="0.01621">
        <ele>190.019</ele>
        <time>2021-02-12T15:32:03Z</time>
      </trkpt>
      <trkpt lat="43.4389" lon="0.01653">
        <ele>188.978</ele>
        <time>2021-02-12T15:32:23Z</time>
      </trkpt>
      <trkpt lat="43.43662" lon="0.01683">
        <ele>189.233</ele>
        <time>2021-02-12T15:32:43Z</time>
      </trkpt>
      <trkpt lat="43.43617" lon="0.01779">
        <ele>190.126</ele>
        <time>2021-02-12T15:33:03Z</time>
      </trkpt>
      <trkpt lat="43.43568" lon="0.01779">
        <ele>190.308</ele>
        <time>2021-02-12T15:33:23Z</time>
      </trkpt>
      <trkpt lat="43.43515" lon="0.01745">
        <ele>191.643</ele>
        <time>2021-02-12T15:33:43Z</time>
      </trkpt>
      <trkpt lat="43.43477" lon="0.01585">
        <ele>190.652</ele>
        <time>2021-02-12T15:34:03Z</time>
      </trkpt>
      <trkpt lat="43.43422" lon="0.01014">
        <ele>192.233</ele>
        <time>2021-02-12T15:34:23Z</time>
      </trkpt>
      <trkpt lat="43.43241" lon="0.01018">
        <ele>193.228</ele>
        <time>2021-02-12T15:34:43Z</time>
      </trkpt>
      <trkpt lat="43.43212" lon="0.01029">
        <ele>193.448</ele>
        <time>2021-02-12T15:35:03Z</time>
      </trkpt>
      <trkpt lat="43.43211" lon="0.00967">
        <ele>194.947</ele>
        <time>2021-02-12T15:35:23Z</time>
      </trkpt>
      <trkpt lat="43.4317" lon="0.00834">
        <ele>197.293</ele>
        <time>2021-02-12T15:35:43Z</time>
      </trkpt>
      <trkpt lat="43.4299" lon="0.00538">
        <ele>206.579</ele>
        <time>2021-02-12T15:36:03Z</time>
      </trkpt>
      <trkpt lat="43.42676" lon="0.00231">
        <ele>207.815</ele>
        <time>2021-02-12T15:36:23Z</time>
      </trkpt>
      <trkpt lat="43.42644" lon="0.00383">
        <ele>203.765</ele>
        <time>2021-02-12T15:36:43Z</time>
      </trkpt>
      <trkpt lat="43.42611" lon="0.00641">
        <ele>201.111</ele>
        <time>2021-02-12T15:37:03Z</time>
      </trkpt>
      <trkpt lat="43.42418" lon="0.00378">
        <ele>204.908</ele>
        <time>2021-02-12T15:37:23Z</time>
      </trkpt>
      <trkpt lat="43.4223" lon="0.0014">
        <ele>207.257</ele>
        <time>2021-02-12T15:37:43Z</time>
      </trkpt>
      <trkpt lat="43.421" lon="0.00038">
        <ele>209.576</ele>
        <time>2021-02-12T15:38:03Z</time>
      </trkpt>
      <trkpt lat="43.42119" lon="-9.0E-5">
        <ele>208.637</ele>
        <time>2021-02-12T15:38:23Z</time>
      </trkpt>
      <trkpt lat="43.41841" lon="-0.00379">
        <ele>213.462</ele>
        <time>2021-02-12T15:38:43Z</time>
      </trkpt>
      <trkpt lat="43.41698" lon="-0.00329">
        <ele>222.032</ele>
        <time>2016-10-27T16:29:15Z</time>
      </trkpt>
      <trkpt lat="43.41658" lon="-0.0029">
        <ele>228.051</ele>
        <time>2016-10-27T16:29:35Z</time>
      </trkpt>
      <trkpt lat="43.41477" lon="-0.00241">
        <ele>244.027</ele>
        <time>2016-10-27T16:29:55Z</time>
      </trkpt>
      <trkpt lat="43.41447" lon="-0.00228">
        <ele>246.033</ele>
        <time>2016-10-27T16:30:15Z</time>
      </trkpt>
      <trkpt lat="43.41426" lon="-0.0019">
        <ele>250.097</ele>
        <time>2016-10-27T16:30:35Z</time>
      </trkpt>
      <trkpt lat="43.41373" lon="-0.0014">
        <ele>259.023</ele>
        <time>2016-10-27T16:30:55Z</time>
      </trkpt>
      <trkpt lat="43.41324" lon="-0.00027">
        <ele>271.025</ele>
        <time>2016-10-27T16:31:15Z</time>
      </trkpt>
      <trkpt lat="43.41172" lon="0.00057">
        <ele>281.008</ele>
        <time>2016-10-27T16:31:35Z</time>
      </trkpt>
      <trkpt lat="43.41105" lon="0.00122">
        <ele>296.055</ele>
        <time>2016-10-27T16:31:55Z</time>
      </trkpt>
      <trkpt lat="43.40988" lon="0.00169">
        <ele>310.074</ele>
        <time>2016-10-27T16:32:15Z</time>
      </trkpt>
      <trkpt lat="43.40921" lon="0.00242">
        <ele>313.085</ele>
        <time>2016-10-27T16:32:35Z</time>
      </trkpt>
      <trkpt lat="43.40844" lon="0.00182">
        <ele>314.04</ele>
        <time>2016-10-27T16:32:55Z</time>
      </trkpt>
      <trkpt lat="43.40794" lon="0.00152">
        <ele>314.01</ele>
        <time>2016-10-27T16:33:15Z</time>
      </trkpt>
      <trkpt lat="43.40721" lon="0.00077">
        <ele>314.099</ele>
        <time>2016-10-27T16:33:35Z</time>
      </trkpt>
      <trkpt lat="43.40671" lon="0.00029">
        <ele>314.055</ele>
        <time>2016-10-27T16:33:55Z</time>
      </trkpt>
      <trkpt lat="43.40575" lon="-0.00093">
        <ele>316.061</ele>
        <time>2016-10-27T16:34:15Z</time>
      </trkpt>
      <trkpt lat="43.4047" lon="-0.00151">
        <ele>316.063</ele>
        <time>2016-10-27T16:34:35Z</time>
      </trkpt>
      <trkpt lat="43.40324" lon="-0.00147">
        <ele>318.044</ele>
        <time>2016-10-27T16:34:55Z</time>
      </trkpt>
      <trkpt lat="43.40186" lon="-0.00127">
        <ele>323.018</ele>
        <time>2016-10-27T16:35:15Z</time>
      </trkpt>
      <trkpt lat="43.40154" lon="-0.00153">
        <ele>320.008</ele>
        <time>2016-10-27T16:35:35Z</time>
      </trkpt>
      <trkpt lat="43.4011" lon="-0.00252">
        <ele>319.062</ele>
        <time>2016-10-27T16:35:55Z</time>
      </trkpt>
      <trkpt lat="43.40063" lon="-0.0025">
        <ele>319.061</ele>
        <time>2016-10-27T16:36:15Z</time>
      </trkpt>
      <trkpt lat="43.39938" lon="-0.00177">
        <ele>319.022</ele>
        <time>2016-10-27T16:36:35Z</time>
      </trkpt>
      <trkpt lat="43.39889" lon="-0.00194">
        <ele>318.027</ele>
        <time>2016-10-27T16:36:55Z</time>
      </trkpt>
      <trkpt lat="43.39817" lon="-0.00415">
        <ele>318.027</ele>
        <time>2016-10-27T16:37:15Z</time>
      </trkpt>
      <trkpt lat="43.39747" lon="-0.00275">
        <ele>307.026</ele>
        <time>2016-10-27T16:37:35Z</time>
      </trkpt>
      <trkpt lat="43.39703" lon="-0.00237">
        <ele>300.022</ele>
        <time>2016-10-27T16:37:55Z</time>
      </trkpt>
      <trkpt lat="43.39644" lon="-0.0008">
        <ele>282.098</ele>
        <time>2016-10-27T16:38:15Z</time>
      </trkpt>
      <trkpt lat="43.39617" lon="-0.00054">
        <ele>282.072</ele>
        <time>2016-10-27T16:38:35Z</time>
      </trkpt>
      <trkpt lat="43.39602" lon="0.00081">
        <ele>282.013</ele>
        <time>2016-10-27T16:38:55Z</time>
      </trkpt>
      <trkpt lat="43.39564" lon="0.00186">
        <ele>277.014</ele>
        <time>2016-10-27T16:39:15Z</time>
      </trkpt>
      <trkpt lat="43.39563" lon="0.00295">
        <ele>274.008</ele>
        <time>2016-10-27T16:39:35Z</time>
      </trkpt>
      <trkpt lat="43.39546" lon="0.00416">
        <ele>269.063</ele>
        <time>2016-10-27T16:39:55Z</time>
      </trkpt>
      <trkpt lat="43.39556" lon="0.00521">
        <ele>260.092</ele>
        <time>2016-10-27T16:40:15Z</time>
      </trkpt>
      <trkpt lat="43.39578" lon="0.00611">
        <ele>256.083</ele>
        <time>2016-10-27T16:40:35Z</time>
      </trkpt>
      <trkpt lat="43.396" lon="0.00823">
        <ele>258.028</ele>
        <time>2016-10-27T16:40:55Z</time>
      </trkpt>
      <trkpt lat="43.39588" lon="0.00896">
        <ele>253.068</ele>
        <time>2016-10-27T16:41:15Z</time>
      </trkpt>
      <trkpt lat="43.396" lon="0.01036">
        <ele>246.097</ele>
        <time>2016-10-27T16:41:35Z</time>
      </trkpt>
      <trkpt lat="43.39499" lon="0.01355">
        <ele>227.063</ele>
        <time>2016-10-27T16:41:55Z</time>
      </trkpt>
      <trkpt lat="43.39539" lon="0.01433">
        <ele>226.069</ele>
        <time>2016-10-27T16:42:15Z</time>
      </trkpt>
      <trkpt lat="43.39618" lon="0.01615">
        <ele>222.245</ele>
        <time>2021-02-12T15:52:23Z</time>
      </trkpt>
      <trkpt lat="43.39415" lon="0.02039">
        <ele>216.847</ele>
        <time>2021-02-12T15:52:43Z</time>
      </trkpt>
      <trkpt lat="43.3932" lon="0.02048">
        <ele>222.011</ele>
        <time>2021-02-12T15:53:03Z</time>
      </trkpt>
      <trkpt lat="43.39212" lon="0.02118">
        <ele>220.708</ele>
        <time>2021-02-12T15:53:23Z</time>
      </trkpt>
      <trkpt lat="43.39137" lon="0.02044">
        <ele>220.04</ele>
        <time>2016-10-27T16:44:15Z</time>
      </trkpt>
      <trkpt lat="43.39227" lon="0.02377">
        <ele>225.099</ele>
        <time>2016-10-27T16:44:35Z</time>
      </trkpt>
      <trkpt lat="43.39103" lon="0.02319">
        <ele>229.07</ele>
        <time>2016-10-27T16:44:55Z</time>
      </trkpt>
      <trkpt lat="43.3904" lon="0.02282">
        <ele>234.015</ele>
        <time>2016-10-27T16:45:15Z</time>
      </trkpt>
      <trkpt lat="43.38808" lon="0.02158">
        <ele>253.095</ele>
        <time>2016-10-27T16:45:35Z</time>
      </trkpt>
      <trkpt lat="43.38716" lon="0.02098">
        <ele>261.084</ele>
        <time>2016-10-27T16:45:55Z</time>
      </trkpt>
      <trkpt lat="43.38605" lon="0.02089">
        <ele>271.09</ele>
        <time>2016-10-27T16:46:15Z</time>
      </trkpt>
      <trkpt lat="43.38573" lon="0.02061">
        <ele>273.066</ele>
        <time>2016-10-27T16:46:35Z</time>
      </trkpt>
      <trkpt lat="43.38546" lon="0.02055">
        <ele>275.023</ele>
        <time>2016-10-27T16:46:55Z</time>
      </trkpt>
      <trkpt lat="43.38527" lon="0.02034">
        <ele>277.083</ele>
        <time>2016-10-27T16:47:15Z</time>
      </trkpt>
      <trkpt lat="43.38507" lon="0.01954">
        <ele>274.011</ele>
        <time>2016-10-27T16:47:35Z</time>
      </trkpt>
      <trkpt lat="43.38454" lon="0.01913">
        <ele>275.008</ele>
        <time>2016-10-27T16:47:55Z</time>
      </trkpt>
      <trkpt lat="43.38407" lon="0.01909">
        <ele>281.028</ele>
        <time>2016-10-27T16:48:15Z</time>
      </trkpt>
      <trkpt lat="43.38367" lon="0.01877">
        <ele>282.037</ele>
        <time>2016-10-27T16:48:35Z</time>
      </trkpt>
      <trkpt lat="43.3836" lon="0.01819">
        <ele>275.098</ele>
        <time>2016-10-27T16:48:55Z</time>
      </trkpt>
      <trkpt lat="43.38326" lon="0.01763">
        <ele>281.093</ele>
        <time>2016-10-27T16:49:15Z</time>
      </trkpt>
      <trkpt lat="43.38311" lon="0.01718">
        <ele>278.093</ele>
        <time>2016-10-27T16:49:35Z</time>
      </trkpt>
      <trkpt lat="43.38265" lon="0.01656">
        <ele>276.072</ele>
        <time>2016-10-27T16:49:55Z</time>
      </trkpt>
      <trkpt lat="43.382" lon="0.01604">
        <ele>281.048</ele>
        <time>2016-10-27T16:50:15Z</time>
      </trkpt>
      <trkpt lat="43.38102" lon="0.01557">
        <ele>280.044</ele>
        <time>2016-10-27T16:50:35Z</time>
      </trkpt>
      <trkpt lat="43.38055" lon="0.01508">
        <ele>284.071</ele>
        <time>2016-10-27T16:50:55Z</time>
      </trkpt>
      <trkpt lat="43.37997" lon="0.0148">
        <ele>284.041</ele>
        <time>2016-10-27T16:51:15Z</time>
      </trkpt>
      <trkpt lat="43.3796" lon="0.0148">
        <ele>284.015</ele>
        <time>2016-10-27T16:51:35Z</time>
      </trkpt>
      <trkpt lat="43.37897" lon="0.0145">
        <ele>287.008</ele>
        <time>2016-10-27T16:51:55Z</time>
      </trkpt>
      <trkpt lat="43.37838" lon="0.01448">
        <ele>288.043</ele>
        <time>2016-10-27T16:52:15Z</time>
      </trkpt>
      <trkpt lat="43.37772" lon="0.0142">
        <ele>292.072</ele>
        <time>2016-10-27T16:52:35Z</time>
      </trkpt>
      <trkpt lat="43.37707" lon="0.01379">
        <ele>286.093</ele>
        <time>2016-10-27T16:52:55Z</time>
      </trkpt>
      <trkpt lat="43.37668" lon="0.01478">
        <ele>298.048</ele>
        <time>2016-10-27T16:53:15Z</time>
      </trkpt>
      <trkpt lat="43.3762" lon="0.01624">
        <ele>311.058</ele>
        <time>2016-10-27T16:53:35Z</time>
      </trkpt>
      <trkpt lat="43.37585" lon="0.01671">
        <ele>311.057</ele>
        <time>2016-10-27T16:53:55Z</time>
      </trkpt>
      <trkpt lat="43.37578" lon="0.01832">
        <ele>299.073</ele>
        <time>2016-10-27T16:54:15Z</time>
      </trkpt>
      <trkpt lat="43.37539" lon="0.01933">
        <ele>285.089</ele>
        <time>2016-10-27T16:54:35Z</time>
      </trkpt>
      <trkpt lat="43.375" lon="0.01928">
        <ele>286.064</ele>
        <time>2016-10-27T16:54:55Z</time>
      </trkpt>
      <trkpt lat="43.37443" lon="0.01907">
        <ele>293.006</ele>
        <time>2016-10-27T16:55:15Z</time>
      </trkpt>
      <trkpt lat="43.37334" lon="0.01913">
        <ele>289.016</ele>
        <time>2016-10-27T16:55:35Z</time>
      </trkpt>
      <trkpt lat="43.37266" lon="0.0189">
        <ele>289.008</ele>
        <time>2016-10-27T16:55:55Z</time>
      </trkpt>
      <trkpt lat="43.37227" lon="0.01821">
        <ele>292.082</ele>
        <time>2016-10-27T16:56:15Z</time>
      </trkpt>
      <trkpt lat="43.37013" lon="0.01652">
        <ele>297.021</ele>
        <time>2016-10-27T16:56:35Z</time>
      </trkpt>
      <trkpt lat="43.36966" lon="0.01671">
        <ele>287.012</ele>
        <time>2016-10-27T16:56:55Z</time>
      </trkpt>
      <trkpt lat="43.36936" lon="0.01725">
        <ele>284.067</ele>
        <time>2016-10-27T16:57:15Z</time>
      </trkpt>
      <trkpt lat="43.36922" lon="0.01679">
        <ele>287.087</ele>
        <time>2016-10-27T16:57:35Z</time>
      </trkpt>
      <trkpt lat="43.3691" lon="0.01703">
        <ele>282.036</ele>
        <time>2016-10-27T16:57:55Z</time>
      </trkpt>
      <trkpt lat="43.36924" lon="0.01787">
        <ele>277.052</ele>
        <time>2016-10-27T16:58:15Z</time>
      </trkpt>
      <trkpt lat="43.36901" lon="0.01935">
        <ele>269.018</ele>
        <time>2016-10-27T16:58:35Z</time>
      </trkpt>
      <trkpt lat="43.36912" lon="0.02044">
        <ele>268.045</ele>
        <time>2016-10-27T16:58:55Z</time>
      </trkpt>
      <trkpt lat="43.36924" lon="0.02169">
        <ele>267.047</ele>
        <time>2016-10-27T16:59:15Z</time>
      </trkpt>
      <trkpt lat="43.3694" lon="0.02212">
        <ele>267.011</ele>
        <time>2016-10-27T16:59:35Z</time>
      </trkpt>
      <trkpt lat="43.36974" lon="0.02218">
        <ele>264.008</ele>
        <time>2016-10-27T16:59:55Z</time>
      </trkpt>
      <trkpt lat="43.36985" lon="0.02255">
        <ele>266.05</ele>
        <time>2016-10-27T17:00:15Z</time>
      </trkpt>
      <trkpt lat="43.36983" lon="0.0233">
        <ele>266.069</ele>
        <time>2016-10-27T17:00:35Z</time>
      </trkpt>
      <trkpt lat="43.36954" lon="0.02413">
        <ele>275.01</ele>
        <time>2016-10-27T17:00:55Z</time>
      </trkpt>
      <trkpt lat="43.36963" lon="0.02458">
        <ele>279.055</ele>
        <time>2016-10-27T17:01:15Z</time>
      </trkpt>
      <trkpt lat="43.36971" lon="0.02531">
        <ele>286.075</ele>
        <time>2016-10-27T17:01:35Z</time>
      </trkpt>
      <trkpt lat="43.37018" lon="0.02557">
        <ele>277.084</ele>
        <time>2016-10-27T17:01:55Z</time>
      </trkpt>
      <trkpt lat="43.37043" lon="0.02615">
        <ele>282.07</ele>
        <time>2016-10-27T17:02:15Z</time>
      </trkpt>
      <trkpt lat="43.37072" lon="0.02643">
        <ele>281.046</ele>
        <time>2016-10-27T17:02:35Z</time>
      </trkpt>
      <trkpt lat="43.37089" lon="0.02692">
        <ele>279.065</ele>
        <time>2016-10-27T17:02:55Z</time>
      </trkpt>
      <trkpt lat="43.3708" lon="0.02727">
        <ele>281.068</ele>
        <time>2016-10-27T17:03:15Z</time>
      </trkpt>
      <trkpt lat="43.37127" lon="0.02755">
        <ele>280.814</ele>
        <time>2021-02-12T16:13:03Z</time>
      </trkpt>
      <trkpt lat="43.37147" lon="0.02773">
        <ele>280.808</ele>
        <time>2021-02-12T16:13:23Z</time>
      </trkpt>
      <trkpt lat="43.37153" lon="0.02768">
        <ele>281.242</ele>
        <time>2021-02-12T16:13:43Z</time>
      </trkpt>
      <trkpt lat="43.37206" lon="0.0278">
        <ele>282.051</ele>
        <time>2016-10-27T17:03:55Z</time>
      </trkpt>
      <trkpt lat="43.37253" lon="0.02776">
        <ele>282.122</ele>
        <time>2021-02-12T16:14:23Z</time>
      </trkpt>
      <trkpt lat="43.37255" lon="0.028">
        <ele>283.037</ele>
        <time>2016-10-27T17:04:35Z</time>
      </trkpt>
      <trkpt lat="43.37239" lon="0.02849">
        <ele>285.067</ele>
        <time>2016-10-27T17:04:55Z</time>
      </trkpt>
      <trkpt lat="43.37244" lon="0.02863">
        <ele>286.056</ele>
        <time>2021-02-12T16:15:23Z</time>
      </trkpt>
      <trkpt lat="43.37235" lon="0.02869">
        <ele>285.032</ele>
        <time>2021-02-12T16:15:43Z</time>
      </trkpt>
      <trkpt lat="43.3724" lon="0.0292">
        <ele>284.218</ele>
        <time>2021-02-12T16:16:03Z</time>
      </trkpt>
      <trkpt lat="43.37252" lon="0.02962">
        <ele>281.148</ele>
        <time>2021-02-12T16:16:23Z</time>
      </trkpt>
      <trkpt lat="43.37206" lon="0.02978">
        <ele>274.061</ele>
        <time>2016-10-27T17:05:55Z</time>
      </trkpt>
      <trkpt lat="43.3722" lon="0.03061">
        <ele>265.017</ele>
        <time>2016-10-27T17:06:15Z</time>
      </trkpt>
      <trkpt lat="43.37203" lon="0.03085">
        <ele>255.008</ele>
        <time>2016-10-27T17:06:35Z</time>
      </trkpt>
      <trkpt lat="43.37014" lon="0.03076">
        <ele>246.06</ele>
        <time>2016-10-27T17:06:55Z</time>
      </trkpt>
      <trkpt lat="43.36965" lon="0.03147">
        <ele>240.059</ele>
        <time>2016-10-27T17:07:15Z</time>
      </trkpt>
      <trkpt lat="43.36855" lon="0.03194">
        <ele>235.05</ele>
        <time>2016-10-27T17:07:35Z</time>
      </trkpt>
      <trkpt lat="43.36763" lon="0.03184">
        <ele>235.045</ele>
        <time>2016-10-27T17:07:55Z</time>
      </trkpt>
      <trkpt lat="43.36741" lon="0.03229">
        <ele>233.065</ele>
        <time>2016-10-27T17:08:15Z</time>
      </trkpt>
      <trkpt lat="43.36464" lon="0.03227">
        <ele>235.094</ele>
        <time>2016-10-27T17:08:35Z</time>
      </trkpt>
      <trkpt lat="43.36461" lon="0.03259">
        <ele>234.02</ele>
        <time>2016-10-27T17:08:55Z</time>
      </trkpt>
      <trkpt lat="43.36361" lon="0.0337">
        <ele>234.076</ele>
        <time>2016-10-27T17:09:15Z</time>
      </trkpt>
      <trkpt lat="43.36344" lon="0.034">
        <ele>233.076</ele>
        <time>2016-10-27T17:09:35Z</time>
      </trkpt>
      <trkpt lat="43.36177" lon="0.03488">
        <ele>234.09</ele>
        <time>2016-10-27T17:09:55Z</time>
      </trkpt>
      <trkpt lat="43.35985" lon="0.03501">
        <ele>234.019</ele>
        <time>2016-10-27T17:10:15Z</time>
      </trkpt>
      <trkpt lat="43.35837" lon="0.03536">
        <ele>234.008</ele>
        <time>2016-10-27T17:10:35Z</time>
      </trkpt>
      <trkpt lat="43.3576" lon="0.0351">
        <ele>237.063</ele>
        <time>2016-10-27T17:10:55Z</time>
      </trkpt>
      <trkpt lat="43.35706" lon="0.03536">
        <ele>244.012</ele>
        <time>2016-10-27T17:11:15Z</time>
      </trkpt>
      <trkpt lat="43.35688" lon="0.03561">
        <ele>247.023</ele>
        <time>2016-10-27T17:11:35Z</time>
      </trkpt>
      <trkpt lat="43.35603" lon="0.03568">
        <ele>258.078</ele>
        <time>2016-10-27T17:11:55Z</time>
      </trkpt>
      <trkpt lat="43.35476" lon="0.03527">
        <ele>279.078</ele>
        <time>2016-10-27T17:12:15Z</time>
      </trkpt>
      <trkpt lat="43.35364" lon="0.03533">
        <ele>285.097</ele>
        <time>2016-10-27T17:12:35Z</time>
      </trkpt>
      <trkpt lat="43.35286" lon="0.03501">
        <ele>294.043</ele>
        <time>2016-10-27T17:12:55Z</time>
      </trkpt>
      <trkpt lat="43.35169" lon="0.03437">
        <ele>301.069</ele>
        <time>2016-10-27T17:13:15Z</time>
      </trkpt>
      <trkpt lat="43.35106" lon="0.03439">
        <ele>303.092</ele>
        <time>2016-10-27T17:13:35Z</time>
      </trkpt>
      <trkpt lat="43.35036" lon="0.03394">
        <ele>306.073</ele>
        <time>2016-10-27T17:13:55Z</time>
      </trkpt>
      <trkpt lat="43.34969" lon="0.03325">
        <ele>308.02</ele>
        <time>2016-10-27T17:14:15Z</time>
      </trkpt>
      <trkpt lat="43.3489" lon="0.03197">
        <ele>308.008</ele>
        <time>2016-10-27T17:14:35Z</time>
      </trkpt>
      <trkpt lat="43.34813" lon="0.03151">
        <ele>306.035</ele>
        <time>2016-10-27T17:14:55Z</time>
      </trkpt>
      <trkpt lat="43.34712" lon="0.03106">
        <ele>307.044</ele>
        <time>2016-10-27T17:15:15Z</time>
      </trkpt>
      <trkpt lat="43.34621" lon="0.02988">
        <ele>321.025</ele>
        <time>2016-10-27T17:15:35Z</time>
      </trkpt>
      <trkpt lat="43.3457" lon="0.02982">
        <ele>325.09</ele>
        <time>2016-10-27T17:15:55Z</time>
      </trkpt>
      <trkpt lat="43.34457" lon="0.02892">
        <ele>331.01</ele>
        <time>2016-10-27T17:16:15Z</time>
      </trkpt>
      <trkpt lat="43.34428" lon="0.02903">
        <ele>331.089</ele>
        <time>2016-10-27T17:16:35Z</time>
      </trkpt>
      <trkpt lat="43.34362" lon="0.02866">
        <ele>334.015</ele>
        <time>2016-10-27T17:16:55Z</time>
      </trkpt>
      <trkpt lat="43.34317" lon="0.02834">
        <ele>336.011</ele>
        <time>2016-10-27T17:17:15Z</time>
      </trkpt>
      <trkpt lat="43.34255" lon="0.02785">
        <ele>338.097</ele>
        <time>2016-10-27T17:17:35Z</time>
      </trkpt>
      <trkpt lat="43.34215" lon="0.02735">
        <ele>340.023</ele>
        <time>2016-10-27T17:17:55Z</time>
      </trkpt>
      <trkpt lat="43.34139" lon="0.02679">
        <ele>342.025</ele>
        <time>2016-10-27T17:18:15Z</time>
      </trkpt>
      <trkpt lat="43.34106" lon="0.02641">
        <ele>342.008</ele>
        <time>2016-10-27T17:18:35Z</time>
      </trkpt>
      <trkpt lat="43.34055" lon="0.02596">
        <ele>343.015</ele>
        <time>2016-10-27T17:18:55Z</time>
      </trkpt>
      <trkpt lat="43.34027" lon="0.0254">
        <ele>342.094</ele>
        <time>2016-10-27T17:19:15Z</time>
      </trkpt>
      <trkpt lat="43.33858" lon="0.02403">
        <ele>343.095</ele>
        <time>2016-10-27T17:19:35Z</time>
      </trkpt>
      <trkpt lat="43.33727" lon="0.02171">
        <ele>341.02</ele>
        <time>2016-10-27T17:19:55Z</time>
      </trkpt>
      <trkpt lat="43.33215" lon="0.01617">
        <ele>339.029</ele>
        <time>2016-10-27T17:20:35Z</time>
      </trkpt>
      <trkpt lat="43.33203" lon="0.01645">
        <ele>340.035</ele>
        <time>2016-10-27T17:20:55Z</time>
      </trkpt>
      <trkpt lat="43.33173" lon="0.016">
        <ele>340.041</ele>
        <time>2016-10-27T17:21:15Z</time>
      </trkpt>
      <trkpt lat="43.33115" lon="0.01555">
        <ele>342.079</ele>
        <time>2016-10-27T17:21:35Z</time>
      </trkpt>
      <trkpt lat="43.33089" lon="0.01508">
        <ele>343.005</ele>
        <time>2016-10-27T17:21:55Z</time>
      </trkpt>
      <trkpt lat="43.33053" lon="0.01488">
        <ele>343.025</ele>
        <time>2016-10-27T17:22:15Z</time>
      </trkpt>
      <trkpt lat="43.33028" lon="0.01452">
        <ele>342.008</ele>
        <time>2016-10-27T17:22:35Z</time>
      </trkpt>
      <trkpt lat="43.32783" lon="0.01283">
        <ele>343.023</ele>
        <time>2016-10-27T17:22:55Z</time>
      </trkpt>
      <trkpt lat="43.32511" lon="0.00989">
        <ele>339.052</ele>
        <time>2016-10-27T17:23:15Z</time>
      </trkpt>
      <trkpt lat="43.32514" lon="0.00911">
        <ele>338.043</ele>
        <time>2016-10-27T17:23:35Z</time>
      </trkpt>
      <trkpt lat="43.32375" lon="0.00658">
        <ele>344.078</ele>
        <time>2016-10-27T17:23:55Z</time>
      </trkpt>
      <trkpt lat="43.3235" lon="0.00654">
        <ele>346.038</ele>
        <time>2016-10-27T17:24:15Z</time>
      </trkpt>
      <trkpt lat="43.32219" lon="0.00574">
        <ele>350.017</ele>
        <time>2016-10-27T17:24:35Z</time>
      </trkpt>
      <trkpt lat="43.31937" lon="0.00566">
        <ele>353.053</ele>
        <time>2016-10-27T17:24:55Z</time>
      </trkpt>
      <trkpt lat="43.31835" lon="0.00506">
        <ele>355.089</ele>
        <time>2016-10-27T17:25:15Z</time>
      </trkpt>
      <trkpt lat="43.31684" lon="0.00334">
        <ele>353.075</ele>
        <time>2016-10-27T17:25:35Z</time>
      </trkpt>
      <trkpt lat="43.31648" lon="0.00268">
        <ele>353.028</ele>
        <time>2016-10-27T17:25:55Z</time>
      </trkpt>
      <trkpt lat="43.31573" lon="0.00137">
        <ele>350.02</ele>
        <time>2016-10-27T17:26:15Z</time>
      </trkpt>
      <trkpt lat="43.31542" lon="6.0E-5">
        <ele>349.008</ele>
        <time>2016-10-27T17:26:35Z</time>
      </trkpt>
      <trkpt lat="43.31534" lon="0.00019">
        <ele>349.053</ele>
        <time>2016-10-27T17:26:55Z</time>
      </trkpt>
      <trkpt lat="43.31534" lon="0.00064">
        <ele>349.062</ele>
        <time>2016-10-27T17:27:15Z</time>
      </trkpt>
      <trkpt lat="43.31514" lon="0.00119">
        <ele>349.073</ele>
        <time>2016-10-27T17:27:35Z</time>
      </trkpt>
      <trkpt lat="43.31478" lon="0.00154">
        <ele>343.018</ele>
        <time>2016-10-27T17:27:55Z</time>
      </trkpt>
      <trkpt lat="43.31471" lon="0.00205">
        <ele>342.038</ele>
        <time>2016-10-27T17:28:15Z</time>
      </trkpt>
      <trkpt lat="43.31421" lon="0.00248">
        <ele>333.057</ele>
        <time>2016-10-27T17:28:35Z</time>
      </trkpt>
      <trkpt lat="43.3139" lon="0.0033">
        <ele>322.043</ele>
        <time>2016-10-27T17:28:55Z</time>
      </trkpt>
      <trkpt lat="43.3139" lon="0.00495">
        <ele>308.079</ele>
        <time>2016-10-27T17:29:15Z</time>
      </trkpt>
      <trkpt lat="43.31328" lon="0.0057">
        <ele>293.032</ele>
        <time>2016-10-27T17:29:35Z</time>
      </trkpt>
      <trkpt lat="43.31287" lon="0.00671">
        <ele>282.092</ele>
        <time>2016-10-27T17:29:55Z</time>
      </trkpt>
      <trkpt lat="43.31254" lon="0.00637">
        <ele>285.011</ele>
        <time>2016-10-27T17:30:15Z</time>
      </trkpt>
      <trkpt lat="43.31184" lon="0.00547">
        <ele>285.008</ele>
        <time>2016-10-27T17:30:35Z</time>
      </trkpt>
      <trkpt lat="43.31119" lon="0.00486">
        <ele>284.069</ele>
        <time>2016-10-27T17:30:55Z</time>
      </trkpt>
      <trkpt lat="43.31097" lon="0.00448">
        <ele>285.058</ele>
        <time>2016-10-27T17:31:15Z</time>
      </trkpt>
      <trkpt lat="43.31009" lon="0.00405">
        <ele>285.069</ele>
        <time>2016-10-27T17:31:35Z</time>
      </trkpt>
      <trkpt lat="43.30952" lon="0.00366">
        <ele>282.084</ele>
        <time>2016-10-27T17:31:55Z</time>
      </trkpt>
      <trkpt lat="43.30895" lon="0.00293">
        <ele>283.034</ele>
        <time>2016-10-27T17:32:15Z</time>
      </trkpt>
      <trkpt lat="43.30864" lon="0.00259">
        <ele>283.093</ele>
        <time>2016-10-27T17:32:35Z</time>
      </trkpt>
      <trkpt lat="43.30805" lon="0.00165">
        <ele>288.099</ele>
        <time>2016-10-27T17:32:55Z</time>
      </trkpt>
      <trkpt lat="43.30747" lon="0.00119">
        <ele>288.035</ele>
        <time>2016-10-27T17:33:15Z</time>
      </trkpt>
      <trkpt lat="43.30628" lon="0.00038">
        <ele>292.097</ele>
        <time>2016-10-27T17:33:35Z</time>
      </trkpt>
      <trkpt lat="43.30577" lon="-9.0E-5">
        <ele>295.023</ele>
        <time>2016-10-27T17:33:55Z</time>
      </trkpt>
      <trkpt lat="43.30555" lon="-0.00048">
        <ele>299.025</ele>
        <time>2016-10-27T17:34:15Z</time>
      </trkpt>
      <trkpt lat="43.30517" lon="-0.00067">
        <ele>298.008</ele>
        <time>2016-10-27T17:34:35Z</time>
      </trkpt>
      <trkpt lat="43.30535" lon="-0.00145">
        <ele>308.095</ele>
        <time>2016-10-27T17:34:55Z</time>
      </trkpt>
      <trkpt lat="43.30508" lon="-0.00145">
        <ele>307.064</ele>
        <time>2016-10-27T17:35:15Z</time>
      </trkpt>
      <trkpt lat="43.30477" lon="-0.00153">
        <ele>304.015</ele>
        <time>2016-10-27T17:35:35Z</time>
      </trkpt>
      <trkpt lat="43.30321" lon="0.00212">
        <ele>286.03</ele>
        <time>2016-10-27T17:35:55Z</time>
      </trkpt>
      <trkpt lat="43.3028" lon="0.0021">
        <ele>286.02</ele>
        <time>2016-10-27T17:36:15Z</time>
      </trkpt>
      <trkpt lat="43.30249" lon="0.00235">
        <ele>286.089</ele>
        <time>2016-10-27T17:36:35Z</time>
      </trkpt>
      <trkpt lat="43.30216" lon="0.00409">
        <ele>287.045</ele>
        <time>2016-10-27T17:36:55Z</time>
      </trkpt>
      <trkpt lat="43.3016" lon="0.00396">
        <ele>285.021</ele>
        <time>2016-10-27T17:37:15Z</time>
      </trkpt>
      <trkpt lat="43.30133" lon="0.00401">
        <ele>285.044</ele>
        <time>2016-10-27T17:37:35Z</time>
      </trkpt>
      <trkpt lat="43.30043" lon="0.00336">
        <ele>285.005</ele>
        <time>2016-10-27T17:37:55Z</time>
      </trkpt>
      <trkpt lat="43.30029" lon="0.00345">
        <ele>286.015</ele>
        <time>2016-10-27T17:38:15Z</time>
      </trkpt>
      <trkpt lat="43.30019" lon="0.00403">
        <ele>286.008</ele>
        <time>2016-10-27T17:38:35Z</time>
      </trkpt>
      <trkpt lat="43.29988" lon="0.00486">
        <ele>287.04</ele>
        <time>2016-10-27T17:38:55Z</time>
      </trkpt>
      <trkpt lat="43.29962" lon="0.00587">
        <ele>301.059</ele>
        <time>2016-10-27T17:39:15Z</time>
      </trkpt>
      <trkpt lat="43.2989" lon="0.00619">
        <ele>314.04</ele>
        <time>2016-10-27T17:39:35Z</time>
      </trkpt>
      <trkpt lat="43.29827" lon="0.00568">
        <ele>308.085</ele>
        <time>2016-10-27T17:39:55Z</time>
      </trkpt>
      <trkpt lat="43.29791" lon="0.00553">
        <ele>305.085</ele>
        <time>2016-10-27T17:40:15Z</time>
      </trkpt>
      <trkpt lat="43.29715" lon="0.00544">
        <ele>305.054</ele>
        <time>2016-10-27T17:40:35Z</time>
      </trkpt>
      <trkpt lat="43.29699" lon="0.0057">
        <ele>306.07</ele>
        <time>2016-10-27T17:40:55Z</time>
      </trkpt>
      <trkpt lat="43.29699" lon="0.00596">
        <ele>315.086</ele>
        <time>2016-10-27T17:41:15Z</time>
      </trkpt>
      <trkpt lat="43.29676" lon="0.00604">
        <ele>314.059</ele>
        <time>2016-10-27T17:41:35Z</time>
      </trkpt>
      <trkpt lat="43.29521" lon="0.0054">
        <ele>311.003</ele>
        <time>2016-10-27T17:41:55Z</time>
      </trkpt>
      <trkpt lat="43.2951" lon="0.00557">
        <ele>314.023</ele>
        <time>2016-10-27T17:42:15Z</time>
      </trkpt>
      <trkpt lat="43.29426" lon="0.00551">
        <ele>317.008</ele>
        <time>2016-10-27T17:42:35Z</time>
      </trkpt>
      <trkpt lat="43.29421" lon="0.00566">
        <ele>319.091</ele>
        <time>2016-10-27T17:42:55Z</time>
      </trkpt>
      <trkpt lat="43.29384" lon="0.00602">
        <ele>327.03</ele>
        <time>2016-10-27T17:43:15Z</time>
      </trkpt>
      <trkpt lat="43.29337" lon="0.0063">
        <ele>328.051</ele>
        <time>2016-10-27T17:43:35Z</time>
      </trkpt>
      <trkpt lat="43.29309" lon="0.00692">
        <ele>337.086</ele>
        <time>2016-10-27T17:43:55Z</time>
      </trkpt>
      <trkpt lat="43.29304" lon="0.00783">
        <ele>347.026</ele>
        <time>2016-10-27T17:44:15Z</time>
      </trkpt>
      <trkpt lat="43.29295" lon="0.00836">
        <ele>353.075</ele>
        <time>2016-10-27T17:44:35Z</time>
      </trkpt>
      <trkpt lat="43.29301" lon="0.00886">
        <ele>355.091</ele>
        <time>2016-10-27T17:44:55Z</time>
      </trkpt>
      <trkpt lat="43.29273" lon="0.01008">
        <ele>360.047</ele>
        <time>2016-10-27T17:45:15Z</time>
      </trkpt>
      <trkpt lat="43.29254" lon="0.0104">
        <ele>361.059</ele>
        <time>2016-10-27T17:45:35Z</time>
      </trkpt>
      <trkpt lat="43.29106" lon="0.00993">
        <ele>373.003</ele>
        <time>2016-10-27T17:45:55Z</time>
      </trkpt>
      <trkpt lat="43.29018" lon="0.00896">
        <ele>376.023</ele>
        <time>2016-10-27T17:46:15Z</time>
      </trkpt>
      <trkpt lat="43.28946" lon="0.00834">
        <ele>374.008</ele>
        <time>2016-10-27T17:46:35Z</time>
      </trkpt>
      <trkpt lat="43.28893" lon="0.00791">
        <ele>375.031</ele>
        <time>2016-10-27T17:46:55Z</time>
      </trkpt>
      <trkpt lat="43.2875" lon="0.0075">
        <ele>372.02</ele>
        <time>2016-10-27T17:47:15Z</time>
      </trkpt>
      <trkpt lat="43.28542" lon="0.0068">
        <ele>376.031</ele>
        <time>2016-10-27T17:47:35Z</time>
      </trkpt>
      <trkpt lat="43.28512" lon="0.00695">
        <ele>375.016</ele>
        <time>2016-10-27T17:47:55Z</time>
      </trkpt>
      <trkpt lat="43.28475" lon="0.00727">
        <ele>376.046</ele>
        <time>2016-10-27T17:48:15Z</time>
      </trkpt>
      <trkpt lat="43.28407" lon="0.00703">
        <ele>379.025</ele>
        <time>2016-10-27T17:48:35Z</time>
      </trkpt>
      <trkpt lat="43.28286" lon="0.00572">
        <ele>379.061</ele>
        <time>2016-10-27T17:48:55Z</time>
      </trkpt>
      <trkpt lat="43.28211" lon="0.00553">
        <ele>378.097</ele>
        <time>2016-10-27T17:49:15Z</time>
      </trkpt>
      <trkpt lat="43.28156" lon="0.00491">
        <ele>375.049</ele>
        <time>2016-10-27T17:49:35Z</time>
      </trkpt>
      <trkpt lat="43.28179" lon="0.0042">
        <ele>375.002</ele>
        <time>2016-10-27T17:49:55Z</time>
      </trkpt>
      <trkpt lat="43.28106" lon="0.00459">
        <ele>374.022</ele>
        <time>2016-10-27T17:50:15Z</time>
      </trkpt>
      <trkpt lat="43.28048" lon="0.00465">
        <ele>375.008</ele>
        <time>2016-10-27T17:50:35Z</time>
      </trkpt>
      <trkpt lat="43.27975" lon="0.00547">
        <ele>383.09</ele>
        <time>2016-10-27T17:50:55Z</time>
      </trkpt>
      <trkpt lat="43.27078" lon="0.0016">
        <ele>383.079</ele>
        <time>2016-10-27T17:51:15Z</time>
      </trkpt>
      <trkpt lat="43.27109" lon="0.00077">
        <ele>377.07</ele>
        <time>2016-10-27T17:51:35Z</time>
      </trkpt>
      <trkpt lat="43.27078" lon="0.00021">
        <ele>376.045</ele>
        <time>2016-10-27T17:51:55Z</time>
      </trkpt>
      <trkpt lat="43.27009" lon="-0.00061">
        <ele>375.025</ele>
        <time>2016-10-27T17:52:15Z</time>
      </trkpt>
      <trkpt lat="43.26973" lon="-0.00069">
        <ele>377.064</ele>
        <time>2016-10-27T17:52:35Z</time>
      </trkpt>
      <trkpt lat="43.26919" lon="-0.00097">
        <ele>374.06</ele>
        <time>2016-10-27T17:52:55Z</time>
      </trkpt>
      <trkpt lat="43.26844" lon="-0.0013">
        <ele>371.066</ele>
        <time>2016-10-27T17:53:15Z</time>
      </trkpt>
      <trkpt lat="43.26819" lon="-0.00157">
        <ele>368.066</ele>
        <time>2016-10-27T17:53:35Z</time>
      </trkpt>
      <trkpt lat="43.26726" lon="-0.00228">
        <ele>364.029</ele>
        <time>2016-10-27T17:53:55Z</time>
      </trkpt>
      <trkpt lat="43.26616" lon="-0.00363">
        <ele>373.021</ele>
        <time>2016-10-27T17:54:15Z</time>
      </trkpt>
      <trkpt lat="43.26581" lon="-0.00451">
        <ele>373.008</ele>
        <time>2016-10-27T17:54:35Z</time>
      </trkpt>
      <trkpt lat="43.2653" lon="-0.00531">
        <ele>377.092</ele>
        <time>2016-10-27T17:54:55Z</time>
      </trkpt>
      <trkpt lat="43.26442" lon="-0.0067">
        <ele>386.061</ele>
        <time>2016-10-27T17:55:15Z</time>
      </trkpt>
      <trkpt lat="43.26348" lon="-0.00805">
        <ele>390.052</ele>
        <time>2016-10-27T17:55:35Z</time>
      </trkpt>
      <trkpt lat="43.26242" lon="-0.00986">
        <ele>389.057</ele>
        <time>2016-10-27T17:55:55Z</time>
      </trkpt>
      <trkpt lat="43.26159" lon="-0.01138">
        <ele>393.127</ele>
        <time>2021-02-12T17:07:03Z</time>
      </trkpt>
      <trkpt lat="43.26085" lon="-0.00979">
        <ele>362.616</ele>
        <time>2021-02-12T17:07:23Z</time>
      </trkpt>
      <trkpt lat="43.26103" lon="-0.00923">
        <ele>358.762</ele>
        <time>2021-02-12T17:07:43Z</time>
      </trkpt>
      <trkpt lat="43.26095" lon="-0.00854">
        <ele>349.588</ele>
        <time>2021-02-12T17:08:03Z</time>
      </trkpt>
      <trkpt lat="43.26117" lon="-0.00813">
        <ele>348.714</ele>
        <time>2021-02-12T17:08:23Z</time>
      </trkpt>
      <trkpt lat="43.26124" lon="-0.00761">
        <ele>343.754</ele>
        <time>2021-02-12T17:08:43Z</time>
      </trkpt>
      <trkpt lat="43.26106" lon="-0.00658">
        <ele>330.309</ele>
        <time>2021-02-12T17:09:03Z</time>
      </trkpt>
      <trkpt lat="43.26078" lon="-0.00595">
        <ele>320.008</ele>
        <time>2021-02-12T17:09:23Z</time>
      </trkpt>
      <trkpt lat="43.26079" lon="-0.00578">
        <ele>318.337</ele>
        <time>2021-02-12T17:09:43Z</time>
      </trkpt>
      <trkpt lat="43.2606" lon="-0.00553">
        <ele>315.036</ele>
        <time>2021-02-12T17:10:03Z</time>
      </trkpt>
      <trkpt lat="43.25863" lon="-0.00534">
        <ele>308.127</ele>
        <time>2021-02-12T17:10:23Z</time>
      </trkpt>
      <trkpt lat="43.25846" lon="-0.00467">
        <ele>306.892</ele>
        <time>2021-02-12T17:10:43Z</time>
      </trkpt>
      <trkpt lat="43.25775" lon="-0.00404">
        <ele>304.362</ele>
        <time>2021-02-12T17:11:03Z</time>
      </trkpt>
      <trkpt lat="43.25683" lon="-0.00352">
        <ele>309.031</ele>
        <time>2021-02-12T17:11:23Z</time>
      </trkpt>
      <trkpt lat="43.25652" lon="-0.00314">
        <ele>310.787</ele>
        <time>2021-02-12T17:11:43Z</time>
      </trkpt>
      <trkpt lat="43.25587" lon="-0.00147">
        <ele>308.153</ele>
        <time>2021-02-12T17:12:03Z</time>
      </trkpt>
      <trkpt lat="43.25467" lon="-0.0005">
        <ele>309.643</ele>
        <time>2021-02-12T17:12:23Z</time>
      </trkpt>
      <trkpt lat="43.25141" lon="-0.00158">
        <ele>313.064</ele>
        <time>2021-02-12T17:12:43Z</time>
      </trkpt>
      <trkpt lat="43.25123" lon="-0.00208">
        <ele>313.01</ele>
        <time>2021-02-12T17:13:03Z</time>
      </trkpt>
      <trkpt lat="43.25084" lon="-0.00225">
        <ele>314.008</ele>
        <time>2021-02-12T17:13:23Z</time>
      </trkpt>
      <trkpt lat="43.25054" lon="-0.00284">
        <ele>314.03</ele>
        <time>2021-02-12T17:13:43Z</time>
      </trkpt>
      <trkpt lat="43.24269" lon="-0.00386">
        <ele>314.619</ele>
        <time>2021-02-12T17:14:03Z</time>
      </trkpt>
      <trkpt lat="43.24017" lon="-0.00407">
        <ele>316.72</ele>
        <time>2021-02-12T17:14:23Z</time>
      </trkpt>
      <trkpt lat="43.23991" lon="-0.00428">
        <ele>316.885</ele>
        <time>2021-02-12T17:14:43Z</time>
      </trkpt>
      <trkpt lat="43.23916" lon="-0.00284">
        <ele>316.235</ele>
        <time>2021-02-12T17:15:03Z</time>
      </trkpt>
      <trkpt lat="43.2389" lon="-0.00212">
        <ele>316.424</ele>
        <time>2021-02-12T17:15:23Z</time>
      </trkpt>
      <trkpt lat="43.23868" lon="-0.00188">
        <ele>316.19</ele>
        <time>2021-02-12T17:15:43Z</time>
      </trkpt>
      <trkpt lat="43.23822" lon="-0.00167">
        <ele>316.116</ele>
        <time>2021-02-12T17:16:03Z</time>
      </trkpt>
      <trkpt lat="43.23824" lon="-0.00097">
        <ele>315.482</ele>
        <time>2021-02-12T17:16:23Z</time>
      </trkpt>
      <trkpt lat="43.23813" lon="-0.00069">
        <ele>315.443</ele>
        <time>2021-02-12T17:16:43Z</time>
      </trkpt>
      <trkpt lat="43.23787" lon="-0.00053">
        <ele>316.217</ele>
        <time>2021-02-12T17:17:03Z</time>
      </trkpt>
      <trkpt lat="43.23761" lon="7.0E-5">
        <ele>317.408</ele>
        <time>2021-02-12T17:17:23Z</time>
      </trkpt>
      <trkpt lat="43.23702" lon="0.00189">
        <ele>320.114</ele>
        <time>2021-02-12T17:17:43Z</time>
      </trkpt>
      <trkpt lat="43.23556" lon="0.00202">
        <ele>319.523</ele>
        <time>2021-02-12T17:18:03Z</time>
      </trkpt>
      <trkpt lat="43.2347" lon="0.00194">
        <ele>319.834</ele>
        <time>2021-02-12T17:18:23Z</time>
      </trkpt>
      <trkpt lat="43.23403" lon="0.00171">
        <ele>320.389</ele>
        <time>2021-02-12T17:18:43Z</time>
      </trkpt>
      <trkpt lat="43.23392" lon="0.00151">
        <ele>320.699</ele>
        <time>2021-02-12T17:19:03Z</time>
      </trkpt>
      <trkpt lat="43.23357" lon="0.00135">
        <ele>321.098</ele>
        <time>2016-10-27T18:15:55Z</time>
      </trkpt>
      <trkpt lat="43.23252" lon="0.0008">
        <ele>322.024</ele>
        <time>2016-10-27T18:16:15Z</time>
      </trkpt>
      <trkpt lat="43.23178" lon="0.0006">
        <ele>321.094</ele>
        <time>2016-10-27T18:16:55Z</time>
      </trkpt>
      <trkpt lat="43.23103" lon="0.00017">
        <ele>321.057</ele>
        <time>2016-10-27T18:17:15Z</time>
      </trkpt>
      <trkpt lat="43.231" lon="-0.00079">
        <ele>322.022</ele>
        <time>2016-10-27T18:17:35Z</time>
      </trkpt>
      <trkpt lat="43.23057" lon="-0.00114">
        <ele>323.008</ele>
        <time>2016-10-27T18:17:55Z</time>
      </trkpt>
      <trkpt lat="43.23013" lon="-0.00131">
        <ele>323.095</ele>
        <time>2016-10-27T18:18:15Z</time>
      </trkpt>
      <trkpt lat="43.22949" lon="-0.00184">
        <ele>324.034</ele>
        <time>2016-10-27T18:18:35Z</time>
      </trkpt>
      <trkpt lat="43.22958" lon="-0.00283">
        <ele>324.045</ele>
        <time>2016-10-27T18:18:55Z</time>
      </trkpt>
      <trkpt lat="43.22867" lon="-0.00553">
        <ele>324.01</ele>
        <time>2016-10-27T18:19:15Z</time>
      </trkpt>
      <trkpt lat="43.22861" lon="-0.00631">
        <ele>324.08</ele>
        <time>2016-10-27T18:19:35Z</time>
      </trkpt>
      <trkpt lat="43.22899" lon="-0.00888">
        <ele>325.049</ele>
        <time>2016-10-27T18:19:55Z</time>
      </trkpt>
      <trkpt lat="43.22914" lon="-0.01227">
        <ele>325.045</ele>
        <time>2016-10-27T18:20:15Z</time>
      </trkpt>
      <trkpt lat="43.22997" lon="-0.01489">
        <ele>326.041</ele>
        <time>2016-10-27T18:20:35Z</time>
      </trkpt>
      <trkpt lat="43.2311" lon="-0.01431">
        <ele>323.062</ele>
        <time>2016-10-27T18:20:55Z</time>
      </trkpt>
      <trkpt lat="43.23038" lon="-0.01712">
        <ele>328.083</ele>
        <time>2016-10-27T18:21:15Z</time>
      </trkpt>
      <trkpt lat="43.23028" lon="-0.01787">
        <ele>330.008</ele>
        <time>2016-10-27T18:21:55Z</time>
      </trkpt>
      <trkpt lat="43.23003" lon="-0.01862">
        <ele>333.092</ele>
        <time>2016-10-27T18:22:15Z</time>
      </trkpt>
      <trkpt lat="43.22992" lon="-0.01982">
        <ele>349.031</ele>
        <time>2016-10-27T18:22:35Z</time>
      </trkpt>
      <trkpt lat="43.23074" lon="-0.0206">
        <ele>354.052</ele>
        <time>2016-10-27T18:22:55Z</time>
      </trkpt>
      <trkpt lat="43.23067" lon="-0.02085">
        <ele>359.017</ele>
        <time>2016-10-27T18:23:15Z</time>
      </trkpt>
      <trkpt lat="43.23005" lon="-0.02118">
        <ele>362.037</ele>
        <time>2016-10-27T18:23:35Z</time>
      </trkpt>
      <trkpt lat="43.22946" lon="-0.02116">
        <ele>368.036</ele>
        <time>2016-10-27T18:23:55Z</time>
      </trkpt>
      <trkpt lat="43.229" lon="-0.02154">
        <ele>372.022</ele>
        <time>2016-10-27T18:24:15Z</time>
      </trkpt>
      <trkpt lat="43.22864" lon="-0.02158">
        <ele>373.098</ele>
        <time>2016-10-27T18:24:35Z</time>
      </trkpt>
      <trkpt lat="43.22816" lon="-0.02197">
        <ele>374.082</ele>
        <time>2016-10-27T18:24:55Z</time>
      </trkpt>
      <trkpt lat="43.22627" lon="-0.02186">
        <ele>371.043</ele>
        <time>2016-10-27T18:25:15Z</time>
      </trkpt>
      <trkpt lat="43.22594" lon="-0.02156">
        <ele>363.017</ele>
        <time>2016-10-27T18:25:35Z</time>
      </trkpt>
      <trkpt lat="43.22491" lon="-0.02191">
        <ele>371.074</ele>
        <time>2016-10-27T18:26:15Z</time>
      </trkpt>
      <trkpt lat="43.22392" lon="-0.02251">
        <ele>379.013</ele>
        <time>2016-10-27T18:26:35Z</time>
      </trkpt>
      <trkpt lat="43.22375" lon="-0.02285">
        <ele>380.054</ele>
        <time>2016-10-27T18:26:55Z</time>
      </trkpt>
      <trkpt lat="43.22269" lon="-0.02298">
        <ele>369.099</ele>
        <time>2016-10-27T18:27:15Z</time>
      </trkpt>
      <trkpt lat="43.22215" lon="-0.02332">
        <ele>366.089</ele>
        <time>2016-10-27T18:27:35Z</time>
      </trkpt>
      <trkpt lat="43.22187" lon="-0.02375">
        <ele>378.098</ele>
        <time>2016-10-27T18:27:55Z</time>
      </trkpt>
      <trkpt lat="43.22103" lon="-0.02397">
        <ele>375.094</ele>
        <time>2016-10-27T18:28:15Z</time>
      </trkpt>
      <trkpt lat="43.22065" lon="-0.02446">
        <ele>380.01</ele>
        <time>2016-10-27T18:28:35Z</time>
      </trkpt>
      <trkpt lat="43.22026" lon="-0.02461">
        <ele>379.057</ele>
        <time>2016-10-27T18:28:55Z</time>
      </trkpt>
      <trkpt lat="43.21984" lon="-0.02459">
        <ele>370</ele>
        <time>2016-10-27T18:29:15Z</time>
      </trkpt>
      <trkpt lat="43.21954" lon="-0.02474">
        <ele>368.02</ele>
        <time>2016-10-27T18:29:35Z</time>
      </trkpt>
      <trkpt lat="43.21912" lon="-0.02457">
        <ele>361.008</ele>
        <time>2016-10-27T18:29:55Z</time>
      </trkpt>
      <trkpt lat="43.21871" lon="-0.02403">
        <ele>353.091</ele>
        <time>2016-10-27T18:30:15Z</time>
      </trkpt>
      <trkpt lat="43.21806" lon="-0.02388">
        <ele>352.05</ele>
        <time>2016-10-27T18:30:35Z</time>
      </trkpt>
      <trkpt lat="43.2174" lon="-0.02427">
        <ele>358.081</ele>
        <time>2016-10-27T18:30:55Z</time>
      </trkpt>
      <trkpt lat="43.21707" lon="-0.02455">
        <ele>361.086</ele>
        <time>2016-10-27T18:31:15Z</time>
      </trkpt>
      <trkpt lat="43.2164" lon="-0.02457">
        <ele>358.096</ele>
        <time>2016-10-27T18:31:35Z</time>
      </trkpt>
      <trkpt lat="43.21568" lon="-0.02491">
        <ele>359.025</ele>
        <time>2016-10-27T18:31:55Z</time>
      </trkpt>
      <trkpt lat="43.21513" lon="-0.02489">
        <ele>356.051</ele>
        <time>2016-10-27T18:32:15Z</time>
      </trkpt>
      <trkpt lat="43.21487" lon="-0.02525">
        <ele>361.027</ele>
        <time>2016-10-27T18:32:35Z</time>
      </trkpt>
      <trkpt lat="43.21382" lon="-0.02547">
        <ele>356.014</ele>
        <time>2016-10-27T18:32:55Z</time>
      </trkpt>
      <trkpt lat="43.21347" lon="-0.02573">
        <ele>356.054</ele>
        <time>2016-10-27T18:33:15Z</time>
      </trkpt>
      <trkpt lat="43.21324" lon="-0.02555">
        <ele>352.009</ele>
        <time>2016-10-27T18:33:35Z</time>
      </trkpt>
      <trkpt lat="43.21299" lon="-0.02555">
        <ele>351.008</ele>
        <time>2016-10-27T18:33:55Z</time>
      </trkpt>
      <trkpt lat="43.21288" lon="-0.0265">
        <ele>358.037</ele>
        <time>2016-10-27T18:34:15Z</time>
      </trkpt>
      <trkpt lat="43.21252" lon="-0.02736">
        <ele>363.046</ele>
        <time>2016-10-27T18:34:35Z</time>
      </trkpt>
      <trkpt lat="43.21219" lon="-0.02727">
        <ele>357.037</ele>
        <time>2016-10-27T18:34:55Z</time>
      </trkpt>
      <trkpt lat="43.21199" lon="-0.02706">
        <ele>355.032</ele>
        <time>2016-10-27T18:35:15Z</time>
      </trkpt>
      <trkpt lat="43.21129" lon="-0.02817">
        <ele>359.022</ele>
        <time>2016-10-27T18:35:35Z</time>
      </trkpt>
      <trkpt lat="43.21019" lon="-0.02821">
        <ele>356.061</ele>
        <time>2016-10-27T18:35:55Z</time>
      </trkpt>
      <trkpt lat="43.20994" lon="-0.02804">
        <ele>353.067</ele>
        <time>2016-10-27T18:36:15Z</time>
      </trkpt>
      <trkpt lat="43.20964" lon="-0.02879">
        <ele>357.063</ele>
        <time>2016-10-27T18:36:35Z</time>
      </trkpt>
      <trkpt lat="43.20933" lon="-0.02935">
        <ele>359.013</ele>
        <time>2016-10-27T18:36:55Z</time>
      </trkpt>
      <trkpt lat="43.20977" lon="-0.03055">
        <ele>369.043</ele>
        <time>2016-10-27T18:37:15Z</time>
      </trkpt>
      <trkpt lat="43.20982" lon="-0.03141">
        <ele>377.007</ele>
        <time>2016-10-27T18:37:35Z</time>
      </trkpt>
      <trkpt lat="43.20949" lon="-0.03165">
        <ele>379.008</ele>
        <time>2016-10-27T18:37:55Z</time>
      </trkpt>
      <trkpt lat="43.20889" lon="-0.03169">
        <ele>386.037</ele>
        <time>2016-10-27T18:38:15Z</time>
      </trkpt>
      <trkpt lat="43.20888" lon="-0.03193">
        <ele>387.026</ele>
        <time>2016-10-27T18:38:35Z</time>
      </trkpt>
      <trkpt lat="43.20974" lon="-0.03313">
        <ele>402.017</ele>
        <time>2016-10-27T18:38:55Z</time>
      </trkpt>
      <trkpt lat="43.21038" lon="-0.03487">
        <ele>432.032</ele>
        <time>2016-10-27T18:39:15Z</time>
      </trkpt>
      <trkpt lat="43.21021" lon="-0.03549">
        <ele>438.052</ele>
        <time>2016-10-27T18:39:35Z</time>
      </trkpt>
      <trkpt lat="43.21" lon="-0.03566">
        <ele>438.011</ele>
        <time>2016-10-27T18:39:55Z</time>
      </trkpt>
      <trkpt lat="43.20997" lon="-0.03611">
        <ele>435.057</ele>
        <time>2016-10-27T18:40:15Z</time>
      </trkpt>
      <trkpt lat="43.20999" lon="-0.03667">
        <ele>438.083</ele>
        <time>2016-10-27T18:40:35Z</time>
      </trkpt>
      <trkpt lat="43.20966" lon="-0.03716">
        <ele>437.045</ele>
        <time>2016-10-27T18:40:55Z</time>
      </trkpt>
      <trkpt lat="43.20946" lon="-0.03768">
        <ele>438.047</ele>
        <time>2016-10-27T18:41:15Z</time>
      </trkpt>
      <trkpt lat="43.20889" lon="-0.0377">
        <ele>437.011</ele>
        <time>2016-10-27T18:41:35Z</time>
      </trkpt>
      <trkpt lat="43.20858" lon="-0.03819">
        <ele>438.008</ele>
        <time>2016-10-27T18:41:55Z</time>
      </trkpt>
      <trkpt lat="43.20856" lon="-0.03839">
        <ele>438.07</ele>
        <time>2016-10-27T18:42:15Z</time>
      </trkpt>
      <trkpt lat="43.20828" lon="-0.03881">
        <ele>436.099</ele>
        <time>2016-10-27T18:42:35Z</time>
      </trkpt>
      <trkpt lat="43.20789" lon="-0.03963">
        <ele>437.05</ele>
        <time>2016-10-27T18:42:55Z</time>
      </trkpt>
      <trkpt lat="43.20805" lon="-0.04075">
        <ele>436.055</ele>
        <time>2016-10-27T18:43:15Z</time>
      </trkpt>
      <trkpt lat="43.20666" lon="-0.04212">
        <ele>441.065</ele>
        <time>2016-10-27T18:43:35Z</time>
      </trkpt>
      <trkpt lat="43.20555" lon="-0.04392">
        <ele>442.034</ele>
        <time>2016-10-27T18:43:55Z</time>
      </trkpt>
      <trkpt lat="43.20442" lon="-0.04506">
        <ele>441.07</ele>
        <time>2016-10-27T18:44:15Z</time>
      </trkpt>
      <trkpt lat="43.20259" lon="-0.0459">
        <ele>443.036</ele>
        <time>2016-10-27T18:44:35Z</time>
      </trkpt>
      <trkpt lat="43.20174" lon="-0.04671">
        <ele>446.092</ele>
        <time>2016-10-27T18:44:55Z</time>
      </trkpt>
      <trkpt lat="43.20112" lon="-0.04755">
        <ele>449.073</ele>
        <time>2016-10-27T18:45:15Z</time>
      </trkpt>
      <trkpt lat="43.2006" lon="-0.04851">
        <ele>449.02</ele>
        <time>2016-10-27T18:45:35Z</time>
      </trkpt>
      <trkpt lat="43.1992" lon="-0.05002">
        <ele>454.008</ele>
        <time>2016-10-27T18:45:55Z</time>
      </trkpt>
      <trkpt lat="43.19787" lon="-0.05109">
        <ele>455.035</ele>
        <time>2016-10-27T18:46:15Z</time>
      </trkpt>
      <trkpt lat="43.19666" lon="-0.05227">
        <ele>456.094</ele>
        <time>2016-10-27T18:46:35Z</time>
      </trkpt>
      <trkpt lat="43.19563" lon="-0.05341">
        <ele>459.055</ele>
        <time>2016-10-27T18:46:55Z</time>
      </trkpt>
      <trkpt lat="43.19458" lon="-0.05433">
        <ele>461.08</ele>
        <time>2016-10-27T18:47:15Z</time>
      </trkpt>
      <trkpt lat="43.19295" lon="-0.05579">
        <ele>461.03</ele>
        <time>2016-10-27T18:47:35Z</time>
      </trkpt>
      <trkpt lat="43.19247" lon="-0.05559">
        <ele>461.019</ele>
        <time>2016-10-27T18:47:55Z</time>
      </trkpt>
      <trkpt lat="43.19094" lon="-0.05632">
        <ele>464.075</ele>
        <time>2016-10-27T18:48:15Z</time>
      </trkpt>
      <trkpt lat="43.19026" lon="-0.05622">
        <ele>464.071</ele>
        <time>2016-10-27T18:48:35Z</time>
      </trkpt>
      <trkpt lat="43.18936" lon="-0.05695">
        <ele>466.067</ele>
        <time>2016-10-27T18:48:55Z</time>
      </trkpt>
      <trkpt lat="43.18887" lon="-0.05703">
        <ele>466.081</ele>
        <time>2016-10-27T18:49:15Z</time>
      </trkpt>
      <trkpt lat="43.18666" lon="-0.05903">
        <ele>467.019</ele>
        <time>2016-10-27T18:49:35Z</time>
      </trkpt>
      <trkpt lat="43.18648" lon="-0.05952">
        <ele>468.008</ele>
        <time>2016-10-27T18:49:55Z</time>
      </trkpt>
      <trkpt lat="43.18532" lon="-0.06038">
        <ele>469.072</ele>
        <time>2016-10-27T18:50:15Z</time>
      </trkpt>
      <trkpt lat="43.18529" lon="-0.061">
        <ele>471.071</ele>
        <time>2016-10-27T18:50:35Z</time>
      </trkpt>
      <trkpt lat="43.18463" lon="-0.06332">
        <ele>470.072</ele>
        <time>2016-10-27T18:50:55Z</time>
      </trkpt>
      <trkpt lat="43.18142" lon="-0.06499">
        <ele>473.067</ele>
        <time>2016-10-27T18:51:15Z</time>
      </trkpt>
      <trkpt lat="43.17931" lon="-0.06508">
        <ele>476.027</ele>
        <time>2016-10-27T18:51:35Z</time>
      </trkpt>
      <trkpt lat="43.17847" lon="-0.06534">
        <ele>477.066</ele>
        <time>2016-10-27T18:51:55Z</time>
      </trkpt>
      <trkpt lat="43.17745" lon="-0.06532">
        <ele>477.032</ele>
        <time>2016-10-27T18:52:15Z</time>
      </trkpt>
      <trkpt lat="43.17676" lon="-0.06499">
        <ele>479.038</ele>
        <time>2016-10-27T18:52:35Z</time>
      </trkpt>
      <trkpt lat="43.17535" lon="-0.06527">
        <ele>480.061</ele>
        <time>2016-10-27T18:52:55Z</time>
      </trkpt>
      <trkpt lat="43.17078" lon="-0.06647">
        <ele>487.021</ele>
        <time>2016-10-27T18:53:15Z</time>
      </trkpt>
      <trkpt lat="43.16613" lon="-0.06761">
        <ele>492.013</ele>
        <time>2016-10-27T18:53:35Z</time>
      </trkpt>
      <trkpt lat="43.16598" lon="-0.06785">
        <ele>492.008</ele>
        <time>2016-10-27T18:53:55Z</time>
      </trkpt>
      <trkpt lat="43.16599" lon="-0.06849">
        <ele>489.092</ele>
        <time>2016-10-27T18:54:15Z</time>
      </trkpt>
      <trkpt lat="43.16311" lon="-0.06939">
        <ele>496.061</ele>
        <time>2016-10-27T18:54:35Z</time>
      </trkpt>
      <trkpt lat="43.16307" lon="-0.07008">
        <ele>494.092</ele>
        <time>2016-10-27T18:54:55Z</time>
      </trkpt>
      <trkpt lat="43.16033" lon="-0.07042">
        <ele>501.027</ele>
        <time>2016-10-27T18:55:15Z</time>
      </trkpt>
      <trkpt lat="43.1595" lon="-0.07156">
        <ele>507.087</ele>
        <time>2016-10-27T18:55:35Z</time>
      </trkpt>
      <trkpt lat="43.15599" lon="-0.06909">
        <ele>525.076</ele>
        <time>2016-10-27T18:55:55Z</time>
      </trkpt>
      <trkpt lat="43.15364" lon="-0.06699">
        <ele>528.038</ele>
        <time>2016-10-27T18:56:35Z</time>
      </trkpt>
      <trkpt lat="43.15164" lon="-0.06499">
        <ele>532.099</ele>
        <time>2016-10-27T18:56:55Z</time>
      </trkpt>
      <trkpt lat="43.15043" lon="-0.06362">
        <ele>536.007</ele>
        <time>2016-10-27T18:57:15Z</time>
      </trkpt>
      <trkpt lat="43.14934" lon="-0.06351">
        <ele>537.027</ele>
        <time>2016-10-27T18:57:35Z</time>
      </trkpt>
      <trkpt lat="43.14914" lon="-0.06326">
        <ele>541.008</ele>
        <time>2016-10-27T18:57:55Z</time>
      </trkpt>
      <trkpt lat="43.14899" lon="-0.06343">
        <ele>540.065</ele>
        <time>2016-10-27T18:58:15Z</time>
      </trkpt>
      <trkpt lat="43.14762" lon="-0.06306">
        <ele>543.034</ele>
        <time>2016-10-27T18:58:35Z</time>
      </trkpt>
      <trkpt lat="43.14552" lon="-0.06218">
        <ele>544.045</ele>
        <time>2016-10-27T18:58:55Z</time>
      </trkpt>
      <trkpt lat="43.14038" lon="-0.06135">
        <ele>540.01</ele>
        <time>2016-10-27T18:59:15Z</time>
      </trkpt>
      <trkpt lat="43.13165" lon="-0.05982">
        <ele>546.04</ele>
        <time>2016-10-27T18:59:35Z</time>
      </trkpt>
      <trkpt lat="43.13121" lon="-0.05956">
        <ele>548.019</ele>
        <time>2016-10-27T18:59:55Z</time>
      </trkpt>
      <trkpt lat="43.13071" lon="-0.05956">
        <ele>546.025</ele>
        <time>2016-10-27T19:00:15Z</time>
      </trkpt>
      <trkpt lat="43.12887" lon="-0.05836">
        <ele>541.041</ele>
        <time>2016-10-27T19:00:35Z</time>
      </trkpt>
      <trkpt lat="43.12836" lon="-0.05712">
        <ele>544.091</ele>
        <time>2016-10-27T19:00:55Z</time>
      </trkpt>
      <trkpt lat="43.12822" lon="-0.05615">
        <ele>541.081</ele>
        <time>2016-10-27T19:01:15Z</time>
      </trkpt>
      <trkpt lat="43.12784" lon="-0.05525">
        <ele>535.019</ele>
        <time>2016-10-27T19:01:35Z</time>
      </trkpt>
      <trkpt lat="43.12825" lon="-0.05435">
        <ele>532.008</ele>
        <time>2016-10-27T19:01:55Z</time>
      </trkpt>
      <trkpt lat="43.12789" lon="-0.05349">
        <ele>530.055</ele>
        <time>2016-10-27T19:02:15Z</time>
      </trkpt>
      <trkpt lat="43.12767" lon="-0.0527">
        <ele>532.024</ele>
        <time>2016-10-27T19:02:35Z</time>
      </trkpt>
      <trkpt lat="43.12664" lon="-0.05137">
        <ele>517.035</ele>
        <time>2016-10-27T19:02:55Z</time>
      </trkpt>
      <trkpt lat="43.12609" lon="-0.05117">
        <ele>514.06</ele>
        <time>2016-10-27T19:03:15Z</time>
      </trkpt>
      <trkpt lat="43.12541" lon="-0.05066">
        <ele>505.07</ele>
        <time>2016-10-27T19:03:35Z</time>
      </trkpt>
      <trkpt lat="43.12496" lon="-0.04967">
        <ele>495.079</ele>
        <time>2016-10-27T19:03:55Z</time>
      </trkpt>
      <trkpt lat="43.12421" lon="-0.04916">
        <ele>491.035</ele>
        <time>2016-10-27T19:04:15Z</time>
      </trkpt>
      <trkpt lat="43.12432" lon="-0.04864">
        <ele>488.091</ele>
        <time>2016-10-27T19:04:35Z</time>
      </trkpt>
      <trkpt lat="43.12416" lon="-0.04836">
        <ele>486.035</ele>
        <time>2016-10-27T19:04:55Z</time>
      </trkpt>
      <trkpt lat="43.12413" lon="-0.04746">
        <ele>481.086</ele>
        <time>2016-10-27T19:05:15Z</time>
      </trkpt>
      <trkpt lat="43.12378" lon="-0.04705">
        <ele>480.014</ele>
        <time>2016-10-27T19:05:35Z</time>
      </trkpt>
      <trkpt lat="43.12361" lon="-0.04712">
        <ele>480.008</ele>
        <time>2016-10-27T19:05:55Z</time>
      </trkpt>
      <trkpt lat="43.12342" lon="-0.04667">
        <ele>479.059</ele>
        <time>2016-10-27T19:06:15Z</time>
      </trkpt>
      <trkpt lat="43.12308" lon="-0.04643">
        <ele>483.078</ele>
        <time>2016-10-27T19:06:35Z</time>
      </trkpt>
      <trkpt lat="43.1227" lon="-0.04648">
        <ele>485.049</ele>
        <time>2016-10-27T19:06:55Z</time>
      </trkpt>
      <trkpt lat="43.12181" lon="-0.04768">
        <ele>488.014</ele>
        <time>2016-10-27T19:07:15Z</time>
      </trkpt>
      <trkpt lat="43.12142" lon="-0.04869">
        <ele>492.034</ele>
        <time>2016-10-27T19:07:35Z</time>
      </trkpt>
      <trkpt lat="43.12067" lon="-0.04929">
        <ele>496.033</ele>
        <time>2016-10-27T19:07:55Z</time>
      </trkpt>
      <trkpt lat="43.12037" lon="-0.04941">
        <ele>498.039</ele>
        <time>2016-10-27T19:08:15Z</time>
      </trkpt>
      <trkpt lat="43.11987" lon="-0.04995">
        <ele>500.025</ele>
        <time>2016-10-27T19:08:35Z</time>
      </trkpt>
      <trkpt lat="43.11978" lon="-0.05107">
        <ele>505.064</ele>
        <time>2016-10-27T19:08:55Z</time>
      </trkpt>
      <trkpt lat="43.11945" lon="-0.05132">
        <ele>508.006</ele>
        <time>2016-10-27T19:09:15Z</time>
      </trkpt>
      <trkpt lat="43.11902" lon="-0.05248">
        <ele>516.016</ele>
        <time>2016-10-27T19:09:35Z</time>
      </trkpt>
      <trkpt lat="43.11855" lon="-0.05353">
        <ele>505.008</ele>
        <time>2016-10-27T19:09:55Z</time>
      </trkpt>
      <trkpt lat="43.11796" lon="-0.05394">
        <ele>503.052</ele>
        <time>2016-10-27T19:10:15Z</time>
      </trkpt>
      <trkpt lat="43.11707" lon="-0.05411">
        <ele>502.021</ele>
        <time>2016-10-27T19:10:35Z</time>
      </trkpt>
      <trkpt lat="43.11625" lon="-0.05392">
        <ele>499.052</ele>
        <time>2016-10-27T19:10:55Z</time>
      </trkpt>
      <trkpt lat="43.11578" lon="-0.05411">
        <ele>494.087</ele>
        <time>2016-10-27T19:11:15Z</time>
      </trkpt>
      <trkpt lat="43.11537" lon="-0.05463">
        <ele>491.037</ele>
        <time>2016-10-27T19:11:35Z</time>
      </trkpt>
      <trkpt lat="43.11539" lon="-0.05523">
        <ele>491.026</ele>
        <time>2016-10-27T19:11:55Z</time>
      </trkpt>
      <trkpt lat="43.11464" lon="-0.05701">
        <ele>490.092</ele>
        <time>2016-10-27T19:12:15Z</time>
      </trkpt>
      <trkpt lat="43.11459" lon="-0.05738">
        <ele>490.018</ele>
        <time>2016-10-27T19:12:35Z</time>
      </trkpt>
      <trkpt lat="43.11437" lon="-0.05783">
        <ele>488.095</ele>
        <time>2016-10-27T19:12:55Z</time>
      </trkpt>
      <trkpt lat="43.11436" lon="-0.06025">
        <ele>463.049</ele>
        <time>2016-10-27T19:13:15Z</time>
      </trkpt>
      <trkpt lat="43.11404" lon="-0.06023">
        <ele>460.023</ele>
        <time>2016-10-27T19:13:35Z</time>
      </trkpt>
      <trkpt lat="43.11374" lon="-0.0604">
        <ele>458.008</ele>
        <time>2016-10-27T19:13:55Z</time>
      </trkpt>
      <trkpt lat="43.11346" lon="-0.06126">
        <ele>447.055</ele>
        <time>2016-10-27T19:14:15Z</time>
      </trkpt>
      <trkpt lat="43.1127" lon="-0.06115">
        <ele>441.074</ele>
        <time>2016-10-27T19:14:35Z</time>
      </trkpt>
      <trkpt lat="43.11125" lon="-0.06139">
        <ele>428.085</ele>
        <time>2016-10-27T19:14:55Z</time>
      </trkpt>
      <trkpt lat="43.11044" lon="-0.06053">
        <ele>428.08</ele>
        <time>2016-10-27T19:15:15Z</time>
      </trkpt>
      <trkpt lat="43.11003" lon="-0.06047">
        <ele>427.03</ele>
        <time>2016-10-27T19:15:35Z</time>
      </trkpt>
      <trkpt lat="43.10898" lon="-0.05954">
        <ele>421.099</ele>
        <time>2016-10-27T19:15:55Z</time>
      </trkpt>
      <trkpt lat="43.1084" lon="-0.05952">
        <ele>421.065</ele>
        <time>2016-10-27T19:16:15Z</time>
      </trkpt>
      <trkpt lat="43.108" lon="-0.05905">
        <ele>421.011</ele>
        <time>2016-10-27T19:16:35Z</time>
      </trkpt>
      <trkpt lat="43.10701" lon="-0.05864">
        <ele>416.063</ele>
        <time>2016-10-27T19:16:55Z</time>
      </trkpt>
      <trkpt lat="43.10594" lon="-0.0574">
        <ele>412.044</ele>
        <time>2016-10-27T19:17:15Z</time>
      </trkpt>
      <trkpt lat="43.10457" lon="-0.05579">
        <ele>412.018</ele>
        <time>2016-10-27T19:17:35Z</time>
      </trkpt>
      <trkpt lat="43.10389" lon="-0.0554">
        <ele>410.008</ele>
        <time>2016-10-27T19:17:55Z</time>
      </trkpt>
      <trkpt lat="43.10228" lon="-0.05482">
        <ele>411.042</ele>
        <time>2016-10-27T19:18:15Z</time>
      </trkpt>
      <trkpt lat="43.10193" lon="-0.05493">
        <ele>410.041</ele>
        <time>2016-10-27T19:18:35Z</time>
      </trkpt>
      <trkpt lat="43.09963" lon="-0.0518">
        <ele>397.032</ele>
        <time>2016-10-27T19:18:55Z</time>
      </trkpt>
      <trkpt lat="43.09977" lon="-0.05261">
        <ele>399.097</ele>
        <time>2016-10-27T19:19:15Z</time>
      </trkpt>
      <trkpt lat="43.09955" lon="-0.05366">
        <ele>397.097</ele>
        <time>2016-10-27T19:19:35Z</time>
      </trkpt>
      <trkpt lat="43.09902" lon="-0.05353">
        <ele>384.066</ele>
        <time>2016-10-27T19:19:55Z</time>
      </trkpt>
      <trkpt lat="43.09911" lon="-0.05203">
        <ele>382.022</ele>
        <time>2016-10-27T19:20:15Z</time>
      </trkpt>
      <trkpt lat="43.0988" lon="-0.05115">
        <ele>385.068</ele>
        <time>2016-10-27T19:20:35Z</time>
      </trkpt>
      <trkpt lat="43.09867" lon="-0.05053">
        <ele>390.075</ele>
        <time>2016-10-27T19:20:55Z</time>
      </trkpt>
      <trkpt lat="43.09826" lon="-0.05034">
        <ele>382.028</ele>
        <time>2016-10-27T19:21:15Z</time>
      </trkpt>
      <trkpt lat="43.09823" lon="-0.05064">
        <ele>380.02</ele>
        <time>2016-10-27T19:21:35Z</time>
      </trkpt>
      <trkpt lat="43.09813" lon="-0.0506">
        <ele>380.008</ele>
        <time>2016-10-27T19:21:55Z</time>
      </trkpt>
      <trkpt lat="43.09802" lon="-0.05038">
        <ele>382.053</ele>
        <time>2016-10-27T19:22:15Z</time>
      </trkpt>
      <trkpt lat="43.09793" lon="-0.05068">
        <ele>380.052</ele>
        <time>2016-10-27T19:22:35Z</time>
      </trkpt>
      <trkpt lat="43.09715" lon="-0.05062">
        <ele>382.053</ele>
        <time>2016-10-27T19:22:55Z</time>
      </trkpt>
      <trkpt lat="43.09655" lon="-0.05047">
        <ele>389.058</ele>
        <time>2016-10-27T19:23:15Z</time>
      </trkpt>
      <trkpt lat="43.09596" lon="-0.05085">
        <ele>389.048</ele>
        <time>2016-10-27T19:23:35Z</time>
      </trkpt>
      <trkpt lat="43.0958" lon="-0.05092">
        <ele>393.077</ele>
        <time>2016-10-27T19:23:55Z</time>
      </trkpt>
      <trkpt lat="43.09564" lon="-0.05165">
        <ele>390.043</ele>
        <time>2016-10-27T19:24:15Z</time>
      </trkpt>
      <trkpt lat="43.09517" lon="-0.05229">
        <ele>386.079</ele>
        <time>2016-10-27T19:24:35Z</time>
      </trkpt>
      <trkpt lat="43.09403" lon="-0.05287">
        <ele>382.062</ele>
        <time>2016-10-27T19:24:55Z</time>
      </trkpt>
      <trkpt lat="43.09212" lon="-0.05484">
        <ele>381.083</ele>
        <time>2016-10-27T19:25:15Z</time>
      </trkpt>
      <trkpt lat="43.09193" lon="-0.05493">
        <ele>381.011</ele>
        <time>2016-10-27T19:25:35Z</time>
      </trkpt>
      <trkpt lat="43.0884" lon="-0.053">
        <ele>385.008</ele>
        <time>2016-10-27T19:25:55Z</time>
      </trkpt>
      <trkpt lat="43.08811" lon="-0.05268">
        <ele>396.012</ele>
        <time>2016-10-27T19:26:15Z</time>
      </trkpt>
      <trkpt lat="43.08781" lon="-0.05169">
        <ele>392.071</ele>
        <time>2016-10-27T19:26:35Z</time>
      </trkpt>
      <trkpt lat="43.08712" lon="-0.05079">
        <ele>383.032</ele>
        <time>2016-10-27T19:26:55Z</time>
      </trkpt>
      <trkpt lat="43.08638" lon="-0.05066">
        <ele>385.087</ele>
        <time>2016-10-27T19:27:15Z</time>
      </trkpt>
      <trkpt lat="43.0861" lon="-0.05047">
        <ele>384.047</ele>
        <time>2016-10-27T19:27:35Z</time>
      </trkpt>
      <trkpt lat="43.0856" lon="-0.05087">
        <ele>395.026</ele>
        <time>2016-10-27T19:27:55Z</time>
      </trkpt>
      <trkpt lat="43.08456" lon="-0.05124">
        <ele>390.022</ele>
        <time>2016-10-27T19:28:15Z</time>
      </trkpt>
      <trkpt lat="43.08441" lon="-0.05143">
        <ele>390.058</ele>
        <time>2016-10-27T19:28:35Z</time>
      </trkpt>
      <trkpt lat="43.08412" lon="-0.05152">
        <ele>388.095</ele>
        <time>2016-10-27T19:28:55Z</time>
      </trkpt>
      <trkpt lat="43.08391" lon="-0.05173">
        <ele>397.049</ele>
        <time>2016-10-27T19:29:15Z</time>
      </trkpt>
      <trkpt lat="43.08384" lon="-0.05197">
        <ele>400.023</ele>
        <time>2016-10-27T19:29:35Z</time>
      </trkpt>
      <trkpt lat="43.08279" lon="-0.05268">
        <ele>419.008</ele>
        <time>2016-10-27T19:29:55Z</time>
      </trkpt>
      <trkpt lat="43.08237" lon="-0.0524">
        <ele>409.075</ele>
        <time>2016-10-27T19:30:15Z</time>
      </trkpt>
      <trkpt lat="43.0819" lon="-0.05255">
        <ele>423.044</ele>
        <time>2016-10-27T19:30:35Z</time>
      </trkpt>
      <trkpt lat="43.08165" lon="-0.05306">
        <ele>433.065</ele>
        <time>2016-10-27T19:30:55Z</time>
      </trkpt>
      <trkpt lat="43.08143" lon="-0.05317">
        <ele>434.07</ele>
        <time>2016-10-27T19:31:15Z</time>
      </trkpt>
      <trkpt lat="43.08105" lon="-0.05377">
        <ele>450.09</ele>
        <time>2016-10-27T19:31:35Z</time>
      </trkpt>
      <trkpt lat="43.08071" lon="-0.05373">
        <ele>448.049</ele>
        <time>2016-10-27T19:31:55Z</time>
      </trkpt>
      <trkpt lat="43.08066" lon="-0.05362">
        <ele>447.015</ele>
        <time>2016-10-27T19:32:15Z</time>
      </trkpt>
      <trkpt lat="43.08044" lon="-0.05369">
        <ele>447.081</ele>
        <time>2016-10-27T19:32:35Z</time>
      </trkpt>
      <trkpt lat="43.07985" lon="-0.05351">
        <ele>441.012</ele>
        <time>2016-10-27T19:32:55Z</time>
      </trkpt>
      <trkpt lat="43.07906" lon="-0.05416">
        <ele>441.032</ele>
        <time>2016-10-27T19:33:15Z</time>
      </trkpt>
      <trkpt lat="43.07858" lon="-0.05416">
        <ele>436.005</ele>
        <time>2016-10-27T19:33:35Z</time>
      </trkpt>
      <trkpt lat="43.07742" lon="-0.05525">
        <ele>439.008</ele>
        <time>2016-10-27T19:33:55Z</time>
      </trkpt>
      <trkpt lat="43.07734" lon="-0.05557">
        <ele>443.067</ele>
        <time>2016-10-27T19:34:15Z</time>
      </trkpt>
      <trkpt lat="43.07712" lon="-0.05579">
        <ele>442.076</ele>
        <time>2016-10-27T19:34:35Z</time>
      </trkpt>
      <trkpt lat="43.07709" lon="-0.05611">
        <ele>452.027</ele>
        <time>2016-10-27T19:34:55Z</time>
      </trkpt>
      <trkpt lat="43.07652" lon="-0.0572">
        <ele>450.072</ele>
        <time>2016-10-27T19:35:15Z</time>
      </trkpt>
      <trkpt lat="43.07588" lon="-0.05774">
        <ele>454.012</ele>
        <time>2016-10-27T19:35:35Z</time>
      </trkpt>
      <trkpt lat="43.07535" lon="-0.05826">
        <ele>454.021</ele>
        <time>2016-10-27T19:35:55Z</time>
      </trkpt>
      <trkpt lat="43.07525" lon="-0.05866">
        <ele>465.097</ele>
        <time>2016-10-27T19:36:15Z</time>
      </trkpt>
      <trkpt lat="43.07416" lon="-0.05952">
        <ele>474.093</ele>
        <time>2016-10-27T19:36:35Z</time>
      </trkpt>
      <trkpt lat="43.07381" lon="-0.05993">
        <ele>474.013</ele>
        <time>2016-10-27T19:36:55Z</time>
      </trkpt>
      <trkpt lat="43.07375" lon="-0.06019">
        <ele>478.043</ele>
        <time>2016-10-27T19:37:15Z</time>
      </trkpt>
      <trkpt lat="43.07331" lon="-0.06092">
        <ele>475.007</ele>
        <time>2016-10-27T19:37:35Z</time>
      </trkpt>
      <trkpt lat="43.07297" lon="-0.06278">
        <ele>477.008</ele>
        <time>2016-10-27T19:37:55Z</time>
      </trkpt>
      <trkpt lat="43.073" lon="-0.06351">
        <ele>480.067</ele>
        <time>2016-10-27T19:38:15Z</time>
      </trkpt>
      <trkpt lat="43.0729" lon="-0.06486">
        <ele>484.016</ele>
        <time>2016-10-27T19:38:35Z</time>
      </trkpt>
      <trkpt lat="43.07251" lon="-0.06495">
        <ele>485.097</ele>
        <time>2016-10-27T19:38:55Z</time>
      </trkpt>
      <trkpt lat="43.07217" lon="-0.06465">
        <ele>486.042</ele>
        <time>2016-10-27T19:39:15Z</time>
      </trkpt>
      <trkpt lat="43.07118" lon="-0.06454">
        <ele>493.022</ele>
        <time>2016-10-27T19:39:35Z</time>
      </trkpt>
      <trkpt lat="43.07074" lon="-0.06504">
        <ele>505.011</ele>
        <time>2016-10-27T19:39:55Z</time>
      </trkpt>
      <trkpt lat="43.07002" lon="-0.0657">
        <ele>510.017</ele>
        <time>2016-10-27T19:40:15Z</time>
      </trkpt>
      <trkpt lat="43.07005" lon="-0.06609">
        <ele>513.023</ele>
        <time>2016-10-27T19:40:35Z</time>
      </trkpt>
      <trkpt lat="43.07002" lon="-0.0665">
        <ele>515.083</ele>
        <time>2016-10-27T19:40:55Z</time>
      </trkpt>
      <trkpt lat="43.07005" lon="-0.06692">
        <ele>514.025</ele>
        <time>2016-10-27T19:41:15Z</time>
      </trkpt>
      <trkpt lat="43.06952" lon="-0.06718">
        <ele>517.017</ele>
        <time>2016-10-27T19:41:35Z</time>
      </trkpt>
      <trkpt lat="43.06914" lon="-0.06849">
        <ele>516.008</ele>
        <time>2016-10-27T19:41:55Z</time>
      </trkpt>
      <trkpt lat="43.06913" lon="-0.06943">
        <ele>512.044</ele>
        <time>2016-10-27T19:42:15Z</time>
      </trkpt>
      <trkpt lat="43.06942" lon="-0.06991">
        <ele>506.093</ele>
        <time>2016-10-27T19:42:35Z</time>
      </trkpt>
      <trkpt lat="43.06958" lon="-0.07081">
        <ele>508.024</ele>
        <time>2016-10-27T19:42:55Z</time>
      </trkpt>
      <trkpt lat="43.06973" lon="-0.07146">
        <ele>515.259</ele>
        <time>2021-02-12T18:46:43Z</time>
      </trkpt>
      <trkpt lat="43.06961" lon="-0.0721">
        <ele>524.079</ele>
        <time>2016-10-27T19:43:35Z</time>
      </trkpt>
      <trkpt lat="43.06961" lon="-0.07252">
        <ele>532.078</ele>
        <time>2016-10-27T19:44:15Z</time>
      </trkpt>
      <trkpt lat="43.06971" lon="-0.07318">
        <ele>536.754</ele>
        <time>2021-02-12T18:47:43Z</time>
      </trkpt>
      <trkpt lat="43.06941" lon="-0.07401">
        <ele>550.15</ele>
        <time>2021-02-12T18:48:03Z</time>
      </trkpt>
      <trkpt lat="43.06933" lon="-0.07409">
        <ele>550.064</ele>
        <time>2016-10-27T19:45:15Z</time>
      </trkpt>
      <trkpt lat="43.06925" lon="-0.0745">
        <ele>556.006</ele>
        <time>2016-10-27T19:45:35Z</time>
      </trkpt>
      <trkpt lat="43.06997" lon="-0.07519">
        <ele>560.016</ele>
        <time>2016-10-27T19:45:55Z</time>
      </trkpt>
      <trkpt lat="43.07024" lon="-0.07559">
        <ele>558.008</ele>
        <time>2016-10-27T19:46:15Z</time>
      </trkpt>
      <trkpt lat="43.0699" lon="-0.07585">
        <ele>564.092</ele>
        <time>2021-02-12T18:49:43Z</time>
      </trkpt>
      <trkpt lat="43.06985" lon="-0.07615">
        <ele>568.021</ele>
        <time>2016-10-27T19:46:55Z</time>
      </trkpt>
      <trkpt lat="43.06948" lon="-0.07592">
        <ele>568.162</ele>
        <time>2021-02-12T18:50:23Z</time>
      </trkpt>
      <trkpt lat="43.0692" lon="-0.07603">
        <ele>571.617</ele>
        <time>2021-02-12T18:50:43Z</time>
      </trkpt>
      <trkpt lat="43.06916" lon="-0.07626">
        <ele>574.417</ele>
        <time>2021-02-12T18:51:03Z</time>
      </trkpt>
      <trkpt lat="43.06895" lon="-0.07658">
        <ele>586.946</ele>
        <time>2021-02-12T18:51:23Z</time>
      </trkpt>
      <trkpt lat="43.06903" lon="-0.07708">
        <ele>590.612</ele>
        <time>2021-02-12T18:51:43Z</time>
      </trkpt>
      <trkpt lat="43.06914" lon="-0.07729">
        <ele>596.088</ele>
        <time>2016-10-27T19:48:15Z</time>
      </trkpt>
      <trkpt lat="43.06951" lon="-0.07748">
        <ele>586.532</ele>
        <time>2021-02-12T18:52:23Z</time>
      </trkpt>
      <trkpt lat="43.0695" lon="-0.07755">
        <ele>587.592</ele>
        <time>2021-02-12T18:52:43Z</time>
      </trkpt>
      <trkpt lat="43.06911" lon="-0.07751">
        <ele>594.911</ele>
        <time>2021-02-12T18:53:03Z</time>
      </trkpt>
      <trkpt lat="43.06861" lon="-0.07729">
        <ele>605.008</ele>
        <time>2016-10-27T19:49:15Z</time>
      </trkpt>
      <trkpt lat="43.06842" lon="-0.07692">
        <ele>607.019</ele>
        <time>2016-10-27T19:49:35Z</time>
      </trkpt>
      <trkpt lat="43.06826" lon="-0.07744">
        <ele>621.078</ele>
        <time>2016-10-27T19:49:55Z</time>
      </trkpt>
      <trkpt lat="43.06804" lon="-0.07767">
        <ele>625.099</ele>
        <time>2016-10-27T19:50:15Z</time>
      </trkpt>
      <trkpt lat="43.06786" lon="-0.07817">
        <ele>626.074</ele>
        <time>2016-10-27T19:50:35Z</time>
      </trkpt>
      <trkpt lat="43.06765" lon="-0.07855">
        <ele>629.074</ele>
        <time>2016-10-27T19:50:55Z</time>
      </trkpt>
      <trkpt lat="43.06776" lon="-0.07877">
        <ele>629.023</ele>
        <time>2016-10-27T19:51:15Z</time>
      </trkpt>
      <trkpt lat="43.0679" lon="-0.07961">
        <ele>637.069</ele>
        <time>2016-10-27T19:51:35Z</time>
      </trkpt>
      <trkpt lat="43.06784" lon="-0.08021">
        <ele>651.035</ele>
        <time>2016-10-27T19:51:55Z</time>
      </trkpt>
      <trkpt lat="43.06826" lon="-0.08079">
        <ele>653.027</ele>
        <time>2016-10-27T19:52:15Z</time>
      </trkpt>
      <trkpt lat="43.0685" lon="-0.08091">
        <ele>648.068</ele>
        <time>2016-10-27T19:52:35Z</time>
      </trkpt>
      <trkpt lat="43.06859" lon="-0.0816">
        <ele>650.014</ele>
        <time>2016-10-27T19:52:55Z</time>
      </trkpt>
      <trkpt lat="43.06856" lon="-0.08287">
        <ele>676.008</ele>
        <time>2016-10-27T19:53:15Z</time>
      </trkpt>
      <trkpt lat="43.06829" lon="-0.08388">
        <ele>702.028</ele>
        <time>2016-10-27T19:53:35Z</time>
      </trkpt>
      <trkpt lat="43.0682" lon="-0.08484">
        <ele>699.077</ele>
        <time>2016-10-27T19:53:55Z</time>
      </trkpt>
      <trkpt lat="43.06776" lon="-0.08538">
        <ele>705.018</ele>
        <time>2016-10-27T19:54:15Z</time>
      </trkpt>
      <trkpt lat="43.06773" lon="-0.08576">
        <ele>707.023</ele>
        <time>2016-10-27T19:54:35Z</time>
      </trkpt>
      <trkpt lat="43.06793" lon="-0.08662">
        <ele>710.033</ele>
        <time>2016-10-27T19:54:55Z</time>
      </trkpt>
      <trkpt lat="43.06804" lon="-0.08761">
        <ele>720.032</ele>
        <time>2016-10-27T19:55:15Z</time>
      </trkpt>
      <trkpt lat="43.06803" lon="-0.08815">
        <ele>722.088</ele>
        <time>2016-10-27T19:55:35Z</time>
      </trkpt>
      <trkpt lat="43.06865" lon="-0.08991">
        <ele>724.054</ele>
        <time>2016-10-27T19:55:55Z</time>
      </trkpt>
      <trkpt lat="43.06923" lon="-0.09085">
        <ele>727.043</ele>
        <time>2016-10-27T19:56:15Z</time>
      </trkpt>
      <trkpt lat="43.06933" lon="-0.09158">
        <ele>729.064</ele>
        <time>2016-10-27T19:56:35Z</time>
      </trkpt>
      <trkpt lat="43.06898" lon="-0.09175">
        <ele>731.01</ele>
        <time>2016-10-27T19:56:55Z</time>
      </trkpt>
      <trkpt lat="43.06878" lon="-0.09205">
        <ele>732.008</ele>
        <time>2016-10-27T19:57:15Z</time>
      </trkpt>
      <trkpt lat="43.06914" lon="-0.09351">
        <ele>727.04</ele>
        <time>2016-10-27T19:57:35Z</time>
      </trkpt>
      <trkpt lat="43.06895" lon="-0.09368">
        <ele>726.059</ele>
        <time>2016-10-27T19:57:55Z</time>
      </trkpt>
      <trkpt lat="43.06834" lon="-0.09375">
        <ele>726.09</ele>
        <time>2016-10-27T19:58:15Z</time>
      </trkpt>
      <trkpt lat="43.06792" lon="-0.09403">
        <ele>727.015</ele>
        <time>2016-10-27T19:58:35Z</time>
      </trkpt>
      <trkpt lat="43.06699" lon="-0.09497">
        <ele>723.035</ele>
        <time>2016-10-27T19:58:55Z</time>
      </trkpt>
      <trkpt lat="43.06677" lon="-0.09574">
        <ele>722.034</ele>
        <time>2016-10-27T19:59:15Z</time>
      </trkpt>
      <trkpt lat="43.06635" lon="-0.09681">
        <ele>726.06</ele>
        <time>2016-10-27T19:59:35Z</time>
      </trkpt>
      <trkpt lat="43.06569" lon="-0.09754">
        <ele>728.046</ele>
        <time>2016-10-27T19:59:55Z</time>
      </trkpt>
      <trkpt lat="43.06558" lon="-0.09806">
        <ele>728.092</ele>
        <time>2016-10-27T20:00:15Z</time>
      </trkpt>
      <trkpt lat="43.06496" lon="-0.09937">
        <ele>732.073</ele>
        <time>2016-10-27T20:00:35Z</time>
      </trkpt>
      <trkpt lat="43.06503" lon="-0.09978">
        <ele>731.02</ele>
        <time>2016-10-27T20:00:55Z</time>
      </trkpt>
      <trkpt lat="43.0635" lon="-0.10336">
        <ele>742.008</ele>
        <time>2016-10-27T20:01:15Z</time>
      </trkpt>
      <trkpt lat="43.06315" lon="-0.10357">
        <ele>743.055</ele>
        <time>2016-10-27T20:01:35Z</time>
      </trkpt>
      <trkpt lat="43.06293" lon="-0.1046">
        <ele>747.024</ele>
        <time>2016-10-27T20:01:55Z</time>
      </trkpt>
      <trkpt lat="43.06195" lon="-0.10742">
        <ele>756.025</ele>
        <time>2016-10-27T20:02:15Z</time>
      </trkpt>
      <trkpt lat="43.0611" lon="-0.10922">
        <ele>766.05</ele>
        <time>2016-10-27T20:02:35Z</time>
      </trkpt>
      <trkpt lat="43.06085" lon="-0.10999">
        <ele>766.08</ele>
        <time>2016-10-27T20:02:55Z</time>
      </trkpt>
      <trkpt lat="43.06036" lon="-0.11089">
        <ele>776.099</ele>
        <time>2016-10-27T20:03:15Z</time>
      </trkpt>
      <trkpt lat="43.06091" lon="-0.11143">
        <ele>786.025</ele>
        <time>2016-10-27T20:03:35Z</time>
      </trkpt>
      <trkpt lat="43.06151" lon="-0.11128">
        <ele>788.051</ele>
        <time>2016-10-27T20:03:55Z</time>
      </trkpt>
      <trkpt lat="43.06162" lon="-0.11138">
        <ele>790.068</ele>
        <time>2016-10-27T20:04:15Z</time>
      </trkpt>
      <trkpt lat="43.06165" lon="-0.11166">
        <ele>800.042</ele>
        <time>2016-10-27T20:04:35Z</time>
      </trkpt>
      <trkpt lat="43.06111" lon="-0.11235">
        <ele>804.026</ele>
        <time>2016-10-27T20:04:55Z</time>
      </trkpt>
      <trkpt lat="43.06039" lon="-0.11392">
        <ele>826.008</ele>
        <time>2016-10-27T20:05:15Z</time>
      </trkpt>
      <trkpt lat="43.06008" lon="-0.11409">
        <ele>825.062</ele>
        <time>2016-10-27T20:05:35Z</time>
      </trkpt>
      <trkpt lat="43.05936" lon="-0.11531">
        <ele>852.051</ele>
        <time>2016-10-27T20:05:55Z</time>
      </trkpt>
      <trkpt lat="43.05906" lon="-0.11602">
        <ele>861.012</ele>
        <time>2016-10-27T20:06:15Z</time>
      </trkpt>
      <trkpt lat="43.05883" lon="-0.11615">
        <ele>860.027</ele>
        <time>2016-10-27T20:06:35Z</time>
      </trkpt>
      <trkpt lat="43.05848" lon="-0.11714">
        <ele>891.057</ele>
        <time>2016-10-27T20:06:55Z</time>
      </trkpt>
      <trkpt lat="43.05803" lon="-0.11782">
        <ele>895.056</ele>
        <time>2016-10-27T20:07:15Z</time>
      </trkpt>
      <trkpt lat="43.05776" lon="-0.11804">
        <ele>894.012</ele>
        <time>2016-10-27T20:07:35Z</time>
      </trkpt>
      <trkpt lat="43.05757" lon="-0.11823">
        <ele>895.078</ele>
        <time>2016-10-27T20:07:55Z</time>
      </trkpt>
      <trkpt lat="43.05723" lon="-0.11855">
        <ele>899.026</ele>
        <time>2016-10-27T20:08:15Z</time>
      </trkpt>
      <trkpt lat="43.0568" lon="-0.11924">
        <ele>925.047</ele>
        <time>2016-10-27T20:08:35Z</time>
      </trkpt>
      <trkpt lat="43.05608" lon="-0.11988">
        <ele>928.011</ele>
        <time>2016-10-27T20:08:55Z</time>
      </trkpt>
      <trkpt lat="43.05583" lon="-0.11988">
        <ele>926.008</ele>
        <time>2016-10-27T20:09:15Z</time>
      </trkpt>
      <trkpt lat="43.05525" lon="-0.12044">
        <ele>950.078</ele>
        <time>2016-10-27T20:09:35Z</time>
      </trkpt>
      <trkpt lat="43.05484" lon="-0.12091">
        <ele>969.037</ele>
        <time>2016-10-27T20:09:55Z</time>
      </trkpt>
      <trkpt lat="43.05444" lon="-0.12115">
        <ele>971.048</ele>
        <time>2016-10-27T20:10:15Z</time>
      </trkpt>
      <trkpt lat="43.05404" lon="-0.12166">
        <ele>970.073</ele>
        <time>2016-10-27T20:10:35Z</time>
      </trkpt>
      <trkpt lat="43.05375" lon="-0.12235">
        <ele>1000.083</ele>
        <time>2016-10-27T20:10:55Z</time>
      </trkpt>
      <trkpt lat="43.05326" lon="-0.12291">
        <ele>1009.052</ele>
        <time>2016-10-27T20:11:15Z</time>
      </trkpt>
      <trkpt lat="43.05309" lon="-0.12349">
        <ele>1038.048</ele>
        <time>2016-10-27T20:11:35Z</time>
      </trkpt>
      <trkpt lat="43.05345" lon="-0.12332">
        <ele>1041.034</ele>
        <time>2016-10-27T20:11:55Z</time>
      </trkpt>
      <trkpt lat="43.05329" lon="-0.12389">
        <ele>1059.342</ele>
        <time>2021-02-12T19:16:23Z</time>
      </trkpt>
      <trkpt lat="43.05362" lon="-0.12374">
        <ele>1069.022</ele>
        <time>2016-10-27T20:12:35Z</time>
      </trkpt>
      <trkpt lat="43.05359" lon="-0.12435">
        <ele>1093.014</ele>
        <time>2016-10-27T20:12:55Z</time>
      </trkpt>
      <trkpt lat="43.05335" lon="-0.12473">
        <ele>1100.008</ele>
        <time>2016-10-27T20:13:15Z</time>
      </trkpt>
      <trkpt lat="43.05299" lon="-0.12501">
        <ele>1100.04</ele>
        <time>2016-10-27T20:13:35Z</time>
      </trkpt>
      <trkpt lat="43.05232" lon="-0.12731">
        <ele>1124.089</ele>
        <time>2016-10-27T20:13:55Z</time>
      </trkpt>
      <trkpt lat="43.05204" lon="-0.1275">
        <ele>1117.03</ele>
        <time>2016-10-27T20:14:15Z</time>
      </trkpt>
      <trkpt lat="43.05152" lon="-0.129">
        <ele>1130.015</ele>
        <time>2016-10-27T20:14:35Z</time>
      </trkpt>
      <trkpt lat="43.05097" lon="-0.13033">
        <ele>1156.075</ele>
        <time>2016-10-27T20:14:55Z</time>
      </trkpt>
      <trkpt lat="43.05023" lon="-0.13151">
        <ele>1155.024</ele>
        <time>2016-10-27T20:15:15Z</time>
      </trkpt>
      <trkpt lat="43.04973" lon="-0.13207">
        <ele>1161.08</ele>
        <time>2016-10-27T20:15:35Z</time>
      </trkpt>
      <trkpt lat="43.04946" lon="-0.13243">
        <ele>1163.066</ele>
        <time>2016-10-27T20:15:55Z</time>
      </trkpt>
      <trkpt lat="43.04904" lon="-0.13291">
        <ele>1177.015</ele>
        <time>2016-10-27T20:16:15Z</time>
      </trkpt>
      <trkpt lat="43.04904" lon="-0.13312">
        <ele>1181.065</ele>
        <time>2016-10-27T20:16:35Z</time>
      </trkpt>
      <trkpt lat="43.04882" lon="-0.13346">
        <ele>1190.011</ele>
        <time>2016-10-27T20:16:55Z</time>
      </trkpt>
      <trkpt lat="43.04852" lon="-0.13432">
        <ele>1193.008</ele>
        <time>2016-10-27T20:17:15Z</time>
      </trkpt>
      <trkpt lat="43.04862" lon="-0.13456">
        <ele>1192.027</ele>
        <time>2016-10-27T20:17:35Z</time>
      </trkpt>
      <trkpt lat="43.04843" lon="-0.13495">
        <ele>1190.066</ele>
        <time>2016-10-27T20:17:55Z</time>
      </trkpt>
      <trkpt lat="43.04791" lon="-0.13546">
        <ele>1199.017</ele>
        <time>2016-10-27T20:18:15Z</time>
      </trkpt>
      <trkpt lat="43.04696" lon="-0.13767">
        <ele>1209.082</ele>
        <time>2016-10-27T20:18:35Z</time>
      </trkpt>
      <trkpt lat="43.04644" lon="-0.13926">
        <ele>1221.072</ele>
        <time>2016-10-27T20:18:55Z</time>
      </trkpt>
      <trkpt lat="43.04641" lon="-0.13994">
        <ele>1221.011</ele>
        <time>2016-10-27T20:19:15Z</time>
      </trkpt>
      <trkpt lat="43.04644" lon="-0.14132">
        <ele>1225.047</ele>
        <time>2016-10-27T20:19:35Z</time>
      </trkpt>
      <trkpt lat="43.04617" lon="-0.14185">
        <ele>1222.033</ele>
        <time>2016-10-27T20:19:55Z</time>
      </trkpt>
      <trkpt lat="43.04598" lon="-0.14231">
        <ele>1220.076</ele>
        <time>2016-10-27T20:20:15Z</time>
      </trkpt>
      <trkpt lat="43.04565" lon="-0.14299">
        <ele>1233.09</ele>
        <time>2016-10-27T20:20:35Z</time>
      </trkpt>
      <trkpt lat="43.04576" lon="-0.14385">
        <ele>1228.019</ele>
        <time>2016-10-27T20:20:55Z</time>
      </trkpt>
      <trkpt lat="43.04548" lon="-0.14445">
        <ele>1226.008</ele>
        <time>2016-10-27T20:21:15Z</time>
      </trkpt>
      <trkpt lat="43.04518" lon="-0.14475">
        <ele>1229.043</ele>
        <time>2016-10-27T20:21:35Z</time>
      </trkpt>
      <trkpt lat="43.04482" lon="-0.14535">
        <ele>1242.012</ele>
        <time>2016-10-27T20:21:55Z</time>
      </trkpt>
      <trkpt lat="43.04471" lon="-0.1458">
        <ele>1241.083</ele>
        <time>2016-10-27T20:22:15Z</time>
      </trkpt>
      <trkpt lat="43.0446" lon="-0.14602">
        <ele>1238.078</ele>
        <time>2016-10-27T20:22:35Z</time>
      </trkpt>
      <trkpt lat="43.04451" lon="-0.14627">
        <ele>1239.078</ele>
        <time>2016-10-27T20:22:55Z</time>
      </trkpt>
      <trkpt lat="43.04366" lon="-0.14795">
        <ele>1237.077</ele>
        <time>2016-10-27T20:23:15Z</time>
      </trkpt>
      <trkpt lat="43.04304" lon="-0.14881">
        <ele>1246.073</ele>
        <time>2016-10-27T20:23:35Z</time>
      </trkpt>
      <trkpt lat="43.04228" lon="-0.14904">
        <ele>1275.089</ele>
        <time>2016-10-27T20:23:55Z</time>
      </trkpt>
      <trkpt lat="43.04205" lon="-0.14864">
        <ele>1287.081</ele>
        <time>2016-10-27T20:24:15Z</time>
      </trkpt>
      <trkpt lat="43.04169" lon="-0.149">
        <ele>1292.061</ele>
        <time>2016-10-27T20:24:35Z</time>
      </trkpt>
      <trkpt lat="43.04153" lon="-0.14904">
        <ele>1312.017</ele>
        <time>2016-10-27T20:24:55Z</time>
      </trkpt>
      <trkpt lat="43.0412" lon="-0.14936">
        <ele>1320.008</ele>
        <time>2016-10-27T20:25:15Z</time>
      </trkpt>
      <trkpt lat="43.04109" lon="-0.14917">
        <ele>1324.024</ele>
        <time>2016-10-27T20:25:35Z</time>
      </trkpt>
      <trkpt lat="43.04095" lon="-0.14926">
        <ele>1329.043</ele>
        <time>2016-10-27T20:25:55Z</time>
      </trkpt>
      <trkpt lat="43.04095" lon="-0.14964">
        <ele>1325.054</ele>
        <time>2016-10-27T20:26:15Z</time>
      </trkpt>
      <trkpt lat="43.04054" lon="-0.14994">
        <ele>1356.089</ele>
        <time>2016-10-27T20:26:35Z</time>
      </trkpt>
      <trkpt lat="43.04048" lon="-0.15014">
        <ele>1360.099</ele>
        <time>2016-10-27T20:26:55Z</time>
      </trkpt>
      <trkpt lat="43.04029" lon="-0.15031">
        <ele>1365.068</ele>
        <time>2016-10-27T20:27:15Z</time>
      </trkpt>
      <trkpt lat="43.04024" lon="-0.15072">
        <ele>1367.084</ele>
        <time>2016-10-27T20:27:35Z</time>
      </trkpt>
      <trkpt lat="43.04009" lon="-0.1508">
        <ele>1373.09</ele>
        <time>2016-10-27T20:27:55Z</time>
      </trkpt>
      <trkpt lat="43.03999" lon="-0.15065">
        <ele>1386.089</ele>
        <time>2016-10-27T20:28:15Z</time>
      </trkpt>
      <trkpt lat="43.03985" lon="-0.15072">
        <ele>1387.006</ele>
        <time>2016-10-27T20:28:35Z</time>
      </trkpt>
      <trkpt lat="43.03949" lon="-0.15052">
        <ele>1398.026</ele>
        <time>2016-10-27T20:28:55Z</time>
      </trkpt>
      <trkpt lat="43.03908" lon="-0.15085">
        <ele>1413.008</ele>
        <time>2016-10-27T20:29:15Z</time>
      </trkpt>
      <trkpt lat="43.03899" lon="-0.1513">
        <ele>1416.014</ele>
        <time>2016-10-27T20:29:35Z</time>
      </trkpt>
      <trkpt lat="43.03875" lon="-0.1511">
        <ele>1418.053</ele>
        <time>2016-10-27T20:29:55Z</time>
      </trkpt>
      <trkpt lat="43.03835" lon="-0.15123">
        <ele>1421.014</ele>
        <time>2016-10-27T20:30:15Z</time>
      </trkpt>
      <trkpt lat="43.03832" lon="-0.15175">
        <ele>1429.029</ele>
        <time>2016-10-27T20:30:35Z</time>
      </trkpt>
      <trkpt lat="43.03816" lon="-0.15218">
        <ele>1430.099</ele>
        <time>2016-10-27T20:30:55Z</time>
      </trkpt>
      <trkpt lat="43.03802" lon="-0.15228">
        <ele>1431.018</ele>
        <time>2016-10-27T20:31:15Z</time>
      </trkpt>
      <trkpt lat="43.03783" lon="-0.15269">
        <ele>1443.044</ele>
        <time>2016-10-27T20:31:35Z</time>
      </trkpt>
      <trkpt lat="43.03756" lon="-0.15256">
        <ele>1441.08</ele>
        <time>2016-10-27T20:31:55Z</time>
      </trkpt>
      <trkpt lat="43.03678" lon="-0.15254">
        <ele>1423.027</ele>
        <time>2016-10-27T20:32:15Z</time>
      </trkpt>
      <trkpt lat="43.03628" lon="-0.15301">
        <ele>1409.068</ele>
        <time>2016-10-27T20:32:35Z</time>
      </trkpt>
      <trkpt lat="43.03596" lon="-0.15325">
        <ele>1403.014</ele>
        <time>2016-10-27T20:32:55Z</time>
      </trkpt>
      <trkpt lat="43.03559" lon="-0.15372">
        <ele>1403.008</ele>
        <time>2016-10-27T20:33:15Z</time>
      </trkpt>
      <trkpt lat="43.03471" lon="-0.15415">
        <ele>1383.078</ele>
        <time>2016-10-27T20:33:35Z</time>
      </trkpt>
      <trkpt lat="43.03408" lon="-0.15424">
        <ele>1381.017</ele>
        <time>2016-10-27T20:33:55Z</time>
      </trkpt>
      <trkpt lat="43.03306" lon="-0.1549">
        <ele>1361.058</ele>
        <time>2016-10-27T20:34:15Z</time>
      </trkpt>
      <trkpt lat="43.03243" lon="-0.15593">
        <ele>1336.023</ele>
        <time>2016-10-27T20:34:35Z</time>
      </trkpt>
      <trkpt lat="43.03236" lon="-0.15666">
        <ele>1334.013</ele>
        <time>2016-10-27T20:34:55Z</time>
      </trkpt>
      <trkpt lat="43.03236" lon="-0.15739">
        <ele>1334.022</ele>
        <time>2016-10-27T20:35:15Z</time>
      </trkpt>
      <trkpt lat="43.03174" lon="-0.15752">
        <ele>1329.088</ele>
        <time>2016-10-27T20:35:35Z</time>
      </trkpt>
      <trkpt lat="43.03141" lon="-0.15739">
        <ele>1311.044</ele>
        <time>2016-10-27T20:35:55Z</time>
      </trkpt>
      <trkpt lat="43.0308" lon="-0.15788">
        <ele>1298.012</ele>
        <time>2016-10-27T20:36:15Z</time>
      </trkpt>
      <trkpt lat="43.03061" lon="-0.15793">
        <ele>1295.032</ele>
        <time>2016-10-27T20:36:35Z</time>
      </trkpt>
      <trkpt lat="43.03043" lon="-0.15825">
        <ele>1291.005</ele>
        <time>2016-10-27T20:36:55Z</time>
      </trkpt>
      <trkpt lat="43.03049" lon="-0.16024">
        <ele>1257.008</ele>
        <time>2016-10-27T20:37:15Z</time>
      </trkpt>
      <trkpt lat="43.03047" lon="-0.16097">
        <ele>1247.047</ele>
        <time>2016-10-27T20:37:35Z</time>
      </trkpt>
      <trkpt lat="43.03072" lon="-0.16218">
        <ele>1249.066</ele>
        <time>2016-10-27T20:37:55Z</time>
      </trkpt>
      <trkpt lat="43.03066" lon="-0.1628">
        <ele>1259.047</ele>
        <time>2016-10-27T20:38:15Z</time>
      </trkpt>
      <trkpt lat="43.03022" lon="-0.1632">
        <ele>1258.042</ele>
        <time>2016-10-27T20:38:35Z</time>
      </trkpt>
      <trkpt lat="43.0295" lon="-0.16323">
        <ele>1233.032</ele>
        <time>2016-10-27T20:38:55Z</time>
      </trkpt>
      <trkpt lat="43.02906" lon="-0.16333">
        <ele>1226.051</ele>
        <time>2016-10-27T20:39:15Z</time>
      </trkpt>
      <trkpt lat="43.02868" lon="-0.16331">
        <ele>1211.037</ele>
        <time>2016-10-27T20:39:35Z</time>
      </trkpt>
      <trkpt lat="43.02762" lon="-0.16368">
        <ele>1203.063</ele>
        <time>2016-10-27T20:39:55Z</time>
      </trkpt>
      <trkpt lat="43.02735" lon="-0.16428">
        <ele>1188.076</ele>
        <time>2016-10-27T20:40:15Z</time>
      </trkpt>
      <trkpt lat="43.02724" lon="-0.16582">
        <ele>1180.09</ele>
        <time>2016-10-27T20:40:35Z</time>
      </trkpt>
      <trkpt lat="43.02707" lon="-0.16687">
        <ele>1176.019</ele>
        <time>2016-10-27T20:40:55Z</time>
      </trkpt>
      <trkpt lat="43.02665" lon="-0.16857">
        <ele>1152.008</ele>
        <time>2016-10-27T20:41:15Z</time>
      </trkpt>
      <trkpt lat="43.02646" lon="-0.16971">
        <ele>1149.093</ele>
        <time>2016-10-27T20:41:35Z</time>
      </trkpt>
      <trkpt lat="43.02649" lon="-0.17026">
        <ele>1144.012</ele>
        <time>2016-10-27T20:41:55Z</time>
      </trkpt>
      <trkpt lat="43.02699" lon="-0.17125">
        <ele>1168.033</ele>
        <time>2016-10-27T20:42:15Z</time>
      </trkpt>
      <trkpt lat="43.02707" lon="-0.17177">
        <ele>1176.018</ele>
        <time>2016-10-27T20:42:35Z</time>
      </trkpt>
      <trkpt lat="43.02617" lon="-0.17265">
        <ele>1165.048</ele>
        <time>2016-10-27T20:42:55Z</time>
      </trkpt>
      <trkpt lat="43.02589" lon="-0.17282">
        <ele>1162.077</ele>
        <time>2016-10-27T20:43:15Z</time>
      </trkpt>
      <trkpt lat="43.02531" lon="-0.17443">
        <ele>1164.033</ele>
        <time>2016-10-27T20:43:35Z</time>
      </trkpt>
      <trkpt lat="43.02503" lon="-0.17477">
        <ele>1163.079</ele>
        <time>2016-10-27T20:43:55Z</time>
      </trkpt>
      <trkpt lat="43.02464" lon="-0.17503">
        <ele>1141.055</ele>
        <time>2016-10-27T20:44:15Z</time>
      </trkpt>
      <trkpt lat="43.0242" lon="-0.17595">
        <ele>1130.017</ele>
        <time>2016-10-27T20:44:55Z</time>
      </trkpt>
      <trkpt lat="43.02417" lon="-0.17625">
        <ele>1122.308</ele>
        <time>2021-02-12T19:49:23Z</time>
      </trkpt>
      <trkpt lat="43.02433" lon="-0.17647">
        <ele>1130.361</ele>
        <time>2021-02-12T19:49:43Z</time>
      </trkpt>
      <trkpt lat="43.0243" lon="-0.17709">
        <ele>1123.83</ele>
        <time>2021-02-12T19:50:03Z</time>
      </trkpt>
      <trkpt lat="43.02436" lon="-0.17773">
        <ele>1124.021</ele>
        <time>2016-10-27T20:45:55Z</time>
      </trkpt>
      <trkpt lat="43.02428" lon="-0.17792">
        <ele>1123.056</ele>
        <time>2016-10-27T20:46:15Z</time>
      </trkpt>
      <trkpt lat="43.02418" lon="-0.17842">
        <ele>1114.016</ele>
        <time>2016-10-27T20:46:35Z</time>
      </trkpt>
      <trkpt lat="43.02426" lon="-0.17887">
        <ele>1123.075</ele>
        <time>2016-10-27T20:46:55Z</time>
      </trkpt>
      <trkpt lat="43.02319" lon="-0.17953">
        <ele>1093.041</ele>
        <time>2016-10-27T20:47:15Z</time>
      </trkpt>
      <trkpt lat="43.0229" lon="-0.18003">
        <ele>1104.037</ele>
        <time>2016-10-27T20:47:35Z</time>
      </trkpt>
      <trkpt lat="43.02225" lon="-0.18056">
        <ele>1088.095</ele>
        <time>2016-10-27T20:47:55Z</time>
      </trkpt>
      <trkpt lat="43.02158" lon="-0.1808">
        <ele>1074.049</ele>
        <time>2016-10-27T20:48:15Z</time>
      </trkpt>
      <trkpt lat="43.02116" lon="-0.18108">
        <ele>1072.023</ele>
        <time>2016-10-27T20:48:35Z</time>
      </trkpt>
      <trkpt lat="43.02084" lon="-0.18147">
        <ele>1070.008</ele>
        <time>2016-10-27T20:48:55Z</time>
      </trkpt>
      <trkpt lat="43.02092" lon="-0.18224">
        <ele>1075.025</ele>
        <time>2016-10-27T20:49:15Z</time>
      </trkpt>
      <trkpt lat="43.0207" lon="-0.18305">
        <ele>1066.074</ele>
        <time>2016-10-27T20:49:35Z</time>
      </trkpt>
      <trkpt lat="43.02026" lon="-0.18325">
        <ele>1063.045</ele>
        <time>2016-10-27T20:49:55Z</time>
      </trkpt>
      <trkpt lat="43.01935" lon="-0.18292">
        <ele>1063.09</ele>
        <time>2016-10-27T20:50:15Z</time>
      </trkpt>
      <trkpt lat="43.01869" lon="-0.18244">
        <ele>1053.44</ele>
        <time>2021-02-12T19:55:03Z</time>
      </trkpt>
      <trkpt lat="43.0177" lon="-0.1822">
        <ele>1045.099</ele>
        <time>2016-10-27T20:50:55Z</time>
      </trkpt>
      <trkpt lat="43.01725" lon="-0.18187">
        <ele>1034.075</ele>
        <time>2016-10-27T20:51:15Z</time>
      </trkpt>
      <trkpt lat="43.01665" lon="-0.18181">
        <ele>1020.011</ele>
        <time>2016-10-27T20:51:35Z</time>
      </trkpt>
      <trkpt lat="43.01613" lon="-0.18192">
        <ele>1017.014</ele>
        <time>2016-10-27T20:51:55Z</time>
      </trkpt>
      <trkpt lat="43.0153" lon="-0.1817">
        <ele>1000.754</ele>
        <time>2021-02-12T19:56:43Z</time>
      </trkpt>
      <trkpt lat="43.01457" lon="-0.18184">
        <ele>992.409</ele>
        <time>2021-02-12T19:57:03Z</time>
      </trkpt>
      <trkpt lat="43.01395" lon="-0.18207">
        <ele>987.508</ele>
        <time>2021-02-12T19:57:23Z</time>
      </trkpt>
      <trkpt lat="43.01292" lon="-0.18292">
        <ele>993.097</ele>
        <time>2016-10-27T20:52:55Z</time>
      </trkpt>
      <trkpt lat="43.0124" lon="-0.18301">
        <ele>990.096</ele>
        <time>2016-10-27T20:53:15Z</time>
      </trkpt>
      <trkpt lat="43.01143" lon="-0.18415">
        <ele>999.037</ele>
        <time>2016-10-27T20:53:35Z</time>
      </trkpt>
      <trkpt lat="43.01077" lon="-0.18486">
        <ele>1011.082</ele>
        <time>2016-10-27T20:53:55Z</time>
      </trkpt>
      <trkpt lat="43.01052" lon="-0.18559">
        <ele>1018.072</ele>
        <time>2016-10-27T20:54:15Z</time>
      </trkpt>
      <trkpt lat="43.01075" lon="-0.18728">
        <ele>1033.081</ele>
        <time>2016-10-27T20:54:35Z</time>
      </trkpt>
      <trkpt lat="43.01063" lon="-0.18861">
        <ele>1045.097</ele>
        <time>2016-10-27T20:54:55Z</time>
      </trkpt>
      <trkpt lat="43.01038" lon="-0.1902">
        <ele>1057.013</ele>
        <time>2016-10-27T20:55:15Z</time>
      </trkpt>
      <trkpt lat="43.01017" lon="-0.19054">
        <ele>1055.055</ele>
        <time>2016-10-27T20:55:35Z</time>
      </trkpt>
      <trkpt lat="43.01013" lon="-0.1914">
        <ele>1049.907</ele>
        <time>2021-02-12T20:00:43Z</time>
      </trkpt>
      <trkpt lat="43.01044" lon="-0.19196">
        <ele>1054.017</ele>
        <time>2016-10-27T20:56:15Z</time>
      </trkpt>
      <trkpt lat="43.01025" lon="-0.19282">
        <ele>1049.008</ele>
        <time>2016-10-27T20:56:35Z</time>
      </trkpt>
      <trkpt lat="43.00987" lon="-0.19352">
        <ele>1048.021</ele>
        <time>2016-10-27T20:56:55Z</time>
      </trkpt>
      <trkpt lat="43.00986" lon="-0.19455">
        <ele>1059.04</ele>
        <time>2016-10-27T20:57:15Z</time>
      </trkpt>
      <trkpt lat="43.00994" lon="-0.19488">
        <ele>1065.091</ele>
        <time>2016-10-27T20:57:35Z</time>
      </trkpt>
      <trkpt lat="43.00987" lon="-0.19539">
        <ele>1072.086</ele>
        <time>2016-10-27T20:57:55Z</time>
      </trkpt>
      <trkpt lat="43.00945" lon="-0.19599">
        <ele>1082.066</ele>
        <time>2016-10-27T20:58:15Z</time>
      </trkpt>
      <trkpt lat="43.00928" lon="-0.19657">
        <ele>1087.075</ele>
        <time>2016-10-27T20:58:35Z</time>
      </trkpt>
      <trkpt lat="43.00892" lon="-0.19674">
        <ele>1085.031</ele>
        <time>2016-10-27T20:58:55Z</time>
      </trkpt>
      <trkpt lat="43.00857" lon="-0.19674">
        <ele>1079.037</ele>
        <time>2016-10-27T20:59:15Z</time>
      </trkpt>
      <trkpt lat="43.00807" lon="-0.1979">
        <ele>1075.053</ele>
        <time>2016-10-27T20:59:35Z</time>
      </trkpt>
      <trkpt lat="43.00835" lon="-0.20054">
        <ele>1096.004</ele>
        <time>2016-10-27T20:59:55Z</time>
      </trkpt>
      <trkpt lat="43.00876" lon="-0.20134">
        <ele>1096.014</ele>
        <time>2016-10-27T21:00:15Z</time>
      </trkpt>
      <trkpt lat="43.00904" lon="-0.20209">
        <ele>1092.008</ele>
        <time>2016-10-27T21:00:35Z</time>
      </trkpt>
      <trkpt lat="43.00951" lon="-0.20288">
        <ele>1106.031</ele>
        <time>2016-10-27T21:00:55Z</time>
      </trkpt>
      <trkpt lat="43.01053" lon="-0.20434">
        <ele>1122.08</ele>
        <time>2016-10-27T21:01:15Z</time>
      </trkpt>
      <trkpt lat="43.01027" lon="-0.20458">
        <ele>1120.091</ele>
        <time>2016-10-27T21:01:35Z</time>
      </trkpt>
      <trkpt lat="43.00986" lon="-0.20423">
        <ele>1115.016</ele>
        <time>2016-10-27T21:01:55Z</time>
      </trkpt>
      <trkpt lat="43.0095" lon="-0.2041">
        <ele>1109.066</ele>
        <time>2016-10-27T21:02:15Z</time>
      </trkpt>
      <trkpt lat="43.0092" lon="-0.20393">
        <ele>1110.035</ele>
        <time>2016-10-27T21:02:35Z</time>
      </trkpt>
      <trkpt lat="43.00807" lon="-0.20361">
        <ele>1094.071</ele>
        <time>2016-10-27T21:02:55Z</time>
      </trkpt>
      <trkpt lat="43.00692" lon="-0.20565">
        <ele>1106.027</ele>
        <time>2016-10-27T21:03:15Z</time>
      </trkpt>
      <trkpt lat="43.0068" lon="-0.20616">
        <ele>1119.033</ele>
        <time>2016-10-27T21:03:35Z</time>
      </trkpt>
      <trkpt lat="43.00661" lon="-0.20642">
        <ele>1106.015</ele>
        <time>2016-10-27T21:04:15Z</time>
      </trkpt>
      <trkpt lat="43.00631" lon="-0.2076">
        <ele>1134.008</ele>
        <time>2016-10-27T21:04:35Z</time>
      </trkpt>
      <trkpt lat="43.00611" lon="-0.20803">
        <ele>1135.049</ele>
        <time>2016-10-27T21:04:55Z</time>
      </trkpt>
      <trkpt lat="43.0057" lon="-0.20826">
        <ele>1124.038</ele>
        <time>2016-10-27T21:05:15Z</time>
      </trkpt>
      <trkpt lat="43.00556" lon="-0.2088">
        <ele>1134.049</ele>
        <time>2016-10-27T21:05:35Z</time>
      </trkpt>
      <trkpt lat="43.00529" lon="-0.20895">
        <ele>1132.074</ele>
        <time>2016-10-27T21:05:55Z</time>
      </trkpt>
      <trkpt lat="43.00388" lon="-0.21152">
        <ele>1165.064</ele>
        <time>2016-10-27T21:06:15Z</time>
      </trkpt>
      <trkpt lat="43.00378" lon="-0.21208">
        <ele>1176.043</ele>
        <time>2016-10-27T21:06:35Z</time>
      </trkpt>
      <trkpt lat="43.00325" lon="-0.21251">
        <ele>1176.029</ele>
        <time>2016-10-27T21:06:55Z</time>
      </trkpt>
      <trkpt lat="43.00316" lon="-0.21288">
        <ele>1184.085</ele>
        <time>2016-10-27T21:07:15Z</time>
      </trkpt>
      <trkpt lat="43.00264" lon="-0.21315">
        <ele>1185.061</ele>
        <time>2016-10-27T21:07:35Z</time>
      </trkpt>
      <trkpt lat="43.00231" lon="-0.21363">
        <ele>1192.021</ele>
        <time>2016-10-27T21:07:55Z</time>
      </trkpt>
      <trkpt lat="43.00198" lon="-0.2137">
        <ele>1191.313</ele>
        <time>2021-02-12T20:13:03Z</time>
      </trkpt>
      <trkpt lat="43.00171" lon="-0.21388">
        <ele>1191.008</ele>
        <time>2021-02-12T20:13:23Z</time>
      </trkpt>
      <trkpt lat="43.00164" lon="-0.21415">
        <ele>1192.492</ele>
        <time>2021-02-12T20:13:43Z</time>
      </trkpt>
      <trkpt lat="43.00168" lon="-0.21442">
        <ele>1195.961</ele>
        <time>2021-02-12T20:14:03Z</time>
      </trkpt>
      <trkpt lat="43.00133" lon="-0.21509">
        <ele>1205.922</ele>
        <time>2021-02-12T20:14:23Z</time>
      </trkpt>
      <trkpt lat="43.0011" lon="-0.2154">
        <ele>1209.497</ele>
        <time>2021-02-12T20:14:43Z</time>
      </trkpt>
      <trkpt lat="43.00089" lon="-0.2159">
        <ele>1212.687</ele>
        <time>2021-02-12T20:15:03Z</time>
      </trkpt>
      <trkpt lat="43.00068" lon="-0.21605">
        <ele>1216.896</ele>
        <time>2021-02-12T20:15:23Z</time>
      </trkpt>
      <trkpt lat="43.0006" lon="-0.21631">
        <ele>1222.072</ele>
        <time>2016-10-27T21:09:15Z</time>
      </trkpt>
      <trkpt lat="43.00057" lon="-0.2165">
        <ele>1224.058</ele>
        <time>2016-10-27T21:09:35Z</time>
      </trkpt>
      <trkpt lat="43.00007" lon="-0.21723">
        <ele>1235.094</ele>
        <time>2016-10-27T21:09:55Z</time>
      </trkpt>
      <trkpt lat="42.99992" lon="-0.21786">
        <ele>1248.857</ele>
        <time>2021-02-12T20:16:43Z</time>
      </trkpt>
      <trkpt lat="42.9997" lon="-0.21803">
        <ele>1261.022</ele>
        <time>2016-10-27T21:10:35Z</time>
      </trkpt>
      <trkpt lat="42.99909" lon="-0.21763">
        <ele>1267.708</ele>
        <time>2021-02-12T20:17:23Z</time>
      </trkpt>
      <trkpt lat="42.99888" lon="-0.21698">
        <ele>1263.195</ele>
        <time>2021-02-12T20:17:43Z</time>
      </trkpt>
      <trkpt lat="42.99863" lon="-0.21658">
        <ele>1264.744</ele>
        <time>2021-02-12T20:18:03Z</time>
      </trkpt>
      <trkpt lat="42.99776" lon="-0.21698">
        <ele>1288.415</ele>
        <time>2021-02-12T20:18:23Z</time>
      </trkpt>
      <trkpt lat="42.9977" lon="-0.21716">
        <ele>1293.87</ele>
        <time>2021-02-12T20:18:43Z</time>
      </trkpt>
      <trkpt lat="42.9973" lon="-0.21747">
        <ele>1305.34</ele>
        <time>2021-02-12T20:19:03Z</time>
      </trkpt>
      <trkpt lat="42.9962" lon="-0.2177">
        <ele>1326.719</ele>
        <time>2021-02-12T20:19:23Z</time>
      </trkpt>
      <trkpt lat="42.99595" lon="-0.21798">
        <ele>1334.075</ele>
        <time>2016-10-27T21:12:55Z</time>
      </trkpt>
      <trkpt lat="42.9958" lon="-0.21816">
        <ele>1339.191</ele>
        <time>2021-02-12T20:20:03Z</time>
      </trkpt>
      <trkpt lat="42.99573" lon="-0.21841">
        <ele>1348.025</ele>
        <time>2016-10-27T21:13:15Z</time>
      </trkpt>
      <trkpt lat="42.99617" lon="-0.21837">
        <ele>1353.026</ele>
        <time>2016-10-27T21:13:35Z</time>
      </trkpt>
      <trkpt lat="42.99718" lon="-0.21873">
        <ele>1360.008</ele>
        <time>2016-10-27T21:13:55Z</time>
      </trkpt>
      <trkpt lat="42.99743" lon="-0.2191">
        <ele>1373.008</ele>
        <time>2016-10-27T21:14:15Z</time>
      </trkpt>
      <trkpt lat="42.99652" lon="-0.21944">
        <ele>1387.088</ele>
        <time>2016-10-27T21:14:35Z</time>
      </trkpt>
      <trkpt lat="42.99588" lon="-0.22006">
        <ele>1412.077</ele>
        <time>2016-10-27T21:14:55Z</time>
      </trkpt>
      <trkpt lat="42.99449" lon="-0.22092">
        <ele>1435.048</ele>
        <time>2016-10-27T21:15:15Z</time>
      </trkpt>
      <trkpt lat="42.99382" lon="-0.2226">
        <ele>1461.053</ele>
        <time>2016-10-27T21:15:35Z</time>
      </trkpt>
      <trkpt lat="42.99351" lon="-0.22384">
        <ele>1480.043</ele>
        <time>2016-10-27T21:15:55Z</time>
      </trkpt>
      <trkpt lat="42.99351" lon="-0.22449">
        <ele>1491.642</ele>
        <time>2021-02-12T20:23:23Z</time>
      </trkpt>
      <trkpt lat="42.99344" lon="-0.22476">
        <ele>1496.078</ele>
        <time>2021-02-12T20:23:43Z</time>
      </trkpt>
      <trkpt lat="42.99351" lon="-0.22517">
        <ele>1515.034</ele>
        <time>2016-10-27T21:16:15Z</time>
      </trkpt>
      <trkpt lat="42.99325" lon="-0.22554">
        <ele>1508.075</ele>
        <time>2016-10-27T21:16:35Z</time>
      </trkpt>
      <trkpt lat="42.99286" lon="-0.22566">
        <ele>1507.028</ele>
        <time>2016-10-27T21:16:55Z</time>
      </trkpt>
      <trkpt lat="42.99238" lon="-0.22605">
        <ele>1511.42</ele>
        <time>2021-02-12T20:25:03Z</time>
      </trkpt>
      <trkpt lat="42.99188" lon="-0.22597">
        <ele>1517.908</ele>
        <time>2021-02-12T20:25:23Z</time>
      </trkpt>
      <trkpt lat="42.99167" lon="-0.22599">
        <ele>1520.533</ele>
        <time>2021-02-12T20:25:43Z</time>
      </trkpt>
      <trkpt lat="42.99148" lon="-0.22612">
        <ele>1524.572</ele>
        <time>2021-02-12T20:26:03Z</time>
      </trkpt>
      <trkpt lat="42.99101" lon="-0.22638">
        <ele>1532.963</ele>
        <time>2021-02-12T20:26:23Z</time>
      </trkpt>
      <trkpt lat="42.99067" lon="-0.22676">
        <ele>1529.828</ele>
        <time>2021-02-12T20:26:43Z</time>
      </trkpt>
      <trkpt lat="42.99021" lon="-0.22687">
        <ele>1525.038</ele>
        <time>2016-10-27T21:18:35Z</time>
      </trkpt>
      <trkpt lat="42.98967" lon="-0.22656">
        <ele>1541.497</ele>
        <time>2021-02-12T20:27:23Z</time>
      </trkpt>
      <trkpt lat="42.98809" lon="-0.22697">
        <ele>1547.033</ele>
        <time>2016-10-27T21:19:15Z</time>
      </trkpt>
      <trkpt lat="42.98709" lon="-0.227">
        <ele>1561.049</ele>
        <time>2016-10-27T21:19:35Z</time>
      </trkpt>
      <trkpt lat="42.98652" lon="-0.2273">
        <ele>1561.074</ele>
        <time>2016-10-27T21:19:55Z</time>
      </trkpt>
      <trkpt lat="42.98573" lon="-0.22724">
        <ele>1563.456</ele>
        <time>2021-02-12T20:28:43Z</time>
      </trkpt>
      <trkpt lat="42.98494" lon="-0.227">
        <ele>1567.021</ele>
        <time>2016-10-27T21:20:35Z</time>
      </trkpt>
      <trkpt lat="42.98407" lon="-0.22742">
        <ele>1572.008</ele>
        <time>2016-10-27T21:20:55Z</time>
      </trkpt>
      <trkpt lat="42.98371" lon="-0.22742">
        <ele>1571.083</ele>
        <time>2016-10-27T21:21:15Z</time>
      </trkpt>
      <trkpt lat="42.98299" lon="-0.22753">
        <ele>1563.052</ele>
        <time>2016-10-27T21:21:35Z</time>
      </trkpt>
      <trkpt lat="42.98253" lon="-0.22798">
        <ele>1558.093</ele>
        <time>2016-10-27T21:21:55Z</time>
      </trkpt>
      <trkpt lat="42.98239" lon="-0.22833">
        <ele>1540.048</ele>
        <time>2016-10-27T21:22:15Z</time>
      </trkpt>
      <trkpt lat="42.98253" lon="-0.22895">
        <ele>1550.048</ele>
        <time>2016-10-27T21:22:35Z</time>
      </trkpt>
      <trkpt lat="42.98231" lon="-0.22963">
        <ele>1522.057</ele>
        <time>2016-10-27T21:22:55Z</time>
      </trkpt>
      <trkpt lat="42.98225" lon="-0.23069">
        <ele>1533.023</ele>
        <time>2016-10-27T21:23:15Z</time>
      </trkpt>
      <trkpt lat="42.98213" lon="-0.23094">
        <ele>1531.069</ele>
        <time>2016-10-27T21:23:35Z</time>
      </trkpt>
      <trkpt lat="42.98197" lon="-0.2309">
        <ele>1525.038</ele>
        <time>2016-10-27T21:23:55Z</time>
      </trkpt>
      <trkpt lat="42.98198" lon="-0.23137">
        <ele>1525.07</ele>
        <time>2016-10-27T21:24:15Z</time>
      </trkpt>
      <trkpt lat="42.98227" lon="-0.23206">
        <ele>1530.017</ele>
        <time>2016-10-27T21:24:35Z</time>
      </trkpt>
      <trkpt lat="42.98216" lon="-0.23264">
        <ele>1525.008</ele>
        <time>2016-10-27T21:24:55Z</time>
      </trkpt>
      <trkpt lat="42.98224" lon="-0.23294">
        <ele>1526.099</ele>
        <time>2016-10-27T21:25:15Z</time>
      </trkpt>
      <trkpt lat="42.98225" lon="-0.23348">
        <ele>1523.078</ele>
        <time>2016-10-27T21:25:35Z</time>
      </trkpt>
      <trkpt lat="42.98253" lon="-0.23455">
        <ele>1545.069</ele>
        <time>2016-10-27T21:25:55Z</time>
      </trkpt>
      <trkpt lat="42.98269" lon="-0.2347">
        <ele>1546.024</ele>
        <time>2016-10-27T21:26:15Z</time>
      </trkpt>
      <trkpt lat="42.98253" lon="-0.23502">
        <ele>1526.094</ele>
        <time>2016-10-27T21:26:35Z</time>
      </trkpt>
      <trkpt lat="42.98263" lon="-0.23581">
        <ele>1534.083</ele>
        <time>2016-10-27T21:26:55Z</time>
      </trkpt>
      <trkpt lat="42.98256" lon="-0.23656">
        <ele>1531.769</ele>
        <time>2021-02-12T20:35:43Z</time>
      </trkpt>
      <trkpt lat="42.9827" lon="-0.23713">
        <ele>1540.215</ele>
        <time>2021-02-12T20:36:03Z</time>
      </trkpt>
      <trkpt lat="42.98309" lon="-0.23795">
        <ele>1555.169</ele>
        <time>2021-02-12T20:36:23Z</time>
      </trkpt>
      <trkpt lat="42.98341" lon="-0.23902">
        <ele>1560.904</ele>
        <time>2021-02-12T20:36:43Z</time>
      </trkpt>
      <trkpt lat="42.98332" lon="-0.23941">
        <ele>1557.524</ele>
        <time>2021-02-12T20:37:03Z</time>
      </trkpt>
      <trkpt lat="42.98306" lon="-0.23967">
        <ele>1553.408</ele>
        <time>2021-02-12T20:37:23Z</time>
      </trkpt>
      <trkpt lat="42.98273" lon="-0.24064">
        <ele>1548.852</ele>
        <time>2021-02-12T20:37:43Z</time>
      </trkpt>
      <trkpt lat="42.98283" lon="-0.24094">
        <ele>1549.011</ele>
        <time>2016-10-27T21:28:55Z</time>
      </trkpt>
      <trkpt lat="42.98221" lon="-0.24152">
        <ele>1544.062</ele>
        <time>2021-02-12T20:38:23Z</time>
      </trkpt>
      <trkpt lat="42.98191" lon="-0.24165">
        <ele>1547.237</ele>
        <time>2021-02-12T20:38:43Z</time>
      </trkpt>
      <trkpt lat="42.98122" lon="-0.24231">
        <ele>1553.387</ele>
        <time>2021-02-12T20:39:03Z</time>
      </trkpt>
      <trkpt lat="42.98079" lon="-0.24259">
        <ele>1559.036</ele>
        <time>2016-10-27T21:30:15Z</time>
      </trkpt>
      <trkpt lat="42.98034" lon="-0.24272">
        <ele>1561.032</ele>
        <time>2016-10-27T21:30:35Z</time>
      </trkpt>
      <trkpt lat="42.98001" lon="-0.24302">
        <ele>1563.018</ele>
        <time>2016-10-27T21:30:55Z</time>
      </trkpt>
      <trkpt lat="42.97966" lon="-0.24311">
        <ele>1566.041</ele>
        <time>2016-10-27T21:31:15Z</time>
      </trkpt>
      <trkpt lat="42.97901" lon="-0.24407">
        <ele>1579.881</ele>
        <time>2021-02-12T20:40:43Z</time>
      </trkpt>
      <trkpt lat="42.97855" lon="-0.24423">
        <ele>1580.009</ele>
        <time>2016-10-27T21:31:55Z</time>
      </trkpt>
      <trkpt lat="42.978" lon="-0.24461">
        <ele>1579.308</ele>
        <time>2021-02-12T20:41:23Z</time>
      </trkpt>
      <trkpt lat="42.97614" lon="-0.24476">
        <ele>1558.01</ele>
        <time>2016-10-27T21:32:35Z</time>
      </trkpt>
      <trkpt lat="42.97578" lon="-0.24461">
        <ele>1544.089</ele>
        <time>2016-10-27T21:32:55Z</time>
      </trkpt>
      <trkpt lat="42.97527" lon="-0.24483">
        <ele>1540.07</ele>
        <time>2016-10-27T21:33:15Z</time>
      </trkpt>
      <trkpt lat="42.97472" lon="-0.24487">
        <ele>1532.035</ele>
        <time>2016-10-27T21:33:35Z</time>
      </trkpt>
      <trkpt lat="42.97385" lon="-0.24573">
        <ele>1536.035</ele>
        <time>2016-10-27T21:33:55Z</time>
      </trkpt>
      <trkpt lat="42.97366" lon="-0.2462">
        <ele>1535.014</ele>
        <time>2016-10-27T21:34:15Z</time>
      </trkpt>
      <trkpt lat="42.97321" lon="-0.24614">
        <ele>1546.03</ele>
        <time>2016-10-27T21:34:35Z</time>
      </trkpt>
      <trkpt lat="42.9726" lon="-0.24717">
        <ele>1545.066</ele>
        <time>2016-10-27T21:34:55Z</time>
      </trkpt>
      <trkpt lat="42.97252" lon="-0.24755">
        <ele>1546.044</ele>
        <time>2016-10-27T21:35:15Z</time>
      </trkpt>
      <trkpt lat="42.9722" lon="-0.24805">
        <ele>1545.005</ele>
        <time>2016-10-27T21:35:35Z</time>
      </trkpt>
      <trkpt lat="42.97165" lon="-0.24832">
        <ele>1549.015</ele>
        <time>2016-10-27T21:35:55Z</time>
      </trkpt>
      <trkpt lat="42.97134" lon="-0.24856">
        <ele>1549.008</ele>
        <time>2016-10-27T21:36:15Z</time>
      </trkpt>
      <trkpt lat="42.9712" lon="-0.24933">
        <ele>1555.06</ele>
        <time>2016-10-27T21:36:35Z</time>
      </trkpt>
      <trkpt lat="42.97087" lon="-0.25019">
        <ele>1560.069</ele>
        <time>2016-10-27T21:36:55Z</time>
      </trkpt>
      <trkpt lat="42.97085" lon="-0.25174">
        <ele>1570.03</ele>
        <time>2016-10-27T21:37:15Z</time>
      </trkpt>
      <trkpt lat="42.97079" lon="-0.25304">
        <ele>1582.085</ele>
        <time>2016-10-27T21:37:35Z</time>
      </trkpt>
      <trkpt lat="42.9706" lon="-0.25367">
        <ele>1578.075</ele>
        <time>2016-10-27T21:37:55Z</time>
      </trkpt>
      <trkpt lat="42.96986" lon="-0.25459">
        <ele>1588.064</ele>
        <time>2016-10-27T21:38:15Z</time>
      </trkpt>
      <trkpt lat="42.96949" lon="-0.25663">
        <ele>1590.05</ele>
        <time>2016-10-27T21:38:35Z</time>
      </trkpt>
      <trkpt lat="42.96942" lon="-0.25824">
        <ele>1596.056</ele>
        <time>2016-10-27T21:38:55Z</time>
      </trkpt>
      <trkpt lat="42.96958" lon="-0.25871">
        <ele>1597.041</ele>
        <time>2016-10-27T21:39:15Z</time>
      </trkpt>
      <trkpt lat="42.97007" lon="-0.2595">
        <ele>1587.081</ele>
        <time>2016-10-27T21:39:35Z</time>
      </trkpt>
      <trkpt lat="42.97029" lon="-0.26023">
        <ele>1585.009</ele>
        <time>2016-10-27T21:39:55Z</time>
      </trkpt>
      <trkpt lat="42.9701" lon="-0.26051">
        <ele>1584.008</ele>
        <time>2016-10-27T21:40:15Z</time>
      </trkpt>
      <trkpt lat="42.96958" lon="-0.26036">
        <ele>1590.07</ele>
        <time>2016-10-27T21:40:35Z</time>
      </trkpt>
      <trkpt lat="42.96927" lon="-0.26064">
        <ele>1586.089</ele>
        <time>2016-10-27T21:40:55Z</time>
      </trkpt>
      <trkpt lat="42.9684" lon="-0.26073">
        <ele>1583.02</ele>
        <time>2016-10-27T21:41:15Z</time>
      </trkpt>
      <trkpt lat="42.96737" lon="-0.26015">
        <ele>1581.045</ele>
        <time>2016-10-27T21:41:35Z</time>
      </trkpt>
      <trkpt lat="42.96622" lon="-0.2592">
        <ele>1575.055</ele>
        <time>2016-10-27T21:41:55Z</time>
      </trkpt>
      <trkpt lat="42.96404" lon="-0.25946">
        <ele>1532.014</ele>
        <time>2016-10-27T21:42:15Z</time>
      </trkpt>
      <trkpt lat="42.96376" lon="-0.25922">
        <ele>1529.02</ele>
        <time>2016-10-27T21:42:35Z</time>
      </trkpt>
      <trkpt lat="42.96256" lon="-0.2594">
        <ele>1500.056</ele>
        <time>2016-10-27T21:42:55Z</time>
      </trkpt>
      <trkpt lat="42.96237" lon="-0.25965">
        <ele>1487.094</ele>
        <time>2016-10-27T21:43:15Z</time>
      </trkpt>
      <trkpt lat="42.96192" lon="-0.25989">
        <ele>1483.057</ele>
        <time>2016-10-27T21:43:35Z</time>
      </trkpt>
      <trkpt lat="42.96164" lon="-0.2601">
        <ele>1479.022</ele>
        <time>2016-10-27T21:43:55Z</time>
      </trkpt>
      <trkpt lat="42.96154" lon="-0.2603">
        <ele>1476.008</ele>
        <time>2016-10-27T21:44:15Z</time>
      </trkpt>
      <trkpt lat="42.96121" lon="-0.2606">
        <ele>1474.055</ele>
        <time>2016-10-27T21:44:35Z</time>
      </trkpt>
      <trkpt lat="42.96113" lon="-0.26086">
        <ele>1472.034</ele>
        <time>2016-10-27T21:44:55Z</time>
      </trkpt>
      <trkpt lat="42.96077" lon="-0.26131">
        <ele>1470.045</ele>
        <time>2016-10-27T21:45:15Z</time>
      </trkpt>
      <trkpt lat="42.96058" lon="-0.2609">
        <ele>1471.03</ele>
        <time>2016-10-27T21:45:35Z</time>
      </trkpt>
      <trkpt lat="42.96032" lon="-0.26195">
        <ele>1474.05</ele>
        <time>2016-10-27T21:45:55Z</time>
      </trkpt>
      <trkpt lat="42.96027" lon="-0.26231">
        <ele>1475.059</ele>
        <time>2016-10-27T21:46:15Z</time>
      </trkpt>
      <trkpt lat="42.95961" lon="-0.26328">
        <ele>1479.015</ele>
        <time>2016-10-27T21:46:35Z</time>
      </trkpt>
      <trkpt lat="42.9595" lon="-0.26356">
        <ele>1476.021</ele>
        <time>2016-10-27T21:46:55Z</time>
      </trkpt>
      <trkpt lat="42.9587" lon="-0.26401">
        <ele>1479.064</ele>
        <time>2016-10-27T21:47:15Z</time>
      </trkpt>
      <trkpt lat="42.95843" lon="-0.26476">
        <ele>1484.006</ele>
        <time>2016-10-27T21:47:35Z</time>
      </trkpt>
      <trkpt lat="42.95798" lon="-0.26538">
        <ele>1488.016</ele>
        <time>2016-10-27T21:47:55Z</time>
      </trkpt>
      <trkpt lat="42.95743" lon="-0.26555">
        <ele>1489.008</ele>
        <time>2016-10-27T21:48:15Z</time>
      </trkpt>
      <trkpt lat="42.95696" lon="-0.26607">
        <ele>1501.022</ele>
        <time>2016-10-27T21:48:35Z</time>
      </trkpt>
      <trkpt lat="42.95661" lon="-0.26609">
        <ele>1495.021</ele>
        <time>2016-10-27T21:48:55Z</time>
      </trkpt>
      <trkpt lat="42.95612" lon="-0.26656">
        <ele>1496.072</ele>
        <time>2016-10-27T21:49:15Z</time>
      </trkpt>
      <trkpt lat="42.95586" lon="-0.26699">
        <ele>1507.017</ele>
        <time>2016-10-27T21:49:35Z</time>
      </trkpt>
      <trkpt lat="42.95567" lon="-0.2686">
        <ele>1510.067</ele>
        <time>2016-10-27T21:49:55Z</time>
      </trkpt>
      <trkpt lat="42.95531" lon="-0.2695">
        <ele>1518.066</ele>
        <time>2016-10-27T21:50:15Z</time>
      </trkpt>
      <trkpt lat="42.95529" lon="-0.26993">
        <ele>1520.082</ele>
        <time>2016-10-27T21:50:35Z</time>
      </trkpt>
      <trkpt lat="42.95493" lon="-0.27038">
        <ele>1525.081</ele>
        <time>2016-10-27T21:51:15Z</time>
      </trkpt>
      <trkpt lat="42.95474" lon="-0.27087">
        <ele>1530.061</ele>
        <time>2016-10-27T21:51:35Z</time>
      </trkpt>
    </trkseg>
  </trk>
  <trk>
    <name><![CDATA[Tour des trois villages au pays Toy (Hautes-Pyrénées) (2021)]]></name>
    <desc><![CDATA[Randonnée dans le pays Toy en Hautes-Pyrénées autour des trois villages au départ de Sazos. Gîtes d'étapes, Chambres d'hôtes, Maison d'hôtes, Hôtels, Camping, Refuges, Auberges, Commerces.]]></desc>
    <extensions>
      <line xmlns="http://www.topografix.com/GPX/gpx_style/0/2">
        <color>000000</color>
        <width>4</width>
      </line>
    </extensions>
    <trkseg>
      <trkpt lat="42.88387" lon="-0.02507">
        <ele>841.283</ele>
        <time>2021-10-25T15:49:56Z</time>
      </trkpt>
      <trkpt lat="42.88382" lon="-0.02534">
        <ele>846.325</ele>
        <time>2021-10-25T15:50:36Z</time>
      </trkpt>
      <trkpt lat="42.88377" lon="-0.02548">
        <ele>850.817</ele>
        <time>2021-10-25T15:51:16Z</time>
      </trkpt>
      <trkpt lat="42.88377" lon="-0.02554">
        <ele>851.908</ele>
        <time>2021-10-25T15:51:56Z</time>
      </trkpt>
      <trkpt lat="42.88418" lon="-0.02589">
        <ele>848.576</ele>
        <time>2021-10-25T15:52:36Z</time>
      </trkpt>
      <trkpt lat="42.88437" lon="-0.02593">
        <ele>845.825</ele>
        <time>2021-10-25T15:53:16Z</time>
      </trkpt>
      <trkpt lat="42.8845" lon="-0.02599">
        <ele>845.251</ele>
        <time>2021-10-25T15:53:56Z</time>
      </trkpt>
      <trkpt lat="42.88475" lon="-0.02638">
        <ele>849.164</ele>
        <time>2021-10-25T15:54:36Z</time>
      </trkpt>
      <trkpt lat="42.88494" lon="-0.02665">
        <ele>849.219</ele>
        <time>2021-10-25T15:55:16Z</time>
      </trkpt>
      <trkpt lat="42.88508" lon="-0.02693">
        <ele>853.112</ele>
        <time>2021-10-25T15:55:56Z</time>
      </trkpt>
      <trkpt lat="42.88509" lon="-0.02703">
        <ele>855.322</ele>
        <time>2021-10-25T15:56:36Z</time>
      </trkpt>
      <trkpt lat="42.88506" lon="-0.02716">
        <ele>859.262</ele>
        <time>2021-10-25T15:57:16Z</time>
      </trkpt>
      <trkpt lat="42.88505" lon="-0.02732">
        <ele>863.924</ele>
        <time>2021-10-25T15:57:56Z</time>
      </trkpt>
      <trkpt lat="42.88503" lon="-0.02744">
        <ele>867.704</ele>
        <time>2021-10-25T15:58:36Z</time>
      </trkpt>
      <trkpt lat="42.88514" lon="-0.02811">
        <ele>880.714</ele>
        <time>2021-10-25T15:59:16Z</time>
      </trkpt>
      <trkpt lat="42.88527" lon="-0.02857">
        <ele>887.908</ele>
        <time>2021-10-25T15:59:56Z</time>
      </trkpt>
      <trkpt lat="42.88537" lon="-0.02873">
        <ele>892.14</ele>
        <time>2021-10-25T16:00:36Z</time>
      </trkpt>
      <trkpt lat="42.88547" lon="-0.02882">
        <ele>894.449</ele>
        <time>2021-10-25T16:01:16Z</time>
      </trkpt>
      <trkpt lat="42.88569" lon="-0.02897">
        <ele>898.375</ele>
        <time>2021-10-25T16:01:56Z</time>
      </trkpt>
      <trkpt lat="42.88628" lon="-0.02928">
        <ele>899.548</ele>
        <time>2021-10-25T16:02:36Z</time>
      </trkpt>
      <trkpt lat="42.88637" lon="-0.02936">
        <ele>900.413</ele>
        <time>2021-10-25T16:03:16Z</time>
      </trkpt>
      <trkpt lat="42.8864" lon="-0.02948">
        <ele>903.056</ele>
        <time>2021-10-25T16:03:56Z</time>
      </trkpt>
      <trkpt lat="42.8864" lon="-0.02967">
        <ele>908.336</ele>
        <time>2021-10-25T16:04:36Z</time>
      </trkpt>
      <trkpt lat="42.88638" lon="-0.0298">
        <ele>912.746</ele>
        <time>2021-10-25T16:05:16Z</time>
      </trkpt>
      <trkpt lat="42.88631" lon="-0.0299">
        <ele>916.216</ele>
        <time>2021-10-25T16:05:56Z</time>
      </trkpt>
      <trkpt lat="42.88616" lon="-0.02996">
        <ele>919.276</ele>
        <time>2021-10-25T16:06:36Z</time>
      </trkpt>
      <trkpt lat="42.88605" lon="-0.03003">
        <ele>923.413</ele>
        <time>2021-10-25T16:07:16Z</time>
      </trkpt>
      <trkpt lat="42.88604" lon="-0.03018">
        <ele>929.308</ele>
        <time>2021-10-25T16:07:56Z</time>
      </trkpt>
      <trkpt lat="42.88616" lon="-0.03023">
        <ele>929.749</ele>
        <time>2021-10-25T16:08:36Z</time>
      </trkpt>
      <trkpt lat="42.88635" lon="-0.03026">
        <ele>928.848</ele>
        <time>2021-10-25T16:09:16Z</time>
      </trkpt>
      <trkpt lat="42.88655" lon="-0.03026">
        <ele>927.864</ele>
        <time>2021-10-25T16:09:56Z</time>
      </trkpt>
      <trkpt lat="42.88677" lon="-0.03023">
        <ele>926.037</ele>
        <time>2021-10-25T16:10:36Z</time>
      </trkpt>
      <trkpt lat="42.88688" lon="-0.03027">
        <ele>926.942</ele>
        <time>2021-10-25T16:11:16Z</time>
      </trkpt>
      <trkpt lat="42.88694" lon="-0.03036">
        <ele>929.315</ele>
        <time>2021-10-25T16:11:56Z</time>
      </trkpt>
      <trkpt lat="42.88689" lon="-0.03055">
        <ele>935.235</ele>
        <time>2021-10-25T16:12:36Z</time>
      </trkpt>
      <trkpt lat="42.88665" lon="-0.03059">
        <ele>938.285</ele>
        <time>2021-10-25T16:13:16Z</time>
      </trkpt>
      <trkpt lat="42.88679" lon="-0.03072">
        <ele>941.378</ele>
        <time>2021-10-25T16:13:56Z</time>
      </trkpt>
      <trkpt lat="42.88697" lon="-0.03088">
        <ele>944.033</ele>
        <time>2021-10-25T16:14:36Z</time>
      </trkpt>
      <trkpt lat="42.88723" lon="-0.03104">
        <ele>946.026</ele>
        <time>2021-10-25T16:15:16Z</time>
      </trkpt>
      <trkpt lat="42.88734" lon="-0.03116">
        <ele>949.408</ele>
        <time>2021-10-25T16:15:56Z</time>
      </trkpt>
      <trkpt lat="42.88743" lon="-0.03123">
        <ele>950.725</ele>
        <time>2021-10-25T16:16:36Z</time>
      </trkpt>
      <trkpt lat="42.8879" lon="-0.03145">
        <ele>958.524</ele>
        <time>2021-10-25T16:17:16Z</time>
      </trkpt>
      <trkpt lat="42.88832" lon="-0.03159">
        <ele>967.94</ele>
        <time>2021-10-25T16:17:56Z</time>
      </trkpt>
      <trkpt lat="42.88832" lon="-0.03159">
        <ele>967.913</ele>
        <time>2021-10-25T16:18:36Z</time>
      </trkpt>
      <trkpt lat="42.88845" lon="-0.0315">
        <ele>969.658</ele>
        <time>2021-10-25T16:19:16Z</time>
      </trkpt>
      <trkpt lat="42.88853" lon="-0.03139">
        <ele>970.241</ele>
        <time>2021-10-25T16:19:56Z</time>
      </trkpt>
      <trkpt lat="42.88854" lon="-0.03128">
        <ele>969.351</ele>
        <time>2021-10-25T16:20:36Z</time>
      </trkpt>
      <trkpt lat="42.88851" lon="-0.03107">
        <ele>966.311</ele>
        <time>2021-10-25T16:21:16Z</time>
      </trkpt>
      <trkpt lat="42.8886" lon="-0.03121">
        <ele>969.763</ele>
        <time>2021-10-25T16:21:56Z</time>
      </trkpt>
      <trkpt lat="42.88864" lon="-0.03125">
        <ele>970.944</ele>
        <time>2021-10-25T16:22:36Z</time>
      </trkpt>
      <trkpt lat="42.8887" lon="-0.03132">
        <ele>972.718</ele>
        <time>2021-10-25T16:23:16Z</time>
      </trkpt>
      <trkpt lat="42.88882" lon="-0.03159">
        <ele>978.008</ele>
        <time>2021-10-25T16:23:56Z</time>
      </trkpt>
      <trkpt lat="42.88883" lon="-0.03164">
        <ele>978.794</ele>
        <time>2021-10-25T16:24:36Z</time>
      </trkpt>
      <trkpt lat="42.88884" lon="-0.03182">
        <ele>981.373</ele>
        <time>2021-10-25T16:25:16Z</time>
      </trkpt>
      <trkpt lat="42.88886" lon="-0.03199">
        <ele>983.819</ele>
        <time>2021-10-25T16:25:56Z</time>
      </trkpt>
      <trkpt lat="42.88891" lon="-0.03205">
        <ele>985.672</ele>
        <time>2021-10-25T16:26:36Z</time>
      </trkpt>
      <trkpt lat="42.88905" lon="-0.03199">
        <ele>988.047</ele>
        <time>2021-10-25T16:27:16Z</time>
      </trkpt>
      <trkpt lat="42.88916" lon="-0.03208">
        <ele>991.48</ele>
        <time>2021-10-25T16:27:56Z</time>
      </trkpt>
      <trkpt lat="42.88923" lon="-0.03222">
        <ele>994.24</ele>
        <time>2021-10-25T16:28:36Z</time>
      </trkpt>
      <trkpt lat="42.88931" lon="-0.03243">
        <ele>999.41</ele>
        <time>2021-10-25T16:29:16Z</time>
      </trkpt>
      <trkpt lat="42.88941" lon="-0.0324">
        <ele>1001.537</ele>
        <time>2021-10-25T16:29:56Z</time>
      </trkpt>
      <trkpt lat="42.88949" lon="-0.03243">
        <ele>1003.749</ele>
        <time>2021-10-25T16:30:36Z</time>
      </trkpt>
      <trkpt lat="42.8896" lon="-0.03244">
        <ele>1005.813</ele>
        <time>2021-10-25T16:31:16Z</time>
      </trkpt>
      <trkpt lat="42.88972" lon="-0.0325">
        <ele>1009.008</ele>
        <time>2021-10-25T16:31:56Z</time>
      </trkpt>
      <trkpt lat="42.8897" lon="-0.03259">
        <ele>1010.581</ele>
        <time>2021-10-25T16:32:36Z</time>
      </trkpt>
      <trkpt lat="42.88988" lon="-0.03284">
        <ele>1018.42</ele>
        <time>2021-10-25T16:33:16Z</time>
      </trkpt>
      <trkpt lat="42.89008" lon="-0.03299">
        <ele>1022.776</ele>
        <time>2021-10-25T16:33:56Z</time>
      </trkpt>
      <trkpt lat="42.89039" lon="-0.03311">
        <ele>1027.589</ele>
        <time>2021-10-25T16:34:36Z</time>
      </trkpt>
      <trkpt lat="42.8906" lon="-0.03326">
        <ele>1034.044</ele>
        <time>2021-10-25T16:35:16Z</time>
      </trkpt>
      <trkpt lat="42.89105" lon="-0.03343">
        <ele>1036.287</ele>
        <time>2021-10-25T16:35:56Z</time>
      </trkpt>
      <trkpt lat="42.89151" lon="-0.03374">
        <ele>1038.677</ele>
        <time>2021-10-25T16:36:36Z</time>
      </trkpt>
      <trkpt lat="42.89166" lon="-0.03389">
        <ele>1041.537</ele>
        <time>2021-10-25T16:37:16Z</time>
      </trkpt>
      <trkpt lat="42.89181" lon="-0.03417">
        <ele>1050.494</ele>
        <time>2021-10-25T16:37:56Z</time>
      </trkpt>
      <trkpt lat="42.89195" lon="-0.03435">
        <ele>1055.557</ele>
        <time>2021-10-25T16:38:36Z</time>
      </trkpt>
      <trkpt lat="42.89274" lon="-0.03466">
        <ele>1053.522</ele>
        <time>2021-10-25T16:39:16Z</time>
      </trkpt>
      <trkpt lat="42.89307" lon="-0.03476">
        <ele>1050.408</ele>
        <time>2021-10-25T16:39:56Z</time>
      </trkpt>
      <trkpt lat="42.89324" lon="-0.03487">
        <ele>1051.787</ele>
        <time>2021-10-25T16:40:36Z</time>
      </trkpt>
      <trkpt lat="42.89346" lon="-0.03507">
        <ele>1054.526</ele>
        <time>2021-10-25T16:41:16Z</time>
      </trkpt>
      <trkpt lat="42.89373" lon="-0.03534">
        <ele>1057.912</ele>
        <time>2021-10-25T16:41:56Z</time>
      </trkpt>
      <trkpt lat="42.89394" lon="-0.03564">
        <ele>1062.225</ele>
        <time>2021-10-25T16:42:36Z</time>
      </trkpt>
      <trkpt lat="42.89407" lon="-0.03589">
        <ele>1068.23</ele>
        <time>2021-10-25T16:43:16Z</time>
      </trkpt>
      <trkpt lat="42.8943" lon="-0.03613">
        <ele>1071.153</ele>
        <time>2021-10-25T16:43:56Z</time>
      </trkpt>
      <trkpt lat="42.89458" lon="-0.03635">
        <ele>1071.973</ele>
        <time>2021-10-25T16:44:36Z</time>
      </trkpt>
      <trkpt lat="42.89486" lon="-0.03643">
        <ele>1070.823</ele>
        <time>2021-10-25T16:45:16Z</time>
      </trkpt>
      <trkpt lat="42.89511" lon="-0.03645">
        <ele>1073.619</ele>
        <time>2021-10-25T16:45:56Z</time>
      </trkpt>
      <trkpt lat="42.89535" lon="-0.03639">
        <ele>1078.809</ele>
        <time>2021-10-25T16:46:36Z</time>
      </trkpt>
      <trkpt lat="42.89588" lon="-0.03598">
        <ele>1079.619</ele>
        <time>2021-10-25T16:47:16Z</time>
      </trkpt>
      <trkpt lat="42.89632" lon="-0.03616">
        <ele>1084.008</ele>
        <time>2021-10-25T16:47:56Z</time>
      </trkpt>
      <trkpt lat="42.89667" lon="-0.03637">
        <ele>1083.629</ele>
        <time>2021-10-25T16:48:36Z</time>
      </trkpt>
      <trkpt lat="42.89689" lon="-0.03641">
        <ele>1077.288</ele>
        <time>2021-10-25T16:49:16Z</time>
      </trkpt>
      <trkpt lat="42.89723" lon="-0.03671">
        <ele>1082.214</ele>
        <time>2021-10-25T16:49:56Z</time>
      </trkpt>
      <trkpt lat="42.89735" lon="-0.03676">
        <ele>1081.377</ele>
        <time>2021-10-25T16:50:36Z</time>
      </trkpt>
      <trkpt lat="42.89754" lon="-0.03681">
        <ele>1077.612</ele>
        <time>2021-10-25T16:51:16Z</time>
      </trkpt>
      <trkpt lat="42.89797" lon="-0.03727">
        <ele>1092.845</ele>
        <time>2021-10-25T16:51:56Z</time>
      </trkpt>
      <trkpt lat="42.89813" lon="-0.03738">
        <ele>1094.765</ele>
        <time>2021-10-25T16:52:36Z</time>
      </trkpt>
      <trkpt lat="42.89856" lon="-0.03758">
        <ele>1093.425</ele>
        <time>2021-10-25T16:53:16Z</time>
      </trkpt>
      <trkpt lat="42.89896" lon="-0.03781">
        <ele>1092.814</ele>
        <time>2021-10-25T16:53:56Z</time>
      </trkpt>
      <trkpt lat="42.89911" lon="-0.03798">
        <ele>1096.254</ele>
        <time>2021-10-25T16:54:36Z</time>
      </trkpt>
      <trkpt lat="42.89932" lon="-0.03891">
        <ele>1136.709</ele>
        <time>2021-10-25T16:55:16Z</time>
      </trkpt>
      <trkpt lat="42.89957" lon="-0.03975">
        <ele>1159.808</ele>
        <time>2021-10-25T16:55:56Z</time>
      </trkpt>
      <trkpt lat="42.89959" lon="-0.04029">
        <ele>1165.299</ele>
        <time>2021-10-25T16:56:36Z</time>
      </trkpt>
      <trkpt lat="42.89962" lon="-0.04068">
        <ele>1160.118</ele>
        <time>2021-10-25T16:57:16Z</time>
      </trkpt>
      <trkpt lat="42.89957" lon="-0.04088">
        <ele>1162.114</ele>
        <time>2021-10-25T16:57:56Z</time>
      </trkpt>
      <trkpt lat="42.8995" lon="-0.04103">
        <ele>1165.797</ele>
        <time>2021-10-25T16:58:36Z</time>
      </trkpt>
      <trkpt lat="42.89925" lon="-0.04154">
        <ele>1172.262</ele>
        <time>2021-10-25T16:59:16Z</time>
      </trkpt>
      <trkpt lat="42.89908" lon="-0.04194">
        <ele>1171.965</ele>
        <time>2021-10-25T16:59:56Z</time>
      </trkpt>
      <trkpt lat="42.89892" lon="-0.04246">
        <ele>1169.325</ele>
        <time>2021-10-25T17:00:36Z</time>
      </trkpt>
      <trkpt lat="42.89889" lon="-0.04265">
        <ele>1167.975</ele>
        <time>2021-10-25T17:01:16Z</time>
      </trkpt>
      <trkpt lat="42.89891" lon="-0.04289">
        <ele>1164.133</ele>
        <time>2021-10-25T17:01:56Z</time>
      </trkpt>
      <trkpt lat="42.89895" lon="-0.04305">
        <ele>1160.723</ele>
        <time>2021-10-25T17:02:36Z</time>
      </trkpt>
      <trkpt lat="42.89906" lon="-0.04324">
        <ele>1153.615</ele>
        <time>2021-10-25T17:03:16Z</time>
      </trkpt>
      <trkpt lat="42.89915" lon="-0.04345">
        <ele>1148.808</ele>
        <time>2021-10-25T17:03:56Z</time>
      </trkpt>
      <trkpt lat="42.89918" lon="-0.04365">
        <ele>1149.341</ele>
        <time>2021-10-25T17:04:36Z</time>
      </trkpt>
      <trkpt lat="42.89918" lon="-0.04389">
        <ele>1151.76</ele>
        <time>2021-10-25T17:05:16Z</time>
      </trkpt>
      <trkpt lat="42.89911" lon="-0.04449">
        <ele>1161.216</ele>
        <time>2021-10-25T17:05:56Z</time>
      </trkpt>
      <trkpt lat="42.89911" lon="-0.0447">
        <ele>1161.399</ele>
        <time>2021-10-25T17:06:36Z</time>
      </trkpt>
      <trkpt lat="42.89914" lon="-0.04504">
        <ele>1158.274</ele>
        <time>2021-10-25T17:07:16Z</time>
      </trkpt>
      <trkpt lat="42.89917" lon="-0.04523">
        <ele>1156.157</ele>
        <time>2021-10-25T17:07:56Z</time>
      </trkpt>
      <trkpt lat="42.89923" lon="-0.04538">
        <ele>1150.987</ele>
        <time>2021-10-25T17:08:36Z</time>
      </trkpt>
      <trkpt lat="42.89926" lon="-0.04557">
        <ele>1147.697</ele>
        <time>2021-10-25T17:09:16Z</time>
      </trkpt>
      <trkpt lat="42.89929" lon="-0.04581">
        <ele>1145.181</ele>
        <time>2021-10-25T17:09:56Z</time>
      </trkpt>
      <trkpt lat="42.89927" lon="-0.04675">
        <ele>1145.961</ele>
        <time>2021-10-25T17:10:36Z</time>
      </trkpt>
      <trkpt lat="42.89928" lon="-0.04689">
        <ele>1143.517</ele>
        <time>2021-10-25T17:11:16Z</time>
      </trkpt>
      <trkpt lat="42.89932" lon="-0.04711">
        <ele>1138.708</ele>
        <time>2021-10-25T17:11:56Z</time>
      </trkpt>
      <trkpt lat="42.8994" lon="-0.04722">
        <ele>1133.956</ele>
        <time>2021-10-25T17:12:36Z</time>
      </trkpt>
      <trkpt lat="42.89951" lon="-0.04729">
        <ele>1134.335</ele>
        <time>2021-10-25T17:13:16Z</time>
      </trkpt>
      <trkpt lat="42.89959" lon="-0.04725">
        <ele>1133.621</ele>
        <time>2021-10-25T17:13:56Z</time>
      </trkpt>
      <trkpt lat="42.89976" lon="-0.04699">
        <ele>1126.564</ele>
        <time>2021-10-25T17:14:36Z</time>
      </trkpt>
      <trkpt lat="42.89996" lon="-0.0468">
        <ele>1124.419</ele>
        <time>2021-10-25T17:15:16Z</time>
      </trkpt>
      <trkpt lat="42.90014" lon="-0.04656">
        <ele>1122.892</ele>
        <time>2021-10-25T17:15:56Z</time>
      </trkpt>
      <trkpt lat="42.90021" lon="-0.04639">
        <ele>1120.412</ele>
        <time>2021-10-25T17:16:36Z</time>
      </trkpt>
      <trkpt lat="42.90036" lon="-0.04617">
        <ele>1122.932</ele>
        <time>2021-10-25T17:17:16Z</time>
      </trkpt>
      <trkpt lat="42.90049" lon="-0.04593">
        <ele>1124.529</ele>
        <time>2021-10-25T17:17:56Z</time>
      </trkpt>
      <trkpt lat="42.90053" lon="-0.04579">
        <ele>1123.7</ele>
        <time>2021-10-25T17:18:36Z</time>
      </trkpt>
      <trkpt lat="42.90057" lon="-0.04534">
        <ele>1112.62</ele>
        <time>2021-10-25T17:19:16Z</time>
      </trkpt>
      <trkpt lat="42.90061" lon="-0.04522">
        <ele>1112.208</ele>
        <time>2021-10-25T17:19:56Z</time>
      </trkpt>
      <trkpt lat="42.90072" lon="-0.04511">
        <ele>1114.65</ele>
        <time>2021-10-25T17:20:36Z</time>
      </trkpt>
      <trkpt lat="42.90086" lon="-0.04507">
        <ele>1119.539</ele>
        <time>2021-10-25T17:21:16Z</time>
      </trkpt>
      <trkpt lat="42.90108" lon="-0.04512">
        <ele>1129.775</ele>
        <time>2021-10-25T17:21:56Z</time>
      </trkpt>
      <trkpt lat="42.90119" lon="-0.04508">
        <ele>1130.468</ele>
        <time>2021-10-25T17:22:36Z</time>
      </trkpt>
      <trkpt lat="42.90144" lon="-0.04502">
        <ele>1131.613</ele>
        <time>2021-10-25T17:23:16Z</time>
      </trkpt>
      <trkpt lat="42.90151" lon="-0.04486">
        <ele>1124.326</ele>
        <time>2021-10-25T17:23:56Z</time>
      </trkpt>
      <trkpt lat="42.90159" lon="-0.04463">
        <ele>1115.366</ele>
        <time>2021-10-25T17:24:36Z</time>
      </trkpt>
      <trkpt lat="42.90172" lon="-0.04452">
        <ele>1115.216</ele>
        <time>2021-10-25T17:25:16Z</time>
      </trkpt>
      <trkpt lat="42.90201" lon="-0.04436">
        <ele>1121.957</ele>
        <time>2021-10-25T17:25:56Z</time>
      </trkpt>
      <trkpt lat="42.90205" lon="-0.04419">
        <ele>1115.7</ele>
        <time>2021-10-25T17:26:36Z</time>
      </trkpt>
      <trkpt lat="42.90212" lon="-0.04402">
        <ele>1111.42</ele>
        <time>2021-10-25T17:27:16Z</time>
      </trkpt>
      <trkpt lat="42.90223" lon="-0.0439">
        <ele>1109.908</ele>
        <time>2021-10-25T17:27:56Z</time>
      </trkpt>
      <trkpt lat="42.90234" lon="-0.04379">
        <ele>1106.513</ele>
        <time>2021-10-25T17:28:36Z</time>
      </trkpt>
      <trkpt lat="42.90244" lon="-0.04378">
        <ele>1107.962</ele>
        <time>2021-10-25T17:29:16Z</time>
      </trkpt>
      <trkpt lat="42.90263" lon="-0.04379">
        <ele>1114.398</ele>
        <time>2021-10-25T17:29:56Z</time>
      </trkpt>
      <trkpt lat="42.90271" lon="-0.04375">
        <ele>1114.611</ele>
        <time>2021-10-25T17:30:36Z</time>
      </trkpt>
      <trkpt lat="42.90314" lon="-0.04331">
        <ele>1108.956</ele>
        <time>2021-10-25T17:31:16Z</time>
      </trkpt>
      <trkpt lat="42.90331" lon="-0.04282">
        <ele>1097.499</ele>
        <time>2021-10-25T17:31:56Z</time>
      </trkpt>
      <trkpt lat="42.90357" lon="-0.04267">
        <ele>1097.549</ele>
        <time>2021-10-25T17:32:36Z</time>
      </trkpt>
      <trkpt lat="42.9038" lon="-0.04268">
        <ele>1097.269</ele>
        <time>2021-10-25T17:33:16Z</time>
      </trkpt>
      <trkpt lat="42.90406" lon="-0.04278">
        <ele>1096.026</ele>
        <time>2021-10-25T17:33:56Z</time>
      </trkpt>
      <trkpt lat="42.90422" lon="-0.04283">
        <ele>1093.947</ele>
        <time>2021-10-25T17:34:36Z</time>
      </trkpt>
      <trkpt lat="42.90447" lon="-0.04304">
        <ele>1094.011</ele>
        <time>2021-10-25T17:35:16Z</time>
      </trkpt>
      <trkpt lat="42.90476" lon="-0.04329">
        <ele>1090.308</ele>
        <time>2021-10-25T17:35:56Z</time>
      </trkpt>
      <trkpt lat="42.90552" lon="-0.04418">
        <ele>1084.11</ele>
        <time>2021-10-25T17:36:36Z</time>
      </trkpt>
      <trkpt lat="42.90579" lon="-0.04462">
        <ele>1083.589</ele>
        <time>2021-10-25T17:37:16Z</time>
      </trkpt>
      <trkpt lat="42.90589" lon="-0.04477">
        <ele>1082.425</ele>
        <time>2021-10-25T17:37:56Z</time>
      </trkpt>
      <trkpt lat="42.90597" lon="-0.04487">
        <ele>1080.868</ele>
        <time>2021-10-25T17:38:36Z</time>
      </trkpt>
      <trkpt lat="42.90614" lon="-0.04503">
        <ele>1075.873</ele>
        <time>2021-10-25T17:39:16Z</time>
      </trkpt>
      <trkpt lat="42.90622" lon="-0.04509">
        <ele>1074.686</ele>
        <time>2021-10-25T17:39:56Z</time>
      </trkpt>
      <trkpt lat="42.90633" lon="-0.04512">
        <ele>1070.046</ele>
        <time>2021-10-25T17:40:36Z</time>
      </trkpt>
      <trkpt lat="42.90648" lon="-0.0451">
        <ele>1064.036</ele>
        <time>2021-10-25T17:41:16Z</time>
      </trkpt>
      <trkpt lat="42.90664" lon="-0.04511">
        <ele>1059.537</ele>
        <time>2021-10-25T17:41:56Z</time>
      </trkpt>
      <trkpt lat="42.90675" lon="-0.04512">
        <ele>1057.849</ele>
        <time>2021-10-25T17:42:36Z</time>
      </trkpt>
      <trkpt lat="42.90692" lon="-0.04519">
        <ele>1057.613</ele>
        <time>2021-10-25T17:43:16Z</time>
      </trkpt>
      <trkpt lat="42.90714" lon="-0.04538">
        <ele>1058.908</ele>
        <time>2021-10-25T17:43:56Z</time>
      </trkpt>
      <trkpt lat="42.90734" lon="-0.04565">
        <ele>1058.751</ele>
        <time>2021-10-25T17:44:36Z</time>
      </trkpt>
      <trkpt lat="42.90748" lon="-0.04591">
        <ele>1057.46</ele>
        <time>2021-10-25T17:45:16Z</time>
      </trkpt>
      <trkpt lat="42.90762" lon="-0.0463">
        <ele>1055.146</ele>
        <time>2021-10-25T17:45:56Z</time>
      </trkpt>
      <trkpt lat="42.90773" lon="-0.04663">
        <ele>1054.739</ele>
        <time>2021-10-25T17:46:36Z</time>
      </trkpt>
      <trkpt lat="42.90778" lon="-0.04669">
        <ele>1053.664</ele>
        <time>2021-10-25T17:47:16Z</time>
      </trkpt>
      <trkpt lat="42.9079" lon="-0.04676">
        <ele>1049.417</ele>
        <time>2021-10-25T17:47:56Z</time>
      </trkpt>
      <trkpt lat="42.90836" lon="-0.04663">
        <ele>1024.957</ele>
        <time>2021-10-25T17:48:36Z</time>
      </trkpt>
      <trkpt lat="42.90842" lon="-0.0465">
        <ele>1020.027</ele>
        <time>2021-10-25T17:49:16Z</time>
      </trkpt>
      <trkpt lat="42.90844" lon="-0.04618">
        <ele>1011.163</ele>
        <time>2021-10-25T17:49:56Z</time>
      </trkpt>
      <trkpt lat="42.90851" lon="-0.04612">
        <ele>1006.344</ele>
        <time>2021-10-25T17:50:36Z</time>
      </trkpt>
      <trkpt lat="42.90892" lon="-0.04631">
        <ele>995.418</ele>
        <time>2021-10-25T17:51:16Z</time>
      </trkpt>
      <trkpt lat="42.9093" lon="-0.04639">
        <ele>985.708</ele>
        <time>2021-10-25T17:51:56Z</time>
      </trkpt>
      <trkpt lat="42.90942" lon="-0.04635">
        <ele>981.534</ele>
        <time>2021-10-25T17:52:36Z</time>
      </trkpt>
      <trkpt lat="42.9096" lon="-0.0462">
        <ele>974.113</ele>
        <time>2021-10-25T17:53:16Z</time>
      </trkpt>
      <trkpt lat="42.90969" lon="-0.04606">
        <ele>967.979</ele>
        <time>2021-10-25T17:53:56Z</time>
      </trkpt>
      <trkpt lat="42.90976" lon="-0.04568">
        <ele>952.912</ele>
        <time>2021-10-25T17:54:36Z</time>
      </trkpt>
      <trkpt lat="42.90987" lon="-0.04561">
        <ele>946.667</ele>
        <time>2021-10-25T17:55:16Z</time>
      </trkpt>
      <trkpt lat="42.91006" lon="-0.04569">
        <ele>944.29</ele>
        <time>2021-10-25T17:55:56Z</time>
      </trkpt>
      <trkpt lat="42.91041" lon="-0.04585">
        <ele>938.81</ele>
        <time>2021-10-25T17:56:36Z</time>
      </trkpt>
      <trkpt lat="42.91024" lon="-0.04528">
        <ele>922.24</ele>
        <time>2021-10-25T17:57:16Z</time>
      </trkpt>
      <trkpt lat="42.90999" lon="-0.04478">
        <ele>914.336</ele>
        <time>2021-10-25T17:57:56Z</time>
      </trkpt>
      <trkpt lat="42.9102" lon="-0.04458">
        <ele>899.717</ele>
        <time>2021-10-25T17:58:36Z</time>
      </trkpt>
      <trkpt lat="42.91035" lon="-0.04441">
        <ele>888.518</ele>
        <time>2021-10-25T17:59:16Z</time>
      </trkpt>
      <trkpt lat="42.91055" lon="-0.04381">
        <ele>866.508</ele>
        <time>2021-10-25T17:59:56Z</time>
      </trkpt>
      <trkpt lat="42.91065" lon="-0.04335">
        <ele>855.941</ele>
        <time>2021-10-25T18:00:36Z</time>
      </trkpt>
      <trkpt lat="42.91042" lon="-0.04336">
        <ele>859.04</ele>
        <time>2021-10-25T18:01:16Z</time>
      </trkpt>
      <trkpt lat="42.91037" lon="-0.04322">
        <ele>856.946</ele>
        <time>2021-10-25T18:01:56Z</time>
      </trkpt>
      <trkpt lat="42.91021" lon="-0.043">
        <ele>855.879</ele>
        <time>2021-10-25T18:02:36Z</time>
      </trkpt>
      <trkpt lat="42.91012" lon="-0.04278">
        <ele>855.144</ele>
        <time>2021-10-25T18:03:16Z</time>
      </trkpt>
      <trkpt lat="42.90995" lon="-0.0427">
        <ele>857.847</ele>
        <time>2021-10-25T18:03:56Z</time>
      </trkpt>
      <trkpt lat="42.90978" lon="-0.04266">
        <ele>861.997</ele>
        <time>2021-10-25T18:04:36Z</time>
      </trkpt>
      <trkpt lat="42.90932" lon="-0.04227">
        <ele>862.927</ele>
        <time>2021-10-25T18:05:16Z</time>
      </trkpt>
      <trkpt lat="42.90886" lon="-0.04195">
        <ele>859.953</ele>
        <time>2021-10-25T18:05:56Z</time>
      </trkpt>
      <trkpt lat="42.90851" lon="-0.04174">
        <ele>857.804</ele>
        <time>2021-10-25T18:06:36Z</time>
      </trkpt>
      <trkpt lat="42.9083" lon="-0.04169">
        <ele>860.614</ele>
        <time>2021-10-25T18:07:16Z</time>
      </trkpt>
      <trkpt lat="42.90788" lon="-0.04147">
        <ele>859.808</ele>
        <time>2021-10-25T18:07:56Z</time>
      </trkpt>
      <trkpt lat="42.90769" lon="-0.04136">
        <ele>860.123</ele>
        <time>2021-10-25T18:08:36Z</time>
      </trkpt>
      <trkpt lat="42.90751" lon="-0.04132">
        <ele>863.572</ele>
        <time>2021-10-25T18:09:16Z</time>
      </trkpt>
      <trkpt lat="42.90725" lon="-0.04113">
        <ele>865.968</ele>
        <time>2021-10-25T18:09:56Z</time>
      </trkpt>
      <trkpt lat="42.90715" lon="-0.04107">
        <ele>867.131</ele>
        <time>2021-10-25T18:10:36Z</time>
      </trkpt>
      <trkpt lat="42.90708" lon="-0.04092">
        <ele>861.666</ele>
        <time>2021-10-25T18:11:16Z</time>
      </trkpt>
      <trkpt lat="42.90699" lon="-0.04076">
        <ele>856.239</ele>
        <time>2021-10-25T18:11:56Z</time>
      </trkpt>
      <trkpt lat="42.90689" lon="-0.04061">
        <ele>851.889</ele>
        <time>2021-10-25T18:12:36Z</time>
      </trkpt>
      <trkpt lat="42.9068" lon="-0.04036">
        <ele>841.999</ele>
        <time>2021-10-25T18:13:16Z</time>
      </trkpt>
      <trkpt lat="42.90644" lon="-0.0401">
        <ele>844.188</ele>
        <time>2021-10-25T18:13:56Z</time>
      </trkpt>
      <trkpt lat="42.90627" lon="-0.04005">
        <ele>847.824</ele>
        <time>2021-10-25T18:14:36Z</time>
      </trkpt>
      <trkpt lat="42.90613" lon="-0.04004">
        <ele>851.826</ele>
        <time>2021-10-25T18:15:16Z</time>
      </trkpt>
      <trkpt lat="42.90597" lon="-0.04002">
        <ele>856.208</ele>
        <time>2021-10-25T18:15:56Z</time>
      </trkpt>
      <trkpt lat="42.9053" lon="-0.0396">
        <ele>856.266</ele>
        <time>2021-10-25T18:16:36Z</time>
      </trkpt>
      <trkpt lat="42.90523" lon="-0.03945">
        <ele>849.415</ele>
        <time>2021-10-25T18:17:16Z</time>
      </trkpt>
      <trkpt lat="42.90517" lon="-0.0393">
        <ele>842.521</ele>
        <time>2021-10-25T18:17:56Z</time>
      </trkpt>
      <trkpt lat="42.9051" lon="-0.03924">
        <ele>840.624</ele>
        <time>2021-10-25T18:18:36Z</time>
      </trkpt>
      <trkpt lat="42.90481" lon="-0.03912">
        <ele>843.369</ele>
        <time>2021-10-25T18:19:16Z</time>
      </trkpt>
      <trkpt lat="42.90468" lon="-0.03905">
        <ele>844.292</ele>
        <time>2021-10-25T18:19:56Z</time>
      </trkpt>
      <trkpt lat="42.90446" lon="-0.03889">
        <ele>846.162</ele>
        <time>2021-10-25T18:20:36Z</time>
      </trkpt>
      <trkpt lat="42.90417" lon="-0.03861">
        <ele>843.872</ele>
        <time>2021-10-25T18:21:16Z</time>
      </trkpt>
      <trkpt lat="42.90397" lon="-0.03835">
        <ele>837.015</ele>
        <time>2021-10-25T18:21:56Z</time>
      </trkpt>
      <trkpt lat="42.90376" lon="-0.03815">
        <ele>834.565</ele>
        <time>2021-10-25T18:22:36Z</time>
      </trkpt>
      <trkpt lat="42.90348" lon="-0.03795">
        <ele>832.511</ele>
        <time>2021-10-25T18:23:16Z</time>
      </trkpt>
      <trkpt lat="42.90326" lon="-0.03789">
        <ele>832.408</ele>
        <time>2021-10-25T18:23:56Z</time>
      </trkpt>
      <trkpt lat="42.90311" lon="-0.03783">
        <ele>828.949</ele>
        <time>2021-10-25T18:24:36Z</time>
      </trkpt>
      <trkpt lat="42.903" lon="-0.03779">
        <ele>825.678</ele>
        <time>2021-10-25T18:25:16Z</time>
      </trkpt>
      <trkpt lat="42.90293" lon="-0.03781">
        <ele>825.764</ele>
        <time>2021-10-25T18:25:56Z</time>
      </trkpt>
      <trkpt lat="42.90287" lon="-0.03791">
        <ele>828.627</ele>
        <time>2021-10-25T18:26:36Z</time>
      </trkpt>
      <trkpt lat="42.9027" lon="-0.03821">
        <ele>838.472</ele>
        <time>2021-10-25T18:27:16Z</time>
      </trkpt>
      <trkpt lat="42.9026" lon="-0.03825">
        <ele>840.155</ele>
        <time>2021-10-25T18:27:56Z</time>
      </trkpt>
      <trkpt lat="42.90248" lon="-0.03817">
        <ele>840.095</ele>
        <time>2021-10-25T18:28:36Z</time>
      </trkpt>
      <trkpt lat="42.90236" lon="-0.03794">
        <ele>840.545</ele>
        <time>2021-10-25T18:29:16Z</time>
      </trkpt>
      <trkpt lat="42.90223" lon="-0.03773">
        <ele>840.771</ele>
        <time>2021-10-25T18:29:56Z</time>
      </trkpt>
      <trkpt lat="42.90215" lon="-0.03762">
        <ele>843.041</ele>
        <time>2021-10-25T18:30:36Z</time>
      </trkpt>
      <trkpt lat="42.90189" lon="-0.03727">
        <ele>849.115</ele>
        <time>2021-10-25T18:31:16Z</time>
      </trkpt>
      <trkpt lat="42.90167" lon="-0.03694">
        <ele>854.008</ele>
        <time>2021-10-25T18:31:56Z</time>
      </trkpt>
      <trkpt lat="42.90149" lon="-0.03659">
        <ele>854.285</ele>
        <time>2021-10-25T18:32:36Z</time>
      </trkpt>
      <trkpt lat="42.90128" lon="-0.03604">
        <ele>849.314</ele>
        <time>2021-10-25T18:33:16Z</time>
      </trkpt>
      <trkpt lat="42.90109" lon="-0.03551">
        <ele>843.57</ele>
        <time>2021-10-25T18:33:56Z</time>
      </trkpt>
      <trkpt lat="42.90099" lon="-0.03519">
        <ele>838.273</ele>
        <time>2021-10-25T18:34:36Z</time>
      </trkpt>
      <trkpt lat="42.90087" lon="-0.03495">
        <ele>836.198</ele>
        <time>2021-10-25T18:35:16Z</time>
      </trkpt>
      <trkpt lat="42.90074" lon="-0.03476">
        <ele>835.421</ele>
        <time>2021-10-25T18:35:56Z</time>
      </trkpt>
      <trkpt lat="42.90056" lon="-0.03459">
        <ele>837.841</ele>
        <time>2021-10-25T18:36:36Z</time>
      </trkpt>
      <trkpt lat="42.9004" lon="-0.03442">
        <ele>838.351</ele>
        <time>2021-10-25T18:37:16Z</time>
      </trkpt>
      <trkpt lat="42.9003" lon="-0.03423">
        <ele>835.649</ele>
        <time>2021-10-25T18:37:56Z</time>
      </trkpt>
      <trkpt lat="42.90013" lon="-0.03396">
        <ele>832.302</ele>
        <time>2021-10-25T18:38:36Z</time>
      </trkpt>
      <trkpt lat="42.89996" lon="-0.03378">
        <ele>833.222</ele>
        <time>2021-10-25T18:39:16Z</time>
      </trkpt>
      <trkpt lat="42.89952" lon="-0.03349">
        <ele>833.608</ele>
        <time>2021-10-25T18:39:56Z</time>
      </trkpt>
      <trkpt lat="42.89918" lon="-0.03337">
        <ele>832.092</ele>
        <time>2021-10-25T18:40:36Z</time>
      </trkpt>
      <trkpt lat="42.89908" lon="-0.03329">
        <ele>827.511</ele>
        <time>2021-10-25T18:41:16Z</time>
      </trkpt>
      <trkpt lat="42.89896" lon="-0.03325">
        <ele>824.747</ele>
        <time>2021-10-25T18:41:56Z</time>
      </trkpt>
      <trkpt lat="42.8987" lon="-0.03326">
        <ele>825.54</ele>
        <time>2021-10-25T18:42:36Z</time>
      </trkpt>
      <trkpt lat="42.89853" lon="-0.03324">
        <ele>825.555</ele>
        <time>2021-10-25T18:43:16Z</time>
      </trkpt>
      <trkpt lat="42.89832" lon="-0.03314">
        <ele>822.718</ele>
        <time>2021-10-25T18:43:56Z</time>
      </trkpt>
      <trkpt lat="42.89812" lon="-0.03307">
        <ele>822.158</ele>
        <time>2021-10-25T18:44:36Z</time>
      </trkpt>
      <trkpt lat="42.8979" lon="-0.03302">
        <ele>823.068</ele>
        <time>2021-10-25T18:45:16Z</time>
      </trkpt>
      <trkpt lat="42.89759" lon="-0.03295">
        <ele>824.717</ele>
        <time>2021-10-25T18:45:56Z</time>
      </trkpt>
      <trkpt lat="42.89734" lon="-0.03284">
        <ele>823.787</ele>
        <time>2021-10-25T18:46:36Z</time>
      </trkpt>
      <trkpt lat="42.89709" lon="-0.03265">
        <ele>820.015</ele>
        <time>2021-10-25T18:47:16Z</time>
      </trkpt>
      <trkpt lat="42.89688" lon="-0.03242">
        <ele>814.208</ele>
        <time>2021-10-25T18:47:56Z</time>
      </trkpt>
      <trkpt lat="42.89667" lon="-0.03223">
        <ele>811.749</ele>
        <time>2021-10-25T18:48:36Z</time>
      </trkpt>
      <trkpt lat="42.89635" lon="-0.03205">
        <ele>812.718</ele>
        <time>2021-10-25T18:49:16Z</time>
      </trkpt>
      <trkpt lat="42.89604" lon="-0.03187">
        <ele>815.974</ele>
        <time>2021-10-25T18:49:56Z</time>
      </trkpt>
      <trkpt lat="42.89554" lon="-0.03158">
        <ele>820.127</ele>
        <time>2021-10-25T18:50:36Z</time>
      </trkpt>
      <trkpt lat="42.89519" lon="-0.03127">
        <ele>816.842</ele>
        <time>2021-10-25T18:51:16Z</time>
      </trkpt>
      <trkpt lat="42.89473" lon="-0.03082">
        <ele>807.795</ele>
        <time>2021-10-25T18:51:56Z</time>
      </trkpt>
      <trkpt lat="42.89444" lon="-0.03097">
        <ele>828.155</ele>
        <time>2021-10-25T18:52:36Z</time>
      </trkpt>
      <trkpt lat="42.8944" lon="-0.03098">
        <ele>829.195</ele>
        <time>2021-10-25T18:53:16Z</time>
      </trkpt>
      <trkpt lat="42.89433" lon="-0.03088">
        <ele>824.696</ele>
        <time>2021-10-25T18:53:56Z</time>
      </trkpt>
      <trkpt lat="42.89423" lon="-0.03067">
        <ele>815.031</ele>
        <time>2021-10-25T18:54:36Z</time>
      </trkpt>
      <trkpt lat="42.89399" lon="-0.03064">
        <ele>814.724</ele>
        <time>2021-10-25T18:55:16Z</time>
      </trkpt>
      <trkpt lat="42.89392" lon="-0.03066">
        <ele>815.608</ele>
        <time>2021-10-25T18:55:56Z</time>
      </trkpt>
      <trkpt lat="42.8938" lon="-0.031">
        <ele>828.647</ele>
        <time>2021-10-25T18:56:36Z</time>
      </trkpt>
      <trkpt lat="42.89375" lon="-0.03103">
        <ele>829.516</ele>
        <time>2021-10-25T18:57:16Z</time>
      </trkpt>
      <trkpt lat="42.89368" lon="-0.03098">
        <ele>826.052</ele>
        <time>2021-10-25T18:57:56Z</time>
      </trkpt>
      <trkpt lat="42.89351" lon="-0.03079">
        <ele>818.845</ele>
        <time>2021-10-25T18:58:36Z</time>
      </trkpt>
      <trkpt lat="42.89334" lon="-0.03055">
        <ele>810.85</ele>
        <time>2021-10-25T18:59:16Z</time>
      </trkpt>
      <trkpt lat="42.8931" lon="-0.03038">
        <ele>813.873</ele>
        <time>2021-10-25T18:59:56Z</time>
      </trkpt>
      <trkpt lat="42.89285" lon="-0.03027">
        <ele>820.283</ele>
        <time>2021-10-25T19:00:36Z</time>
      </trkpt>
      <trkpt lat="42.8927" lon="-0.03025">
        <ele>826.643</ele>
        <time>2021-10-25T19:01:16Z</time>
      </trkpt>
      <trkpt lat="42.89241" lon="-0.03014">
        <ele>833.127</ele>
        <time>2021-10-25T19:01:56Z</time>
      </trkpt>
      <trkpt lat="42.89119" lon="-0.02926">
        <ele>834.568</ele>
        <time>2021-10-25T19:02:36Z</time>
      </trkpt>
      <trkpt lat="42.89086" lon="-0.02904">
        <ele>836.314</ele>
        <time>2021-10-25T19:03:16Z</time>
      </trkpt>
      <trkpt lat="42.89061" lon="-0.02887">
        <ele>838.108</ele>
        <time>2021-10-25T19:03:56Z</time>
      </trkpt>
      <trkpt lat="42.89045" lon="-0.02872">
        <ele>837.86</ele>
        <time>2021-10-25T19:04:36Z</time>
      </trkpt>
      <trkpt lat="42.89027" lon="-0.02841">
        <ele>833.219</ele>
        <time>2021-10-25T19:05:16Z</time>
      </trkpt>
      <trkpt lat="42.88957" lon="-0.02765">
        <ele>839.065</ele>
        <time>2021-10-25T19:05:56Z</time>
      </trkpt>
      <trkpt lat="42.88941" lon="-0.02746">
        <ele>839.698</ele>
        <time>2021-10-25T19:06:36Z</time>
      </trkpt>
      <trkpt lat="42.88933" lon="-0.0273">
        <ele>837.383</ele>
        <time>2021-10-25T19:07:16Z</time>
      </trkpt>
      <trkpt lat="42.88919" lon="-0.02706">
        <ele>834.776</ele>
        <time>2021-10-25T19:07:56Z</time>
      </trkpt>
      <trkpt lat="42.88864" lon="-0.0264">
        <ele>837.356</ele>
        <time>2021-10-25T19:08:36Z</time>
      </trkpt>
      <trkpt lat="42.88832" lon="-0.02607">
        <ele>836.966</ele>
        <time>2021-10-25T19:09:16Z</time>
      </trkpt>
      <trkpt lat="42.88815" lon="-0.02596">
        <ele>838.791</ele>
        <time>2021-10-25T19:09:56Z</time>
      </trkpt>
      <trkpt lat="42.88797" lon="-0.02595">
        <ele>842.781</ele>
        <time>2021-10-25T19:10:36Z</time>
      </trkpt>
      <trkpt lat="42.88779" lon="-0.02598">
        <ele>846.019</ele>
        <time>2021-10-25T19:11:16Z</time>
      </trkpt>
      <trkpt lat="42.88754" lon="-0.02605">
        <ele>846.508</ele>
        <time>2021-10-25T19:11:56Z</time>
      </trkpt>
      <trkpt lat="42.88741" lon="-0.02613">
        <ele>845.697</ele>
        <time>2021-10-25T19:12:36Z</time>
      </trkpt>
      <trkpt lat="42.88716" lon="-0.02637">
        <ele>845.116</ele>
        <time>2021-10-25T19:13:16Z</time>
      </trkpt>
      <trkpt lat="42.88708" lon="-0.02644">
        <ele>845.112</ele>
        <time>2021-10-25T19:13:56Z</time>
      </trkpt>
      <trkpt lat="42.88695" lon="-0.02644">
        <ele>843.675</ele>
        <time>2021-10-25T19:14:36Z</time>
      </trkpt>
      <trkpt lat="42.88684" lon="-0.02648">
        <ele>841.59</ele>
        <time>2021-10-25T19:15:16Z</time>
      </trkpt>
      <trkpt lat="42.88674" lon="-0.02662">
        <ele>839.823</ele>
        <time>2021-10-25T19:15:56Z</time>
      </trkpt>
      <trkpt lat="42.88656" lon="-0.02691">
        <ele>840.383</ele>
        <time>2021-10-25T19:16:36Z</time>
      </trkpt>
      <trkpt lat="42.88625" lon="-0.02698">
        <ele>840.333</ele>
        <time>2021-10-25T19:17:16Z</time>
      </trkpt>
      <trkpt lat="42.88601" lon="-0.02698">
        <ele>840.793</ele>
        <time>2021-10-25T19:17:56Z</time>
      </trkpt>
      <trkpt lat="42.88592" lon="-0.02696">
        <ele>840.565</ele>
        <time>2021-10-25T19:18:36Z</time>
      </trkpt>
      <trkpt lat="42.88581" lon="-0.02689">
        <ele>839.321</ele>
        <time>2021-10-25T19:19:16Z</time>
      </trkpt>
      <trkpt lat="42.88568" lon="-0.02673">
        <ele>838.008</ele>
        <time>2021-10-25T19:19:56Z</time>
      </trkpt>
      <trkpt lat="42.8853" lon="-0.0264">
        <ele>835.947</ele>
        <time>2021-10-25T19:20:36Z</time>
      </trkpt>
      <trkpt lat="42.88525" lon="-0.02635">
        <ele>836.146</ele>
        <time>2021-10-25T19:21:16Z</time>
      </trkpt>
      <trkpt lat="42.88516" lon="-0.02622">
        <ele>836.052</ele>
        <time>2021-10-25T19:21:56Z</time>
      </trkpt>
      <trkpt lat="42.88506" lon="-0.02594">
        <ele>833.855</ele>
        <time>2021-10-25T19:22:36Z</time>
      </trkpt>
      <trkpt lat="42.88498" lon="-0.02585">
        <ele>833.53</ele>
        <time>2021-10-25T19:23:16Z</time>
      </trkpt>
      <trkpt lat="42.88489" lon="-0.02575">
        <ele>833.293</ele>
        <time>2021-10-25T19:23:56Z</time>
      </trkpt>
      <trkpt lat="42.88484" lon="-0.0255">
        <ele>829.323</ele>
        <time>2021-10-25T19:24:36Z</time>
      </trkpt>
      <trkpt lat="42.88478" lon="-0.02545">
        <ele>829.073</ele>
        <time>2021-10-25T19:25:16Z</time>
      </trkpt>
      <trkpt lat="42.88471" lon="-0.02536">
        <ele>828.437</ele>
        <time>2021-10-25T19:25:56Z</time>
      </trkpt>
      <trkpt lat="42.88464" lon="-0.02524">
        <ele>827.549</ele>
        <time>2021-10-25T19:26:36Z</time>
      </trkpt>
      <trkpt lat="42.88455" lon="-0.02515">
        <ele>827.513</ele>
        <time>2021-10-25T19:27:16Z</time>
      </trkpt>
      <trkpt lat="42.88445" lon="-0.02509">
        <ele>827.808</ele>
        <time>2021-10-25T19:27:56Z</time>
      </trkpt>
      <trkpt lat="42.88436" lon="-0.02503">
        <ele>829.131</ele>
        <time>2021-10-25T19:28:36Z</time>
      </trkpt>
      <trkpt lat="42.88421" lon="-0.02486">
        <ele>831.14</ele>
        <time>2021-10-25T19:29:16Z</time>
      </trkpt>
      <trkpt lat="42.88398" lon="-0.02471">
        <ele>834.996</ele>
        <time>2021-10-25T19:29:56Z</time>
      </trkpt>
    </trkseg>
  </trk>
  <trk>
    <name><![CDATA[GR8 De Urt à Sare (Pyrénées-Atlantiques) (2020)]]></name>
    <desc><![CDATA[Randonnée sur le GR8 à travers les Pyrénées-Atlantiques de Urt à Sare. Gîtes d'étapes, Chambres d'hôtes, Maison d'hôtes, Hôtels, Camping, Refuges, Auberges.]]></desc>
    <extensions>
      <line xmlns="http://www.topografix.com/GPX/gpx_style/0/2">
        <color>000000</color>
        <width>4</width>
      </line>
    </extensions>
    <trkseg>
      <trkpt lat="43.49807" lon="-1.29641">
        <ele>10.044</ele>
        <time>2019-03-02T14:59:42Z</time>
      </trkpt>
      <trkpt lat="43.49869" lon="-1.29697">
        <ele>8.905</ele>
        <time>2019-03-02T15:00:02Z</time>
      </trkpt>
      <trkpt lat="43.49899" lon="-1.29822">
        <ele>4.715</ele>
        <time>2020-12-02T13:36:32Z</time>
      </trkpt>
      <trkpt lat="43.49936" lon="-1.29817">
        <ele>3.708</ele>
        <time>2020-12-02T13:36:52Z</time>
      </trkpt>
      <trkpt lat="43.49959" lon="-1.29839">
        <ele>3.19</ele>
        <time>2020-12-02T13:37:12Z</time>
      </trkpt>
      <trkpt lat="43.50004" lon="-1.29802">
        <ele>2.025</ele>
        <time>2020-12-02T13:37:32Z</time>
      </trkpt>
      <trkpt lat="43.50068" lon="-1.29925">
        <ele>4.979</ele>
        <time>2020-12-02T13:37:52Z</time>
      </trkpt>
      <trkpt lat="43.50082" lon="-1.30009">
        <ele>4.171</ele>
        <time>2020-12-02T13:38:12Z</time>
      </trkpt>
      <trkpt lat="43.50097" lon="-1.30168">
        <ele>4.09</ele>
        <time>2020-12-02T13:38:32Z</time>
      </trkpt>
      <trkpt lat="43.50112" lon="-1.30436">
        <ele>0.052</ele>
        <time>2020-12-02T13:38:52Z</time>
      </trkpt>
      <trkpt lat="43.50117" lon="-1.30715">
        <ele>1.085</ele>
        <time>2020-12-02T13:39:12Z</time>
      </trkpt>
      <trkpt lat="43.50101" lon="-1.30873">
        <ele>1.072</ele>
        <time>2019-03-02T15:02:42Z</time>
      </trkpt>
      <trkpt lat="43.50104" lon="-1.31068">
        <ele>1.037</ele>
        <time>2019-03-02T15:03:02Z</time>
      </trkpt>
      <trkpt lat="43.50043" lon="-1.31068">
        <ele>1.049</ele>
        <time>2019-03-02T15:03:22Z</time>
      </trkpt>
      <trkpt lat="43.50019" lon="-1.31493">
        <ele>1.013</ele>
        <time>2019-03-02T15:03:42Z</time>
      </trkpt>
      <trkpt lat="43.50034" lon="-1.31563">
        <ele>1.008</ele>
        <time>2019-03-02T15:04:02Z</time>
      </trkpt>
      <trkpt lat="43.49984" lon="-1.3166">
        <ele>1.619</ele>
        <time>2019-03-02T15:04:22Z</time>
      </trkpt>
      <trkpt lat="43.49917" lon="-1.31727">
        <ele>2.014</ele>
        <time>2019-03-02T15:04:42Z</time>
      </trkpt>
      <trkpt lat="43.49883" lon="-1.31795">
        <ele>2.078</ele>
        <time>2019-03-02T15:05:02Z</time>
      </trkpt>
      <trkpt lat="43.49854" lon="-1.31866">
        <ele>2.02</ele>
        <time>2019-03-02T15:05:22Z</time>
      </trkpt>
      <trkpt lat="43.49835" lon="-1.31905">
        <ele>2.059</ele>
        <time>2019-03-02T15:05:42Z</time>
      </trkpt>
      <trkpt lat="43.49808" lon="-1.32132">
        <ele>2.091</ele>
        <time>2019-03-02T15:06:02Z</time>
      </trkpt>
      <trkpt lat="43.49802" lon="-1.32345">
        <ele>1.084</ele>
        <time>2019-03-02T15:06:22Z</time>
      </trkpt>
      <trkpt lat="43.49787" lon="-1.32441">
        <ele>1.091</ele>
        <time>2019-03-02T15:06:42Z</time>
      </trkpt>
      <trkpt lat="43.49717" lon="-1.32488">
        <ele>2.048</ele>
        <time>2019-03-02T15:07:02Z</time>
      </trkpt>
      <trkpt lat="43.4969" lon="-1.32458">
        <ele>2.061</ele>
        <time>2019-03-02T15:07:22Z</time>
      </trkpt>
      <trkpt lat="43.49679" lon="-1.3237">
        <ele>2.017</ele>
        <time>2019-03-02T15:07:42Z</time>
      </trkpt>
      <trkpt lat="43.49664" lon="-1.3233">
        <ele>2.008</ele>
        <time>2019-03-02T15:08:02Z</time>
      </trkpt>
      <trkpt lat="43.49636" lon="-1.32314">
        <ele>2.06</ele>
        <time>2019-03-02T15:08:22Z</time>
      </trkpt>
      <trkpt lat="43.49606" lon="-1.32314">
        <ele>2.065</ele>
        <time>2019-03-02T15:08:42Z</time>
      </trkpt>
      <trkpt lat="43.49552" lon="-1.32248">
        <ele>2.059</ele>
        <time>2019-03-02T15:09:02Z</time>
      </trkpt>
      <trkpt lat="43.49531" lon="-1.32188">
        <ele>2.091</ele>
        <time>2019-03-02T15:09:22Z</time>
      </trkpt>
      <trkpt lat="43.49524" lon="-1.32115">
        <ele>2.07</ele>
        <time>2019-03-02T15:09:42Z</time>
      </trkpt>
      <trkpt lat="43.49499" lon="-1.32076">
        <ele>2.032</ele>
        <time>2019-03-02T15:10:02Z</time>
      </trkpt>
      <trkpt lat="43.49438" lon="-1.3207">
        <ele>2.095</ele>
        <time>2019-03-02T15:10:22Z</time>
      </trkpt>
      <trkpt lat="43.49388" lon="-1.32031">
        <ele>2.082</ele>
        <time>2019-03-02T15:10:42Z</time>
      </trkpt>
      <trkpt lat="43.4934" lon="-1.32012">
        <ele>2.027</ele>
        <time>2019-03-02T15:11:02Z</time>
      </trkpt>
      <trkpt lat="43.49267" lon="-1.31937">
        <ele>2.068</ele>
        <time>2019-03-02T15:11:22Z</time>
      </trkpt>
      <trkpt lat="43.49245" lon="-1.31896">
        <ele>2.014</ele>
        <time>2019-03-02T15:11:42Z</time>
      </trkpt>
      <trkpt lat="43.49236" lon="-1.3184">
        <ele>2.008</ele>
        <time>2019-03-02T15:12:02Z</time>
      </trkpt>
      <trkpt lat="43.49176" lon="-1.31825">
        <ele>2.028</ele>
        <time>2019-03-02T15:12:22Z</time>
      </trkpt>
      <trkpt lat="43.49102" lon="-1.31784">
        <ele>2.083</ele>
        <time>2019-03-02T15:12:42Z</time>
      </trkpt>
      <trkpt lat="43.49094" lon="-1.31718">
        <ele>2.067</ele>
        <time>2019-03-02T15:13:02Z</time>
      </trkpt>
      <trkpt lat="43.49075" lon="-1.31666">
        <ele>2.039</ele>
        <time>2019-03-02T15:13:22Z</time>
      </trkpt>
      <trkpt lat="43.48966" lon="-1.31611">
        <ele>2.078</ele>
        <time>2019-03-02T15:13:42Z</time>
      </trkpt>
      <trkpt lat="43.48921" lon="-1.31581">
        <ele>2.02</ele>
        <time>2019-03-02T15:14:02Z</time>
      </trkpt>
      <trkpt lat="43.48822" lon="-1.31677">
        <ele>2.083</ele>
        <time>2019-03-02T15:14:22Z</time>
      </trkpt>
      <trkpt lat="43.48728" lon="-1.31825">
        <ele>2.06</ele>
        <time>2019-03-02T15:14:42Z</time>
      </trkpt>
      <trkpt lat="43.48695" lon="-1.31845">
        <ele>2.019</ele>
        <time>2019-03-02T15:15:02Z</time>
      </trkpt>
      <trkpt lat="43.48692" lon="-1.31877">
        <ele>2.009</ele>
        <time>2019-03-02T15:15:22Z</time>
      </trkpt>
      <trkpt lat="43.48641" lon="-1.31941">
        <ele>2.019</ele>
        <time>2019-03-02T15:15:42Z</time>
      </trkpt>
      <trkpt lat="43.48644" lon="-1.31986">
        <ele>2.008</ele>
        <time>2019-03-02T15:16:02Z</time>
      </trkpt>
      <trkpt lat="43.48596" lon="-1.31995">
        <ele>2.097</ele>
        <time>2019-03-02T15:16:22Z</time>
      </trkpt>
      <trkpt lat="43.4859" lon="-1.32072">
        <ele>2.042</ele>
        <time>2019-03-02T15:16:42Z</time>
      </trkpt>
      <trkpt lat="43.48551" lon="-1.32091">
        <ele>2.026</ele>
        <time>2019-03-02T15:17:02Z</time>
      </trkpt>
      <trkpt lat="43.48529" lon="-1.32126">
        <ele>2.018</ele>
        <time>2019-03-02T15:17:22Z</time>
      </trkpt>
      <trkpt lat="43.48516" lon="-1.32113">
        <ele>2.037</ele>
        <time>2019-03-02T15:17:42Z</time>
      </trkpt>
      <trkpt lat="43.4852" lon="-1.32038">
        <ele>2.099</ele>
        <time>2019-03-02T15:18:02Z</time>
      </trkpt>
      <trkpt lat="43.4849" lon="-1.32016">
        <ele>2.272</ele>
        <time>2019-03-02T15:18:22Z</time>
      </trkpt>
      <trkpt lat="43.48485" lon="-1.32141">
        <ele>2.029</ele>
        <time>2019-03-02T15:18:42Z</time>
      </trkpt>
      <trkpt lat="43.48412" lon="-1.32139">
        <ele>2.841</ele>
        <time>2019-03-02T15:19:02Z</time>
      </trkpt>
      <trkpt lat="43.48367" lon="-1.32145">
        <ele>3.081</ele>
        <time>2019-03-02T15:19:22Z</time>
      </trkpt>
      <trkpt lat="43.48342" lon="-1.32121">
        <ele>3.309</ele>
        <time>2019-03-02T15:19:42Z</time>
      </trkpt>
      <trkpt lat="43.48331" lon="-1.32093">
        <ele>3.008</ele>
        <time>2019-03-02T15:20:02Z</time>
      </trkpt>
      <trkpt lat="43.48309" lon="-1.32098">
        <ele>3.09</ele>
        <time>2019-03-02T15:20:22Z</time>
      </trkpt>
      <trkpt lat="43.48284" lon="-1.32115">
        <ele>3.175</ele>
        <time>2019-03-02T15:20:42Z</time>
      </trkpt>
      <trkpt lat="43.48283" lon="-1.32158">
        <ele>4.129</ele>
        <time>2019-03-02T15:21:02Z</time>
      </trkpt>
      <trkpt lat="43.48255" lon="-1.3222">
        <ele>3.241</ele>
        <time>2019-03-02T15:21:22Z</time>
      </trkpt>
      <trkpt lat="43.48288" lon="-1.32267">
        <ele>5.64</ele>
        <time>2019-03-02T15:21:42Z</time>
      </trkpt>
      <trkpt lat="43.48274" lon="-1.32452">
        <ele>3.092</ele>
        <time>2019-03-02T15:22:02Z</time>
      </trkpt>
      <trkpt lat="43.48277" lon="-1.32495">
        <ele>3.065</ele>
        <time>2019-03-02T15:22:22Z</time>
      </trkpt>
      <trkpt lat="43.48267" lon="-1.32566">
        <ele>3.082</ele>
        <time>2019-03-02T15:22:42Z</time>
      </trkpt>
      <trkpt lat="43.48275" lon="-1.32613">
        <ele>3.095</ele>
        <time>2019-03-02T15:23:02Z</time>
      </trkpt>
      <trkpt lat="43.48213" lon="-1.32671">
        <ele>3.049</ele>
        <time>2019-03-02T15:23:22Z</time>
      </trkpt>
      <trkpt lat="43.48241" lon="-1.32742">
        <ele>3.023</ele>
        <time>2019-03-02T15:23:42Z</time>
      </trkpt>
      <trkpt lat="43.4823" lon="-1.3278">
        <ele>3.408</ele>
        <time>2019-03-02T15:24:02Z</time>
      </trkpt>
      <trkpt lat="43.48163" lon="-1.32761">
        <ele>3.025</ele>
        <time>2019-03-02T15:24:22Z</time>
      </trkpt>
      <trkpt lat="43.48141" lon="-1.32832">
        <ele>3.16</ele>
        <time>2019-03-02T15:24:42Z</time>
      </trkpt>
      <trkpt lat="43.48138" lon="-1.3292">
        <ele>3.014</ele>
        <time>2019-03-02T15:25:02Z</time>
      </trkpt>
      <trkpt lat="43.4816" lon="-1.33003">
        <ele>5.916</ele>
        <time>2019-03-02T15:25:22Z</time>
      </trkpt>
      <trkpt lat="43.48127" lon="-1.32997">
        <ele>3.035</ele>
        <time>2019-03-02T15:25:42Z</time>
      </trkpt>
      <trkpt lat="43.48094" lon="-1.3302">
        <ele>3.017</ele>
        <time>2019-03-02T15:26:02Z</time>
      </trkpt>
      <trkpt lat="43.48065" lon="-1.32973">
        <ele>3.06</ele>
        <time>2019-03-02T15:26:22Z</time>
      </trkpt>
      <trkpt lat="43.48003" lon="-1.33001">
        <ele>3.067</ele>
        <time>2019-03-02T15:26:42Z</time>
      </trkpt>
      <trkpt lat="43.47936" lon="-1.33059">
        <ele>3.068</ele>
        <time>2019-03-02T15:27:02Z</time>
      </trkpt>
      <trkpt lat="43.47915" lon="-1.33209">
        <ele>3.042</ele>
        <time>2019-03-02T15:27:22Z</time>
      </trkpt>
      <trkpt lat="43.47858" lon="-1.33231">
        <ele>3.126</ele>
        <time>2019-03-02T15:27:42Z</time>
      </trkpt>
      <trkpt lat="43.47833" lon="-1.33269">
        <ele>3.308</ele>
        <time>2019-03-02T15:28:02Z</time>
      </trkpt>
      <trkpt lat="43.47827" lon="-1.33334">
        <ele>3.222</ele>
        <time>2019-03-02T15:28:22Z</time>
      </trkpt>
      <trkpt lat="43.47783" lon="-1.33366">
        <ele>3.827</ele>
        <time>2019-03-02T15:28:42Z</time>
      </trkpt>
      <trkpt lat="43.47767" lon="-1.33396">
        <ele>4.091</ele>
        <time>2019-03-02T15:29:02Z</time>
      </trkpt>
      <trkpt lat="43.47721" lon="-1.33426">
        <ele>4.083</ele>
        <time>2019-03-02T15:29:22Z</time>
      </trkpt>
      <trkpt lat="43.47673" lon="-1.33475">
        <ele>4.032</ele>
        <time>2019-03-02T15:29:42Z</time>
      </trkpt>
      <trkpt lat="43.47593" lon="-1.3351">
        <ele>4.024</ele>
        <time>2019-03-02T15:30:02Z</time>
      </trkpt>
      <trkpt lat="43.47529" lon="-1.33508">
        <ele>4.097</ele>
        <time>2019-03-02T15:30:22Z</time>
      </trkpt>
      <trkpt lat="43.47517" lon="-1.33587">
        <ele>4.014</ele>
        <time>2019-03-02T15:30:42Z</time>
      </trkpt>
      <trkpt lat="43.47535" lon="-1.33688">
        <ele>4.669</ele>
        <time>2019-03-02T15:31:02Z</time>
      </trkpt>
      <trkpt lat="43.47531" lon="-1.33954">
        <ele>4.004</ele>
        <time>2019-03-02T15:31:22Z</time>
      </trkpt>
      <trkpt lat="43.47539" lon="-1.34027">
        <ele>4.024</ele>
        <time>2019-03-02T15:31:42Z</time>
      </trkpt>
      <trkpt lat="43.47517" lon="-1.34072">
        <ele>4.008</ele>
        <time>2019-03-02T15:32:02Z</time>
      </trkpt>
      <trkpt lat="43.4748" lon="-1.3408">
        <ele>4.162</ele>
        <time>2019-03-02T15:32:22Z</time>
      </trkpt>
      <trkpt lat="43.47426" lon="-1.34065">
        <ele>5.747</ele>
        <time>2019-03-02T15:32:42Z</time>
      </trkpt>
      <trkpt lat="43.47404" lon="-1.34115">
        <ele>5.921</ele>
        <time>2019-03-02T15:33:02Z</time>
      </trkpt>
      <trkpt lat="43.47349" lon="-1.34205">
        <ele>7.633</ele>
        <time>2019-03-02T15:33:22Z</time>
      </trkpt>
      <trkpt lat="43.47329" lon="-1.34314">
        <ele>6.052</ele>
        <time>2019-03-02T15:33:42Z</time>
      </trkpt>
      <trkpt lat="43.4729" lon="-1.34374">
        <ele>6.374</ele>
        <time>2019-03-02T15:34:02Z</time>
      </trkpt>
      <trkpt lat="43.47271" lon="-1.34432">
        <ele>6.177</ele>
        <time>2019-03-02T15:34:22Z</time>
      </trkpt>
      <trkpt lat="43.4722" lon="-1.34443">
        <ele>7.144</ele>
        <time>2019-03-02T15:34:42Z</time>
      </trkpt>
      <trkpt lat="43.47176" lon="-1.34507">
        <ele>7.041</ele>
        <time>2019-03-02T15:35:02Z</time>
      </trkpt>
      <trkpt lat="43.47204" lon="-1.34516">
        <ele>7.081</ele>
        <time>2019-03-02T15:35:22Z</time>
      </trkpt>
      <trkpt lat="43.47204" lon="-1.34574">
        <ele>7.009</ele>
        <time>2019-03-02T15:35:42Z</time>
      </trkpt>
      <trkpt lat="43.47256" lon="-1.34623">
        <ele>6.808</ele>
        <time>2019-03-02T15:36:02Z</time>
      </trkpt>
      <trkpt lat="43.47233" lon="-1.34703">
        <ele>7.08</ele>
        <time>2019-03-02T15:36:22Z</time>
      </trkpt>
      <trkpt lat="43.47184" lon="-1.34696">
        <ele>7.075</ele>
        <time>2019-03-02T15:36:42Z</time>
      </trkpt>
      <trkpt lat="43.47169" lon="-1.34718">
        <ele>7.059</ele>
        <time>2019-03-02T15:37:02Z</time>
      </trkpt>
      <trkpt lat="43.47184" lon="-1.34731">
        <ele>7.031</ele>
        <time>2019-03-02T15:37:22Z</time>
      </trkpt>
      <trkpt lat="43.47215" lon="-1.34737">
        <ele>7.01</ele>
        <time>2019-03-02T15:37:42Z</time>
      </trkpt>
      <trkpt lat="43.47268" lon="-1.34836">
        <ele>7.172</ele>
        <time>2019-03-02T15:38:02Z</time>
      </trkpt>
      <trkpt lat="43.47259" lon="-1.34874">
        <ele>7.385</ele>
        <time>2019-03-02T15:38:22Z</time>
      </trkpt>
      <trkpt lat="43.47187" lon="-1.34868">
        <ele>7.032</ele>
        <time>2019-03-02T15:38:42Z</time>
      </trkpt>
      <trkpt lat="43.4722" lon="-1.34954">
        <ele>7.086</ele>
        <time>2019-03-02T15:39:02Z</time>
      </trkpt>
      <trkpt lat="43.4717" lon="-1.35003">
        <ele>7.06</ele>
        <time>2019-03-02T15:39:22Z</time>
      </trkpt>
      <trkpt lat="43.47103" lon="-1.35016">
        <ele>7.026</ele>
        <time>2019-03-02T15:39:42Z</time>
      </trkpt>
      <trkpt lat="43.47077" lon="-1.34973">
        <ele>7.008</ele>
        <time>2019-03-02T15:40:02Z</time>
      </trkpt>
      <trkpt lat="43.4705" lon="-1.35065">
        <ele>7.084</ele>
        <time>2019-03-02T15:40:22Z</time>
      </trkpt>
      <trkpt lat="43.47094" lon="-1.35155">
        <ele>7.029</ele>
        <time>2019-03-02T15:40:42Z</time>
      </trkpt>
      <trkpt lat="43.47011" lon="-1.35248">
        <ele>7.043</ele>
        <time>2019-03-02T15:41:02Z</time>
      </trkpt>
      <trkpt lat="43.4703" lon="-1.35269">
        <ele>7.045</ele>
        <time>2019-03-02T15:41:22Z</time>
      </trkpt>
      <trkpt lat="43.47074" lon="-1.35274">
        <ele>7.094</ele>
        <time>2019-03-02T15:41:42Z</time>
      </trkpt>
      <trkpt lat="43.47046" lon="-1.35327">
        <ele>7.086</ele>
        <time>2019-03-02T15:42:02Z</time>
      </trkpt>
      <trkpt lat="43.47044" lon="-1.35383">
        <ele>7.869</ele>
        <time>2019-03-02T15:42:22Z</time>
      </trkpt>
      <trkpt lat="43.47091" lon="-1.35374">
        <ele>8.066</ele>
        <time>2019-03-02T15:42:42Z</time>
      </trkpt>
      <trkpt lat="43.4715" lon="-1.35372">
        <ele>8.422</ele>
        <time>2019-03-02T15:43:02Z</time>
      </trkpt>
      <trkpt lat="43.47178" lon="-1.35316">
        <ele>10.062</ele>
        <time>2019-03-02T15:43:22Z</time>
      </trkpt>
      <trkpt lat="43.47279" lon="-1.35338">
        <ele>31.008</ele>
        <time>2019-03-02T15:43:42Z</time>
      </trkpt>
      <trkpt lat="43.47285" lon="-1.35404">
        <ele>28.908</ele>
        <time>2019-03-02T15:44:02Z</time>
      </trkpt>
      <trkpt lat="43.47363" lon="-1.35608">
        <ele>24.998</ele>
        <time>2019-03-02T15:44:22Z</time>
      </trkpt>
      <trkpt lat="43.47371" lon="-1.35748">
        <ele>31.643</ele>
        <time>2019-03-02T15:44:42Z</time>
      </trkpt>
      <trkpt lat="43.47346" lon="-1.35881">
        <ele>36.927</ele>
        <time>2019-03-02T15:45:02Z</time>
      </trkpt>
      <trkpt lat="43.47376" lon="-1.3602">
        <ele>40.859</ele>
        <time>2019-03-02T15:45:22Z</time>
      </trkpt>
      <trkpt lat="43.47289" lon="-1.36533">
        <ele>51.668</ele>
        <time>2019-03-02T15:45:42Z</time>
      </trkpt>
      <trkpt lat="43.47158" lon="-1.36724">
        <ele>53.33</ele>
        <time>2019-03-02T15:46:02Z</time>
      </trkpt>
      <trkpt lat="43.475" lon="-1.37205">
        <ele>51.333</ele>
        <time>2019-03-02T15:46:22Z</time>
      </trkpt>
      <trkpt lat="43.47499" lon="-1.37342">
        <ele>52.95</ele>
        <time>2019-03-02T15:46:42Z</time>
      </trkpt>
      <trkpt lat="43.47507" lon="-1.37589">
        <ele>59.292</ele>
        <time>2019-03-02T15:47:02Z</time>
      </trkpt>
      <trkpt lat="43.47533" lon="-1.3766">
        <ele>59.973</ele>
        <time>2019-03-02T15:47:22Z</time>
      </trkpt>
      <trkpt lat="43.47689" lon="-1.37928">
        <ele>60.62</ele>
        <time>2019-03-02T15:47:42Z</time>
      </trkpt>
      <trkpt lat="43.47804" lon="-1.38093">
        <ele>63.808</ele>
        <time>2019-03-02T15:48:02Z</time>
      </trkpt>
      <trkpt lat="43.4788" lon="-1.38162">
        <ele>64.845</ele>
        <time>2019-03-02T15:48:22Z</time>
      </trkpt>
      <trkpt lat="43.47916" lon="-1.38228">
        <ele>64.34</ele>
        <time>2019-03-02T15:48:42Z</time>
      </trkpt>
      <trkpt lat="43.47941" lon="-1.38419">
        <ele>70.564</ele>
        <time>2019-03-02T15:49:02Z</time>
      </trkpt>
      <trkpt lat="43.48014" lon="-1.38713">
        <ele>71.796</ele>
        <time>2019-03-02T15:49:22Z</time>
      </trkpt>
      <trkpt lat="43.48153" lon="-1.38595">
        <ele>47.585</ele>
        <time>2019-03-02T15:49:42Z</time>
      </trkpt>
      <trkpt lat="43.48185" lon="-1.38509">
        <ele>37.757</ele>
        <time>2019-03-02T15:50:02Z</time>
      </trkpt>
      <trkpt lat="43.48251" lon="-1.38477">
        <ele>34.53</ele>
        <time>2019-03-02T15:50:22Z</time>
      </trkpt>
      <trkpt lat="43.48305" lon="-1.38419">
        <ele>28.557</ele>
        <time>2019-03-02T15:50:42Z</time>
      </trkpt>
      <trkpt lat="43.48397" lon="-1.38374">
        <ele>19.436</ele>
        <time>2019-03-02T15:51:02Z</time>
      </trkpt>
      <trkpt lat="43.48464" lon="-1.38363">
        <ele>17.717</ele>
        <time>2019-03-02T15:51:22Z</time>
      </trkpt>
      <trkpt lat="43.48612" lon="-1.38237">
        <ele>5.418</ele>
        <time>2019-03-02T15:51:42Z</time>
      </trkpt>
      <trkpt lat="43.48698" lon="-1.38331">
        <ele>3.508</ele>
        <time>2019-03-02T15:52:02Z</time>
      </trkpt>
      <trkpt lat="43.48693" lon="-1.38372">
        <ele>8.899</ele>
        <time>2019-03-02T15:52:22Z</time>
      </trkpt>
      <trkpt lat="43.48668" lon="-1.38417">
        <ele>16.274</ele>
        <time>2019-03-02T15:52:42Z</time>
      </trkpt>
      <trkpt lat="43.48701" lon="-1.38456">
        <ele>29.538</ele>
        <time>2019-03-02T15:53:02Z</time>
      </trkpt>
      <trkpt lat="43.48763" lon="-1.38475">
        <ele>40.59</ele>
        <time>2019-03-02T15:53:22Z</time>
      </trkpt>
      <trkpt lat="43.48733" lon="-1.38531">
        <ele>43.229</ele>
        <time>2019-03-02T15:53:42Z</time>
      </trkpt>
      <trkpt lat="43.48741" lon="-1.38627">
        <ele>39.911</ele>
        <time>2019-03-02T15:54:02Z</time>
      </trkpt>
      <trkpt lat="43.48709" lon="-1.38681">
        <ele>44.244</ele>
        <time>2019-03-02T15:54:22Z</time>
      </trkpt>
      <trkpt lat="43.48649" lon="-1.38687">
        <ele>41.411</ele>
        <time>2019-03-02T15:54:42Z</time>
      </trkpt>
      <trkpt lat="43.48626" lon="-1.38745">
        <ele>47.133</ele>
        <time>2019-03-02T15:55:02Z</time>
      </trkpt>
      <trkpt lat="43.48561" lon="-1.38823">
        <ele>57.423</ele>
        <time>2019-03-02T15:55:22Z</time>
      </trkpt>
      <trkpt lat="43.48581" lon="-1.38881">
        <ele>57.515</ele>
        <time>2019-03-02T15:55:42Z</time>
      </trkpt>
      <trkpt lat="43.48565" lon="-1.38984">
        <ele>58.908</ele>
        <time>2019-03-02T15:56:02Z</time>
      </trkpt>
      <trkpt lat="43.4852" lon="-1.3908">
        <ele>61.449</ele>
        <time>2019-03-02T15:56:22Z</time>
      </trkpt>
      <trkpt lat="43.48531" lon="-1.39224">
        <ele>61.174</ele>
        <time>2019-03-02T15:56:42Z</time>
      </trkpt>
      <trkpt lat="43.48556" lon="-1.39338">
        <ele>54.418</ele>
        <time>2019-03-02T15:57:02Z</time>
      </trkpt>
      <trkpt lat="43.48592" lon="-1.39396">
        <ele>47.11</ele>
        <time>2019-03-02T15:57:22Z</time>
      </trkpt>
      <trkpt lat="43.48651" lon="-1.39393">
        <ele>43.479</ele>
        <time>2019-03-02T15:57:42Z</time>
      </trkpt>
      <trkpt lat="43.48693" lon="-1.39361">
        <ele>38.331</ele>
        <time>2019-03-02T15:58:02Z</time>
      </trkpt>
      <trkpt lat="43.48776" lon="-1.39411">
        <ele>29.314</ele>
        <time>2019-03-02T15:58:22Z</time>
      </trkpt>
      <trkpt lat="43.48807" lon="-1.39488">
        <ele>22.821</ele>
        <time>2019-03-02T15:58:42Z</time>
      </trkpt>
      <trkpt lat="43.48849" lon="-1.39559">
        <ele>15.618</ele>
        <time>2019-03-02T15:59:02Z</time>
      </trkpt>
      <trkpt lat="43.48909" lon="-1.397">
        <ele>4.098</ele>
        <time>2019-03-02T15:59:22Z</time>
      </trkpt>
      <trkpt lat="43.4899" lon="-1.39808">
        <ele>2.017</ele>
        <time>2019-03-02T15:59:42Z</time>
      </trkpt>
      <trkpt lat="43.48941" lon="-1.39859">
        <ele>2.008</ele>
        <time>2019-03-02T16:00:02Z</time>
      </trkpt>
      <trkpt lat="43.48693" lon="-1.4029">
        <ele>2.027</ele>
        <time>2019-03-02T16:00:22Z</time>
      </trkpt>
      <trkpt lat="43.48618" lon="-1.40466">
        <ele>2.042</ele>
        <time>2019-03-02T16:00:42Z</time>
      </trkpt>
      <trkpt lat="43.48547" lon="-1.40717">
        <ele>2.036</ele>
        <time>2019-03-02T16:01:02Z</time>
      </trkpt>
      <trkpt lat="43.48411" lon="-1.41256">
        <ele>2.228</ele>
        <time>2019-03-02T16:01:22Z</time>
      </trkpt>
      <trkpt lat="43.48403" lon="-1.41335">
        <ele>2.097</ele>
        <time>2019-03-02T16:01:42Z</time>
      </trkpt>
      <trkpt lat="43.48355" lon="-1.41331">
        <ele>2.019</ele>
        <time>2019-03-02T16:02:02Z</time>
      </trkpt>
      <trkpt lat="43.48298" lon="-1.41554">
        <ele>2.032</ele>
        <time>2019-03-02T16:02:22Z</time>
      </trkpt>
      <trkpt lat="43.48218" lon="-1.41507">
        <ele>2.099</ele>
        <time>2019-03-02T16:02:42Z</time>
      </trkpt>
      <trkpt lat="43.48126" lon="-1.41573">
        <ele>3.551</ele>
        <time>2019-03-02T16:03:02Z</time>
      </trkpt>
      <trkpt lat="43.48087" lon="-1.4161">
        <ele>4.001</ele>
        <time>2019-03-02T16:03:22Z</time>
      </trkpt>
      <trkpt lat="43.48041" lon="-1.41638">
        <ele>6.011</ele>
        <time>2019-03-02T16:03:42Z</time>
      </trkpt>
      <trkpt lat="43.47966" lon="-1.41702">
        <ele>17.808</ele>
        <time>2019-03-02T16:04:02Z</time>
      </trkpt>
      <trkpt lat="43.47774" lon="-1.41775">
        <ele>49.131</ele>
        <time>2019-03-02T16:04:22Z</time>
      </trkpt>
      <trkpt lat="43.47795" lon="-1.41891">
        <ele>49.326</ele>
        <time>2019-03-02T16:04:42Z</time>
      </trkpt>
      <trkpt lat="43.47812" lon="-1.41915">
        <ele>47.93</ele>
        <time>2019-03-02T16:05:02Z</time>
      </trkpt>
      <trkpt lat="43.47813" lon="-1.42013">
        <ele>45.732</ele>
        <time>2019-03-02T16:05:22Z</time>
      </trkpt>
      <trkpt lat="43.47835" lon="-1.42093">
        <ele>45.871</ele>
        <time>2019-03-02T16:05:42Z</time>
      </trkpt>
      <trkpt lat="43.47841" lon="-1.42256">
        <ele>44.313</ele>
        <time>2019-03-02T16:06:02Z</time>
      </trkpt>
      <trkpt lat="43.47807" lon="-1.42421">
        <ele>45.226</ele>
        <time>2019-03-02T16:06:22Z</time>
      </trkpt>
      <trkpt lat="43.47815" lon="-1.42522">
        <ele>41.683</ele>
        <time>2019-03-02T16:06:42Z</time>
      </trkpt>
      <trkpt lat="43.47815" lon="-1.42593">
        <ele>34.496</ele>
        <time>2019-03-02T16:07:02Z</time>
      </trkpt>
      <trkpt lat="43.47891" lon="-1.42698">
        <ele>25.631</ele>
        <time>2019-03-02T16:07:22Z</time>
      </trkpt>
      <trkpt lat="43.47872" lon="-1.42719">
        <ele>18.124</ele>
        <time>2019-03-02T16:07:42Z</time>
      </trkpt>
      <trkpt lat="43.47846" lon="-1.42709">
        <ele>16.608</ele>
        <time>2019-03-02T16:08:02Z</time>
      </trkpt>
      <trkpt lat="43.47815" lon="-1.42749">
        <ele>14.795</ele>
        <time>2019-03-02T16:08:22Z</time>
      </trkpt>
      <trkpt lat="43.47866" lon="-1.42803">
        <ele>19.37</ele>
        <time>2019-03-02T16:08:42Z</time>
      </trkpt>
      <trkpt lat="43.47877" lon="-1.4285">
        <ele>27.194</ele>
        <time>2019-03-02T16:09:02Z</time>
      </trkpt>
      <trkpt lat="43.47882" lon="-1.42998">
        <ele>32.776</ele>
        <time>2019-03-02T16:09:22Z</time>
      </trkpt>
      <trkpt lat="43.47916" lon="-1.43091">
        <ele>35.185</ele>
        <time>2019-03-02T16:09:42Z</time>
      </trkpt>
      <trkpt lat="43.47936" lon="-1.43196">
        <ele>41.927</ele>
        <time>2019-03-02T16:10:02Z</time>
      </trkpt>
      <trkpt lat="43.4793" lon="-1.43264">
        <ele>45.67</ele>
        <time>2019-03-02T16:10:22Z</time>
      </trkpt>
      <trkpt lat="43.47943" lon="-1.43329">
        <ele>46.157</ele>
        <time>2019-03-02T16:10:42Z</time>
      </trkpt>
      <trkpt lat="43.47943" lon="-1.43387">
        <ele>46.212</ele>
        <time>2019-03-02T16:11:02Z</time>
      </trkpt>
      <trkpt lat="43.47862" lon="-1.43329">
        <ele>56.032</ele>
        <time>2019-03-02T16:11:22Z</time>
      </trkpt>
      <trkpt lat="43.47743" lon="-1.43256">
        <ele>62.105</ele>
        <time>2019-03-02T16:11:42Z</time>
      </trkpt>
      <trkpt lat="43.47703" lon="-1.43245">
        <ele>59.008</ele>
        <time>2019-03-02T16:12:02Z</time>
      </trkpt>
      <trkpt lat="43.47667" lon="-1.43221">
        <ele>56.057</ele>
        <time>2019-03-02T16:12:22Z</time>
      </trkpt>
      <trkpt lat="43.47636" lon="-1.43194">
        <ele>55.282</ele>
        <time>2019-03-02T16:12:42Z</time>
      </trkpt>
      <trkpt lat="43.47531" lon="-1.43131">
        <ele>65.076</ele>
        <time>2019-03-02T16:13:02Z</time>
      </trkpt>
      <trkpt lat="43.4739" lon="-1.43099">
        <ele>75.188</ele>
        <time>2019-03-02T16:13:22Z</time>
      </trkpt>
      <trkpt lat="43.47295" lon="-1.4305">
        <ele>86.477</ele>
        <time>2019-03-02T16:13:42Z</time>
      </trkpt>
      <trkpt lat="43.47242" lon="-1.42968">
        <ele>91.999</ele>
        <time>2019-03-02T16:14:02Z</time>
      </trkpt>
      <trkpt lat="43.47178" lon="-1.42897">
        <ele>98.012</ele>
        <time>2019-03-02T16:14:22Z</time>
      </trkpt>
      <trkpt lat="43.47127" lon="-1.42807">
        <ele>101.969</ele>
        <time>2019-03-02T16:14:42Z</time>
      </trkpt>
      <trkpt lat="43.47013" lon="-1.42734">
        <ele>102.451</ele>
        <time>2019-03-02T16:15:02Z</time>
      </trkpt>
      <trkpt lat="43.46986" lon="-1.42676">
        <ele>99.801</ele>
        <time>2019-03-02T16:15:22Z</time>
      </trkpt>
      <trkpt lat="43.46849" lon="-1.42342">
        <ele>95.211</ele>
        <time>2019-03-02T16:15:42Z</time>
      </trkpt>
      <trkpt lat="43.46821" lon="-1.42159">
        <ele>99.708</ele>
        <time>2019-03-02T16:16:02Z</time>
      </trkpt>
      <trkpt lat="43.46748" lon="-1.41923">
        <ele>110.451</ele>
        <time>2019-03-02T16:16:22Z</time>
      </trkpt>
      <trkpt lat="43.46717" lon="-1.41631">
        <ele>119.996</ele>
        <time>2019-03-02T16:16:42Z</time>
      </trkpt>
      <trkpt lat="43.46636" lon="-1.41475">
        <ele>114.54</ele>
        <time>2019-03-02T16:17:02Z</time>
      </trkpt>
      <trkpt lat="43.46616" lon="-1.41387">
        <ele>106.492</ele>
        <time>2019-03-02T16:17:22Z</time>
      </trkpt>
      <trkpt lat="43.46493" lon="-1.41277">
        <ele>93.051</ele>
        <time>2019-03-02T16:17:42Z</time>
      </trkpt>
      <trkpt lat="43.46465" lon="-1.41224">
        <ele>88.253</ele>
        <time>2019-03-02T16:18:02Z</time>
      </trkpt>
      <trkpt lat="43.46466" lon="-1.41127">
        <ele>89.896</ele>
        <time>2019-03-02T16:18:22Z</time>
      </trkpt>
      <trkpt lat="43.46406" lon="-1.4099">
        <ele>89.643</ele>
        <time>2019-03-02T16:18:42Z</time>
      </trkpt>
      <trkpt lat="43.46314" lon="-1.40812">
        <ele>79.883</ele>
        <time>2019-03-02T16:19:02Z</time>
      </trkpt>
      <trkpt lat="43.46269" lon="-1.40801">
        <ele>80.225</ele>
        <time>2019-03-02T16:19:22Z</time>
      </trkpt>
      <trkpt lat="43.46138" lon="-1.40853">
        <ele>89.817</ele>
        <time>2019-03-02T16:19:42Z</time>
      </trkpt>
      <trkpt lat="43.46038" lon="-1.40983">
        <ele>98.108</ele>
        <time>2019-03-02T16:20:02Z</time>
      </trkpt>
      <trkpt lat="43.45923" lon="-1.41052">
        <ele>101.314</ele>
        <time>2019-03-02T16:20:22Z</time>
      </trkpt>
      <trkpt lat="43.4587" lon="-1.41138">
        <ele>94.879</ele>
        <time>2019-03-02T16:20:42Z</time>
      </trkpt>
      <trkpt lat="43.4585" lon="-1.41217">
        <ele>92.243</ele>
        <time>2019-03-02T16:21:02Z</time>
      </trkpt>
      <trkpt lat="43.45789" lon="-1.41271">
        <ele>81.755</ele>
        <time>2019-03-02T16:21:22Z</time>
      </trkpt>
      <trkpt lat="43.45753" lon="-1.4147">
        <ele>69.574</ele>
        <time>2019-03-02T16:21:42Z</time>
      </trkpt>
      <trkpt lat="43.45709" lon="-1.41528">
        <ele>62.956</ele>
        <time>2019-03-02T16:22:02Z</time>
      </trkpt>
      <trkpt lat="43.45561" lon="-1.41593">
        <ele>66.549</ele>
        <time>2019-03-02T16:22:22Z</time>
      </trkpt>
      <trkpt lat="43.4541" lon="-1.41614">
        <ele>82.016</ele>
        <time>2019-03-02T16:22:42Z</time>
      </trkpt>
      <trkpt lat="43.45374" lon="-1.41634">
        <ele>85.959</ele>
        <time>2019-03-02T16:23:02Z</time>
      </trkpt>
      <trkpt lat="43.45387" lon="-1.417">
        <ele>93.403</ele>
        <time>2019-03-02T16:23:22Z</time>
      </trkpt>
      <trkpt lat="43.4541" lon="-1.41749">
        <ele>97.923</ele>
        <time>2019-03-02T16:23:42Z</time>
      </trkpt>
      <trkpt lat="43.45431" lon="-1.41981">
        <ele>117.708</ele>
        <time>2019-03-02T16:24:02Z</time>
      </trkpt>
      <trkpt lat="43.4541" lon="-1.42041">
        <ele>119.761</ele>
        <time>2019-03-02T16:24:22Z</time>
      </trkpt>
      <trkpt lat="43.45466" lon="-1.42189">
        <ele>109.456</ele>
        <time>2019-03-02T16:24:42Z</time>
      </trkpt>
      <trkpt lat="43.45473" lon="-1.42297">
        <ele>109.35</ele>
        <time>2019-03-02T16:25:02Z</time>
      </trkpt>
      <trkpt lat="43.45449" lon="-1.42279">
        <ele>114.742</ele>
        <time>2019-03-02T16:25:22Z</time>
      </trkpt>
      <trkpt lat="43.4544" lon="-1.42314">
        <ele>116.581</ele>
        <time>2019-03-02T16:25:42Z</time>
      </trkpt>
      <trkpt lat="43.45407" lon="-1.42252">
        <ele>125.173</ele>
        <time>2019-03-02T16:26:02Z</time>
      </trkpt>
      <trkpt lat="43.45376" lon="-1.42292">
        <ele>132.276</ele>
        <time>2019-03-02T16:26:22Z</time>
      </trkpt>
      <trkpt lat="43.45287" lon="-1.42301">
        <ele>135.543</ele>
        <time>2019-03-02T16:26:42Z</time>
      </trkpt>
      <trkpt lat="43.45247" lon="-1.42267">
        <ele>135.421</ele>
        <time>2019-03-02T16:27:02Z</time>
      </trkpt>
      <trkpt lat="43.45096" lon="-1.42284">
        <ele>137.141</ele>
        <time>2019-03-02T16:27:22Z</time>
      </trkpt>
      <trkpt lat="43.45054" lon="-1.42318">
        <ele>132.905</ele>
        <time>2019-03-02T16:27:42Z</time>
      </trkpt>
      <trkpt lat="43.44996" lon="-1.42226">
        <ele>138.908</ele>
        <time>2019-03-02T16:28:02Z</time>
      </trkpt>
      <trkpt lat="43.44965" lon="-1.42024">
        <ele>132.988</ele>
        <time>2019-03-02T16:28:22Z</time>
      </trkpt>
      <trkpt lat="43.44882" lon="-1.41975">
        <ele>125.753</ele>
        <time>2019-03-02T16:28:42Z</time>
      </trkpt>
      <trkpt lat="43.44806" lon="-1.41985">
        <ele>128.427</ele>
        <time>2019-03-02T16:29:02Z</time>
      </trkpt>
      <trkpt lat="43.44692" lon="-1.42011">
        <ele>133.799</ele>
        <time>2019-03-02T16:29:22Z</time>
      </trkpt>
      <trkpt lat="43.44544" lon="-1.42157">
        <ele>121.018</ele>
        <time>2019-03-02T16:29:42Z</time>
      </trkpt>
      <trkpt lat="43.44335" lon="-1.42303">
        <ele>124.75</ele>
        <time>2019-03-02T16:30:02Z</time>
      </trkpt>
      <trkpt lat="43.44329" lon="-1.42342">
        <ele>127.543</ele>
        <time>2019-03-02T16:30:22Z</time>
      </trkpt>
      <trkpt lat="43.44295" lon="-1.42402">
        <ele>130.04</ele>
        <time>2019-03-02T16:30:42Z</time>
      </trkpt>
      <trkpt lat="43.44282" lon="-1.4253">
        <ele>120.685</ele>
        <time>2019-03-02T16:31:02Z</time>
      </trkpt>
      <trkpt lat="43.4422" lon="-1.42653">
        <ele>110.789</ele>
        <time>2019-03-02T16:31:22Z</time>
      </trkpt>
      <trkpt lat="43.44231" lon="-1.42822">
        <ele>87.617</ele>
        <time>2019-03-02T16:31:42Z</time>
      </trkpt>
      <trkpt lat="43.44172" lon="-1.42951">
        <ele>65.108</ele>
        <time>2019-03-02T16:32:02Z</time>
      </trkpt>
      <trkpt lat="43.44106" lon="-1.42762">
        <ele>75.594</ele>
        <time>2019-03-02T16:32:22Z</time>
      </trkpt>
      <trkpt lat="43.44077" lon="-1.42764">
        <ele>75.489</ele>
        <time>2019-03-02T16:32:42Z</time>
      </trkpt>
      <trkpt lat="43.43988" lon="-1.42711">
        <ele>95.693</ele>
        <time>2019-03-02T16:33:02Z</time>
      </trkpt>
      <trkpt lat="43.43965" lon="-1.42743">
        <ele>96.875</ele>
        <time>2019-03-02T16:33:22Z</time>
      </trkpt>
      <trkpt lat="43.43946" lon="-1.42741">
        <ele>100.754</ele>
        <time>2019-03-02T16:33:42Z</time>
      </trkpt>
      <trkpt lat="43.43947" lon="-1.42827">
        <ele>103.346</ele>
        <time>2019-03-02T16:34:02Z</time>
      </trkpt>
      <trkpt lat="43.43904" lon="-1.42893">
        <ele>104.249</ele>
        <time>2019-03-02T16:34:22Z</time>
      </trkpt>
      <trkpt lat="43.43812" lon="-1.42977">
        <ele>93.666</ele>
        <time>2019-03-02T16:34:42Z</time>
      </trkpt>
      <trkpt lat="43.43762" lon="-1.43054">
        <ele>81.012</ele>
        <time>2019-03-02T16:35:02Z</time>
      </trkpt>
      <trkpt lat="43.43667" lon="-1.43236">
        <ele>43.032</ele>
        <time>2019-03-02T16:35:22Z</time>
      </trkpt>
      <trkpt lat="43.43594" lon="-1.43243">
        <ele>35.505</ele>
        <time>2019-03-02T16:35:42Z</time>
      </trkpt>
      <trkpt lat="43.43542" lon="-1.43367">
        <ele>42.508</ele>
        <time>2019-03-02T16:36:02Z</time>
      </trkpt>
      <trkpt lat="43.43555" lon="-1.4353">
        <ele>63.257</ele>
        <time>2019-03-02T16:36:22Z</time>
      </trkpt>
      <trkpt lat="43.43555" lon="-1.43655">
        <ele>73.222</ele>
        <time>2019-03-02T16:36:42Z</time>
      </trkpt>
      <trkpt lat="43.43523" lon="-1.43654">
        <ele>78.686</ele>
        <time>2020-12-02T15:13:52Z</time>
      </trkpt>
      <trkpt lat="43.4349" lon="-1.43667">
        <ele>82.918</ele>
        <time>2020-12-02T15:14:12Z</time>
      </trkpt>
      <trkpt lat="43.43472" lon="-1.43774">
        <ele>94.897</ele>
        <time>2020-12-02T15:14:32Z</time>
      </trkpt>
      <trkpt lat="43.43481" lon="-1.43837">
        <ele>98.289</ele>
        <time>2020-12-02T15:14:52Z</time>
      </trkpt>
      <trkpt lat="43.43404" lon="-1.43878">
        <ele>109.652</ele>
        <time>2020-12-02T15:15:12Z</time>
      </trkpt>
      <trkpt lat="43.43371" lon="-1.43906">
        <ele>108.549</ele>
        <time>2020-12-02T15:15:32Z</time>
      </trkpt>
      <trkpt lat="43.433" lon="-1.43901">
        <ele>101.336</ele>
        <time>2020-12-02T15:15:52Z</time>
      </trkpt>
      <trkpt lat="43.43253" lon="-1.43775">
        <ele>96.017</ele>
        <time>2019-03-02T16:40:22Z</time>
      </trkpt>
      <trkpt lat="43.43207" lon="-1.43734">
        <ele>95.018</ele>
        <time>2019-03-02T16:40:42Z</time>
      </trkpt>
      <trkpt lat="43.43089" lon="-1.43674">
        <ele>100.108</ele>
        <time>2019-03-02T16:41:02Z</time>
      </trkpt>
      <trkpt lat="43.42964" lon="-1.43575">
        <ele>111.249</ele>
        <time>2019-03-02T16:41:22Z</time>
      </trkpt>
      <trkpt lat="43.42935" lon="-1.43498">
        <ele>114.974</ele>
        <time>2019-03-02T16:41:42Z</time>
      </trkpt>
      <trkpt lat="43.4286" lon="-1.43438">
        <ele>110.618</ele>
        <time>2019-03-02T16:42:02Z</time>
      </trkpt>
      <trkpt lat="43.42824" lon="-1.43432">
        <ele>105.06</ele>
        <time>2019-03-02T16:42:22Z</time>
      </trkpt>
      <trkpt lat="43.42821" lon="-1.43337">
        <ele>105.099</ele>
        <time>2019-03-02T16:42:42Z</time>
      </trkpt>
      <trkpt lat="43.42796" lon="-1.43258">
        <ele>105.511</ele>
        <time>2019-03-02T16:43:02Z</time>
      </trkpt>
      <trkpt lat="43.42743" lon="-1.4323">
        <ele>104.534</ele>
        <time>2019-03-02T16:43:22Z</time>
      </trkpt>
      <trkpt lat="43.42559" lon="-1.4306">
        <ele>92.571</ele>
        <time>2019-03-02T16:43:42Z</time>
      </trkpt>
      <trkpt lat="43.42428" lon="-1.42936">
        <ele>81.378</ele>
        <time>2019-03-02T16:44:02Z</time>
      </trkpt>
      <trkpt lat="43.42205" lon="-1.42717">
        <ele>87.933</ele>
        <time>2019-03-02T16:44:22Z</time>
      </trkpt>
      <trkpt lat="43.42109" lon="-1.42719">
        <ele>95.626</ele>
        <time>2019-03-02T16:44:42Z</time>
      </trkpt>
      <trkpt lat="43.42029" lon="-1.42404">
        <ele>110.808</ele>
        <time>2019-03-02T16:45:02Z</time>
      </trkpt>
      <trkpt lat="43.42018" lon="-1.42307">
        <ele>113.253</ele>
        <time>2019-03-02T16:45:22Z</time>
      </trkpt>
      <trkpt lat="43.42001" lon="-1.4226">
        <ele>118.838</ele>
        <time>2019-03-02T16:45:42Z</time>
      </trkpt>
      <trkpt lat="43.41887" lon="-1.42226">
        <ele>119.772</ele>
        <time>2019-03-02T16:46:02Z</time>
      </trkpt>
      <trkpt lat="43.41839" lon="-1.42151">
        <ele>120.964</ele>
        <time>2019-03-02T16:46:22Z</time>
      </trkpt>
      <trkpt lat="43.41811" lon="-1.42076">
        <ele>122.623</ele>
        <time>2019-03-02T16:46:42Z</time>
      </trkpt>
      <trkpt lat="43.41814" lon="-1.42024">
        <ele>118.295</ele>
        <time>2019-03-02T16:47:02Z</time>
      </trkpt>
      <trkpt lat="43.41778" lon="-1.41943">
        <ele>112.818</ele>
        <time>2019-03-02T16:47:22Z</time>
      </trkpt>
      <trkpt lat="43.41766" lon="-1.41855">
        <ele>113.215</ele>
        <time>2019-03-02T16:47:42Z</time>
      </trkpt>
      <trkpt lat="43.417" lon="-1.41773">
        <ele>114.627</ele>
        <time>2019-03-02T16:48:02Z</time>
      </trkpt>
      <trkpt lat="43.41608" lon="-1.4173">
        <ele>109.668</ele>
        <time>2019-03-02T16:48:22Z</time>
      </trkpt>
      <trkpt lat="43.41485" lon="-1.41734">
        <ele>113.114</ele>
        <time>2019-03-02T16:48:42Z</time>
      </trkpt>
      <trkpt lat="43.41378" lon="-1.41702">
        <ele>115.908</ele>
        <time>2019-03-02T16:49:02Z</time>
      </trkpt>
      <trkpt lat="43.41275" lon="-1.41619">
        <ele>120.778</ele>
        <time>2019-03-02T16:49:22Z</time>
      </trkpt>
      <trkpt lat="43.41206" lon="-1.41533">
        <ele>124.323</ele>
        <time>2019-03-02T16:49:42Z</time>
      </trkpt>
      <trkpt lat="43.41163" lon="-1.41507">
        <ele>127.167</ele>
        <time>2019-03-02T16:50:02Z</time>
      </trkpt>
      <trkpt lat="43.41088" lon="-1.41548">
        <ele>125.729</ele>
        <time>2019-03-02T16:50:22Z</time>
      </trkpt>
      <trkpt lat="43.41016" lon="-1.41567">
        <ele>125.058</ele>
        <time>2019-03-02T16:50:42Z</time>
      </trkpt>
      <trkpt lat="43.40938" lon="-1.41646">
        <ele>123.53</ele>
        <time>2019-03-02T16:51:02Z</time>
      </trkpt>
      <trkpt lat="43.40921" lon="-1.41734">
        <ele>118.253</ele>
        <time>2019-03-02T16:51:22Z</time>
      </trkpt>
      <trkpt lat="43.40891" lon="-1.4182">
        <ele>112.81</ele>
        <time>2019-03-02T16:51:42Z</time>
      </trkpt>
      <trkpt lat="43.40933" lon="-1.42166">
        <ele>101.879</ele>
        <time>2019-03-02T16:52:02Z</time>
      </trkpt>
      <trkpt lat="43.40874" lon="-1.42232">
        <ele>93.505</ele>
        <time>2019-03-02T16:52:22Z</time>
      </trkpt>
      <trkpt lat="43.40851" lon="-1.42303">
        <ele>91.725</ele>
        <time>2019-03-02T16:52:42Z</time>
      </trkpt>
      <trkpt lat="43.40809" lon="-1.42344">
        <ele>84.008</ele>
        <time>2019-03-02T16:53:02Z</time>
      </trkpt>
      <trkpt lat="43.4079" lon="-1.42395">
        <ele>83.743</ele>
        <time>2019-03-02T16:53:22Z</time>
      </trkpt>
      <trkpt lat="43.40737" lon="-1.42475">
        <ele>84.528</ele>
        <time>2019-03-02T16:53:42Z</time>
      </trkpt>
      <trkpt lat="43.40695" lon="-1.42505">
        <ele>82.932</ele>
        <time>2019-03-02T16:54:02Z</time>
      </trkpt>
      <trkpt lat="43.40637" lon="-1.42597">
        <ele>86.794</ele>
        <time>2019-03-02T16:54:22Z</time>
      </trkpt>
      <trkpt lat="43.40559" lon="-1.42629">
        <ele>83.993</ele>
        <time>2019-03-02T16:54:42Z</time>
      </trkpt>
      <trkpt lat="43.40503" lon="-1.42691">
        <ele>83.165</ele>
        <time>2019-03-02T16:55:02Z</time>
      </trkpt>
      <trkpt lat="43.40441" lon="-1.42704">
        <ele>80.118</ele>
        <time>2019-03-02T16:55:22Z</time>
      </trkpt>
      <trkpt lat="43.40377" lon="-1.42743">
        <ele>80.035</ele>
        <time>2019-03-02T16:55:42Z</time>
      </trkpt>
      <trkpt lat="43.4035" lon="-1.42777">
        <ele>81.626</ele>
        <time>2019-03-02T16:56:02Z</time>
      </trkpt>
      <trkpt lat="43.40287" lon="-1.42788">
        <ele>81.147</ele>
        <time>2019-03-02T16:56:22Z</time>
      </trkpt>
      <trkpt lat="43.40234" lon="-1.42779">
        <ele>80.611</ele>
        <time>2019-03-02T16:56:42Z</time>
      </trkpt>
      <trkpt lat="43.40157" lon="-1.42835">
        <ele>86.708</ele>
        <time>2019-03-02T16:57:02Z</time>
      </trkpt>
      <trkpt lat="43.40179" lon="-1.42835">
        <ele>87.328</ele>
        <time>2019-03-02T16:57:22Z</time>
      </trkpt>
      <trkpt lat="43.40167" lon="-1.42859">
        <ele>91.693</ele>
        <time>2019-03-02T16:57:42Z</time>
      </trkpt>
      <trkpt lat="43.40193" lon="-1.4293">
        <ele>95.097</ele>
        <time>2019-03-02T16:58:02Z</time>
      </trkpt>
      <trkpt lat="43.40171" lon="-1.43">
        <ele>95.099</ele>
        <time>2019-03-02T16:58:22Z</time>
      </trkpt>
      <trkpt lat="43.40138" lon="-1.43048">
        <ele>94.058</ele>
        <time>2019-03-02T16:58:42Z</time>
      </trkpt>
      <trkpt lat="43.40026" lon="-1.42919">
        <ele>79.42</ele>
        <time>2019-03-02T16:59:02Z</time>
      </trkpt>
      <trkpt lat="43.40007" lon="-1.42877">
        <ele>78.993</ele>
        <time>2019-03-02T16:59:22Z</time>
      </trkpt>
      <trkpt lat="43.40011" lon="-1.42852">
        <ele>80.35</ele>
        <time>2019-03-02T16:59:42Z</time>
      </trkpt>
      <trkpt lat="43.39908" lon="-1.42807">
        <ele>70.134</ele>
        <time>2019-03-02T17:00:02Z</time>
      </trkpt>
      <trkpt lat="43.39861" lon="-1.42743">
        <ele>60.555</ele>
        <time>2019-03-02T17:00:22Z</time>
      </trkpt>
      <trkpt lat="43.39794" lon="-1.42631">
        <ele>46.91</ele>
        <time>2019-03-02T17:00:42Z</time>
      </trkpt>
      <trkpt lat="43.39661" lon="-1.42636">
        <ele>30.308</ele>
        <time>2019-03-02T17:01:02Z</time>
      </trkpt>
      <trkpt lat="43.39594" lon="-1.42736">
        <ele>23.789</ele>
        <time>2019-03-02T17:01:22Z</time>
      </trkpt>
      <trkpt lat="43.39499" lon="-1.42859">
        <ele>26.754</ele>
        <time>2019-03-02T17:01:42Z</time>
      </trkpt>
      <trkpt lat="43.39457" lon="-1.42846">
        <ele>37.718</ele>
        <time>2019-03-02T17:02:02Z</time>
      </trkpt>
      <trkpt lat="43.39418" lon="-1.42767">
        <ele>53.05</ele>
        <time>2019-03-02T17:02:22Z</time>
      </trkpt>
      <trkpt lat="43.39381" lon="-1.42784">
        <ele>55.129</ele>
        <time>2019-03-02T17:02:42Z</time>
      </trkpt>
      <trkpt lat="43.39309" lon="-1.42784">
        <ele>62.311</ele>
        <time>2019-03-02T17:03:02Z</time>
      </trkpt>
      <trkpt lat="43.39264" lon="-1.42752">
        <ele>65.894</ele>
        <time>2019-03-02T17:03:22Z</time>
      </trkpt>
      <trkpt lat="43.39117" lon="-1.42833">
        <ele>66.231</ele>
        <time>2019-03-02T17:03:42Z</time>
      </trkpt>
      <trkpt lat="43.39061" lon="-1.42734">
        <ele>68.955</ele>
        <time>2019-03-02T17:04:02Z</time>
      </trkpt>
      <trkpt lat="43.38994" lon="-1.42882">
        <ele>65.007</ele>
        <time>2019-03-02T17:04:22Z</time>
      </trkpt>
      <trkpt lat="43.38947" lon="-1.42936">
        <ele>65.017</ele>
        <time>2019-03-02T17:04:42Z</time>
      </trkpt>
      <trkpt lat="43.38899" lon="-1.42921">
        <ele>65.008</ele>
        <time>2019-03-02T17:05:02Z</time>
      </trkpt>
      <trkpt lat="43.38819" lon="-1.4287">
        <ele>66.381</ele>
        <time>2019-03-02T17:05:22Z</time>
      </trkpt>
      <trkpt lat="43.38816" lon="-1.42764">
        <ele>69.356</ele>
        <time>2019-03-02T17:05:42Z</time>
      </trkpt>
      <trkpt lat="43.38759" lon="-1.42573">
        <ele>68.75</ele>
        <time>2019-03-02T17:06:02Z</time>
      </trkpt>
      <trkpt lat="43.38735" lon="-1.42578">
        <ele>67.372</ele>
        <time>2019-03-02T17:06:22Z</time>
      </trkpt>
      <trkpt lat="43.38651" lon="-1.42713">
        <ele>65.941</ele>
        <time>2019-03-02T17:06:42Z</time>
      </trkpt>
      <trkpt lat="43.38603" lon="-1.42728">
        <ele>68.153</ele>
        <time>2019-03-02T17:07:02Z</time>
      </trkpt>
      <trkpt lat="43.38559" lon="-1.42719">
        <ele>68.246</ele>
        <time>2019-03-02T17:07:22Z</time>
      </trkpt>
      <trkpt lat="43.38489" lon="-1.42749">
        <ele>66.023</ele>
        <time>2019-03-02T17:07:42Z</time>
      </trkpt>
      <trkpt lat="43.38444" lon="-1.42584">
        <ele>68.929</ele>
        <time>2019-03-02T17:08:02Z</time>
      </trkpt>
      <trkpt lat="43.38367" lon="-1.4252">
        <ele>65</ele>
        <time>2019-03-02T17:08:22Z</time>
      </trkpt>
      <trkpt lat="43.38305" lon="-1.42503">
        <ele>65.02</ele>
        <time>2019-03-02T17:08:42Z</time>
      </trkpt>
      <trkpt lat="43.38241" lon="-1.42576">
        <ele>62.608</ele>
        <time>2019-03-02T17:09:02Z</time>
      </trkpt>
      <trkpt lat="43.38227" lon="-1.42621">
        <ele>60.868</ele>
        <time>2019-03-02T17:09:22Z</time>
      </trkpt>
      <trkpt lat="43.38235" lon="-1.42696">
        <ele>53.933</ele>
        <time>2019-03-02T17:09:42Z</time>
      </trkpt>
      <trkpt lat="43.38211" lon="-1.42739">
        <ele>48.537</ele>
        <time>2019-03-02T17:10:02Z</time>
      </trkpt>
      <trkpt lat="43.38166" lon="-1.42739">
        <ele>51.049</ele>
        <time>2019-03-02T17:10:22Z</time>
      </trkpt>
      <trkpt lat="43.38085" lon="-1.42685">
        <ele>46.958</ele>
        <time>2019-03-02T17:10:42Z</time>
      </trkpt>
      <trkpt lat="43.3808" lon="-1.42642">
        <ele>47.52</ele>
        <time>2019-03-02T17:11:02Z</time>
      </trkpt>
      <trkpt lat="43.38129" lon="-1.42548">
        <ele>45.753</ele>
        <time>2019-03-02T17:11:22Z</time>
      </trkpt>
      <trkpt lat="43.38144" lon="-1.42485">
        <ele>36.84</ele>
        <time>2019-03-02T17:11:42Z</time>
      </trkpt>
      <trkpt lat="43.38119" lon="-1.4247">
        <ele>30.858</ele>
        <time>2019-03-02T17:12:02Z</time>
      </trkpt>
      <trkpt lat="43.38071" lon="-1.42541">
        <ele>27.552</ele>
        <time>2019-03-02T17:12:22Z</time>
      </trkpt>
      <trkpt lat="43.3793" lon="-1.42621">
        <ele>23.517</ele>
        <time>2019-03-02T17:12:42Z</time>
      </trkpt>
      <trkpt lat="43.37835" lon="-1.42627">
        <ele>31.708</ele>
        <time>2019-03-02T17:13:02Z</time>
      </trkpt>
      <trkpt lat="43.37718" lon="-1.42552">
        <ele>35.381</ele>
        <time>2019-03-02T17:13:22Z</time>
      </trkpt>
      <trkpt lat="43.37623" lon="-1.42468">
        <ele>35.636</ele>
        <time>2019-03-02T17:13:42Z</time>
      </trkpt>
      <trkpt lat="43.37566" lon="-1.42387">
        <ele>37.96</ele>
        <time>2019-03-02T17:14:02Z</time>
      </trkpt>
      <trkpt lat="43.37458" lon="-1.42359">
        <ele>20.072</ele>
        <time>2019-03-02T17:14:22Z</time>
      </trkpt>
      <trkpt lat="43.37417" lon="-1.42183">
        <ele>31.651</ele>
        <time>2019-03-02T17:14:42Z</time>
      </trkpt>
      <trkpt lat="43.3741" lon="-1.41988">
        <ele>37.513</ele>
        <time>2019-03-02T17:15:02Z</time>
      </trkpt>
      <trkpt lat="43.37389" lon="-1.41895">
        <ele>36.686</ele>
        <time>2019-03-02T17:15:22Z</time>
      </trkpt>
      <trkpt lat="43.37378" lon="-1.41779">
        <ele>36.193</ele>
        <time>2019-03-02T17:15:42Z</time>
      </trkpt>
      <trkpt lat="43.37361" lon="-1.41722">
        <ele>34.051</ele>
        <time>2019-03-02T17:16:02Z</time>
      </trkpt>
      <trkpt lat="43.37357" lon="-1.41623">
        <ele>34.201</ele>
        <time>2019-03-02T17:16:22Z</time>
      </trkpt>
      <trkpt lat="43.37367" lon="-1.41569">
        <ele>37.811</ele>
        <time>2019-03-02T17:16:42Z</time>
      </trkpt>
      <trkpt lat="43.37364" lon="-1.41335">
        <ele>30.508</ele>
        <time>2019-03-02T17:17:02Z</time>
      </trkpt>
      <trkpt lat="43.3738" lon="-1.41249">
        <ele>32.441</ele>
        <time>2019-03-02T17:17:22Z</time>
      </trkpt>
      <trkpt lat="43.37386" lon="-1.41089">
        <ele>26.516</ele>
        <time>2019-03-02T17:17:42Z</time>
      </trkpt>
      <trkpt lat="43.37342" lon="-1.40981">
        <ele>22.66</ele>
        <time>2019-03-02T17:18:02Z</time>
      </trkpt>
      <trkpt lat="43.3725" lon="-1.40762">
        <ele>17.212</ele>
        <time>2019-03-02T17:18:22Z</time>
      </trkpt>
      <trkpt lat="43.37254" lon="-1.40634">
        <ele>21.371</ele>
        <time>2019-03-02T17:18:42Z</time>
      </trkpt>
      <trkpt lat="43.37232" lon="-1.40486">
        <ele>19.693</ele>
        <time>2019-03-02T17:19:02Z</time>
      </trkpt>
      <trkpt lat="43.37204" lon="-1.4043">
        <ele>17.966</ele>
        <time>2019-03-02T17:19:22Z</time>
      </trkpt>
      <trkpt lat="43.37118" lon="-1.40237">
        <ele>20.023</ele>
        <time>2019-03-02T17:19:42Z</time>
      </trkpt>
      <trkpt lat="43.37035" lon="-1.40059">
        <ele>25.492</ele>
        <time>2019-03-02T17:20:02Z</time>
      </trkpt>
      <trkpt lat="43.36992" lon="-1.40099">
        <ele>25.173</ele>
        <time>2019-03-02T17:20:22Z</time>
      </trkpt>
      <trkpt lat="43.36907" lon="-1.40144">
        <ele>20.52</ele>
        <time>2019-03-02T17:20:42Z</time>
      </trkpt>
      <trkpt lat="43.36856" lon="-1.4011">
        <ele>20.808</ele>
        <time>2019-03-02T17:21:02Z</time>
      </trkpt>
      <trkpt lat="43.36812" lon="-1.40048">
        <ele>22.095</ele>
        <time>2019-03-02T17:21:22Z</time>
      </trkpt>
      <trkpt lat="43.36776" lon="-1.40067">
        <ele>21.08</ele>
        <time>2019-03-02T17:21:42Z</time>
      </trkpt>
      <trkpt lat="43.36697" lon="-1.40007">
        <ele>21.134</ele>
        <time>2019-03-02T17:22:02Z</time>
      </trkpt>
      <trkpt lat="43.36517" lon="-1.39941">
        <ele>18.686</ele>
        <time>2019-03-02T17:22:22Z</time>
      </trkpt>
      <trkpt lat="43.36432" lon="-1.39844">
        <ele>18.085</ele>
        <time>2019-03-02T17:22:42Z</time>
      </trkpt>
      <trkpt lat="43.36374" lon="-1.39797">
        <ele>16.127</ele>
        <time>2019-03-02T17:23:02Z</time>
      </trkpt>
      <trkpt lat="43.36368" lon="-1.39775">
        <ele>15.24</ele>
        <time>2019-03-02T17:23:22Z</time>
      </trkpt>
      <trkpt lat="43.3628" lon="-1.39752">
        <ele>24.167</ele>
        <time>2019-03-02T17:23:42Z</time>
      </trkpt>
      <trkpt lat="43.36268" lon="-1.39808">
        <ele>30.974</ele>
        <time>2019-03-02T17:24:02Z</time>
      </trkpt>
      <trkpt lat="43.36241" lon="-1.39865">
        <ele>51.356</ele>
        <time>2019-03-02T17:24:22Z</time>
      </trkpt>
      <trkpt lat="43.36233" lon="-1.39917">
        <ele>49.421</ele>
        <time>2020-12-02T16:00:32Z</time>
      </trkpt>
      <trkpt lat="43.36212" lon="-1.39893">
        <ele>53.508</ele>
        <time>2020-12-02T16:00:52Z</time>
      </trkpt>
      <trkpt lat="43.362" lon="-1.3986">
        <ele>55.623</ele>
        <time>2020-12-02T16:01:12Z</time>
      </trkpt>
      <trkpt lat="43.36172" lon="-1.39958">
        <ele>62.068</ele>
        <time>2020-12-02T16:01:32Z</time>
      </trkpt>
      <trkpt lat="43.36149" lon="-1.3999">
        <ele>61.082</ele>
        <time>2019-03-02T17:25:02Z</time>
      </trkpt>
      <trkpt lat="43.3612" lon="-1.3997">
        <ele>66.384</ele>
        <time>2020-12-02T16:02:12Z</time>
      </trkpt>
      <trkpt lat="43.36072" lon="-1.39959">
        <ele>68.963</ele>
        <time>2020-12-02T16:02:32Z</time>
      </trkpt>
      <trkpt lat="43.36075" lon="-1.39948">
        <ele>68.435</ele>
        <time>2020-12-02T16:02:52Z</time>
      </trkpt>
      <trkpt lat="43.36007" lon="-1.39917">
        <ele>63.068</ele>
        <time>2019-03-02T17:25:22Z</time>
      </trkpt>
      <trkpt lat="43.35948" lon="-1.40006">
        <ele>71.095</ele>
        <time>2020-12-02T16:03:32Z</time>
      </trkpt>
      <trkpt lat="43.35885" lon="-1.40039">
        <ele>70.545</ele>
        <time>2020-12-02T16:03:52Z</time>
      </trkpt>
      <trkpt lat="43.35905" lon="-1.40117">
        <ele>70.147</ele>
        <time>2020-12-02T16:04:12Z</time>
      </trkpt>
      <trkpt lat="43.35759" lon="-1.40088">
        <ele>68.311</ele>
        <time>2020-12-02T16:04:32Z</time>
      </trkpt>
      <trkpt lat="43.35722" lon="-1.40385">
        <ele>69.008</ele>
        <time>2019-03-02T17:27:02Z</time>
      </trkpt>
      <trkpt lat="43.35536" lon="-1.40475">
        <ele>74.43</ele>
        <time>2019-03-02T17:27:22Z</time>
      </trkpt>
      <trkpt lat="43.35489" lon="-1.40565">
        <ele>80.185</ele>
        <time>2019-03-02T17:27:42Z</time>
      </trkpt>
      <trkpt lat="43.35449" lon="-1.40526">
        <ele>80.549</ele>
        <time>2019-03-02T17:28:02Z</time>
      </trkpt>
      <trkpt lat="43.354" lon="-1.40552">
        <ele>87.951</ele>
        <time>2019-03-02T17:28:22Z</time>
      </trkpt>
      <trkpt lat="43.35385" lon="-1.40601">
        <ele>93.97</ele>
        <time>2019-03-02T17:28:42Z</time>
      </trkpt>
      <trkpt lat="43.354" lon="-1.40674">
        <ele>93.052</ele>
        <time>2019-03-02T17:29:02Z</time>
      </trkpt>
      <trkpt lat="43.35411" lon="-1.40752">
        <ele>89.835</ele>
        <time>2019-03-02T17:29:22Z</time>
      </trkpt>
      <trkpt lat="43.35355" lon="-1.40853">
        <ele>109.052</ele>
        <time>2019-03-02T17:29:42Z</time>
      </trkpt>
      <trkpt lat="43.353" lon="-1.41011">
        <ele>117.894</ele>
        <time>2019-03-02T17:30:02Z</time>
      </trkpt>
      <trkpt lat="43.35265" lon="-1.41056">
        <ele>126.357</ele>
        <time>2019-03-02T17:30:22Z</time>
      </trkpt>
      <trkpt lat="43.35243" lon="-1.41031">
        <ele>134.022</ele>
        <time>2019-03-02T17:30:42Z</time>
      </trkpt>
      <trkpt lat="43.35236" lon="-1.40943">
        <ele>139.008</ele>
        <time>2019-03-02T17:31:02Z</time>
      </trkpt>
      <trkpt lat="43.3518" lon="-1.40805">
        <ele>148.015</ele>
        <time>2019-03-02T17:31:22Z</time>
      </trkpt>
      <trkpt lat="43.35143" lon="-1.40825">
        <ele>149.65</ele>
        <time>2019-03-02T17:31:42Z</time>
      </trkpt>
      <trkpt lat="43.35088" lon="-1.40784">
        <ele>151.574</ele>
        <time>2019-03-02T17:32:02Z</time>
      </trkpt>
      <trkpt lat="43.35035" lon="-1.40792">
        <ele>138.166</ele>
        <time>2019-03-02T17:32:22Z</time>
      </trkpt>
      <trkpt lat="43.35015" lon="-1.40865">
        <ele>125.195</ele>
        <time>2019-03-02T17:32:42Z</time>
      </trkpt>
      <trkpt lat="43.34988" lon="-1.40975">
        <ele>104.517</ele>
        <time>2019-03-02T17:33:02Z</time>
      </trkpt>
      <trkpt lat="43.34935" lon="-1.40928">
        <ele>98.11</ele>
        <time>2019-03-02T17:33:22Z</time>
      </trkpt>
      <trkpt lat="43.34904" lon="-1.40795">
        <ele>102.277</ele>
        <time>2019-03-02T17:33:42Z</time>
      </trkpt>
      <trkpt lat="43.34871" lon="-1.40683">
        <ele>99.463</ele>
        <time>2019-03-02T17:34:02Z</time>
      </trkpt>
      <trkpt lat="43.34873" lon="-1.40638">
        <ele>102.444</ele>
        <time>2019-03-02T17:34:22Z</time>
      </trkpt>
      <trkpt lat="43.34862" lon="-1.40593">
        <ele>101.518</ele>
        <time>2019-03-02T17:34:42Z</time>
      </trkpt>
      <trkpt lat="43.34842" lon="-1.40567">
        <ele>98.108</ele>
        <time>2019-03-02T17:35:02Z</time>
      </trkpt>
      <trkpt lat="43.34786" lon="-1.40627">
        <ele>95.912</ele>
        <time>2019-03-02T17:35:22Z</time>
      </trkpt>
      <trkpt lat="43.34737" lon="-1.40636">
        <ele>102.277</ele>
        <time>2019-03-02T17:35:42Z</time>
      </trkpt>
      <trkpt lat="43.34697" lon="-1.40634">
        <ele>106.581</ele>
        <time>2019-03-02T17:36:02Z</time>
      </trkpt>
      <trkpt lat="43.34698" lon="-1.40679">
        <ele>111.553</ele>
        <time>2019-03-02T17:36:22Z</time>
      </trkpt>
      <trkpt lat="43.34644" lon="-1.40816">
        <ele>124.722</ele>
        <time>2019-03-02T17:36:42Z</time>
      </trkpt>
      <trkpt lat="43.34594" lon="-1.40801">
        <ele>128.244</ele>
        <time>2019-03-02T17:37:02Z</time>
      </trkpt>
      <trkpt lat="43.34572" lon="-1.40855">
        <ele>130.517</ele>
        <time>2019-03-02T17:37:22Z</time>
      </trkpt>
      <trkpt lat="43.34497" lon="-1.40964">
        <ele>120.574</ele>
        <time>2019-03-02T17:37:42Z</time>
      </trkpt>
      <trkpt lat="43.34502" lon="-1.41046">
        <ele>121.529</ele>
        <time>2019-03-02T17:38:02Z</time>
      </trkpt>
      <trkpt lat="43.34456" lon="-1.4105">
        <ele>114.8</ele>
        <time>2019-03-02T17:38:22Z</time>
      </trkpt>
      <trkpt lat="43.34409" lon="-1.41078">
        <ele>107.52</ele>
        <time>2019-03-02T17:38:42Z</time>
      </trkpt>
      <trkpt lat="43.34355" lon="-1.41086">
        <ele>106.108</ele>
        <time>2019-03-02T17:39:02Z</time>
      </trkpt>
      <trkpt lat="43.3432" lon="-1.41129">
        <ele>105.778</ele>
        <time>2019-03-02T17:39:22Z</time>
      </trkpt>
      <trkpt lat="43.34283" lon="-1.41149">
        <ele>107.683</ele>
        <time>2019-03-02T17:39:42Z</time>
      </trkpt>
      <trkpt lat="43.34168" lon="-1.41134">
        <ele>109.227</ele>
        <time>2019-03-02T17:40:02Z</time>
      </trkpt>
      <trkpt lat="43.3428" lon="-1.41226">
        <ele>98.659</ele>
        <time>2019-03-02T17:40:22Z</time>
      </trkpt>
      <trkpt lat="43.34341" lon="-1.41325">
        <ele>89.318</ele>
        <time>2019-03-02T17:40:42Z</time>
      </trkpt>
      <trkpt lat="43.34359" lon="-1.41393">
        <ele>84.02</ele>
        <time>2019-03-02T17:41:02Z</time>
      </trkpt>
      <trkpt lat="43.34389" lon="-1.41535">
        <ele>79.873</ele>
        <time>2019-03-02T17:41:22Z</time>
      </trkpt>
      <trkpt lat="43.34439" lon="-1.41683">
        <ele>76.67</ele>
        <time>2019-03-02T17:41:42Z</time>
      </trkpt>
      <trkpt lat="43.34391" lon="-1.41762">
        <ele>75.355</ele>
        <time>2019-03-02T17:42:02Z</time>
      </trkpt>
      <trkpt lat="43.34345" lon="-1.41737">
        <ele>79.607</ele>
        <time>2019-03-02T17:42:22Z</time>
      </trkpt>
      <trkpt lat="43.34271" lon="-1.41767">
        <ele>95.617</ele>
        <time>2019-03-02T17:42:42Z</time>
      </trkpt>
      <trkpt lat="43.34207" lon="-1.41882">
        <ele>122.308</ele>
        <time>2019-03-02T17:43:02Z</time>
      </trkpt>
      <trkpt lat="43.34185" lon="-1.41955">
        <ele>123.241</ele>
        <time>2019-03-02T17:43:22Z</time>
      </trkpt>
      <trkpt lat="43.34168" lon="-1.41915">
        <ele>129.066</ele>
        <time>2019-03-02T17:43:42Z</time>
      </trkpt>
      <trkpt lat="43.34086" lon="-1.41876">
        <ele>147.42</ele>
        <time>2019-03-02T17:44:02Z</time>
      </trkpt>
      <trkpt lat="43.33966" lon="-1.41893">
        <ele>161.242</ele>
        <time>2019-03-02T17:44:22Z</time>
      </trkpt>
      <trkpt lat="43.33807" lon="-1.41891">
        <ele>165.921</ele>
        <time>2019-03-02T17:44:42Z</time>
      </trkpt>
      <trkpt lat="43.33776" lon="-1.4194">
        <ele>169.143</ele>
        <time>2019-03-02T17:45:02Z</time>
      </trkpt>
      <trkpt lat="43.33746" lon="-1.42054">
        <ele>167.686</ele>
        <time>2019-03-02T17:45:22Z</time>
      </trkpt>
      <trkpt lat="43.33715" lon="-1.42136">
        <ele>166.833</ele>
        <time>2019-03-02T17:45:42Z</time>
      </trkpt>
      <trkpt lat="43.33718" lon="-1.42243">
        <ele>177.896</ele>
        <time>2019-03-02T17:46:02Z</time>
      </trkpt>
      <trkpt lat="43.33707" lon="-1.42432">
        <ele>176.031</ele>
        <time>2019-03-02T17:46:22Z</time>
      </trkpt>
      <trkpt lat="43.33681" lon="-1.42554">
        <ele>167.524</ele>
        <time>2019-03-02T17:46:42Z</time>
      </trkpt>
      <trkpt lat="43.33667" lon="-1.42687">
        <ele>175.308</ele>
        <time>2019-03-02T17:47:02Z</time>
      </trkpt>
      <trkpt lat="43.33715" lon="-1.4282">
        <ele>162.895</ele>
        <time>2019-03-02T17:47:22Z</time>
      </trkpt>
      <trkpt lat="43.33615" lon="-1.42882">
        <ele>162.95</ele>
        <time>2019-03-02T17:47:42Z</time>
      </trkpt>
      <trkpt lat="43.33568" lon="-1.42741">
        <ele>177.534</ele>
        <time>2019-03-02T17:48:02Z</time>
      </trkpt>
      <trkpt lat="43.33517" lon="-1.42668">
        <ele>183.686</ele>
        <time>2019-03-02T17:48:22Z</time>
      </trkpt>
      <trkpt lat="43.33509" lon="-1.42625">
        <ele>182.375</ele>
        <time>2019-03-02T17:48:42Z</time>
      </trkpt>
      <trkpt lat="43.33423" lon="-1.42653">
        <ele>173.957</ele>
        <time>2019-03-02T17:49:02Z</time>
      </trkpt>
      <trkpt lat="43.33411" lon="-1.42713">
        <ele>169.88</ele>
        <time>2019-03-02T17:49:22Z</time>
      </trkpt>
      <trkpt lat="43.33383" lon="-1.42756">
        <ele>163.817</ele>
        <time>2019-03-02T17:49:42Z</time>
      </trkpt>
      <trkpt lat="43.33359" lon="-1.42775">
        <ele>160.471</ele>
        <time>2019-03-02T17:50:02Z</time>
      </trkpt>
      <trkpt lat="43.33337" lon="-1.4282">
        <ele>165.541</ele>
        <time>2019-03-02T17:50:22Z</time>
      </trkpt>
      <trkpt lat="43.3329" lon="-1.42872">
        <ele>174.915</ele>
        <time>2019-03-02T17:50:42Z</time>
      </trkpt>
      <trkpt lat="43.33284" lon="-1.42912">
        <ele>180.208</ele>
        <time>2019-03-02T17:51:02Z</time>
      </trkpt>
      <trkpt lat="43.33339" lon="-1.43116">
        <ele>197.073</ele>
        <time>2019-03-02T17:51:22Z</time>
      </trkpt>
      <trkpt lat="43.33365" lon="-1.43288">
        <ele>191.378</ele>
        <time>2019-03-02T17:51:42Z</time>
      </trkpt>
      <trkpt lat="43.33365" lon="-1.43365">
        <ele>187.042</ele>
        <time>2019-03-02T17:52:02Z</time>
      </trkpt>
      <trkpt lat="43.33333" lon="-1.43382">
        <ele>189.974</ele>
        <time>2019-03-02T17:52:22Z</time>
      </trkpt>
      <trkpt lat="43.33284" lon="-1.43524">
        <ele>188.973</ele>
        <time>2019-03-02T17:52:42Z</time>
      </trkpt>
      <trkpt lat="43.33234" lon="-1.43464">
        <ele>195.295</ele>
        <time>2019-03-02T17:53:02Z</time>
      </trkpt>
      <trkpt lat="43.33197" lon="-1.43457">
        <ele>200.968</ele>
        <time>2019-03-02T17:53:22Z</time>
      </trkpt>
      <trkpt lat="43.33098" lon="-1.43666">
        <ele>197.595</ele>
        <time>2019-03-02T17:53:42Z</time>
      </trkpt>
      <trkpt lat="43.33048" lon="-1.43651">
        <ele>192.734</ele>
        <time>2020-12-02T16:31:52Z</time>
      </trkpt>
      <trkpt lat="43.32966" lon="-1.43686">
        <ele>177.055</ele>
        <time>2020-12-02T16:32:12Z</time>
      </trkpt>
      <trkpt lat="43.32924" lon="-1.43663">
        <ele>164.71</ele>
        <time>2020-12-02T16:32:32Z</time>
      </trkpt>
      <trkpt lat="43.32886" lon="-1.43732">
        <ele>157.108</ele>
        <time>2020-12-02T16:32:52Z</time>
      </trkpt>
      <trkpt lat="43.32886" lon="-1.43766">
        <ele>159.849</ele>
        <time>2020-12-02T16:33:12Z</time>
      </trkpt>
      <trkpt lat="43.32875" lon="-1.43782">
        <ele>159.334</ele>
        <time>2020-12-02T16:33:32Z</time>
      </trkpt>
      <trkpt lat="43.32842" lon="-1.43763">
        <ele>149.658</ele>
        <time>2020-12-02T16:33:52Z</time>
      </trkpt>
      <trkpt lat="43.32809" lon="-1.43728">
        <ele>141.51</ele>
        <time>2020-12-02T16:34:12Z</time>
      </trkpt>
      <trkpt lat="43.32793" lon="-1.43728">
        <ele>140.019</ele>
        <time>2020-12-02T16:34:32Z</time>
      </trkpt>
      <trkpt lat="43.32725" lon="-1.43684">
        <ele>134.211</ele>
        <time>2020-12-02T16:34:52Z</time>
      </trkpt>
      <trkpt lat="43.32657" lon="-1.43693">
        <ele>133.354</ele>
        <time>2020-12-02T16:35:12Z</time>
      </trkpt>
      <trkpt lat="43.32551" lon="-1.43741">
        <ele>148.991</ele>
        <time>2020-12-02T16:35:32Z</time>
      </trkpt>
      <trkpt lat="43.32478" lon="-1.43795">
        <ele>158.521</ele>
        <time>2020-12-02T16:35:52Z</time>
      </trkpt>
      <trkpt lat="43.32447" lon="-1.43865">
        <ele>153.741</ele>
        <time>2020-12-02T16:36:12Z</time>
      </trkpt>
      <trkpt lat="43.32415" lon="-1.43878">
        <ele>158.205</ele>
        <time>2020-12-02T16:36:32Z</time>
      </trkpt>
      <trkpt lat="43.32324" lon="-1.43899">
        <ele>157.408</ele>
        <time>2020-12-02T16:36:52Z</time>
      </trkpt>
      <trkpt lat="43.32289" lon="-1.43884">
        <ele>161.158</ele>
        <time>2020-12-02T16:37:12Z</time>
      </trkpt>
      <trkpt lat="43.32248" lon="-1.43849">
        <ele>168.373</ele>
        <time>2020-12-02T16:37:32Z</time>
      </trkpt>
      <trkpt lat="43.32234" lon="-1.43858">
        <ele>171.057</ele>
        <time>2020-12-02T16:37:52Z</time>
      </trkpt>
      <trkpt lat="43.32223" lon="-1.43915">
        <ele>166.239</ele>
        <time>2020-12-02T16:38:12Z</time>
      </trkpt>
      <trkpt lat="43.32182" lon="-1.43977">
        <ele>168.288</ele>
        <time>2020-12-02T16:38:32Z</time>
      </trkpt>
      <trkpt lat="43.32178" lon="-1.44028">
        <ele>163.03</ele>
        <time>2020-12-02T16:38:52Z</time>
      </trkpt>
      <trkpt lat="43.32145" lon="-1.44062">
        <ele>167.263</ele>
        <time>2020-12-02T16:39:12Z</time>
      </trkpt>
      <trkpt lat="43.32158" lon="-1.44115">
        <ele>159.46</ele>
        <time>2020-12-02T16:39:32Z</time>
      </trkpt>
      <trkpt lat="43.3212" lon="-1.44151">
        <ele>160.423</ele>
        <time>2020-12-02T16:39:52Z</time>
      </trkpt>
      <trkpt lat="43.32091" lon="-1.44182">
        <ele>158.883</ele>
        <time>2020-12-02T16:40:12Z</time>
      </trkpt>
      <trkpt lat="43.32071" lon="-1.44249">
        <ele>151.411</ele>
        <time>2020-12-02T16:40:32Z</time>
      </trkpt>
      <trkpt lat="43.32057" lon="-1.44261">
        <ele>153.408</ele>
        <time>2020-12-02T16:40:52Z</time>
      </trkpt>
      <trkpt lat="43.32034" lon="-1.44273">
        <ele>157.098</ele>
        <time>2020-12-02T16:41:12Z</time>
      </trkpt>
      <trkpt lat="43.32037" lon="-1.44347">
        <ele>144.523</ele>
        <time>2020-12-02T16:41:32Z</time>
      </trkpt>
      <trkpt lat="43.32097" lon="-1.4452">
        <ele>125.987</ele>
        <time>2020-12-02T16:41:52Z</time>
      </trkpt>
      <trkpt lat="43.32167" lon="-1.44589">
        <ele>125.029</ele>
        <time>2020-12-02T16:42:12Z</time>
      </trkpt>
      <trkpt lat="43.3219" lon="-1.44652">
        <ele>131.388</ele>
        <time>2020-12-02T16:42:32Z</time>
      </trkpt>
      <trkpt lat="43.32197" lon="-1.44737">
        <ele>136.33</ele>
        <time>2020-12-02T16:42:52Z</time>
      </trkpt>
      <trkpt lat="43.32224" lon="-1.4476">
        <ele>129.863</ele>
        <time>2020-12-02T16:43:12Z</time>
      </trkpt>
      <trkpt lat="43.32221" lon="-1.44781">
        <ele>127.94</ele>
        <time>2020-12-02T16:43:32Z</time>
      </trkpt>
      <trkpt lat="43.32167" lon="-1.44854">
        <ele>131.724</ele>
        <time>2020-12-02T16:43:52Z</time>
      </trkpt>
      <trkpt lat="43.32144" lon="-1.44909">
        <ele>121.504</ele>
        <time>2020-12-02T16:44:12Z</time>
      </trkpt>
      <trkpt lat="43.32188" lon="-1.44873">
        <ele>122.914</ele>
        <time>2020-12-02T16:44:32Z</time>
      </trkpt>
      <trkpt lat="43.32239" lon="-1.44847">
        <ele>114.808</ele>
        <time>2020-12-02T16:44:52Z</time>
      </trkpt>
      <trkpt lat="43.32278" lon="-1.44819">
        <ele>110.368</ele>
        <time>2020-12-02T16:45:12Z</time>
      </trkpt>
      <trkpt lat="43.32308" lon="-1.44845">
        <ele>103.663</ele>
        <time>2020-12-02T16:45:32Z</time>
      </trkpt>
      <trkpt lat="43.32297" lon="-1.44895">
        <ele>103.877</ele>
        <time>2020-12-02T16:45:52Z</time>
      </trkpt>
      <trkpt lat="43.32302" lon="-1.44977">
        <ele>100.829</ele>
        <time>2019-03-02T18:02:02Z</time>
      </trkpt>
      <trkpt lat="43.32349" lon="-1.44942">
        <ele>103.718</ele>
        <time>2019-03-02T18:02:22Z</time>
      </trkpt>
      <trkpt lat="43.32454" lon="-1.44914">
        <ele>106.49</ele>
        <time>2019-03-02T18:02:42Z</time>
      </trkpt>
      <trkpt lat="43.32424" lon="-1.45028">
        <ele>121.183</ele>
        <time>2019-03-02T18:03:02Z</time>
      </trkpt>
      <trkpt lat="43.32449" lon="-1.4505">
        <ele>127.53</ele>
        <time>2019-03-02T18:03:22Z</time>
      </trkpt>
      <trkpt lat="43.3253" lon="-1.45007">
        <ele>146.044</ele>
        <time>2019-03-02T18:03:42Z</time>
      </trkpt>
      <trkpt lat="43.32582" lon="-1.4502">
        <ele>159.705</ele>
        <time>2019-03-02T18:04:02Z</time>
      </trkpt>
      <trkpt lat="43.32544" lon="-1.45129">
        <ele>172.915</ele>
        <time>2019-03-02T18:04:22Z</time>
      </trkpt>
      <trkpt lat="43.32549" lon="-1.45208">
        <ele>181.608</ele>
        <time>2019-03-02T18:04:42Z</time>
      </trkpt>
      <trkpt lat="43.32607" lon="-1.45335">
        <ele>196.18</ele>
        <time>2019-03-02T18:05:02Z</time>
      </trkpt>
      <trkpt lat="43.32582" lon="-1.45612">
        <ele>200.835</ele>
        <time>2019-03-02T18:05:22Z</time>
      </trkpt>
      <trkpt lat="43.32568" lon="-1.45726">
        <ele>201.189</ele>
        <time>2019-03-02T18:05:42Z</time>
      </trkpt>
      <trkpt lat="43.32538" lon="-1.45801">
        <ele>205.321</ele>
        <time>2019-03-02T18:06:02Z</time>
      </trkpt>
      <trkpt lat="43.32405" lon="-1.4603">
        <ele>209.74</ele>
        <time>2019-03-02T18:06:22Z</time>
      </trkpt>
      <trkpt lat="43.32416" lon="-1.4614">
        <ele>206.922</ele>
        <time>2019-03-02T18:06:42Z</time>
      </trkpt>
      <trkpt lat="43.32449" lon="-1.4632">
        <ele>191.945</ele>
        <time>2019-03-02T18:07:02Z</time>
      </trkpt>
      <trkpt lat="43.32419" lon="-1.46331">
        <ele>184.112</ele>
        <time>2019-03-02T18:07:22Z</time>
      </trkpt>
      <trkpt lat="43.32396" lon="-1.46326">
        <ele>180.259</ele>
        <time>2019-03-02T18:07:42Z</time>
      </trkpt>
      <trkpt lat="43.32401" lon="-1.46389">
        <ele>172.203</ele>
        <time>2019-03-02T18:08:02Z</time>
      </trkpt>
      <trkpt lat="43.32437" lon="-1.46468">
        <ele>164.223</ele>
        <time>2019-03-02T18:08:22Z</time>
      </trkpt>
      <trkpt lat="43.32469" lon="-1.46502">
        <ele>160.508</ele>
        <time>2019-03-02T18:08:42Z</time>
      </trkpt>
      <trkpt lat="43.32479" lon="-1.4658">
        <ele>150.151</ele>
        <time>2019-03-02T18:09:02Z</time>
      </trkpt>
      <trkpt lat="43.32452" lon="-1.46601">
        <ele>154.626</ele>
        <time>2019-03-02T18:09:22Z</time>
      </trkpt>
      <trkpt lat="43.32459" lon="-1.46689">
        <ele>171.37</ele>
        <time>2019-03-02T18:09:42Z</time>
      </trkpt>
      <trkpt lat="43.32494" lon="-1.46743">
        <ele>180.472</ele>
        <time>2019-03-02T18:10:02Z</time>
      </trkpt>
      <trkpt lat="43.3248" lon="-1.46828">
        <ele>187.261</ele>
        <time>2019-03-02T18:10:22Z</time>
      </trkpt>
      <trkpt lat="43.32476" lon="-1.46912">
        <ele>177.563</ele>
        <time>2019-03-02T18:10:42Z</time>
      </trkpt>
      <trkpt lat="43.32432" lon="-1.46983">
        <ele>174.466</ele>
        <time>2019-03-02T18:11:02Z</time>
      </trkpt>
      <trkpt lat="43.32376" lon="-1.47054">
        <ele>181.043</ele>
        <time>2019-03-02T18:11:22Z</time>
      </trkpt>
      <trkpt lat="43.32291" lon="-1.47165">
        <ele>190.432</ele>
        <time>2019-03-02T18:11:42Z</time>
      </trkpt>
      <trkpt lat="43.3239" lon="-1.47082">
        <ele>186.892</ele>
        <time>2019-03-02T18:12:02Z</time>
      </trkpt>
      <trkpt lat="43.32437" lon="-1.47067">
        <ele>187.111</ele>
        <time>2019-03-02T18:12:22Z</time>
      </trkpt>
      <trkpt lat="43.32473" lon="-1.4708">
        <ele>187.808</ele>
        <time>2019-03-02T18:12:42Z</time>
      </trkpt>
      <trkpt lat="43.32523" lon="-1.47135">
        <ele>191.249</ele>
        <time>2019-03-02T18:13:02Z</time>
      </trkpt>
      <trkpt lat="43.32557" lon="-1.47183">
        <ele>192.064</ele>
        <time>2019-03-02T18:13:22Z</time>
      </trkpt>
      <trkpt lat="43.32668" lon="-1.47247">
        <ele>190.178</ele>
        <time>2019-03-02T18:13:42Z</time>
      </trkpt>
      <trkpt lat="43.32768" lon="-1.47423">
        <ele>174.01</ele>
        <time>2019-03-02T18:14:02Z</time>
      </trkpt>
      <trkpt lat="43.32758" lon="-1.47646">
        <ele>174.369</ele>
        <time>2019-03-02T18:14:22Z</time>
      </trkpt>
      <trkpt lat="43.32778" lon="-1.47695">
        <ele>177.971</ele>
        <time>2019-03-02T18:14:42Z</time>
      </trkpt>
      <trkpt lat="43.32763" lon="-1.47762">
        <ele>186.014</ele>
        <time>2019-03-02T18:15:02Z</time>
      </trkpt>
      <trkpt lat="43.3268" lon="-1.47899">
        <ele>199.541</ele>
        <time>2019-03-02T18:15:22Z</time>
      </trkpt>
      <trkpt lat="43.3266" lon="-1.48017">
        <ele>214.573</ele>
        <time>2019-03-02T18:15:42Z</time>
      </trkpt>
      <trkpt lat="43.32663" lon="-1.48118">
        <ele>227.485</ele>
        <time>2019-03-02T18:16:02Z</time>
      </trkpt>
      <trkpt lat="43.32654" lon="-1.48197">
        <ele>234.513</ele>
        <time>2019-03-02T18:16:22Z</time>
      </trkpt>
      <trkpt lat="43.32654" lon="-1.48331">
        <ele>240.708</ele>
        <time>2019-03-02T18:16:42Z</time>
      </trkpt>
      <trkpt lat="43.32665" lon="-1.48433">
        <ele>246.313</ele>
        <time>2019-03-02T18:17:02Z</time>
      </trkpt>
      <trkpt lat="43.32641" lon="-1.48594">
        <ele>259.738</ele>
        <time>2019-03-02T18:17:22Z</time>
      </trkpt>
      <trkpt lat="43.32574" lon="-1.48751">
        <ele>270.082</ele>
        <time>2019-03-02T18:17:42Z</time>
      </trkpt>
      <trkpt lat="43.32543" lon="-1.49062">
        <ele>256.914</ele>
        <time>2019-03-02T18:18:02Z</time>
      </trkpt>
      <trkpt lat="43.32449" lon="-1.49594">
        <ele>251.463</ele>
        <time>2019-03-02T18:18:22Z</time>
      </trkpt>
      <trkpt lat="43.32463" lon="-1.49661">
        <ele>251.955</ele>
        <time>2019-03-02T18:18:42Z</time>
      </trkpt>
      <trkpt lat="43.32483" lon="-1.49725">
        <ele>252.868</ele>
        <time>2019-03-02T18:19:02Z</time>
      </trkpt>
      <trkpt lat="43.32479" lon="-1.49794">
        <ele>255.545</ele>
        <time>2019-03-02T18:19:22Z</time>
      </trkpt>
      <trkpt lat="43.32454" lon="-1.49867">
        <ele>256.029</ele>
        <time>2019-03-02T18:19:42Z</time>
      </trkpt>
      <trkpt lat="43.32449" lon="-1.4994">
        <ele>255.1</ele>
        <time>2019-03-02T18:20:02Z</time>
      </trkpt>
      <trkpt lat="43.32483" lon="-1.50066">
        <ele>251.42</ele>
        <time>2019-03-02T18:20:22Z</time>
      </trkpt>
      <trkpt lat="43.32473" lon="-1.50184">
        <ele>247.308</ele>
        <time>2019-03-02T18:20:42Z</time>
      </trkpt>
      <trkpt lat="43.32498" lon="-1.50298">
        <ele>240.218</ele>
        <time>2019-03-02T18:21:02Z</time>
      </trkpt>
      <trkpt lat="43.32552" lon="-1.5039">
        <ele>228.253</ele>
        <time>2019-03-02T18:21:22Z</time>
      </trkpt>
      <trkpt lat="43.32671" lon="-1.50747">
        <ele>186.847</ele>
        <time>2019-03-02T18:21:42Z</time>
      </trkpt>
      <trkpt lat="43.3266" lon="-1.50852">
        <ele>186.069</ele>
        <time>2019-03-02T18:22:02Z</time>
      </trkpt>
      <trkpt lat="43.32607" lon="-1.50972">
        <ele>198.818</ele>
        <time>2019-03-02T18:22:22Z</time>
      </trkpt>
      <trkpt lat="43.32485" lon="-1.51092">
        <ele>226.35</ele>
        <time>2019-03-02T18:22:42Z</time>
      </trkpt>
      <trkpt lat="43.32479" lon="-1.51223">
        <ele>229.053</ele>
        <time>2019-03-02T18:23:02Z</time>
      </trkpt>
      <trkpt lat="43.32448" lon="-1.51322">
        <ele>224.44</ele>
        <time>2019-03-02T18:23:22Z</time>
      </trkpt>
      <trkpt lat="43.32529" lon="-1.52296">
        <ele>180.332</ele>
        <time>2019-03-02T18:23:42Z</time>
      </trkpt>
      <trkpt lat="43.32491" lon="-1.52463">
        <ele>176.292</ele>
        <time>2019-03-02T18:24:02Z</time>
      </trkpt>
      <trkpt lat="43.32504" lon="-1.52616">
        <ele>176.511</ele>
        <time>2019-03-02T18:24:22Z</time>
      </trkpt>
      <trkpt lat="43.32516" lon="-1.52809">
        <ele>167.508</ele>
        <time>2019-03-02T18:24:42Z</time>
      </trkpt>
      <trkpt lat="43.32541" lon="-1.52901">
        <ele>165.869</ele>
        <time>2019-03-02T18:25:02Z</time>
      </trkpt>
      <trkpt lat="43.3258" lon="-1.52959">
        <ele>170.634</ele>
        <time>2019-03-02T18:25:22Z</time>
      </trkpt>
      <trkpt lat="43.32574" lon="-1.53058">
        <ele>180.048</ele>
        <time>2019-03-02T18:25:42Z</time>
      </trkpt>
      <trkpt lat="43.32629" lon="-1.5315">
        <ele>169.91</ele>
        <time>2019-03-02T18:26:02Z</time>
      </trkpt>
      <trkpt lat="43.32668" lon="-1.53257">
        <ele>152.479</ele>
        <time>2019-03-02T18:26:22Z</time>
      </trkpt>
      <trkpt lat="43.32707" lon="-1.53429">
        <ele>131.891</ele>
        <time>2019-03-02T18:26:42Z</time>
      </trkpt>
      <trkpt lat="43.32846" lon="-1.53774">
        <ele>112.754</ele>
        <time>2019-03-02T18:27:02Z</time>
      </trkpt>
      <trkpt lat="43.32793" lon="-1.53822">
        <ele>110.111</ele>
        <time>2019-03-02T18:27:22Z</time>
      </trkpt>
      <trkpt lat="43.32754" lon="-1.53888">
        <ele>103.399</ele>
        <time>2019-03-02T18:27:42Z</time>
      </trkpt>
      <trkpt lat="43.32632" lon="-1.53974">
        <ele>80.207</ele>
        <time>2019-03-02T18:28:02Z</time>
      </trkpt>
      <trkpt lat="43.32538" lon="-1.54083">
        <ele>70.027</ele>
        <time>2019-03-02T18:28:22Z</time>
      </trkpt>
      <trkpt lat="43.32493" lon="-1.54197">
        <ele>66.708</ele>
        <time>2019-03-02T18:28:42Z</time>
      </trkpt>
      <trkpt lat="43.32494" lon="-1.54347">
        <ele>49.555</ele>
        <time>2019-03-02T18:29:02Z</time>
      </trkpt>
      <trkpt lat="43.32521" lon="-1.54401">
        <ele>37.69</ele>
        <time>2019-03-02T18:29:22Z</time>
      </trkpt>
      <trkpt lat="43.3254" lon="-1.5447">
        <ele>29.844</ele>
        <time>2019-03-02T18:29:42Z</time>
      </trkpt>
      <trkpt lat="43.32616" lon="-1.54465">
        <ele>33.576</ele>
        <time>2019-03-02T18:30:02Z</time>
      </trkpt>
      <trkpt lat="43.32671" lon="-1.54493">
        <ele>36.285</ele>
        <time>2019-03-02T18:30:22Z</time>
      </trkpt>
      <trkpt lat="43.32735" lon="-1.54485">
        <ele>36.267</ele>
        <time>2019-03-02T18:30:42Z</time>
      </trkpt>
      <trkpt lat="43.32793" lon="-1.54444">
        <ele>34.59</ele>
        <time>2019-03-02T18:31:02Z</time>
      </trkpt>
      <trkpt lat="43.32839" lon="-1.54403">
        <ele>32.787</ele>
        <time>2019-03-02T18:31:22Z</time>
      </trkpt>
      <trkpt lat="43.32892" lon="-1.54491">
        <ele>32.367</ele>
        <time>2019-03-02T18:31:42Z</time>
      </trkpt>
      <trkpt lat="43.32944" lon="-1.54459">
        <ele>32.081</ele>
        <time>2019-03-02T18:32:02Z</time>
      </trkpt>
      <trkpt lat="43.32992" lon="-1.54392">
        <ele>27.119</ele>
        <time>2019-03-02T18:32:22Z</time>
      </trkpt>
      <trkpt lat="43.33036" lon="-1.54437">
        <ele>32.008</ele>
        <time>2019-03-02T18:32:42Z</time>
      </trkpt>
      <trkpt lat="43.33074" lon="-1.54465">
        <ele>33.182</ele>
        <time>2019-03-02T18:33:02Z</time>
      </trkpt>
      <trkpt lat="43.33072" lon="-1.54553">
        <ele>36.797</ele>
        <time>2019-03-02T18:33:22Z</time>
      </trkpt>
      <trkpt lat="43.3303" lon="-1.54613">
        <ele>42.211</ele>
        <time>2019-03-02T18:33:42Z</time>
      </trkpt>
      <trkpt lat="43.32966" lon="-1.54731">
        <ele>58.153</ele>
        <time>2019-03-02T18:34:02Z</time>
      </trkpt>
      <trkpt lat="43.32914" lon="-1.54774">
        <ele>68.922</ele>
        <time>2019-03-02T18:34:22Z</time>
      </trkpt>
      <trkpt lat="43.32864" lon="-1.54768">
        <ele>78.284</ele>
        <time>2019-03-02T18:34:42Z</time>
      </trkpt>
      <trkpt lat="43.32882" lon="-1.54723">
        <ele>76.347</ele>
        <time>2019-03-02T18:35:02Z</time>
      </trkpt>
      <trkpt lat="43.32867" lon="-1.54723">
        <ele>79.054</ele>
        <time>2019-03-02T18:35:22Z</time>
      </trkpt>
      <trkpt lat="43.32822" lon="-1.54777">
        <ele>88.826</ele>
        <time>2019-03-02T18:35:42Z</time>
      </trkpt>
      <trkpt lat="43.32775" lon="-1.54877">
        <ele>104.047</ele>
        <time>2019-03-02T18:36:02Z</time>
      </trkpt>
      <trkpt lat="43.32763" lon="-1.54967">
        <ele>114.111</ele>
        <time>2019-03-02T18:36:22Z</time>
      </trkpt>
      <trkpt lat="43.32774" lon="-1.5503">
        <ele>125.608</ele>
        <time>2019-03-02T18:36:42Z</time>
      </trkpt>
      <trkpt lat="43.3276" lon="-1.5513">
        <ele>134.968</ele>
        <time>2019-03-02T18:37:02Z</time>
      </trkpt>
      <trkpt lat="43.32711" lon="-1.55191">
        <ele>139.513</ele>
        <time>2019-03-02T18:37:22Z</time>
      </trkpt>
      <trkpt lat="43.327" lon="-1.55255">
        <ele>146.737</ele>
        <time>2019-03-02T18:37:42Z</time>
      </trkpt>
      <trkpt lat="43.32719" lon="-1.553">
        <ele>151.579</ele>
        <time>2019-03-02T18:38:02Z</time>
      </trkpt>
      <trkpt lat="43.32707" lon="-1.55384">
        <ele>160.478</ele>
        <time>2019-03-02T18:38:22Z</time>
      </trkpt>
      <trkpt lat="43.32674" lon="-1.55461">
        <ele>164.88</ele>
        <time>2019-03-02T18:38:42Z</time>
      </trkpt>
      <trkpt lat="43.32702" lon="-1.55622">
        <ele>162.983</ele>
        <time>2019-03-02T18:39:02Z</time>
      </trkpt>
      <trkpt lat="43.32761" lon="-1.55716">
        <ele>166.19</ele>
        <time>2019-03-02T18:39:22Z</time>
      </trkpt>
      <trkpt lat="43.3281" lon="-1.55881">
        <ele>171.049</ele>
        <time>2019-03-02T18:39:42Z</time>
      </trkpt>
      <trkpt lat="43.32825" lon="-1.5604">
        <ele>174.102</ele>
        <time>2019-03-02T18:40:02Z</time>
      </trkpt>
      <trkpt lat="43.3281" lon="-1.56092">
        <ele>171.022</ele>
        <time>2019-03-02T18:40:22Z</time>
      </trkpt>
      <trkpt lat="43.32702" lon="-1.56336">
        <ele>187.208</ele>
        <time>2019-03-02T18:40:42Z</time>
      </trkpt>
      <trkpt lat="43.32691" lon="-1.56399">
        <ele>190.01</ele>
        <time>2019-03-02T18:41:02Z</time>
      </trkpt>
      <trkpt lat="43.3259" lon="-1.56686">
        <ele>213.855</ele>
        <time>2019-03-02T18:41:22Z</time>
      </trkpt>
      <trkpt lat="43.32644" lon="-1.56858">
        <ele>220.189</ele>
        <time>2019-03-02T18:41:42Z</time>
      </trkpt>
      <trkpt lat="43.32658" lon="-1.56918">
        <ele>220.521</ele>
        <time>2019-03-02T18:42:02Z</time>
      </trkpt>
      <trkpt lat="43.32705" lon="-1.56987">
        <ele>217.63</ele>
        <time>2019-03-02T18:42:22Z</time>
      </trkpt>
      <trkpt lat="43.32722" lon="-1.57098">
        <ele>216.982</ele>
        <time>2019-03-02T18:42:42Z</time>
      </trkpt>
      <trkpt lat="43.3269" lon="-1.57132">
        <ele>216.295</ele>
        <time>2019-03-02T18:43:02Z</time>
      </trkpt>
      <trkpt lat="43.32665" lon="-1.57126">
        <ele>215.022</ele>
        <time>2019-03-02T18:43:22Z</time>
      </trkpt>
      <trkpt lat="43.32707" lon="-1.5719">
        <ele>209.718</ele>
        <time>2019-03-02T18:43:42Z</time>
      </trkpt>
      <trkpt lat="43.32722" lon="-1.57291">
        <ele>203.698</ele>
        <time>2019-03-02T18:44:02Z</time>
      </trkpt>
      <trkpt lat="43.32761" lon="-1.57358">
        <ele>198.717</ele>
        <time>2019-03-02T18:44:22Z</time>
      </trkpt>
      <trkpt lat="43.32833" lon="-1.57448">
        <ele>194.108</ele>
        <time>2019-03-02T18:44:42Z</time>
      </trkpt>
      <trkpt lat="43.32861" lon="-1.57525">
        <ele>190.747</ele>
        <time>2019-03-02T18:45:02Z</time>
      </trkpt>
      <trkpt lat="43.32891" lon="-1.57542">
        <ele>186.362</ele>
        <time>2019-03-02T18:45:22Z</time>
      </trkpt>
      <trkpt lat="43.32985" lon="-1.57551">
        <ele>176.146</ele>
        <time>2019-03-02T18:45:42Z</time>
      </trkpt>
      <trkpt lat="43.33047" lon="-1.57611">
        <ele>173.328</ele>
        <time>2019-03-02T18:46:02Z</time>
      </trkpt>
      <trkpt lat="43.33061" lon="-1.57652">
        <ele>174.987</ele>
        <time>2019-03-02T18:46:22Z</time>
      </trkpt>
      <trkpt lat="43.33094" lon="-1.57708">
        <ele>179.739</ele>
        <time>2019-03-02T18:46:42Z</time>
      </trkpt>
      <trkpt lat="43.33136" lon="-1.57879">
        <ele>201.532</ele>
        <time>2019-03-02T18:47:02Z</time>
      </trkpt>
      <trkpt lat="43.33128" lon="-1.57922">
        <ele>203.199</ele>
        <time>2019-03-02T18:47:22Z</time>
      </trkpt>
      <trkpt lat="43.33089" lon="-1.58042">
        <ele>216.011</ele>
        <time>2019-03-02T18:47:42Z</time>
      </trkpt>
      <trkpt lat="43.33077" lon="-1.58083">
        <ele>219.521</ele>
        <time>2019-03-02T18:48:02Z</time>
      </trkpt>
      <trkpt lat="43.33084" lon="-1.58113">
        <ele>223.103</ele>
        <time>2019-03-02T18:48:22Z</time>
      </trkpt>
      <trkpt lat="43.33117" lon="-1.58175">
        <ele>224.808</ele>
        <time>2019-03-02T18:48:42Z</time>
      </trkpt>
      <trkpt lat="43.33164" lon="-1.58227">
        <ele>237.587</ele>
        <time>2019-03-02T18:49:02Z</time>
      </trkpt>
      <trkpt lat="43.33178" lon="-1.58313">
        <ele>253.812</ele>
        <time>2019-03-02T18:49:22Z</time>
      </trkpt>
      <trkpt lat="43.33131" lon="-1.58426">
        <ele>279.096</ele>
        <time>2019-03-02T18:49:42Z</time>
      </trkpt>
      <trkpt lat="43.33128" lon="-1.58596">
        <ele>293.698</ele>
        <time>2019-03-02T18:50:02Z</time>
      </trkpt>
      <trkpt lat="43.33092" lon="-1.58585">
        <ele>291.177</ele>
        <time>2019-03-02T18:50:22Z</time>
      </trkpt>
      <trkpt lat="43.33056" lon="-1.58624">
        <ele>288.059</ele>
        <time>2019-03-02T18:50:42Z</time>
      </trkpt>
      <trkpt lat="43.33041" lon="-1.58662">
        <ele>284.232</ele>
        <time>2019-03-02T18:51:02Z</time>
      </trkpt>
      <trkpt lat="43.33044" lon="-1.5878">
        <ele>273.149</ele>
        <time>2019-03-02T18:51:22Z</time>
      </trkpt>
      <trkpt lat="43.32992" lon="-1.58907">
        <ele>257.887</ele>
        <time>2019-03-02T18:51:42Z</time>
      </trkpt>
      <trkpt lat="43.32956" lon="-1.59066">
        <ele>249.142</ele>
        <time>2019-03-02T18:52:02Z</time>
      </trkpt>
      <trkpt lat="43.32914" lon="-1.59025">
        <ele>243.926</ele>
        <time>2019-03-02T18:52:22Z</time>
      </trkpt>
      <trkpt lat="43.32853" lon="-1.59038">
        <ele>230.108</ele>
        <time>2019-03-02T18:52:42Z</time>
      </trkpt>
      <trkpt lat="43.32805" lon="-1.59008">
        <ele>224.744</ele>
        <time>2019-03-02T18:53:02Z</time>
      </trkpt>
      <trkpt lat="43.32718" lon="-1.5892">
        <ele>201.019</ele>
        <time>2019-03-02T18:53:22Z</time>
      </trkpt>
      <trkpt lat="43.32652" lon="-1.58931">
        <ele>193.743</ele>
        <time>2019-03-02T18:53:42Z</time>
      </trkpt>
      <trkpt lat="43.32599" lon="-1.58879">
        <ele>177.375</ele>
        <time>2019-03-02T18:54:02Z</time>
      </trkpt>
      <trkpt lat="43.32529" lon="-1.58883">
        <ele>160.984</ele>
        <time>2019-03-02T18:54:22Z</time>
      </trkpt>
      <trkpt lat="43.32512" lon="-1.58931">
        <ele>154.966</ele>
        <time>2019-03-02T18:54:42Z</time>
      </trkpt>
      <trkpt lat="43.32477" lon="-1.58997">
        <ele>150.489</ele>
        <time>2019-03-02T18:55:02Z</time>
      </trkpt>
      <trkpt lat="43.32404" lon="-1.59006">
        <ele>138.936</ele>
        <time>2019-03-02T18:55:22Z</time>
      </trkpt>
      <trkpt lat="43.32337" lon="-1.58969">
        <ele>119.225</ele>
        <time>2019-03-02T18:55:42Z</time>
      </trkpt>
      <trkpt lat="43.32401" lon="-1.58823">
        <ele>111.526</ele>
        <time>2019-03-02T18:56:02Z</time>
      </trkpt>
      <trkpt lat="43.32418" lon="-1.58746">
        <ele>106.908</ele>
        <time>2019-03-02T18:56:22Z</time>
      </trkpt>
      <trkpt lat="43.32474" lon="-1.58609">
        <ele>103.208</ele>
        <time>2019-03-02T18:56:42Z</time>
      </trkpt>
      <trkpt lat="43.32463" lon="-1.58598">
        <ele>100.698</ele>
        <time>2019-03-02T18:57:02Z</time>
      </trkpt>
      <trkpt lat="43.32438" lon="-1.58619">
        <ele>97.623</ele>
        <time>2019-03-02T18:57:22Z</time>
      </trkpt>
      <trkpt lat="43.32354" lon="-1.58613">
        <ele>88.267</ele>
        <time>2019-03-02T18:57:42Z</time>
      </trkpt>
      <trkpt lat="43.32302" lon="-1.58652">
        <ele>84.119</ele>
        <time>2019-03-02T18:58:02Z</time>
      </trkpt>
      <trkpt lat="43.32128" lon="-1.58641">
        <ele>76.768</ele>
        <time>2019-03-02T18:58:22Z</time>
      </trkpt>
      <trkpt lat="43.32101" lon="-1.58609">
        <ele>84.28</ele>
        <time>2019-03-02T18:58:42Z</time>
      </trkpt>
      <trkpt lat="43.32079" lon="-1.58553">
        <ele>85.543</ele>
        <time>2019-03-02T18:59:02Z</time>
      </trkpt>
      <trkpt lat="43.32039" lon="-1.58501">
        <ele>84.56</ele>
        <time>2019-03-02T18:59:22Z</time>
      </trkpt>
      <trkpt lat="43.32001" lon="-1.58418">
        <ele>85.856</ele>
        <time>2019-03-02T18:59:42Z</time>
      </trkpt>
      <trkpt lat="43.31965" lon="-1.58416">
        <ele>89.159</ele>
        <time>2019-03-02T19:00:02Z</time>
      </trkpt>
      <trkpt lat="43.31961" lon="-1.58315">
        <ele>95.514</ele>
        <time>2019-03-02T19:00:22Z</time>
      </trkpt>
      <trkpt lat="43.31914" lon="-1.58177">
        <ele>79.908</ele>
        <time>2019-03-02T19:00:42Z</time>
      </trkpt>
      <trkpt lat="43.31853" lon="-1.58165">
        <ele>71.051</ele>
        <time>2019-03-02T19:01:02Z</time>
      </trkpt>
      <trkpt lat="43.31823" lon="-1.58085">
        <ele>67.016</ele>
        <time>2019-03-02T19:01:22Z</time>
      </trkpt>
      <trkpt lat="43.31815" lon="-1.57986">
        <ele>64.84</ele>
        <time>2019-03-02T19:01:42Z</time>
      </trkpt>
      <trkpt lat="43.31714" lon="-1.57978">
        <ele>67.022</ele>
        <time>2019-03-02T19:02:02Z</time>
      </trkpt>
      <trkpt lat="43.31591" lon="-1.58016">
        <ele>58.541</ele>
        <time>2019-03-02T19:02:22Z</time>
      </trkpt>
      <trkpt lat="43.31491" lon="-1.58059">
        <ele>57.793</ele>
        <time>2019-03-02T19:02:42Z</time>
      </trkpt>
      <trkpt lat="43.31374" lon="-1.58068">
        <ele>62.616</ele>
        <time>2019-03-02T19:03:02Z</time>
      </trkpt>
      <trkpt lat="43.31333" lon="-1.58047">
        <ele>70.083</ele>
        <time>2019-03-02T19:03:22Z</time>
      </trkpt>
      <trkpt lat="43.31309" lon="-1.58014">
        <ele>72.634</ele>
        <time>2019-03-02T19:03:42Z</time>
      </trkpt>
      <trkpt lat="43.31263" lon="-1.58023">
        <ele>77.755</ele>
        <time>2019-03-02T19:04:02Z</time>
      </trkpt>
      <trkpt lat="43.31281" lon="-1.58077">
        <ele>74.91</ele>
        <time>2019-03-02T19:04:22Z</time>
      </trkpt>
    </trkseg>
  </trk>
  <trk>
    <name><![CDATA[GR®65 Via Podiensis De Aire-sur-l'Adour (Landes) à Larribar-Sorhapuru (Pyrénées-Atlantiques) (2021)]]></name>
    <desc><![CDATA[Randonnée sur le GR®65 Via Podiensis. Pèlerinage de Saint Jacques de Compostelle, à travers les Landes et les Pyrénées-Atlantique de Aire-sur-l'Adour à Larribar-Sorhapuru. Gîtes d'étapes, Chambres d'hôtes, Hôtels, Camping, Refuges, Auberges.]]></desc>
    <extensions>
      <line xmlns="http://www.topografix.com/GPX/gpx_style/0/2">
        <color>000000</color>
        <width>4</width>
      </line>
    </extensions>
    <trkseg>
      <trkpt lat="43.6999" lon="-0.26317">
        <ele>80.519</ele>
        <time>2021-01-03T16:18:00Z</time>
      </trkpt>
      <trkpt lat="43.70002" lon="-0.26427">
        <ele>82.909</ele>
        <time>2019-03-30T14:31:45Z</time>
      </trkpt>
      <trkpt lat="43.69986" lon="-0.26628">
        <ele>85.008</ele>
        <time>2019-03-30T14:32:05Z</time>
      </trkpt>
      <trkpt lat="43.69964" lon="-0.26695">
        <ele>91.817</ele>
        <time>2019-03-30T14:32:25Z</time>
      </trkpt>
      <trkpt lat="43.69732" lon="-0.26897">
        <ele>125.334</ele>
        <time>2019-03-30T14:32:45Z</time>
      </trkpt>
      <trkpt lat="43.68963" lon="-0.27419">
        <ele>150.084</ele>
        <time>2019-03-30T14:33:05Z</time>
      </trkpt>
      <trkpt lat="43.6898" lon="-0.27692">
        <ele>150.054</ele>
        <time>2019-03-30T14:33:25Z</time>
      </trkpt>
      <trkpt lat="43.68855" lon="-0.27784">
        <ele>152.099</ele>
        <time>2016-09-25T15:54:42Z</time>
      </trkpt>
      <trkpt lat="43.68855" lon="-0.27839">
        <ele>152.038</ele>
        <time>2016-09-25T15:55:02Z</time>
      </trkpt>
      <trkpt lat="43.68788" lon="-0.27906">
        <ele>152.055</ele>
        <time>2016-09-25T15:55:22Z</time>
      </trkpt>
      <trkpt lat="43.68746" lon="-0.27972">
        <ele>152.089</ele>
        <time>2016-09-25T15:55:42Z</time>
      </trkpt>
      <trkpt lat="43.68664" lon="-0.28069">
        <ele>151.567</ele>
        <time>2016-09-25T15:56:02Z</time>
      </trkpt>
      <trkpt lat="43.6861" lon="-0.28097">
        <ele>151.681</ele>
        <time>2016-09-25T15:56:22Z</time>
      </trkpt>
      <trkpt lat="43.68453" lon="-0.28078">
        <ele>155.019</ele>
        <time>2016-09-25T15:56:42Z</time>
      </trkpt>
      <trkpt lat="43.68391" lon="-0.28178">
        <ele>155.008</ele>
        <time>2016-09-25T15:57:02Z</time>
      </trkpt>
      <trkpt lat="43.68354" lon="-0.28292">
        <ele>151.032</ele>
        <time>2016-09-25T15:57:22Z</time>
      </trkpt>
      <trkpt lat="43.68211" lon="-0.28374">
        <ele>136.649</ele>
        <time>2016-09-25T15:57:42Z</time>
      </trkpt>
      <trkpt lat="43.68158" lon="-0.28421">
        <ele>128.229</ele>
        <time>2016-09-25T15:58:02Z</time>
      </trkpt>
      <trkpt lat="43.68045" lon="-0.28434">
        <ele>116.689</ele>
        <time>2016-09-25T15:58:22Z</time>
      </trkpt>
      <trkpt lat="43.68011" lon="-0.28397">
        <ele>118.634</ele>
        <time>2016-09-25T15:58:42Z</time>
      </trkpt>
      <trkpt lat="43.6795" lon="-0.28399">
        <ele>114.673</ele>
        <time>2016-09-25T15:59:02Z</time>
      </trkpt>
      <trkpt lat="43.67915" lon="-0.2838">
        <ele>119.75</ele>
        <time>2016-09-25T15:59:22Z</time>
      </trkpt>
      <trkpt lat="43.67857" lon="-0.28434">
        <ele>113.364</ele>
        <time>2016-09-25T15:59:42Z</time>
      </trkpt>
      <trkpt lat="43.67811" lon="-0.28421">
        <ele>113.434</ele>
        <time>2016-09-25T16:00:02Z</time>
      </trkpt>
      <trkpt lat="43.67713" lon="-0.28348">
        <ele>118.955</ele>
        <time>2016-09-25T16:00:22Z</time>
      </trkpt>
      <trkpt lat="43.67686" lon="-0.28359">
        <ele>115.31</ele>
        <time>2016-09-25T16:00:42Z</time>
      </trkpt>
      <trkpt lat="43.67677" lon="-0.28316">
        <ele>124.208</ele>
        <time>2016-09-25T16:01:02Z</time>
      </trkpt>
      <trkpt lat="43.67624" lon="-0.28275">
        <ele>128.979</ele>
        <time>2016-09-25T16:01:22Z</time>
      </trkpt>
      <trkpt lat="43.67516" lon="-0.28311">
        <ele>117.856</ele>
        <time>2016-09-25T16:01:42Z</time>
      </trkpt>
      <trkpt lat="43.67471" lon="-0.28275">
        <ele>124.416</ele>
        <time>2016-09-25T16:02:02Z</time>
      </trkpt>
      <trkpt lat="43.6733" lon="-0.28278">
        <ele>120.096</ele>
        <time>2019-03-30T14:41:25Z</time>
      </trkpt>
      <trkpt lat="43.67207" lon="-0.28236">
        <ele>118.241</ele>
        <time>2019-03-30T14:41:45Z</time>
      </trkpt>
      <trkpt lat="43.67069" lon="-0.28247">
        <ele>115.14</ele>
        <time>2016-09-25T16:02:42Z</time>
      </trkpt>
      <trkpt lat="43.67058" lon="-0.28329">
        <ele>114.957</ele>
        <time>2016-09-25T16:03:02Z</time>
      </trkpt>
      <trkpt lat="43.66991" lon="-0.28395">
        <ele>115.091</ele>
        <time>2016-09-25T16:03:22Z</time>
      </trkpt>
      <trkpt lat="43.66965" lon="-0.28447">
        <ele>115.882</ele>
        <time>2016-09-25T16:03:42Z</time>
      </trkpt>
      <trkpt lat="43.66833" lon="-0.28638">
        <ele>124.943</ele>
        <time>2019-03-30T14:43:25Z</time>
      </trkpt>
      <trkpt lat="43.6703" lon="-0.28771">
        <ele>134.217</ele>
        <time>2016-09-25T16:04:42Z</time>
      </trkpt>
      <trkpt lat="43.6707" lon="-0.28824">
        <ele>140.608</ele>
        <time>2016-09-25T16:05:02Z</time>
      </trkpt>
      <trkpt lat="43.6707" lon="-0.28914">
        <ele>150.614</ele>
        <time>2016-09-25T16:05:22Z</time>
      </trkpt>
      <trkpt lat="43.67004" lon="-0.29371">
        <ele>160.081</ele>
        <time>2016-09-25T16:05:42Z</time>
      </trkpt>
      <trkpt lat="43.66921" lon="-0.29719">
        <ele>159.881</ele>
        <time>2016-09-25T16:06:02Z</time>
      </trkpt>
      <trkpt lat="43.66935" lon="-0.2988">
        <ele>157.391</ele>
        <time>2016-09-25T16:06:22Z</time>
      </trkpt>
      <trkpt lat="43.6676" lon="-0.29927">
        <ele>160.056</ele>
        <time>2016-09-25T16:06:42Z</time>
      </trkpt>
      <trkpt lat="43.66696" lon="-0.29934">
        <ele>160.055</ele>
        <time>2016-09-25T16:07:02Z</time>
      </trkpt>
      <trkpt lat="43.66328" lon="-0.30084">
        <ele>162.032</ele>
        <time>2016-09-25T16:07:22Z</time>
      </trkpt>
      <trkpt lat="43.66055" lon="-0.29916">
        <ele>163.016</ele>
        <time>2016-09-25T16:07:42Z</time>
      </trkpt>
      <trkpt lat="43.6603" lon="-0.29936">
        <ele>163.971</ele>
        <time>2016-09-25T16:08:02Z</time>
      </trkpt>
      <trkpt lat="43.66046" lon="-0.302">
        <ele>164.441</ele>
        <time>2016-09-25T16:08:22Z</time>
      </trkpt>
      <trkpt lat="43.65204" lon="-0.30303">
        <ele>168.115</ele>
        <time>2016-09-25T16:08:42Z</time>
      </trkpt>
      <trkpt lat="43.64889" lon="-0.30335">
        <ele>167.008</ele>
        <time>2016-09-25T16:09:02Z</time>
      </trkpt>
      <trkpt lat="43.64459" lon="-0.30434">
        <ele>170.023</ele>
        <time>2019-03-30T14:48:25Z</time>
      </trkpt>
      <trkpt lat="43.64518" lon="-0.30682">
        <ele>167.04</ele>
        <time>2016-09-25T16:09:42Z</time>
      </trkpt>
      <trkpt lat="43.64368" lon="-0.31421">
        <ele>172.01</ele>
        <time>2016-09-25T16:10:02Z</time>
      </trkpt>
      <trkpt lat="43.64273" lon="-0.31395">
        <ele>172.09</ele>
        <time>2016-09-25T16:10:22Z</time>
      </trkpt>
      <trkpt lat="43.63731" lon="-0.31101">
        <ele>174.784</ele>
        <time>2016-09-25T16:11:02Z</time>
      </trkpt>
      <trkpt lat="43.63183" lon="-0.30846">
        <ele>175.091</ele>
        <time>2016-09-25T16:11:22Z</time>
      </trkpt>
      <trkpt lat="43.62892" lon="-0.30831">
        <ele>175.075</ele>
        <time>2016-09-25T16:11:42Z</time>
      </trkpt>
      <trkpt lat="43.62588" lon="-0.30745">
        <ele>177.024</ele>
        <time>2016-09-25T16:12:02Z</time>
      </trkpt>
      <trkpt lat="43.62414" lon="-0.30734">
        <ele>179.004</ele>
        <time>2016-09-25T16:12:22Z</time>
      </trkpt>
      <trkpt lat="43.62335" lon="-0.30697">
        <ele>179.114</ele>
        <time>2016-09-25T16:12:42Z</time>
      </trkpt>
      <trkpt lat="43.62224" lon="-0.30672">
        <ele>180.008</ele>
        <time>2016-09-25T16:13:02Z</time>
      </trkpt>
      <trkpt lat="43.62091" lon="-0.30594">
        <ele>180.098</ele>
        <time>2016-09-25T16:13:22Z</time>
      </trkpt>
      <trkpt lat="43.61723" lon="-0.30322">
        <ele>182.025</ele>
        <time>2016-09-25T16:13:42Z</time>
      </trkpt>
      <trkpt lat="43.61364" lon="-0.30097">
        <ele>184.055</ele>
        <time>2016-09-25T16:14:02Z</time>
      </trkpt>
      <trkpt lat="43.61199" lon="-0.29865">
        <ele>185.015</ele>
        <time>2016-09-25T16:14:22Z</time>
      </trkpt>
      <trkpt lat="43.60961" lon="-0.29875">
        <ele>185.07</ele>
        <time>2019-03-30T14:53:45Z</time>
      </trkpt>
      <trkpt lat="43.60657" lon="-0.29823">
        <ele>185.069</ele>
        <time>2019-03-30T14:54:05Z</time>
      </trkpt>
      <trkpt lat="43.60645" lon="-0.30139">
        <ele>185.026</ele>
        <time>2019-03-30T14:54:25Z</time>
      </trkpt>
      <trkpt lat="43.60577" lon="-0.30141">
        <ele>185.03</ele>
        <time>2019-03-30T14:54:45Z</time>
      </trkpt>
      <trkpt lat="43.60557" lon="-0.30568">
        <ele>182.723</ele>
        <time>2019-03-30T14:55:05Z</time>
      </trkpt>
      <trkpt lat="43.60466" lon="-0.30554">
        <ele>176.483</ele>
        <time>2016-09-25T16:17:22Z</time>
      </trkpt>
      <trkpt lat="43.60413" lon="-0.30618">
        <ele>171.211</ele>
        <time>2016-09-25T16:17:42Z</time>
      </trkpt>
      <trkpt lat="43.60307" lon="-0.30573">
        <ele>173.308</ele>
        <time>2016-09-25T16:18:02Z</time>
      </trkpt>
      <trkpt lat="43.60248" lon="-0.30588">
        <ele>170.038</ele>
        <time>2016-09-25T16:18:22Z</time>
      </trkpt>
      <trkpt lat="43.60298" lon="-0.30725">
        <ele>169.055</ele>
        <time>2019-03-30T14:56:45Z</time>
      </trkpt>
      <trkpt lat="43.60337" lon="-0.31034">
        <ele>181.415</ele>
        <time>2016-09-25T16:19:02Z</time>
      </trkpt>
      <trkpt lat="43.60356" lon="-0.31107">
        <ele>184.725</ele>
        <time>2019-03-30T14:57:25Z</time>
      </trkpt>
      <trkpt lat="43.60343" lon="-0.31403">
        <ele>187.59</ele>
        <time>2016-09-25T16:20:02Z</time>
      </trkpt>
      <trkpt lat="43.60293" lon="-0.31484">
        <ele>188.029</ele>
        <time>2019-03-30T14:58:05Z</time>
      </trkpt>
      <trkpt lat="43.60203" lon="-0.31575">
        <ele>188.836</ele>
        <time>2016-09-25T16:20:42Z</time>
      </trkpt>
      <trkpt lat="43.60135" lon="-0.3168">
        <ele>188.03</ele>
        <time>2016-09-25T16:21:02Z</time>
      </trkpt>
      <trkpt lat="43.60175" lon="-0.31818">
        <ele>186.359</ele>
        <time>2016-09-25T16:21:22Z</time>
      </trkpt>
      <trkpt lat="43.60205" lon="-0.32069">
        <ele>188.003</ele>
        <time>2016-09-25T16:21:42Z</time>
      </trkpt>
      <trkpt lat="43.60159" lon="-0.32515">
        <ele>201.223</ele>
        <time>2019-03-30T14:59:45Z</time>
      </trkpt>
      <trkpt lat="43.60143" lon="-0.32594">
        <ele>209.808</ele>
        <time>2019-03-30T15:00:05Z</time>
      </trkpt>
      <trkpt lat="43.60034" lon="-0.32665">
        <ele>219.921</ele>
        <time>2019-03-30T15:00:25Z</time>
      </trkpt>
      <trkpt lat="43.59993" lon="-0.32724">
        <ele>217.668</ele>
        <time>2019-03-30T15:00:45Z</time>
      </trkpt>
      <trkpt lat="43.59863" lon="-0.3268">
        <ele>213.118</ele>
        <time>2016-09-25T16:23:22Z</time>
      </trkpt>
      <trkpt lat="43.59812" lon="-0.32682">
        <ele>210.898</ele>
        <time>2016-09-25T16:23:42Z</time>
      </trkpt>
      <trkpt lat="43.59774" lon="-0.32717">
        <ele>208.053</ele>
        <time>2019-03-30T15:01:45Z</time>
      </trkpt>
      <trkpt lat="43.59661" lon="-0.32721">
        <ele>215.222</ele>
        <time>2016-09-25T16:24:22Z</time>
      </trkpt>
      <trkpt lat="43.59585" lon="-0.32745">
        <ele>213.079</ele>
        <time>2016-09-25T16:24:42Z</time>
      </trkpt>
      <trkpt lat="43.59509" lon="-0.32734">
        <ele>205.543</ele>
        <time>2016-09-25T16:25:02Z</time>
      </trkpt>
      <trkpt lat="43.59501" lon="-0.32654">
        <ele>201.647</ele>
        <time>2016-09-25T16:25:22Z</time>
      </trkpt>
      <trkpt lat="43.59372" lon="-0.32655">
        <ele>204.829</ele>
        <time>2019-03-30T15:03:25Z</time>
      </trkpt>
      <trkpt lat="43.59251" lon="-0.32473">
        <ele>201.021</ele>
        <time>2019-03-30T15:03:45Z</time>
      </trkpt>
      <trkpt lat="43.59142" lon="-0.32406">
        <ele>200.008</ele>
        <time>2016-09-25T16:26:42Z</time>
      </trkpt>
      <trkpt lat="43.58948" lon="-0.32202">
        <ele>199.34</ele>
        <time>2016-09-25T16:27:02Z</time>
      </trkpt>
      <trkpt lat="43.58848" lon="-0.32189">
        <ele>199.877</ele>
        <time>2016-09-25T16:27:22Z</time>
      </trkpt>
      <trkpt lat="43.58747" lon="-0.32221">
        <ele>200.017</ele>
        <time>2016-09-25T16:27:42Z</time>
      </trkpt>
      <trkpt lat="43.58651" lon="-0.32283">
        <ele>203.697</ele>
        <time>2016-09-25T16:28:02Z</time>
      </trkpt>
      <trkpt lat="43.58251" lon="-0.32364">
        <ele>196.922</ele>
        <time>2019-03-30T15:05:45Z</time>
      </trkpt>
      <trkpt lat="43.57922" lon="-0.32093">
        <ele>200.161</ele>
        <time>2019-03-30T15:06:05Z</time>
      </trkpt>
      <trkpt lat="43.5774" lon="-0.32131">
        <ele>203.068</ele>
        <time>2016-09-25T16:29:42Z</time>
      </trkpt>
      <trkpt lat="43.576" lon="-0.32397">
        <ele>204.892</ele>
        <time>2016-09-25T16:30:22Z</time>
      </trkpt>
      <trkpt lat="43.57524" lon="-0.32589">
        <ele>210.036</ele>
        <time>2019-03-30T15:07:05Z</time>
      </trkpt>
      <trkpt lat="43.57476" lon="-0.32657">
        <ele>210.017</ele>
        <time>2016-09-25T16:31:02Z</time>
      </trkpt>
      <trkpt lat="43.57538" lon="-0.32742">
        <ele>210.018</ele>
        <time>2016-09-25T16:31:22Z</time>
      </trkpt>
      <trkpt lat="43.57664" lon="-0.32781">
        <ele>206.608</ele>
        <time>2016-09-25T16:31:42Z</time>
      </trkpt>
      <trkpt lat="43.57692" lon="-0.32931">
        <ele>207.589</ele>
        <time>2016-09-25T16:32:02Z</time>
      </trkpt>
      <trkpt lat="43.57688" lon="-0.33045">
        <ele>201.576</ele>
        <time>2016-09-25T16:32:22Z</time>
      </trkpt>
      <trkpt lat="43.57732" lon="-0.33272">
        <ele>197.176</ele>
        <time>2016-09-25T16:32:42Z</time>
      </trkpt>
      <trkpt lat="43.57729" lon="-0.33384">
        <ele>192.726</ele>
        <time>2016-09-25T16:33:02Z</time>
      </trkpt>
      <trkpt lat="43.57749" lon="-0.33442">
        <ele>190.151</ele>
        <time>2016-09-25T16:33:22Z</time>
      </trkpt>
      <trkpt lat="43.5785" lon="-0.33622">
        <ele>183.67</ele>
        <time>2016-09-25T16:33:42Z</time>
      </trkpt>
      <trkpt lat="43.57856" lon="-0.33696">
        <ele>179.387</ele>
        <time>2019-03-30T15:10:25Z</time>
      </trkpt>
      <trkpt lat="43.57909" lon="-0.33787">
        <ele>167.621</ele>
        <time>2016-09-25T16:34:22Z</time>
      </trkpt>
      <trkpt lat="43.57995" lon="-0.33824">
        <ele>157.194</ele>
        <time>2019-03-30T15:11:05Z</time>
      </trkpt>
      <trkpt lat="43.58102" lon="-0.33837">
        <ele>144.457</ele>
        <time>2019-03-30T15:11:25Z</time>
      </trkpt>
      <trkpt lat="43.58127" lon="-0.33893">
        <ele>139.322</ele>
        <time>2016-09-25T16:35:02Z</time>
      </trkpt>
      <trkpt lat="43.58156" lon="-0.34013">
        <ele>136.408</ele>
        <time>2016-09-25T16:35:22Z</time>
      </trkpt>
      <trkpt lat="43.58161" lon="-0.34232">
        <ele>144.085</ele>
        <time>2016-09-25T16:35:42Z</time>
      </trkpt>
      <trkpt lat="43.58197" lon="-0.34354">
        <ele>141.692</ele>
        <time>2016-09-25T16:36:02Z</time>
      </trkpt>
      <trkpt lat="43.58212" lon="-0.34569">
        <ele>138.052</ele>
        <time>2019-03-30T15:13:05Z</time>
      </trkpt>
      <trkpt lat="43.58176" lon="-0.34647">
        <ele>133.742</ele>
        <time>2019-03-30T15:13:25Z</time>
      </trkpt>
      <trkpt lat="43.5824" lon="-0.34772">
        <ele>130.097</ele>
        <time>2016-09-25T16:37:02Z</time>
      </trkpt>
      <trkpt lat="43.58204" lon="-0.34938">
        <ele>133.716</ele>
        <time>2019-03-30T15:14:05Z</time>
      </trkpt>
      <trkpt lat="43.5829" lon="-0.34925">
        <ele>140.383</ele>
        <time>2016-09-25T16:37:42Z</time>
      </trkpt>
      <trkpt lat="43.58296" lon="-0.3506">
        <ele>147.367</ele>
        <time>2016-09-25T16:38:02Z</time>
      </trkpt>
      <trkpt lat="43.5838" lon="-0.35038">
        <ele>144.491</ele>
        <time>2016-09-25T16:38:22Z</time>
      </trkpt>
      <trkpt lat="43.5855" lon="-0.35056">
        <ele>134.981</ele>
        <time>2016-09-25T16:38:42Z</time>
      </trkpt>
      <trkpt lat="43.5862" lon="-0.35063">
        <ele>130.619</ele>
        <time>2019-03-30T15:15:45Z</time>
      </trkpt>
      <trkpt lat="43.58696" lon="-0.3506">
        <ele>132.108</ele>
        <time>2016-09-25T16:39:22Z</time>
      </trkpt>
      <trkpt lat="43.58815" lon="-0.35083">
        <ele>131.055</ele>
        <time>2019-03-30T15:16:25Z</time>
      </trkpt>
      <trkpt lat="43.58944" lon="-0.35075">
        <ele>127.722</ele>
        <time>2016-09-25T16:40:02Z</time>
      </trkpt>
      <trkpt lat="43.58687" lon="-0.35901">
        <ele>165.192</ele>
        <time>2019-03-30T15:17:05Z</time>
      </trkpt>
      <trkpt lat="43.58691" lon="-0.36145">
        <ele>173.952</ele>
        <time>2019-03-30T15:17:25Z</time>
      </trkpt>
      <trkpt lat="43.58687" lon="-0.36273">
        <ele>176.577</ele>
        <time>2019-03-30T15:17:45Z</time>
      </trkpt>
      <trkpt lat="43.58711" lon="-0.36478">
        <ele>182.116</ele>
        <time>2016-09-25T16:41:22Z</time>
      </trkpt>
      <trkpt lat="43.58838" lon="-0.36553">
        <ele>184.213</ele>
        <time>2019-03-30T15:18:25Z</time>
      </trkpt>
      <trkpt lat="43.58623" lon="-0.36697">
        <ele>156.947</ele>
        <time>2016-09-25T16:42:02Z</time>
      </trkpt>
      <trkpt lat="43.58492" lon="-0.36832">
        <ele>157.049</ele>
        <time>2016-09-25T16:42:42Z</time>
      </trkpt>
      <trkpt lat="43.58239" lon="-0.37118">
        <ele>141.302</ele>
        <time>2016-09-25T16:43:42Z</time>
      </trkpt>
      <trkpt lat="43.57956" lon="-0.37229">
        <ele>174.322</ele>
        <time>2016-09-25T16:44:02Z</time>
      </trkpt>
      <trkpt lat="43.57884" lon="-0.37328">
        <ele>170.71</ele>
        <time>2016-09-25T16:44:42Z</time>
      </trkpt>
      <trkpt lat="43.57785" lon="-0.37433">
        <ele>154.947</ele>
        <time>2016-09-25T16:45:02Z</time>
      </trkpt>
      <trkpt lat="43.57748" lon="-0.37568">
        <ele>172.237</ele>
        <time>2016-09-25T16:45:22Z</time>
      </trkpt>
      <trkpt lat="43.57625" lon="-0.37583">
        <ele>181.047</ele>
        <time>2016-09-25T16:45:42Z</time>
      </trkpt>
      <trkpt lat="43.57536" lon="-0.37625">
        <ele>190.512</ele>
        <time>2019-03-30T15:21:45Z</time>
      </trkpt>
      <trkpt lat="43.57514" lon="-0.37603">
        <ele>192.961</ele>
        <time>2019-03-30T15:22:05Z</time>
      </trkpt>
      <trkpt lat="43.57476" lon="-0.37549">
        <ele>194.158</ele>
        <time>2019-03-30T15:22:25Z</time>
      </trkpt>
      <trkpt lat="43.57455" lon="-0.37445">
        <ele>188.032</ele>
        <time>2019-03-30T15:22:45Z</time>
      </trkpt>
      <trkpt lat="43.57405" lon="-0.37293">
        <ele>190.356</ele>
        <time>2019-03-30T15:23:05Z</time>
      </trkpt>
      <trkpt lat="43.57357" lon="-0.37245">
        <ele>182.159</ele>
        <time>2019-03-30T15:23:25Z</time>
      </trkpt>
      <trkpt lat="43.5734" lon="-0.37188">
        <ele>182.614</ele>
        <time>2019-03-30T15:23:45Z</time>
      </trkpt>
      <trkpt lat="43.57279" lon="-0.37037">
        <ele>173.508</ele>
        <time>2019-03-30T15:24:05Z</time>
      </trkpt>
      <trkpt lat="43.57287" lon="-0.37155">
        <ele>162.171</ele>
        <time>2019-03-30T15:24:25Z</time>
      </trkpt>
      <trkpt lat="43.57282" lon="-0.37214">
        <ele>152.228</ele>
        <time>2019-03-30T15:24:45Z</time>
      </trkpt>
      <trkpt lat="43.57294" lon="-0.37268">
        <ele>149.888</ele>
        <time>2019-03-30T15:25:05Z</time>
      </trkpt>
      <trkpt lat="43.57286" lon="-0.37326">
        <ele>141.068</ele>
        <time>2019-03-30T15:25:25Z</time>
      </trkpt>
      <trkpt lat="43.57252" lon="-0.37401">
        <ele>124.263</ele>
        <time>2016-09-25T16:48:22Z</time>
      </trkpt>
      <trkpt lat="43.57254" lon="-0.37471">
        <ele>120.222</ele>
        <time>2019-03-30T15:26:05Z</time>
      </trkpt>
      <trkpt lat="43.57187" lon="-0.375">
        <ele>115.079</ele>
        <time>2019-03-30T15:26:25Z</time>
      </trkpt>
      <trkpt lat="43.57139" lon="-0.37504">
        <ele>114.713</ele>
        <time>2019-03-30T15:26:45Z</time>
      </trkpt>
      <trkpt lat="43.57102" lon="-0.37558">
        <ele>113.065</ele>
        <time>2019-03-30T15:27:05Z</time>
      </trkpt>
      <trkpt lat="43.57018" lon="-0.37606">
        <ele>113.068</ele>
        <time>2019-03-30T15:27:25Z</time>
      </trkpt>
      <trkpt lat="43.56928" lon="-0.37641">
        <ele>112.914</ele>
        <time>2019-03-30T15:27:45Z</time>
      </trkpt>
      <trkpt lat="43.5683" lon="-0.37749">
        <ele>110.908</ele>
        <time>2019-03-30T15:28:05Z</time>
      </trkpt>
      <trkpt lat="43.56812" lon="-0.37809">
        <ele>110.082</ele>
        <time>2019-03-30T15:28:25Z</time>
      </trkpt>
      <trkpt lat="43.56625" lon="-0.37965">
        <ele>116.519</ele>
        <time>2016-09-25T16:51:02Z</time>
      </trkpt>
      <trkpt lat="43.56524" lon="-0.37993">
        <ele>119.199</ele>
        <time>2016-09-25T16:51:22Z</time>
      </trkpt>
      <trkpt lat="43.56395" lon="-0.38088">
        <ele>125.789</ele>
        <time>2016-09-25T16:51:42Z</time>
      </trkpt>
      <trkpt lat="43.56247" lon="-0.3818">
        <ele>129.224</ele>
        <time>2016-09-25T16:52:02Z</time>
      </trkpt>
      <trkpt lat="43.56167" lon="-0.38271">
        <ele>134.763</ele>
        <time>2019-03-30T15:30:05Z</time>
      </trkpt>
      <trkpt lat="43.56079" lon="-0.38345">
        <ele>145.03</ele>
        <time>2016-09-25T16:52:42Z</time>
      </trkpt>
      <trkpt lat="43.56014" lon="-0.38386">
        <ele>152.354</ele>
        <time>2016-09-25T16:53:02Z</time>
      </trkpt>
      <trkpt lat="43.55902" lon="-0.38519">
        <ele>171.364</ele>
        <time>2016-09-25T16:53:22Z</time>
      </trkpt>
      <trkpt lat="43.55809" lon="-0.38656">
        <ele>177.906</ele>
        <time>2019-03-30T15:31:25Z</time>
      </trkpt>
      <trkpt lat="43.55831" lon="-0.38685">
        <ele>177.716</ele>
        <time>2019-03-30T15:31:45Z</time>
      </trkpt>
      <trkpt lat="43.55783" lon="-0.38847">
        <ele>179.908</ele>
        <time>2019-03-30T15:32:05Z</time>
      </trkpt>
      <trkpt lat="43.55646" lon="-0.38957">
        <ele>181.022</ele>
        <time>2016-09-25T16:54:42Z</time>
      </trkpt>
      <trkpt lat="43.5561" lon="-0.39152">
        <ele>181.029</ele>
        <time>2016-09-25T16:55:02Z</time>
      </trkpt>
      <trkpt lat="43.55551" lon="-0.3933">
        <ele>180.989</ele>
        <time>2016-09-25T16:55:22Z</time>
      </trkpt>
      <trkpt lat="43.5551" lon="-0.39356">
        <ele>179.289</ele>
        <time>2016-09-25T16:55:42Z</time>
      </trkpt>
      <trkpt lat="43.55429" lon="-0.39551">
        <ele>181.024</ele>
        <time>2016-09-25T16:56:02Z</time>
      </trkpt>
      <trkpt lat="43.55223" lon="-0.39482">
        <ele>184.033</ele>
        <time>2016-09-25T16:56:22Z</time>
      </trkpt>
      <trkpt lat="43.55183" lon="-0.39496">
        <ele>184.41</ele>
        <time>2019-03-30T15:34:25Z</time>
      </trkpt>
      <trkpt lat="43.55108" lon="-0.39607">
        <ele>185.074</ele>
        <time>2019-03-30T15:34:45Z</time>
      </trkpt>
      <trkpt lat="43.5494" lon="-0.39459">
        <ele>185.063</ele>
        <time>2016-09-25T16:57:42Z</time>
      </trkpt>
      <trkpt lat="43.54888" lon="-0.39375">
        <ele>185.044</ele>
        <time>2016-09-25T16:58:02Z</time>
      </trkpt>
      <trkpt lat="43.54555" lon="-0.39834">
        <ele>180.018</ele>
        <time>2016-09-25T16:58:22Z</time>
      </trkpt>
      <trkpt lat="43.54402" lon="-0.4008">
        <ele>185.408</ele>
        <time>2021-01-03T17:23:00Z</time>
      </trkpt>
      <trkpt lat="43.54047" lon="-0.39834">
        <ele>186.322</ele>
        <time>2021-01-03T17:23:20Z</time>
      </trkpt>
      <trkpt lat="43.53917" lon="-0.40211">
        <ele>197.149</ele>
        <time>2021-01-03T17:23:40Z</time>
      </trkpt>
      <trkpt lat="43.53768" lon="-0.40487">
        <ele>221.959</ele>
        <time>2021-01-03T17:24:00Z</time>
      </trkpt>
      <trkpt lat="43.53717" lon="-0.40487">
        <ele>226.179</ele>
        <time>2021-01-03T17:24:20Z</time>
      </trkpt>
      <trkpt lat="43.53649" lon="-0.40566">
        <ele>235.084</ele>
        <time>2021-01-03T17:24:40Z</time>
      </trkpt>
      <trkpt lat="43.53609" lon="-0.40854">
        <ele>235.013</ele>
        <time>2021-01-03T17:25:00Z</time>
      </trkpt>
      <trkpt lat="43.53625" lon="-0.40984">
        <ele>231.36</ele>
        <time>2021-01-03T17:25:20Z</time>
      </trkpt>
      <trkpt lat="43.53544" lon="-0.41175">
        <ele>235.024</ele>
        <time>2021-01-03T17:25:40Z</time>
      </trkpt>
      <trkpt lat="43.53655" lon="-0.41403">
        <ele>234.293</ele>
        <time>2021-01-03T17:26:00Z</time>
      </trkpt>
      <trkpt lat="43.53584" lon="-0.41388">
        <ele>235.065</ele>
        <time>2021-01-03T17:26:20Z</time>
      </trkpt>
      <trkpt lat="43.53506" lon="-0.41403">
        <ele>232.521</ele>
        <time>2021-01-03T17:26:40Z</time>
      </trkpt>
      <trkpt lat="43.53464" lon="-0.41462">
        <ele>230.108</ele>
        <time>2021-01-03T17:27:00Z</time>
      </trkpt>
      <trkpt lat="43.53431" lon="-0.41654">
        <ele>214.565</ele>
        <time>2021-01-03T17:27:20Z</time>
      </trkpt>
      <trkpt lat="43.53569" lon="-0.41755">
        <ele>215.612</ele>
        <time>2021-01-03T17:27:40Z</time>
      </trkpt>
      <trkpt lat="43.53555" lon="-0.41824">
        <ele>210.692</ele>
        <time>2021-01-03T17:28:00Z</time>
      </trkpt>
      <trkpt lat="43.53354" lon="-0.42007">
        <ele>209.182</ele>
        <time>2021-01-03T17:28:20Z</time>
      </trkpt>
      <trkpt lat="43.53239" lon="-0.41847">
        <ele>212.917</ele>
        <time>2021-01-03T17:28:40Z</time>
      </trkpt>
      <trkpt lat="43.53209" lon="-0.41715">
        <ele>210.976</ele>
        <time>2021-01-03T17:29:00Z</time>
      </trkpt>
      <trkpt lat="43.5318" lon="-0.41617">
        <ele>208.333</ele>
        <time>2021-01-03T17:29:20Z</time>
      </trkpt>
      <trkpt lat="43.53135" lon="-0.4166">
        <ele>225.157</ele>
        <time>2019-03-30T15:44:45Z</time>
      </trkpt>
      <trkpt lat="43.53015" lon="-0.41725">
        <ele>235.061</ele>
        <time>2019-03-30T15:45:05Z</time>
      </trkpt>
      <trkpt lat="43.52872" lon="-0.41906">
        <ele>235.021</ele>
        <time>2019-03-30T15:45:25Z</time>
      </trkpt>
      <trkpt lat="43.52732" lon="-0.42009">
        <ele>236.313</ele>
        <time>2019-03-30T15:45:45Z</time>
      </trkpt>
      <trkpt lat="43.52629" lon="-0.42553">
        <ele>227.508</ele>
        <time>2019-03-30T15:46:05Z</time>
      </trkpt>
      <trkpt lat="43.52551" lon="-0.42691">
        <ele>214.732</ele>
        <time>2019-03-30T15:46:25Z</time>
      </trkpt>
      <trkpt lat="43.52488" lon="-0.42785">
        <ele>204.789</ele>
        <time>2019-03-30T15:46:45Z</time>
      </trkpt>
      <trkpt lat="43.52437" lon="-0.42952">
        <ele>200.729</ele>
        <time>2019-03-30T15:47:05Z</time>
      </trkpt>
      <trkpt lat="43.52292" lon="-0.43227">
        <ele>173.839</ele>
        <time>2019-03-30T15:47:25Z</time>
      </trkpt>
      <trkpt lat="43.52282" lon="-0.43292">
        <ele>170.764</ele>
        <time>2019-03-30T15:47:45Z</time>
      </trkpt>
      <trkpt lat="43.52177" lon="-0.43473">
        <ele>163.113</ele>
        <time>2019-03-30T15:48:05Z</time>
      </trkpt>
      <trkpt lat="43.52099" lon="-0.43572">
        <ele>147.94</ele>
        <time>2019-03-30T15:48:25Z</time>
      </trkpt>
      <trkpt lat="43.51967" lon="-0.43708">
        <ele>128.394</ele>
        <time>2019-03-30T15:48:45Z</time>
      </trkpt>
      <trkpt lat="43.51934" lon="-0.43787">
        <ele>118.342</ele>
        <time>2019-03-30T15:49:05Z</time>
      </trkpt>
      <trkpt lat="43.51861" lon="-0.43818">
        <ele>110.222</ele>
        <time>2019-03-30T15:49:25Z</time>
      </trkpt>
      <trkpt lat="43.51814" lon="-0.43809">
        <ele>107.514</ele>
        <time>2019-03-30T15:49:45Z</time>
      </trkpt>
      <trkpt lat="43.51742" lon="-0.43867">
        <ele>105.008</ele>
        <time>2019-03-30T15:50:05Z</time>
      </trkpt>
      <trkpt lat="43.51678" lon="-0.43994">
        <ele>102.01</ele>
        <time>2019-03-30T15:50:25Z</time>
      </trkpt>
      <trkpt lat="43.51661" lon="-0.44059">
        <ele>102.057</ele>
        <time>2019-03-30T15:50:45Z</time>
      </trkpt>
      <trkpt lat="43.51626" lon="-0.44113">
        <ele>102.087</ele>
        <time>2019-03-30T15:51:05Z</time>
      </trkpt>
      <trkpt lat="43.51618" lon="-0.44117">
        <ele>102.017</ele>
        <time>2016-09-25T17:14:22Z</time>
      </trkpt>
      <trkpt lat="43.51467" lon="-0.44081">
        <ele>105.072</ele>
        <time>2016-09-25T17:14:42Z</time>
      </trkpt>
      <trkpt lat="43.51431" lon="-0.441">
        <ele>105.011</ele>
        <time>2016-09-25T17:15:02Z</time>
      </trkpt>
      <trkpt lat="43.51262" lon="-0.44306">
        <ele>108.098</ele>
        <time>2016-09-25T17:15:22Z</time>
      </trkpt>
      <trkpt lat="43.51234" lon="-0.4439">
        <ele>109.052</ele>
        <time>2016-09-25T17:15:42Z</time>
      </trkpt>
      <trkpt lat="43.51167" lon="-0.44368">
        <ele>109.023</ele>
        <time>2016-09-25T17:16:02Z</time>
      </trkpt>
      <trkpt lat="43.5105" lon="-0.44437">
        <ele>114.983</ele>
        <time>2016-09-25T17:16:22Z</time>
      </trkpt>
      <trkpt lat="43.51066" lon="-0.44514">
        <ele>119.111</ele>
        <time>2016-09-25T17:16:42Z</time>
      </trkpt>
      <trkpt lat="43.51018" lon="-0.4457">
        <ele>132.208</ele>
        <time>2016-09-25T17:17:02Z</time>
      </trkpt>
      <trkpt lat="43.51013" lon="-0.44664">
        <ele>143.078</ele>
        <time>2016-09-25T17:17:22Z</time>
      </trkpt>
      <trkpt lat="43.50993" lon="-0.44795">
        <ele>155.815</ele>
        <time>2016-09-25T17:17:42Z</time>
      </trkpt>
      <trkpt lat="43.5098" lon="-0.44963">
        <ele>169.535</ele>
        <time>2016-09-25T17:18:02Z</time>
      </trkpt>
      <trkpt lat="43.50938" lon="-0.45177">
        <ele>172.555</ele>
        <time>2016-09-25T17:18:22Z</time>
      </trkpt>
      <trkpt lat="43.50888" lon="-0.45194">
        <ele>165.99</ele>
        <time>2016-09-25T17:18:42Z</time>
      </trkpt>
      <trkpt lat="43.50793" lon="-0.45164">
        <ele>160.129</ele>
        <time>2016-09-25T17:19:02Z</time>
      </trkpt>
      <trkpt lat="43.50719" lon="-0.45269">
        <ele>159.766</ele>
        <time>2016-09-25T17:19:22Z</time>
      </trkpt>
      <trkpt lat="43.50632" lon="-0.45267">
        <ele>150.33</ele>
        <time>2016-09-25T17:19:42Z</time>
      </trkpt>
      <trkpt lat="43.50588" lon="-0.45147">
        <ele>145.944</ele>
        <time>2016-09-25T17:20:02Z</time>
      </trkpt>
      <trkpt lat="43.50502" lon="-0.44999">
        <ele>157.505</ele>
        <time>2016-09-25T17:20:22Z</time>
      </trkpt>
      <trkpt lat="43.50379" lon="-0.45059">
        <ele>173.315</ele>
        <time>2016-09-25T17:20:42Z</time>
      </trkpt>
      <trkpt lat="43.50295" lon="-0.45057">
        <ele>177.408</ele>
        <time>2016-09-25T17:21:02Z</time>
      </trkpt>
      <trkpt lat="43.50221" lon="-0.45061">
        <ele>188.93</ele>
        <time>2016-09-25T17:21:22Z</time>
      </trkpt>
      <trkpt lat="43.50163" lon="-0.45038">
        <ele>198.577</ele>
        <time>2016-09-25T17:21:42Z</time>
      </trkpt>
      <trkpt lat="43.50092" lon="-0.44922">
        <ele>198.927</ele>
        <time>2016-09-25T17:22:02Z</time>
      </trkpt>
      <trkpt lat="43.49972" lon="-0.44885">
        <ele>203.557</ele>
        <time>2016-09-25T17:22:22Z</time>
      </trkpt>
      <trkpt lat="43.49891" lon="-0.44763">
        <ele>199.192</ele>
        <time>2016-09-25T17:22:42Z</time>
      </trkpt>
      <trkpt lat="43.49852" lon="-0.44772">
        <ele>201.341</ele>
        <time>2016-09-25T17:23:02Z</time>
      </trkpt>
      <trkpt lat="43.4981" lon="-0.44799">
        <ele>205.858</ele>
        <time>2016-09-25T17:23:22Z</time>
      </trkpt>
      <trkpt lat="43.49751" lon="-0.44767">
        <ele>212.992</ele>
        <time>2016-09-25T17:23:42Z</time>
      </trkpt>
      <trkpt lat="43.49729" lon="-0.44701">
        <ele>220.387</ele>
        <time>2016-09-25T17:24:02Z</time>
      </trkpt>
      <trkpt lat="43.49721" lon="-0.44619">
        <ele>224.042</ele>
        <time>2016-09-25T17:24:22Z</time>
      </trkpt>
      <trkpt lat="43.49673" lon="-0.44572">
        <ele>226.026</ele>
        <time>2016-09-25T17:24:42Z</time>
      </trkpt>
      <trkpt lat="43.49514" lon="-0.44392">
        <ele>226.808</ele>
        <time>2016-09-25T17:25:02Z</time>
      </trkpt>
      <trkpt lat="43.49425" lon="-0.44353">
        <ele>215.854</ele>
        <time>2016-09-25T17:25:22Z</time>
      </trkpt>
      <trkpt lat="43.4938" lon="-0.44284">
        <ele>209.791</ele>
        <time>2016-09-25T17:25:42Z</time>
      </trkpt>
      <trkpt lat="43.49293" lon="-0.44257">
        <ele>203.961</ele>
        <time>2016-09-25T17:26:02Z</time>
      </trkpt>
      <trkpt lat="43.49232" lon="-0.44261">
        <ele>207.761</ele>
        <time>2016-09-25T17:26:22Z</time>
      </trkpt>
      <trkpt lat="43.49007" lon="-0.43971">
        <ele>225.016</ele>
        <time>2016-09-25T17:26:42Z</time>
      </trkpt>
      <trkpt lat="43.48927" lon="-0.4381">
        <ele>231.035</ele>
        <time>2016-09-25T17:27:02Z</time>
      </trkpt>
      <trkpt lat="43.48926" lon="-0.43752">
        <ele>232.452</ele>
        <time>2016-09-25T17:27:22Z</time>
      </trkpt>
      <trkpt lat="43.48901" lon="-0.43619">
        <ele>234.656</ele>
        <time>2016-09-25T17:27:42Z</time>
      </trkpt>
      <trkpt lat="43.4884" lon="-0.43686">
        <ele>230.713</ele>
        <time>2016-09-25T17:28:02Z</time>
      </trkpt>
      <trkpt lat="43.48814" lon="-0.43789">
        <ele>218.343</ele>
        <time>2016-09-25T17:28:22Z</time>
      </trkpt>
      <trkpt lat="43.4881" lon="-0.43986">
        <ele>201.707</ele>
        <time>2016-09-25T17:28:42Z</time>
      </trkpt>
      <trkpt lat="43.48809" lon="-0.44095">
        <ele>184.808</ele>
        <time>2019-03-30T16:06:05Z</time>
      </trkpt>
      <trkpt lat="43.48776" lon="-0.44151">
        <ele>188.477</ele>
        <time>2016-09-25T17:29:22Z</time>
      </trkpt>
      <trkpt lat="43.48806" lon="-0.44246">
        <ele>189.194</ele>
        <time>2016-09-25T17:29:42Z</time>
      </trkpt>
      <trkpt lat="43.48759" lon="-0.44212">
        <ele>200.584</ele>
        <time>2016-09-25T17:30:02Z</time>
      </trkpt>
      <trkpt lat="43.48725" lon="-0.44254">
        <ele>207.254</ele>
        <time>2016-09-25T17:30:22Z</time>
      </trkpt>
      <trkpt lat="43.48658" lon="-0.44276">
        <ele>223.019</ele>
        <time>2016-09-25T17:30:42Z</time>
      </trkpt>
      <trkpt lat="43.48653" lon="-0.44342">
        <ele>233.488</ele>
        <time>2016-09-25T17:31:02Z</time>
      </trkpt>
      <trkpt lat="43.4861" lon="-0.4446">
        <ele>240.075</ele>
        <time>2016-09-25T17:31:22Z</time>
      </trkpt>
      <trkpt lat="43.48608" lon="-0.44561">
        <ele>240.089</ele>
        <time>2016-09-25T17:31:42Z</time>
      </trkpt>
      <trkpt lat="43.48566" lon="-0.44677">
        <ele>240.636</ele>
        <time>2016-09-25T17:32:02Z</time>
      </trkpt>
      <trkpt lat="43.48533" lon="-0.44799">
        <ele>245.017</ele>
        <time>2016-09-25T17:32:22Z</time>
      </trkpt>
      <trkpt lat="43.4851" lon="-0.44862">
        <ele>245.018</ele>
        <time>2016-09-25T17:32:42Z</time>
      </trkpt>
      <trkpt lat="43.48466" lon="-0.44821">
        <ele>245.008</ele>
        <time>2016-09-25T17:33:02Z</time>
      </trkpt>
      <trkpt lat="43.48384" lon="-0.4481">
        <ele>245.039</ele>
        <time>2016-09-25T17:33:22Z</time>
      </trkpt>
      <trkpt lat="43.48359" lon="-0.44909">
        <ele>241.866</ele>
        <time>2016-09-25T17:33:42Z</time>
      </trkpt>
      <trkpt lat="43.48378" lon="-0.45278">
        <ele>220.846</ele>
        <time>2016-09-25T17:34:02Z</time>
      </trkpt>
      <trkpt lat="43.48345" lon="-0.45538">
        <ele>212.066</ele>
        <time>2016-09-25T17:34:22Z</time>
      </trkpt>
      <trkpt lat="43.48346" lon="-0.45619">
        <ele>209.241</ele>
        <time>2016-09-25T17:34:42Z</time>
      </trkpt>
      <trkpt lat="43.48314" lon="-0.45802">
        <ele>206.25</ele>
        <time>2016-09-25T17:35:02Z</time>
      </trkpt>
      <trkpt lat="43.48297" lon="-0.45971">
        <ele>206.417</ele>
        <time>2016-09-25T17:35:22Z</time>
      </trkpt>
      <trkpt lat="43.48262" lon="-0.46014">
        <ele>207.491</ele>
        <time>2016-09-25T17:35:42Z</time>
      </trkpt>
      <trkpt lat="43.48216" lon="-0.46156">
        <ele>202.984</ele>
        <time>2016-09-25T17:36:02Z</time>
      </trkpt>
      <trkpt lat="43.48231" lon="-0.46226">
        <ele>201.907</ele>
        <time>2016-09-25T17:36:22Z</time>
      </trkpt>
      <trkpt lat="43.48223" lon="-0.46317">
        <ele>204.917</ele>
        <time>2016-09-25T17:36:42Z</time>
      </trkpt>
      <trkpt lat="43.48231" lon="-0.46394">
        <ele>205.008</ele>
        <time>2016-09-25T17:37:02Z</time>
      </trkpt>
      <trkpt lat="43.48214" lon="-0.46542">
        <ele>193.364</ele>
        <time>2016-09-25T17:37:22Z</time>
      </trkpt>
      <trkpt lat="43.48113" lon="-0.46632">
        <ele>180.871</ele>
        <time>2016-09-25T17:37:42Z</time>
      </trkpt>
      <trkpt lat="43.48052" lon="-0.46733">
        <ele>174.041</ele>
        <time>2016-09-25T17:38:02Z</time>
      </trkpt>
      <trkpt lat="43.48074" lon="-0.46889">
        <ele>161.341</ele>
        <time>2016-09-25T17:38:22Z</time>
      </trkpt>
      <trkpt lat="43.48063" lon="-0.47061">
        <ele>141.756</ele>
        <time>2016-09-25T17:38:42Z</time>
      </trkpt>
      <trkpt lat="43.47928" lon="-0.47355">
        <ele>126.015</ele>
        <time>2016-09-25T17:39:02Z</time>
      </trkpt>
      <trkpt lat="43.47906" lon="-0.47434">
        <ele>124.022</ele>
        <time>2016-09-25T17:39:22Z</time>
      </trkpt>
      <trkpt lat="43.47795" lon="-0.47544">
        <ele>121.396</ele>
        <time>2016-09-25T17:39:42Z</time>
      </trkpt>
      <trkpt lat="43.47523" lon="-0.47683">
        <ele>115.012</ele>
        <time>2016-09-25T17:40:02Z</time>
      </trkpt>
      <trkpt lat="43.47478" lon="-0.47851">
        <ele>113.032</ele>
        <time>2016-09-25T17:40:22Z</time>
      </trkpt>
      <trkpt lat="43.47412" lon="-0.47999">
        <ele>111.005</ele>
        <time>2016-09-25T17:40:42Z</time>
      </trkpt>
      <trkpt lat="43.47331" lon="-0.47973">
        <ele>110.908</ele>
        <time>2016-09-25T17:41:02Z</time>
      </trkpt>
      <trkpt lat="43.47208" lon="-0.47988">
        <ele>110.077</ele>
        <time>2016-09-25T17:41:22Z</time>
      </trkpt>
      <trkpt lat="43.47107" lon="-0.47947">
        <ele>110.334</ele>
        <time>2016-09-25T17:41:42Z</time>
      </trkpt>
      <trkpt lat="43.47087" lon="-0.47969">
        <ele>111.034</ele>
        <time>2016-09-25T17:42:02Z</time>
      </trkpt>
      <trkpt lat="43.47084" lon="-0.48014">
        <ele>113.094</ele>
        <time>2016-09-25T17:42:22Z</time>
      </trkpt>
      <trkpt lat="43.47" lon="-0.48025">
        <ele>122.729</ele>
        <time>2016-09-25T17:42:42Z</time>
      </trkpt>
      <trkpt lat="43.46973" lon="-0.4801">
        <ele>123.678</ele>
        <time>2016-09-25T17:43:02Z</time>
      </trkpt>
      <trkpt lat="43.46911" lon="-0.48016">
        <ele>132.295</ele>
        <time>2016-09-25T17:43:22Z</time>
      </trkpt>
      <trkpt lat="43.46889" lon="-0.48044">
        <ele>138.149</ele>
        <time>2016-09-25T17:43:42Z</time>
      </trkpt>
      <trkpt lat="43.46803" lon="-0.48078">
        <ele>140.078</ele>
        <time>2016-09-25T17:44:02Z</time>
      </trkpt>
      <trkpt lat="43.46719" lon="-0.48145">
        <ele>140.033</ele>
        <time>2016-09-25T17:44:22Z</time>
      </trkpt>
      <trkpt lat="43.46905" lon="-0.48477">
        <ele>140.026</ele>
        <time>2016-09-25T17:44:42Z</time>
      </trkpt>
      <trkpt lat="43.46912" lon="-0.48537">
        <ele>140.008</ele>
        <time>2016-09-25T17:45:02Z</time>
      </trkpt>
      <trkpt lat="43.46962" lon="-0.48604">
        <ele>140.063</ele>
        <time>2016-09-25T17:45:22Z</time>
      </trkpt>
      <trkpt lat="43.47043" lon="-0.4858">
        <ele>140.05</ele>
        <time>2016-09-25T17:45:42Z</time>
      </trkpt>
      <trkpt lat="43.47124" lon="-0.48664">
        <ele>140.09</ele>
        <time>2016-09-25T17:46:02Z</time>
      </trkpt>
      <trkpt lat="43.47202" lon="-0.48726">
        <ele>140.05</ele>
        <time>2016-09-25T17:46:22Z</time>
      </trkpt>
      <trkpt lat="43.47353" lon="-0.48962">
        <ele>137.155</ele>
        <time>2016-09-25T17:46:42Z</time>
      </trkpt>
      <trkpt lat="43.47464" lon="-0.49082">
        <ele>135.064</ele>
        <time>2016-09-25T17:47:02Z</time>
      </trkpt>
      <trkpt lat="43.4752" lon="-0.49134">
        <ele>134.861</ele>
        <time>2016-09-25T17:47:22Z</time>
      </trkpt>
      <trkpt lat="43.47663" lon="-0.49359">
        <ele>122.725</ele>
        <time>2016-09-25T17:47:42Z</time>
      </trkpt>
      <trkpt lat="43.47677" lon="-0.49469">
        <ele>116.492</ele>
        <time>2016-09-25T17:48:02Z</time>
      </trkpt>
      <trkpt lat="43.47753" lon="-0.49582">
        <ele>109.073</ele>
        <time>2016-09-25T17:48:22Z</time>
      </trkpt>
      <trkpt lat="43.4783" lon="-0.49748">
        <ele>109.02</ele>
        <time>2016-09-25T17:48:42Z</time>
      </trkpt>
      <trkpt lat="43.47836" lon="-0.49818">
        <ele>109.008</ele>
        <time>2016-09-25T17:49:02Z</time>
      </trkpt>
      <trkpt lat="43.4783" lon="-0.49879">
        <ele>110.155</ele>
        <time>2016-09-25T17:49:22Z</time>
      </trkpt>
      <trkpt lat="43.47872" lon="-0.49924">
        <ele>109.792</ele>
        <time>2016-09-25T17:49:42Z</time>
      </trkpt>
      <trkpt lat="43.47898" lon="-0.49994">
        <ele>111.812</ele>
        <time>2016-09-25T17:50:02Z</time>
      </trkpt>
      <trkpt lat="43.47887" lon="-0.50093">
        <ele>115.842</ele>
        <time>2016-09-25T17:50:22Z</time>
      </trkpt>
      <trkpt lat="43.47865" lon="-0.50168">
        <ele>122.927</ele>
        <time>2016-09-25T17:50:42Z</time>
      </trkpt>
      <trkpt lat="43.47912" lon="-0.50245">
        <ele>127.756</ele>
        <time>2016-09-25T17:51:02Z</time>
      </trkpt>
      <trkpt lat="43.47928" lon="-0.5031">
        <ele>131.873</ele>
        <time>2016-09-25T17:51:22Z</time>
      </trkpt>
      <trkpt lat="43.48024" lon="-0.50342">
        <ele>131.457</ele>
        <time>2016-09-25T17:51:42Z</time>
      </trkpt>
      <trkpt lat="43.48021" lon="-0.50396">
        <ele>133.024</ele>
        <time>2016-09-25T17:52:02Z</time>
      </trkpt>
      <trkpt lat="43.47976" lon="-0.50496">
        <ele>132.904</ele>
        <time>2016-09-25T17:52:22Z</time>
      </trkpt>
      <trkpt lat="43.47988" lon="-0.50638">
        <ele>134.614</ele>
        <time>2016-09-25T17:52:42Z</time>
      </trkpt>
      <trkpt lat="43.47886" lon="-0.50756">
        <ele>135.008</ele>
        <time>2016-09-25T17:53:02Z</time>
      </trkpt>
      <trkpt lat="43.48018" lon="-0.51106">
        <ele>134.018</ele>
        <time>2016-09-25T17:53:22Z</time>
      </trkpt>
      <trkpt lat="43.4802" lon="-0.51157">
        <ele>134.325</ele>
        <time>2016-09-25T17:53:42Z</time>
      </trkpt>
      <trkpt lat="43.4804" lon="-0.51213">
        <ele>133.635</ele>
        <time>2016-09-25T17:54:02Z</time>
      </trkpt>
      <trkpt lat="43.4827" lon="-0.51438">
        <ele>130.075</ele>
        <time>2016-09-25T17:54:22Z</time>
      </trkpt>
      <trkpt lat="43.48368" lon="-0.5152">
        <ele>130.04</ele>
        <time>2016-09-25T17:54:42Z</time>
      </trkpt>
      <trkpt lat="43.48191" lon="-0.51778">
        <ele>117.079</ele>
        <time>2016-09-25T17:55:02Z</time>
      </trkpt>
      <trkpt lat="43.48111" lon="-0.51962">
        <ele>115.686</ele>
        <time>2016-09-25T17:55:22Z</time>
      </trkpt>
      <trkpt lat="43.4806" lon="-0.51986">
        <ele>118.43</ele>
        <time>2016-09-25T17:55:42Z</time>
      </trkpt>
      <trkpt lat="43.4801" lon="-0.51975">
        <ele>118.287</ele>
        <time>2016-09-25T17:56:02Z</time>
      </trkpt>
      <trkpt lat="43.47984" lon="-0.52007">
        <ele>124.842</ele>
        <time>2016-09-25T17:56:22Z</time>
      </trkpt>
      <trkpt lat="43.47987" lon="-0.52093">
        <ele>130.226</ele>
        <time>2016-09-25T17:56:42Z</time>
      </trkpt>
      <trkpt lat="43.47982" lon="-0.52181">
        <ele>131.808</ele>
        <time>2016-09-25T17:57:02Z</time>
      </trkpt>
      <trkpt lat="43.48202" lon="-0.52112">
        <ele>130.014</ele>
        <time>2016-09-25T17:57:22Z</time>
      </trkpt>
      <trkpt lat="43.48259" lon="-0.52134">
        <ele>130.891</ele>
        <time>2016-09-25T17:57:42Z</time>
      </trkpt>
      <trkpt lat="43.48294" lon="-0.5225">
        <ele>131.021</ele>
        <time>2016-09-25T17:58:22Z</time>
      </trkpt>
      <trkpt lat="43.48304" lon="-0.52316">
        <ele>132.066</ele>
        <time>2016-09-25T17:58:42Z</time>
      </trkpt>
      <trkpt lat="43.48345" lon="-0.52393">
        <ele>132.065</ele>
        <time>2016-09-25T17:59:02Z</time>
      </trkpt>
      <trkpt lat="43.48606" lon="-0.52728">
        <ele>130.882</ele>
        <time>2016-09-25T17:59:22Z</time>
      </trkpt>
      <trkpt lat="43.48647" lon="-0.52829">
        <ele>130.056</ele>
        <time>2016-09-25T17:59:42Z</time>
      </trkpt>
      <trkpt lat="43.48748" lon="-0.5299">
        <ele>130.093</ele>
        <time>2016-09-25T18:00:02Z</time>
      </trkpt>
      <trkpt lat="43.48782" lon="-0.53099">
        <ele>130.065</ele>
        <time>2016-09-25T18:00:22Z</time>
      </trkpt>
      <trkpt lat="43.48829" lon="-0.53479">
        <ele>129.421</ele>
        <time>2016-09-25T18:00:42Z</time>
      </trkpt>
      <trkpt lat="43.48814" lon="-0.53511">
        <ele>130.008</ele>
        <time>2016-09-25T18:01:02Z</time>
      </trkpt>
      <trkpt lat="43.4887" lon="-0.53767">
        <ele>130.065</ele>
        <time>2016-09-25T18:01:22Z</time>
      </trkpt>
      <trkpt lat="43.48776" lon="-0.53831">
        <ele>130.012</ele>
        <time>2019-03-30T16:38:45Z</time>
      </trkpt>
      <trkpt lat="43.48883" lon="-0.54046">
        <ele>130.052</ele>
        <time>2019-03-30T16:39:05Z</time>
      </trkpt>
      <trkpt lat="43.4894" lon="-0.54198">
        <ele>129.842</ele>
        <time>2016-09-25T18:02:22Z</time>
      </trkpt>
      <trkpt lat="43.48814" lon="-0.54449">
        <ele>125.037</ele>
        <time>2016-09-25T18:02:42Z</time>
      </trkpt>
      <trkpt lat="43.48709" lon="-0.54397">
        <ele>128.066</ele>
        <time>2016-09-25T18:03:02Z</time>
      </trkpt>
      <trkpt lat="43.48613" lon="-0.54496">
        <ele>130.093</ele>
        <time>2016-09-25T18:03:22Z</time>
      </trkpt>
      <trkpt lat="43.48375" lon="-0.54527">
        <ele>133.557</ele>
        <time>2019-03-30T16:40:45Z</time>
      </trkpt>
      <trkpt lat="43.48085" lon="-0.54985">
        <ele>134.422</ele>
        <time>2016-09-25T18:04:02Z</time>
      </trkpt>
      <trkpt lat="43.47897" lon="-0.55144">
        <ele>133.862</ele>
        <time>2016-09-25T18:04:22Z</time>
      </trkpt>
      <trkpt lat="43.47826" lon="-0.55221">
        <ele>133.008</ele>
        <time>2016-09-25T18:04:42Z</time>
      </trkpt>
      <trkpt lat="43.47789" lon="-0.55247">
        <ele>133.008</ele>
        <time>2016-09-25T18:05:02Z</time>
      </trkpt>
      <trkpt lat="43.47699" lon="-0.555">
        <ele>133.018</ele>
        <time>2016-09-25T18:05:22Z</time>
      </trkpt>
      <trkpt lat="43.47582" lon="-0.5596">
        <ele>132.015</ele>
        <time>2016-09-25T18:05:42Z</time>
      </trkpt>
      <trkpt lat="43.47541" lon="-0.56114">
        <ele>131.085</ele>
        <time>2016-09-25T18:06:02Z</time>
      </trkpt>
      <trkpt lat="43.47515" lon="-0.5629">
        <ele>130.085</ele>
        <time>2016-09-25T18:06:22Z</time>
      </trkpt>
      <trkpt lat="43.47521" lon="-0.56365">
        <ele>130.09</ele>
        <time>2016-09-25T18:06:42Z</time>
      </trkpt>
      <trkpt lat="43.47545" lon="-0.5641">
        <ele>130.039</ele>
        <time>2016-09-25T18:07:02Z</time>
      </trkpt>
      <trkpt lat="43.47489" lon="-0.56557">
        <ele>130.066</ele>
        <time>2019-03-30T16:44:25Z</time>
      </trkpt>
      <trkpt lat="43.47452" lon="-0.56585">
        <ele>130.07</ele>
        <time>2019-03-30T16:44:45Z</time>
      </trkpt>
      <trkpt lat="43.47378" lon="-0.56541">
        <ele>130.065</ele>
        <time>2019-03-30T16:45:05Z</time>
      </trkpt>
      <trkpt lat="43.47271" lon="-0.56529">
        <ele>130.068</ele>
        <time>2019-03-30T16:45:25Z</time>
      </trkpt>
      <trkpt lat="43.47214" lon="-0.56582">
        <ele>131.014</ele>
        <time>2016-09-25T18:08:42Z</time>
      </trkpt>
      <trkpt lat="43.4716" lon="-0.56526">
        <ele>131.008</ele>
        <time>2016-09-25T18:09:02Z</time>
      </trkpt>
      <trkpt lat="43.46987" lon="-0.56766">
        <ele>135.372</ele>
        <time>2016-09-25T18:09:22Z</time>
      </trkpt>
      <trkpt lat="43.46933" lon="-0.56867">
        <ele>138.659</ele>
        <time>2016-09-25T18:09:42Z</time>
      </trkpt>
      <trkpt lat="43.46777" lon="-0.57056">
        <ele>153.129</ele>
        <time>2016-09-25T18:10:02Z</time>
      </trkpt>
      <trkpt lat="43.46697" lon="-0.57105">
        <ele>162.139</ele>
        <time>2016-09-25T18:10:22Z</time>
      </trkpt>
      <trkpt lat="43.4666" lon="-0.57174">
        <ele>171.244</ele>
        <time>2016-09-25T18:10:42Z</time>
      </trkpt>
      <trkpt lat="43.46662" lon="-0.57219">
        <ele>178.233</ele>
        <time>2016-09-25T18:11:02Z</time>
      </trkpt>
      <trkpt lat="43.46694" lon="-0.57286">
        <ele>188.13</ele>
        <time>2016-09-25T18:11:22Z</time>
      </trkpt>
      <trkpt lat="43.46696" lon="-0.57434">
        <ele>198.474</ele>
        <time>2016-09-25T18:11:42Z</time>
      </trkpt>
      <trkpt lat="43.46641" lon="-0.57466">
        <ele>199.883</ele>
        <time>2016-09-25T18:12:02Z</time>
      </trkpt>
      <trkpt lat="43.46624" lon="-0.5755">
        <ele>201.025</ele>
        <time>2016-09-25T18:12:22Z</time>
      </trkpt>
      <trkpt lat="43.46532" lon="-0.57612">
        <ele>200.017</ele>
        <time>2016-09-25T18:12:42Z</time>
      </trkpt>
      <trkpt lat="43.46478" lon="-0.57683">
        <ele>199.908</ele>
        <time>2016-09-25T18:13:02Z</time>
      </trkpt>
      <trkpt lat="43.46478" lon="-0.57756">
        <ele>198.894</ele>
        <time>2016-09-25T18:13:22Z</time>
      </trkpt>
      <trkpt lat="43.46441" lon="-0.57932">
        <ele>194.521</ele>
        <time>2016-09-25T18:13:42Z</time>
      </trkpt>
      <trkpt lat="43.46444" lon="-0.5802">
        <ele>189.761</ele>
        <time>2016-09-25T18:14:02Z</time>
      </trkpt>
      <trkpt lat="43.4642" lon="-0.5815">
        <ele>176.651</ele>
        <time>2016-09-25T18:14:22Z</time>
      </trkpt>
      <trkpt lat="43.46402" lon="-0.58322">
        <ele>157.826</ele>
        <time>2016-09-25T18:14:42Z</time>
      </trkpt>
      <trkpt lat="43.46282" lon="-0.58421">
        <ele>139.075</ele>
        <time>2016-09-25T18:15:02Z</time>
      </trkpt>
      <trkpt lat="43.46236" lon="-0.58543">
        <ele>135.452</ele>
        <time>2016-09-25T18:15:22Z</time>
      </trkpt>
      <trkpt lat="43.46249" lon="-0.58938">
        <ele>134.086</ele>
        <time>2016-09-25T18:15:42Z</time>
      </trkpt>
      <trkpt lat="43.46157" lon="-0.59112">
        <ele>136.477</ele>
        <time>2016-09-25T18:16:02Z</time>
      </trkpt>
      <trkpt lat="43.4616" lon="-0.59337">
        <ele>142.161</ele>
        <time>2016-09-25T18:16:22Z</time>
      </trkpt>
      <trkpt lat="43.46129" lon="-0.59616">
        <ele>155.327</ele>
        <time>2016-09-25T18:16:42Z</time>
      </trkpt>
      <trkpt lat="43.46062" lon="-0.59633">
        <ele>153.108</ele>
        <time>2016-09-25T18:17:02Z</time>
      </trkpt>
      <trkpt lat="43.46031" lon="-0.59794">
        <ele>160.523</ele>
        <time>2016-09-25T18:17:22Z</time>
      </trkpt>
      <trkpt lat="43.45933" lon="-0.59676">
        <ele>167.47</ele>
        <time>2016-09-25T18:17:42Z</time>
      </trkpt>
      <trkpt lat="43.45866" lon="-0.59661">
        <ele>170.98</ele>
        <time>2016-09-25T18:18:02Z</time>
      </trkpt>
      <trkpt lat="43.45807" lon="-0.59663">
        <ele>172.76</ele>
        <time>2016-09-25T18:18:22Z</time>
      </trkpt>
      <trkpt lat="43.45765" lon="-0.59693">
        <ele>172.965</ele>
        <time>2016-09-25T18:18:42Z</time>
      </trkpt>
      <trkpt lat="43.45724" lon="-0.59698">
        <ele>172.224</ele>
        <time>2016-09-25T18:19:02Z</time>
      </trkpt>
      <trkpt lat="43.45587" lon="-0.59775">
        <ele>170.511</ele>
        <time>2016-09-25T18:19:22Z</time>
      </trkpt>
      <trkpt lat="43.45514" lon="-0.59749">
        <ele>167.435</ele>
        <time>2016-09-25T18:19:42Z</time>
      </trkpt>
      <trkpt lat="43.45466" lon="-0.59769">
        <ele>174.297</ele>
        <time>2019-03-30T16:57:05Z</time>
      </trkpt>
      <trkpt lat="43.45548" lon="-0.59901">
        <ele>182.023</ele>
        <time>2016-09-25T18:20:22Z</time>
      </trkpt>
      <trkpt lat="43.45635" lon="-0.59976">
        <ele>187.625</ele>
        <time>2016-09-25T18:20:42Z</time>
      </trkpt>
      <trkpt lat="43.45708" lon="-0.59923">
        <ele>192.608</ele>
        <time>2016-09-25T18:21:02Z</time>
      </trkpt>
      <trkpt lat="43.45819" lon="-0.59934">
        <ele>198.015</ele>
        <time>2016-09-25T18:21:22Z</time>
      </trkpt>
      <trkpt lat="43.45833" lon="-0.60049">
        <ele>204.662</ele>
        <time>2016-09-25T18:21:42Z</time>
      </trkpt>
      <trkpt lat="43.45872" lon="-0.60112">
        <ele>205.042</ele>
        <time>2016-09-25T18:22:02Z</time>
      </trkpt>
      <trkpt lat="43.45937" lon="-0.60127">
        <ele>204.632</ele>
        <time>2019-03-30T16:59:25Z</time>
      </trkpt>
      <trkpt lat="43.46032" lon="-0.60135">
        <ele>203.867</ele>
        <time>2019-03-30T16:59:45Z</time>
      </trkpt>
      <trkpt lat="43.46146" lon="-0.60127">
        <ele>204.716</ele>
        <time>2016-09-25T18:22:42Z</time>
      </trkpt>
      <trkpt lat="43.46254" lon="-0.60191">
        <ele>208.163</ele>
        <time>2016-09-25T18:23:02Z</time>
      </trkpt>
      <trkpt lat="43.46335" lon="-0.60277">
        <ele>209.977</ele>
        <time>2016-09-25T18:23:22Z</time>
      </trkpt>
      <trkpt lat="43.46422" lon="-0.60434">
        <ele>210.074</ele>
        <time>2016-09-25T18:23:42Z</time>
      </trkpt>
      <trkpt lat="43.46483" lon="-0.60618">
        <ele>210.056</ele>
        <time>2016-09-25T18:24:02Z</time>
      </trkpt>
      <trkpt lat="43.4649" lon="-0.60728">
        <ele>210.321</ele>
        <time>2016-09-25T18:24:22Z</time>
      </trkpt>
      <trkpt lat="43.46486" lon="-0.60826">
        <ele>208.308</ele>
        <time>2016-09-25T18:24:42Z</time>
      </trkpt>
      <trkpt lat="43.46433" lon="-0.60968">
        <ele>210.053</ele>
        <time>2016-09-25T18:25:02Z</time>
      </trkpt>
      <trkpt lat="43.46417" lon="-0.61137">
        <ele>210.02</ele>
        <time>2016-09-25T18:25:22Z</time>
      </trkpt>
      <trkpt lat="43.4645" lon="-0.61414">
        <ele>209.21</ele>
        <time>2016-09-25T18:25:42Z</time>
      </trkpt>
      <trkpt lat="43.46501" lon="-0.61509">
        <ele>205.24</ele>
        <time>2016-09-25T18:26:02Z</time>
      </trkpt>
      <trkpt lat="43.46472" lon="-0.61588">
        <ele>202.935</ele>
        <time>2016-09-25T18:26:22Z</time>
      </trkpt>
      <trkpt lat="43.4647" lon="-0.61715">
        <ele>199.244</ele>
        <time>2016-09-25T18:26:42Z</time>
      </trkpt>
      <trkpt lat="43.46487" lon="-0.6191">
        <ele>200.951</ele>
        <time>2016-09-25T18:27:02Z</time>
      </trkpt>
      <trkpt lat="43.46472" lon="-0.6224">
        <ele>215.085</ele>
        <time>2016-09-25T18:27:22Z</time>
      </trkpt>
      <trkpt lat="43.46526" lon="-0.62545">
        <ele>221.563</ele>
        <time>2016-09-25T18:27:42Z</time>
      </trkpt>
      <trkpt lat="43.465" lon="-0.62796">
        <ele>224.344</ele>
        <time>2016-09-25T18:28:02Z</time>
      </trkpt>
      <trkpt lat="43.46523" lon="-0.62944">
        <ele>222.818</ele>
        <time>2016-09-25T18:28:22Z</time>
      </trkpt>
      <trkpt lat="43.46613" lon="-0.63111">
        <ele>227.108</ele>
        <time>2016-09-25T18:28:42Z</time>
      </trkpt>
      <trkpt lat="43.46693" lon="-0.63199">
        <ele>229.522</ele>
        <time>2016-09-25T18:29:02Z</time>
      </trkpt>
      <trkpt lat="43.46736" lon="-0.63225">
        <ele>228.759</ele>
        <time>2016-09-25T18:29:22Z</time>
      </trkpt>
      <trkpt lat="43.46964" lon="-0.63511">
        <ele>219.989</ele>
        <time>2016-09-25T18:29:42Z</time>
      </trkpt>
      <trkpt lat="43.47045" lon="-0.63674">
        <ele>219.949</ele>
        <time>2016-09-25T18:30:02Z</time>
      </trkpt>
      <trkpt lat="43.47112" lon="-0.63927">
        <ele>219.954</ele>
        <time>2016-09-25T18:30:22Z</time>
      </trkpt>
      <trkpt lat="43.47233" lon="-0.64139">
        <ele>214.293</ele>
        <time>2016-09-25T18:30:42Z</time>
      </trkpt>
      <trkpt lat="43.47257" lon="-0.64253">
        <ele>214.13</ele>
        <time>2016-09-25T18:31:02Z</time>
      </trkpt>
      <trkpt lat="43.47222" lon="-0.64463">
        <ele>216.754</ele>
        <time>2016-09-25T18:31:22Z</time>
      </trkpt>
      <trkpt lat="43.47235" lon="-0.64549">
        <ele>216.686</ele>
        <time>2016-09-25T18:31:42Z</time>
      </trkpt>
      <trkpt lat="43.47302" lon="-0.64637">
        <ele>215.06</ele>
        <time>2016-09-25T18:32:02Z</time>
      </trkpt>
      <trkpt lat="43.47325" lon="-0.64706">
        <ele>213.026</ele>
        <time>2016-09-25T18:32:22Z</time>
      </trkpt>
      <trkpt lat="43.47411" lon="-0.64884">
        <ele>203.108</ele>
        <time>2016-09-25T18:32:42Z</time>
      </trkpt>
      <trkpt lat="43.47453" lon="-0.65122">
        <ele>204.914</ele>
        <time>2016-09-25T18:33:02Z</time>
      </trkpt>
      <trkpt lat="43.47602" lon="-0.65251">
        <ele>196.941</ele>
        <time>2016-09-25T18:33:22Z</time>
      </trkpt>
      <trkpt lat="43.47657" lon="-0.65334">
        <ele>194.691</ele>
        <time>2016-09-25T18:33:42Z</time>
      </trkpt>
      <trkpt lat="43.47694" lon="-0.65429">
        <ele>193.541</ele>
        <time>2016-09-25T18:34:02Z</time>
      </trkpt>
      <trkpt lat="43.47696" lon="-0.65631">
        <ele>183.116</ele>
        <time>2016-09-25T18:34:22Z</time>
      </trkpt>
      <trkpt lat="43.47689" lon="-0.65712">
        <ele>182.665</ele>
        <time>2016-09-25T18:34:42Z</time>
      </trkpt>
      <trkpt lat="43.47719" lon="-0.65918">
        <ele>186.192</ele>
        <time>2016-09-25T18:35:02Z</time>
      </trkpt>
      <trkpt lat="43.47688" lon="-0.66234">
        <ele>188.696</ele>
        <time>2016-09-25T18:35:22Z</time>
      </trkpt>
      <trkpt lat="43.47624" lon="-0.66658">
        <ele>185.872</ele>
        <time>2016-09-25T18:35:42Z</time>
      </trkpt>
      <trkpt lat="43.47587" lon="-0.66757">
        <ele>189.613</ele>
        <time>2016-09-25T18:36:02Z</time>
      </trkpt>
      <trkpt lat="43.47562" lon="-0.66761">
        <ele>189.114</ele>
        <time>2016-09-25T18:36:22Z</time>
      </trkpt>
      <trkpt lat="43.47534" lon="-0.66789">
        <ele>189.108</ele>
        <time>2016-09-25T18:36:42Z</time>
      </trkpt>
      <trkpt lat="43.47423" lon="-0.66772">
        <ele>165.573</ele>
        <time>2016-09-25T18:37:02Z</time>
      </trkpt>
      <trkpt lat="43.47375" lon="-0.66787">
        <ele>157.02</ele>
        <time>2016-09-25T18:37:22Z</time>
      </trkpt>
      <trkpt lat="43.47285" lon="-0.66776">
        <ele>140.02</ele>
        <time>2016-09-25T18:37:42Z</time>
      </trkpt>
      <trkpt lat="43.47238" lon="-0.66787">
        <ele>136.21</ele>
        <time>2016-09-25T18:38:02Z</time>
      </trkpt>
      <trkpt lat="43.47191" lon="-0.66761">
        <ele>134.325</ele>
        <time>2016-09-25T18:38:22Z</time>
      </trkpt>
      <trkpt lat="43.47074" lon="-0.66761">
        <ele>129.864</ele>
        <time>2016-09-25T18:38:42Z</time>
      </trkpt>
      <trkpt lat="43.47004" lon="-0.66806">
        <ele>123.541</ele>
        <time>2016-09-25T18:39:02Z</time>
      </trkpt>
      <trkpt lat="43.46895" lon="-0.66839">
        <ele>118.435</ele>
        <time>2016-09-25T18:39:22Z</time>
      </trkpt>
      <trkpt lat="43.46881" lon="-0.66894">
        <ele>120.175</ele>
        <time>2016-09-25T18:39:42Z</time>
      </trkpt>
      <trkpt lat="43.4683" lon="-0.66955">
        <ele>119.228</ele>
        <time>2016-09-25T18:40:02Z</time>
      </trkpt>
      <trkpt lat="43.4673" lon="-0.67238">
        <ele>116.62</ele>
        <time>2016-09-25T18:40:22Z</time>
      </trkpt>
      <trkpt lat="43.46609" lon="-0.67351">
        <ele>109.808</ele>
        <time>2016-09-25T18:40:42Z</time>
      </trkpt>
      <trkpt lat="43.46537" lon="-0.67442">
        <ele>106.74</ele>
        <time>2016-09-25T18:41:22Z</time>
      </trkpt>
      <trkpt lat="43.46433" lon="-0.67555">
        <ele>102.66</ele>
        <time>2016-09-25T18:41:42Z</time>
      </trkpt>
      <trkpt lat="43.46384" lon="-0.67633">
        <ele>100.81</ele>
        <time>2016-09-25T18:42:02Z</time>
      </trkpt>
      <trkpt lat="43.46236" lon="-0.67768">
        <ele>100.065</ele>
        <time>2016-09-25T18:42:22Z</time>
      </trkpt>
      <trkpt lat="43.46117" lon="-0.67851">
        <ele>95.014</ele>
        <time>2016-09-25T18:42:42Z</time>
      </trkpt>
      <trkpt lat="43.46059" lon="-0.67942">
        <ele>95.931</ele>
        <time>2016-09-25T18:43:02Z</time>
      </trkpt>
      <trkpt lat="43.45937" lon="-0.68068">
        <ele>97.385</ele>
        <time>2016-09-25T18:43:22Z</time>
      </trkpt>
      <trkpt lat="43.45763" lon="-0.68141">
        <ele>94.522</ele>
        <time>2016-09-25T18:43:42Z</time>
      </trkpt>
      <trkpt lat="43.45716" lon="-0.68184">
        <ele>95.062</ele>
        <time>2016-09-25T18:44:02Z</time>
      </trkpt>
      <trkpt lat="43.45624" lon="-0.68201">
        <ele>94.108</ele>
        <time>2016-09-25T18:44:22Z</time>
      </trkpt>
      <trkpt lat="43.455" lon="-0.68203">
        <ele>85.308</ele>
        <time>2016-09-25T18:44:42Z</time>
      </trkpt>
      <trkpt lat="43.45405" lon="-0.68261">
        <ele>77.948</ele>
        <time>2016-09-25T18:45:02Z</time>
      </trkpt>
      <trkpt lat="43.45349" lon="-0.68324">
        <ele>74.075</ele>
        <time>2016-09-25T18:45:22Z</time>
      </trkpt>
      <trkpt lat="43.45269" lon="-0.68326">
        <ele>72.785</ele>
        <time>2016-09-25T18:45:42Z</time>
      </trkpt>
      <trkpt lat="43.45199" lon="-0.68414">
        <ele>70.225</ele>
        <time>2016-09-25T18:46:02Z</time>
      </trkpt>
      <trkpt lat="43.44763" lon="-0.68858">
        <ele>74.04</ele>
        <time>2016-09-25T18:46:22Z</time>
      </trkpt>
      <trkpt lat="43.44704" lon="-0.68888">
        <ele>75.049</ele>
        <time>2016-09-25T18:46:42Z</time>
      </trkpt>
      <trkpt lat="43.44587" lon="-0.68903">
        <ele>75.076</ele>
        <time>2016-09-25T18:47:02Z</time>
      </trkpt>
      <trkpt lat="43.44459" lon="-0.68957">
        <ele>75.08</ele>
        <time>2016-09-25T18:47:22Z</time>
      </trkpt>
      <trkpt lat="43.44269" lon="-0.69057">
        <ele>75.025</ele>
        <time>2016-09-25T18:47:42Z</time>
      </trkpt>
      <trkpt lat="43.44218" lon="-0.69132">
        <ele>75.026</ele>
        <time>2016-09-25T18:48:02Z</time>
      </trkpt>
      <trkpt lat="43.44029" lon="-0.69321">
        <ele>76.008</ele>
        <time>2016-09-25T18:48:22Z</time>
      </trkpt>
      <trkpt lat="43.43948" lon="-0.69242">
        <ele>75.008</ele>
        <time>2016-09-25T18:48:42Z</time>
      </trkpt>
      <trkpt lat="43.43889" lon="-0.69302">
        <ele>76.038</ele>
        <time>2016-09-25T18:49:02Z</time>
      </trkpt>
      <trkpt lat="43.43841" lon="-0.69272">
        <ele>76.045</ele>
        <time>2016-09-25T18:49:22Z</time>
      </trkpt>
      <trkpt lat="43.43686" lon="-0.69259">
        <ele>75.245</ele>
        <time>2016-09-25T18:49:42Z</time>
      </trkpt>
      <trkpt lat="43.4347" lon="-0.69381">
        <ele>76.035</ele>
        <time>2016-09-25T18:50:02Z</time>
      </trkpt>
      <trkpt lat="43.43451" lon="-0.69343">
        <ele>75.81</ele>
        <time>2016-09-25T18:50:22Z</time>
      </trkpt>
      <trkpt lat="43.43317" lon="-0.69266">
        <ele>76.049</ele>
        <time>2016-09-25T18:50:42Z</time>
      </trkpt>
      <trkpt lat="43.4318" lon="-0.69072">
        <ele>77.096</ele>
        <time>2016-09-25T18:51:02Z</time>
      </trkpt>
      <trkpt lat="43.43023" lon="-0.68875">
        <ele>77.62</ele>
        <time>2016-09-25T18:51:22Z</time>
      </trkpt>
      <trkpt lat="43.42957" lon="-0.68813">
        <ele>78.047</ele>
        <time>2016-09-25T18:51:42Z</time>
      </trkpt>
      <trkpt lat="43.42918" lon="-0.68793">
        <ele>78.029</ele>
        <time>2016-09-25T18:52:02Z</time>
      </trkpt>
      <trkpt lat="43.42917" lon="-0.68725">
        <ele>78.021</ele>
        <time>2016-09-25T18:52:22Z</time>
      </trkpt>
      <trkpt lat="43.42862" lon="-0.68617">
        <ele>77.208</ele>
        <time>2016-09-25T18:52:42Z</time>
      </trkpt>
      <trkpt lat="43.42765" lon="-0.68484">
        <ele>77.24</ele>
        <time>2016-09-25T18:53:02Z</time>
      </trkpt>
      <trkpt lat="43.4272" lon="-0.68452">
        <ele>77.377</ele>
        <time>2016-09-25T18:53:22Z</time>
      </trkpt>
      <trkpt lat="43.42697" lon="-0.68407">
        <ele>77.087</ele>
        <time>2016-09-25T18:53:42Z</time>
      </trkpt>
      <trkpt lat="43.42507" lon="-0.6818">
        <ele>78.067</ele>
        <time>2016-09-25T18:54:02Z</time>
      </trkpt>
      <trkpt lat="43.42462" lon="-0.6815">
        <ele>78.042</ele>
        <time>2016-09-25T18:54:22Z</time>
      </trkpt>
      <trkpt lat="43.42418" lon="-0.68092">
        <ele>78.011</ele>
        <time>2016-09-25T18:54:42Z</time>
      </trkpt>
      <trkpt lat="43.42312" lon="-0.68015">
        <ele>78.888</ele>
        <time>2016-09-25T18:55:02Z</time>
      </trkpt>
      <trkpt lat="43.42187" lon="-0.67961">
        <ele>79.012</ele>
        <time>2016-09-25T18:55:22Z</time>
      </trkpt>
      <trkpt lat="43.421" lon="-0.67873">
        <ele>79.015</ele>
        <time>2016-09-25T18:55:42Z</time>
      </trkpt>
      <trkpt lat="43.41927" lon="-0.67761">
        <ele>87.065</ele>
        <time>2016-09-25T18:56:02Z</time>
      </trkpt>
      <trkpt lat="43.41788" lon="-0.67785">
        <ele>103.211</ele>
        <time>2016-09-25T18:56:22Z</time>
      </trkpt>
      <trkpt lat="43.41712" lon="-0.67836">
        <ele>111.308</ele>
        <time>2016-09-25T18:56:42Z</time>
      </trkpt>
      <trkpt lat="43.4157" lon="-0.67809">
        <ele>128.577</ele>
        <time>2016-09-25T18:57:02Z</time>
      </trkpt>
      <trkpt lat="43.41469" lon="-0.67673">
        <ele>148.214</ele>
        <time>2016-09-25T18:57:22Z</time>
      </trkpt>
      <trkpt lat="43.41389" lon="-0.67607">
        <ele>169.954</ele>
        <time>2016-09-25T18:57:42Z</time>
      </trkpt>
      <trkpt lat="43.4133" lon="-0.67648">
        <ele>172.934</ele>
        <time>2016-09-25T18:58:02Z</time>
      </trkpt>
      <trkpt lat="43.41221" lon="-0.67678">
        <ele>170.049</ele>
        <time>2016-09-25T18:58:22Z</time>
      </trkpt>
      <trkpt lat="43.41155" lon="-0.67729">
        <ele>173.078</ele>
        <time>2016-09-25T18:58:42Z</time>
      </trkpt>
      <trkpt lat="43.41124" lon="-0.67618">
        <ele>173.275</ele>
        <time>2016-09-25T18:59:02Z</time>
      </trkpt>
      <trkpt lat="43.41053" lon="-0.67605">
        <ele>166.139</ele>
        <time>2016-09-25T18:59:22Z</time>
      </trkpt>
      <trkpt lat="43.40934" lon="-0.67553">
        <ele>160.894</ele>
        <time>2016-09-25T18:59:42Z</time>
      </trkpt>
      <trkpt lat="43.40866" lon="-0.67609">
        <ele>147.257</ele>
        <time>2016-09-25T19:00:02Z</time>
      </trkpt>
      <trkpt lat="43.40732" lon="-0.67675">
        <ele>133.622</ele>
        <time>2016-09-25T19:00:22Z</time>
      </trkpt>
      <trkpt lat="43.40675" lon="-0.67806">
        <ele>118.208</ele>
        <time>2016-09-25T19:00:42Z</time>
      </trkpt>
      <trkpt lat="43.40625" lon="-0.67879">
        <ele>108.385</ele>
        <time>2016-09-25T19:01:02Z</time>
      </trkpt>
      <trkpt lat="43.40541" lon="-0.67791">
        <ele>105.752</ele>
        <time>2016-09-25T19:01:22Z</time>
      </trkpt>
      <trkpt lat="43.40382" lon="-0.67881">
        <ele>95.072</ele>
        <time>2016-09-25T19:01:42Z</time>
      </trkpt>
      <trkpt lat="43.40332" lon="-0.67866">
        <ele>95.082</ele>
        <time>2016-09-25T19:02:02Z</time>
      </trkpt>
      <trkpt lat="43.40109" lon="-0.67991">
        <ele>100.067</ele>
        <time>2016-09-25T19:02:22Z</time>
      </trkpt>
      <trkpt lat="43.39936" lon="-0.68177">
        <ele>109.446</ele>
        <time>2019-03-30T17:40:05Z</time>
      </trkpt>
      <trkpt lat="43.39907" lon="-0.68184">
        <ele>109.263</ele>
        <time>2016-09-25T19:03:02Z</time>
      </trkpt>
      <trkpt lat="43.39826" lon="-0.68332">
        <ele>115.727</ele>
        <time>2016-09-25T19:03:22Z</time>
      </trkpt>
      <trkpt lat="43.39805" lon="-0.68332">
        <ele>114.958</ele>
        <time>2016-09-25T19:03:42Z</time>
      </trkpt>
      <trkpt lat="43.39726" lon="-0.68463">
        <ele>117.752</ele>
        <time>2016-09-25T19:04:02Z</time>
      </trkpt>
      <trkpt lat="43.39684" lon="-0.68459">
        <ele>114.317</ele>
        <time>2016-09-25T19:04:22Z</time>
      </trkpt>
      <trkpt lat="43.39676" lon="-0.6848">
        <ele>115.908</ele>
        <time>2016-09-25T19:04:42Z</time>
      </trkpt>
      <trkpt lat="43.3964" lon="-0.6848">
        <ele>115.091</ele>
        <time>2016-09-25T19:05:02Z</time>
      </trkpt>
      <trkpt lat="43.39614" lon="-0.68512">
        <ele>115.038</ele>
        <time>2016-09-25T19:05:22Z</time>
      </trkpt>
      <trkpt lat="43.39546" lon="-0.68451">
        <ele>123.488</ele>
        <time>2019-03-30T17:43:05Z</time>
      </trkpt>
      <trkpt lat="43.39423" lon="-0.68429">
        <ele>129.438</ele>
        <time>2016-09-25T19:06:02Z</time>
      </trkpt>
      <trkpt lat="43.39397" lon="-0.68459">
        <ele>130.453</ele>
        <time>2016-09-25T19:06:22Z</time>
      </trkpt>
      <trkpt lat="43.39453" lon="-0.68517">
        <ele>125.022</ele>
        <time>2016-09-25T19:06:42Z</time>
      </trkpt>
      <trkpt lat="43.39423" lon="-0.68626">
        <ele>126.199</ele>
        <time>2016-09-25T19:07:02Z</time>
      </trkpt>
      <trkpt lat="43.39388" lon="-0.68663">
        <ele>129.553</ele>
        <time>2019-03-30T17:44:45Z</time>
      </trkpt>
      <trkpt lat="43.39405" lon="-0.68905">
        <ele>152.983</ele>
        <time>2016-09-25T19:07:42Z</time>
      </trkpt>
      <trkpt lat="43.39445" lon="-0.69032">
        <ele>163.225</ele>
        <time>2016-09-25T19:08:02Z</time>
      </trkpt>
      <trkpt lat="43.39436" lon="-0.69092">
        <ele>167.317</ele>
        <time>2016-09-25T19:08:22Z</time>
      </trkpt>
      <trkpt lat="43.39447" lon="-0.69158">
        <ele>171.608</ele>
        <time>2016-09-25T19:08:42Z</time>
      </trkpt>
      <trkpt lat="43.39447" lon="-0.6925">
        <ele>177.184</ele>
        <time>2016-09-25T19:09:02Z</time>
      </trkpt>
      <trkpt lat="43.39395" lon="-0.69399">
        <ele>191.911</ele>
        <time>2016-09-25T19:09:22Z</time>
      </trkpt>
      <trkpt lat="43.39419" lon="-0.69476">
        <ele>198.141</ele>
        <time>2016-09-25T19:09:42Z</time>
      </trkpt>
      <trkpt lat="43.39404" lon="-0.69495">
        <ele>196.541</ele>
        <time>2019-03-30T17:47:25Z</time>
      </trkpt>
      <trkpt lat="43.39393" lon="-0.69777">
        <ele>163.026</ele>
        <time>2019-03-30T17:47:45Z</time>
      </trkpt>
      <trkpt lat="43.39399" lon="-0.70081">
        <ele>149.335</ele>
        <time>2016-09-25T19:10:22Z</time>
      </trkpt>
      <trkpt lat="43.39481" lon="-0.70377">
        <ele>125.272</ele>
        <time>2016-09-25T19:10:42Z</time>
      </trkpt>
      <trkpt lat="43.39589" lon="-0.70476">
        <ele>113.386</ele>
        <time>2016-09-25T19:11:02Z</time>
      </trkpt>
      <trkpt lat="43.39606" lon="-0.70525">
        <ele>108.694</ele>
        <time>2016-09-25T19:11:22Z</time>
      </trkpt>
      <trkpt lat="43.39537" lon="-0.70639">
        <ele>110.357</ele>
        <time>2016-09-25T19:11:42Z</time>
      </trkpt>
      <trkpt lat="43.39503" lon="-0.70804">
        <ele>118.222</ele>
        <time>2016-09-25T19:12:02Z</time>
      </trkpt>
      <trkpt lat="43.39037" lon="-0.70712">
        <ele>126.908</ele>
        <time>2016-09-25T19:12:22Z</time>
      </trkpt>
      <trkpt lat="43.38904" lon="-0.70622">
        <ele>127.895</ele>
        <time>2016-09-25T19:12:42Z</time>
      </trkpt>
      <trkpt lat="43.38681" lon="-0.70581">
        <ele>137.242</ele>
        <time>2016-09-25T19:13:02Z</time>
      </trkpt>
      <trkpt lat="43.38608" lon="-0.70624">
        <ele>140.052</ele>
        <time>2016-09-25T19:13:22Z</time>
      </trkpt>
      <trkpt lat="43.3853" lon="-0.70707">
        <ele>138.392</ele>
        <time>2016-09-25T19:13:42Z</time>
      </trkpt>
      <trkpt lat="43.38229" lon="-0.70793">
        <ele>122.737</ele>
        <time>2016-09-25T19:14:02Z</time>
      </trkpt>
      <trkpt lat="43.38184" lon="-0.70834">
        <ele>125.766</ele>
        <time>2016-09-25T19:14:22Z</time>
      </trkpt>
      <trkpt lat="43.38125" lon="-0.70937">
        <ele>135.523</ele>
        <time>2016-09-25T19:14:42Z</time>
      </trkpt>
      <trkpt lat="43.38067" lon="-0.70967">
        <ele>136.557</ele>
        <time>2016-09-25T19:15:02Z</time>
      </trkpt>
      <trkpt lat="43.38047" lon="-0.70967">
        <ele>136.123</ele>
        <time>2016-09-25T19:15:22Z</time>
      </trkpt>
      <trkpt lat="43.38017" lon="-0.71004">
        <ele>140.483</ele>
        <time>2016-09-25T19:15:42Z</time>
      </trkpt>
      <trkpt lat="43.37964" lon="-0.71336">
        <ele>175.011</ele>
        <time>2016-09-25T19:16:02Z</time>
      </trkpt>
      <trkpt lat="43.37858" lon="-0.71396">
        <ele>175.008</ele>
        <time>2016-09-25T19:16:22Z</time>
      </trkpt>
      <trkpt lat="43.37749" lon="-0.71422">
        <ele>175.668</ele>
        <time>2016-09-25T19:16:42Z</time>
      </trkpt>
      <trkpt lat="43.37622" lon="-0.71398">
        <ele>177.665</ele>
        <time>2016-09-25T19:17:02Z</time>
      </trkpt>
      <trkpt lat="43.37499" lon="-0.71416">
        <ele>187.135</ele>
        <time>2016-09-25T19:17:22Z</time>
      </trkpt>
      <trkpt lat="43.37449" lon="-0.71409">
        <ele>192.425</ele>
        <time>2016-09-25T19:17:42Z</time>
      </trkpt>
      <trkpt lat="43.37343" lon="-0.71465">
        <ele>199.27</ele>
        <time>2016-09-25T19:18:02Z</time>
      </trkpt>
      <trkpt lat="43.3729" lon="-0.71546">
        <ele>203.839</ele>
        <time>2016-09-25T19:18:22Z</time>
      </trkpt>
      <trkpt lat="43.37236" lon="-0.71701">
        <ele>218.986</ele>
        <time>2016-09-25T19:18:42Z</time>
      </trkpt>
      <trkpt lat="43.37212" lon="-0.71815">
        <ele>225.07</ele>
        <time>2016-09-25T19:19:02Z</time>
      </trkpt>
      <trkpt lat="43.37089" lon="-0.72019">
        <ele>238.568</ele>
        <time>2016-09-25T19:19:22Z</time>
      </trkpt>
      <trkpt lat="43.37044" lon="-0.72057">
        <ele>246.642</ele>
        <time>2016-09-25T19:19:42Z</time>
      </trkpt>
      <trkpt lat="43.37041" lon="-0.72094">
        <ele>247.326</ele>
        <time>2016-09-25T19:20:02Z</time>
      </trkpt>
      <trkpt lat="43.37119" lon="-0.72396">
        <ele>239.208</ele>
        <time>2016-09-25T19:20:22Z</time>
      </trkpt>
      <trkpt lat="43.372" lon="-0.72531">
        <ele>240.022</ele>
        <time>2016-09-25T19:20:42Z</time>
      </trkpt>
      <trkpt lat="43.37377" lon="-0.72652">
        <ele>240.929</ele>
        <time>2016-09-25T19:21:02Z</time>
      </trkpt>
      <trkpt lat="43.37382" lon="-0.72686">
        <ele>239.869</ele>
        <time>2016-09-25T19:21:22Z</time>
      </trkpt>
      <trkpt lat="43.37371" lon="-0.7274">
        <ele>236.519</ele>
        <time>2016-09-25T19:21:42Z</time>
      </trkpt>
      <trkpt lat="43.3739" lon="-0.72821">
        <ele>232.534</ele>
        <time>2016-09-25T19:22:02Z</time>
      </trkpt>
      <trkpt lat="43.37385" lon="-0.72905">
        <ele>226.463</ele>
        <time>2016-09-25T19:22:22Z</time>
      </trkpt>
      <trkpt lat="43.37409" lon="-0.72963">
        <ele>220.14</ele>
        <time>2016-09-25T19:22:42Z</time>
      </trkpt>
      <trkpt lat="43.37332" lon="-0.73006">
        <ele>213.434</ele>
        <time>2016-09-25T19:23:02Z</time>
      </trkpt>
      <trkpt lat="43.37243" lon="-0.73001">
        <ele>211.517</ele>
        <time>2016-09-25T19:23:22Z</time>
      </trkpt>
      <trkpt lat="43.37156" lon="-0.73044">
        <ele>199.687</ele>
        <time>2016-09-25T19:23:42Z</time>
      </trkpt>
      <trkpt lat="43.37109" lon="-0.73048">
        <ele>189.915</ele>
        <time>2016-09-25T19:24:02Z</time>
      </trkpt>
      <trkpt lat="43.37044" lon="-0.73091">
        <ele>181.408</ele>
        <time>2016-09-25T19:24:22Z</time>
      </trkpt>
      <trkpt lat="43.36995" lon="-0.73179">
        <ele>172.544</ele>
        <time>2016-09-25T19:25:02Z</time>
      </trkpt>
      <trkpt lat="43.36945" lon="-0.7325">
        <ele>161.174</ele>
        <time>2016-09-25T19:25:22Z</time>
      </trkpt>
      <trkpt lat="43.36846" lon="-0.73229">
        <ele>155.794</ele>
        <time>2016-09-25T19:25:42Z</time>
      </trkpt>
      <trkpt lat="43.36805" lon="-0.73173">
        <ele>157.329</ele>
        <time>2016-09-25T19:26:02Z</time>
      </trkpt>
      <trkpt lat="43.36768" lon="-0.73136">
        <ele>159.298</ele>
        <time>2016-09-25T19:26:22Z</time>
      </trkpt>
      <trkpt lat="43.36713" lon="-0.73197">
        <ele>171.525</ele>
        <time>2016-09-25T19:26:42Z</time>
      </trkpt>
      <trkpt lat="43.36696" lon="-0.73321">
        <ele>180.429</ele>
        <time>2016-09-25T19:27:02Z</time>
      </trkpt>
      <trkpt lat="43.36705" lon="-0.73407">
        <ele>183.582</ele>
        <time>2016-09-25T19:27:22Z</time>
      </trkpt>
      <trkpt lat="43.36739" lon="-0.73533">
        <ele>188.843</ele>
        <time>2016-09-25T19:27:42Z</time>
      </trkpt>
      <trkpt lat="43.36719" lon="-0.73602">
        <ele>195.617</ele>
        <time>2016-09-25T19:28:02Z</time>
      </trkpt>
      <trkpt lat="43.36671" lon="-0.73684">
        <ele>203.908</ele>
        <time>2016-09-25T19:28:22Z</time>
      </trkpt>
      <trkpt lat="43.3661" lon="-0.73877">
        <ele>223.444</ele>
        <time>2016-09-25T19:28:42Z</time>
      </trkpt>
      <trkpt lat="43.36573" lon="-0.73935">
        <ele>230.461</ele>
        <time>2016-09-25T19:29:02Z</time>
      </trkpt>
      <trkpt lat="43.36529" lon="-0.73958">
        <ele>240.811</ele>
        <time>2016-09-25T19:29:22Z</time>
      </trkpt>
      <trkpt lat="43.3646" lon="-0.74029">
        <ele>240.891</ele>
        <time>2016-09-25T19:29:42Z</time>
      </trkpt>
      <trkpt lat="43.36399" lon="-0.74036">
        <ele>240.376</ele>
        <time>2016-09-25T19:30:02Z</time>
      </trkpt>
      <trkpt lat="43.36392" lon="-0.74066">
        <ele>241.035</ele>
        <time>2016-09-25T19:30:22Z</time>
      </trkpt>
      <trkpt lat="43.36334" lon="-0.74036">
        <ele>240.322</ele>
        <time>2016-09-25T19:30:42Z</time>
      </trkpt>
      <trkpt lat="43.36215" lon="-0.73945">
        <ele>240.076</ele>
        <time>2016-09-25T19:31:02Z</time>
      </trkpt>
      <trkpt lat="43.35978" lon="-0.73821">
        <ele>249.572</ele>
        <time>2016-09-25T19:31:22Z</time>
      </trkpt>
      <trkpt lat="43.35925" lon="-0.73754">
        <ele>250.013</ele>
        <time>2016-09-25T19:31:42Z</time>
      </trkpt>
      <trkpt lat="43.35594" lon="-0.73613">
        <ele>256.614</ele>
        <time>2016-09-25T19:32:02Z</time>
      </trkpt>
      <trkpt lat="43.35498" lon="-0.73604">
        <ele>256.908</ele>
        <time>2016-09-25T19:32:22Z</time>
      </trkpt>
      <trkpt lat="43.35463" lon="-0.73581">
        <ele>256.613</ele>
        <time>2016-09-25T19:32:42Z</time>
      </trkpt>
      <trkpt lat="43.35293" lon="-0.73364">
        <ele>254.04</ele>
        <time>2016-09-25T19:33:02Z</time>
      </trkpt>
      <trkpt lat="43.35187" lon="-0.73317">
        <ele>257.54</ele>
        <time>2016-09-25T19:33:22Z</time>
      </trkpt>
      <trkpt lat="43.35092" lon="-0.73237">
        <ele>258.01</ele>
        <time>2016-09-25T19:33:42Z</time>
      </trkpt>
      <trkpt lat="43.35064" lon="-0.73302">
        <ele>260.035</ele>
        <time>2016-09-25T19:34:02Z</time>
      </trkpt>
      <trkpt lat="43.34967" lon="-0.73321">
        <ele>260.194</ele>
        <time>2016-09-25T19:34:22Z</time>
      </trkpt>
      <trkpt lat="43.34788" lon="-0.73443">
        <ele>254.211</ele>
        <time>2016-09-25T19:34:42Z</time>
      </trkpt>
      <trkpt lat="43.34572" lon="-0.73649">
        <ele>237.785</ele>
        <time>2016-09-25T19:35:02Z</time>
      </trkpt>
      <trkpt lat="43.34443" lon="-0.7363">
        <ele>225.638</ele>
        <time>2016-09-25T19:35:22Z</time>
      </trkpt>
      <trkpt lat="43.34402" lon="-0.73677">
        <ele>218.77</ele>
        <time>2016-09-25T19:35:42Z</time>
      </trkpt>
      <trkpt lat="43.34332" lon="-0.73701">
        <ele>208.617</ele>
        <time>2016-09-25T19:36:02Z</time>
      </trkpt>
      <trkpt lat="43.34238" lon="-0.73662">
        <ele>193.108</ele>
        <time>2016-09-25T19:36:22Z</time>
      </trkpt>
      <trkpt lat="43.34149" lon="-0.73666">
        <ele>180.919</ele>
        <time>2016-09-25T19:36:42Z</time>
      </trkpt>
      <trkpt lat="43.3412" lon="-0.73703">
        <ele>178.286</ele>
        <time>2016-09-25T19:37:02Z</time>
      </trkpt>
      <trkpt lat="43.34064" lon="-0.73694">
        <ele>168.936</ele>
        <time>2016-09-25T19:37:22Z</time>
      </trkpt>
      <trkpt lat="43.34029" lon="-0.73707">
        <ele>165.186</ele>
        <time>2016-09-25T19:37:42Z</time>
      </trkpt>
      <trkpt lat="43.34003" lon="-0.73703">
        <ele>164.011</ele>
        <time>2016-09-25T19:38:02Z</time>
      </trkpt>
      <trkpt lat="43.33976" lon="-0.73729">
        <ele>163.29</ele>
        <time>2016-09-25T19:38:22Z</time>
      </trkpt>
      <trkpt lat="43.33936" lon="-0.73724">
        <ele>160.217</ele>
        <time>2016-09-25T19:38:42Z</time>
      </trkpt>
      <trkpt lat="43.3387" lon="-0.7378">
        <ele>160.191</ele>
        <time>2016-09-25T19:39:02Z</time>
      </trkpt>
      <trkpt lat="43.33808" lon="-0.73849">
        <ele>152.495</ele>
        <time>2016-09-25T19:39:22Z</time>
      </trkpt>
      <trkpt lat="43.33772" lon="-0.74042">
        <ele>157.549</ele>
        <time>2016-09-25T19:39:42Z</time>
      </trkpt>
      <trkpt lat="43.33794" lon="-0.74218">
        <ele>148.723</ele>
        <time>2016-09-25T19:40:02Z</time>
      </trkpt>
      <trkpt lat="43.33786" lon="-0.74362">
        <ele>147.408</ele>
        <time>2016-09-25T19:40:22Z</time>
      </trkpt>
      <trkpt lat="43.33762" lon="-0.7443">
        <ele>145.075</ele>
        <time>2016-09-25T19:40:42Z</time>
      </trkpt>
      <trkpt lat="43.33756" lon="-0.74628">
        <ele>142.912</ele>
        <time>2016-09-25T19:41:02Z</time>
      </trkpt>
      <trkpt lat="43.33783" lon="-0.74696">
        <ele>141.932</ele>
        <time>2016-09-25T19:41:22Z</time>
      </trkpt>
      <trkpt lat="43.338" lon="-0.74802">
        <ele>141.782</ele>
        <time>2016-09-25T19:41:42Z</time>
      </trkpt>
      <trkpt lat="43.33789" lon="-0.74971">
        <ele>140.827</ele>
        <time>2016-09-25T19:42:02Z</time>
      </trkpt>
      <trkpt lat="43.3377" lon="-0.75033">
        <ele>140.746</ele>
        <time>2016-09-25T19:42:22Z</time>
      </trkpt>
      <trkpt lat="43.33762" lon="-0.75216">
        <ele>139.073</ele>
        <time>2016-09-25T19:42:42Z</time>
      </trkpt>
      <trkpt lat="43.33781" lon="-0.75392">
        <ele>137.017</ele>
        <time>2016-09-25T19:43:02Z</time>
      </trkpt>
      <trkpt lat="43.33762" lon="-0.7554">
        <ele>136.652</ele>
        <time>2016-09-25T19:43:22Z</time>
      </trkpt>
      <trkpt lat="43.33698" lon="-0.75709">
        <ele>138.353</ele>
        <time>2016-09-25T19:43:42Z</time>
      </trkpt>
      <trkpt lat="43.33739" lon="-0.75887">
        <ele>133.508</ele>
        <time>2016-09-25T19:44:02Z</time>
      </trkpt>
      <trkpt lat="43.33791" lon="-0.76012">
        <ele>129.008</ele>
        <time>2016-09-25T19:44:22Z</time>
      </trkpt>
      <trkpt lat="43.33748" lon="-0.76063">
        <ele>128.041</ele>
        <time>2016-09-25T19:44:42Z</time>
      </trkpt>
      <trkpt lat="43.33698" lon="-0.76098">
        <ele>128.028</ele>
        <time>2016-09-25T19:45:02Z</time>
      </trkpt>
      <trkpt lat="43.33519" lon="-0.76278">
        <ele>127.048</ele>
        <time>2016-09-25T19:45:22Z</time>
      </trkpt>
      <trkpt lat="43.33467" lon="-0.764">
        <ele>126.098</ele>
        <time>2016-09-25T19:45:42Z</time>
      </trkpt>
      <trkpt lat="43.33394" lon="-0.76359">
        <ele>126.093</ele>
        <time>2016-09-25T19:46:02Z</time>
      </trkpt>
      <trkpt lat="43.33338" lon="-0.76289">
        <ele>127.612</ele>
        <time>2016-09-25T19:46:22Z</time>
      </trkpt>
      <trkpt lat="43.33255" lon="-0.76235">
        <ele>129.029</ele>
        <time>2016-09-25T19:46:42Z</time>
      </trkpt>
      <trkpt lat="43.33151" lon="-0.76229">
        <ele>128.843</ele>
        <time>2016-09-25T19:47:02Z</time>
      </trkpt>
      <trkpt lat="43.33102" lon="-0.76186">
        <ele>129.053</ele>
        <time>2016-09-25T19:47:22Z</time>
      </trkpt>
      <trkpt lat="43.33043" lon="-0.76106">
        <ele>129.204</ele>
        <time>2016-09-25T19:47:42Z</time>
      </trkpt>
      <trkpt lat="43.32996" lon="-0.76076">
        <ele>129.314</ele>
        <time>2016-09-25T19:48:02Z</time>
      </trkpt>
      <trkpt lat="43.3287" lon="-0.75905">
        <ele>131.008</ele>
        <time>2016-09-25T19:48:22Z</time>
      </trkpt>
      <trkpt lat="43.32771" lon="-0.75741">
        <ele>132.091</ele>
        <time>2016-09-25T19:48:42Z</time>
      </trkpt>
      <trkpt lat="43.32665" lon="-0.75628">
        <ele>132.488</ele>
        <time>2016-09-25T19:49:02Z</time>
      </trkpt>
      <trkpt lat="43.32545" lon="-0.75565">
        <ele>132.488</ele>
        <time>2016-09-25T19:49:22Z</time>
      </trkpt>
      <trkpt lat="43.32433" lon="-0.75456">
        <ele>130.038</ele>
        <time>2016-09-25T19:49:42Z</time>
      </trkpt>
      <trkpt lat="43.3242" lon="-0.7543">
        <ele>130.013</ele>
        <time>2016-09-25T19:50:02Z</time>
      </trkpt>
      <trkpt lat="43.32353" lon="-0.75415">
        <ele>132.362</ele>
        <time>2019-03-30T18:28:05Z</time>
      </trkpt>
      <trkpt lat="43.32258" lon="-0.75558">
        <ele>131.079</ele>
        <time>2019-03-30T18:28:25Z</time>
      </trkpt>
      <trkpt lat="43.32153" lon="-0.75765">
        <ele>126.263</ele>
        <time>2016-09-25T19:51:02Z</time>
      </trkpt>
      <trkpt lat="43.32092" lon="-0.75842">
        <ele>125.062</ele>
        <time>2016-09-25T19:51:22Z</time>
      </trkpt>
      <trkpt lat="43.32134" lon="-0.7593">
        <ele>124.083</ele>
        <time>2016-09-25T19:51:42Z</time>
      </trkpt>
      <trkpt lat="43.32342" lon="-0.76198">
        <ele>120.011</ele>
        <time>2019-03-30T18:29:45Z</time>
      </trkpt>
      <trkpt lat="43.3232" lon="-0.7623">
        <ele>120.008</ele>
        <time>2019-03-30T18:30:05Z</time>
      </trkpt>
      <trkpt lat="43.3231" lon="-0.7625">
        <ele>120.082</ele>
        <time>2019-03-30T18:30:25Z</time>
      </trkpt>
      <trkpt lat="43.32267" lon="-0.76271">
        <ele>120.169</ele>
        <time>2019-03-30T18:30:45Z</time>
      </trkpt>
      <trkpt lat="43.32266" lon="-0.76279">
        <ele>120.039</ele>
        <time>2019-03-30T18:31:05Z</time>
      </trkpt>
      <trkpt lat="43.32243" lon="-0.76285">
        <ele>120.279</ele>
        <time>2019-03-30T18:31:25Z</time>
      </trkpt>
      <trkpt lat="43.3223" lon="-0.76314">
        <ele>118.344</ele>
        <time>2016-09-25T19:53:02Z</time>
      </trkpt>
      <trkpt lat="43.3228" lon="-0.76533">
        <ele>119.333</ele>
        <time>2016-09-25T19:53:22Z</time>
      </trkpt>
      <trkpt lat="43.32387" lon="-0.76625">
        <ele>120.03</ele>
        <time>2016-09-25T19:53:42Z</time>
      </trkpt>
      <trkpt lat="43.32495" lon="-0.76988">
        <ele>122.644</ele>
        <time>2016-09-25T19:54:02Z</time>
      </trkpt>
      <trkpt lat="43.32494" lon="-0.77374">
        <ele>126.055</ele>
        <time>2016-09-25T19:54:22Z</time>
      </trkpt>
      <trkpt lat="43.32383" lon="-0.77971">
        <ele>134.307</ele>
        <time>2016-09-25T19:54:42Z</time>
      </trkpt>
      <trkpt lat="43.32412" lon="-0.7804">
        <ele>143.417</ele>
        <time>2016-09-25T19:55:02Z</time>
      </trkpt>
      <trkpt lat="43.32607" lon="-0.782">
        <ele>157.008</ele>
        <time>2016-09-25T19:55:22Z</time>
      </trkpt>
      <trkpt lat="43.32667" lon="-0.78222">
        <ele>156.081</ele>
        <time>2016-09-25T19:55:42Z</time>
      </trkpt>
      <trkpt lat="43.32774" lon="-0.782">
        <ele>155.258</ele>
        <time>2016-09-25T19:56:02Z</time>
      </trkpt>
      <trkpt lat="43.32848" lon="-0.78241">
        <ele>155.818</ele>
        <time>2016-09-25T19:56:22Z</time>
      </trkpt>
      <trkpt lat="43.32846" lon="-0.78415">
        <ele>157.538</ele>
        <time>2016-09-25T19:56:42Z</time>
      </trkpt>
      <trkpt lat="43.32857" lon="-0.78621">
        <ele>158.163</ele>
        <time>2016-09-25T19:57:02Z</time>
      </trkpt>
      <trkpt lat="43.32876" lon="-0.78726">
        <ele>156.512</ele>
        <time>2016-09-25T19:57:22Z</time>
      </trkpt>
      <trkpt lat="43.33062" lon="-0.79001">
        <ele>155.069</ele>
        <time>2016-09-25T19:57:42Z</time>
      </trkpt>
      <trkpt lat="43.33018" lon="-0.79065">
        <ele>150.713</ele>
        <time>2016-09-25T19:58:02Z</time>
      </trkpt>
      <trkpt lat="43.33034" lon="-0.79168">
        <ele>144.661</ele>
        <time>2016-09-25T19:58:22Z</time>
      </trkpt>
      <trkpt lat="43.32974" lon="-0.79241">
        <ele>135.221</ele>
        <time>2016-09-25T19:58:42Z</time>
      </trkpt>
      <trkpt lat="43.32981" lon="-0.79344">
        <ele>130.913</ele>
        <time>2016-09-25T19:59:02Z</time>
      </trkpt>
      <trkpt lat="43.32954" lon="-0.79512">
        <ele>123.608</ele>
        <time>2016-09-25T19:59:22Z</time>
      </trkpt>
      <trkpt lat="43.32904" lon="-0.79593">
        <ele>122.652</ele>
        <time>2016-09-25T19:59:42Z</time>
      </trkpt>
      <trkpt lat="43.32737" lon="-0.79683">
        <ele>126.979</ele>
        <time>2016-09-25T20:00:02Z</time>
      </trkpt>
      <trkpt lat="43.32704" lon="-0.79724">
        <ele>124.969</ele>
        <time>2016-09-25T20:00:22Z</time>
      </trkpt>
      <trkpt lat="43.32579" lon="-0.79838">
        <ele>118.119</ele>
        <time>2016-09-25T20:00:42Z</time>
      </trkpt>
      <trkpt lat="43.32537" lon="-0.79844">
        <ele>119.064</ele>
        <time>2016-09-25T20:01:02Z</time>
      </trkpt>
      <trkpt lat="43.32609" lon="-0.79988">
        <ele>118.053</ele>
        <time>2016-09-25T20:01:22Z</time>
      </trkpt>
      <trkpt lat="43.32646" lon="-0.80226">
        <ele>119.05</ele>
        <time>2016-09-25T20:01:42Z</time>
      </trkpt>
      <trkpt lat="43.32637" lon="-0.80314">
        <ele>119.344</ele>
        <time>2016-09-25T20:02:02Z</time>
      </trkpt>
      <trkpt lat="43.32592" lon="-0.80415">
        <ele>123.636</ele>
        <time>2016-09-25T20:02:22Z</time>
      </trkpt>
      <trkpt lat="43.32586" lon="-0.80492">
        <ele>126.617</ele>
        <time>2016-09-25T20:02:42Z</time>
      </trkpt>
      <trkpt lat="43.32592" lon="-0.80522">
        <ele>127.518</ele>
        <time>2021-01-03T20:26:40Z</time>
      </trkpt>
      <trkpt lat="43.32661" lon="-0.80619">
        <ele>139.608</ele>
        <time>2021-01-03T20:27:00Z</time>
      </trkpt>
      <trkpt lat="43.32687" lon="-0.80578">
        <ele>135.179</ele>
        <time>2016-09-25T20:04:42Z</time>
      </trkpt>
      <trkpt lat="43.32736" lon="-0.80539">
        <ele>131.876</ele>
        <time>2021-01-03T20:27:40Z</time>
      </trkpt>
      <trkpt lat="43.32758" lon="-0.80542">
        <ele>132.296</ele>
        <time>2021-01-03T20:28:00Z</time>
      </trkpt>
      <trkpt lat="43.32811" lon="-0.80594">
        <ele>127.796</ele>
        <time>2021-01-03T20:28:20Z</time>
      </trkpt>
      <trkpt lat="43.32838" lon="-0.8061">
        <ele>121.881</ele>
        <time>2016-09-25T20:06:02Z</time>
      </trkpt>
      <trkpt lat="43.32883" lon="-0.80673">
        <ele>120.03</ele>
        <time>2021-01-03T20:29:00Z</time>
      </trkpt>
      <trkpt lat="43.32898" lon="-0.80724">
        <ele>120.067</ele>
        <time>2016-09-25T20:06:42Z</time>
      </trkpt>
      <trkpt lat="43.32924" lon="-0.80715">
        <ele>120.031</ele>
        <time>2016-09-25T20:07:02Z</time>
      </trkpt>
      <trkpt lat="43.32966" lon="-0.80752">
        <ele>120.054</ele>
        <time>2016-09-25T20:07:22Z</time>
      </trkpt>
      <trkpt lat="43.32898" lon="-0.80945">
        <ele>121.756</ele>
        <time>2016-09-25T20:07:42Z</time>
      </trkpt>
      <trkpt lat="43.3277" lon="-0.81029">
        <ele>122.011</ele>
        <time>2016-09-25T20:08:02Z</time>
      </trkpt>
      <trkpt lat="43.32723" lon="-0.81046">
        <ele>123.008</ele>
        <time>2016-09-25T20:08:22Z</time>
      </trkpt>
      <trkpt lat="43.32639" lon="-0.8117">
        <ele>130.011</ele>
        <time>2016-09-25T20:08:42Z</time>
      </trkpt>
      <trkpt lat="43.32612" lon="-0.81301">
        <ele>130.058</ele>
        <time>2016-09-25T20:09:02Z</time>
      </trkpt>
      <trkpt lat="43.32515" lon="-0.814">
        <ele>128.978</ele>
        <time>2016-09-25T20:09:22Z</time>
      </trkpt>
      <trkpt lat="43.3247" lon="-0.81496">
        <ele>128.918</ele>
        <time>2016-09-25T20:09:42Z</time>
      </trkpt>
      <trkpt lat="43.32473" lon="-0.81604">
        <ele>126.473</ele>
        <time>2016-09-25T20:10:02Z</time>
      </trkpt>
      <trkpt lat="43.32509" lon="-0.81797">
        <ele>126.732</ele>
        <time>2016-09-25T20:10:22Z</time>
      </trkpt>
      <trkpt lat="43.32451" lon="-0.82031">
        <ele>126.619</ele>
        <time>2016-09-25T20:10:42Z</time>
      </trkpt>
      <trkpt lat="43.32476" lon="-0.82059">
        <ele>128.363</ele>
        <time>2016-09-25T20:11:02Z</time>
      </trkpt>
      <trkpt lat="43.32465" lon="-0.8214">
        <ele>128.577</ele>
        <time>2016-09-25T20:11:22Z</time>
      </trkpt>
      <trkpt lat="43.32494" lon="-0.82164">
        <ele>132.761</ele>
        <time>2016-09-25T20:11:42Z</time>
      </trkpt>
      <trkpt lat="43.32515" lon="-0.8223">
        <ele>138.727</ele>
        <time>2016-09-25T20:12:02Z</time>
      </trkpt>
      <trkpt lat="43.32553" lon="-0.82265">
        <ele>142.308</ele>
        <time>2016-09-25T20:12:22Z</time>
      </trkpt>
      <trkpt lat="43.32558" lon="-0.82297">
        <ele>143.393</ele>
        <time>2016-09-25T20:12:42Z</time>
      </trkpt>
      <trkpt lat="43.32575" lon="-0.82305">
        <ele>146.49</ele>
        <time>2016-09-25T20:13:02Z</time>
      </trkpt>
      <trkpt lat="43.32651" lon="-0.82458">
        <ele>149.62</ele>
        <time>2016-09-25T20:13:22Z</time>
      </trkpt>
      <trkpt lat="43.32684" lon="-0.82481">
        <ele>151.59</ele>
        <time>2016-09-25T20:13:42Z</time>
      </trkpt>
      <trkpt lat="43.32756" lon="-0.82623">
        <ele>158.825</ele>
        <time>2016-09-25T20:14:02Z</time>
      </trkpt>
      <trkpt lat="43.32795" lon="-0.82571">
        <ele>159.724</ele>
        <time>2016-09-25T20:14:22Z</time>
      </trkpt>
      <trkpt lat="43.32959" lon="-0.82745">
        <ele>160.031</ele>
        <time>2016-09-25T20:14:42Z</time>
      </trkpt>
      <trkpt lat="43.33119" lon="-0.8288">
        <ele>166.375</ele>
        <time>2016-09-25T20:15:02Z</time>
      </trkpt>
      <trkpt lat="43.33165" lon="-0.83005">
        <ele>170.221</ele>
        <time>2016-09-25T20:15:22Z</time>
      </trkpt>
      <trkpt lat="43.33162" lon="-0.83095">
        <ele>170.741</ele>
        <time>2016-09-25T20:15:42Z</time>
      </trkpt>
      <trkpt lat="43.33023" lon="-0.83005">
        <ele>165.005</ele>
        <time>2016-09-25T20:16:02Z</time>
      </trkpt>
      <trkpt lat="43.32932" lon="-0.83018">
        <ele>159.308</ele>
        <time>2016-09-25T20:16:22Z</time>
      </trkpt>
      <trkpt lat="43.32692" lon="-0.82938">
        <ele>141.128</ele>
        <time>2016-09-25T20:16:42Z</time>
      </trkpt>
      <trkpt lat="43.32625" lon="-0.83024">
        <ele>135.035</ele>
        <time>2016-09-25T20:17:02Z</time>
      </trkpt>
      <trkpt lat="43.32646" lon="-0.83095">
        <ele>135.015</ele>
        <time>2016-09-25T20:17:22Z</time>
      </trkpt>
      <trkpt lat="43.32579" lon="-0.83181">
        <ele>141.745</ele>
        <time>2016-09-25T20:17:42Z</time>
      </trkpt>
      <trkpt lat="43.32539" lon="-0.8314">
        <ele>148.01</ele>
        <time>2016-09-25T20:18:02Z</time>
      </trkpt>
      <trkpt lat="43.32506" lon="-0.83155">
        <ele>152.829</ele>
        <time>2016-09-25T20:18:22Z</time>
      </trkpt>
      <trkpt lat="43.32472" lon="-0.83256">
        <ele>160.08</ele>
        <time>2016-09-25T20:19:02Z</time>
      </trkpt>
      <trkpt lat="43.32431" lon="-0.83307">
        <ele>160.019</ele>
        <time>2016-09-25T20:19:22Z</time>
      </trkpt>
      <trkpt lat="43.32392" lon="-0.83425">
        <ele>161.809</ele>
        <time>2016-09-25T20:19:42Z</time>
      </trkpt>
      <trkpt lat="43.32195" lon="-0.83507">
        <ele>170.019</ele>
        <time>2016-09-25T20:20:02Z</time>
      </trkpt>
      <trkpt lat="43.3203" lon="-0.83531">
        <ele>178.508</ele>
        <time>2016-09-25T20:20:22Z</time>
      </trkpt>
      <trkpt lat="43.31981" lon="-0.83556">
        <ele>180.057</ele>
        <time>2016-09-25T20:20:42Z</time>
      </trkpt>
      <trkpt lat="43.31739" lon="-0.83636">
        <ele>192.744</ele>
        <time>2016-09-25T20:21:02Z</time>
      </trkpt>
      <trkpt lat="43.31669" lon="-0.8381">
        <ele>193.614</ele>
        <time>2016-09-25T20:21:22Z</time>
      </trkpt>
      <trkpt lat="43.3163" lon="-0.83839">
        <ele>190.214</ele>
        <time>2019-03-30T19:00:25Z</time>
      </trkpt>
      <trkpt lat="43.31582" lon="-0.83979">
        <ele>180.169</ele>
        <time>2019-03-30T19:00:45Z</time>
      </trkpt>
      <trkpt lat="43.31531" lon="-0.84041">
        <ele>170.368</ele>
        <time>2019-03-30T19:01:05Z</time>
      </trkpt>
      <trkpt lat="43.31195" lon="-0.84136">
        <ele>170.015</ele>
        <time>2016-09-25T20:23:02Z</time>
      </trkpt>
      <trkpt lat="43.31188" lon="-0.84174">
        <ele>170.889</ele>
        <time>2016-09-25T20:23:22Z</time>
      </trkpt>
      <trkpt lat="43.31202" lon="-0.84299">
        <ele>162.748</ele>
        <time>2016-09-25T20:23:42Z</time>
      </trkpt>
      <trkpt lat="43.31184" lon="-0.84419">
        <ele>155.061</ele>
        <time>2016-09-25T20:24:02Z</time>
      </trkpt>
      <trkpt lat="43.31062" lon="-0.847">
        <ele>122.017</ele>
        <time>2016-09-25T20:24:22Z</time>
      </trkpt>
      <trkpt lat="43.31073" lon="-0.84788">
        <ele>119.808</ele>
        <time>2016-09-25T20:24:42Z</time>
      </trkpt>
      <trkpt lat="43.30998" lon="-0.8493">
        <ele>119.23</ele>
        <time>2016-09-25T20:25:02Z</time>
      </trkpt>
      <trkpt lat="43.30928" lon="-0.85118">
        <ele>115.097</ele>
        <time>2016-09-25T20:25:22Z</time>
      </trkpt>
      <trkpt lat="43.30926" lon="-0.85256">
        <ele>115.757</ele>
        <time>2016-09-25T20:25:42Z</time>
      </trkpt>
      <trkpt lat="43.30968" lon="-0.85462">
        <ele>117.677</ele>
        <time>2016-09-25T20:26:02Z</time>
      </trkpt>
      <trkpt lat="43.31021" lon="-0.85535">
        <ele>118.652</ele>
        <time>2016-09-25T20:26:22Z</time>
      </trkpt>
      <trkpt lat="43.30956" lon="-0.86021">
        <ele>124.871</ele>
        <time>2019-03-30T19:05:05Z</time>
      </trkpt>
      <trkpt lat="43.30966" lon="-0.86103">
        <ele>122.628</ele>
        <time>2019-03-30T19:05:25Z</time>
      </trkpt>
      <trkpt lat="43.31057" lon="-0.86292">
        <ele>118.542</ele>
        <time>2016-09-25T20:27:02Z</time>
      </trkpt>
      <trkpt lat="43.31074" lon="-0.86414">
        <ele>113.286</ele>
        <time>2016-09-25T20:27:22Z</time>
      </trkpt>
      <trkpt lat="43.31034" lon="-0.86507">
        <ele>110.96</ele>
        <time>2016-09-25T20:27:42Z</time>
      </trkpt>
      <trkpt lat="43.31009" lon="-0.86635">
        <ele>103.126</ele>
        <time>2016-09-25T20:28:02Z</time>
      </trkpt>
      <trkpt lat="43.31001" lon="-0.86814">
        <ele>101.008</ele>
        <time>2016-09-25T20:28:22Z</time>
      </trkpt>
      <trkpt lat="43.31076" lon="-0.86895">
        <ele>101.024</ele>
        <time>2016-09-25T20:28:42Z</time>
      </trkpt>
      <trkpt lat="43.31196" lon="-0.86872">
        <ele>102.081</ele>
        <time>2016-09-25T20:29:02Z</time>
      </trkpt>
      <trkpt lat="43.31309" lon="-0.8688">
        <ele>102.091</ele>
        <time>2016-09-25T20:29:22Z</time>
      </trkpt>
      <trkpt lat="43.31296" lon="-0.8697">
        <ele>101.741</ele>
        <time>2016-09-25T20:29:42Z</time>
      </trkpt>
      <trkpt lat="43.31315" lon="-0.86975">
        <ele>101.946</ele>
        <time>2016-09-25T20:30:02Z</time>
      </trkpt>
      <trkpt lat="43.31315" lon="-0.87026">
        <ele>101.065</ele>
        <time>2016-09-25T20:30:22Z</time>
      </trkpt>
      <trkpt lat="43.31154" lon="-0.86983">
        <ele>101.022</ele>
        <time>2016-09-25T20:30:42Z</time>
      </trkpt>
      <trkpt lat="43.30926" lon="-0.86949">
        <ele>100.066</ele>
        <time>2016-09-25T20:31:02Z</time>
      </trkpt>
      <trkpt lat="43.30725" lon="-0.86904">
        <ele>96.442</ele>
        <time>2016-09-25T20:31:22Z</time>
      </trkpt>
      <trkpt lat="43.30448" lon="-0.87258">
        <ele>105.322</ele>
        <time>2016-09-25T20:31:42Z</time>
      </trkpt>
      <trkpt lat="43.3044" lon="-0.87378">
        <ele>110.014</ele>
        <time>2016-09-25T20:32:02Z</time>
      </trkpt>
      <trkpt lat="43.30405" lon="-0.87414">
        <ele>110.008</ele>
        <time>2016-09-25T20:32:22Z</time>
      </trkpt>
      <trkpt lat="43.30395" lon="-0.87468">
        <ele>109.63</ele>
        <time>2016-09-25T20:32:42Z</time>
      </trkpt>
      <trkpt lat="43.30439" lon="-0.8759">
        <ele>105.267</ele>
        <time>2016-09-25T20:33:02Z</time>
      </trkpt>
      <trkpt lat="43.30431" lon="-0.87668">
        <ele>105.037</ele>
        <time>2016-09-25T20:33:22Z</time>
      </trkpt>
      <trkpt lat="43.30584" lon="-0.87912">
        <ele>112.877</ele>
        <time>2016-09-25T20:33:42Z</time>
      </trkpt>
      <trkpt lat="43.30711" lon="-0.8802">
        <ele>113.092</ele>
        <time>2016-09-25T20:34:02Z</time>
      </trkpt>
      <trkpt lat="43.3091" lon="-0.88397">
        <ele>115.051</ele>
        <time>2016-09-25T20:34:22Z</time>
      </trkpt>
      <trkpt lat="43.31095" lon="-0.88867">
        <ele>123.418</ele>
        <time>2016-09-25T20:34:42Z</time>
      </trkpt>
      <trkpt lat="43.31095" lon="-0.88925">
        <ele>124.442</ele>
        <time>2016-09-25T20:35:02Z</time>
      </trkpt>
      <trkpt lat="43.31149" lon="-0.89135">
        <ele>129.895</ele>
        <time>2016-09-25T20:35:22Z</time>
      </trkpt>
      <trkpt lat="43.3129" lon="-0.89421">
        <ele>145.649</ele>
        <time>2016-09-25T20:35:42Z</time>
      </trkpt>
      <trkpt lat="43.31368" lon="-0.89792">
        <ele>170.023</ele>
        <time>2016-09-25T20:36:02Z</time>
      </trkpt>
      <trkpt lat="43.31362" lon="-0.89833">
        <ele>169.908</ele>
        <time>2016-09-25T20:36:22Z</time>
      </trkpt>
      <trkpt lat="43.31254" lon="-0.89822">
        <ele>175.115</ele>
        <time>2016-09-25T20:36:42Z</time>
      </trkpt>
      <trkpt lat="43.31198" lon="-0.89867">
        <ele>179.022</ele>
        <time>2016-09-25T20:37:02Z</time>
      </trkpt>
      <trkpt lat="43.30993" lon="-0.89835">
        <ele>165.872</ele>
        <time>2016-09-25T20:37:22Z</time>
      </trkpt>
      <trkpt lat="43.30928" lon="-0.89785">
        <ele>165.052</ele>
        <time>2016-09-25T20:37:42Z</time>
      </trkpt>
      <trkpt lat="43.3075" lon="-0.89766">
        <ele>161.417</ele>
        <time>2016-09-25T20:38:02Z</time>
      </trkpt>
      <trkpt lat="43.30754" lon="-0.89899">
        <ele>161.226</ele>
        <time>2016-09-25T20:38:22Z</time>
      </trkpt>
      <trkpt lat="43.30867" lon="-0.9044">
        <ele>134.313</ele>
        <time>2016-09-25T20:38:42Z</time>
      </trkpt>
      <trkpt lat="43.30836" lon="-0.90429">
        <ele>128.617</ele>
        <time>2016-09-25T20:39:02Z</time>
      </trkpt>
      <trkpt lat="43.30882" lon="-0.90534">
        <ele>126.815</ele>
        <time>2016-09-25T20:39:22Z</time>
      </trkpt>
      <trkpt lat="43.31015" lon="-0.90624">
        <ele>110.065</ele>
        <time>2016-09-25T20:39:42Z</time>
      </trkpt>
      <trkpt lat="43.31168" lon="-0.90796">
        <ele>108.311</ele>
        <time>2016-09-25T20:40:02Z</time>
      </trkpt>
      <trkpt lat="43.31246" lon="-0.90843">
        <ele>101.308</ele>
        <time>2016-09-25T20:40:22Z</time>
      </trkpt>
      <trkpt lat="43.31293" lon="-0.90895">
        <ele>103.027</ele>
        <time>2016-09-25T20:40:42Z</time>
      </trkpt>
      <trkpt lat="43.31343" lon="-0.91232">
        <ele>102.814</ele>
        <time>2016-09-25T20:41:02Z</time>
      </trkpt>
      <trkpt lat="43.31432" lon="-0.91483">
        <ele>107.424</ele>
        <time>2016-09-25T20:41:22Z</time>
      </trkpt>
      <trkpt lat="43.31348" lon="-0.91463">
        <ele>105.224</ele>
        <time>2016-09-25T20:41:42Z</time>
      </trkpt>
      <trkpt lat="43.31218" lon="-0.91511">
        <ele>109.159</ele>
        <time>2016-09-25T20:42:02Z</time>
      </trkpt>
      <trkpt lat="43.31071" lon="-0.9162">
        <ele>110.288</ele>
        <time>2016-09-25T20:42:22Z</time>
      </trkpt>
      <trkpt lat="43.309" lon="-0.91695">
        <ele>111.355</ele>
        <time>2016-09-25T20:42:42Z</time>
      </trkpt>
      <trkpt lat="43.30793" lon="-0.91787">
        <ele>115.289</ele>
        <time>2016-09-25T20:43:02Z</time>
      </trkpt>
      <trkpt lat="43.3074" lon="-0.91888">
        <ele>114.668</ele>
        <time>2016-09-25T20:43:22Z</time>
      </trkpt>
      <trkpt lat="43.30659" lon="-0.92127">
        <ele>114.442</ele>
        <time>2016-09-25T20:43:42Z</time>
      </trkpt>
      <trkpt lat="43.30597" lon="-0.92245">
        <ele>114.326</ele>
        <time>2016-09-25T20:44:02Z</time>
      </trkpt>
      <trkpt lat="43.3049" lon="-0.92333">
        <ele>111.608</ele>
        <time>2016-09-25T20:44:22Z</time>
      </trkpt>
      <trkpt lat="43.30389" lon="-0.9236">
        <ele>110.042</ele>
        <time>2016-09-25T20:44:42Z</time>
      </trkpt>
      <trkpt lat="43.30326" lon="-0.92302">
        <ele>111.849</ele>
        <time>2016-09-25T20:45:02Z</time>
      </trkpt>
      <trkpt lat="43.30239" lon="-0.92285">
        <ele>114.469</ele>
        <time>2016-09-25T20:45:22Z</time>
      </trkpt>
      <trkpt lat="43.30142" lon="-0.923">
        <ele>116.749</ele>
        <time>2016-09-25T20:45:42Z</time>
      </trkpt>
      <trkpt lat="43.30094" lon="-0.9233">
        <ele>116.454</ele>
        <time>2016-09-25T20:46:02Z</time>
      </trkpt>
      <trkpt lat="43.29963" lon="-0.9235">
        <ele>120.393</ele>
        <time>2016-09-25T20:46:22Z</time>
      </trkpt>
      <trkpt lat="43.29899" lon="-0.92408">
        <ele>119.69</ele>
        <time>2016-09-25T20:46:42Z</time>
      </trkpt>
      <trkpt lat="43.29839" lon="-0.92365">
        <ele>122.844</ele>
        <time>2016-09-25T20:47:02Z</time>
      </trkpt>
      <trkpt lat="43.29775" lon="-0.92371">
        <ele>123.752</ele>
        <time>2016-09-25T20:47:22Z</time>
      </trkpt>
      <trkpt lat="43.29766" lon="-0.92457">
        <ele>131.153</ele>
        <time>2016-09-25T20:47:42Z</time>
      </trkpt>
      <trkpt lat="43.29647" lon="-0.92652">
        <ele>150.508</ele>
        <time>2016-09-25T20:48:02Z</time>
      </trkpt>
      <trkpt lat="43.29603" lon="-0.9277">
        <ele>164.208</ele>
        <time>2016-09-25T20:48:22Z</time>
      </trkpt>
      <trkpt lat="43.29472" lon="-0.92865">
        <ele>180.011</ele>
        <time>2016-09-25T20:48:42Z</time>
      </trkpt>
      <trkpt lat="43.29424" lon="-0.93006">
        <ele>189.918</ele>
        <time>2016-09-25T20:49:02Z</time>
      </trkpt>
      <trkpt lat="43.29416" lon="-0.93086">
        <ele>196.148</ele>
        <time>2016-09-25T20:49:22Z</time>
      </trkpt>
      <trkpt lat="43.29541" lon="-0.93438">
        <ele>207.168</ele>
        <time>2016-09-25T20:49:42Z</time>
      </trkpt>
      <trkpt lat="43.29547" lon="-0.93579">
        <ele>214.023</ele>
        <time>2016-09-25T20:50:02Z</time>
      </trkpt>
      <trkpt lat="43.29416" lon="-0.93856">
        <ele>199.742</ele>
        <time>2016-09-25T20:50:22Z</time>
      </trkpt>
      <trkpt lat="43.29449" lon="-0.94032">
        <ele>191.789</ele>
        <time>2016-09-25T20:50:42Z</time>
      </trkpt>
      <trkpt lat="43.29541" lon="-0.94086">
        <ele>181.393</ele>
        <time>2016-09-25T20:51:02Z</time>
      </trkpt>
      <trkpt lat="43.2958" lon="-0.94122">
        <ele>180.417</ele>
        <time>2016-09-25T20:51:22Z</time>
      </trkpt>
      <trkpt lat="43.29727" lon="-0.94034">
        <ele>177.987</ele>
        <time>2016-09-25T20:51:42Z</time>
      </trkpt>
      <trkpt lat="43.29866" lon="-0.93923">
        <ele>165.615</ele>
        <time>2016-09-25T20:52:02Z</time>
      </trkpt>
      <trkpt lat="43.29897" lon="-0.93957">
        <ele>173.808</ele>
        <time>2016-09-25T20:52:22Z</time>
      </trkpt>
      <trkpt lat="43.29988" lon="-0.93927">
        <ele>172.177</ele>
        <time>2016-09-25T20:52:42Z</time>
      </trkpt>
      <trkpt lat="43.30053" lon="-0.93841">
        <ele>182.964</ele>
        <time>2016-09-25T20:53:02Z</time>
      </trkpt>
      <trkpt lat="43.3005" lon="-0.93764">
        <ele>182.254</ele>
        <time>2016-09-25T20:53:22Z</time>
      </trkpt>
      <trkpt lat="43.30078" lon="-0.93734">
        <ele>185.034</ele>
        <time>2016-09-25T20:53:42Z</time>
      </trkpt>
      <trkpt lat="43.30147" lon="-0.93753">
        <ele>185.089</ele>
        <time>2016-09-25T20:54:02Z</time>
      </trkpt>
      <trkpt lat="43.30222" lon="-0.9368">
        <ele>176.488</ele>
        <time>2016-09-25T20:54:22Z</time>
      </trkpt>
      <trkpt lat="43.3023" lon="-0.93626">
        <ele>176.065</ele>
        <time>2016-09-25T20:54:42Z</time>
      </trkpt>
      <trkpt lat="43.30284" lon="-0.93609">
        <ele>165.579</ele>
        <time>2016-09-25T20:55:02Z</time>
      </trkpt>
      <trkpt lat="43.30342" lon="-0.93564">
        <ele>163.331</ele>
        <time>2016-09-25T20:55:22Z</time>
      </trkpt>
      <trkpt lat="43.30298" lon="-0.93648">
        <ele>159.161</ele>
        <time>2016-09-25T20:55:42Z</time>
      </trkpt>
      <trkpt lat="43.30326" lon="-0.93747">
        <ele>145.707</ele>
        <time>2016-09-25T20:56:02Z</time>
      </trkpt>
      <trkpt lat="43.30398" lon="-0.93877">
        <ele>129.908</ele>
        <time>2016-09-25T20:56:22Z</time>
      </trkpt>
      <trkpt lat="43.30403" lon="-0.93914">
        <ele>129.529</ele>
        <time>2016-09-25T20:56:42Z</time>
      </trkpt>
      <trkpt lat="43.30444" lon="-0.93965">
        <ele>120.486</ele>
        <time>2016-09-25T20:57:02Z</time>
      </trkpt>
      <trkpt lat="43.30484" lon="-0.94038">
        <ele>117.376</ele>
        <time>2016-09-25T20:57:22Z</time>
      </trkpt>
      <trkpt lat="43.30469" lon="-0.94124">
        <ele>111.336</ele>
        <time>2016-09-25T20:57:42Z</time>
      </trkpt>
      <trkpt lat="43.30465" lon="-0.94197">
        <ele>110.211</ele>
        <time>2016-09-25T20:58:02Z</time>
      </trkpt>
      <trkpt lat="43.30519" lon="-0.94253">
        <ele>108.92</ele>
        <time>2016-09-25T20:58:22Z</time>
      </trkpt>
      <trkpt lat="43.30637" lon="-0.94347">
        <ele>102.457</ele>
        <time>2016-09-25T20:58:42Z</time>
      </trkpt>
      <trkpt lat="43.30667" lon="-0.94414">
        <ele>107.241</ele>
        <time>2016-09-25T20:59:02Z</time>
      </trkpt>
      <trkpt lat="43.30701" lon="-0.94457">
        <ele>101.334</ele>
        <time>2016-09-25T20:59:22Z</time>
      </trkpt>
      <trkpt lat="43.30742" lon="-0.94446">
        <ele>100.255</ele>
        <time>2016-09-25T20:59:42Z</time>
      </trkpt>
      <trkpt lat="43.30818" lon="-0.94457">
        <ele>99.11</ele>
        <time>2016-09-25T21:00:02Z</time>
      </trkpt>
      <trkpt lat="43.30857" lon="-0.94536">
        <ele>99.008</ele>
        <time>2016-09-25T21:00:22Z</time>
      </trkpt>
      <trkpt lat="43.30885" lon="-0.94631">
        <ele>101.729</ele>
        <time>2016-09-25T21:00:42Z</time>
      </trkpt>
      <trkpt lat="43.3096" lon="-0.94586">
        <ele>99.726</ele>
        <time>2016-09-25T21:01:02Z</time>
      </trkpt>
      <trkpt lat="43.30957" lon="-0.94665">
        <ele>102.466</ele>
        <time>2016-09-25T21:01:22Z</time>
      </trkpt>
      <trkpt lat="43.30942" lon="-0.94738">
        <ele>105.186</ele>
        <time>2016-09-25T21:01:42Z</time>
      </trkpt>
      <trkpt lat="43.3096" lon="-0.94841">
        <ele>106.991</ele>
        <time>2016-09-25T21:02:02Z</time>
      </trkpt>
      <trkpt lat="43.30937" lon="-0.94929">
        <ele>110.08</ele>
        <time>2016-09-25T21:02:22Z</time>
      </trkpt>
      <trkpt lat="43.30825" lon="-0.95051">
        <ele>111.367</ele>
        <time>2016-09-25T21:02:42Z</time>
      </trkpt>
      <trkpt lat="43.30778" lon="-0.95128">
        <ele>111.691</ele>
        <time>2016-09-25T21:03:02Z</time>
      </trkpt>
      <trkpt lat="43.30743" lon="-0.95347">
        <ele>119.384</ele>
        <time>2016-09-25T21:03:22Z</time>
      </trkpt>
      <trkpt lat="43.30645" lon="-0.95547">
        <ele>120.307</ele>
        <time>2016-09-25T21:03:42Z</time>
      </trkpt>
      <trkpt lat="43.30565" lon="-0.95575">
        <ele>113.517</ele>
        <time>2016-09-25T21:04:02Z</time>
      </trkpt>
      <trkpt lat="43.30639" lon="-0.95839">
        <ele>129.008</ele>
        <time>2016-09-25T21:04:22Z</time>
      </trkpt>
      <trkpt lat="43.30576" lon="-0.95905">
        <ele>135.964</ele>
        <time>2016-09-25T21:04:42Z</time>
      </trkpt>
      <trkpt lat="43.30757" lon="-0.96201">
        <ele>142.881</ele>
        <time>2016-09-25T21:05:02Z</time>
      </trkpt>
      <trkpt lat="43.3085" lon="-0.96463">
        <ele>136.411</ele>
        <time>2016-09-25T21:05:22Z</time>
      </trkpt>
      <trkpt lat="43.30843" lon="-0.96547">
        <ele>129.151</ele>
        <time>2016-09-25T21:05:42Z</time>
      </trkpt>
      <trkpt lat="43.30862" lon="-0.96566">
        <ele>127.656</ele>
        <time>2016-09-25T21:06:02Z</time>
      </trkpt>
      <trkpt lat="43.30895" lon="-0.9656">
        <ele>129.395</ele>
        <time>2016-09-25T21:06:22Z</time>
      </trkpt>
      <trkpt lat="43.30776" lon="-0.96695">
        <ele>135.272</ele>
        <time>2016-09-25T21:06:42Z</time>
      </trkpt>
      <trkpt lat="43.30697" lon="-0.96742">
        <ele>143.696</ele>
        <time>2016-09-25T21:07:02Z</time>
      </trkpt>
      <trkpt lat="43.30558" lon="-0.96796">
        <ele>150.059</ele>
        <time>2016-09-25T21:07:22Z</time>
      </trkpt>
      <trkpt lat="43.30469" lon="-0.96856">
        <ele>158.703</ele>
        <time>2016-09-25T21:07:42Z</time>
      </trkpt>
      <trkpt lat="43.30417" lon="-0.96824">
        <ele>159.723</ele>
        <time>2016-09-25T21:08:02Z</time>
      </trkpt>
      <trkpt lat="43.30364" lon="-0.96744">
        <ele>162.408</ele>
        <time>2016-09-25T21:08:22Z</time>
      </trkpt>
      <trkpt lat="43.30283" lon="-0.96729">
        <ele>168.331</ele>
        <time>2016-09-25T21:08:42Z</time>
      </trkpt>
      <trkpt lat="43.30177" lon="-0.96637">
        <ele>161.718</ele>
        <time>2016-09-25T21:09:02Z</time>
      </trkpt>
      <trkpt lat="43.30019" lon="-0.96594">
        <ele>154.268</ele>
        <time>2016-09-25T21:09:22Z</time>
      </trkpt>
      <trkpt lat="43.299" lon="-0.96628">
        <ele>170.968</ele>
        <time>2016-09-25T21:09:42Z</time>
      </trkpt>
      <trkpt lat="43.29849" lon="-0.96727">
        <ele>173.443</ele>
        <time>2016-09-25T21:10:02Z</time>
      </trkpt>
      <trkpt lat="43.2976" lon="-0.96858">
        <ele>181.522</ele>
        <time>2016-09-25T21:10:22Z</time>
      </trkpt>
      <trkpt lat="43.29733" lon="-0.96954">
        <ele>181.779</ele>
        <time>2016-09-25T21:10:42Z</time>
      </trkpt>
      <trkpt lat="43.29703" lon="-0.96972">
        <ele>181.293</ele>
        <time>2016-09-25T21:11:02Z</time>
      </trkpt>
      <trkpt lat="43.29669" lon="-0.9697">
        <ele>178.815</ele>
        <time>2016-09-25T21:11:22Z</time>
      </trkpt>
      <trkpt lat="43.29475" lon="-0.97088">
        <ele>176.365</ele>
        <time>2016-09-25T21:11:42Z</time>
      </trkpt>
      <trkpt lat="43.29452" lon="-0.97229">
        <ele>186.011</ele>
        <time>2016-09-25T21:12:02Z</time>
      </trkpt>
      <trkpt lat="43.29379" lon="-0.97251">
        <ele>186.008</ele>
        <time>2016-09-25T21:12:22Z</time>
      </trkpt>
      <trkpt lat="43.29339" lon="-0.97294">
        <ele>184.987</ele>
        <time>2016-09-25T21:12:42Z</time>
      </trkpt>
      <trkpt lat="43.29271" lon="-0.97489">
        <ele>188.544</ele>
        <time>2016-09-25T21:13:02Z</time>
      </trkpt>
      <trkpt lat="43.29236" lon="-0.97645">
        <ele>195.064</ele>
        <time>2016-09-25T21:13:22Z</time>
      </trkpt>
      <trkpt lat="43.29193" lon="-0.97684">
        <ele>192.554</ele>
        <time>2016-09-25T21:13:42Z</time>
      </trkpt>
      <trkpt lat="43.29274" lon="-0.97809">
        <ele>177.089</ele>
        <time>2016-09-25T21:14:02Z</time>
      </trkpt>
      <trkpt lat="43.29246" lon="-0.97886">
        <ele>174.328</ele>
        <time>2016-09-25T21:14:22Z</time>
      </trkpt>
      <trkpt lat="43.29205" lon="-0.97931">
        <ele>164.655</ele>
        <time>2016-09-25T21:14:42Z</time>
      </trkpt>
      <trkpt lat="43.29115" lon="-0.97942">
        <ele>148.439</ele>
        <time>2016-09-25T21:15:02Z</time>
      </trkpt>
      <trkpt lat="43.29026" lon="-0.97982">
        <ele>141.919</ele>
        <time>2016-09-25T21:15:22Z</time>
      </trkpt>
      <trkpt lat="43.2893" lon="-0.98152">
        <ele>130.309</ele>
        <time>2016-09-25T21:15:42Z</time>
      </trkpt>
      <trkpt lat="43.28827" lon="-0.98263">
        <ele>121.219</ele>
        <time>2016-09-25T21:16:02Z</time>
      </trkpt>
      <trkpt lat="43.28746" lon="-0.98339">
        <ele>120.108</ele>
        <time>2016-09-25T21:16:22Z</time>
      </trkpt>
      <trkpt lat="43.28687" lon="-0.98583">
        <ele>114.537</ele>
        <time>2016-09-25T21:16:42Z</time>
      </trkpt>
      <trkpt lat="43.28704" lon="-0.98787">
        <ele>105.144</ele>
        <time>2016-09-25T21:17:02Z</time>
      </trkpt>
      <trkpt lat="43.28669" lon="-0.98993">
        <ele>97.734</ele>
        <time>2016-09-25T21:17:22Z</time>
      </trkpt>
      <trkpt lat="43.28699" lon="-0.99006">
        <ele>94.864</ele>
        <time>2016-09-25T21:17:42Z</time>
      </trkpt>
      <trkpt lat="43.28833" lon="-0.99244">
        <ele>92.489</ele>
        <time>2016-09-25T21:18:02Z</time>
      </trkpt>
      <trkpt lat="43.29008" lon="-0.99759">
        <ele>86.638</ele>
        <time>2016-09-25T21:18:22Z</time>
      </trkpt>
      <trkpt lat="43.29229" lon="-0.99969">
        <ele>88.745</ele>
        <time>2016-09-25T21:18:42Z</time>
      </trkpt>
      <trkpt lat="43.2926" lon="-1.00066">
        <ele>90.699</ele>
        <time>2016-09-25T21:19:02Z</time>
      </trkpt>
      <trkpt lat="43.29047" lon="-1.00418">
        <ele>110.058</ele>
        <time>2016-09-25T21:19:22Z</time>
      </trkpt>
      <trkpt lat="43.29044" lon="-1.00577">
        <ele>117.752</ele>
        <time>2016-09-25T21:19:42Z</time>
      </trkpt>
      <trkpt lat="43.29066" lon="-1.00695">
        <ele>125.517</ele>
        <time>2016-09-25T21:20:02Z</time>
      </trkpt>
      <trkpt lat="43.29108" lon="-1.00808">
        <ele>131.308</ele>
        <time>2016-09-25T21:20:22Z</time>
      </trkpt>
      <trkpt lat="43.29099" lon="-1.00862">
        <ele>135.381</ele>
        <time>2016-09-25T21:20:42Z</time>
      </trkpt>
      <trkpt lat="43.29134" lon="-1.01155">
        <ele>132.148</ele>
        <time>2019-03-30T19:59:45Z</time>
      </trkpt>
      <trkpt lat="43.29154" lon="-1.01201">
        <ele>129.528</ele>
        <time>2019-03-30T20:00:05Z</time>
      </trkpt>
      <trkpt lat="43.29261" lon="-1.01235">
        <ele>125.218</ele>
        <time>2019-03-30T20:00:25Z</time>
      </trkpt>
    </trkseg>
  </trk>
  <trk>
    <name><![CDATA[GR®65 Via Podiensis De Larribar-Sorhapuru (Pyrénées-Atlantiques) à Roncesvalles (Espagne) (2021)]]></name>
    <desc><![CDATA[Randonnée avec le GR®65 Via Podiensis. Pèlerinage de Saint Jacques de Compostelle, à travers les Landes et les Pyrénées-Atlantique de Larribar-Sorhapuru à Roncevaux en Espagne. Gîtes d'étapes, Chambres d'hôtes, Hôtels, Camping, Refuges, Auberges.]]></desc>
    <extensions>
      <line xmlns="http://www.topografix.com/GPX/gpx_style/0/2">
        <color>000000</color>
        <width>4</width>
      </line>
    </extensions>
    <trkseg>
      <trkpt lat="43.29271" lon="-1.01257">
        <ele>122.828</ele>
        <time>2016-09-28T14:12:59Z</time>
      </trkpt>
      <trkpt lat="43.2925" lon="-1.01332">
        <ele>118.217</ele>
        <time>2016-09-28T14:13:39Z</time>
      </trkpt>
      <trkpt lat="43.29276" lon="-1.01508">
        <ele>109.508</ele>
        <time>2016-09-28T14:14:19Z</time>
      </trkpt>
      <trkpt lat="43.29335" lon="-1.01566">
        <ele>99.768</ele>
        <time>2016-09-28T14:14:59Z</time>
      </trkpt>
      <trkpt lat="43.29374" lon="-1.01658">
        <ele>92.965</ele>
        <time>2016-09-28T14:15:39Z</time>
      </trkpt>
      <trkpt lat="43.29396" lon="-1.01753">
        <ele>89.655</ele>
        <time>2016-09-28T14:16:19Z</time>
      </trkpt>
      <trkpt lat="43.29493" lon="-1.01879">
        <ele>86.496</ele>
        <time>2016-09-28T14:16:59Z</time>
      </trkpt>
      <trkpt lat="43.29554" lon="-1.01993">
        <ele>82.215</ele>
        <time>2016-09-28T14:17:39Z</time>
      </trkpt>
      <trkpt lat="43.29599" lon="-1.02169">
        <ele>82.427</ele>
        <time>2016-09-28T14:18:19Z</time>
      </trkpt>
      <trkpt lat="43.29632" lon="-1.02163">
        <ele>84.198</ele>
        <time>2016-09-28T14:18:59Z</time>
      </trkpt>
      <trkpt lat="43.29657" lon="-1.02191">
        <ele>81.65</ele>
        <time>2016-09-28T14:19:39Z</time>
      </trkpt>
      <trkpt lat="43.29688" lon="-1.02165">
        <ele>75.911</ele>
        <time>2016-09-28T14:20:19Z</time>
      </trkpt>
      <trkpt lat="43.29801" lon="-1.02186">
        <ele>61.921</ele>
        <time>2016-09-28T14:20:59Z</time>
      </trkpt>
      <trkpt lat="43.29809" lon="-1.02298">
        <ele>60.103</ele>
        <time>2016-09-28T14:21:39Z</time>
      </trkpt>
      <trkpt lat="43.29865" lon="-1.02324">
        <ele>65.308</ele>
        <time>2016-09-28T14:22:19Z</time>
      </trkpt>
      <trkpt lat="43.29874" lon="-1.02465">
        <ele>72.587</ele>
        <time>2016-09-28T14:22:59Z</time>
      </trkpt>
      <trkpt lat="43.2991" lon="-1.02583">
        <ele>86.614</ele>
        <time>2016-09-28T14:23:39Z</time>
      </trkpt>
      <trkpt lat="43.2989" lon="-1.0265">
        <ele>87.874</ele>
        <time>2016-09-28T14:24:19Z</time>
      </trkpt>
      <trkpt lat="43.2994" lon="-1.02723">
        <ele>99.465</ele>
        <time>2016-09-28T14:24:59Z</time>
      </trkpt>
      <trkpt lat="43.29921" lon="-1.02819">
        <ele>110.544</ele>
        <time>2016-09-28T14:25:39Z</time>
      </trkpt>
      <trkpt lat="43.29888" lon="-1.02875">
        <ele>114.836</ele>
        <time>2016-09-28T14:26:19Z</time>
      </trkpt>
      <trkpt lat="43.29884" lon="-1.03034">
        <ele>132.997</ele>
        <time>2016-09-28T14:26:59Z</time>
      </trkpt>
      <trkpt lat="43.2986" lon="-1.0307">
        <ele>133.519</ele>
        <time>2016-09-28T14:27:39Z</time>
      </trkpt>
      <trkpt lat="43.29877" lon="-1.033">
        <ele>144.365</ele>
        <time>2016-09-28T14:28:19Z</time>
      </trkpt>
      <trkpt lat="43.29879" lon="-1.03431">
        <ele>144.468</ele>
        <time>2016-09-28T14:28:59Z</time>
      </trkpt>
      <trkpt lat="43.29916" lon="-1.03562">
        <ele>150.814</ele>
        <time>2016-09-28T14:29:39Z</time>
      </trkpt>
      <trkpt lat="43.29648" lon="-1.03764">
        <ele>171.608</ele>
        <time>2016-09-28T14:30:19Z</time>
      </trkpt>
      <trkpt lat="43.29545" lon="-1.0381">
        <ele>191.062</ele>
        <time>2016-09-28T14:30:59Z</time>
      </trkpt>
      <trkpt lat="43.29379" lon="-1.03962">
        <ele>221.079</ele>
        <time>2016-09-28T14:31:39Z</time>
      </trkpt>
      <trkpt lat="43.29284" lon="-1.04022">
        <ele>235.739</ele>
        <time>2016-09-28T14:32:19Z</time>
      </trkpt>
      <trkpt lat="43.29189" lon="-1.04099">
        <ele>255.08</ele>
        <time>2016-09-28T14:32:59Z</time>
      </trkpt>
      <trkpt lat="43.29076" lon="-1.04108">
        <ele>262.749</ele>
        <time>2016-09-28T14:33:39Z</time>
      </trkpt>
      <trkpt lat="43.28864" lon="-1.04194">
        <ele>280.011</ele>
        <time>2016-09-28T14:34:19Z</time>
      </trkpt>
      <trkpt lat="43.28803" lon="-1.04196">
        <ele>282.892</ele>
        <time>2016-09-28T14:34:59Z</time>
      </trkpt>
      <trkpt lat="43.286" lon="-1.04217">
        <ele>275.084</ele>
        <time>2016-09-28T14:35:39Z</time>
      </trkpt>
      <trkpt lat="43.28408" lon="-1.0437">
        <ele>289.982</ele>
        <time>2016-09-28T14:36:19Z</time>
      </trkpt>
      <trkpt lat="43.28382" lon="-1.04308">
        <ele>286.117</ele>
        <time>2016-09-28T14:37:39Z</time>
      </trkpt>
      <trkpt lat="43.28296" lon="-1.04328">
        <ele>280.508</ele>
        <time>2016-09-28T14:38:19Z</time>
      </trkpt>
      <trkpt lat="43.28216" lon="-1.04377">
        <ele>269.454</ele>
        <time>2016-09-28T14:38:59Z</time>
      </trkpt>
      <trkpt lat="43.28101" lon="-1.04504">
        <ele>253.381</ele>
        <time>2016-09-28T14:39:39Z</time>
      </trkpt>
      <trkpt lat="43.28004" lon="-1.04497">
        <ele>244.951</ele>
        <time>2016-09-28T14:40:19Z</time>
      </trkpt>
      <trkpt lat="43.27846" lon="-1.04377">
        <ele>235.222</ele>
        <time>2016-09-28T14:40:59Z</time>
      </trkpt>
      <trkpt lat="43.27796" lon="-1.04321">
        <ele>224.061</ele>
        <time>2016-09-28T14:41:39Z</time>
      </trkpt>
      <trkpt lat="43.27649" lon="-1.0439">
        <ele>199.893</ele>
        <time>2016-09-28T14:42:19Z</time>
      </trkpt>
      <trkpt lat="43.27604" lon="-1.04433">
        <ele>191.044</ele>
        <time>2016-09-28T14:42:59Z</time>
      </trkpt>
      <trkpt lat="43.27546" lon="-1.04452">
        <ele>180.776</ele>
        <time>2016-09-28T14:43:39Z</time>
      </trkpt>
      <trkpt lat="43.2751" lon="-1.04517">
        <ele>169.179</ele>
        <time>2016-09-28T14:44:19Z</time>
      </trkpt>
      <trkpt lat="43.27516" lon="-1.04572">
        <ele>164.205</ele>
        <time>2016-09-28T14:44:59Z</time>
      </trkpt>
      <trkpt lat="43.27449" lon="-1.04587">
        <ele>157.225</ele>
        <time>2016-09-28T14:45:39Z</time>
      </trkpt>
      <trkpt lat="43.27415" lon="-1.04609">
        <ele>152.108</ele>
        <time>2016-09-28T14:46:19Z</time>
      </trkpt>
      <trkpt lat="43.27276" lon="-1.0466">
        <ele>149.363</ele>
        <time>2016-09-28T14:46:59Z</time>
      </trkpt>
      <trkpt lat="43.2726" lon="-1.04757">
        <ele>147.52</ele>
        <time>2016-09-28T14:47:39Z</time>
      </trkpt>
      <trkpt lat="43.27174" lon="-1.04906">
        <ele>131.17</ele>
        <time>2016-09-28T14:48:19Z</time>
      </trkpt>
      <trkpt lat="43.27195" lon="-1.04945">
        <ele>129.051</ele>
        <time>2016-09-28T14:48:59Z</time>
      </trkpt>
      <trkpt lat="43.27185" lon="-1.04981">
        <ele>122.11</ele>
        <time>2016-09-28T14:49:39Z</time>
      </trkpt>
      <trkpt lat="43.27096" lon="-1.05018">
        <ele>120.572</ele>
        <time>2016-09-28T14:50:19Z</time>
      </trkpt>
      <trkpt lat="43.27049" lon="-1.04919">
        <ele>131.883</ele>
        <time>2016-09-28T14:50:59Z</time>
      </trkpt>
      <trkpt lat="43.26984" lon="-1.05045">
        <ele>149.185</ele>
        <time>2016-09-28T14:51:39Z</time>
      </trkpt>
      <trkpt lat="43.26967" lon="-1.05266">
        <ele>168.066</ele>
        <time>2016-09-28T14:52:19Z</time>
      </trkpt>
      <trkpt lat="43.26934" lon="-1.05354">
        <ele>168.729</ele>
        <time>2016-09-28T14:52:59Z</time>
      </trkpt>
      <trkpt lat="43.26885" lon="-1.05378">
        <ele>166.521</ele>
        <time>2016-09-28T14:53:39Z</time>
      </trkpt>
      <trkpt lat="43.26863" lon="-1.05378">
        <ele>166.808</ele>
        <time>2016-09-28T14:54:19Z</time>
      </trkpt>
      <trkpt lat="43.26777" lon="-1.05412">
        <ele>171.572</ele>
        <time>2016-09-28T14:54:59Z</time>
      </trkpt>
      <trkpt lat="43.26673" lon="-1.05348">
        <ele>165.889</ele>
        <time>2016-09-28T14:55:39Z</time>
      </trkpt>
      <trkpt lat="43.26642" lon="-1.05316">
        <ele>163.649</ele>
        <time>2016-09-28T14:56:19Z</time>
      </trkpt>
      <trkpt lat="43.26617" lon="-1.05329">
        <ele>163.14</ele>
        <time>2016-09-28T14:56:59Z</time>
      </trkpt>
      <trkpt lat="43.26512" lon="-1.05472">
        <ele>150.349</ele>
        <time>2016-09-28T14:57:39Z</time>
      </trkpt>
      <trkpt lat="43.26517" lon="-1.05543">
        <ele>144.461</ele>
        <time>2016-09-28T14:58:19Z</time>
      </trkpt>
      <trkpt lat="43.2644" lon="-1.05552">
        <ele>140.092</ele>
        <time>2016-09-28T14:58:59Z</time>
      </trkpt>
      <trkpt lat="43.26349" lon="-1.05696">
        <ele>130.064</ele>
        <time>2016-09-28T14:59:39Z</time>
      </trkpt>
      <trkpt lat="43.26248" lon="-1.05691">
        <ele>130.061</ele>
        <time>2016-09-28T15:00:19Z</time>
      </trkpt>
      <trkpt lat="43.26195" lon="-1.05644">
        <ele>129.521</ele>
        <time>2016-09-28T15:00:59Z</time>
      </trkpt>
      <trkpt lat="43.26143" lon="-1.05636">
        <ele>135.813</ele>
        <time>2016-09-28T15:01:39Z</time>
      </trkpt>
      <trkpt lat="43.26138" lon="-1.05839">
        <ele>154.208</ele>
        <time>2016-09-28T15:02:19Z</time>
      </trkpt>
      <trkpt lat="43.26096" lon="-1.05912">
        <ele>155.982</ele>
        <time>2016-09-28T15:02:59Z</time>
      </trkpt>
      <trkpt lat="43.26076" lon="-1.05985">
        <ele>158.919</ele>
        <time>2016-09-28T15:03:39Z</time>
      </trkpt>
      <trkpt lat="43.26032" lon="-1.06039">
        <ele>163.029</ele>
        <time>2016-09-28T15:04:19Z</time>
      </trkpt>
      <trkpt lat="43.25941" lon="-1.06357">
        <ele>172.75</ele>
        <time>2016-09-28T15:04:59Z</time>
      </trkpt>
      <trkpt lat="43.25935" lon="-1.06612">
        <ele>158.089</ele>
        <time>2016-09-28T15:05:39Z</time>
      </trkpt>
      <trkpt lat="43.25951" lon="-1.0665">
        <ele>156.591</ele>
        <time>2016-09-28T15:06:19Z</time>
      </trkpt>
      <trkpt lat="43.25926" lon="-1.067">
        <ele>149.672</ele>
        <time>2016-09-28T15:06:59Z</time>
      </trkpt>
      <trkpt lat="43.25893" lon="-1.06704">
        <ele>146.654</ele>
        <time>2016-09-28T15:07:39Z</time>
      </trkpt>
      <trkpt lat="43.25882" lon="-1.06751">
        <ele>142.238</ele>
        <time>2016-09-28T15:08:19Z</time>
      </trkpt>
      <trkpt lat="43.25685" lon="-1.06816">
        <ele>130.07</ele>
        <time>2016-09-28T15:08:59Z</time>
      </trkpt>
      <trkpt lat="43.25666" lon="-1.06848">
        <ele>130.017</ele>
        <time>2016-09-28T15:09:39Z</time>
      </trkpt>
      <trkpt lat="43.2562" lon="-1.0685">
        <ele>130.008</ele>
        <time>2016-09-28T15:10:19Z</time>
      </trkpt>
      <trkpt lat="43.2549" lon="-1.06897">
        <ele>131.639</ele>
        <time>2016-09-28T15:10:59Z</time>
      </trkpt>
      <trkpt lat="43.25509" lon="-1.06998">
        <ele>147.886</ele>
        <time>2016-09-28T15:11:39Z</time>
      </trkpt>
      <trkpt lat="43.25565" lon="-1.07163">
        <ele>156.266</ele>
        <time>2016-09-28T15:12:19Z</time>
      </trkpt>
      <trkpt lat="43.25554" lon="-1.07232">
        <ele>156.637</ele>
        <time>2016-09-28T15:12:59Z</time>
      </trkpt>
      <trkpt lat="43.25515" lon="-1.07264">
        <ele>150.746</ele>
        <time>2016-09-28T15:13:39Z</time>
      </trkpt>
      <trkpt lat="43.25491" lon="-1.07324">
        <ele>149.468</ele>
        <time>2016-09-28T15:14:19Z</time>
      </trkpt>
      <trkpt lat="43.25482" lon="-1.07425">
        <ele>152.359</ele>
        <time>2016-09-28T15:14:59Z</time>
      </trkpt>
      <trkpt lat="43.2539" lon="-1.07498">
        <ele>151.071</ele>
        <time>2016-09-28T15:15:39Z</time>
      </trkpt>
      <trkpt lat="43.2538" lon="-1.07524">
        <ele>151.652</ele>
        <time>2016-09-28T15:16:19Z</time>
      </trkpt>
      <trkpt lat="43.25318" lon="-1.0759">
        <ele>148.753</ele>
        <time>2016-09-28T15:16:59Z</time>
      </trkpt>
      <trkpt lat="43.25254" lon="-1.07644">
        <ele>141.208</ele>
        <time>2016-09-28T15:17:39Z</time>
      </trkpt>
      <trkpt lat="43.25107" lon="-1.07831">
        <ele>137.908</ele>
        <time>2016-09-28T15:18:19Z</time>
      </trkpt>
      <trkpt lat="43.25001" lon="-1.07861">
        <ele>145.991</ele>
        <time>2016-09-28T15:18:59Z</time>
      </trkpt>
      <trkpt lat="43.24933" lon="-1.0791">
        <ele>153.848</ele>
        <time>2016-09-28T15:19:39Z</time>
      </trkpt>
      <trkpt lat="43.2483" lon="-1.07929">
        <ele>162.198</ele>
        <time>2016-09-28T15:20:19Z</time>
      </trkpt>
      <trkpt lat="43.2471" lon="-1.08035">
        <ele>158.399</ele>
        <time>2016-09-28T15:20:59Z</time>
      </trkpt>
      <trkpt lat="43.24649" lon="-1.08159">
        <ele>156.598</ele>
        <time>2016-09-28T15:21:39Z</time>
      </trkpt>
      <trkpt lat="43.2464" lon="-1.08249">
        <ele>157.21</ele>
        <time>2016-09-28T15:22:19Z</time>
      </trkpt>
      <trkpt lat="43.24608" lon="-1.08352">
        <ele>148.651</ele>
        <time>2016-09-28T15:22:59Z</time>
      </trkpt>
      <trkpt lat="43.24597" lon="-1.08414">
        <ele>147.553</ele>
        <time>2016-09-28T15:23:39Z</time>
      </trkpt>
      <trkpt lat="43.24543" lon="-1.08492">
        <ele>146.515</ele>
        <time>2016-09-28T15:24:19Z</time>
      </trkpt>
      <trkpt lat="43.24441" lon="-1.08588">
        <ele>150.065</ele>
        <time>2016-09-28T15:24:59Z</time>
      </trkpt>
      <trkpt lat="43.24368" lon="-1.08698">
        <ele>145.211</ele>
        <time>2016-09-28T15:25:39Z</time>
      </trkpt>
      <trkpt lat="43.24274" lon="-1.08796">
        <ele>145.008</ele>
        <time>2016-09-28T15:26:19Z</time>
      </trkpt>
      <trkpt lat="43.2421" lon="-1.08835">
        <ele>146.147</ele>
        <time>2016-09-28T15:26:59Z</time>
      </trkpt>
      <trkpt lat="43.24127" lon="-1.08914">
        <ele>148.924</ele>
        <time>2016-09-28T15:27:39Z</time>
      </trkpt>
      <trkpt lat="43.24035" lon="-1.08953">
        <ele>150.844</ele>
        <time>2016-09-28T15:28:19Z</time>
      </trkpt>
      <trkpt lat="43.23971" lon="-1.08944">
        <ele>151.045</ele>
        <time>2016-09-28T15:28:59Z</time>
      </trkpt>
      <trkpt lat="43.23889" lon="-1.08974">
        <ele>152.154</ele>
        <time>2016-09-28T15:29:39Z</time>
      </trkpt>
      <trkpt lat="43.23786" lon="-1.08743">
        <ele>146.046</ele>
        <time>2016-09-28T15:30:19Z</time>
      </trkpt>
      <trkpt lat="43.23552" lon="-1.09185">
        <ele>152.457</ele>
        <time>2016-09-28T15:30:59Z</time>
      </trkpt>
      <trkpt lat="43.23589" lon="-1.09301">
        <ele>159.659</ele>
        <time>2016-09-28T15:31:39Z</time>
      </trkpt>
      <trkpt lat="43.23469" lon="-1.09494">
        <ele>159.634</ele>
        <time>2016-09-28T15:32:19Z</time>
      </trkpt>
      <trkpt lat="43.23459" lon="-1.09554">
        <ele>163.455</ele>
        <time>2016-09-28T15:32:59Z</time>
      </trkpt>
      <trkpt lat="43.23442" lon="-1.0961">
        <ele>166.81</ele>
        <time>2016-09-28T15:33:39Z</time>
      </trkpt>
      <trkpt lat="43.23472" lon="-1.09912">
        <ele>182.708</ele>
        <time>2016-09-28T15:34:19Z</time>
      </trkpt>
      <trkpt lat="43.23394" lon="-1.1003">
        <ele>177.799</ele>
        <time>2016-09-28T15:34:59Z</time>
      </trkpt>
      <trkpt lat="43.23316" lon="-1.10107">
        <ele>178.556</ele>
        <time>2016-09-28T15:35:39Z</time>
      </trkpt>
      <trkpt lat="43.23162" lon="-1.10187">
        <ele>173.196</ele>
        <time>2016-09-28T15:36:19Z</time>
      </trkpt>
      <trkpt lat="43.23117" lon="-1.10238">
        <ele>168.847</ele>
        <time>2016-09-28T15:36:59Z</time>
      </trkpt>
      <trkpt lat="43.231" lon="-1.1024">
        <ele>167.396</ele>
        <time>2016-09-28T15:37:39Z</time>
      </trkpt>
      <trkpt lat="43.2305" lon="-1.10391">
        <ele>159.718</ele>
        <time>2016-09-28T15:38:19Z</time>
      </trkpt>
      <trkpt lat="43.22998" lon="-1.10644">
        <ele>152.249</ele>
        <time>2016-09-28T15:38:59Z</time>
      </trkpt>
      <trkpt lat="43.22883" lon="-1.10856">
        <ele>165.891</ele>
        <time>2016-09-28T15:39:39Z</time>
      </trkpt>
      <trkpt lat="43.22862" lon="-1.10931">
        <ele>170.677</ele>
        <time>2016-09-28T15:40:19Z</time>
      </trkpt>
      <trkpt lat="43.22831" lon="-1.10938">
        <ele>169.261</ele>
        <time>2016-09-28T15:40:59Z</time>
      </trkpt>
      <trkpt lat="43.22737" lon="-1.11161">
        <ele>170.527</ele>
        <time>2016-09-28T15:41:39Z</time>
      </trkpt>
      <trkpt lat="43.22731" lon="-1.11285">
        <ele>173.808</ele>
        <time>2016-09-28T15:42:19Z</time>
      </trkpt>
      <trkpt lat="43.22703" lon="-1.11307">
        <ele>174.153</ele>
        <time>2016-09-28T15:42:59Z</time>
      </trkpt>
      <trkpt lat="43.22598" lon="-1.11493">
        <ele>183.34</ele>
        <time>2016-09-28T15:43:39Z</time>
      </trkpt>
      <trkpt lat="43.22579" lon="-1.11624">
        <ele>184.72</ele>
        <time>2016-09-28T15:44:19Z</time>
      </trkpt>
      <trkpt lat="43.22503" lon="-1.1168">
        <ele>177.631</ele>
        <time>2016-09-28T15:44:59Z</time>
      </trkpt>
      <trkpt lat="43.22489" lon="-1.11972">
        <ele>177.27</ele>
        <time>2016-09-28T15:45:39Z</time>
      </trkpt>
      <trkpt lat="43.22407" lon="-1.11972">
        <ele>171.652</ele>
        <time>2016-09-28T15:46:19Z</time>
      </trkpt>
      <trkpt lat="43.22317" lon="-1.11931">
        <ele>173.743</ele>
        <time>2016-09-28T15:46:59Z</time>
      </trkpt>
      <trkpt lat="43.22282" lon="-1.11893">
        <ele>173.375</ele>
        <time>2016-09-28T15:47:39Z</time>
      </trkpt>
      <trkpt lat="43.22202" lon="-1.11867">
        <ele>174.766</ele>
        <time>2016-09-28T15:48:19Z</time>
      </trkpt>
      <trkpt lat="43.22141" lon="-1.11895">
        <ele>171.929</ele>
        <time>2016-09-28T15:48:59Z</time>
      </trkpt>
      <trkpt lat="43.22037" lon="-1.12064">
        <ele>172.221</ele>
        <time>2016-09-28T15:49:39Z</time>
      </trkpt>
      <trkpt lat="43.21829" lon="-1.123">
        <ele>178.708</ele>
        <time>2016-09-28T15:50:19Z</time>
      </trkpt>
      <trkpt lat="43.21846" lon="-1.12343">
        <ele>181.882</ele>
        <time>2016-09-28T15:50:59Z</time>
      </trkpt>
      <trkpt lat="43.21751" lon="-1.12371">
        <ele>188.919</ele>
        <time>2016-09-28T15:51:39Z</time>
      </trkpt>
      <trkpt lat="43.21658" lon="-1.12478">
        <ele>193.119</ele>
        <time>2016-09-28T15:52:19Z</time>
      </trkpt>
      <trkpt lat="43.2163" lon="-1.12541">
        <ele>197.64</ele>
        <time>2016-09-28T15:52:59Z</time>
      </trkpt>
      <trkpt lat="43.21561" lon="-1.12601">
        <ele>198.959</ele>
        <time>2016-09-28T15:53:39Z</time>
      </trkpt>
      <trkpt lat="43.21525" lon="-1.1268">
        <ele>204.011</ele>
        <time>2016-09-28T15:54:19Z</time>
      </trkpt>
      <trkpt lat="43.21519" lon="-1.12828">
        <ele>209.352</ele>
        <time>2016-09-28T15:54:59Z</time>
      </trkpt>
      <trkpt lat="43.21474" lon="-1.12843">
        <ele>213.744</ele>
        <time>2016-09-28T15:55:39Z</time>
      </trkpt>
      <trkpt lat="43.21391" lon="-1.12985">
        <ele>220.525</ele>
        <time>2016-09-28T15:56:19Z</time>
      </trkpt>
      <trkpt lat="43.21385" lon="-1.13163">
        <ele>233.826</ele>
        <time>2016-09-28T15:56:59Z</time>
      </trkpt>
      <trkpt lat="43.21333" lon="-1.13386">
        <ele>229.708</ele>
        <time>2016-09-28T15:57:39Z</time>
      </trkpt>
      <trkpt lat="43.21208" lon="-1.13586">
        <ele>249.508</ele>
        <time>2016-09-28T15:58:19Z</time>
      </trkpt>
      <trkpt lat="43.21111" lon="-1.13676">
        <ele>264.788</ele>
        <time>2016-09-28T15:58:59Z</time>
      </trkpt>
      <trkpt lat="43.21037" lon="-1.13777">
        <ele>260.745</ele>
        <time>2016-09-28T15:59:39Z</time>
      </trkpt>
      <trkpt lat="43.20992" lon="-1.13772">
        <ele>260.115</ele>
        <time>2016-09-28T16:00:19Z</time>
      </trkpt>
      <trkpt lat="43.20834" lon="-1.13835">
        <ele>262.996</ele>
        <time>2016-09-28T16:00:59Z</time>
      </trkpt>
      <trkpt lat="43.20787" lon="-1.1388">
        <ele>262.455</ele>
        <time>2016-09-28T16:01:39Z</time>
      </trkpt>
      <trkpt lat="43.20698" lon="-1.13935">
        <ele>266.277</ele>
        <time>2016-09-28T16:02:19Z</time>
      </trkpt>
      <trkpt lat="43.20567" lon="-1.13953">
        <ele>263.878</ele>
        <time>2016-09-28T16:02:59Z</time>
      </trkpt>
      <trkpt lat="43.20435" lon="-1.13991">
        <ele>257.35</ele>
        <time>2016-09-28T16:03:39Z</time>
      </trkpt>
      <trkpt lat="43.20368" lon="-1.14094">
        <ele>250.272</ele>
        <time>2016-09-28T16:04:19Z</time>
      </trkpt>
      <trkpt lat="43.20318" lon="-1.14133">
        <ele>242.313</ele>
        <time>2016-09-28T16:04:59Z</time>
      </trkpt>
      <trkpt lat="43.20305" lon="-1.14081">
        <ele>237.914</ele>
        <time>2016-09-28T16:05:39Z</time>
      </trkpt>
      <trkpt lat="43.20282" lon="-1.14094">
        <ele>233.808</ele>
        <time>2016-09-28T16:06:19Z</time>
      </trkpt>
      <trkpt lat="43.20262" lon="-1.1415">
        <ele>231.693</ele>
        <time>2016-09-28T16:06:59Z</time>
      </trkpt>
      <trkpt lat="43.20166" lon="-1.1424">
        <ele>227.62</ele>
        <time>2016-09-28T16:07:39Z</time>
      </trkpt>
      <trkpt lat="43.20199" lon="-1.14332">
        <ele>233.44</ele>
        <time>2016-09-28T16:08:19Z</time>
      </trkpt>
      <trkpt lat="43.20166" lon="-1.14375">
        <ele>234.541</ele>
        <time>2016-09-28T16:08:59Z</time>
      </trkpt>
      <trkpt lat="43.20072" lon="-1.14412">
        <ele>233.81</ele>
        <time>2016-09-28T16:09:39Z</time>
      </trkpt>
      <trkpt lat="43.20055" lon="-1.14446">
        <ele>234.162</ele>
        <time>2016-09-28T16:10:19Z</time>
      </trkpt>
      <trkpt lat="43.20004" lon="-1.1451">
        <ele>233.323</ele>
        <time>2016-09-28T16:10:59Z</time>
      </trkpt>
      <trkpt lat="43.19979" lon="-1.14641">
        <ele>238.875</ele>
        <time>2016-09-28T16:11:39Z</time>
      </trkpt>
      <trkpt lat="43.19905" lon="-1.1477">
        <ele>237.387</ele>
        <time>2016-09-28T16:12:19Z</time>
      </trkpt>
      <trkpt lat="43.19878" lon="-1.14905">
        <ele>235.542</ele>
        <time>2016-09-28T16:12:59Z</time>
      </trkpt>
      <trkpt lat="43.19838" lon="-1.15006">
        <ele>230.326</ele>
        <time>2016-09-28T16:13:39Z</time>
      </trkpt>
      <trkpt lat="43.19869" lon="-1.15137">
        <ele>231.908</ele>
        <time>2016-09-28T16:14:19Z</time>
      </trkpt>
      <trkpt lat="43.1981" lon="-1.15264">
        <ele>230.074</ele>
        <time>2016-09-28T16:14:59Z</time>
      </trkpt>
      <trkpt lat="43.19788" lon="-1.15379">
        <ele>228.981</ele>
        <time>2016-09-28T16:15:39Z</time>
      </trkpt>
      <trkpt lat="43.19733" lon="-1.15356">
        <ele>224.841</ele>
        <time>2016-09-28T16:16:19Z</time>
      </trkpt>
      <trkpt lat="43.19672" lon="-1.15227">
        <ele>220.012</ele>
        <time>2016-09-28T16:16:59Z</time>
      </trkpt>
      <trkpt lat="43.19631" lon="-1.15197">
        <ele>218.221</ele>
        <time>2016-09-28T16:17:39Z</time>
      </trkpt>
      <trkpt lat="43.19577" lon="-1.15081">
        <ele>217.053</ele>
        <time>2016-09-28T16:18:19Z</time>
      </trkpt>
      <trkpt lat="43.19473" lon="-1.15053">
        <ele>218.094</ele>
        <time>2016-09-28T16:18:59Z</time>
      </trkpt>
      <trkpt lat="43.19415" lon="-1.14976">
        <ele>225.736</ele>
        <time>2016-09-28T16:19:39Z</time>
      </trkpt>
      <trkpt lat="43.19356" lon="-1.14933">
        <ele>227.265</ele>
        <time>2016-09-28T16:20:19Z</time>
      </trkpt>
      <trkpt lat="43.19221" lon="-1.15204">
        <ele>222.068</ele>
        <time>2016-09-28T16:20:59Z</time>
      </trkpt>
      <trkpt lat="43.19214" lon="-1.15249">
        <ele>220.714</ele>
        <time>2016-09-28T16:21:39Z</time>
      </trkpt>
      <trkpt lat="43.19153" lon="-1.15294">
        <ele>217.708</ele>
        <time>2016-09-28T16:22:19Z</time>
      </trkpt>
      <trkpt lat="43.19104" lon="-1.15296">
        <ele>221.112</ele>
        <time>2016-09-28T16:22:59Z</time>
      </trkpt>
      <trkpt lat="43.1907" lon="-1.15433">
        <ele>224.529</ele>
        <time>2016-09-28T16:23:39Z</time>
      </trkpt>
      <trkpt lat="43.19013" lon="-1.15478">
        <ele>226.969</ele>
        <time>2016-09-28T16:24:19Z</time>
      </trkpt>
      <trkpt lat="43.18926" lon="-1.15575">
        <ele>212.06</ele>
        <time>2016-09-28T16:24:59Z</time>
      </trkpt>
      <trkpt lat="43.1888" lon="-1.15538">
        <ele>215.169</ele>
        <time>2016-09-28T16:25:39Z</time>
      </trkpt>
      <trkpt lat="43.18779" lon="-1.15785">
        <ele>213.741</ele>
        <time>2016-09-28T16:26:19Z</time>
      </trkpt>
      <trkpt lat="43.18754" lon="-1.15817">
        <ele>213.012</ele>
        <time>2016-09-28T16:26:59Z</time>
      </trkpt>
      <trkpt lat="43.18732" lon="-1.15912">
        <ele>209.264</ele>
        <time>2016-09-28T16:27:39Z</time>
      </trkpt>
      <trkpt lat="43.18669" lon="-1.15894">
        <ele>209.814</ele>
        <time>2016-09-28T16:28:19Z</time>
      </trkpt>
      <trkpt lat="43.18628" lon="-1.15918">
        <ele>211.154</ele>
        <time>2016-09-28T16:28:59Z</time>
      </trkpt>
      <trkpt lat="43.18613" lon="-1.1597">
        <ele>211.809</ele>
        <time>2016-09-28T16:29:39Z</time>
      </trkpt>
      <trkpt lat="43.18527" lon="-1.15952">
        <ele>221.308</ele>
        <time>2016-09-28T16:30:19Z</time>
      </trkpt>
      <trkpt lat="43.18472" lon="-1.15985">
        <ele>225.577</ele>
        <time>2016-09-28T16:30:59Z</time>
      </trkpt>
      <trkpt lat="43.18489" lon="-1.16043">
        <ele>225.894</ele>
        <time>2016-09-28T16:31:39Z</time>
      </trkpt>
      <trkpt lat="43.18422" lon="-1.16246">
        <ele>233.544</ele>
        <time>2016-09-28T16:32:19Z</time>
      </trkpt>
      <trkpt lat="43.18386" lon="-1.16279">
        <ele>239.695</ele>
        <time>2016-09-28T16:32:59Z</time>
      </trkpt>
      <trkpt lat="43.18361" lon="-1.16321">
        <ele>238.514</ele>
        <time>2016-09-28T16:33:39Z</time>
      </trkpt>
      <trkpt lat="43.18367" lon="-1.16386">
        <ele>233.316</ele>
        <time>2016-09-28T16:34:19Z</time>
      </trkpt>
      <trkpt lat="43.18337" lon="-1.16525">
        <ele>230.897</ele>
        <time>2016-09-28T16:34:59Z</time>
      </trkpt>
      <trkpt lat="43.18336" lon="-1.166">
        <ele>224.539</ele>
        <time>2016-09-28T16:35:39Z</time>
      </trkpt>
      <trkpt lat="43.18308" lon="-1.16658">
        <ele>227.382</ele>
        <time>2016-09-28T16:36:19Z</time>
      </trkpt>
      <trkpt lat="43.18308" lon="-1.16718">
        <ele>221.143</ele>
        <time>2016-09-28T16:36:59Z</time>
      </trkpt>
      <trkpt lat="43.18295" lon="-1.16772">
        <ele>218.317</ele>
        <time>2016-09-28T16:37:39Z</time>
      </trkpt>
      <trkpt lat="43.18322" lon="-1.16839">
        <ele>212.508</ele>
        <time>2016-09-28T16:38:19Z</time>
      </trkpt>
      <trkpt lat="43.18294" lon="-1.16892">
        <ele>209.774</ele>
        <time>2016-09-28T16:38:59Z</time>
      </trkpt>
      <trkpt lat="43.18345" lon="-1.16995">
        <ele>199.051</ele>
        <time>2016-09-28T16:39:39Z</time>
      </trkpt>
      <trkpt lat="43.18258" lon="-1.16963">
        <ele>204.821</ele>
        <time>2016-09-28T16:40:19Z</time>
      </trkpt>
      <trkpt lat="43.18215" lon="-1.17008">
        <ele>211.332</ele>
        <time>2016-09-28T16:40:59Z</time>
      </trkpt>
      <trkpt lat="43.1814" lon="-1.17027">
        <ele>221.921</ele>
        <time>2016-09-28T16:41:39Z</time>
      </trkpt>
      <trkpt lat="43.18025" lon="-1.17034">
        <ele>243.253</ele>
        <time>2016-09-28T16:42:19Z</time>
      </trkpt>
      <trkpt lat="43.18007" lon="-1.17092">
        <ele>238.634</ele>
        <time>2016-09-28T16:42:59Z</time>
      </trkpt>
      <trkpt lat="43.17899" lon="-1.17124">
        <ele>247.056</ele>
        <time>2016-09-28T16:43:39Z</time>
      </trkpt>
      <trkpt lat="43.17832" lon="-1.17285">
        <ele>249.623</ele>
        <time>2016-09-28T16:44:19Z</time>
      </trkpt>
      <trkpt lat="43.17687" lon="-1.17261">
        <ele>264.783</ele>
        <time>2016-09-28T16:44:59Z</time>
      </trkpt>
      <trkpt lat="43.17572" lon="-1.17298">
        <ele>275.611</ele>
        <time>2016-09-28T16:45:39Z</time>
      </trkpt>
      <trkpt lat="43.17427" lon="-1.17242">
        <ele>253.308</ele>
        <time>2016-09-28T16:46:19Z</time>
      </trkpt>
      <trkpt lat="43.17403" lon="-1.17206">
        <ele>248.358</ele>
        <time>2016-09-28T16:46:59Z</time>
      </trkpt>
      <trkpt lat="43.1738" lon="-1.17199">
        <ele>244.345</ele>
        <time>2016-09-28T16:47:39Z</time>
      </trkpt>
      <trkpt lat="43.17361" lon="-1.17255">
        <ele>243.885</ele>
        <time>2016-09-28T16:48:19Z</time>
      </trkpt>
      <trkpt lat="43.17295" lon="-1.17246">
        <ele>233.716</ele>
        <time>2016-09-28T16:48:59Z</time>
      </trkpt>
      <trkpt lat="43.17081" lon="-1.17055">
        <ele>220.075</ele>
        <time>2016-09-28T16:49:39Z</time>
      </trkpt>
      <trkpt lat="43.16995" lon="-1.17081">
        <ele>220.617</ele>
        <time>2016-09-28T16:50:19Z</time>
      </trkpt>
      <trkpt lat="43.1687" lon="-1.1712">
        <ele>220.028</ele>
        <time>2016-09-28T16:50:59Z</time>
      </trkpt>
      <trkpt lat="43.16816" lon="-1.17115">
        <ele>220.07</ele>
        <time>2016-09-28T16:51:39Z</time>
      </trkpt>
      <trkpt lat="43.16693" lon="-1.17186">
        <ele>219.931</ele>
        <time>2016-09-28T16:52:19Z</time>
      </trkpt>
      <trkpt lat="43.16677" lon="-1.1721">
        <ele>219.061</ele>
        <time>2016-09-28T16:52:59Z</time>
      </trkpt>
      <trkpt lat="43.1664" lon="-1.17221">
        <ele>216.107</ele>
        <time>2016-09-28T16:53:39Z</time>
      </trkpt>
      <trkpt lat="43.16496" lon="-1.17296">
        <ele>211.008</ele>
        <time>2016-09-28T16:54:19Z</time>
      </trkpt>
      <trkpt lat="43.16474" lon="-1.17332">
        <ele>210.029</ele>
        <time>2016-09-28T16:54:59Z</time>
      </trkpt>
      <trkpt lat="43.16347" lon="-1.17414">
        <ele>210.076</ele>
        <time>2016-09-28T16:55:39Z</time>
      </trkpt>
      <trkpt lat="43.16045" lon="-1.17995">
        <ele>205.296</ele>
        <time>2016-09-28T16:56:19Z</time>
      </trkpt>
      <trkpt lat="43.16086" lon="-1.1819">
        <ele>208.687</ele>
        <time>2016-09-28T16:56:59Z</time>
      </trkpt>
      <trkpt lat="43.16153" lon="-1.18216">
        <ele>208.516</ele>
        <time>2016-09-28T16:57:39Z</time>
      </trkpt>
      <trkpt lat="43.16239" lon="-1.18523">
        <ele>220.058</ele>
        <time>2016-09-28T16:58:19Z</time>
      </trkpt>
      <trkpt lat="43.16319" lon="-1.1865">
        <ele>218.539</ele>
        <time>2016-09-28T16:58:59Z</time>
      </trkpt>
      <trkpt lat="43.16431" lon="-1.18935">
        <ele>207.781</ele>
        <time>2016-09-28T16:59:39Z</time>
      </trkpt>
      <trkpt lat="43.16444" lon="-1.19049">
        <ele>205.052</ele>
        <time>2016-09-28T17:00:19Z</time>
      </trkpt>
      <trkpt lat="43.16466" lon="-1.19115">
        <ele>204.053</ele>
        <time>2016-09-28T17:00:59Z</time>
      </trkpt>
      <trkpt lat="43.16427" lon="-1.1919">
        <ele>203.108</ele>
        <time>2016-09-28T17:01:39Z</time>
      </trkpt>
      <trkpt lat="43.16438" lon="-1.19332">
        <ele>200.008</ele>
        <time>2016-09-28T17:02:19Z</time>
      </trkpt>
      <trkpt lat="43.16588" lon="-1.19424">
        <ele>200.071</ele>
        <time>2016-09-28T17:02:59Z</time>
      </trkpt>
      <trkpt lat="43.16643" lon="-1.19489">
        <ele>200.088</ele>
        <time>2016-09-28T17:03:39Z</time>
      </trkpt>
      <trkpt lat="43.1666" lon="-1.19553">
        <ele>200.098</ele>
        <time>2016-09-28T17:04:19Z</time>
      </trkpt>
      <trkpt lat="43.16679" lon="-1.19684">
        <ele>200.019</ele>
        <time>2016-09-28T17:04:59Z</time>
      </trkpt>
      <trkpt lat="43.16708" lon="-1.19705">
        <ele>200.038</ele>
        <time>2016-09-28T17:05:39Z</time>
      </trkpt>
      <trkpt lat="43.16716" lon="-1.19858">
        <ele>200.07</ele>
        <time>2016-09-28T17:06:19Z</time>
      </trkpt>
      <trkpt lat="43.16743" lon="-1.20019">
        <ele>199.321</ele>
        <time>2016-09-28T17:06:59Z</time>
      </trkpt>
      <trkpt lat="43.16779" lon="-1.20051">
        <ele>199.233</ele>
        <time>2016-09-28T17:07:39Z</time>
      </trkpt>
      <trkpt lat="43.16765" lon="-1.201">
        <ele>198.033</ele>
        <time>2016-09-28T17:08:19Z</time>
      </trkpt>
      <trkpt lat="43.16784" lon="-1.20212">
        <ele>195.923</ele>
        <time>2016-09-28T17:08:59Z</time>
      </trkpt>
      <trkpt lat="43.16848" lon="-1.20409">
        <ele>193.015</ele>
        <time>2016-09-28T17:09:39Z</time>
      </trkpt>
      <trkpt lat="43.16898" lon="-1.20497">
        <ele>192.008</ele>
        <time>2016-09-28T17:10:19Z</time>
      </trkpt>
      <trkpt lat="43.1681" lon="-1.20654">
        <ele>190.029</ele>
        <time>2016-09-28T17:10:59Z</time>
      </trkpt>
      <trkpt lat="43.16768" lon="-1.20851">
        <ele>184.946</ele>
        <time>2016-09-28T17:11:39Z</time>
      </trkpt>
      <trkpt lat="43.16753" lon="-1.20993">
        <ele>183.016</ele>
        <time>2021-01-03T23:14:40Z</time>
      </trkpt>
      <trkpt lat="43.1672" lon="-1.21025">
        <ele>182.187</ele>
        <time>2021-01-03T23:15:00Z</time>
      </trkpt>
      <trkpt lat="43.16715" lon="-1.2106">
        <ele>182.026</ele>
        <time>2021-01-03T23:15:20Z</time>
      </trkpt>
      <trkpt lat="43.16676" lon="-1.21069">
        <ele>180.568</ele>
        <time>2021-01-03T23:15:40Z</time>
      </trkpt>
      <trkpt lat="43.16668" lon="-1.21012">
        <ele>181.059</ele>
        <time>2021-01-03T23:16:00Z</time>
      </trkpt>
      <trkpt lat="43.16533" lon="-1.21087">
        <ele>179.951</ele>
        <time>2016-09-28T17:13:39Z</time>
      </trkpt>
      <trkpt lat="43.16574" lon="-1.21388">
        <ele>174.037</ele>
        <time>2016-09-28T17:14:19Z</time>
      </trkpt>
      <trkpt lat="43.16618" lon="-1.21568">
        <ele>170.849</ele>
        <time>2016-09-28T17:14:59Z</time>
      </trkpt>
      <trkpt lat="43.16626" lon="-1.21697">
        <ele>170.013</ele>
        <time>2016-09-28T17:15:39Z</time>
      </trkpt>
      <trkpt lat="43.16563" lon="-1.21808">
        <ele>168.308</ele>
        <time>2016-09-28T17:16:19Z</time>
      </trkpt>
      <trkpt lat="43.16491" lon="-1.21903">
        <ele>167.059</ele>
        <time>2016-09-28T17:16:59Z</time>
      </trkpt>
      <trkpt lat="43.16472" lon="-1.22066">
        <ele>165.696</ele>
        <time>2016-09-28T17:17:39Z</time>
      </trkpt>
      <trkpt lat="43.16425" lon="-1.22265">
        <ele>166.266</ele>
        <time>2016-09-28T17:18:19Z</time>
      </trkpt>
      <trkpt lat="43.16431" lon="-1.22312">
        <ele>166.547</ele>
        <time>2016-09-28T17:18:59Z</time>
      </trkpt>
      <trkpt lat="43.16414" lon="-1.22403">
        <ele>168.116</ele>
        <time>2016-09-28T17:19:39Z</time>
      </trkpt>
      <trkpt lat="43.164" lon="-1.22424">
        <ele>169.598</ele>
        <time>2016-09-28T17:20:19Z</time>
      </trkpt>
      <trkpt lat="43.16327" lon="-1.22806">
        <ele>176.029</ele>
        <time>2016-09-28T17:20:59Z</time>
      </trkpt>
      <trkpt lat="43.16275" lon="-1.22911">
        <ele>177.141</ele>
        <time>2016-09-28T17:21:39Z</time>
      </trkpt>
      <trkpt lat="43.16237" lon="-1.23084">
        <ele>197.269</ele>
        <time>2016-09-28T17:22:19Z</time>
      </trkpt>
      <trkpt lat="43.16239" lon="-1.23133">
        <ele>200.904</ele>
        <time>2016-09-28T17:22:59Z</time>
      </trkpt>
      <trkpt lat="43.16366" lon="-1.23423">
        <ele>185.524</ele>
        <time>2016-09-28T17:23:39Z</time>
      </trkpt>
      <trkpt lat="43.16367" lon="-1.23489">
        <ele>182.408</ele>
        <time>2016-09-28T17:24:19Z</time>
      </trkpt>
      <trkpt lat="43.16341" lon="-1.23586">
        <ele>175.832</ele>
        <time>2016-09-28T17:24:59Z</time>
      </trkpt>
      <trkpt lat="43.16281" lon="-1.23698">
        <ele>164.879</ele>
        <time>2016-09-28T17:25:39Z</time>
      </trkpt>
      <trkpt lat="43.15965" lon="-1.23882">
        <ele>182.569</ele>
        <time>2016-09-28T17:26:19Z</time>
      </trkpt>
      <trkpt lat="43.15907" lon="-1.23886">
        <ele>187.25</ele>
        <time>2016-09-28T17:26:59Z</time>
      </trkpt>
      <trkpt lat="43.1584" lon="-1.23938">
        <ele>198.539</ele>
        <time>2016-09-28T17:27:39Z</time>
      </trkpt>
      <trkpt lat="43.15627" lon="-1.24017">
        <ele>223.051</ele>
        <time>2016-09-28T17:28:19Z</time>
      </trkpt>
      <trkpt lat="43.15538" lon="-1.24099">
        <ele>230.272</ele>
        <time>2016-09-28T17:28:59Z</time>
      </trkpt>
      <trkpt lat="43.1538" lon="-1.24174">
        <ele>258.164</ele>
        <time>2016-09-28T17:29:39Z</time>
      </trkpt>
      <trkpt lat="43.15195" lon="-1.24225">
        <ele>248.658</ele>
        <time>2016-09-28T17:30:19Z</time>
      </trkpt>
      <trkpt lat="43.15121" lon="-1.24275">
        <ele>248.152</ele>
        <time>2016-09-28T17:30:59Z</time>
      </trkpt>
      <trkpt lat="43.15041" lon="-1.24279">
        <ele>249.517</ele>
        <time>2016-09-28T17:31:39Z</time>
      </trkpt>
      <trkpt lat="43.14948" lon="-1.24251">
        <ele>250.008</ele>
        <time>2016-09-28T17:32:19Z</time>
      </trkpt>
      <trkpt lat="43.14841" lon="-1.24247">
        <ele>250.221</ele>
        <time>2016-09-28T17:32:59Z</time>
      </trkpt>
      <trkpt lat="43.14758" lon="-1.24258">
        <ele>259.328</ele>
        <time>2016-09-28T17:33:39Z</time>
      </trkpt>
      <trkpt lat="43.14674" lon="-1.24228">
        <ele>270.298</ele>
        <time>2016-09-28T17:34:19Z</time>
      </trkpt>
      <trkpt lat="43.14506" lon="-1.24047">
        <ele>281.349</ele>
        <time>2016-09-28T17:34:59Z</time>
      </trkpt>
      <trkpt lat="43.14422" lon="-1.24009">
        <ele>287.988</ele>
        <time>2016-09-28T17:35:39Z</time>
      </trkpt>
      <trkpt lat="43.14263" lon="-1.24157">
        <ele>302.41</ele>
        <time>2016-09-28T17:36:19Z</time>
      </trkpt>
      <trkpt lat="43.14121" lon="-1.24137">
        <ele>314.021</ele>
        <time>2016-09-28T17:36:59Z</time>
      </trkpt>
      <trkpt lat="43.13996" lon="-1.24045">
        <ele>316.153</ele>
        <time>2016-09-28T17:37:39Z</time>
      </trkpt>
      <trkpt lat="43.13867" lon="-1.23914">
        <ele>318.691</ele>
        <time>2016-09-28T17:38:19Z</time>
      </trkpt>
      <trkpt lat="43.13747" lon="-1.23891">
        <ele>310.081</ele>
        <time>2016-09-28T17:38:59Z</time>
      </trkpt>
      <trkpt lat="43.13643" lon="-1.23816">
        <ele>312.919</ele>
        <time>2016-09-28T17:39:39Z</time>
      </trkpt>
      <trkpt lat="43.13465" lon="-1.23811">
        <ele>315.308</ele>
        <time>2016-09-28T17:40:19Z</time>
      </trkpt>
      <trkpt lat="43.13405" lon="-1.23897">
        <ele>319.065</ele>
        <time>2016-09-28T17:40:59Z</time>
      </trkpt>
      <trkpt lat="43.13354" lon="-1.23889">
        <ele>320.342</ele>
        <time>2016-09-28T17:41:39Z</time>
      </trkpt>
      <trkpt lat="43.13304" lon="-1.23831">
        <ele>319.822</ele>
        <time>2016-09-28T17:42:19Z</time>
      </trkpt>
      <trkpt lat="43.13244" lon="-1.2385">
        <ele>329.183</ele>
        <time>2016-09-28T17:42:59Z</time>
      </trkpt>
      <trkpt lat="43.13175" lon="-1.23921">
        <ele>337.782</ele>
        <time>2016-09-28T17:43:39Z</time>
      </trkpt>
      <trkpt lat="43.13133" lon="-1.2394">
        <ele>332.644</ele>
        <time>2016-09-28T17:44:19Z</time>
      </trkpt>
      <trkpt lat="43.1308" lon="-1.24026">
        <ele>339.575</ele>
        <time>2016-09-28T17:44:59Z</time>
      </trkpt>
      <trkpt lat="43.13055" lon="-1.24116">
        <ele>349.057</ele>
        <time>2016-09-28T17:45:39Z</time>
      </trkpt>
      <trkpt lat="43.12981" lon="-1.24167">
        <ele>347.368</ele>
        <time>2016-09-28T17:46:19Z</time>
      </trkpt>
      <trkpt lat="43.12947" lon="-1.24279">
        <ele>357.942</ele>
        <time>2016-09-28T17:46:59Z</time>
      </trkpt>
      <trkpt lat="43.1299" lon="-1.24421">
        <ele>374.626</ele>
        <time>2016-09-28T17:47:39Z</time>
      </trkpt>
      <trkpt lat="43.13051" lon="-1.24543">
        <ele>385.608</ele>
        <time>2016-09-28T17:48:19Z</time>
      </trkpt>
      <trkpt lat="43.12936" lon="-1.24472">
        <ele>399.552</ele>
        <time>2016-09-28T17:48:59Z</time>
      </trkpt>
      <trkpt lat="43.12793" lon="-1.24421">
        <ele>422.689</ele>
        <time>2016-09-28T17:49:39Z</time>
      </trkpt>
      <trkpt lat="43.12665" lon="-1.24434">
        <ele>445.099</ele>
        <time>2016-09-28T17:50:19Z</time>
      </trkpt>
      <trkpt lat="43.12583" lon="-1.24464">
        <ele>463.24</ele>
        <time>2016-09-28T17:50:59Z</time>
      </trkpt>
      <trkpt lat="43.12489" lon="-1.24474">
        <ele>479.219</ele>
        <time>2016-09-28T17:51:39Z</time>
      </trkpt>
      <trkpt lat="43.12414" lon="-1.24507">
        <ele>493.711</ele>
        <time>2016-09-28T17:52:19Z</time>
      </trkpt>
      <trkpt lat="43.12298" lon="-1.24464">
        <ele>516.982</ele>
        <time>2016-09-28T17:52:59Z</time>
      </trkpt>
      <trkpt lat="43.12231" lon="-1.24404">
        <ele>529.194</ele>
        <time>2016-09-28T17:53:39Z</time>
      </trkpt>
      <trkpt lat="43.12113" lon="-1.24335">
        <ele>555.225</ele>
        <time>2016-09-28T17:54:19Z</time>
      </trkpt>
      <trkpt lat="43.12052" lon="-1.24195">
        <ele>581.326</ele>
        <time>2016-09-28T17:54:59Z</time>
      </trkpt>
      <trkpt lat="43.12038" lon="-1.24245">
        <ele>582.208</ele>
        <time>2016-09-28T17:55:39Z</time>
      </trkpt>
      <trkpt lat="43.11997" lon="-1.24266">
        <ele>594.108</ele>
        <time>2016-09-28T17:56:19Z</time>
      </trkpt>
      <trkpt lat="43.11988" lon="-1.24204">
        <ele>603.748</ele>
        <time>2016-09-28T17:56:59Z</time>
      </trkpt>
      <trkpt lat="43.12004" lon="-1.24079">
        <ele>623.555</ele>
        <time>2016-09-28T17:57:39Z</time>
      </trkpt>
      <trkpt lat="43.11897" lon="-1.24131">
        <ele>650.595</ele>
        <time>2016-09-28T17:58:19Z</time>
      </trkpt>
      <trkpt lat="43.1185" lon="-1.2412">
        <ele>655.656</ele>
        <time>2016-09-28T17:58:59Z</time>
      </trkpt>
      <trkpt lat="43.11891" lon="-1.24075">
        <ele>665.785</ele>
        <time>2016-09-28T17:59:39Z</time>
      </trkpt>
      <trkpt lat="43.11896" lon="-1.24024">
        <ele>670.337</ele>
        <time>2016-09-28T18:00:19Z</time>
      </trkpt>
      <trkpt lat="43.1188" lon="-1.23992">
        <ele>677.168</ele>
        <time>2016-09-28T18:00:59Z</time>
      </trkpt>
      <trkpt lat="43.11836" lon="-1.24007">
        <ele>687.97</ele>
        <time>2016-09-28T18:01:39Z</time>
      </trkpt>
      <trkpt lat="43.11802" lon="-1.23987">
        <ele>695.396</ele>
        <time>2016-09-28T18:02:19Z</time>
      </trkpt>
      <trkpt lat="43.11813" lon="-1.23908">
        <ele>706.131</ele>
        <time>2016-09-28T18:02:59Z</time>
      </trkpt>
      <trkpt lat="43.11783" lon="-1.23837">
        <ele>719.924</ele>
        <time>2016-09-28T18:03:39Z</time>
      </trkpt>
      <trkpt lat="43.11725" lon="-1.23813">
        <ele>734.608</ele>
        <time>2016-09-28T18:04:19Z</time>
      </trkpt>
      <trkpt lat="43.1162" lon="-1.23768">
        <ele>754.635</ele>
        <time>2016-09-28T18:04:59Z</time>
      </trkpt>
      <trkpt lat="43.11501" lon="-1.23758">
        <ele>767.252</ele>
        <time>2016-09-28T18:05:39Z</time>
      </trkpt>
      <trkpt lat="43.11426" lon="-1.23768">
        <ele>782.922</ele>
        <time>2016-09-28T18:06:19Z</time>
      </trkpt>
      <trkpt lat="43.11313" lon="-1.23725">
        <ele>794.743</ele>
        <time>2016-09-28T18:06:59Z</time>
      </trkpt>
      <trkpt lat="43.11236" lon="-1.23721">
        <ele>796.832</ele>
        <time>2016-09-28T18:07:39Z</time>
      </trkpt>
      <trkpt lat="43.11108" lon="-1.23798">
        <ele>792.114</ele>
        <time>2016-09-28T18:08:19Z</time>
      </trkpt>
      <trkpt lat="43.10986" lon="-1.2382">
        <ele>786.675</ele>
        <time>2016-09-28T18:08:59Z</time>
      </trkpt>
      <trkpt lat="43.10931" lon="-1.23863">
        <ele>791.657</ele>
        <time>2016-09-28T18:09:39Z</time>
      </trkpt>
      <trkpt lat="43.10895" lon="-1.2391">
        <ele>794.832</ele>
        <time>2016-09-28T18:10:19Z</time>
      </trkpt>
      <trkpt lat="43.1079" lon="-1.23953">
        <ele>809.592</ele>
        <time>2016-09-28T18:10:59Z</time>
      </trkpt>
      <trkpt lat="43.10655" lon="-1.23938">
        <ele>822.011</ele>
        <time>2016-09-28T18:11:39Z</time>
      </trkpt>
      <trkpt lat="43.10641" lon="-1.23813">
        <ele>825.708</ele>
        <time>2016-09-28T18:12:19Z</time>
      </trkpt>
      <trkpt lat="43.1057" lon="-1.23781">
        <ele>838.399</ele>
        <time>2016-09-28T18:12:59Z</time>
      </trkpt>
      <trkpt lat="43.10429" lon="-1.23951">
        <ele>855.126</ele>
        <time>2016-09-28T18:13:39Z</time>
      </trkpt>
      <trkpt lat="43.10375" lon="-1.23989">
        <ele>858.366</ele>
        <time>2016-09-28T18:14:19Z</time>
      </trkpt>
      <trkpt lat="43.1031" lon="-1.23996">
        <ele>862.527</ele>
        <time>2016-09-28T18:14:59Z</time>
      </trkpt>
      <trkpt lat="43.10235" lon="-1.23981">
        <ele>871.196</ele>
        <time>2016-09-28T18:15:39Z</time>
      </trkpt>
      <trkpt lat="43.10119" lon="-1.24007">
        <ele>878.748</ele>
        <time>2016-09-28T18:16:19Z</time>
      </trkpt>
      <trkpt lat="43.09986" lon="-1.24062">
        <ele>888.869</ele>
        <time>2016-09-28T18:16:59Z</time>
      </trkpt>
      <trkpt lat="43.09765" lon="-1.2414">
        <ele>916.141</ele>
        <time>2016-09-28T18:17:39Z</time>
      </trkpt>
      <trkpt lat="43.09533" lon="-1.24243">
        <ele>947.068</ele>
        <time>2016-09-28T18:18:19Z</time>
      </trkpt>
      <trkpt lat="43.09436" lon="-1.24232">
        <ele>963.942</ele>
        <time>2016-09-28T18:18:59Z</time>
      </trkpt>
      <trkpt lat="43.09377" lon="-1.24249">
        <ele>968.526</ele>
        <time>2016-09-28T18:19:39Z</time>
      </trkpt>
      <trkpt lat="43.09254" lon="-1.2432">
        <ele>985.308</ele>
        <time>2016-09-28T18:20:19Z</time>
      </trkpt>
      <trkpt lat="43.09198" lon="-1.24376">
        <ele>988.262</ele>
        <time>2016-09-28T18:20:59Z</time>
      </trkpt>
      <trkpt lat="43.09077" lon="-1.24427">
        <ele>997.569</ele>
        <time>2016-09-28T18:21:39Z</time>
      </trkpt>
      <trkpt lat="43.08955" lon="-1.2444">
        <ele>1005.039</ele>
        <time>2016-09-28T18:22:19Z</time>
      </trkpt>
      <trkpt lat="43.08839" lon="-1.24552">
        <ele>1020.53</ele>
        <time>2016-09-28T18:22:59Z</time>
      </trkpt>
      <trkpt lat="43.089" lon="-1.24588">
        <ele>1019.029</ele>
        <time>2016-09-28T18:23:39Z</time>
      </trkpt>
      <trkpt lat="43.08958" lon="-1.24663">
        <ele>1032.051</ele>
        <time>2016-09-28T18:24:19Z</time>
      </trkpt>
      <trkpt lat="43.08809" lon="-1.24867">
        <ele>1049.712</ele>
        <time>2016-09-28T18:24:59Z</time>
      </trkpt>
      <trkpt lat="43.08759" lon="-1.24991">
        <ele>1056.814</ele>
        <time>2016-09-28T18:25:39Z</time>
      </trkpt>
      <trkpt lat="43.08656" lon="-1.25028">
        <ele>1068.916</ele>
        <time>2016-09-28T18:26:19Z</time>
      </trkpt>
      <trkpt lat="43.08584" lon="-1.25165">
        <ele>1074.176</ele>
        <time>2016-09-28T18:26:59Z</time>
      </trkpt>
      <trkpt lat="43.0848" lon="-1.25221">
        <ele>1084.613</ele>
        <time>2016-09-28T18:27:39Z</time>
      </trkpt>
      <trkpt lat="43.08327" lon="-1.25193">
        <ele>1092.608</ele>
        <time>2016-09-28T18:28:19Z</time>
      </trkpt>
      <trkpt lat="43.08129" lon="-1.25204">
        <ele>1093.267</ele>
        <time>2016-09-28T18:28:59Z</time>
      </trkpt>
      <trkpt lat="43.08113" lon="-1.25315">
        <ele>1102.054</ele>
        <time>2016-09-28T18:30:19Z</time>
      </trkpt>
      <trkpt lat="43.08041" lon="-1.25528">
        <ele>1120.515</ele>
        <time>2016-09-28T18:30:59Z</time>
      </trkpt>
      <trkpt lat="43.07957" lon="-1.25661">
        <ele>1130.544</ele>
        <time>2016-09-28T18:31:39Z</time>
      </trkpt>
      <trkpt lat="43.08015" lon="-1.25738">
        <ele>1132.866</ele>
        <time>2016-09-28T18:32:19Z</time>
      </trkpt>
      <trkpt lat="43.08021" lon="-1.25835">
        <ele>1129.617</ele>
        <time>2016-09-28T18:32:59Z</time>
      </trkpt>
      <trkpt lat="43.07968" lon="-1.25959">
        <ele>1122.999</ele>
        <time>2016-09-28T18:33:39Z</time>
      </trkpt>
      <trkpt lat="43.07914" lon="-1.26024">
        <ele>1120.646</ele>
        <time>2016-09-28T18:34:19Z</time>
      </trkpt>
      <trkpt lat="43.07777" lon="-1.2624">
        <ele>1110.788</ele>
        <time>2016-09-28T18:34:59Z</time>
      </trkpt>
      <trkpt lat="43.07687" lon="-1.26305">
        <ele>1112.416</ele>
        <time>2016-09-28T18:35:39Z</time>
      </trkpt>
      <trkpt lat="43.07574" lon="-1.2633">
        <ele>1118.008</ele>
        <time>2016-09-28T18:36:19Z</time>
      </trkpt>
      <trkpt lat="43.07446" lon="-1.26541">
        <ele>1129.26</ele>
        <time>2016-09-28T18:36:59Z</time>
      </trkpt>
      <trkpt lat="43.07405" lon="-1.26639">
        <ele>1131.527</ele>
        <time>2016-09-28T18:37:39Z</time>
      </trkpt>
      <trkpt lat="43.07292" lon="-1.2668">
        <ele>1144.367</ele>
        <time>2016-09-28T18:38:19Z</time>
      </trkpt>
      <trkpt lat="43.07178" lon="-1.26657">
        <ele>1150.988</ele>
        <time>2016-09-28T18:38:59Z</time>
      </trkpt>
      <trkpt lat="43.07115" lon="-1.26678">
        <ele>1157.337</ele>
        <time>2016-09-28T18:39:39Z</time>
      </trkpt>
      <trkpt lat="43.0712" lon="-1.26833">
        <ele>1169.589</ele>
        <time>2016-09-28T18:40:19Z</time>
      </trkpt>
      <trkpt lat="43.07101" lon="-1.26899">
        <ele>1175.04</ele>
        <time>2016-09-28T18:40:59Z</time>
      </trkpt>
      <trkpt lat="43.07034" lon="-1.2694">
        <ele>1182.492</ele>
        <time>2016-09-28T18:41:39Z</time>
      </trkpt>
      <trkpt lat="43.06969" lon="-1.26942">
        <ele>1188.354</ele>
        <time>2016-09-28T18:42:19Z</time>
      </trkpt>
      <trkpt lat="43.06814" lon="-1.26899">
        <ele>1195.956</ele>
        <time>2016-09-28T18:42:59Z</time>
      </trkpt>
      <trkpt lat="43.06786" lon="-1.26867">
        <ele>1194.011</ele>
        <time>2016-09-28T18:43:39Z</time>
      </trkpt>
      <trkpt lat="43.06755" lon="-1.26787">
        <ele>1195.208</ele>
        <time>2016-09-28T18:44:19Z</time>
      </trkpt>
      <trkpt lat="43.06345" lon="-1.26644">
        <ele>1193.321</ele>
        <time>2016-09-28T18:44:59Z</time>
      </trkpt>
      <trkpt lat="43.06174" lon="-1.26697">
        <ele>1194.258</ele>
        <time>2016-09-28T18:45:39Z</time>
      </trkpt>
      <trkpt lat="43.06135" lon="-1.26835">
        <ele>1202.578</ele>
        <time>2016-09-28T18:46:19Z</time>
      </trkpt>
      <trkpt lat="43.05977" lon="-1.26811">
        <ele>1219.249</ele>
        <time>2016-09-28T18:46:59Z</time>
      </trkpt>
      <trkpt lat="43.05867" lon="-1.26727">
        <ele>1227.498</ele>
        <time>2016-09-28T18:47:39Z</time>
      </trkpt>
      <trkpt lat="43.05648" lon="-1.26629">
        <ele>1252.86</ele>
        <time>2016-09-28T18:48:19Z</time>
      </trkpt>
      <trkpt lat="43.0553" lon="-1.26562">
        <ele>1269.311</ele>
        <time>2016-09-28T18:48:59Z</time>
      </trkpt>
      <trkpt lat="43.05524" lon="-1.26622">
        <ele>1278.873</ele>
        <time>2016-09-28T18:49:39Z</time>
      </trkpt>
      <trkpt lat="43.05482" lon="-1.26682">
        <ele>1290.049</ele>
        <time>2016-09-28T18:50:19Z</time>
      </trkpt>
      <trkpt lat="43.05311" lon="-1.26749">
        <ele>1285.002</ele>
        <time>2016-09-28T18:50:59Z</time>
      </trkpt>
      <trkpt lat="43.05179" lon="-1.26768">
        <ele>1284.522</ele>
        <time>2016-09-28T18:51:39Z</time>
      </trkpt>
      <trkpt lat="43.05085" lon="-1.26809">
        <ele>1287.508</ele>
        <time>2016-09-28T18:52:19Z</time>
      </trkpt>
      <trkpt lat="43.05052" lon="-1.26841">
        <ele>1288.27</ele>
        <time>2016-09-28T18:52:59Z</time>
      </trkpt>
      <trkpt lat="43.04999" lon="-1.26809">
        <ele>1297.557</ele>
        <time>2016-09-28T18:53:39Z</time>
      </trkpt>
      <trkpt lat="43.0492" lon="-1.26667">
        <ele>1304.167</ele>
        <time>2016-09-28T18:54:19Z</time>
      </trkpt>
      <trkpt lat="43.04788" lon="-1.26517">
        <ele>1311.238</ele>
        <time>2016-09-28T18:54:59Z</time>
      </trkpt>
      <trkpt lat="43.04684" lon="-1.26476">
        <ele>1308.819</ele>
        <time>2020-04-13T16:13:16Z</time>
      </trkpt>
      <trkpt lat="43.04597" lon="-1.26476">
        <ele>1309.58</ele>
        <time>2016-09-28T18:56:19Z</time>
      </trkpt>
      <trkpt lat="43.04518" lon="-1.26489">
        <ele>1318.532</ele>
        <time>2020-04-13T16:13:56Z</time>
      </trkpt>
      <trkpt lat="43.04484" lon="-1.26519">
        <ele>1323.393</ele>
        <time>2016-09-28T18:56:59Z</time>
      </trkpt>
      <trkpt lat="43.04453" lon="-1.26691">
        <ele>1318.165</ele>
        <time>2016-09-28T18:57:39Z</time>
      </trkpt>
      <trkpt lat="43.04361" lon="-1.26858">
        <ele>1317.821</ele>
        <time>2020-04-13T16:14:56Z</time>
      </trkpt>
      <trkpt lat="43.04287" lon="-1.27154">
        <ele>1309.808</ele>
        <time>2020-04-13T16:15:16Z</time>
      </trkpt>
      <trkpt lat="43.04247" lon="-1.27382">
        <ele>1301.085</ele>
        <time>2020-04-13T16:15:36Z</time>
      </trkpt>
      <trkpt lat="43.04174" lon="-1.27704">
        <ele>1295.082</ele>
        <time>2020-04-13T16:15:56Z</time>
      </trkpt>
      <trkpt lat="43.04072" lon="-1.27932">
        <ele>1295.132</ele>
        <time>2020-04-13T16:16:16Z</time>
      </trkpt>
      <trkpt lat="43.04036" lon="-1.28101">
        <ele>1285.473</ele>
        <time>2020-04-13T16:16:36Z</time>
      </trkpt>
      <trkpt lat="43.0395" lon="-1.28216">
        <ele>1286.342</ele>
        <time>2020-04-13T16:16:56Z</time>
      </trkpt>
      <trkpt lat="43.03894" lon="-1.28224">
        <ele>1290.384</ele>
        <time>2020-04-13T16:17:16Z</time>
      </trkpt>
      <trkpt lat="43.03838" lon="-1.28359">
        <ele>1292.275</ele>
        <time>2020-04-13T16:17:36Z</time>
      </trkpt>
      <trkpt lat="43.03767" lon="-1.2875">
        <ele>1309.187</ele>
        <time>2020-04-13T16:17:56Z</time>
      </trkpt>
      <trkpt lat="43.03605" lon="-1.29164">
        <ele>1345.986</ele>
        <time>2020-04-13T16:18:16Z</time>
      </trkpt>
      <trkpt lat="43.03539" lon="-1.2919">
        <ele>1355.36</ele>
        <time>2020-04-13T16:18:36Z</time>
      </trkpt>
      <trkpt lat="43.03464" lon="-1.29152">
        <ele>1367.326</ele>
        <time>2021-01-04T00:13:20Z</time>
      </trkpt>
      <trkpt lat="43.03446" lon="-1.29181">
        <ele>1371.008</ele>
        <time>2020-04-13T16:19:16Z</time>
      </trkpt>
      <trkpt lat="43.03386" lon="-1.29187">
        <ele>1371.234</ele>
        <time>2020-04-13T16:19:36Z</time>
      </trkpt>
      <trkpt lat="43.03303" lon="-1.29161">
        <ele>1372.871</ele>
        <time>2020-04-13T16:19:56Z</time>
      </trkpt>
      <trkpt lat="43.03191" lon="-1.29268">
        <ele>1395.271</ele>
        <time>2020-04-13T16:20:16Z</time>
      </trkpt>
      <trkpt lat="43.0309" lon="-1.2939">
        <ele>1408.432</ele>
        <time>2020-04-13T16:20:36Z</time>
      </trkpt>
      <trkpt lat="43.03065" lon="-1.29499">
        <ele>1411.391</ele>
        <time>2020-04-13T16:20:56Z</time>
      </trkpt>
      <trkpt lat="43.02984" lon="-1.2962">
        <ele>1417.023</ele>
        <time>2020-04-13T16:21:16Z</time>
      </trkpt>
      <trkpt lat="43.02885" lon="-1.29611">
        <ele>1420.994</ele>
        <time>2020-04-13T16:21:36Z</time>
      </trkpt>
      <trkpt lat="43.02675" lon="-1.2953">
        <ele>1427.026</ele>
        <time>2020-04-13T16:21:56Z</time>
      </trkpt>
      <trkpt lat="43.02622" lon="-1.2954">
        <ele>1432.761</ele>
        <time>2020-04-13T16:22:16Z</time>
      </trkpt>
      <trkpt lat="43.02592" lon="-1.29602">
        <ele>1420.521</ele>
        <time>2020-04-13T16:22:36Z</time>
      </trkpt>
      <trkpt lat="43.02537" lon="-1.29672">
        <ele>1397.713</ele>
        <time>2020-04-13T16:22:56Z</time>
      </trkpt>
      <trkpt lat="43.02415" lon="-1.29777">
        <ele>1353.008</ele>
        <time>2020-04-13T16:23:16Z</time>
      </trkpt>
      <trkpt lat="43.02245" lon="-1.29855">
        <ele>1296.442</ele>
        <time>2020-04-13T16:23:36Z</time>
      </trkpt>
      <trkpt lat="43.02177" lon="-1.29834">
        <ele>1278.849</ele>
        <time>2020-04-13T16:23:56Z</time>
      </trkpt>
      <trkpt lat="43.02063" lon="-1.3001">
        <ele>1256.139</ele>
        <time>2020-04-13T16:24:16Z</time>
      </trkpt>
      <trkpt lat="43.02011" lon="-1.30037">
        <ele>1250.14</ele>
        <time>2021-01-04T00:19:00Z</time>
      </trkpt>
      <trkpt lat="43.01966" lon="-1.30034">
        <ele>1242.469</ele>
        <time>2021-01-04T00:19:20Z</time>
      </trkpt>
      <trkpt lat="43.01917" lon="-1.2997">
        <ele>1219.241</ele>
        <time>2021-01-04T00:19:40Z</time>
      </trkpt>
      <trkpt lat="43.01873" lon="-1.29965">
        <ele>1204.082</ele>
        <time>2021-01-04T00:20:00Z</time>
      </trkpt>
      <trkpt lat="43.0184" lon="-1.30004">
        <ele>1191.654</ele>
        <time>2021-01-04T00:20:20Z</time>
      </trkpt>
      <trkpt lat="43.01803" lon="-1.30114">
        <ele>1168.855</ele>
        <time>2021-01-04T00:20:40Z</time>
      </trkpt>
      <trkpt lat="43.01721" lon="-1.3021">
        <ele>1138.307</ele>
        <time>2020-04-13T16:27:56Z</time>
      </trkpt>
      <trkpt lat="43.01333" lon="-1.30799">
        <ele>1121.117</ele>
        <time>2020-04-13T16:28:56Z</time>
      </trkpt>
      <trkpt lat="43.01276" lon="-1.30886">
        <ele>1110.708</ele>
        <time>2019-03-30T20:50:12Z</time>
      </trkpt>
      <trkpt lat="43.01231" lon="-1.30906">
        <ele>1102.531</ele>
        <time>2020-04-13T16:29:36Z</time>
      </trkpt>
      <trkpt lat="43.01169" lon="-1.3086">
        <ele>1085.688</ele>
        <time>2020-04-13T16:29:56Z</time>
      </trkpt>
      <trkpt lat="43.01126" lon="-1.30802">
        <ele>1070.048</ele>
        <time>2020-04-13T16:30:16Z</time>
      </trkpt>
      <trkpt lat="43.01005" lon="-1.30805">
        <ele>1049.079</ele>
        <time>2020-04-13T16:30:36Z</time>
      </trkpt>
      <trkpt lat="43.00935" lon="-1.30841">
        <ele>1035.028</ele>
        <time>2020-04-13T16:30:56Z</time>
      </trkpt>
      <trkpt lat="43.00855" lon="-1.30958">
        <ele>1017.67</ele>
        <time>2020-04-13T16:31:36Z</time>
      </trkpt>
      <trkpt lat="43.00744" lon="-1.31182">
        <ele>993.911</ele>
        <time>2020-04-13T16:32:16Z</time>
      </trkpt>
      <trkpt lat="43.00656" lon="-1.3139">
        <ele>959.853</ele>
        <time>2021-01-04T00:24:20Z</time>
      </trkpt>
      <trkpt lat="43.00664" lon="-1.315">
        <ele>951.842</ele>
        <time>2021-01-04T00:24:40Z</time>
      </trkpt>
      <trkpt lat="43.00766" lon="-1.31693">
        <ele>944.322</ele>
        <time>2020-04-13T16:33:16Z</time>
      </trkpt>
      <trkpt lat="43.00895" lon="-1.3188">
        <ele>938.414</ele>
        <time>2020-04-13T16:33:36Z</time>
      </trkpt>
      <trkpt lat="43.00886" lon="-1.31934">
        <ele>946.008</ele>
        <time>2020-04-13T16:33:56Z</time>
      </trkpt>
      <trkpt lat="43.00833" lon="-1.31913">
        <ele>943.86</ele>
        <time>2021-01-04T00:26:00Z</time>
      </trkpt>
      <trkpt lat="43.00816" lon="-1.32008">
        <ele>944.787</ele>
        <time>2021-01-04T00:26:20Z</time>
      </trkpt>
      <trkpt lat="43.00872" lon="-1.32046">
        <ele>947.227</ele>
        <time>2021-01-04T00:26:40Z</time>
      </trkpt>
    </trkseg>
  </trk>
  <trk>
    <name><![CDATA[GR®782 Chemin Henri IV (2021)]]></name>
    <desc><![CDATA[Randonnée sur le GR®782, Chemin Henri IV, à travers les Hautes-Pyrénées et les Pyrénées-Atlantiques de Lourdes à Artiguelouve. Gîtes d'étapes, Chambres d'hôtes, Maison d'hôtes, Hôtels, Camping, Refuges, Auberges, Commerces.]]></desc>
    <extensions>
      <line xmlns="http://www.topografix.com/GPX/gpx_style/0/2">
        <color>000000</color>
        <width>4</width>
      </line>
    </extensions>
    <trkseg>
      <trkpt lat="43.1103" lon="-0.06053">
        <ele>426.832</ele>
        <time>2021-05-13T17:43:43Z</time>
      </trkpt>
      <trkpt lat="43.10993" lon="-0.06103">
        <ele>422.792</ele>
        <time>2021-05-13T17:44:23Z</time>
      </trkpt>
      <trkpt lat="43.10982" lon="-0.06126">
        <ele>421.211</ele>
        <time>2021-05-13T17:45:03Z</time>
      </trkpt>
      <trkpt lat="43.10969" lon="-0.06192">
        <ele>417.408</ele>
        <time>2021-05-13T17:45:43Z</time>
      </trkpt>
      <trkpt lat="43.10949" lon="-0.06243">
        <ele>413.39</ele>
        <time>2021-05-13T17:46:23Z</time>
      </trkpt>
      <trkpt lat="43.10924" lon="-0.06268">
        <ele>411.895</ele>
        <time>2021-05-13T17:47:03Z</time>
      </trkpt>
      <trkpt lat="43.109" lon="-0.0628">
        <ele>411.272</ele>
        <time>2021-05-13T17:47:43Z</time>
      </trkpt>
      <trkpt lat="43.10931" lon="-0.06365">
        <ele>410.664</ele>
        <time>2021-05-13T17:48:23Z</time>
      </trkpt>
      <trkpt lat="43.10928" lon="-0.06408">
        <ele>410.485</ele>
        <time>2021-05-13T17:49:03Z</time>
      </trkpt>
      <trkpt lat="43.10889" lon="-0.06514">
        <ele>415.22</ele>
        <time>2021-05-13T17:49:43Z</time>
      </trkpt>
      <trkpt lat="43.10866" lon="-0.06529">
        <ele>415.149</ele>
        <time>2021-05-13T17:50:23Z</time>
      </trkpt>
      <trkpt lat="43.10786" lon="-0.06516">
        <ele>413.188</ele>
        <time>2021-05-13T17:51:03Z</time>
      </trkpt>
      <trkpt lat="43.10757" lon="-0.06519">
        <ele>412.613</ele>
        <time>2021-05-13T17:51:43Z</time>
      </trkpt>
      <trkpt lat="43.10738" lon="-0.06546">
        <ele>412.943</ele>
        <time>2021-05-13T17:52:23Z</time>
      </trkpt>
      <trkpt lat="43.10719" lon="-0.06561">
        <ele>412.707</ele>
        <time>2021-05-13T17:53:03Z</time>
      </trkpt>
      <trkpt lat="43.10814" lon="-0.06785">
        <ele>421.808</ele>
        <time>2020-10-31T09:57:38Z</time>
      </trkpt>
      <trkpt lat="43.10803" lon="-0.06852">
        <ele>423.768</ele>
        <time>2020-10-31T09:58:18Z</time>
      </trkpt>
      <trkpt lat="43.10753" lon="-0.07004">
        <ele>427.143</ele>
        <time>2020-10-31T09:58:58Z</time>
      </trkpt>
      <trkpt lat="43.10761" lon="-0.07107">
        <ele>430.51</ele>
        <time>2020-10-31T09:59:38Z</time>
      </trkpt>
      <trkpt lat="43.10753" lon="-0.0718">
        <ele>434.572</ele>
        <time>2020-10-31T10:00:18Z</time>
      </trkpt>
      <trkpt lat="43.10766" lon="-0.07455">
        <ele>436.863</ele>
        <time>2020-10-31T10:00:58Z</time>
      </trkpt>
      <trkpt lat="43.10788" lon="-0.07528">
        <ele>436.458</ele>
        <time>2020-10-31T10:01:38Z</time>
      </trkpt>
      <trkpt lat="43.10836" lon="-0.07573">
        <ele>447.457</ele>
        <time>2020-10-31T10:02:18Z</time>
      </trkpt>
      <trkpt lat="43.10846" lon="-0.07631">
        <ele>447.636</ele>
        <time>2020-10-31T10:02:58Z</time>
      </trkpt>
      <trkpt lat="43.10914" lon="-0.07701">
        <ele>458.127</ele>
        <time>2020-10-31T10:03:38Z</time>
      </trkpt>
      <trkpt lat="43.10971" lon="-0.07631">
        <ele>465.568</ele>
        <time>2020-10-31T10:04:18Z</time>
      </trkpt>
      <trkpt lat="43.11063" lon="-0.07695">
        <ele>470.714</ele>
        <time>2020-10-31T10:04:58Z</time>
      </trkpt>
      <trkpt lat="43.11092" lon="-0.07693">
        <ele>469.708</ele>
        <time>2020-10-31T10:05:38Z</time>
      </trkpt>
      <trkpt lat="43.11098" lon="-0.07744">
        <ele>468.689</ele>
        <time>2020-10-31T10:06:18Z</time>
      </trkpt>
      <trkpt lat="43.1117" lon="-0.07755">
        <ele>465.334</ele>
        <time>2020-10-31T10:06:58Z</time>
      </trkpt>
      <trkpt lat="43.112" lon="-0.07854">
        <ele>470.241</ele>
        <time>2020-10-31T10:07:38Z</time>
      </trkpt>
      <trkpt lat="43.11217" lon="-0.07993">
        <ele>477.123</ele>
        <time>2020-10-31T10:08:18Z</time>
      </trkpt>
      <trkpt lat="43.1125" lon="-0.08036">
        <ele>480.724</ele>
        <time>2020-10-31T10:08:58Z</time>
      </trkpt>
      <trkpt lat="43.11278" lon="-0.08113">
        <ele>485.099</ele>
        <time>2020-10-31T10:09:38Z</time>
      </trkpt>
      <trkpt lat="43.11308" lon="-0.08128">
        <ele>490.838</ele>
        <time>2020-10-31T10:10:18Z</time>
      </trkpt>
      <trkpt lat="43.11394" lon="-0.08096">
        <ele>494.827</ele>
        <time>2020-10-31T10:10:58Z</time>
      </trkpt>
      <trkpt lat="43.11414" lon="-0.08122">
        <ele>495.888</ele>
        <time>2020-10-31T10:11:38Z</time>
      </trkpt>
      <trkpt lat="43.11436" lon="-0.08227">
        <ele>499.424</ele>
        <time>2020-10-31T10:12:18Z</time>
      </trkpt>
      <trkpt lat="43.11456" lon="-0.08287">
        <ele>503.326</ele>
        <time>2020-10-31T10:12:58Z</time>
      </trkpt>
      <trkpt lat="43.11466" lon="-0.08362">
        <ele>503.608</ele>
        <time>2020-10-31T10:13:38Z</time>
      </trkpt>
      <trkpt lat="43.11514" lon="-0.08424">
        <ele>511.275</ele>
        <time>2020-10-31T10:14:18Z</time>
      </trkpt>
      <trkpt lat="43.11519" lon="-0.08485">
        <ele>512.29</ele>
        <time>2020-10-31T10:14:58Z</time>
      </trkpt>
      <trkpt lat="43.11552" lon="-0.08581">
        <ele>513.977</ele>
        <time>2020-10-31T10:15:38Z</time>
      </trkpt>
      <trkpt lat="43.11593" lon="-0.08622">
        <ele>514.739</ele>
        <time>2020-10-31T10:16:18Z</time>
      </trkpt>
      <trkpt lat="43.11771" lon="-0.08714">
        <ele>519.64</ele>
        <time>2020-10-31T10:16:58Z</time>
      </trkpt>
      <trkpt lat="43.11806" lon="-0.08693">
        <ele>518.925</ele>
        <time>2020-10-31T10:17:38Z</time>
      </trkpt>
      <trkpt lat="43.11934" lon="-0.08676">
        <ele>515.154</ele>
        <time>2020-10-31T10:18:18Z</time>
      </trkpt>
      <trkpt lat="43.12" lon="-0.08723">
        <ele>511.183</ele>
        <time>2020-10-31T10:18:58Z</time>
      </trkpt>
      <trkpt lat="43.12066" lon="-0.08864">
        <ele>508.375</ele>
        <time>2020-10-31T10:19:38Z</time>
      </trkpt>
      <trkpt lat="43.12085" lon="-0.08909">
        <ele>511.828</ele>
        <time>2020-10-31T10:20:18Z</time>
      </trkpt>
      <trkpt lat="43.12122" lon="-0.08972">
        <ele>513.12</ele>
        <time>2020-10-31T10:20:58Z</time>
      </trkpt>
      <trkpt lat="43.12232" lon="-0.09163">
        <ele>512.708</ele>
        <time>2020-10-31T10:21:38Z</time>
      </trkpt>
      <trkpt lat="43.12348" lon="-0.09285">
        <ele>509.064</ele>
        <time>2020-10-31T10:22:18Z</time>
      </trkpt>
      <trkpt lat="43.12428" lon="-0.09345">
        <ele>514.559</ele>
        <time>2020-10-31T10:22:58Z</time>
      </trkpt>
      <trkpt lat="43.12652" lon="-0.09603">
        <ele>510.026</ele>
        <time>2020-10-31T10:23:38Z</time>
      </trkpt>
      <trkpt lat="43.12769" lon="-0.09641">
        <ele>509.058</ele>
        <time>2020-10-31T10:24:18Z</time>
      </trkpt>
      <trkpt lat="43.12868" lon="-0.09742">
        <ele>508.839</ele>
        <time>2020-10-31T10:24:58Z</time>
      </trkpt>
      <trkpt lat="43.13469" lon="-0.10617">
        <ele>520.034</ele>
        <time>2020-10-31T10:25:38Z</time>
      </trkpt>
      <trkpt lat="43.13522" lon="-0.10714">
        <ele>520.053</ele>
        <time>2020-10-31T10:26:18Z</time>
      </trkpt>
      <trkpt lat="43.13568" lon="-0.10753">
        <ele>519.632</ele>
        <time>2020-10-31T10:26:58Z</time>
      </trkpt>
      <trkpt lat="43.13615" lon="-0.10755">
        <ele>515.235</ele>
        <time>2020-10-31T10:27:38Z</time>
      </trkpt>
      <trkpt lat="43.13621" lon="-0.10729">
        <ele>512.686</ele>
        <time>2020-10-31T10:28:18Z</time>
      </trkpt>
      <trkpt lat="43.13707" lon="-0.10658">
        <ele>509.814</ele>
        <time>2020-10-31T10:28:58Z</time>
      </trkpt>
      <trkpt lat="43.13757" lon="-0.10542">
        <ele>506.408</ele>
        <time>2020-10-31T10:29:38Z</time>
      </trkpt>
      <trkpt lat="43.13802" lon="-0.10525">
        <ele>506.41</ele>
        <time>2020-10-31T10:30:18Z</time>
      </trkpt>
      <trkpt lat="43.13851" lon="-0.10529">
        <ele>505.325</ele>
        <time>2020-10-31T10:30:58Z</time>
      </trkpt>
      <trkpt lat="43.139" lon="-0.10508">
        <ele>501.572</ele>
        <time>2020-10-31T10:31:38Z</time>
      </trkpt>
      <trkpt lat="43.13909" lon="-0.10532">
        <ele>504.314</ele>
        <time>2020-10-31T10:32:18Z</time>
      </trkpt>
      <trkpt lat="43.1389" lon="-0.10639">
        <ele>510.875</ele>
        <time>2020-10-31T10:32:58Z</time>
      </trkpt>
      <trkpt lat="43.13829" lon="-0.1068">
        <ele>516.93</ele>
        <time>2020-10-31T10:33:38Z</time>
      </trkpt>
      <trkpt lat="43.13849" lon="-0.108">
        <ele>517.039</ele>
        <time>2020-10-31T10:34:18Z</time>
      </trkpt>
      <trkpt lat="43.13842" lon="-0.10909">
        <ele>516.938</ele>
        <time>2020-10-31T10:34:58Z</time>
      </trkpt>
      <trkpt lat="43.13807" lon="-0.10963">
        <ele>514.611</ele>
        <time>2020-10-31T10:35:38Z</time>
      </trkpt>
      <trkpt lat="43.13801" lon="-0.10999">
        <ele>512.421</ele>
        <time>2020-10-31T10:36:18Z</time>
      </trkpt>
      <trkpt lat="43.13879" lon="-0.11167">
        <ele>510.003</ele>
        <time>2020-10-31T10:36:58Z</time>
      </trkpt>
      <trkpt lat="43.1392" lon="-0.11195">
        <ele>513.108</ele>
        <time>2020-10-31T10:37:38Z</time>
      </trkpt>
      <trkpt lat="43.13967" lon="-0.11184">
        <ele>512.058</ele>
        <time>2020-10-31T10:38:18Z</time>
      </trkpt>
      <trkpt lat="43.14" lon="-0.1119">
        <ele>510.993</ele>
        <time>2020-10-31T10:38:58Z</time>
      </trkpt>
      <trkpt lat="43.14102" lon="-0.11081">
        <ele>505.39</ele>
        <time>2020-10-31T10:39:38Z</time>
      </trkpt>
      <trkpt lat="43.14131" lon="-0.11085">
        <ele>501.112</ele>
        <time>2020-10-31T10:40:18Z</time>
      </trkpt>
      <trkpt lat="43.14294" lon="-0.11233">
        <ele>500.213</ele>
        <time>2020-10-31T10:40:58Z</time>
      </trkpt>
      <trkpt lat="43.14424" lon="-0.11394">
        <ele>508.968</ele>
        <time>2020-10-31T10:41:38Z</time>
      </trkpt>
      <trkpt lat="43.1452" lon="-0.11529">
        <ele>505.647</ele>
        <time>2020-10-31T10:42:18Z</time>
      </trkpt>
      <trkpt lat="43.14629" lon="-0.12064">
        <ele>500.066</ele>
        <time>2020-10-31T10:42:58Z</time>
      </trkpt>
      <trkpt lat="43.14706" lon="-0.12255">
        <ele>500.431</ele>
        <time>2020-10-31T10:43:38Z</time>
      </trkpt>
      <trkpt lat="43.14767" lon="-0.12353">
        <ele>501.561</ele>
        <time>2020-10-31T10:44:18Z</time>
      </trkpt>
      <trkpt lat="43.14988" lon="-0.12598">
        <ele>502.607</ele>
        <time>2020-10-31T10:44:58Z</time>
      </trkpt>
      <trkpt lat="43.15038" lon="-0.12714">
        <ele>502.608</ele>
        <time>2020-10-31T10:45:38Z</time>
      </trkpt>
      <trkpt lat="43.15057" lon="-0.12871">
        <ele>500.94</ele>
        <time>2020-10-31T10:46:18Z</time>
      </trkpt>
      <trkpt lat="43.15053" lon="-0.12978">
        <ele>499.315</ele>
        <time>2020-10-31T10:46:58Z</time>
      </trkpt>
      <trkpt lat="43.15039" lon="-0.13098">
        <ele>497.312</ele>
        <time>2020-10-31T10:47:38Z</time>
      </trkpt>
      <trkpt lat="43.15088" lon="-0.13368">
        <ele>491.644</ele>
        <time>2020-10-31T10:48:18Z</time>
      </trkpt>
      <trkpt lat="43.15124" lon="-0.13437">
        <ele>490.155</ele>
        <time>2020-10-31T10:48:58Z</time>
      </trkpt>
      <trkpt lat="43.15179" lon="-0.13476">
        <ele>490.02</ele>
        <time>2020-10-31T10:49:38Z</time>
      </trkpt>
      <trkpt lat="43.15208" lon="-0.13473">
        <ele>490.099</ele>
        <time>2020-10-31T10:50:18Z</time>
      </trkpt>
      <trkpt lat="43.15479" lon="-0.13675">
        <ele>485.238</ele>
        <time>2020-10-31T10:50:58Z</time>
      </trkpt>
      <trkpt lat="43.15572" lon="-0.13664">
        <ele>478.761</ele>
        <time>2020-10-31T10:51:38Z</time>
      </trkpt>
      <trkpt lat="43.15639" lon="-0.13744">
        <ele>478.821</ele>
        <time>2020-10-31T10:52:18Z</time>
      </trkpt>
      <trkpt lat="43.15745" lon="-0.13838">
        <ele>479.313</ele>
        <time>2020-10-31T10:52:58Z</time>
      </trkpt>
      <trkpt lat="43.15878" lon="-0.1404">
        <ele>480.008</ele>
        <time>2020-10-31T10:53:38Z</time>
      </trkpt>
      <trkpt lat="43.15917" lon="-0.14143">
        <ele>480.023</ele>
        <time>2020-10-31T10:54:18Z</time>
      </trkpt>
      <trkpt lat="43.15963" lon="-0.14351">
        <ele>484.148</ele>
        <time>2020-10-31T10:54:58Z</time>
      </trkpt>
      <trkpt lat="43.15989" lon="-0.14538">
        <ele>487.895</ele>
        <time>2020-10-31T10:55:38Z</time>
      </trkpt>
      <trkpt lat="43.16087" lon="-0.14883">
        <ele>490.027</ele>
        <time>2020-10-31T10:56:18Z</time>
      </trkpt>
      <trkpt lat="43.16254" lon="-0.14879">
        <ele>490.058</ele>
        <time>2020-10-31T10:56:58Z</time>
      </trkpt>
      <trkpt lat="43.16558" lon="-0.14993">
        <ele>480.023</ele>
        <time>2020-10-31T10:57:38Z</time>
      </trkpt>
      <trkpt lat="43.16741" lon="-0.15096">
        <ele>476.572</ele>
        <time>2020-10-31T10:58:18Z</time>
      </trkpt>
      <trkpt lat="43.16799" lon="-0.15109">
        <ele>472.431</ele>
        <time>2020-10-31T10:58:58Z</time>
      </trkpt>
      <trkpt lat="43.17013" lon="-0.15212">
        <ele>451.459</ele>
        <time>2020-10-31T10:59:38Z</time>
      </trkpt>
      <trkpt lat="43.17068" lon="-0.15272">
        <ele>458.903</ele>
        <time>2020-10-31T11:00:18Z</time>
      </trkpt>
      <trkpt lat="43.17195" lon="-0.15454">
        <ele>460.023</ele>
        <time>2020-10-31T11:00:58Z</time>
      </trkpt>
      <trkpt lat="43.17284" lon="-0.15688">
        <ele>461.008</ele>
        <time>2020-10-31T11:01:38Z</time>
      </trkpt>
      <trkpt lat="43.17346" lon="-0.15804">
        <ele>468.792</ele>
        <time>2020-10-31T11:02:18Z</time>
      </trkpt>
      <trkpt lat="43.17407" lon="-0.15857">
        <ele>480.037</ele>
        <time>2020-10-31T11:02:58Z</time>
      </trkpt>
      <trkpt lat="43.17586" lon="-0.15948">
        <ele>469.994</ele>
        <time>2020-10-31T11:03:38Z</time>
      </trkpt>
      <trkpt lat="43.17968" lon="-0.16265">
        <ele>472.396</ele>
        <time>2020-10-31T11:04:18Z</time>
      </trkpt>
      <trkpt lat="43.18173" lon="-0.1646">
        <ele>467.757</ele>
        <time>2020-10-31T11:04:58Z</time>
      </trkpt>
      <trkpt lat="43.18298" lon="-0.16535">
        <ele>460.322</ele>
        <time>2020-10-31T11:05:38Z</time>
      </trkpt>
      <trkpt lat="43.18437" lon="-0.16664">
        <ele>460.031</ele>
        <time>2020-10-31T11:06:18Z</time>
      </trkpt>
      <trkpt lat="43.18593" lon="-0.16844">
        <ele>460.07</ele>
        <time>2020-10-31T11:06:58Z</time>
      </trkpt>
      <trkpt lat="43.18783" lon="-0.17068">
        <ele>456.313</ele>
        <time>2020-10-31T11:07:38Z</time>
      </trkpt>
      <trkpt lat="43.1888" lon="-0.17117">
        <ele>443.443</ele>
        <time>2020-10-31T11:08:18Z</time>
      </trkpt>
      <trkpt lat="43.18996" lon="-0.17143">
        <ele>439.307</ele>
        <time>2020-10-31T11:08:58Z</time>
      </trkpt>
      <trkpt lat="43.19205" lon="-0.17241">
        <ele>430.008</ele>
        <time>2020-10-31T11:09:38Z</time>
      </trkpt>
      <trkpt lat="43.1942" lon="-0.17437">
        <ele>420.098</ele>
        <time>2020-10-31T11:10:18Z</time>
      </trkpt>
      <trkpt lat="43.19849" lon="-0.17692">
        <ele>430.083</ele>
        <time>2020-10-31T11:10:58Z</time>
      </trkpt>
      <trkpt lat="43.19939" lon="-0.17778">
        <ele>432.84</ele>
        <time>2020-10-31T11:11:38Z</time>
      </trkpt>
      <trkpt lat="43.20039" lon="-0.17992">
        <ele>440.052</ele>
        <time>2020-10-31T11:12:18Z</time>
      </trkpt>
      <trkpt lat="43.20157" lon="-0.18093">
        <ele>436.093</ele>
        <time>2020-10-31T11:12:58Z</time>
      </trkpt>
      <trkpt lat="43.20584" lon="-0.18186">
        <ele>415.038</ele>
        <time>2020-10-31T11:13:38Z</time>
      </trkpt>
      <trkpt lat="43.2089" lon="-0.18299">
        <ele>405.037</ele>
        <time>2020-10-31T11:14:18Z</time>
      </trkpt>
      <trkpt lat="43.20986" lon="-0.1834">
        <ele>405.026</ele>
        <time>2020-10-31T11:14:58Z</time>
      </trkpt>
      <trkpt lat="43.21165" lon="-0.18544">
        <ele>409.919</ele>
        <time>2020-10-31T11:15:38Z</time>
      </trkpt>
      <trkpt lat="43.21334" lon="-0.18801">
        <ele>410.009</ele>
        <time>2020-10-31T11:16:18Z</time>
      </trkpt>
      <trkpt lat="43.21474" lon="-0.18971">
        <ele>402.019</ele>
        <time>2020-10-31T11:16:58Z</time>
      </trkpt>
      <trkpt lat="43.21492" lon="-0.19035">
        <ele>404.408</ele>
        <time>2020-10-31T11:17:38Z</time>
      </trkpt>
      <trkpt lat="43.21528" lon="-0.19108">
        <ele>405.078</ele>
        <time>2020-10-31T11:18:18Z</time>
      </trkpt>
      <trkpt lat="43.21569" lon="-0.19254">
        <ele>404.523</ele>
        <time>2020-10-31T11:18:58Z</time>
      </trkpt>
      <trkpt lat="43.21602" lon="-0.1943">
        <ele>398.21</ele>
        <time>2020-10-31T11:19:38Z</time>
      </trkpt>
      <trkpt lat="43.21781" lon="-0.19583">
        <ele>394.162</ele>
        <time>2020-10-31T11:20:18Z</time>
      </trkpt>
      <trkpt lat="43.21795" lon="-0.1966">
        <ele>390.013</ele>
        <time>2021-05-13T19:17:03Z</time>
      </trkpt>
      <trkpt lat="43.21827" lon="-0.19629">
        <ele>391.528</ele>
        <time>2021-05-13T19:17:43Z</time>
      </trkpt>
      <trkpt lat="43.21956" lon="-0.19743">
        <ele>390.237</ele>
        <time>2021-05-13T19:18:23Z</time>
      </trkpt>
      <trkpt lat="43.2213" lon="-0.19924">
        <ele>384.966</ele>
        <time>2020-10-31T11:20:58Z</time>
      </trkpt>
      <trkpt lat="43.22171" lon="-0.19988">
        <ele>385.057</ele>
        <time>2020-10-31T11:21:38Z</time>
      </trkpt>
      <trkpt lat="43.22218" lon="-0.20132">
        <ele>385.7</ele>
        <time>2020-10-31T11:22:18Z</time>
      </trkpt>
      <trkpt lat="43.22288" lon="-0.20246">
        <ele>389.02</ele>
        <time>2020-10-31T11:22:58Z</time>
      </trkpt>
      <trkpt lat="43.22402" lon="-0.20383">
        <ele>393.708</ele>
        <time>2020-10-31T11:23:38Z</time>
      </trkpt>
      <trkpt lat="43.22521" lon="-0.20445">
        <ele>411.162</ele>
        <time>2020-10-31T11:24:18Z</time>
      </trkpt>
      <trkpt lat="43.22565" lon="-0.20458">
        <ele>414.327</ele>
        <time>2020-10-31T11:24:58Z</time>
      </trkpt>
      <trkpt lat="43.22663" lon="-0.20567">
        <ele>415.024</ele>
        <time>2020-10-31T11:25:38Z</time>
      </trkpt>
      <trkpt lat="43.22807" lon="-0.20791">
        <ele>394.386</ele>
        <time>2020-10-31T11:26:18Z</time>
      </trkpt>
      <trkpt lat="43.22896" lon="-0.20863">
        <ele>390.047</ele>
        <time>2020-10-31T11:26:58Z</time>
      </trkpt>
      <trkpt lat="43.23042" lon="-0.20915">
        <ele>390.012</ele>
        <time>2020-10-31T11:27:38Z</time>
      </trkpt>
      <trkpt lat="43.23225" lon="-0.21072">
        <ele>370.391</ele>
        <time>2020-10-31T11:28:18Z</time>
      </trkpt>
      <trkpt lat="43.23351" lon="-0.21213">
        <ele>360.79</ele>
        <time>2020-10-31T11:28:58Z</time>
      </trkpt>
      <trkpt lat="43.23462" lon="-0.21458">
        <ele>360.514</ele>
        <time>2020-10-31T11:29:38Z</time>
      </trkpt>
      <trkpt lat="43.23533" lon="-0.21503">
        <ele>365.254</ele>
        <time>2020-10-31T11:30:18Z</time>
      </trkpt>
      <trkpt lat="43.23664" lon="-0.2173">
        <ele>388.309</ele>
        <time>2020-10-31T11:30:58Z</time>
      </trkpt>
      <trkpt lat="43.23722" lon="-0.21874">
        <ele>395.008</ele>
        <time>2020-10-31T11:31:38Z</time>
      </trkpt>
      <trkpt lat="43.23802" lon="-0.22016">
        <ele>395.018</ele>
        <time>2020-10-31T11:32:18Z</time>
      </trkpt>
      <trkpt lat="43.23875" lon="-0.22082">
        <ele>395.073</ele>
        <time>2020-10-31T11:32:58Z</time>
      </trkpt>
      <trkpt lat="43.23934" lon="-0.22256">
        <ele>394.85</ele>
        <time>2020-10-31T11:33:38Z</time>
      </trkpt>
      <trkpt lat="43.23939" lon="-0.22389">
        <ele>393.842</ele>
        <time>2020-10-31T11:34:18Z</time>
      </trkpt>
      <trkpt lat="43.23988" lon="-0.22591">
        <ele>398.853</ele>
        <time>2020-10-31T11:34:58Z</time>
      </trkpt>
      <trkpt lat="43.24024" lon="-0.22717">
        <ele>409.738</ele>
        <time>2020-10-31T11:35:38Z</time>
      </trkpt>
      <trkpt lat="43.24074" lon="-0.22771">
        <ele>405.337</ele>
        <time>2020-10-31T11:36:18Z</time>
      </trkpt>
      <trkpt lat="43.24102" lon="-0.22831">
        <ele>400.836</ele>
        <time>2020-10-31T11:36:58Z</time>
      </trkpt>
      <trkpt lat="43.24152" lon="-0.22872">
        <ele>400.083</ele>
        <time>2020-10-31T11:37:38Z</time>
      </trkpt>
      <trkpt lat="43.24194" lon="-0.22945">
        <ele>397.925</ele>
        <time>2020-10-31T11:38:18Z</time>
      </trkpt>
      <trkpt lat="43.24253" lon="-0.22958">
        <ele>395.017</ele>
        <time>2020-10-31T11:38:58Z</time>
      </trkpt>
      <trkpt lat="43.24346" lon="-0.23035">
        <ele>395.008</ele>
        <time>2020-10-31T11:39:38Z</time>
      </trkpt>
      <trkpt lat="43.24466" lon="-0.232">
        <ele>394.995</ele>
        <time>2020-10-31T11:40:18Z</time>
      </trkpt>
      <trkpt lat="43.24477" lon="-0.23301">
        <ele>386.42</ele>
        <time>2020-10-31T11:40:58Z</time>
      </trkpt>
      <trkpt lat="43.24535" lon="-0.2335">
        <ele>386.197</ele>
        <time>2020-10-31T11:41:38Z</time>
      </trkpt>
      <trkpt lat="43.24552" lon="-0.23398">
        <ele>383.569</ele>
        <time>2020-10-31T11:42:18Z</time>
      </trkpt>
      <trkpt lat="43.24594" lon="-0.23449">
        <ele>385.47</ele>
        <time>2020-10-31T11:42:58Z</time>
      </trkpt>
      <trkpt lat="43.24618" lon="-0.23514">
        <ele>387.825</ele>
        <time>2020-10-31T11:43:38Z</time>
      </trkpt>
      <trkpt lat="43.24693" lon="-0.23582">
        <ele>394.954</ele>
        <time>2020-10-31T11:44:18Z</time>
      </trkpt>
      <trkpt lat="43.24704" lon="-0.23642">
        <ele>394.253</ele>
        <time>2020-10-31T11:44:58Z</time>
      </trkpt>
      <trkpt lat="43.24725" lon="-0.23702">
        <ele>395.058</ele>
        <time>2020-10-31T11:45:38Z</time>
      </trkpt>
      <trkpt lat="43.2479" lon="-0.23739">
        <ele>390.452</ele>
        <time>2020-10-31T11:46:18Z</time>
      </trkpt>
      <trkpt lat="43.24932" lon="-0.23893">
        <ele>373.517</ele>
        <time>2020-10-31T11:46:58Z</time>
      </trkpt>
      <trkpt lat="43.25077" lon="-0.24112">
        <ele>365.008</ele>
        <time>2020-10-31T11:47:38Z</time>
      </trkpt>
      <trkpt lat="43.25254" lon="-0.24434">
        <ele>355.012</ele>
        <time>2020-10-31T11:48:18Z</time>
      </trkpt>
      <trkpt lat="43.25315" lon="-0.24494">
        <ele>355.037</ele>
        <time>2020-10-31T11:48:58Z</time>
      </trkpt>
      <trkpt lat="43.25431" lon="-0.2473">
        <ele>357.214</ele>
        <time>2020-10-31T11:49:38Z</time>
      </trkpt>
      <trkpt lat="43.25494" lon="-0.24816">
        <ele>352.766</ele>
        <time>2020-10-31T11:50:18Z</time>
      </trkpt>
      <trkpt lat="43.25619" lon="-0.24923">
        <ele>344.237</ele>
        <time>2020-10-31T11:50:58Z</time>
      </trkpt>
      <trkpt lat="43.25723" lon="-0.24964">
        <ele>338.032</ele>
        <time>2020-10-31T11:51:38Z</time>
      </trkpt>
      <trkpt lat="43.25784" lon="-0.25054">
        <ele>339.351</ele>
        <time>2020-10-31T11:52:18Z</time>
      </trkpt>
      <trkpt lat="43.25838" lon="-0.25202">
        <ele>337.48</ele>
        <time>2020-10-31T11:52:58Z</time>
      </trkpt>
      <trkpt lat="43.26048" lon="-0.25329">
        <ele>314.885</ele>
        <time>2020-10-31T11:53:38Z</time>
      </trkpt>
      <trkpt lat="43.26264" lon="-0.25492">
        <ele>313.589</ele>
        <time>2020-10-31T11:54:18Z</time>
      </trkpt>
      <trkpt lat="43.26303" lon="-0.25593">
        <ele>320.517</ele>
        <time>2020-10-31T11:54:58Z</time>
      </trkpt>
      <trkpt lat="43.26317" lon="-0.25706">
        <ele>326.908</ele>
        <time>2020-10-31T11:55:38Z</time>
      </trkpt>
      <trkpt lat="43.263" lon="-0.2585">
        <ele>328.775</ele>
        <time>2020-10-31T11:56:18Z</time>
      </trkpt>
      <trkpt lat="43.26317" lon="-0.25951">
        <ele>328.93</ele>
        <time>2020-10-31T11:56:58Z</time>
      </trkpt>
      <trkpt lat="43.26375" lon="-0.26028">
        <ele>323.447</ele>
        <time>2020-10-31T11:57:38Z</time>
      </trkpt>
      <trkpt lat="43.26566" lon="-0.26112">
        <ele>316.299</ele>
        <time>2020-10-31T11:58:18Z</time>
      </trkpt>
      <trkpt lat="43.2663" lon="-0.26196">
        <ele>306.61</ele>
        <time>2020-10-31T11:58:58Z</time>
      </trkpt>
      <trkpt lat="43.26764" lon="-0.26473">
        <ele>284.065</ele>
        <time>2020-10-31T11:59:38Z</time>
      </trkpt>
      <trkpt lat="43.26766" lon="-0.26505">
        <ele>283.984</ele>
        <time>2020-10-31T12:00:18Z</time>
      </trkpt>
      <trkpt lat="43.26825" lon="-0.26681">
        <ele>293.613</ele>
        <time>2020-10-31T12:00:58Z</time>
      </trkpt>
      <trkpt lat="43.26888" lon="-0.26846">
        <ele>302.922</ele>
        <time>2020-10-31T12:01:38Z</time>
      </trkpt>
      <trkpt lat="43.26936" lon="-0.2694">
        <ele>300.262</ele>
        <time>2020-10-31T12:02:18Z</time>
      </trkpt>
      <trkpt lat="43.27014" lon="-0.27106">
        <ele>296.608</ele>
        <time>2020-10-31T12:02:58Z</time>
      </trkpt>
      <trkpt lat="43.27134" lon="-0.27219">
        <ele>276.008</ele>
        <time>2020-10-31T12:03:38Z</time>
      </trkpt>
      <trkpt lat="43.27139" lon="-0.27245">
        <ele>275.849</ele>
        <time>2020-10-31T12:04:18Z</time>
      </trkpt>
      <trkpt lat="43.27183" lon="-0.27333">
        <ele>272.774</ele>
        <time>2020-10-31T12:04:58Z</time>
      </trkpt>
      <trkpt lat="43.2722" lon="-0.27451">
        <ele>269.391</ele>
        <time>2020-10-31T12:05:38Z</time>
      </trkpt>
      <trkpt lat="43.27225" lon="-0.27545">
        <ele>269.493</ele>
        <time>2020-10-31T12:06:18Z</time>
      </trkpt>
      <trkpt lat="43.27292" lon="-0.27719">
        <ele>265.594</ele>
        <time>2020-10-31T12:06:58Z</time>
      </trkpt>
      <trkpt lat="43.27352" lon="-0.27739">
        <ele>263.379</ele>
        <time>2020-10-31T12:07:38Z</time>
      </trkpt>
      <trkpt lat="43.27364" lon="-0.27715">
        <ele>263.098</ele>
        <time>2020-10-31T12:08:18Z</time>
      </trkpt>
      <trkpt lat="43.27419" lon="-0.27809">
        <ele>261.057</ele>
        <time>2020-10-31T12:08:58Z</time>
      </trkpt>
      <trkpt lat="43.27453" lon="-0.2797">
        <ele>260.041</ele>
        <time>2020-10-31T12:09:38Z</time>
      </trkpt>
      <trkpt lat="43.27489" lon="-0.2799">
        <ele>260.081</ele>
        <time>2020-10-31T12:10:18Z</time>
      </trkpt>
      <trkpt lat="43.27602" lon="-0.28408">
        <ele>259.009</ele>
        <time>2020-10-31T12:10:58Z</time>
      </trkpt>
      <trkpt lat="43.27644" lon="-0.28603">
        <ele>257.808</ele>
        <time>2020-10-31T12:11:38Z</time>
      </trkpt>
      <trkpt lat="43.28056" lon="-0.30024">
        <ele>247.151</ele>
        <time>2020-10-31T12:12:18Z</time>
      </trkpt>
      <trkpt lat="43.28047" lon="-0.30056">
        <ele>247.386</ele>
        <time>2020-10-31T12:12:58Z</time>
      </trkpt>
      <trkpt lat="43.28089" lon="-0.30144">
        <ele>245.013</ele>
        <time>2020-10-31T12:13:38Z</time>
      </trkpt>
      <trkpt lat="43.2815" lon="-0.30303">
        <ele>243.775</ele>
        <time>2020-10-31T12:14:18Z</time>
      </trkpt>
      <trkpt lat="43.28236" lon="-0.30549">
        <ele>242.086</ele>
        <time>2020-10-31T12:14:58Z</time>
      </trkpt>
      <trkpt lat="43.28278" lon="-0.30736">
        <ele>242.031</ele>
        <time>2020-10-31T12:15:38Z</time>
      </trkpt>
      <trkpt lat="43.28303" lon="-0.30734">
        <ele>240.61</ele>
        <time>2020-10-31T12:16:18Z</time>
      </trkpt>
      <trkpt lat="43.28305" lon="-0.30768">
        <ele>241.039</ele>
        <time>2020-10-31T12:16:58Z</time>
      </trkpt>
      <trkpt lat="43.28298" lon="-0.30794">
        <ele>241.381</ele>
        <time>2020-10-31T12:17:38Z</time>
      </trkpt>
      <trkpt lat="43.28301" lon="-0.31015">
        <ele>239.361</ele>
        <time>2020-10-31T12:18:18Z</time>
      </trkpt>
      <trkpt lat="43.28333" lon="-0.31155">
        <ele>235.117</ele>
        <time>2020-10-31T12:18:58Z</time>
      </trkpt>
      <trkpt lat="43.28364" lon="-0.31511">
        <ele>234.808</ele>
        <time>2020-10-31T12:19:38Z</time>
      </trkpt>
      <trkpt lat="43.28364" lon="-0.31558">
        <ele>235.085</ele>
        <time>2020-10-31T12:20:18Z</time>
      </trkpt>
      <trkpt lat="43.28387" lon="-0.31594">
        <ele>235.07</ele>
        <time>2020-10-31T12:20:58Z</time>
      </trkpt>
      <trkpt lat="43.28406" lon="-0.3167">
        <ele>235.057</ele>
        <time>2020-10-31T12:21:38Z</time>
      </trkpt>
      <trkpt lat="43.28467" lon="-0.31824">
        <ele>234.779</ele>
        <time>2020-10-31T12:22:18Z</time>
      </trkpt>
      <trkpt lat="43.28499" lon="-0.31958">
        <ele>241.04</ele>
        <time>2020-10-31T12:22:58Z</time>
      </trkpt>
      <trkpt lat="43.2849" lon="-0.32067">
        <ele>235.015</ele>
        <time>2020-10-31T12:24:58Z</time>
      </trkpt>
      <trkpt lat="43.2845" lon="-0.32079">
        <ele>235.084</ele>
        <time>2020-10-31T12:25:38Z</time>
      </trkpt>
      <trkpt lat="43.28426" lon="-0.32037">
        <ele>235.063</ele>
        <time>2020-10-31T12:26:18Z</time>
      </trkpt>
      <trkpt lat="43.28361" lon="-0.32069">
        <ele>235.091</ele>
        <time>2020-10-31T12:26:58Z</time>
      </trkpt>
      <trkpt lat="43.2844" lon="-0.3229">
        <ele>235.081</ele>
        <time>2020-10-31T12:27:38Z</time>
      </trkpt>
      <trkpt lat="43.28473" lon="-0.32408">
        <ele>234.519</ele>
        <time>2020-10-31T12:28:18Z</time>
      </trkpt>
      <trkpt lat="43.28515" lon="-0.32474">
        <ele>229.208</ele>
        <time>2020-10-31T12:28:58Z</time>
      </trkpt>
      <trkpt lat="43.28531" lon="-0.32674">
        <ele>229.146</ele>
        <time>2020-10-31T12:29:38Z</time>
      </trkpt>
      <trkpt lat="43.28611" lon="-0.33142">
        <ele>229.061</ele>
        <time>2020-10-31T12:30:18Z</time>
      </trkpt>
      <trkpt lat="43.28614" lon="-0.3329">
        <ele>229.478</ele>
        <time>2020-10-31T12:30:58Z</time>
      </trkpt>
      <trkpt lat="43.28636" lon="-0.33333">
        <ele>226.43</ele>
        <time>2020-10-31T12:31:38Z</time>
      </trkpt>
      <trkpt lat="43.28659" lon="-0.33588">
        <ele>229.361</ele>
        <time>2020-10-31T12:32:18Z</time>
      </trkpt>
      <trkpt lat="43.28693" lon="-0.33727">
        <ele>226.266</ele>
        <time>2020-10-31T12:32:58Z</time>
      </trkpt>
      <trkpt lat="43.28684" lon="-0.3397">
        <ele>225.585</ele>
        <time>2020-10-31T12:33:38Z</time>
      </trkpt>
      <trkpt lat="43.28662" lon="-0.34219">
        <ele>225.154</ele>
        <time>2020-10-31T12:34:18Z</time>
      </trkpt>
      <trkpt lat="43.28689" lon="-0.34478">
        <ele>218.625</ele>
        <time>2020-10-31T12:34:58Z</time>
      </trkpt>
      <trkpt lat="43.28677" lon="-0.34993">
        <ele>194.126</ele>
        <time>2020-10-31T12:35:38Z</time>
      </trkpt>
      <trkpt lat="43.28818" lon="-0.35103">
        <ele>190.908</ele>
        <time>2020-10-31T12:36:18Z</time>
      </trkpt>
      <trkpt lat="43.28872" lon="-0.35241">
        <ele>189.608</ele>
        <time>2021-05-13T20:33:43Z</time>
      </trkpt>
      <trkpt lat="43.28889" lon="-0.35247">
        <ele>189.449</ele>
        <time>2021-05-13T20:34:23Z</time>
      </trkpt>
      <trkpt lat="43.28957" lon="-0.35387">
        <ele>188.534</ele>
        <time>2021-05-13T20:35:03Z</time>
      </trkpt>
      <trkpt lat="43.29002" lon="-0.3549">
        <ele>188.831</ele>
        <time>2021-05-13T20:35:43Z</time>
      </trkpt>
      <trkpt lat="43.29014" lon="-0.35561">
        <ele>188.553</ele>
        <time>2021-05-13T20:36:23Z</time>
      </trkpt>
      <trkpt lat="43.29067" lon="-0.35608">
        <ele>187.014</ele>
        <time>2021-05-13T20:37:03Z</time>
      </trkpt>
      <trkpt lat="43.2909" lon="-0.35661">
        <ele>187.869</ele>
        <time>2021-05-13T20:37:43Z</time>
      </trkpt>
      <trkpt lat="43.29167" lon="-0.35711">
        <ele>187.058</ele>
        <time>2020-10-31T12:36:58Z</time>
      </trkpt>
      <trkpt lat="43.29171" lon="-0.35788">
        <ele>186.917</ele>
        <time>2020-10-31T12:37:38Z</time>
      </trkpt>
      <trkpt lat="43.29251" lon="-0.35768">
        <ele>180.016</ele>
        <time>2020-10-31T12:38:18Z</time>
      </trkpt>
      <trkpt lat="43.29385" lon="-0.35832">
        <ele>183.976</ele>
        <time>2020-10-31T12:38:58Z</time>
      </trkpt>
      <trkpt lat="43.29428" lon="-0.35901">
        <ele>186.213</ele>
        <time>2020-10-31T12:39:38Z</time>
      </trkpt>
      <trkpt lat="43.29452" lon="-0.35926">
        <ele>199.008</ele>
        <time>2020-10-31T12:40:18Z</time>
      </trkpt>
      <trkpt lat="43.29438" lon="-0.36025">
        <ele>199.938</ele>
        <time>2021-05-13T20:42:23Z</time>
      </trkpt>
      <trkpt lat="43.29395" lon="-0.36142">
        <ele>202.873</ele>
        <time>2020-10-31T12:40:58Z</time>
      </trkpt>
      <trkpt lat="43.29381" lon="-0.36247">
        <ele>203.75</ele>
        <time>2020-10-31T12:41:38Z</time>
      </trkpt>
      <trkpt lat="43.29389" lon="-0.36278">
        <ele>205.482</ele>
        <time>2021-05-13T20:44:23Z</time>
      </trkpt>
      <trkpt lat="43.29406" lon="-0.36307">
        <ele>208.973</ele>
        <time>2020-10-31T12:42:18Z</time>
      </trkpt>
      <trkpt lat="43.29332" lon="-0.36815">
        <ele>199.318</ele>
        <time>2020-10-31T12:42:58Z</time>
      </trkpt>
      <trkpt lat="43.29339" lon="-0.37206">
        <ele>191.027</ele>
        <time>2020-10-31T12:43:38Z</time>
      </trkpt>
      <trkpt lat="43.29363" lon="-0.37302">
        <ele>189.786</ele>
        <time>2020-10-31T12:44:18Z</time>
      </trkpt>
      <trkpt lat="43.29393" lon="-0.37395">
        <ele>195.714</ele>
        <time>2021-05-13T20:47:43Z</time>
      </trkpt>
      <trkpt lat="43.29389" lon="-0.37431">
        <ele>191.854</ele>
        <time>2021-05-13T20:48:23Z</time>
      </trkpt>
      <trkpt lat="43.29418" lon="-0.37515">
        <ele>189.409</ele>
        <time>2021-05-13T20:49:03Z</time>
      </trkpt>
      <trkpt lat="43.29398" lon="-0.37543">
        <ele>185.908</ele>
        <time>2021-05-13T20:49:43Z</time>
      </trkpt>
      <trkpt lat="43.29401" lon="-0.37624">
        <ele>182.818</ele>
        <time>2021-05-13T20:50:23Z</time>
      </trkpt>
      <trkpt lat="43.2942" lon="-0.37732">
        <ele>181.493</ele>
        <time>2021-05-13T20:51:03Z</time>
      </trkpt>
      <trkpt lat="43.29263" lon="-0.37805">
        <ele>178.14</ele>
        <time>2021-05-13T20:51:43Z</time>
      </trkpt>
      <trkpt lat="43.29302" lon="-0.37957">
        <ele>175.582</ele>
        <time>2021-05-13T20:52:23Z</time>
      </trkpt>
      <trkpt lat="43.29301" lon="-0.38022">
        <ele>175.583</ele>
        <time>2021-05-13T20:53:03Z</time>
      </trkpt>
      <trkpt lat="43.29337" lon="-0.38226">
        <ele>174.668</ele>
        <time>2021-05-13T20:53:43Z</time>
      </trkpt>
      <trkpt lat="43.29297" lon="-0.38533">
        <ele>174.957</ele>
        <time>2021-05-13T20:54:23Z</time>
      </trkpt>
      <trkpt lat="43.29302" lon="-0.38666">
        <ele>173.636</ele>
        <time>2021-05-13T20:55:03Z</time>
      </trkpt>
      <trkpt lat="43.29511" lon="-0.38715">
        <ele>177.251</ele>
        <time>2021-05-13T20:55:43Z</time>
      </trkpt>
      <trkpt lat="43.29508" lon="-0.38736">
        <ele>176.001</ele>
        <time>2021-05-13T20:56:23Z</time>
      </trkpt>
      <trkpt lat="43.2943" lon="-0.3891">
        <ele>169.511</ele>
        <time>2020-10-31T12:55:38Z</time>
      </trkpt>
      <trkpt lat="43.29375" lon="-0.38915">
        <ele>166.508</ele>
        <time>2020-10-31T12:56:18Z</time>
      </trkpt>
      <trkpt lat="43.29344" lon="-0.38956">
        <ele>167.432</ele>
        <time>2020-10-31T12:56:58Z</time>
      </trkpt>
      <trkpt lat="43.29314" lon="-0.39054">
        <ele>167.067</ele>
        <time>2020-10-31T12:57:38Z</time>
      </trkpt>
      <trkpt lat="43.293" lon="-0.39136">
        <ele>167.034</ele>
        <time>2020-10-31T12:58:18Z</time>
      </trkpt>
      <trkpt lat="43.29277" lon="-0.39219">
        <ele>166.126</ele>
        <time>2020-10-31T12:58:58Z</time>
      </trkpt>
      <trkpt lat="43.29293" lon="-0.394">
        <ele>165.037</ele>
        <time>2020-10-31T12:59:38Z</time>
      </trkpt>
      <trkpt lat="43.29319" lon="-0.39486">
        <ele>165.092</ele>
        <time>2020-10-31T13:00:18Z</time>
      </trkpt>
      <trkpt lat="43.29354" lon="-0.39563">
        <ele>165.091</ele>
        <time>2020-10-31T13:00:58Z</time>
      </trkpt>
      <trkpt lat="43.29385" lon="-0.39606">
        <ele>165.09</ele>
        <time>2020-10-31T13:01:38Z</time>
      </trkpt>
      <trkpt lat="43.29464" lon="-0.39794">
        <ele>165.046</ele>
        <time>2020-10-31T13:02:18Z</time>
      </trkpt>
      <trkpt lat="43.29508" lon="-0.3982">
        <ele>165.088</ele>
        <time>2020-10-31T13:02:58Z</time>
      </trkpt>
      <trkpt lat="43.29514" lon="-0.39895">
        <ele>165.016</ele>
        <time>2020-10-31T13:03:38Z</time>
      </trkpt>
      <trkpt lat="43.2951" lon="-0.39975">
        <ele>165.008</ele>
        <time>2020-10-31T13:04:18Z</time>
      </trkpt>
      <trkpt lat="43.29483" lon="-0.40125">
        <ele>165.081</ele>
        <time>2020-10-31T13:04:58Z</time>
      </trkpt>
      <trkpt lat="43.2948" lon="-0.40206">
        <ele>165.056</ele>
        <time>2020-10-31T13:05:38Z</time>
      </trkpt>
      <trkpt lat="43.29491" lon="-0.40245">
        <ele>165.053</ele>
        <time>2020-10-31T13:06:18Z</time>
      </trkpt>
      <trkpt lat="43.29468" lon="-0.40284">
        <ele>165.035</ele>
        <time>2020-10-31T13:06:58Z</time>
      </trkpt>
      <trkpt lat="43.29457" lon="-0.40348">
        <ele>165.046</ele>
        <time>2020-10-31T13:07:38Z</time>
      </trkpt>
      <trkpt lat="43.29433" lon="-0.40455">
        <ele>165.071</ele>
        <time>2020-10-31T13:08:18Z</time>
      </trkpt>
      <trkpt lat="43.2936" lon="-0.40561">
        <ele>165.08</ele>
        <time>2020-10-31T13:08:58Z</time>
      </trkpt>
      <trkpt lat="43.29364" lon="-0.40621">
        <ele>165.039</ele>
        <time>2020-10-31T13:09:38Z</time>
      </trkpt>
      <trkpt lat="43.2935" lon="-0.40646">
        <ele>165.017</ele>
        <time>2020-10-31T13:10:18Z</time>
      </trkpt>
      <trkpt lat="43.29352" lon="-0.40681">
        <ele>165.087</ele>
        <time>2020-10-31T13:10:58Z</time>
      </trkpt>
      <trkpt lat="43.29336" lon="-0.40764">
        <ele>165.015</ele>
        <time>2020-10-31T13:11:38Z</time>
      </trkpt>
      <trkpt lat="43.29374" lon="-0.40889">
        <ele>165.008</ele>
        <time>2020-10-31T13:12:18Z</time>
      </trkpt>
      <trkpt lat="43.29402" lon="-0.4097">
        <ele>165.058</ele>
        <time>2020-10-31T13:12:58Z</time>
      </trkpt>
      <trkpt lat="43.29439" lon="-0.4102">
        <ele>165.013</ele>
        <time>2020-10-31T13:13:38Z</time>
      </trkpt>
      <trkpt lat="43.29488" lon="-0.41056">
        <ele>165.09</ele>
        <time>2020-10-31T13:14:18Z</time>
      </trkpt>
      <trkpt lat="43.29528" lon="-0.41133">
        <ele>165.022</ele>
        <time>2020-10-31T13:14:58Z</time>
      </trkpt>
      <trkpt lat="43.2955" lon="-0.41137">
        <ele>165.093</ele>
        <time>2020-10-31T13:15:38Z</time>
      </trkpt>
      <trkpt lat="43.29575" lon="-0.41129">
        <ele>165.078</ele>
        <time>2020-10-31T13:16:18Z</time>
      </trkpt>
      <trkpt lat="43.29636" lon="-0.41142">
        <ele>165.037</ele>
        <time>2020-10-31T13:16:58Z</time>
      </trkpt>
      <trkpt lat="43.29674" lon="-0.41146">
        <ele>165.036</ele>
        <time>2020-10-31T13:17:38Z</time>
      </trkpt>
      <trkpt lat="43.29702" lon="-0.41174">
        <ele>165.078</ele>
        <time>2020-10-31T13:18:18Z</time>
      </trkpt>
      <trkpt lat="43.29703" lon="-0.41249">
        <ele>165.033</ele>
        <time>2020-10-31T13:18:58Z</time>
      </trkpt>
      <trkpt lat="43.29735" lon="-0.41286">
        <ele>165.026</ele>
        <time>2020-10-31T13:19:38Z</time>
      </trkpt>
      <trkpt lat="43.29678" lon="-0.41376">
        <ele>164.008</ele>
        <time>2020-10-31T13:20:18Z</time>
      </trkpt>
      <trkpt lat="43.29694" lon="-0.41397">
        <ele>164.014</ele>
        <time>2020-10-31T13:20:58Z</time>
      </trkpt>
      <trkpt lat="43.29708" lon="-0.41464">
        <ele>164.029</ele>
        <time>2020-10-31T13:21:38Z</time>
      </trkpt>
      <trkpt lat="43.29772" lon="-0.41549">
        <ele>164.076</ele>
        <time>2020-10-31T13:22:18Z</time>
      </trkpt>
      <trkpt lat="43.29772" lon="-0.4159">
        <ele>164.098</ele>
        <time>2020-10-31T13:22:58Z</time>
      </trkpt>
      <trkpt lat="43.29797" lon="-0.41642">
        <ele>164.059</ele>
        <time>2020-10-31T13:23:38Z</time>
      </trkpt>
      <trkpt lat="43.29794" lon="-0.417">
        <ele>164.034</ele>
        <time>2020-10-31T13:24:18Z</time>
      </trkpt>
      <trkpt lat="43.29813" lon="-0.4177">
        <ele>164.023</ele>
        <time>2020-10-31T13:24:58Z</time>
      </trkpt>
      <trkpt lat="43.29816" lon="-0.41805">
        <ele>164.052</ele>
        <time>2020-10-31T13:25:38Z</time>
      </trkpt>
      <trkpt lat="43.29847" lon="-0.41848">
        <ele>164.036</ele>
        <time>2020-10-31T13:26:18Z</time>
      </trkpt>
      <trkpt lat="43.29864" lon="-0.41914">
        <ele>164.017</ele>
        <time>2020-10-31T13:26:58Z</time>
      </trkpt>
      <trkpt lat="43.29969" lon="-0.42084">
        <ele>164.018</ele>
        <time>2020-10-31T13:27:38Z</time>
      </trkpt>
      <trkpt lat="43.29989" lon="-0.4215">
        <ele>161.208</ele>
        <time>2020-10-31T13:28:18Z</time>
      </trkpt>
      <trkpt lat="43.29997" lon="-0.42279">
        <ele>160.46</ele>
        <time>2020-10-31T13:28:58Z</time>
      </trkpt>
      <trkpt lat="43.30014" lon="-0.42333">
        <ele>160.095</ele>
        <time>2020-10-31T13:29:38Z</time>
      </trkpt>
      <trkpt lat="43.30014" lon="-0.42363">
        <ele>160.592</ele>
        <time>2020-10-31T13:30:18Z</time>
      </trkpt>
      <trkpt lat="43.30066" lon="-0.42498">
        <ele>160.064</ele>
        <time>2020-10-31T13:30:58Z</time>
      </trkpt>
      <trkpt lat="43.30083" lon="-0.42537">
        <ele>160.055</ele>
        <time>2020-10-31T13:31:38Z</time>
      </trkpt>
      <trkpt lat="43.30134" lon="-0.42676">
        <ele>159.75</ele>
        <time>2020-10-31T13:32:18Z</time>
      </trkpt>
      <trkpt lat="43.30175" lon="-0.42835">
        <ele>159.059</ele>
        <time>2020-10-31T13:32:58Z</time>
      </trkpt>
      <trkpt lat="43.30186" lon="-0.42908">
        <ele>159.248</ele>
        <time>2020-10-31T13:33:38Z</time>
      </trkpt>
      <trkpt lat="43.30223" lon="-0.43">
        <ele>159.041</ele>
        <time>2020-10-31T13:34:18Z</time>
      </trkpt>
      <trkpt lat="43.30255" lon="-0.43146">
        <ele>159.081</ele>
        <time>2020-10-31T13:34:58Z</time>
      </trkpt>
      <trkpt lat="43.30275" lon="-0.43245">
        <ele>159.509</ele>
        <time>2020-10-31T13:35:38Z</time>
      </trkpt>
      <trkpt lat="43.30333" lon="-0.4336">
        <ele>159.008</ele>
        <time>2020-10-31T13:36:18Z</time>
      </trkpt>
      <trkpt lat="43.30383" lon="-0.43485">
        <ele>159.181</ele>
        <time>2020-10-31T13:36:58Z</time>
      </trkpt>
      <trkpt lat="43.30369" lon="-0.43519">
        <ele>159.936</ele>
        <time>2020-10-31T13:37:38Z</time>
      </trkpt>
      <trkpt lat="43.3044" lon="-0.43712">
        <ele>158.613</ele>
        <time>2020-10-31T13:38:18Z</time>
      </trkpt>
      <trkpt lat="43.30483" lon="-0.43779">
        <ele>156.345</ele>
        <time>2020-10-31T13:38:58Z</time>
      </trkpt>
      <trkpt lat="43.30483" lon="-0.43827">
        <ele>162.356</ele>
        <time>2020-10-31T13:39:38Z</time>
      </trkpt>
      <trkpt lat="43.3064" lon="-0.44097">
        <ele>155.351</ele>
        <time>2020-10-31T13:40:58Z</time>
      </trkpt>
      <trkpt lat="43.30722" lon="-0.44234">
        <ele>155.66</ele>
        <time>2020-10-31T13:41:38Z</time>
      </trkpt>
      <trkpt lat="43.30757" lon="-0.44347">
        <ele>153.839</ele>
        <time>2020-10-31T13:42:18Z</time>
      </trkpt>
      <trkpt lat="43.3079" lon="-0.44511">
        <ele>154.216</ele>
        <time>2020-10-31T13:42:58Z</time>
      </trkpt>
      <trkpt lat="43.3084" lon="-0.44635">
        <ele>154.076</ele>
        <time>2020-10-31T13:43:38Z</time>
      </trkpt>
      <trkpt lat="43.30899" lon="-0.44738">
        <ele>154.013</ele>
        <time>2020-10-31T13:44:18Z</time>
      </trkpt>
      <trkpt lat="43.30945" lon="-0.44772">
        <ele>154.008</ele>
        <time>2020-10-31T13:44:58Z</time>
      </trkpt>
      <trkpt lat="43.30995" lon="-0.44854">
        <ele>154.068</ele>
        <time>2020-10-31T13:45:38Z</time>
      </trkpt>
      <trkpt lat="43.31226" lon="-0.45036">
        <ele>154.063</ele>
        <time>2020-10-31T13:46:18Z</time>
      </trkpt>
      <trkpt lat="43.31369" lon="-0.45122">
        <ele>152.13</ele>
        <time>2020-10-31T13:46:58Z</time>
      </trkpt>
      <trkpt lat="43.3143" lon="-0.45139">
        <ele>151.042</ele>
        <time>2020-10-31T13:47:38Z</time>
      </trkpt>
      <trkpt lat="43.31466" lon="-0.45161">
        <ele>149.453</ele>
        <time>2020-10-31T13:48:18Z</time>
      </trkpt>
      <trkpt lat="43.31512" lon="-0.45167">
        <ele>149.088</ele>
        <time>2020-10-31T13:48:58Z</time>
      </trkpt>
      <trkpt lat="43.3158" lon="-0.45197">
        <ele>149.037</ele>
        <time>2020-10-31T13:49:38Z</time>
      </trkpt>
      <trkpt lat="43.31666" lon="-0.4518">
        <ele>149.036</ele>
        <time>2020-10-31T13:50:18Z</time>
      </trkpt>
      <trkpt lat="43.31735" lon="-0.45191">
        <ele>149.055</ele>
        <time>2020-10-31T13:50:58Z</time>
      </trkpt>
      <trkpt lat="43.31803" lon="-0.45238">
        <ele>149.007</ele>
        <time>2020-10-31T13:51:38Z</time>
      </trkpt>
      <trkpt lat="43.31811" lon="-0.45305">
        <ele>149.017</ele>
        <time>2020-10-31T13:52:18Z</time>
      </trkpt>
      <trkpt lat="43.31836" lon="-0.45343">
        <ele>149.008</ele>
        <time>2020-10-31T13:52:58Z</time>
      </trkpt>
      <trkpt lat="43.31857" lon="-0.45347">
        <ele>149.032</ele>
        <time>2020-10-31T13:53:38Z</time>
      </trkpt>
      <trkpt lat="43.31913" lon="-0.45425">
        <ele>149.087</ele>
        <time>2020-10-31T13:54:18Z</time>
      </trkpt>
      <trkpt lat="43.32078" lon="-0.45525">
        <ele>148.074</ele>
        <time>2020-10-31T13:54:58Z</time>
      </trkpt>
      <trkpt lat="43.32186" lon="-0.4557">
        <ele>147.076</ele>
        <time>2020-10-31T13:55:38Z</time>
      </trkpt>
      <trkpt lat="43.32324" lon="-0.45673">
        <ele>146.097</ele>
        <time>2020-10-31T13:56:18Z</time>
      </trkpt>
      <trkpt lat="43.32448" lon="-0.45754">
        <ele>145.092</ele>
        <time>2020-10-31T13:56:58Z</time>
      </trkpt>
      <trkpt lat="43.32584" lon="-0.45911">
        <ele>145.061</ele>
        <time>2020-10-31T13:57:38Z</time>
      </trkpt>
      <trkpt lat="43.32678" lon="-0.45999">
        <ele>145.05</ele>
        <time>2020-10-31T13:58:18Z</time>
      </trkpt>
      <trkpt lat="43.32742" lon="-0.46091">
        <ele>145.076</ele>
        <time>2020-10-31T13:58:58Z</time>
      </trkpt>
      <trkpt lat="43.32768" lon="-0.46149">
        <ele>145.09</ele>
        <time>2020-10-31T13:59:38Z</time>
      </trkpt>
      <trkpt lat="43.32797" lon="-0.46181">
        <ele>145.019</ele>
        <time>2020-10-31T14:00:18Z</time>
      </trkpt>
      <trkpt lat="43.32875" lon="-0.46304">
        <ele>145.008</ele>
        <time>2020-10-31T14:00:58Z</time>
      </trkpt>
      <trkpt lat="43.32982" lon="-0.4642">
        <ele>145.064</ele>
        <time>2020-10-31T14:01:38Z</time>
      </trkpt>
      <trkpt lat="43.33054" lon="-0.46465">
        <ele>145.069</ele>
        <time>2020-10-31T14:02:18Z</time>
      </trkpt>
      <trkpt lat="43.33107" lon="-0.46555">
        <ele>145.016</ele>
        <time>2020-10-31T14:02:58Z</time>
      </trkpt>
    </trkseg>
  </trk>
  <trk>
    <name><![CDATA[GR®78 Voie du Piémont (2021)]]></name>
    <desc><![CDATA[Randonnée sur le GR®78, Voie du Piémont, à travers l'Hérault, l'Aude, l'Ariège, les Hautes-Pyrénées et les Pyrénées-Atlantiques de Capestang au col d'Oihantzarre. Gîtes d'étapes, Chambres d'hôtes, Maison d'hôtes, Hôtels, Camping, Refuges, Auberges.]]></desc>
    <extensions>
      <line xmlns="http://www.topografix.com/GPX/gpx_style/0/2">
        <color>000000</color>
        <width>4</width>
      </line>
    </extensions>
    <trkseg>
      <trkpt lat="43.32783" lon="3.04448">
        <ele>26.163</ele>
        <time>2021-02-05T10:47:51Z</time>
      </trkpt>
      <trkpt lat="43.32833" lon="3.04464">
        <ele>27.644</ele>
        <time>2021-02-05T10:48:11Z</time>
      </trkpt>
      <trkpt lat="43.32834" lon="3.04502">
        <ele>27.918</ele>
        <time>2021-02-05T10:48:31Z</time>
      </trkpt>
      <trkpt lat="43.32841" lon="3.04531">
        <ele>27.108</ele>
        <time>2021-02-05T10:48:51Z</time>
      </trkpt>
      <trkpt lat="43.3288" lon="3.04458">
        <ele>26.712</ele>
        <time>2021-02-05T10:49:11Z</time>
      </trkpt>
      <trkpt lat="43.32917" lon="3.04498">
        <ele>25.051</ele>
        <time>2021-02-05T10:49:31Z</time>
      </trkpt>
      <trkpt lat="43.32967" lon="3.04521">
        <ele>25.427</ele>
        <time>2021-02-05T10:49:51Z</time>
      </trkpt>
      <trkpt lat="43.33017" lon="3.04523">
        <ele>28.093</ele>
        <time>2021-02-05T10:50:11Z</time>
      </trkpt>
      <trkpt lat="43.33063" lon="3.04536">
        <ele>34.684</ele>
        <time>2021-02-05T10:50:31Z</time>
      </trkpt>
      <trkpt lat="43.33063" lon="3.04577">
        <ele>36.156</ele>
        <time>2021-02-05T10:50:51Z</time>
      </trkpt>
      <trkpt lat="43.33088" lon="3.04601">
        <ele>39.689</ele>
        <time>2021-02-05T10:51:11Z</time>
      </trkpt>
      <trkpt lat="43.33095" lon="3.04592">
        <ele>39.391</ele>
        <time>2021-02-05T10:51:31Z</time>
      </trkpt>
      <trkpt lat="43.33135" lon="3.04615">
        <ele>39.933</ele>
        <time>2021-02-05T10:51:51Z</time>
      </trkpt>
      <trkpt lat="43.33167" lon="3.0452">
        <ele>37.523</ele>
        <time>2021-02-05T10:52:11Z</time>
      </trkpt>
      <trkpt lat="43.3318" lon="3.04458">
        <ele>36.515</ele>
        <time>2021-02-05T10:52:31Z</time>
      </trkpt>
      <trkpt lat="43.33176" lon="3.04367">
        <ele>35.608</ele>
        <time>2021-02-05T10:52:51Z</time>
      </trkpt>
      <trkpt lat="43.33103" lon="3.04163">
        <ele>37.259</ele>
        <time>2021-02-05T10:53:11Z</time>
      </trkpt>
      <trkpt lat="43.33068" lon="3.04032">
        <ele>36.798</ele>
        <time>2021-02-05T10:53:31Z</time>
      </trkpt>
      <trkpt lat="43.33155" lon="3.03937">
        <ele>37.434</ele>
        <time>2021-02-05T10:53:51Z</time>
      </trkpt>
      <trkpt lat="43.33235" lon="3.03706">
        <ele>43.72</ele>
        <time>2021-02-05T10:54:11Z</time>
      </trkpt>
      <trkpt lat="43.33313" lon="3.03399">
        <ele>57.631</ele>
        <time>2021-02-05T10:54:31Z</time>
      </trkpt>
      <trkpt lat="43.33349" lon="3.03338">
        <ele>61.983</ele>
        <time>2021-02-05T10:54:51Z</time>
      </trkpt>
      <trkpt lat="43.33429" lon="3.0318">
        <ele>57.326</ele>
        <time>2021-02-05T10:55:11Z</time>
      </trkpt>
      <trkpt lat="43.33499" lon="3.03123">
        <ele>55.368</ele>
        <time>2021-02-05T10:55:31Z</time>
      </trkpt>
      <trkpt lat="43.33568" lon="3.03004">
        <ele>49.999</ele>
        <time>2021-02-05T10:55:51Z</time>
      </trkpt>
      <trkpt lat="43.33633" lon="3.02945">
        <ele>51.807</ele>
        <time>2021-02-05T10:56:11Z</time>
      </trkpt>
      <trkpt lat="43.33647" lon="3.02905">
        <ele>52.427</ele>
        <time>2021-02-05T10:56:31Z</time>
      </trkpt>
      <trkpt lat="43.33693" lon="3.02836">
        <ele>55.308</ele>
        <time>2021-02-05T10:56:51Z</time>
      </trkpt>
      <trkpt lat="43.33708" lon="3.02782">
        <ele>57.535</ele>
        <time>2021-02-05T10:57:11Z</time>
      </trkpt>
      <trkpt lat="43.33777" lon="3.02658">
        <ele>62.614</ele>
        <time>2021-02-05T10:57:31Z</time>
      </trkpt>
      <trkpt lat="43.33848" lon="3.02485">
        <ele>71.95</ele>
        <time>2021-02-05T10:57:51Z</time>
      </trkpt>
      <trkpt lat="43.33868" lon="3.02445">
        <ele>73.536</ele>
        <time>2021-02-05T10:58:11Z</time>
      </trkpt>
      <trkpt lat="43.33819" lon="3.02412">
        <ele>73.777</ele>
        <time>2021-02-05T10:58:31Z</time>
      </trkpt>
      <trkpt lat="43.33763" lon="3.02342">
        <ele>70.639</ele>
        <time>2021-02-05T10:58:51Z</time>
      </trkpt>
      <trkpt lat="43.33633" lon="3.02255">
        <ele>62.732</ele>
        <time>2021-02-05T10:59:11Z</time>
      </trkpt>
      <trkpt lat="43.33542" lon="3.02221">
        <ele>56.814</ele>
        <time>2021-02-05T10:59:31Z</time>
      </trkpt>
      <trkpt lat="43.33496" lon="3.0217">
        <ele>55.857</ele>
        <time>2021-02-05T10:59:51Z</time>
      </trkpt>
      <trkpt lat="43.33453" lon="3.02151">
        <ele>54.5</ele>
        <time>2021-02-05T11:00:11Z</time>
      </trkpt>
      <trkpt lat="43.33431" lon="3.02112">
        <ele>53.02</ele>
        <time>2021-02-05T11:00:31Z</time>
      </trkpt>
      <trkpt lat="43.33388" lon="3.02088">
        <ele>51.108</ele>
        <time>2021-02-05T11:00:51Z</time>
      </trkpt>
      <trkpt lat="43.33436" lon="3.01959">
        <ele>46.811</ele>
        <time>2021-02-05T11:01:11Z</time>
      </trkpt>
      <trkpt lat="43.33472" lon="3.01927">
        <ele>45.37</ele>
        <time>2021-02-05T11:01:31Z</time>
      </trkpt>
      <trkpt lat="43.3352" lon="3.01824">
        <ele>43.056</ele>
        <time>2021-02-05T11:01:51Z</time>
      </trkpt>
      <trkpt lat="43.33577" lon="3.01663">
        <ele>41.992</ele>
        <time>2021-02-05T11:02:11Z</time>
      </trkpt>
      <trkpt lat="43.336" lon="3.01577">
        <ele>42.753</ele>
        <time>2021-02-05T11:02:31Z</time>
      </trkpt>
      <trkpt lat="43.33645" lon="3.01494">
        <ele>44.475</ele>
        <time>2021-02-05T11:02:51Z</time>
      </trkpt>
      <trkpt lat="43.33689" lon="3.01445">
        <ele>44.688</ele>
        <time>2021-02-05T11:03:11Z</time>
      </trkpt>
      <trkpt lat="43.3376" lon="3.01324">
        <ele>46.39</ele>
        <time>2021-02-05T11:03:31Z</time>
      </trkpt>
      <trkpt lat="43.33803" lon="3.01295">
        <ele>47.771</ele>
        <time>2021-02-05T11:03:51Z</time>
      </trkpt>
      <trkpt lat="43.33884" lon="3.01167">
        <ele>49.141</ele>
        <time>2021-02-05T11:04:11Z</time>
      </trkpt>
      <trkpt lat="43.33887" lon="3.01146">
        <ele>48.815</ele>
        <time>2021-02-05T11:04:31Z</time>
      </trkpt>
      <trkpt lat="43.33899" lon="3.01134">
        <ele>49.408</ele>
        <time>2021-02-05T11:04:51Z</time>
      </trkpt>
      <trkpt lat="43.33946" lon="3.01019">
        <ele>48.813</ele>
        <time>2021-02-05T11:05:11Z</time>
      </trkpt>
      <trkpt lat="43.33967" lon="3.00964">
        <ele>48.242</ele>
        <time>2021-02-05T11:05:31Z</time>
      </trkpt>
      <trkpt lat="43.34057" lon="3.00818">
        <ele>51.958</ele>
        <time>2021-02-05T11:05:51Z</time>
      </trkpt>
      <trkpt lat="43.34114" lon="3.00663">
        <ele>54.934</ele>
        <time>2021-02-05T11:06:11Z</time>
      </trkpt>
      <trkpt lat="43.34195" lon="3.00518">
        <ele>61.795</ele>
        <time>2021-02-05T11:06:31Z</time>
      </trkpt>
      <trkpt lat="43.34203" lon="3.0048">
        <ele>63.137</ele>
        <time>2021-02-05T11:06:51Z</time>
      </trkpt>
      <trkpt lat="43.34278" lon="3.00414">
        <ele>71.42</ele>
        <time>2021-02-05T11:07:11Z</time>
      </trkpt>
      <trkpt lat="43.34323" lon="3.0035">
        <ele>75.392</ele>
        <time>2021-02-05T11:07:31Z</time>
      </trkpt>
      <trkpt lat="43.34359" lon="3.00255">
        <ele>77.973</ele>
        <time>2021-02-05T11:07:51Z</time>
      </trkpt>
      <trkpt lat="43.34424" lon="3.00119">
        <ele>74.885</ele>
        <time>2021-02-05T11:08:11Z</time>
      </trkpt>
      <trkpt lat="43.34468" lon="3.00048">
        <ele>79.813</ele>
        <time>2021-02-05T11:08:31Z</time>
      </trkpt>
      <trkpt lat="43.34506" lon="3.00007">
        <ele>84.608</ele>
        <time>2021-02-05T11:08:51Z</time>
      </trkpt>
      <trkpt lat="43.34567" lon="2.99918">
        <ele>95.493</ele>
        <time>2021-02-05T11:09:11Z</time>
      </trkpt>
      <trkpt lat="43.34589" lon="2.99862">
        <ele>99.232</ele>
        <time>2021-02-05T11:09:31Z</time>
      </trkpt>
      <trkpt lat="43.34582" lon="2.99838">
        <ele>99.728</ele>
        <time>2021-02-05T11:09:51Z</time>
      </trkpt>
      <trkpt lat="43.3453" lon="2.99825">
        <ele>97.384</ele>
        <time>2021-02-05T11:10:11Z</time>
      </trkpt>
      <trkpt lat="43.34498" lon="2.99796">
        <ele>97.455</ele>
        <time>2021-02-05T11:10:31Z</time>
      </trkpt>
      <trkpt lat="43.34499" lon="2.99766">
        <ele>99.847</ele>
        <time>2021-02-05T11:10:51Z</time>
      </trkpt>
      <trkpt lat="43.34548" lon="2.99719">
        <ele>102.75</ele>
        <time>2021-02-05T11:11:11Z</time>
      </trkpt>
      <trkpt lat="43.34584" lon="2.9966">
        <ele>103.822</ele>
        <time>2021-02-05T11:11:31Z</time>
      </trkpt>
      <trkpt lat="43.34602" lon="2.99591">
        <ele>102.577</ele>
        <time>2021-02-05T11:11:51Z</time>
      </trkpt>
      <trkpt lat="43.34612" lon="2.99552">
        <ele>103.061</ele>
        <time>2021-02-05T11:12:11Z</time>
      </trkpt>
      <trkpt lat="43.34707" lon="2.99523">
        <ele>111.127</ele>
        <time>2021-02-05T11:12:31Z</time>
      </trkpt>
      <trkpt lat="43.34702" lon="2.99482">
        <ele>109.608</ele>
        <time>2021-02-05T11:12:51Z</time>
      </trkpt>
      <trkpt lat="43.34707" lon="2.99467">
        <ele>109.663</ele>
        <time>2021-02-05T11:13:11Z</time>
      </trkpt>
      <trkpt lat="43.34724" lon="2.99155">
        <ele>98.432</ele>
        <time>2021-02-05T11:13:31Z</time>
      </trkpt>
      <trkpt lat="43.34715" lon="2.99114">
        <ele>96.778</ele>
        <time>2021-02-05T11:13:51Z</time>
      </trkpt>
      <trkpt lat="43.34711" lon="2.9905">
        <ele>95.444</ele>
        <time>2021-02-05T11:14:11Z</time>
      </trkpt>
      <trkpt lat="43.3468" lon="2.98873">
        <ele>94.395</ele>
        <time>2021-02-05T11:14:31Z</time>
      </trkpt>
      <trkpt lat="43.34658" lon="2.9884">
        <ele>94.267</ele>
        <time>2021-02-05T11:14:51Z</time>
      </trkpt>
      <trkpt lat="43.34656" lon="2.98807">
        <ele>94.53</ele>
        <time>2021-02-05T11:15:11Z</time>
      </trkpt>
      <trkpt lat="43.346" lon="2.98633">
        <ele>95.252</ele>
        <time>2021-02-05T11:15:31Z</time>
      </trkpt>
      <trkpt lat="43.34586" lon="2.98529">
        <ele>96.358</ele>
        <time>2021-02-05T11:15:51Z</time>
      </trkpt>
      <trkpt lat="43.34558" lon="2.98425">
        <ele>98.652</ele>
        <time>2021-02-05T11:16:11Z</time>
      </trkpt>
      <trkpt lat="43.34535" lon="2.98358">
        <ele>97.217</ele>
        <time>2021-02-05T11:16:31Z</time>
      </trkpt>
      <trkpt lat="43.34525" lon="2.98278">
        <ele>96.208</ele>
        <time>2021-02-05T11:16:51Z</time>
      </trkpt>
      <trkpt lat="43.34494" lon="2.98211">
        <ele>95.351</ele>
        <time>2021-02-05T11:17:11Z</time>
      </trkpt>
      <trkpt lat="43.3444" lon="2.98149">
        <ele>95.15</ele>
        <time>2021-02-05T11:17:31Z</time>
      </trkpt>
      <trkpt lat="43.34414" lon="2.9811">
        <ele>96.056</ele>
        <time>2021-02-05T11:17:51Z</time>
      </trkpt>
      <trkpt lat="43.34363" lon="2.98062">
        <ele>94.842</ele>
        <time>2021-02-05T11:18:11Z</time>
      </trkpt>
      <trkpt lat="43.3436" lon="2.98035">
        <ele>94.273</ele>
        <time>2021-02-05T11:18:31Z</time>
      </trkpt>
      <trkpt lat="43.34474" lon="2.97981">
        <ele>99.635</ele>
        <time>2021-02-05T11:18:51Z</time>
      </trkpt>
      <trkpt lat="43.3453" lon="2.97687">
        <ele>111.868</ele>
        <time>2021-02-05T11:19:11Z</time>
      </trkpt>
      <trkpt lat="43.34551" lon="2.97621">
        <ele>117.84</ele>
        <time>2021-02-05T11:19:31Z</time>
      </trkpt>
      <trkpt lat="43.34552" lon="2.97542">
        <ele>119.853</ele>
        <time>2021-02-05T11:19:51Z</time>
      </trkpt>
      <trkpt lat="43.34611" lon="2.97413">
        <ele>122.304</ele>
        <time>2021-02-05T11:20:11Z</time>
      </trkpt>
      <trkpt lat="43.34623" lon="2.97274">
        <ele>120.014</ele>
        <time>2021-02-05T11:20:31Z</time>
      </trkpt>
      <trkpt lat="43.34599" lon="2.97223">
        <ele>118.608</ele>
        <time>2021-02-05T11:20:51Z</time>
      </trkpt>
      <trkpt lat="43.34628" lon="2.97153">
        <ele>117.821</ele>
        <time>2021-02-05T11:21:11Z</time>
      </trkpt>
      <trkpt lat="43.34548" lon="2.97089">
        <ele>114.44</ele>
        <time>2021-02-05T11:21:31Z</time>
      </trkpt>
      <trkpt lat="43.34596" lon="2.96976">
        <ele>109.546</ele>
        <time>2021-02-05T11:21:51Z</time>
      </trkpt>
      <trkpt lat="43.34626" lon="2.96841">
        <ele>111.812</ele>
        <time>2021-02-05T11:22:11Z</time>
      </trkpt>
      <trkpt lat="43.34623" lon="2.9676">
        <ele>114.213</ele>
        <time>2021-02-05T11:22:31Z</time>
      </trkpt>
      <trkpt lat="43.34636" lon="2.96691">
        <ele>117.855</ele>
        <time>2021-02-05T11:22:51Z</time>
      </trkpt>
      <trkpt lat="43.34707" lon="2.96699">
        <ele>118.178</ele>
        <time>2021-02-05T11:23:11Z</time>
      </trkpt>
      <trkpt lat="43.34707" lon="2.96659">
        <ele>118.38</ele>
        <time>2021-02-05T11:23:31Z</time>
      </trkpt>
      <trkpt lat="43.34661" lon="2.96449">
        <ele>115.651</ele>
        <time>2021-02-05T11:23:51Z</time>
      </trkpt>
      <trkpt lat="43.34595" lon="2.96402">
        <ele>118.101</ele>
        <time>2021-02-05T11:24:11Z</time>
      </trkpt>
      <trkpt lat="43.34596" lon="2.96328">
        <ele>116.711</ele>
        <time>2021-02-05T11:24:31Z</time>
      </trkpt>
      <trkpt lat="43.34583" lon="2.96277">
        <ele>116.308</ele>
        <time>2021-02-05T11:24:51Z</time>
      </trkpt>
      <trkpt lat="43.34649" lon="2.96187">
        <ele>117.851</ele>
        <time>2021-02-05T11:25:11Z</time>
      </trkpt>
      <trkpt lat="43.34653" lon="2.96161">
        <ele>118.44</ele>
        <time>2021-02-05T11:25:31Z</time>
      </trkpt>
      <trkpt lat="43.34685" lon="2.96071">
        <ele>121.546</ele>
        <time>2021-02-05T11:25:51Z</time>
      </trkpt>
      <trkpt lat="43.34723" lon="2.96032">
        <ele>120.922</ele>
        <time>2021-02-05T11:26:11Z</time>
      </trkpt>
      <trkpt lat="43.34732" lon="2.96004">
        <ele>120.873</ele>
        <time>2021-02-05T11:26:31Z</time>
      </trkpt>
      <trkpt lat="43.34827" lon="2.95878">
        <ele>111.485</ele>
        <time>2021-02-05T11:26:51Z</time>
      </trkpt>
      <trkpt lat="43.34881" lon="2.95851">
        <ele>104.988</ele>
        <time>2021-02-05T11:27:11Z</time>
      </trkpt>
      <trkpt lat="43.34964" lon="2.95802">
        <ele>91.33</ele>
        <time>2021-02-05T11:27:31Z</time>
      </trkpt>
      <trkpt lat="43.34988" lon="2.95759">
        <ele>85.357</ele>
        <time>2021-02-05T11:27:51Z</time>
      </trkpt>
      <trkpt lat="43.34967" lon="2.95616">
        <ele>79.7</ele>
        <time>2021-02-05T11:28:11Z</time>
      </trkpt>
      <trkpt lat="43.35132" lon="2.95478">
        <ele>81.22</ele>
        <time>2021-02-05T11:28:31Z</time>
      </trkpt>
      <trkpt lat="43.35139" lon="2.95414">
        <ele>82.308</ele>
        <time>2021-02-05T11:28:51Z</time>
      </trkpt>
      <trkpt lat="43.35111" lon="2.95326">
        <ele>79.991</ele>
        <time>2021-02-05T11:29:11Z</time>
      </trkpt>
      <trkpt lat="43.35082" lon="2.95129">
        <ele>77.02</ele>
        <time>2021-02-05T11:29:31Z</time>
      </trkpt>
      <trkpt lat="43.35094" lon="2.95054">
        <ele>74.816</ele>
        <time>2021-02-05T11:29:51Z</time>
      </trkpt>
      <trkpt lat="43.35158" lon="2.94962">
        <ele>74.152</ele>
        <time>2021-02-05T11:30:11Z</time>
      </trkpt>
      <trkpt lat="43.35341" lon="2.946">
        <ele>75.873</ele>
        <time>2021-02-05T11:30:31Z</time>
      </trkpt>
      <trkpt lat="43.35407" lon="2.94455">
        <ele>78.595</ele>
        <time>2021-02-05T11:30:51Z</time>
      </trkpt>
      <trkpt lat="43.35453" lon="2.94307">
        <ele>79.858</ele>
        <time>2021-02-05T11:31:11Z</time>
      </trkpt>
      <trkpt lat="43.35498" lon="2.94233">
        <ele>81.77</ele>
        <time>2021-02-05T11:31:31Z</time>
      </trkpt>
      <trkpt lat="43.35518" lon="2.94128">
        <ele>82.279</ele>
        <time>2021-02-05T11:31:51Z</time>
      </trkpt>
      <trkpt lat="43.35538" lon="2.94128">
        <ele>83.505</ele>
        <time>2021-02-05T11:32:11Z</time>
      </trkpt>
      <trkpt lat="43.35545" lon="2.94103">
        <ele>84.125</ele>
        <time>2021-02-05T11:32:31Z</time>
      </trkpt>
      <trkpt lat="43.35545" lon="2.93997">
        <ele>83.208</ele>
        <time>2021-02-05T11:32:51Z</time>
      </trkpt>
      <trkpt lat="43.3551" lon="2.93991">
        <ele>81.643</ele>
        <time>2021-02-05T11:33:11Z</time>
      </trkpt>
      <trkpt lat="43.35489" lon="2.94017">
        <ele>80.712</ele>
        <time>2021-02-05T11:33:31Z</time>
      </trkpt>
      <trkpt lat="43.35463" lon="2.94022">
        <ele>80.058</ele>
        <time>2021-02-05T11:33:51Z</time>
      </trkpt>
      <trkpt lat="43.35443" lon="2.94035">
        <ele>79.854</ele>
        <time>2021-02-05T11:34:11Z</time>
      </trkpt>
      <trkpt lat="43.35416" lon="2.94001">
        <ele>78.165</ele>
        <time>2021-02-05T11:34:31Z</time>
      </trkpt>
      <trkpt lat="43.35385" lon="2.93999">
        <ele>78.867</ele>
        <time>2021-02-05T11:34:51Z</time>
      </trkpt>
      <trkpt lat="43.3527" lon="2.93889">
        <ele>83.79</ele>
        <time>2021-02-05T11:35:11Z</time>
      </trkpt>
      <trkpt lat="43.35258" lon="2.93842">
        <ele>85.962</ele>
        <time>2021-02-05T11:35:31Z</time>
      </trkpt>
      <trkpt lat="43.35229" lon="2.93783">
        <ele>91.199</ele>
        <time>2021-02-05T11:35:51Z</time>
      </trkpt>
      <trkpt lat="43.35223" lon="2.93743">
        <ele>92.807</ele>
        <time>2021-02-05T11:36:11Z</time>
      </trkpt>
      <trkpt lat="43.35153" lon="2.93627">
        <ele>101.427</ele>
        <time>2021-02-05T11:36:31Z</time>
      </trkpt>
      <trkpt lat="43.35077" lon="2.93432">
        <ele>104.908</ele>
        <time>2021-02-05T11:36:51Z</time>
      </trkpt>
      <trkpt lat="43.34991" lon="2.93424">
        <ele>108.135</ele>
        <time>2021-02-05T11:37:11Z</time>
      </trkpt>
      <trkpt lat="43.34935" lon="2.93398">
        <ele>111.354</ele>
        <time>2021-02-05T11:37:31Z</time>
      </trkpt>
      <trkpt lat="43.3478" lon="2.93184">
        <ele>114.43</ele>
        <time>2021-02-05T11:37:51Z</time>
      </trkpt>
      <trkpt lat="43.34719" lon="2.93056">
        <ele>118.556</ele>
        <time>2021-02-05T11:38:11Z</time>
      </trkpt>
      <trkpt lat="43.34692" lon="2.93029">
        <ele>120.827</ele>
        <time>2021-02-05T11:38:31Z</time>
      </trkpt>
      <trkpt lat="43.34661" lon="2.92934">
        <ele>126.079</ele>
        <time>2021-02-05T11:38:51Z</time>
      </trkpt>
      <trkpt lat="43.34597" lon="2.92826">
        <ele>140.192</ele>
        <time>2021-02-05T11:39:11Z</time>
      </trkpt>
      <trkpt lat="43.34551" lon="2.92703">
        <ele>152.934</ele>
        <time>2021-02-05T11:39:31Z</time>
      </trkpt>
      <trkpt lat="43.3453" lon="2.92668">
        <ele>155.726</ele>
        <time>2021-02-05T11:39:51Z</time>
      </trkpt>
      <trkpt lat="43.34519" lon="2.92614">
        <ele>159.147</ele>
        <time>2021-02-05T11:40:11Z</time>
      </trkpt>
      <trkpt lat="43.34481" lon="2.92502">
        <ele>170.211</ele>
        <time>2021-02-05T11:40:31Z</time>
      </trkpt>
      <trkpt lat="43.34497" lon="2.92417">
        <ele>175.508</ele>
        <time>2021-02-05T11:40:51Z</time>
      </trkpt>
      <trkpt lat="43.34472" lon="2.92345">
        <ele>181.798</ele>
        <time>2021-02-05T11:41:11Z</time>
      </trkpt>
      <trkpt lat="43.34469" lon="2.92303">
        <ele>184.797</ele>
        <time>2021-02-05T11:41:31Z</time>
      </trkpt>
      <trkpt lat="43.3447" lon="2.92204">
        <ele>190.893</ele>
        <time>2021-02-05T11:41:51Z</time>
      </trkpt>
      <trkpt lat="43.34455" lon="2.92168">
        <ele>193.039</ele>
        <time>2021-02-05T11:42:11Z</time>
      </trkpt>
      <trkpt lat="43.34428" lon="2.92081">
        <ele>197.62</ele>
        <time>2021-02-05T11:42:31Z</time>
      </trkpt>
      <trkpt lat="43.34367" lon="2.91936">
        <ele>196.442</ele>
        <time>2021-02-05T11:42:51Z</time>
      </trkpt>
      <trkpt lat="43.3434" lon="2.91806">
        <ele>195.285</ele>
        <time>2021-02-05T11:43:11Z</time>
      </trkpt>
      <trkpt lat="43.34284" lon="2.9171">
        <ele>192.847</ele>
        <time>2021-02-05T11:43:31Z</time>
      </trkpt>
      <trkpt lat="43.34253" lon="2.9168">
        <ele>190.575</ele>
        <time>2021-02-05T11:43:51Z</time>
      </trkpt>
      <trkpt lat="43.34245" lon="2.91647">
        <ele>188.328</ele>
        <time>2021-02-05T11:44:11Z</time>
      </trkpt>
      <trkpt lat="43.34284" lon="2.91457">
        <ele>175.72</ele>
        <time>2021-02-05T11:44:31Z</time>
      </trkpt>
      <trkpt lat="43.3426" lon="2.91391">
        <ele>164.108</ele>
        <time>2021-02-05T11:44:51Z</time>
      </trkpt>
      <trkpt lat="43.34235" lon="2.91286">
        <ele>149.543</ele>
        <time>2021-02-05T11:45:11Z</time>
      </trkpt>
      <trkpt lat="43.34234" lon="2.91206">
        <ele>147.062</ele>
        <time>2021-02-05T11:45:31Z</time>
      </trkpt>
      <trkpt lat="43.34149" lon="2.91114">
        <ele>132.818</ele>
        <time>2021-02-05T11:45:51Z</time>
      </trkpt>
      <trkpt lat="43.34103" lon="2.90989">
        <ele>122.284</ele>
        <time>2021-02-05T11:46:11Z</time>
      </trkpt>
      <trkpt lat="43.34052" lon="2.90944">
        <ele>110.155</ele>
        <time>2021-02-05T11:46:31Z</time>
      </trkpt>
      <trkpt lat="43.34031" lon="2.90902">
        <ele>105.187</ele>
        <time>2021-02-05T11:46:51Z</time>
      </trkpt>
      <trkpt lat="43.34001" lon="2.90894">
        <ele>101.22</ele>
        <time>2021-02-05T11:47:11Z</time>
      </trkpt>
      <trkpt lat="43.3393" lon="2.90747">
        <ele>99.322</ele>
        <time>2021-02-05T11:47:31Z</time>
      </trkpt>
      <trkpt lat="43.3384" lon="2.90709">
        <ele>100.557</ele>
        <time>2021-02-05T11:47:51Z</time>
      </trkpt>
      <trkpt lat="43.33791" lon="2.90702">
        <ele>97.9</ele>
        <time>2021-02-05T11:48:11Z</time>
      </trkpt>
      <trkpt lat="43.33768" lon="2.90668">
        <ele>98.42</ele>
        <time>2021-02-05T11:48:31Z</time>
      </trkpt>
      <trkpt lat="43.33745" lon="2.90668">
        <ele>96.308</ele>
        <time>2021-02-05T11:48:51Z</time>
      </trkpt>
      <trkpt lat="43.33712" lon="2.90406">
        <ele>94.741</ele>
        <time>2021-02-05T11:49:11Z</time>
      </trkpt>
      <trkpt lat="43.33663" lon="2.90385">
        <ele>95.96</ele>
        <time>2021-02-05T11:49:31Z</time>
      </trkpt>
      <trkpt lat="43.33648" lon="2.90431">
        <ele>92.826</ele>
        <time>2021-02-05T11:49:51Z</time>
      </trkpt>
      <trkpt lat="43.33585" lon="2.90401">
        <ele>92.442</ele>
        <time>2021-02-05T11:50:11Z</time>
      </trkpt>
      <trkpt lat="43.33525" lon="2.90336">
        <ele>87.713</ele>
        <time>2021-02-05T11:50:31Z</time>
      </trkpt>
      <trkpt lat="43.33508" lon="2.90292">
        <ele>87.155</ele>
        <time>2021-02-05T11:50:51Z</time>
      </trkpt>
      <trkpt lat="43.33507" lon="2.90242">
        <ele>88.288</ele>
        <time>2021-02-05T11:51:11Z</time>
      </trkpt>
      <trkpt lat="43.33489" lon="2.90231">
        <ele>87.47</ele>
        <time>2021-02-05T11:51:31Z</time>
      </trkpt>
      <trkpt lat="43.33461" lon="2.90268">
        <ele>85.882</ele>
        <time>2021-02-05T11:51:51Z</time>
      </trkpt>
      <trkpt lat="43.3344" lon="2.9025">
        <ele>86.343</ele>
        <time>2021-02-05T11:52:11Z</time>
      </trkpt>
      <trkpt lat="43.33384" lon="2.90219">
        <ele>89.817</ele>
        <time>2021-02-05T11:52:31Z</time>
      </trkpt>
      <trkpt lat="43.33293" lon="2.90153">
        <ele>95.808</ele>
        <time>2021-02-05T11:52:51Z</time>
      </trkpt>
      <trkpt lat="43.33247" lon="2.90081">
        <ele>100.264</ele>
        <time>2021-02-05T11:53:11Z</time>
      </trkpt>
      <trkpt lat="43.33177" lon="2.90056">
        <ele>100.183</ele>
        <time>2021-02-05T11:53:31Z</time>
      </trkpt>
      <trkpt lat="43.33162" lon="2.90034">
        <ele>101.949</ele>
        <time>2021-02-05T11:53:51Z</time>
      </trkpt>
      <trkpt lat="43.33184" lon="2.89986">
        <ele>107.895</ele>
        <time>2021-02-05T11:54:11Z</time>
      </trkpt>
      <trkpt lat="43.33183" lon="2.89972">
        <ele>109.226</ele>
        <time>2021-02-05T11:54:31Z</time>
      </trkpt>
      <trkpt lat="43.33136" lon="2.89968">
        <ele>110.938</ele>
        <time>2021-02-05T11:54:51Z</time>
      </trkpt>
      <trkpt lat="43.33113" lon="2.89987">
        <ele>109.631</ele>
        <time>2021-02-05T11:55:11Z</time>
      </trkpt>
      <trkpt lat="43.33094" lon="2.89986">
        <ele>110.823</ele>
        <time>2021-02-05T11:55:31Z</time>
      </trkpt>
      <trkpt lat="43.33067" lon="2.89965">
        <ele>114.331</ele>
        <time>2021-02-05T11:55:51Z</time>
      </trkpt>
      <trkpt lat="43.33039" lon="2.89955">
        <ele>115.161</ele>
        <time>2021-02-05T11:56:11Z</time>
      </trkpt>
      <trkpt lat="43.3292" lon="2.89866">
        <ele>124.107</ele>
        <time>2021-02-05T11:56:31Z</time>
      </trkpt>
      <trkpt lat="43.32911" lon="2.89837">
        <ele>128.108</ele>
        <time>2021-02-05T11:56:51Z</time>
      </trkpt>
      <trkpt lat="43.32933" lon="2.8978">
        <ele>134.139</ele>
        <time>2021-02-05T11:57:11Z</time>
      </trkpt>
      <trkpt lat="43.32912" lon="2.89683">
        <ele>136.448</ele>
        <time>2021-02-05T11:57:31Z</time>
      </trkpt>
      <trkpt lat="43.32878" lon="2.89627">
        <ele>139.714</ele>
        <time>2021-02-05T11:57:51Z</time>
      </trkpt>
      <trkpt lat="43.32827" lon="2.8962">
        <ele>145.94</ele>
        <time>2021-02-05T11:58:11Z</time>
      </trkpt>
      <trkpt lat="43.32794" lon="2.89611">
        <ele>152.211</ele>
        <time>2021-02-05T11:58:31Z</time>
      </trkpt>
      <trkpt lat="43.32781" lon="2.89557">
        <ele>154.833</ele>
        <time>2021-02-05T11:58:51Z</time>
      </trkpt>
      <trkpt lat="43.32771" lon="2.8953">
        <ele>157.556</ele>
        <time>2021-02-05T11:59:11Z</time>
      </trkpt>
      <trkpt lat="43.32749" lon="2.89365">
        <ele>162.388</ele>
        <time>2021-02-05T11:59:31Z</time>
      </trkpt>
      <trkpt lat="43.3272" lon="2.89274">
        <ele>155.613</ele>
        <time>2021-02-05T11:59:51Z</time>
      </trkpt>
      <trkpt lat="43.32697" lon="2.89268">
        <ele>155.843</ele>
        <time>2021-02-05T12:00:11Z</time>
      </trkpt>
      <trkpt lat="43.32672" lon="2.89277">
        <ele>158.907</ele>
        <time>2021-02-05T12:00:31Z</time>
      </trkpt>
      <trkpt lat="43.32607" lon="2.89334">
        <ele>162.908</ele>
        <time>2021-02-05T12:00:51Z</time>
      </trkpt>
      <trkpt lat="43.32564" lon="2.89387">
        <ele>166.797</ele>
        <time>2021-02-05T12:01:11Z</time>
      </trkpt>
      <trkpt lat="43.32543" lon="2.89408">
        <ele>167.296</ele>
        <time>2021-02-05T12:01:31Z</time>
      </trkpt>
      <trkpt lat="43.32592" lon="2.89285">
        <ele>157.092</ele>
        <time>2021-02-05T12:01:51Z</time>
      </trkpt>
      <trkpt lat="43.32614" lon="2.89251">
        <ele>154.118</ele>
        <time>2021-02-05T12:02:11Z</time>
      </trkpt>
      <trkpt lat="43.32629" lon="2.89203">
        <ele>147.699</ele>
        <time>2021-02-05T12:02:31Z</time>
      </trkpt>
      <trkpt lat="43.32629" lon="2.89165">
        <ele>142.381</ele>
        <time>2021-02-05T12:02:51Z</time>
      </trkpt>
      <trkpt lat="43.32669" lon="2.89081">
        <ele>126.764</ele>
        <time>2021-02-05T12:03:11Z</time>
      </trkpt>
      <trkpt lat="43.32674" lon="2.88977">
        <ele>122.336</ele>
        <time>2021-02-05T12:03:31Z</time>
      </trkpt>
      <trkpt lat="43.32642" lon="2.88944">
        <ele>127.128</ele>
        <time>2021-02-05T12:03:51Z</time>
      </trkpt>
      <trkpt lat="43.32648" lon="2.88913">
        <ele>124.089</ele>
        <time>2021-02-05T12:04:11Z</time>
      </trkpt>
      <trkpt lat="43.32649" lon="2.88874">
        <ele>120.717</ele>
        <time>2021-02-05T12:04:31Z</time>
      </trkpt>
      <trkpt lat="43.32658" lon="2.88858">
        <ele>117.108</ele>
        <time>2021-02-05T12:04:51Z</time>
      </trkpt>
      <trkpt lat="43.32672" lon="2.88781">
        <ele>109.088</ele>
        <time>2021-02-05T12:05:11Z</time>
      </trkpt>
      <trkpt lat="43.32654" lon="2.88721">
        <ele>107.777</ele>
        <time>2021-02-05T12:05:31Z</time>
      </trkpt>
      <trkpt lat="43.32611" lon="2.88633">
        <ele>106.873</ele>
        <time>2021-02-05T12:05:51Z</time>
      </trkpt>
      <trkpt lat="43.32603" lon="2.8849">
        <ele>96.349</ele>
        <time>2021-02-05T12:06:11Z</time>
      </trkpt>
      <trkpt lat="43.32608" lon="2.88464">
        <ele>91.93</ele>
        <time>2021-02-05T12:06:31Z</time>
      </trkpt>
      <trkpt lat="43.32595" lon="2.88423">
        <ele>88.932</ele>
        <time>2021-02-05T12:06:51Z</time>
      </trkpt>
      <trkpt lat="43.3259" lon="2.88357">
        <ele>78.855</ele>
        <time>2021-02-05T12:07:11Z</time>
      </trkpt>
      <trkpt lat="43.32578" lon="2.88354">
        <ele>78.987</ele>
        <time>2021-02-05T12:07:31Z</time>
      </trkpt>
      <trkpt lat="43.32568" lon="2.88329">
        <ele>74.931</ele>
        <time>2021-02-05T12:07:51Z</time>
      </trkpt>
      <trkpt lat="43.32548" lon="2.88303">
        <ele>73.561</ele>
        <time>2021-02-05T12:08:11Z</time>
      </trkpt>
      <trkpt lat="43.32533" lon="2.88262">
        <ele>70.807</ele>
        <time>2021-02-05T12:08:31Z</time>
      </trkpt>
      <trkpt lat="43.32406" lon="2.88106">
        <ele>64.608</ele>
        <time>2021-02-05T12:08:51Z</time>
      </trkpt>
      <trkpt lat="43.32348" lon="2.88073">
        <ele>63.079</ele>
        <time>2021-02-05T12:09:11Z</time>
      </trkpt>
      <trkpt lat="43.3226" lon="2.88115">
        <ele>62.788</ele>
        <time>2021-02-05T12:09:31Z</time>
      </trkpt>
      <trkpt lat="43.32227" lon="2.88009">
        <ele>59.624</ele>
        <time>2021-02-05T12:09:51Z</time>
      </trkpt>
      <trkpt lat="43.32217" lon="2.87959">
        <ele>59.16</ele>
        <time>2021-02-05T12:10:11Z</time>
      </trkpt>
      <trkpt lat="43.3216" lon="2.87855">
        <ele>59.741</ele>
        <time>2021-02-05T12:10:31Z</time>
      </trkpt>
      <trkpt lat="43.32164" lon="2.87783">
        <ele>61.243</ele>
        <time>2021-02-05T12:10:51Z</time>
      </trkpt>
      <trkpt lat="43.32138" lon="2.87659">
        <ele>61.456</ele>
        <time>2021-02-05T12:11:11Z</time>
      </trkpt>
      <trkpt lat="43.32147" lon="2.87622">
        <ele>62.398</ele>
        <time>2021-02-05T12:11:31Z</time>
      </trkpt>
      <trkpt lat="43.32162" lon="2.87484">
        <ele>64.968</ele>
        <time>2021-02-05T12:11:51Z</time>
      </trkpt>
      <trkpt lat="43.3209" lon="2.87418">
        <ele>63.242</ele>
        <time>2021-02-05T12:12:11Z</time>
      </trkpt>
      <trkpt lat="43.31979" lon="2.8734">
        <ele>61.926</ele>
        <time>2021-02-05T12:12:31Z</time>
      </trkpt>
      <trkpt lat="43.31903" lon="2.87303">
        <ele>62.408</ele>
        <time>2021-02-05T12:12:51Z</time>
      </trkpt>
      <trkpt lat="43.31878" lon="2.87317">
        <ele>62.392</ele>
        <time>2021-02-05T12:13:11Z</time>
      </trkpt>
      <trkpt lat="43.3187" lon="2.87286">
        <ele>62.961</ele>
        <time>2021-02-05T12:13:31Z</time>
      </trkpt>
      <trkpt lat="43.31847" lon="2.87268">
        <ele>63.417</ele>
        <time>2021-02-05T12:13:51Z</time>
      </trkpt>
      <trkpt lat="43.31835" lon="2.87229">
        <ele>63.763</ele>
        <time>2021-02-05T12:14:11Z</time>
      </trkpt>
      <trkpt lat="43.31798" lon="2.87243">
        <ele>62.264</ele>
        <time>2021-02-05T12:14:31Z</time>
      </trkpt>
      <trkpt lat="43.31794" lon="2.87239">
        <ele>62.016</ele>
        <time>2021-02-05T12:14:51Z</time>
      </trkpt>
      <trkpt lat="43.31784" lon="2.87249">
        <ele>61.679</ele>
        <time>2021-02-05T12:15:11Z</time>
      </trkpt>
      <trkpt lat="43.31783" lon="2.8726">
        <ele>61.471</ele>
        <time>2021-02-05T12:15:31Z</time>
      </trkpt>
      <trkpt lat="43.31771" lon="2.87269">
        <ele>60.776</ele>
        <time>2021-02-05T12:15:51Z</time>
      </trkpt>
      <trkpt lat="43.31764" lon="2.87223">
        <ele>60.39</ele>
        <time>2021-02-05T12:16:11Z</time>
      </trkpt>
      <trkpt lat="43.31773" lon="2.87186">
        <ele>60.319</ele>
        <time>2021-02-05T12:16:31Z</time>
      </trkpt>
      <trkpt lat="43.31767" lon="2.87121">
        <ele>59.708</ele>
        <time>2021-02-05T12:16:51Z</time>
      </trkpt>
      <trkpt lat="43.31845" lon="2.87068">
        <ele>62.253</ele>
        <time>2021-02-05T12:17:11Z</time>
      </trkpt>
      <trkpt lat="43.3183" lon="2.86996">
        <ele>62.842</ele>
        <time>2021-02-05T12:17:31Z</time>
      </trkpt>
      <trkpt lat="43.3182" lon="2.86861">
        <ele>62.678</ele>
        <time>2021-02-05T12:17:51Z</time>
      </trkpt>
      <trkpt lat="43.31726" lon="2.86693">
        <ele>61.644</ele>
        <time>2021-02-05T12:18:11Z</time>
      </trkpt>
      <trkpt lat="43.31689" lon="2.86696">
        <ele>60.755</ele>
        <time>2021-02-05T12:18:31Z</time>
      </trkpt>
      <trkpt lat="43.31604" lon="2.86672">
        <ele>60.247</ele>
        <time>2021-02-05T12:18:51Z</time>
      </trkpt>
      <trkpt lat="43.31458" lon="2.86463">
        <ele>67.32</ele>
        <time>2021-02-05T12:19:11Z</time>
      </trkpt>
      <trkpt lat="43.31425" lon="2.86365">
        <ele>68.462</ele>
        <time>2021-02-05T12:19:31Z</time>
      </trkpt>
      <trkpt lat="43.31361" lon="2.86274">
        <ele>66.844</ele>
        <time>2021-02-05T12:19:51Z</time>
      </trkpt>
      <trkpt lat="43.31259" lon="2.86206">
        <ele>65.905</ele>
        <time>2021-02-05T12:20:11Z</time>
      </trkpt>
      <trkpt lat="43.31161" lon="2.86244">
        <ele>65.115</ele>
        <time>2021-02-05T12:20:31Z</time>
      </trkpt>
      <trkpt lat="43.30971" lon="2.86111">
        <ele>64.408</ele>
        <time>2021-02-05T12:20:51Z</time>
      </trkpt>
      <trkpt lat="43.30835" lon="2.86067">
        <ele>63.09</ele>
        <time>2021-02-05T12:21:11Z</time>
      </trkpt>
      <trkpt lat="43.30823" lon="2.86037">
        <ele>62.769</ele>
        <time>2021-02-05T12:21:31Z</time>
      </trkpt>
      <trkpt lat="43.3083" lon="2.86026">
        <ele>62.955</ele>
        <time>2021-02-05T12:21:51Z</time>
      </trkpt>
      <trkpt lat="43.30822" lon="2.85989">
        <ele>62.591</ele>
        <time>2021-02-05T12:22:11Z</time>
      </trkpt>
      <trkpt lat="43.30804" lon="2.85977">
        <ele>61.812</ele>
        <time>2021-02-05T12:22:31Z</time>
      </trkpt>
      <trkpt lat="43.30712" lon="2.86014">
        <ele>60.334</ele>
        <time>2021-02-05T12:22:51Z</time>
      </trkpt>
      <trkpt lat="43.30689" lon="2.86005">
        <ele>60.167</ele>
        <time>2021-02-05T12:23:11Z</time>
      </trkpt>
      <trkpt lat="43.30658" lon="2.85893">
        <ele>60.929</ele>
        <time>2021-02-05T12:23:31Z</time>
      </trkpt>
      <trkpt lat="43.30526" lon="2.85877">
        <ele>60.043</ele>
        <time>2021-02-05T12:23:51Z</time>
      </trkpt>
      <trkpt lat="43.30464" lon="2.85829">
        <ele>62.164</ele>
        <time>2021-02-05T12:24:11Z</time>
      </trkpt>
      <trkpt lat="43.304" lon="2.85742">
        <ele>63.81</ele>
        <time>2021-02-05T12:24:31Z</time>
      </trkpt>
      <trkpt lat="43.30055" lon="2.85623">
        <ele>79.008</ele>
        <time>2021-02-05T12:24:51Z</time>
      </trkpt>
      <trkpt lat="43.29932" lon="2.85543">
        <ele>76.25</ele>
        <time>2021-02-05T12:25:11Z</time>
      </trkpt>
      <trkpt lat="43.29874" lon="2.85342">
        <ele>72.049</ele>
        <time>2021-02-05T12:25:31Z</time>
      </trkpt>
      <trkpt lat="43.29817" lon="2.85159">
        <ele>69.435</ele>
        <time>2021-02-05T12:25:51Z</time>
      </trkpt>
      <trkpt lat="43.29727" lon="2.85044">
        <ele>68.391</ele>
        <time>2021-02-05T12:26:11Z</time>
      </trkpt>
      <trkpt lat="43.29689" lon="2.84968">
        <ele>67.182</ele>
        <time>2021-02-05T12:26:31Z</time>
      </trkpt>
      <trkpt lat="43.29624" lon="2.84987">
        <ele>68.824</ele>
        <time>2021-02-05T12:26:51Z</time>
      </trkpt>
      <trkpt lat="43.296" lon="2.84939">
        <ele>68.657</ele>
        <time>2021-02-05T12:27:11Z</time>
      </trkpt>
      <trkpt lat="43.29665" lon="2.84658">
        <ele>65.069</ele>
        <time>2021-02-05T12:27:31Z</time>
      </trkpt>
      <trkpt lat="43.29733" lon="2.84465">
        <ele>64.774</ele>
        <time>2021-02-05T12:27:51Z</time>
      </trkpt>
      <trkpt lat="43.29813" lon="2.8435">
        <ele>65.456</ele>
        <time>2021-02-05T12:28:11Z</time>
      </trkpt>
      <trkpt lat="43.2982" lon="2.84222">
        <ele>65.121</ele>
        <time>2021-02-05T12:28:31Z</time>
      </trkpt>
      <trkpt lat="43.29796" lon="2.84034">
        <ele>62.608</ele>
        <time>2021-02-05T12:28:51Z</time>
      </trkpt>
      <trkpt lat="43.29737" lon="2.84047">
        <ele>62.763</ele>
        <time>2021-02-05T12:29:11Z</time>
      </trkpt>
      <trkpt lat="43.29631" lon="2.84136">
        <ele>63.692</ele>
        <time>2021-02-05T12:29:31Z</time>
      </trkpt>
      <trkpt lat="43.29459" lon="2.84174">
        <ele>61.178</ele>
        <time>2021-02-05T12:29:51Z</time>
      </trkpt>
      <trkpt lat="43.29432" lon="2.8404">
        <ele>60.284</ele>
        <time>2021-02-05T12:30:11Z</time>
      </trkpt>
      <trkpt lat="43.29364" lon="2.83928">
        <ele>61.075</ele>
        <time>2021-02-05T12:30:31Z</time>
      </trkpt>
      <trkpt lat="43.29318" lon="2.83773">
        <ele>60.027</ele>
        <time>2021-02-05T12:30:51Z</time>
      </trkpt>
      <trkpt lat="43.29279" lon="2.83704">
        <ele>60.45</ele>
        <time>2021-02-05T12:31:11Z</time>
      </trkpt>
      <trkpt lat="43.29208" lon="2.83516">
        <ele>57.992</ele>
        <time>2021-02-05T12:31:31Z</time>
      </trkpt>
      <trkpt lat="43.29144" lon="2.8335">
        <ele>56.615</ele>
        <time>2021-02-05T12:31:51Z</time>
      </trkpt>
      <trkpt lat="43.29074" lon="2.83277">
        <ele>55.365</ele>
        <time>2021-02-05T12:32:11Z</time>
      </trkpt>
      <trkpt lat="43.29082" lon="2.83183">
        <ele>57.411</ele>
        <time>2021-02-05T12:32:31Z</time>
      </trkpt>
      <trkpt lat="43.29073" lon="2.83138">
        <ele>58.308</ele>
        <time>2021-02-05T12:32:51Z</time>
      </trkpt>
      <trkpt lat="43.29066" lon="2.83041">
        <ele>58.627</ele>
        <time>2021-02-05T12:33:11Z</time>
      </trkpt>
      <trkpt lat="43.29035" lon="2.82916">
        <ele>58.056</ele>
        <time>2021-02-05T12:33:31Z</time>
      </trkpt>
      <trkpt lat="43.28982" lon="2.82786">
        <ele>60.692</ele>
        <time>2021-02-05T12:33:51Z</time>
      </trkpt>
      <trkpt lat="43.28927" lon="2.82727">
        <ele>61.538</ele>
        <time>2021-02-05T12:34:11Z</time>
      </trkpt>
      <trkpt lat="43.28874" lon="2.82727">
        <ele>64.219</ele>
        <time>2021-02-05T12:34:31Z</time>
      </trkpt>
      <trkpt lat="43.2877" lon="2.82609">
        <ele>71.421</ele>
        <time>2021-02-05T12:34:51Z</time>
      </trkpt>
      <trkpt lat="43.28777" lon="2.82564">
        <ele>70.914</ele>
        <time>2021-02-05T12:35:11Z</time>
      </trkpt>
      <trkpt lat="43.28775" lon="2.82495">
        <ele>69.076</ele>
        <time>2021-02-05T12:35:31Z</time>
      </trkpt>
      <trkpt lat="43.28738" lon="2.82493">
        <ele>69.394</ele>
        <time>2021-02-05T12:35:51Z</time>
      </trkpt>
      <trkpt lat="43.28736" lon="2.82467">
        <ele>68.257</ele>
        <time>2021-02-05T12:36:11Z</time>
      </trkpt>
      <trkpt lat="43.28709" lon="2.82434">
        <ele>65.422</ele>
        <time>2021-02-05T12:36:31Z</time>
      </trkpt>
      <trkpt lat="43.28699" lon="2.82389">
        <ele>63.808</ele>
        <time>2021-02-05T12:36:51Z</time>
      </trkpt>
      <trkpt lat="43.28303" lon="2.82237">
        <ele>52.195</ele>
        <time>2021-02-05T12:37:11Z</time>
      </trkpt>
      <trkpt lat="43.28048" lon="2.82291">
        <ele>48.824</ele>
        <time>2021-02-05T12:37:31Z</time>
      </trkpt>
      <trkpt lat="43.28007" lon="2.82274">
        <ele>48.37</ele>
        <time>2021-02-05T12:37:51Z</time>
      </trkpt>
      <trkpt lat="43.27974" lon="2.82175">
        <ele>47.766</ele>
        <time>2021-02-05T12:38:11Z</time>
      </trkpt>
      <trkpt lat="43.27879" lon="2.82235">
        <ele>47.487</ele>
        <time>2021-02-05T12:38:31Z</time>
      </trkpt>
      <trkpt lat="43.27832" lon="2.82198">
        <ele>48.049</ele>
        <time>2021-02-05T12:38:51Z</time>
      </trkpt>
      <trkpt lat="43.27741" lon="2.82165">
        <ele>49.212</ele>
        <time>2021-02-05T12:39:11Z</time>
      </trkpt>
      <trkpt lat="43.27624" lon="2.82182">
        <ele>51.624</ele>
        <time>2021-02-05T12:39:31Z</time>
      </trkpt>
      <trkpt lat="43.27471" lon="2.82218">
        <ele>52.555</ele>
        <time>2021-02-05T12:39:51Z</time>
      </trkpt>
      <trkpt lat="43.27381" lon="2.82258">
        <ele>52.407</ele>
        <time>2021-02-05T12:40:11Z</time>
      </trkpt>
      <trkpt lat="43.27153" lon="2.82319">
        <ele>49.217</ele>
        <time>2021-02-05T12:40:31Z</time>
      </trkpt>
      <trkpt lat="43.27077" lon="2.82195">
        <ele>43.708</ele>
        <time>2021-02-05T12:40:51Z</time>
      </trkpt>
      <trkpt lat="43.26904" lon="2.82038">
        <ele>42.251</ele>
        <time>2021-02-05T12:41:11Z</time>
      </trkpt>
      <trkpt lat="43.269" lon="2.81969">
        <ele>42.07</ele>
        <time>2021-02-05T12:41:31Z</time>
      </trkpt>
      <trkpt lat="43.26917" lon="2.81925">
        <ele>41.146</ele>
        <time>2021-02-05T12:41:51Z</time>
      </trkpt>
      <trkpt lat="43.26854" lon="2.81788">
        <ele>45.132</ele>
        <time>2021-02-05T12:42:11Z</time>
      </trkpt>
      <trkpt lat="43.26831" lon="2.81585">
        <ele>48.023</ele>
        <time>2021-02-05T12:42:31Z</time>
      </trkpt>
      <trkpt lat="43.26728" lon="2.81608">
        <ele>48.765</ele>
        <time>2021-02-05T12:42:51Z</time>
      </trkpt>
      <trkpt lat="43.26787" lon="2.81908">
        <ele>44.768</ele>
        <time>2021-02-05T12:43:11Z</time>
      </trkpt>
      <trkpt lat="43.26814" lon="2.8197">
        <ele>43.66</ele>
        <time>2021-02-05T12:43:31Z</time>
      </trkpt>
      <trkpt lat="43.26814" lon="2.821">
        <ele>43.019</ele>
        <time>2021-02-05T12:43:51Z</time>
      </trkpt>
      <trkpt lat="43.26826" lon="2.82116">
        <ele>42.709</ele>
        <time>2021-02-05T12:44:11Z</time>
      </trkpt>
      <trkpt lat="43.26815" lon="2.82136">
        <ele>42.519</ele>
        <time>2021-02-05T12:44:31Z</time>
      </trkpt>
      <trkpt lat="43.26733" lon="2.82157">
        <ele>41.808</ele>
        <time>2021-02-05T12:44:51Z</time>
      </trkpt>
      <trkpt lat="43.26674" lon="2.82157">
        <ele>40.367</ele>
        <time>2021-02-05T12:45:11Z</time>
      </trkpt>
      <trkpt lat="43.26626" lon="2.82271">
        <ele>40.726</ele>
        <time>2021-02-05T12:45:31Z</time>
      </trkpt>
      <trkpt lat="43.26626" lon="2.823">
        <ele>40.452</ele>
        <time>2021-02-05T12:45:51Z</time>
      </trkpt>
      <trkpt lat="43.26587" lon="2.82303">
        <ele>41.038</ele>
        <time>2021-02-05T12:46:11Z</time>
      </trkpt>
      <trkpt lat="43.26572" lon="2.82359">
        <ele>41.779</ele>
        <time>2021-02-05T12:46:31Z</time>
      </trkpt>
      <trkpt lat="43.26524" lon="2.82429">
        <ele>45.021</ele>
        <time>2021-02-05T12:46:51Z</time>
      </trkpt>
      <trkpt lat="43.26453" lon="2.82449">
        <ele>59.134</ele>
        <time>2021-02-05T12:47:11Z</time>
      </trkpt>
      <trkpt lat="43.26352" lon="2.82573">
        <ele>66.396</ele>
        <time>2021-02-05T12:47:31Z</time>
      </trkpt>
      <trkpt lat="43.26183" lon="2.82774">
        <ele>64.977</ele>
        <time>2021-02-05T12:47:51Z</time>
      </trkpt>
      <trkpt lat="43.26054" lon="2.82918">
        <ele>61.961</ele>
        <time>2021-02-05T12:48:11Z</time>
      </trkpt>
      <trkpt lat="43.25888" lon="2.83023">
        <ele>62.627</ele>
        <time>2021-02-05T12:48:31Z</time>
      </trkpt>
      <trkpt lat="43.25631" lon="2.83045">
        <ele>60.608</ele>
        <time>2021-02-05T12:48:51Z</time>
      </trkpt>
      <trkpt lat="43.25396" lon="2.8303">
        <ele>59.073</ele>
        <time>2021-02-05T12:49:11Z</time>
      </trkpt>
      <trkpt lat="43.25267" lon="2.83075">
        <ele>56.652</ele>
        <time>2021-02-05T12:49:31Z</time>
      </trkpt>
      <trkpt lat="43.25092" lon="2.83091">
        <ele>60.258</ele>
        <time>2021-02-05T12:49:51Z</time>
      </trkpt>
      <trkpt lat="43.2502" lon="2.8309">
        <ele>59.374</ele>
        <time>2021-02-05T12:50:11Z</time>
      </trkpt>
      <trkpt lat="43.24992" lon="2.83213">
        <ele>53.495</ele>
        <time>2021-02-05T12:50:31Z</time>
      </trkpt>
      <trkpt lat="43.2508" lon="2.83251">
        <ele>52.947</ele>
        <time>2021-02-05T12:50:51Z</time>
      </trkpt>
      <trkpt lat="43.24942" lon="2.83301">
        <ele>45.72</ele>
        <time>2021-02-05T12:51:11Z</time>
      </trkpt>
      <trkpt lat="43.24898" lon="2.83375">
        <ele>39.882</ele>
        <time>2021-02-05T12:51:31Z</time>
      </trkpt>
      <trkpt lat="43.24861" lon="2.83373">
        <ele>34.567</ele>
        <time>2021-02-05T12:51:51Z</time>
      </trkpt>
      <trkpt lat="43.24863" lon="2.83129">
        <ele>35.581</ele>
        <time>2021-02-05T12:52:11Z</time>
      </trkpt>
      <trkpt lat="43.25027" lon="2.82521">
        <ele>35.819</ele>
        <time>2021-02-05T12:52:31Z</time>
      </trkpt>
      <trkpt lat="43.25035" lon="2.82419">
        <ele>33.508</ele>
        <time>2021-02-05T12:52:51Z</time>
      </trkpt>
      <trkpt lat="43.25053" lon="2.82341">
        <ele>34.042</ele>
        <time>2021-02-05T12:53:11Z</time>
      </trkpt>
      <trkpt lat="43.25131" lon="2.82194">
        <ele>35.971</ele>
        <time>2021-02-05T12:53:31Z</time>
      </trkpt>
      <trkpt lat="43.25169" lon="2.82027">
        <ele>38.257</ele>
        <time>2021-02-05T12:53:51Z</time>
      </trkpt>
      <trkpt lat="43.25176" lon="2.81767">
        <ele>36.693</ele>
        <time>2021-02-05T12:54:11Z</time>
      </trkpt>
      <trkpt lat="43.2514" lon="2.81611">
        <ele>35.154</ele>
        <time>2021-02-05T12:54:31Z</time>
      </trkpt>
      <trkpt lat="43.25106" lon="2.81235">
        <ele>34.766</ele>
        <time>2021-02-05T12:54:51Z</time>
      </trkpt>
      <trkpt lat="43.24987" lon="2.80819">
        <ele>36.299</ele>
        <time>2021-02-05T12:55:11Z</time>
      </trkpt>
      <trkpt lat="43.24705" lon="2.80391">
        <ele>36.311</ele>
        <time>2021-02-05T12:55:31Z</time>
      </trkpt>
      <trkpt lat="43.24636" lon="2.80337">
        <ele>35.498</ele>
        <time>2021-02-05T12:55:51Z</time>
      </trkpt>
      <trkpt lat="43.24543" lon="2.8019">
        <ele>34.515</ele>
        <time>2021-02-05T12:56:11Z</time>
      </trkpt>
      <trkpt lat="43.24381" lon="2.8008">
        <ele>33.226</ele>
        <time>2021-02-05T12:56:31Z</time>
      </trkpt>
      <trkpt lat="43.24256" lon="2.79933">
        <ele>35.408</ele>
        <time>2021-02-05T12:56:51Z</time>
      </trkpt>
      <trkpt lat="43.24198" lon="2.79802">
        <ele>39.815</ele>
        <time>2021-02-05T12:57:11Z</time>
      </trkpt>
      <trkpt lat="43.24173" lon="2.79673">
        <ele>38.244</ele>
        <time>2021-02-05T12:57:31Z</time>
      </trkpt>
      <trkpt lat="43.24189" lon="2.79319">
        <ele>36.19</ele>
        <time>2021-02-05T12:57:51Z</time>
      </trkpt>
      <trkpt lat="43.24189" lon="2.79067">
        <ele>35.396</ele>
        <time>2021-02-05T12:58:11Z</time>
      </trkpt>
      <trkpt lat="43.24224" lon="2.78837">
        <ele>35.137</ele>
        <time>2021-02-05T12:58:31Z</time>
      </trkpt>
      <trkpt lat="43.24222" lon="2.78774">
        <ele>34.889</ele>
        <time>2021-02-05T12:58:51Z</time>
      </trkpt>
      <trkpt lat="43.24055" lon="2.78489">
        <ele>34.992</ele>
        <time>2021-02-05T12:59:11Z</time>
      </trkpt>
      <trkpt lat="43.2402" lon="2.7841">
        <ele>35.424</ele>
        <time>2021-02-05T12:59:31Z</time>
      </trkpt>
      <trkpt lat="43.24" lon="2.78307">
        <ele>35.061</ele>
        <time>2021-02-05T12:59:51Z</time>
      </trkpt>
      <trkpt lat="43.23962" lon="2.77916">
        <ele>33.121</ele>
        <time>2021-02-05T13:00:11Z</time>
      </trkpt>
      <trkpt lat="43.23923" lon="2.77271">
        <ele>39.313</ele>
        <time>2021-02-05T13:00:31Z</time>
      </trkpt>
      <trkpt lat="43.23916" lon="2.77039">
        <ele>39.408</ele>
        <time>2021-02-05T13:00:51Z</time>
      </trkpt>
      <trkpt lat="43.24005" lon="2.76635">
        <ele>37.292</ele>
        <time>2021-02-05T13:01:11Z</time>
      </trkpt>
      <trkpt lat="43.24012" lon="2.76567">
        <ele>36.381</ele>
        <time>2021-02-05T13:01:31Z</time>
      </trkpt>
      <trkpt lat="43.24057" lon="2.7648">
        <ele>37.417</ele>
        <time>2021-02-05T13:01:51Z</time>
      </trkpt>
      <trkpt lat="43.24105" lon="2.76428">
        <ele>37.463</ele>
        <time>2021-02-05T13:02:11Z</time>
      </trkpt>
      <trkpt lat="43.24372" lon="2.763">
        <ele>36.254</ele>
        <time>2021-02-05T13:02:31Z</time>
      </trkpt>
      <trkpt lat="43.24694" lon="2.76144">
        <ele>38.026</ele>
        <time>2021-02-05T13:02:51Z</time>
      </trkpt>
      <trkpt lat="43.24762" lon="2.76075">
        <ele>38.529</ele>
        <time>2021-02-05T13:03:11Z</time>
      </trkpt>
      <trkpt lat="43.2488" lon="2.75895">
        <ele>42.111</ele>
        <time>2021-02-05T13:03:31Z</time>
      </trkpt>
      <trkpt lat="43.24872" lon="2.75821">
        <ele>39.595</ele>
        <time>2021-02-05T13:03:51Z</time>
      </trkpt>
      <trkpt lat="43.24889" lon="2.75757">
        <ele>38.449</ele>
        <time>2021-02-05T13:04:11Z</time>
      </trkpt>
      <trkpt lat="43.24928" lon="2.75727">
        <ele>38.423</ele>
        <time>2021-02-05T13:04:31Z</time>
      </trkpt>
      <trkpt lat="43.25007" lon="2.75696">
        <ele>37.808</ele>
        <time>2021-02-05T13:04:51Z</time>
      </trkpt>
      <trkpt lat="43.2524" lon="2.75544">
        <ele>40.435</ele>
        <time>2021-02-05T13:05:11Z</time>
      </trkpt>
      <trkpt lat="43.25716" lon="2.75209">
        <ele>41.724</ele>
        <time>2021-02-05T13:05:31Z</time>
      </trkpt>
      <trkpt lat="43.25922" lon="2.75037">
        <ele>44.07</ele>
        <time>2021-02-05T13:05:51Z</time>
      </trkpt>
      <trkpt lat="43.2617" lon="2.74913">
        <ele>41.956</ele>
        <time>2021-02-05T13:06:11Z</time>
      </trkpt>
      <trkpt lat="43.26231" lon="2.74808">
        <ele>42.657</ele>
        <time>2021-02-05T13:06:31Z</time>
      </trkpt>
      <trkpt lat="43.26602" lon="2.74124">
        <ele>41.339</ele>
        <time>2021-02-05T13:06:51Z</time>
      </trkpt>
      <trkpt lat="43.26637" lon="2.74095">
        <ele>40.732</ele>
        <time>2021-02-05T13:07:11Z</time>
      </trkpt>
      <trkpt lat="43.26667" lon="2.7403">
        <ele>39.734</ele>
        <time>2021-02-05T13:07:31Z</time>
      </trkpt>
      <trkpt lat="43.26736" lon="2.73973">
        <ele>40.323</ele>
        <time>2021-02-05T13:07:51Z</time>
      </trkpt>
      <trkpt lat="43.26772" lon="2.73965">
        <ele>40.883</ele>
        <time>2021-02-05T13:08:11Z</time>
      </trkpt>
      <trkpt lat="43.26825" lon="2.73988">
        <ele>41.911</ele>
        <time>2021-02-05T13:08:31Z</time>
      </trkpt>
      <trkpt lat="43.26875" lon="2.73991">
        <ele>42.508</ele>
        <time>2021-02-05T13:08:51Z</time>
      </trkpt>
      <trkpt lat="43.26932" lon="2.73956">
        <ele>42.898</ele>
        <time>2021-02-05T13:09:11Z</time>
      </trkpt>
      <trkpt lat="43.26968" lon="2.73853">
        <ele>43.217</ele>
        <time>2021-02-05T13:09:31Z</time>
      </trkpt>
      <trkpt lat="43.27002" lon="2.73702">
        <ele>45.673</ele>
        <time>2021-02-05T13:09:51Z</time>
      </trkpt>
      <trkpt lat="43.26981" lon="2.73196">
        <ele>48.219</ele>
        <time>2021-02-05T13:10:11Z</time>
      </trkpt>
      <trkpt lat="43.26964" lon="2.72721">
        <ele>49.47</ele>
        <time>2021-02-05T13:10:31Z</time>
      </trkpt>
      <trkpt lat="43.26969" lon="2.72411">
        <ele>49.062</ele>
        <time>2021-02-05T13:10:51Z</time>
      </trkpt>
      <trkpt lat="43.26878" lon="2.72029">
        <ele>50.345</ele>
        <time>2021-02-05T13:11:11Z</time>
      </trkpt>
      <trkpt lat="43.26865" lon="2.72028">
        <ele>50.477</ele>
        <time>2021-02-05T13:11:31Z</time>
      </trkpt>
      <trkpt lat="43.26841" lon="2.71908">
        <ele>50.947</ele>
        <time>2021-02-05T13:11:51Z</time>
      </trkpt>
      <trkpt lat="43.26841" lon="2.71872">
        <ele>50.529</ele>
        <time>2021-02-05T13:12:11Z</time>
      </trkpt>
      <trkpt lat="43.26813" lon="2.71741">
        <ele>49.821</ele>
        <time>2021-02-05T13:12:31Z</time>
      </trkpt>
      <trkpt lat="43.26885" lon="2.71543">
        <ele>47.408</ele>
        <time>2021-02-05T13:12:51Z</time>
      </trkpt>
      <trkpt lat="43.26797" lon="2.71492">
        <ele>48.74</ele>
        <time>2021-02-05T13:13:11Z</time>
      </trkpt>
      <trkpt lat="43.26732" lon="2.71185">
        <ele>48.829</ele>
        <time>2021-02-05T13:13:31Z</time>
      </trkpt>
      <trkpt lat="43.26703" lon="2.7101">
        <ele>49.365</ele>
        <time>2021-02-05T13:13:51Z</time>
      </trkpt>
      <trkpt lat="43.26696" lon="2.70866">
        <ele>49.171</ele>
        <time>2021-02-05T13:14:11Z</time>
      </trkpt>
      <trkpt lat="43.26714" lon="2.70562">
        <ele>48.322</ele>
        <time>2021-02-05T13:14:31Z</time>
      </trkpt>
      <trkpt lat="43.26707" lon="2.70542">
        <ele>48.324</ele>
        <time>2021-02-05T13:14:51Z</time>
      </trkpt>
      <trkpt lat="43.26732" lon="2.70507">
        <ele>47.557</ele>
        <time>2021-02-05T13:15:11Z</time>
      </trkpt>
      <trkpt lat="43.2671" lon="2.70458">
        <ele>47.779</ele>
        <time>2021-02-05T13:15:31Z</time>
      </trkpt>
      <trkpt lat="43.26677" lon="2.70315">
        <ele>48.145</ele>
        <time>2021-02-05T13:15:51Z</time>
      </trkpt>
      <trkpt lat="43.26626" lon="2.70149">
        <ele>48.447</ele>
        <time>2021-02-05T13:16:11Z</time>
      </trkpt>
      <trkpt lat="43.26641" lon="2.70159">
        <ele>48.211</ele>
        <time>2021-02-05T13:16:31Z</time>
      </trkpt>
      <trkpt lat="43.26684" lon="2.70155">
        <ele>47.708</ele>
        <time>2021-02-05T13:16:51Z</time>
      </trkpt>
      <trkpt lat="43.26699" lon="2.70169">
        <ele>47.64</ele>
        <time>2021-02-05T13:17:11Z</time>
      </trkpt>
      <trkpt lat="43.26769" lon="2.70118">
        <ele>47.929</ele>
        <time>2021-02-05T13:17:31Z</time>
      </trkpt>
      <trkpt lat="43.26778" lon="2.7008">
        <ele>48.395</ele>
        <time>2021-02-05T13:17:51Z</time>
      </trkpt>
      <trkpt lat="43.26752" lon="2.69966">
        <ele>49.091</ele>
        <time>2021-02-05T13:18:11Z</time>
      </trkpt>
      <trkpt lat="43.26751" lon="2.69917">
        <ele>49.092</ele>
        <time>2021-02-05T13:18:31Z</time>
      </trkpt>
      <trkpt lat="43.26769" lon="2.69832">
        <ele>48.574</ele>
        <time>2021-02-05T13:18:51Z</time>
      </trkpt>
      <trkpt lat="43.26825" lon="2.69701">
        <ele>48.857</ele>
        <time>2021-02-05T13:19:11Z</time>
      </trkpt>
      <trkpt lat="43.26865" lon="2.69665">
        <ele>48.929</ele>
        <time>2021-02-05T13:19:31Z</time>
      </trkpt>
      <trkpt lat="43.27143" lon="2.69584">
        <ele>48.178</ele>
        <time>2021-02-05T13:19:51Z</time>
      </trkpt>
      <trkpt lat="43.27176" lon="2.69513">
        <ele>50.333</ele>
        <time>2021-02-05T13:20:11Z</time>
      </trkpt>
      <trkpt lat="43.27243" lon="2.69481">
        <ele>50.526</ele>
        <time>2021-02-05T13:20:31Z</time>
      </trkpt>
      <trkpt lat="43.27264" lon="2.69486">
        <ele>50.308</ele>
        <time>2021-02-05T13:20:51Z</time>
      </trkpt>
      <trkpt lat="43.27295" lon="2.69476">
        <ele>50.453</ele>
        <time>2021-02-05T13:21:11Z</time>
      </trkpt>
      <trkpt lat="43.27338" lon="2.69455">
        <ele>50.552</ele>
        <time>2021-02-05T13:21:31Z</time>
      </trkpt>
      <trkpt lat="43.27355" lon="2.6946">
        <ele>50.258</ele>
        <time>2021-02-05T13:21:51Z</time>
      </trkpt>
      <trkpt lat="43.27393" lon="2.69463">
        <ele>49.654</ele>
        <time>2021-02-05T13:22:11Z</time>
      </trkpt>
      <trkpt lat="43.2741" lon="2.69444">
        <ele>50.495</ele>
        <time>2021-02-05T13:22:31Z</time>
      </trkpt>
      <trkpt lat="43.2742" lon="2.69445">
        <ele>50.437</ele>
        <time>2021-02-05T13:22:51Z</time>
      </trkpt>
      <trkpt lat="43.27432" lon="2.69489">
        <ele>48.21</ele>
        <time>2021-02-05T13:23:11Z</time>
      </trkpt>
      <trkpt lat="43.27492" lon="2.69533">
        <ele>49.712</ele>
        <time>2021-02-05T13:23:31Z</time>
      </trkpt>
      <trkpt lat="43.27509" lon="2.69573">
        <ele>50.465</ele>
        <time>2021-02-05T13:23:51Z</time>
      </trkpt>
      <trkpt lat="43.27517" lon="2.6958">
        <ele>50.668</ele>
        <time>2021-02-05T13:24:11Z</time>
      </trkpt>
      <trkpt lat="43.27535" lon="2.6955">
        <ele>51.814</ele>
        <time>2021-02-05T13:24:31Z</time>
      </trkpt>
      <trkpt lat="43.27561" lon="2.69552">
        <ele>53.008</ele>
        <time>2021-02-05T13:24:51Z</time>
      </trkpt>
      <trkpt lat="43.27604" lon="2.69695">
        <ele>52.412</ele>
        <time>2021-02-05T13:25:11Z</time>
      </trkpt>
      <trkpt lat="43.27588" lon="2.69737">
        <ele>51.351</ele>
        <time>2021-02-05T13:25:31Z</time>
      </trkpt>
      <trkpt lat="43.27586" lon="2.69757">
        <ele>51.027</ele>
        <time>2021-02-05T13:25:51Z</time>
      </trkpt>
      <trkpt lat="43.276" lon="2.69812">
        <ele>50.783</ele>
        <time>2021-02-05T13:26:11Z</time>
      </trkpt>
      <trkpt lat="43.2761" lon="2.69828">
        <ele>51.084</ele>
        <time>2021-02-05T13:26:31Z</time>
      </trkpt>
      <trkpt lat="43.27625" lon="2.69837">
        <ele>51.926</ele>
        <time>2021-02-05T13:26:51Z</time>
      </trkpt>
      <trkpt lat="43.27652" lon="2.69891">
        <ele>53.149</ele>
        <time>2021-02-05T13:27:11Z</time>
      </trkpt>
      <trkpt lat="43.27673" lon="2.69912">
        <ele>54.281</ele>
        <time>2021-02-05T13:27:31Z</time>
      </trkpt>
      <trkpt lat="43.27692" lon="2.69899">
        <ele>54.913</ele>
        <time>2021-02-05T13:27:51Z</time>
      </trkpt>
      <trkpt lat="43.27746" lon="2.69784">
        <ele>61.143</ele>
        <time>2021-02-05T13:28:11Z</time>
      </trkpt>
      <trkpt lat="43.27769" lon="2.69698">
        <ele>64.607</ele>
        <time>2021-02-05T13:28:31Z</time>
      </trkpt>
      <trkpt lat="43.27778" lon="2.69648">
        <ele>65.908</ele>
        <time>2021-02-05T13:28:51Z</time>
      </trkpt>
      <trkpt lat="43.27802" lon="2.69603">
        <ele>67.787</ele>
        <time>2021-02-05T13:29:11Z</time>
      </trkpt>
      <trkpt lat="43.27908" lon="2.69297">
        <ele>72.386</ele>
        <time>2021-02-05T13:29:31Z</time>
      </trkpt>
      <trkpt lat="43.27932" lon="2.69297">
        <ele>72.312</ele>
        <time>2021-02-05T13:29:51Z</time>
      </trkpt>
      <trkpt lat="43.27972" lon="2.69147">
        <ele>73.968</ele>
        <time>2021-02-05T13:30:11Z</time>
      </trkpt>
      <trkpt lat="43.2804" lon="2.69172">
        <ele>72.029</ele>
        <time>2021-02-05T13:30:31Z</time>
      </trkpt>
      <trkpt lat="43.28103" lon="2.69214">
        <ele>70.041</ele>
        <time>2021-02-05T13:30:51Z</time>
      </trkpt>
      <trkpt lat="43.28143" lon="2.68999">
        <ele>71.314</ele>
        <time>2021-02-05T13:31:11Z</time>
      </trkpt>
      <trkpt lat="43.28134" lon="2.68925">
        <ele>71.726</ele>
        <time>2021-02-05T13:31:31Z</time>
      </trkpt>
      <trkpt lat="43.28104" lon="2.68795">
        <ele>74.045</ele>
        <time>2021-02-05T13:31:51Z</time>
      </trkpt>
      <trkpt lat="43.28112" lon="2.68679">
        <ele>76.647</ele>
        <time>2021-02-05T13:32:11Z</time>
      </trkpt>
      <trkpt lat="43.28116" lon="2.68494">
        <ele>78.511</ele>
        <time>2021-02-05T13:32:31Z</time>
      </trkpt>
      <trkpt lat="43.281" lon="2.68352">
        <ele>77.208</ele>
        <time>2021-02-05T13:32:51Z</time>
      </trkpt>
      <trkpt lat="43.28076" lon="2.68188">
        <ele>76.27</ele>
        <time>2021-02-05T13:33:11Z</time>
      </trkpt>
      <trkpt lat="43.28041" lon="2.68029">
        <ele>72.089</ele>
        <time>2021-02-05T13:33:31Z</time>
      </trkpt>
      <trkpt lat="43.28015" lon="2.67977">
        <ele>73.695</ele>
        <time>2021-02-05T13:33:51Z</time>
      </trkpt>
      <trkpt lat="43.27995" lon="2.67954">
        <ele>74.881</ele>
        <time>2021-02-05T13:34:11Z</time>
      </trkpt>
      <trkpt lat="43.27975" lon="2.67886">
        <ele>76.412</ele>
        <time>2021-02-05T13:34:31Z</time>
      </trkpt>
      <trkpt lat="43.27971" lon="2.67811">
        <ele>76.944</ele>
        <time>2021-02-05T13:34:51Z</time>
      </trkpt>
      <trkpt lat="43.27974" lon="2.67728">
        <ele>76.787</ele>
        <time>2021-02-05T13:35:11Z</time>
      </trkpt>
      <trkpt lat="43.27991" lon="2.67634">
        <ele>76.749</ele>
        <time>2021-02-05T13:35:31Z</time>
      </trkpt>
      <trkpt lat="43.2801" lon="2.67489">
        <ele>76.179</ele>
        <time>2021-02-05T13:35:51Z</time>
      </trkpt>
      <trkpt lat="43.28028" lon="2.67402">
        <ele>75.805</ele>
        <time>2021-02-05T13:36:11Z</time>
      </trkpt>
      <trkpt lat="43.28039" lon="2.67329">
        <ele>76.625</ele>
        <time>2021-02-05T13:36:31Z</time>
      </trkpt>
      <trkpt lat="43.28036" lon="2.67288">
        <ele>77.508</ele>
        <time>2021-02-05T13:36:51Z</time>
      </trkpt>
      <trkpt lat="43.28014" lon="2.67257">
        <ele>78.063</ele>
        <time>2021-02-05T13:37:11Z</time>
      </trkpt>
      <trkpt lat="43.27948" lon="2.67081">
        <ele>78.842</ele>
        <time>2021-02-05T13:37:31Z</time>
      </trkpt>
      <trkpt lat="43.27898" lon="2.66905">
        <ele>78.398</ele>
        <time>2021-02-05T13:37:51Z</time>
      </trkpt>
      <trkpt lat="43.27835" lon="2.66663">
        <ele>83.084</ele>
        <time>2021-02-05T13:38:11Z</time>
      </trkpt>
      <trkpt lat="43.27803" lon="2.6653">
        <ele>86.155</ele>
        <time>2021-02-05T13:38:31Z</time>
      </trkpt>
      <trkpt lat="43.27786" lon="2.66455">
        <ele>87.057</ele>
        <time>2021-02-05T13:38:51Z</time>
      </trkpt>
      <trkpt lat="43.27766" lon="2.6635">
        <ele>87.81</ele>
        <time>2021-02-05T13:39:11Z</time>
      </trkpt>
      <trkpt lat="43.27748" lon="2.66226">
        <ele>90.592</ele>
        <time>2021-02-05T13:39:31Z</time>
      </trkpt>
      <trkpt lat="43.27749" lon="2.66193">
        <ele>91.382</ele>
        <time>2021-02-05T13:39:51Z</time>
      </trkpt>
      <trkpt lat="43.27774" lon="2.66117">
        <ele>91.643</ele>
        <time>2021-02-05T13:40:11Z</time>
      </trkpt>
      <trkpt lat="43.27765" lon="2.66113">
        <ele>91.817</ele>
        <time>2021-02-05T13:40:31Z</time>
      </trkpt>
      <trkpt lat="43.27766" lon="2.66092">
        <ele>91.808</ele>
        <time>2021-02-05T13:40:51Z</time>
      </trkpt>
      <trkpt lat="43.27777" lon="2.66023">
        <ele>91.754</ele>
        <time>2021-02-05T13:41:11Z</time>
      </trkpt>
      <trkpt lat="43.27781" lon="2.65952">
        <ele>91.883</ele>
        <time>2021-02-05T13:41:31Z</time>
      </trkpt>
      <trkpt lat="43.27775" lon="2.659">
        <ele>91.919</ele>
        <time>2021-02-05T13:41:51Z</time>
      </trkpt>
      <trkpt lat="43.27762" lon="2.65852">
        <ele>91.995</ele>
        <time>2021-02-05T13:42:11Z</time>
      </trkpt>
      <trkpt lat="43.27744" lon="2.65826">
        <ele>91.536</ele>
        <time>2021-02-05T13:42:31Z</time>
      </trkpt>
      <trkpt lat="43.27721" lon="2.65805">
        <ele>89.118</ele>
        <time>2021-02-05T13:42:51Z</time>
      </trkpt>
      <trkpt lat="43.27709" lon="2.65784">
        <ele>87.091</ele>
        <time>2021-02-05T13:43:11Z</time>
      </trkpt>
      <trkpt lat="43.27691" lon="2.65783">
        <ele>84.883</ele>
        <time>2021-02-05T13:43:31Z</time>
      </trkpt>
      <trkpt lat="43.27701" lon="2.65718">
        <ele>82.069</ele>
        <time>2021-02-05T13:43:51Z</time>
      </trkpt>
      <trkpt lat="43.27727" lon="2.65647">
        <ele>83.104</ele>
        <time>2021-02-05T13:44:11Z</time>
      </trkpt>
      <trkpt lat="43.27734" lon="2.65618">
        <ele>82.224</ele>
        <time>2021-02-05T13:44:31Z</time>
      </trkpt>
      <trkpt lat="43.27738" lon="2.65545">
        <ele>76.808</ele>
        <time>2021-02-05T13:44:51Z</time>
      </trkpt>
      <trkpt lat="43.27731" lon="2.65505">
        <ele>72.212</ele>
        <time>2021-02-05T13:45:11Z</time>
      </trkpt>
      <trkpt lat="43.27735" lon="2.65488">
        <ele>71.431</ele>
        <time>2021-02-05T13:45:31Z</time>
      </trkpt>
      <trkpt lat="43.27735" lon="2.6547">
        <ele>69.767</ele>
        <time>2021-02-05T13:45:51Z</time>
      </trkpt>
      <trkpt lat="43.27765" lon="2.6541">
        <ele>68.053</ele>
        <time>2021-02-05T13:46:11Z</time>
      </trkpt>
      <trkpt lat="43.27843" lon="2.65231">
        <ele>67.284</ele>
        <time>2021-02-05T13:46:31Z</time>
      </trkpt>
      <trkpt lat="43.27937" lon="2.64984">
        <ele>69.876</ele>
        <time>2021-02-05T13:46:51Z</time>
      </trkpt>
      <trkpt lat="43.28175" lon="2.64636">
        <ele>72.429</ele>
        <time>2021-02-05T13:47:11Z</time>
      </trkpt>
      <trkpt lat="43.28267" lon="2.64501">
        <ele>74.511</ele>
        <time>2021-02-05T13:47:31Z</time>
      </trkpt>
      <trkpt lat="43.2833" lon="2.64431">
        <ele>75.682</ele>
        <time>2021-02-05T13:47:51Z</time>
      </trkpt>
      <trkpt lat="43.28392" lon="2.64382">
        <ele>78.143</ele>
        <time>2021-02-05T13:48:11Z</time>
      </trkpt>
      <trkpt lat="43.28418" lon="2.64365">
        <ele>78.817</ele>
        <time>2021-02-05T13:48:31Z</time>
      </trkpt>
      <trkpt lat="43.2843" lon="2.64368">
        <ele>80.008</ele>
        <time>2021-02-05T13:48:51Z</time>
      </trkpt>
      <trkpt lat="43.2857" lon="2.64265">
        <ele>79.714</ele>
        <time>2021-02-05T13:49:11Z</time>
      </trkpt>
      <trkpt lat="43.28599" lon="2.64226">
        <ele>79.263</ele>
        <time>2021-02-05T13:49:31Z</time>
      </trkpt>
      <trkpt lat="43.28607" lon="2.64205">
        <ele>79.179</ele>
        <time>2021-02-05T13:49:51Z</time>
      </trkpt>
      <trkpt lat="43.28656" lon="2.64127">
        <ele>80.115</ele>
        <time>2021-02-05T13:50:11Z</time>
      </trkpt>
      <trkpt lat="43.28705" lon="2.64014">
        <ele>81.086</ele>
        <time>2021-02-05T13:50:31Z</time>
      </trkpt>
      <trkpt lat="43.28823" lon="2.63627">
        <ele>79.258</ele>
        <time>2021-02-05T13:50:51Z</time>
      </trkpt>
      <trkpt lat="43.28837" lon="2.63548">
        <ele>80.221</ele>
        <time>2021-02-05T13:51:11Z</time>
      </trkpt>
      <trkpt lat="43.28845" lon="2.63443">
        <ele>80.383</ele>
        <time>2021-02-05T13:51:31Z</time>
      </trkpt>
      <trkpt lat="43.2884" lon="2.63342">
        <ele>80.282</ele>
        <time>2021-02-05T13:51:51Z</time>
      </trkpt>
      <trkpt lat="43.28831" lon="2.63282">
        <ele>81.743</ele>
        <time>2021-02-05T13:52:11Z</time>
      </trkpt>
      <trkpt lat="43.28816" lon="2.63207">
        <ele>82.217</ele>
        <time>2021-02-05T13:52:31Z</time>
      </trkpt>
      <trkpt lat="43.28744" lon="2.63019">
        <ele>85.508</ele>
        <time>2021-02-05T13:52:51Z</time>
      </trkpt>
      <trkpt lat="43.28576" lon="2.62581">
        <ele>86.814</ele>
        <time>2021-02-05T13:53:11Z</time>
      </trkpt>
      <trkpt lat="43.28374" lon="2.62069">
        <ele>89.773</ele>
        <time>2021-02-05T13:53:31Z</time>
      </trkpt>
      <trkpt lat="43.28346" lon="2.61958">
        <ele>90.699</ele>
        <time>2021-02-05T13:53:51Z</time>
      </trkpt>
      <trkpt lat="43.28334" lon="2.61859">
        <ele>91.065</ele>
        <time>2021-02-05T13:54:11Z</time>
      </trkpt>
      <trkpt lat="43.28334" lon="2.61751">
        <ele>88.146</ele>
        <time>2021-02-05T13:54:31Z</time>
      </trkpt>
      <trkpt lat="43.2834" lon="2.61433">
        <ele>93.918</ele>
        <time>2021-02-05T13:54:51Z</time>
      </trkpt>
      <trkpt lat="43.28386" lon="2.61442">
        <ele>93.641</ele>
        <time>2021-02-05T13:55:11Z</time>
      </trkpt>
      <trkpt lat="43.28396" lon="2.61388">
        <ele>93.413</ele>
        <time>2021-02-05T13:55:31Z</time>
      </trkpt>
      <trkpt lat="43.28412" lon="2.61204">
        <ele>95.085</ele>
        <time>2021-02-05T13:55:51Z</time>
      </trkpt>
      <trkpt lat="43.2843" lon="2.61091">
        <ele>97.589</ele>
        <time>2021-02-05T13:56:11Z</time>
      </trkpt>
      <trkpt lat="43.28454" lon="2.60976">
        <ele>99.117</ele>
        <time>2021-02-05T13:56:31Z</time>
      </trkpt>
      <trkpt lat="43.28467" lon="2.60862">
        <ele>101.008</ele>
        <time>2021-02-05T13:56:51Z</time>
      </trkpt>
      <trkpt lat="43.28465" lon="2.60817">
        <ele>101.094</ele>
        <time>2021-02-05T13:57:11Z</time>
      </trkpt>
      <trkpt lat="43.28437" lon="2.6076">
        <ele>99.433</ele>
        <time>2021-02-05T13:57:31Z</time>
      </trkpt>
      <trkpt lat="43.28468" lon="2.60772">
        <ele>101.589</ele>
        <time>2021-02-05T13:57:51Z</time>
      </trkpt>
      <trkpt lat="43.28476" lon="2.6075">
        <ele>102.375</ele>
        <time>2021-02-05T13:58:11Z</time>
      </trkpt>
      <trkpt lat="43.28513" lon="2.60411">
        <ele>99.316</ele>
        <time>2021-02-05T13:58:31Z</time>
      </trkpt>
      <trkpt lat="43.28546" lon="2.60334">
        <ele>99.278</ele>
        <time>2021-02-05T13:58:51Z</time>
      </trkpt>
      <trkpt lat="43.28564" lon="2.60281">
        <ele>99.681</ele>
        <time>2021-02-05T13:59:11Z</time>
      </trkpt>
      <trkpt lat="43.28615" lon="2.60205">
        <ele>99.713</ele>
        <time>2021-02-05T13:59:31Z</time>
      </trkpt>
      <trkpt lat="43.28628" lon="2.60149">
        <ele>98.591</ele>
        <time>2021-02-05T13:59:51Z</time>
      </trkpt>
      <trkpt lat="43.28638" lon="2.60057">
        <ele>98.281</ele>
        <time>2021-02-05T14:00:11Z</time>
      </trkpt>
      <trkpt lat="43.28662" lon="2.5994">
        <ele>98.019</ele>
        <time>2021-02-05T14:00:31Z</time>
      </trkpt>
      <trkpt lat="43.28674" lon="2.59917">
        <ele>98.208</ele>
        <time>2021-02-05T14:00:51Z</time>
      </trkpt>
      <trkpt lat="43.28701" lon="2.59901">
        <ele>99.065</ele>
        <time>2021-02-05T14:01:11Z</time>
      </trkpt>
      <trkpt lat="43.28715" lon="2.59887">
        <ele>99.564</ele>
        <time>2021-02-05T14:01:31Z</time>
      </trkpt>
      <trkpt lat="43.2872" lon="2.59862">
        <ele>99.89</ele>
        <time>2021-02-05T14:01:51Z</time>
      </trkpt>
      <trkpt lat="43.2871" lon="2.59853">
        <ele>99.866</ele>
        <time>2021-02-05T14:02:11Z</time>
      </trkpt>
      <trkpt lat="43.28637" lon="2.59688">
        <ele>99.297</ele>
        <time>2021-02-05T14:02:31Z</time>
      </trkpt>
      <trkpt lat="43.28625" lon="2.59623">
        <ele>99.399</ele>
        <time>2021-02-05T14:02:51Z</time>
      </trkpt>
      <trkpt lat="43.28602" lon="2.59525">
        <ele>100.372</ele>
        <time>2021-02-05T14:03:11Z</time>
      </trkpt>
      <trkpt lat="43.28592" lon="2.59419">
        <ele>100.954</ele>
        <time>2021-02-05T14:03:31Z</time>
      </trkpt>
      <trkpt lat="43.28561" lon="2.59281">
        <ele>101.593</ele>
        <time>2021-02-05T14:03:51Z</time>
      </trkpt>
      <trkpt lat="43.28556" lon="2.59196">
        <ele>102.665</ele>
        <time>2021-02-05T14:04:11Z</time>
      </trkpt>
      <trkpt lat="43.28533" lon="2.59135">
        <ele>103.621</ele>
        <time>2021-02-05T14:04:31Z</time>
      </trkpt>
      <trkpt lat="43.28521" lon="2.59084">
        <ele>103.508</ele>
        <time>2021-02-05T14:04:51Z</time>
      </trkpt>
      <trkpt lat="43.28509" lon="2.58896">
        <ele>103.635</ele>
        <time>2021-02-05T14:05:11Z</time>
      </trkpt>
      <trkpt lat="43.28499" lon="2.58823">
        <ele>105.184</ele>
        <time>2021-02-05T14:05:31Z</time>
      </trkpt>
      <trkpt lat="43.28509" lon="2.58777">
        <ele>105.76</ele>
        <time>2021-02-05T14:05:51Z</time>
      </trkpt>
      <trkpt lat="43.28512" lon="2.58744">
        <ele>106.086</ele>
        <time>2021-02-05T14:06:11Z</time>
      </trkpt>
      <trkpt lat="43.28513" lon="2.58704">
        <ele>105.957</ele>
        <time>2021-02-05T14:06:31Z</time>
      </trkpt>
      <trkpt lat="43.28493" lon="2.58627">
        <ele>107.479</ele>
        <time>2021-02-05T14:06:51Z</time>
      </trkpt>
      <trkpt lat="43.28428" lon="2.58637">
        <ele>111.622</ele>
        <time>2021-02-05T14:07:11Z</time>
      </trkpt>
      <trkpt lat="43.28411" lon="2.58648">
        <ele>112.914</ele>
        <time>2021-02-05T14:07:31Z</time>
      </trkpt>
      <trkpt lat="43.28381" lon="2.58652">
        <ele>116.064</ele>
        <time>2021-02-05T14:07:51Z</time>
      </trkpt>
      <trkpt lat="43.28377" lon="2.58639">
        <ele>116.506</ele>
        <time>2021-02-05T14:08:11Z</time>
      </trkpt>
      <trkpt lat="43.28396" lon="2.58617">
        <ele>114.716</ele>
        <time>2021-02-05T14:08:31Z</time>
      </trkpt>
      <trkpt lat="43.28404" lon="2.58617">
        <ele>113.908</ele>
        <time>2021-02-05T14:08:51Z</time>
      </trkpt>
      <trkpt lat="43.28407" lon="2.58606">
        <ele>113.712</ele>
        <time>2021-02-05T14:09:11Z</time>
      </trkpt>
      <trkpt lat="43.28389" lon="2.58544">
        <ele>115.721</ele>
        <time>2021-02-05T14:09:31Z</time>
      </trkpt>
      <trkpt lat="43.28352" lon="2.58525">
        <ele>119.217</ele>
        <time>2021-02-05T14:09:51Z</time>
      </trkpt>
      <trkpt lat="43.28296" lon="2.58486">
        <ele>121.413</ele>
        <time>2021-02-05T14:10:11Z</time>
      </trkpt>
      <trkpt lat="43.28344" lon="2.58424">
        <ele>119.374</ele>
        <time>2021-02-05T14:10:31Z</time>
      </trkpt>
      <trkpt lat="43.28349" lon="2.58397">
        <ele>118.736</ele>
        <time>2021-02-05T14:10:51Z</time>
      </trkpt>
      <trkpt lat="43.28368" lon="2.58338">
        <ele>116.949</ele>
        <time>2021-02-05T14:11:11Z</time>
      </trkpt>
      <trkpt lat="43.28377" lon="2.5828">
        <ele>116.641</ele>
        <time>2021-02-05T14:11:31Z</time>
      </trkpt>
      <trkpt lat="43.28419" lon="2.58135">
        <ele>114.883</ele>
        <time>2021-02-05T14:11:51Z</time>
      </trkpt>
      <trkpt lat="43.28475" lon="2.57923">
        <ele>111.925</ele>
        <time>2021-02-05T14:12:11Z</time>
      </trkpt>
      <trkpt lat="43.28497" lon="2.57843">
        <ele>114.517</ele>
        <time>2021-02-05T14:12:31Z</time>
      </trkpt>
      <trkpt lat="43.28537" lon="2.57761">
        <ele>115.008</ele>
        <time>2021-02-05T14:12:51Z</time>
      </trkpt>
      <trkpt lat="43.28592" lon="2.57666">
        <ele>113.084</ele>
        <time>2021-02-05T14:13:11Z</time>
      </trkpt>
      <trkpt lat="43.28615" lon="2.57642">
        <ele>113.663</ele>
        <time>2021-02-05T14:13:31Z</time>
      </trkpt>
      <trkpt lat="43.28662" lon="2.57608">
        <ele>113.199</ele>
        <time>2021-02-05T14:13:51Z</time>
      </trkpt>
      <trkpt lat="43.28663" lon="2.57584">
        <ele>113.185</ele>
        <time>2021-02-05T14:14:11Z</time>
      </trkpt>
      <trkpt lat="43.28666" lon="2.57568">
        <ele>114.116</ele>
        <time>2021-02-05T14:14:31Z</time>
      </trkpt>
      <trkpt lat="43.28744" lon="2.57489">
        <ele>118.038</ele>
        <time>2021-02-05T14:14:51Z</time>
      </trkpt>
      <trkpt lat="43.28842" lon="2.57331">
        <ele>121.631</ele>
        <time>2021-02-05T14:15:11Z</time>
      </trkpt>
      <trkpt lat="43.2888" lon="2.57285">
        <ele>120.983</ele>
        <time>2021-02-05T14:15:31Z</time>
      </trkpt>
      <trkpt lat="43.28908" lon="2.5722">
        <ele>120.161</ele>
        <time>2021-02-05T14:15:51Z</time>
      </trkpt>
      <trkpt lat="43.28925" lon="2.57205">
        <ele>119.621</ele>
        <time>2021-02-05T14:16:11Z</time>
      </trkpt>
      <trkpt lat="43.29022" lon="2.57058">
        <ele>121.113</ele>
        <time>2021-02-05T14:16:31Z</time>
      </trkpt>
      <trkpt lat="43.29039" lon="2.57022">
        <ele>120.808</ele>
        <time>2021-02-05T14:16:51Z</time>
      </trkpt>
      <trkpt lat="43.29041" lon="2.56977">
        <ele>121.932</ele>
        <time>2021-02-05T14:17:11Z</time>
      </trkpt>
      <trkpt lat="43.29037" lon="2.5694">
        <ele>124.291</ele>
        <time>2021-02-05T14:17:31Z</time>
      </trkpt>
      <trkpt lat="43.29042" lon="2.56882">
        <ele>127.667</ele>
        <time>2021-02-05T14:17:51Z</time>
      </trkpt>
      <trkpt lat="43.29059" lon="2.56862">
        <ele>128.613</ele>
        <time>2021-02-05T14:18:11Z</time>
      </trkpt>
      <trkpt lat="43.29064" lon="2.56845">
        <ele>129.534</ele>
        <time>2021-02-05T14:18:31Z</time>
      </trkpt>
      <trkpt lat="43.2908" lon="2.5685">
        <ele>129.046</ele>
        <time>2021-02-05T14:18:51Z</time>
      </trkpt>
      <trkpt lat="43.2911" lon="2.56892">
        <ele>126.239</ele>
        <time>2021-02-05T14:19:11Z</time>
      </trkpt>
      <trkpt lat="43.2912" lon="2.56893">
        <ele>126.061</ele>
        <time>2021-02-05T14:19:31Z</time>
      </trkpt>
      <trkpt lat="43.29145" lon="2.56917">
        <ele>124.227</ele>
        <time>2021-02-05T14:19:51Z</time>
      </trkpt>
      <trkpt lat="43.29169" lon="2.56884">
        <ele>125.968</ele>
        <time>2021-02-05T14:20:11Z</time>
      </trkpt>
      <trkpt lat="43.29196" lon="2.56858">
        <ele>125.914</ele>
        <time>2021-02-05T14:20:31Z</time>
      </trkpt>
      <trkpt lat="43.29214" lon="2.56812">
        <ele>126.308</ele>
        <time>2021-02-05T14:20:51Z</time>
      </trkpt>
      <trkpt lat="43.29223" lon="2.56752">
        <ele>127.578</ele>
        <time>2021-02-05T14:21:11Z</time>
      </trkpt>
      <trkpt lat="43.29213" lon="2.56733">
        <ele>128.817</ele>
        <time>2021-02-05T14:21:31Z</time>
      </trkpt>
      <trkpt lat="43.29196" lon="2.56671">
        <ele>131.173</ele>
        <time>2021-02-05T14:21:51Z</time>
      </trkpt>
      <trkpt lat="43.29178" lon="2.56645">
        <ele>133.159</ele>
        <time>2021-02-05T14:22:11Z</time>
      </trkpt>
      <trkpt lat="43.29105" lon="2.56597">
        <ele>136.97</ele>
        <time>2021-02-05T14:22:31Z</time>
      </trkpt>
      <trkpt lat="43.29112" lon="2.56397">
        <ele>137.262</ele>
        <time>2021-02-05T14:22:51Z</time>
      </trkpt>
      <trkpt lat="43.29099" lon="2.56286">
        <ele>137.795</ele>
        <time>2021-02-05T14:23:11Z</time>
      </trkpt>
      <trkpt lat="43.291" lon="2.56181">
        <ele>138.967</ele>
        <time>2021-02-05T14:23:31Z</time>
      </trkpt>
      <trkpt lat="43.28945" lon="2.56033">
        <ele>132.769</ele>
        <time>2021-02-05T14:23:51Z</time>
      </trkpt>
      <trkpt lat="43.28845" lon="2.55981">
        <ele>124.804</ele>
        <time>2021-02-05T14:24:11Z</time>
      </trkpt>
      <trkpt lat="43.28614" lon="2.55921">
        <ele>114.024</ele>
        <time>2021-02-05T14:24:31Z</time>
      </trkpt>
      <trkpt lat="43.2857" lon="2.55899">
        <ele>113.808</ele>
        <time>2021-02-05T14:24:51Z</time>
      </trkpt>
      <trkpt lat="43.28395" lon="2.55648">
        <ele>121.962</ele>
        <time>2021-02-05T14:25:11Z</time>
      </trkpt>
      <trkpt lat="43.28343" lon="2.5565">
        <ele>126.491</ele>
        <time>2021-02-05T14:25:31Z</time>
      </trkpt>
      <trkpt lat="43.28201" lon="2.55587">
        <ele>137.747</ele>
        <time>2021-02-05T14:25:51Z</time>
      </trkpt>
      <trkpt lat="43.28123" lon="2.5558">
        <ele>144.313</ele>
        <time>2021-02-05T14:26:11Z</time>
      </trkpt>
      <trkpt lat="43.27935" lon="2.55489">
        <ele>155.724</ele>
        <time>2021-02-05T14:26:31Z</time>
      </trkpt>
      <trkpt lat="43.27868" lon="2.55467">
        <ele>156.046</ele>
        <time>2021-02-05T14:26:51Z</time>
      </trkpt>
      <trkpt lat="43.27746" lon="2.55374">
        <ele>162.029</ele>
        <time>2021-02-05T14:27:11Z</time>
      </trkpt>
      <trkpt lat="43.27708" lon="2.55327">
        <ele>160.171</ele>
        <time>2021-02-05T14:27:31Z</time>
      </trkpt>
      <trkpt lat="43.27659" lon="2.55332">
        <ele>157.448</ele>
        <time>2021-02-05T14:27:51Z</time>
      </trkpt>
      <trkpt lat="43.27614" lon="2.55271">
        <ele>148.261</ele>
        <time>2021-02-05T14:28:11Z</time>
      </trkpt>
      <trkpt lat="43.27187" lon="2.55114">
        <ele>115.117</ele>
        <time>2021-02-05T14:28:31Z</time>
      </trkpt>
      <trkpt lat="43.26989" lon="2.55198">
        <ele>102.108</ele>
        <time>2021-02-05T14:28:51Z</time>
      </trkpt>
      <trkpt lat="43.26914" lon="2.55198">
        <ele>97.22</ele>
        <time>2021-02-05T14:29:11Z</time>
      </trkpt>
      <trkpt lat="43.26867" lon="2.55263">
        <ele>95.429</ele>
        <time>2021-02-05T14:29:31Z</time>
      </trkpt>
      <trkpt lat="43.26829" lon="2.55397">
        <ele>92.535</ele>
        <time>2021-02-05T14:29:51Z</time>
      </trkpt>
      <trkpt lat="43.26613" lon="2.55287">
        <ele>85.141</ele>
        <time>2021-02-05T14:30:11Z</time>
      </trkpt>
      <trkpt lat="43.26443" lon="2.55273">
        <ele>82.362</ele>
        <time>2021-02-05T14:30:31Z</time>
      </trkpt>
      <trkpt lat="43.2609" lon="2.55393">
        <ele>69.014</ele>
        <time>2021-02-05T14:30:51Z</time>
      </trkpt>
      <trkpt lat="43.26118" lon="2.55188">
        <ele>73.047</ele>
        <time>2021-02-05T14:31:11Z</time>
      </trkpt>
      <trkpt lat="43.25954" lon="2.55064">
        <ele>63.369</ele>
        <time>2021-02-05T14:31:31Z</time>
      </trkpt>
      <trkpt lat="43.25888" lon="2.55057">
        <ele>61.592</ele>
        <time>2021-02-05T14:31:51Z</time>
      </trkpt>
      <trkpt lat="43.25808" lon="2.55083">
        <ele>60.773</ele>
        <time>2021-02-05T14:32:11Z</time>
      </trkpt>
      <trkpt lat="43.25722" lon="2.5508">
        <ele>60.72</ele>
        <time>2021-02-05T14:32:31Z</time>
      </trkpt>
      <trkpt lat="43.25528" lon="2.55024">
        <ele>60.008</ele>
        <time>2021-02-05T14:32:51Z</time>
      </trkpt>
      <trkpt lat="43.25449" lon="2.54942">
        <ele>60.435</ele>
        <time>2021-02-05T14:33:11Z</time>
      </trkpt>
      <trkpt lat="43.25411" lon="2.54911">
        <ele>60.184</ele>
        <time>2021-02-05T14:33:31Z</time>
      </trkpt>
      <trkpt lat="43.2542" lon="2.54884">
        <ele>60.48</ele>
        <time>2021-02-05T14:33:51Z</time>
      </trkpt>
      <trkpt lat="43.25386" lon="2.54726">
        <ele>61.346</ele>
        <time>2021-02-05T14:34:11Z</time>
      </trkpt>
      <trkpt lat="43.25358" lon="2.54689">
        <ele>61.257</ele>
        <time>2021-02-05T14:34:31Z</time>
      </trkpt>
      <trkpt lat="43.25317" lon="2.54496">
        <ele>61.049</ele>
        <time>2021-02-05T14:34:51Z</time>
      </trkpt>
      <trkpt lat="43.25284" lon="2.54433">
        <ele>61.142</ele>
        <time>2021-02-05T14:35:11Z</time>
      </trkpt>
      <trkpt lat="43.25213" lon="2.54156">
        <ele>63.764</ele>
        <time>2021-02-05T14:35:31Z</time>
      </trkpt>
      <trkpt lat="43.25176" lon="2.53943">
        <ele>63.447</ele>
        <time>2021-02-05T14:35:51Z</time>
      </trkpt>
      <trkpt lat="43.25164" lon="2.53811">
        <ele>63.629</ele>
        <time>2021-02-05T14:36:11Z</time>
      </trkpt>
      <trkpt lat="43.25085" lon="2.53652">
        <ele>65.221</ele>
        <time>2021-02-05T14:36:31Z</time>
      </trkpt>
      <trkpt lat="43.25054" lon="2.53499">
        <ele>65.608</ele>
        <time>2021-02-05T14:36:51Z</time>
      </trkpt>
      <trkpt lat="43.2501" lon="2.53422">
        <ele>64.18</ele>
        <time>2021-02-05T14:37:11Z</time>
      </trkpt>
      <trkpt lat="43.25019" lon="2.53277">
        <ele>64.969</ele>
        <time>2021-02-05T14:37:31Z</time>
      </trkpt>
      <trkpt lat="43.25001" lon="2.53138">
        <ele>64.045</ele>
        <time>2021-02-05T14:37:51Z</time>
      </trkpt>
      <trkpt lat="43.24966" lon="2.53035">
        <ele>65.221</ele>
        <time>2021-02-05T14:38:11Z</time>
      </trkpt>
      <trkpt lat="43.24973" lon="2.52798">
        <ele>69.152</ele>
        <time>2021-02-05T14:38:31Z</time>
      </trkpt>
      <trkpt lat="43.24954" lon="2.52633">
        <ele>71.164</ele>
        <time>2021-02-05T14:38:51Z</time>
      </trkpt>
      <trkpt lat="43.24959" lon="2.52601">
        <ele>71.087</ele>
        <time>2021-02-05T14:39:11Z</time>
      </trkpt>
      <trkpt lat="43.24941" lon="2.52547">
        <ele>71.719</ele>
        <time>2021-02-05T14:39:31Z</time>
      </trkpt>
      <trkpt lat="43.24939" lon="2.52165">
        <ele>77.167</ele>
        <time>2021-02-05T14:39:51Z</time>
      </trkpt>
      <trkpt lat="43.24914" lon="2.52134">
        <ele>76.881</ele>
        <time>2021-02-05T14:40:11Z</time>
      </trkpt>
      <trkpt lat="43.24903" lon="2.52056">
        <ele>79.419</ele>
        <time>2021-02-05T14:40:31Z</time>
      </trkpt>
      <trkpt lat="43.24901" lon="2.51618">
        <ele>89.708</ele>
        <time>2021-02-05T14:40:51Z</time>
      </trkpt>
      <trkpt lat="43.24915" lon="2.50809">
        <ele>93.972</ele>
        <time>2021-02-05T14:41:11Z</time>
      </trkpt>
      <trkpt lat="43.24914" lon="2.50686">
        <ele>93.991</ele>
        <time>2021-02-05T14:41:31Z</time>
      </trkpt>
      <trkpt lat="43.24949" lon="2.50517">
        <ele>91.087</ele>
        <time>2021-02-05T14:41:51Z</time>
      </trkpt>
      <trkpt lat="43.24958" lon="2.50382">
        <ele>88.093</ele>
        <time>2021-02-05T14:42:11Z</time>
      </trkpt>
      <trkpt lat="43.25016" lon="2.50023">
        <ele>103.914</ele>
        <time>2021-02-05T14:42:31Z</time>
      </trkpt>
      <trkpt lat="43.25117" lon="2.50037">
        <ele>103.686</ele>
        <time>2021-02-05T14:42:51Z</time>
      </trkpt>
      <trkpt lat="43.25211" lon="2.5003">
        <ele>97.269</ele>
        <time>2021-02-05T14:43:11Z</time>
      </trkpt>
      <trkpt lat="43.25316" lon="2.50074">
        <ele>90.511</ele>
        <time>2021-02-05T14:43:31Z</time>
      </trkpt>
      <trkpt lat="43.25374" lon="2.50027">
        <ele>91.795</ele>
        <time>2021-02-05T14:43:51Z</time>
      </trkpt>
      <trkpt lat="43.25434" lon="2.50018">
        <ele>92.649</ele>
        <time>2021-02-05T14:44:11Z</time>
      </trkpt>
      <trkpt lat="43.25527" lon="2.49914">
        <ele>96.323</ele>
        <time>2021-02-05T14:44:31Z</time>
      </trkpt>
      <trkpt lat="43.25513" lon="2.49786">
        <ele>96.708</ele>
        <time>2021-02-05T14:44:51Z</time>
      </trkpt>
      <trkpt lat="43.25435" lon="2.49504">
        <ele>98.135</ele>
        <time>2021-02-05T14:45:11Z</time>
      </trkpt>
      <trkpt lat="43.25426" lon="2.49361">
        <ele>98.064</ele>
        <time>2021-02-05T14:45:31Z</time>
      </trkpt>
      <trkpt lat="43.25449" lon="2.49352">
        <ele>99.78</ele>
        <time>2021-02-05T14:45:51Z</time>
      </trkpt>
      <trkpt lat="43.25461" lon="2.49234">
        <ele>101.576</ele>
        <time>2021-02-05T14:46:11Z</time>
      </trkpt>
      <trkpt lat="43.25515" lon="2.49164">
        <ele>103.317</ele>
        <time>2021-02-05T14:46:31Z</time>
      </trkpt>
      <trkpt lat="43.2557" lon="2.49077">
        <ele>105.599</ele>
        <time>2021-02-05T14:46:51Z</time>
      </trkpt>
      <trkpt lat="43.25609" lon="2.49033">
        <ele>109.042</ele>
        <time>2021-02-05T14:47:11Z</time>
      </trkpt>
      <trkpt lat="43.25635" lon="2.48936">
        <ele>115.444</ele>
        <time>2021-02-05T14:47:31Z</time>
      </trkpt>
      <trkpt lat="43.25674" lon="2.48945">
        <ele>119.554</ele>
        <time>2021-02-05T14:47:51Z</time>
      </trkpt>
      <trkpt lat="43.25718" lon="2.48939">
        <ele>122.756</ele>
        <time>2021-02-05T14:48:11Z</time>
      </trkpt>
      <trkpt lat="43.25781" lon="2.48725">
        <ele>126.111</ele>
        <time>2021-02-05T14:48:31Z</time>
      </trkpt>
      <trkpt lat="43.25786" lon="2.48619">
        <ele>127.208</ele>
        <time>2021-02-05T14:48:51Z</time>
      </trkpt>
      <trkpt lat="43.25812" lon="2.4846">
        <ele>128.161</ele>
        <time>2021-02-05T14:49:11Z</time>
      </trkpt>
      <trkpt lat="43.25859" lon="2.48279">
        <ele>132.33</ele>
        <time>2021-02-05T14:49:31Z</time>
      </trkpt>
      <trkpt lat="43.2583" lon="2.48246">
        <ele>131.966</ele>
        <time>2021-02-05T14:49:51Z</time>
      </trkpt>
      <trkpt lat="43.25819" lon="2.48165">
        <ele>131.762</ele>
        <time>2021-02-05T14:50:11Z</time>
      </trkpt>
      <trkpt lat="43.25836" lon="2.47974">
        <ele>140.123</ele>
        <time>2021-02-05T14:50:31Z</time>
      </trkpt>
      <trkpt lat="43.25863" lon="2.47894">
        <ele>146.065</ele>
        <time>2021-02-05T14:50:51Z</time>
      </trkpt>
      <trkpt lat="43.25866" lon="2.47819">
        <ele>150.458</ele>
        <time>2021-02-05T14:51:11Z</time>
      </trkpt>
      <trkpt lat="43.25929" lon="2.47542">
        <ele>164.53</ele>
        <time>2021-02-05T14:51:31Z</time>
      </trkpt>
      <trkpt lat="43.25946" lon="2.47357">
        <ele>185.248</ele>
        <time>2021-02-05T14:51:51Z</time>
      </trkpt>
      <trkpt lat="43.25993" lon="2.4725">
        <ele>194.761</ele>
        <time>2021-02-05T14:52:11Z</time>
      </trkpt>
      <trkpt lat="43.2597" lon="2.47181">
        <ele>194.217</ele>
        <time>2021-02-05T14:52:31Z</time>
      </trkpt>
      <trkpt lat="43.2593" lon="2.4712">
        <ele>192.908</ele>
        <time>2021-02-05T14:52:51Z</time>
      </trkpt>
      <trkpt lat="43.25905" lon="2.47108">
        <ele>192.13</ele>
        <time>2021-02-05T14:53:11Z</time>
      </trkpt>
      <trkpt lat="43.25874" lon="2.47148">
        <ele>191.979</ele>
        <time>2021-02-05T14:53:31Z</time>
      </trkpt>
      <trkpt lat="43.25803" lon="2.47177">
        <ele>189.975</ele>
        <time>2021-02-05T14:53:51Z</time>
      </trkpt>
      <trkpt lat="43.25727" lon="2.47189">
        <ele>188.081</ele>
        <time>2021-02-05T14:54:11Z</time>
      </trkpt>
      <trkpt lat="43.2566" lon="2.47132">
        <ele>183.222</ele>
        <time>2021-02-05T14:54:31Z</time>
      </trkpt>
      <trkpt lat="43.256" lon="2.47113">
        <ele>179.824</ele>
        <time>2021-02-05T14:54:51Z</time>
      </trkpt>
      <trkpt lat="43.2555" lon="2.47045">
        <ele>180.327</ele>
        <time>2021-02-05T14:55:11Z</time>
      </trkpt>
      <trkpt lat="43.25542" lon="2.46986">
        <ele>180.989</ele>
        <time>2021-02-05T14:55:31Z</time>
      </trkpt>
      <trkpt lat="43.25478" lon="2.46909">
        <ele>178.932</ele>
        <time>2021-02-05T14:55:51Z</time>
      </trkpt>
      <trkpt lat="43.25476" lon="2.46757">
        <ele>177.792</ele>
        <time>2021-02-05T14:56:11Z</time>
      </trkpt>
      <trkpt lat="43.25491" lon="2.46646">
        <ele>175.511</ele>
        <time>2021-02-05T14:56:31Z</time>
      </trkpt>
      <trkpt lat="43.25457" lon="2.46538">
        <ele>174.008</ele>
        <time>2021-02-05T14:56:51Z</time>
      </trkpt>
      <trkpt lat="43.25451" lon="2.46463">
        <ele>173.879</ele>
        <time>2021-02-05T14:57:11Z</time>
      </trkpt>
      <trkpt lat="43.25374" lon="2.46308">
        <ele>171.848</ele>
        <time>2021-02-05T14:57:31Z</time>
      </trkpt>
      <trkpt lat="43.25273" lon="2.46138">
        <ele>168.244</ele>
        <time>2021-02-05T14:57:51Z</time>
      </trkpt>
      <trkpt lat="43.25235" lon="2.46051">
        <ele>167.08</ele>
        <time>2021-02-05T14:58:11Z</time>
      </trkpt>
      <trkpt lat="43.252" lon="2.45872">
        <ele>163.121</ele>
        <time>2021-02-05T14:58:31Z</time>
      </trkpt>
      <trkpt lat="43.2518" lon="2.45813">
        <ele>161.823</ele>
        <time>2021-02-05T14:58:51Z</time>
      </trkpt>
      <trkpt lat="43.25115" lon="2.45544">
        <ele>156.686</ele>
        <time>2021-02-05T14:59:11Z</time>
      </trkpt>
      <trkpt lat="43.25095" lon="2.45171">
        <ele>154.188</ele>
        <time>2021-02-05T14:59:31Z</time>
      </trkpt>
      <trkpt lat="43.25077" lon="2.45094">
        <ele>153.666</ele>
        <time>2021-02-05T14:59:51Z</time>
      </trkpt>
      <trkpt lat="43.25072" lon="2.45018">
        <ele>152.029</ele>
        <time>2021-02-05T15:00:11Z</time>
      </trkpt>
      <trkpt lat="43.2502" lon="2.44931">
        <ele>149.921</ele>
        <time>2021-02-05T15:00:31Z</time>
      </trkpt>
      <trkpt lat="43.24945" lon="2.44898">
        <ele>145.308</ele>
        <time>2021-02-05T15:00:51Z</time>
      </trkpt>
      <trkpt lat="43.24898" lon="2.44997">
        <ele>142.472</ele>
        <time>2021-02-05T15:01:11Z</time>
      </trkpt>
      <trkpt lat="43.24841" lon="2.45272">
        <ele>142.611</ele>
        <time>2021-02-05T15:01:31Z</time>
      </trkpt>
      <trkpt lat="43.24723" lon="2.45415">
        <ele>139.017</ele>
        <time>2021-02-05T15:01:51Z</time>
      </trkpt>
      <trkpt lat="43.24491" lon="2.45412">
        <ele>131.863</ele>
        <time>2021-02-05T15:02:11Z</time>
      </trkpt>
      <trkpt lat="43.24422" lon="2.45037">
        <ele>126.034</ele>
        <time>2021-02-05T15:02:31Z</time>
      </trkpt>
      <trkpt lat="43.24389" lon="2.44959">
        <ele>124.756</ele>
        <time>2021-02-05T15:02:51Z</time>
      </trkpt>
      <trkpt lat="43.2438" lon="2.44779">
        <ele>125.329</ele>
        <time>2021-02-05T15:03:11Z</time>
      </trkpt>
      <trkpt lat="43.24363" lon="2.44666">
        <ele>124.381</ele>
        <time>2021-02-05T15:03:31Z</time>
      </trkpt>
      <trkpt lat="43.24361" lon="2.44441">
        <ele>125.928</ele>
        <time>2021-02-05T15:03:51Z</time>
      </trkpt>
      <trkpt lat="43.24389" lon="2.44195">
        <ele>121.289</ele>
        <time>2021-02-05T15:04:11Z</time>
      </trkpt>
      <trkpt lat="43.24359" lon="2.43963">
        <ele>114.217</ele>
        <time>2021-02-05T15:04:31Z</time>
      </trkpt>
      <trkpt lat="43.24341" lon="2.43615">
        <ele>102.308</ele>
        <time>2021-02-05T15:04:51Z</time>
      </trkpt>
      <trkpt lat="43.24441" lon="2.43632">
        <ele>103.258</ele>
        <time>2021-02-05T15:05:11Z</time>
      </trkpt>
      <trkpt lat="43.24384" lon="2.43597">
        <ele>102.917</ele>
        <time>2021-02-05T15:05:31Z</time>
      </trkpt>
      <trkpt lat="43.24313" lon="2.43425">
        <ele>100.743</ele>
        <time>2021-02-05T15:05:51Z</time>
      </trkpt>
      <trkpt lat="43.24206" lon="2.43214">
        <ele>101.069</ele>
        <time>2021-02-05T15:06:11Z</time>
      </trkpt>
      <trkpt lat="43.24148" lon="2.43169">
        <ele>99.56</ele>
        <time>2021-02-05T15:06:31Z</time>
      </trkpt>
      <trkpt lat="43.2405" lon="2.43155">
        <ele>98.392</ele>
        <time>2021-02-05T15:06:51Z</time>
      </trkpt>
      <trkpt lat="43.24211" lon="2.42912">
        <ele>106.485</ele>
        <time>2021-02-05T15:07:11Z</time>
      </trkpt>
      <trkpt lat="43.2393" lon="2.42651">
        <ele>110.347</ele>
        <time>2021-02-05T15:07:31Z</time>
      </trkpt>
      <trkpt lat="43.23985" lon="2.42602">
        <ele>108.291</ele>
        <time>2021-02-05T15:07:51Z</time>
      </trkpt>
      <trkpt lat="43.24025" lon="2.42522">
        <ele>113.581</ele>
        <time>2021-02-05T15:08:11Z</time>
      </trkpt>
      <trkpt lat="43.24015" lon="2.42208">
        <ele>124.519</ele>
        <time>2021-02-05T15:08:31Z</time>
      </trkpt>
      <trkpt lat="43.23982" lon="2.42017">
        <ele>118.008</ele>
        <time>2021-02-05T15:08:51Z</time>
      </trkpt>
      <trkpt lat="43.23987" lon="2.41825">
        <ele>112.985</ele>
        <time>2021-02-05T15:09:11Z</time>
      </trkpt>
      <trkpt lat="43.2394" lon="2.41382">
        <ele>112.534</ele>
        <time>2021-02-05T15:09:31Z</time>
      </trkpt>
      <trkpt lat="43.23937" lon="2.41236">
        <ele>110.53</ele>
        <time>2021-02-05T15:09:51Z</time>
      </trkpt>
      <trkpt lat="43.23908" lon="2.41222">
        <ele>107.926</ele>
        <time>2021-02-05T15:10:11Z</time>
      </trkpt>
      <trkpt lat="43.23827" lon="2.41229">
        <ele>103.757</ele>
        <time>2021-02-05T15:10:31Z</time>
      </trkpt>
      <trkpt lat="43.23669" lon="2.41459">
        <ele>96.689</ele>
        <time>2021-02-05T15:10:51Z</time>
      </trkpt>
      <trkpt lat="43.23611" lon="2.41494">
        <ele>95.612</ele>
        <time>2021-02-05T15:11:11Z</time>
      </trkpt>
      <trkpt lat="43.2354" lon="2.41335">
        <ele>93.524</ele>
        <time>2021-02-05T15:11:31Z</time>
      </trkpt>
      <trkpt lat="43.23794" lon="2.4114">
        <ele>97.542</ele>
        <time>2021-02-05T15:11:51Z</time>
      </trkpt>
      <trkpt lat="43.23866" lon="2.41063">
        <ele>96.622</ele>
        <time>2021-02-05T15:12:11Z</time>
      </trkpt>
      <trkpt lat="43.24035" lon="2.40765">
        <ele>95.914</ele>
        <time>2021-02-05T15:12:31Z</time>
      </trkpt>
      <trkpt lat="43.24236" lon="2.40601">
        <ele>96.808</ele>
        <time>2021-02-05T15:12:51Z</time>
      </trkpt>
      <trkpt lat="43.24257" lon="2.40486">
        <ele>95.33</ele>
        <time>2021-02-05T15:13:11Z</time>
      </trkpt>
      <trkpt lat="43.2426" lon="2.40335">
        <ele>96.029</ele>
        <time>2021-02-05T15:13:31Z</time>
      </trkpt>
      <trkpt lat="43.24309" lon="2.40021">
        <ele>94.825</ele>
        <time>2021-02-05T15:13:51Z</time>
      </trkpt>
      <trkpt lat="43.24387" lon="2.39686">
        <ele>97.741</ele>
        <time>2021-02-05T15:14:11Z</time>
      </trkpt>
      <trkpt lat="43.24377" lon="2.3959">
        <ele>96.192</ele>
        <time>2021-02-05T15:14:31Z</time>
      </trkpt>
      <trkpt lat="43.24256" lon="2.39423">
        <ele>96.024</ele>
        <time>2021-02-05T15:14:51Z</time>
      </trkpt>
      <trkpt lat="43.24219" lon="2.3916">
        <ele>97.777</ele>
        <time>2021-02-05T15:15:11Z</time>
      </trkpt>
      <trkpt lat="43.24242" lon="2.38947">
        <ele>96.259</ele>
        <time>2021-02-05T15:15:31Z</time>
      </trkpt>
      <trkpt lat="43.24318" lon="2.38811">
        <ele>96.828</ele>
        <time>2021-02-05T15:15:51Z</time>
      </trkpt>
      <trkpt lat="43.24351" lon="2.38681">
        <ele>98.989</ele>
        <time>2021-02-05T15:16:11Z</time>
      </trkpt>
      <trkpt lat="43.24347" lon="2.38513">
        <ele>97.917</ele>
        <time>2021-02-05T15:16:31Z</time>
      </trkpt>
      <trkpt lat="43.24323" lon="2.38402">
        <ele>98.008</ele>
        <time>2021-02-05T15:16:51Z</time>
      </trkpt>
      <trkpt lat="43.24095" lon="2.38039">
        <ele>98.288</ele>
        <time>2021-02-05T15:17:11Z</time>
      </trkpt>
      <trkpt lat="43.23737" lon="2.37272">
        <ele>101.717</ele>
        <time>2021-02-05T15:17:31Z</time>
      </trkpt>
      <trkpt lat="43.23681" lon="2.37248">
        <ele>102.133</ele>
        <time>2021-02-05T15:17:51Z</time>
      </trkpt>
      <trkpt lat="43.23013" lon="2.37548">
        <ele>105.239</ele>
        <time>2021-02-05T15:18:11Z</time>
      </trkpt>
      <trkpt lat="43.22948" lon="2.37527">
        <ele>105.51</ele>
        <time>2021-02-05T15:18:31Z</time>
      </trkpt>
      <trkpt lat="43.22845" lon="2.37436">
        <ele>105.392</ele>
        <time>2021-02-05T15:18:51Z</time>
      </trkpt>
      <trkpt lat="43.22793" lon="2.37333">
        <ele>106.245</ele>
        <time>2021-02-05T15:19:11Z</time>
      </trkpt>
      <trkpt lat="43.22745" lon="2.36981">
        <ele>106.937</ele>
        <time>2021-02-05T15:19:31Z</time>
      </trkpt>
      <trkpt lat="43.22684" lon="2.36898">
        <ele>105.993</ele>
        <time>2021-02-05T15:19:51Z</time>
      </trkpt>
      <trkpt lat="43.22486" lon="2.36842">
        <ele>102.665</ele>
        <time>2021-02-05T15:20:11Z</time>
      </trkpt>
      <trkpt lat="43.22421" lon="2.36762">
        <ele>102.021</ele>
        <time>2021-02-05T15:20:31Z</time>
      </trkpt>
      <trkpt lat="43.22383" lon="2.36638">
        <ele>104.908</ele>
        <time>2021-02-05T15:20:51Z</time>
      </trkpt>
      <trkpt lat="43.22394" lon="2.36295">
        <ele>114.895</ele>
        <time>2021-02-05T15:21:11Z</time>
      </trkpt>
      <trkpt lat="43.22243" lon="2.35739">
        <ele>111.124</ele>
        <time>2021-02-05T15:21:31Z</time>
      </trkpt>
      <trkpt lat="43.22203" lon="2.35657">
        <ele>111.47</ele>
        <time>2021-02-05T15:21:51Z</time>
      </trkpt>
      <trkpt lat="43.21782" lon="2.35352">
        <ele>107.296</ele>
        <time>2021-02-05T15:22:11Z</time>
      </trkpt>
      <trkpt lat="43.2172" lon="2.35244">
        <ele>110.497</ele>
        <time>2021-02-05T15:22:31Z</time>
      </trkpt>
      <trkpt lat="43.2172" lon="2.35188">
        <ele>109.719</ele>
        <time>2021-02-05T15:22:51Z</time>
      </trkpt>
      <trkpt lat="43.21654" lon="2.35186">
        <ele>112.172</ele>
        <time>2021-02-05T15:23:11Z</time>
      </trkpt>
      <trkpt lat="43.21655" lon="2.35099">
        <ele>112.144</ele>
        <time>2021-02-05T15:23:31Z</time>
      </trkpt>
      <trkpt lat="43.21261" lon="2.35129">
        <ele>115.141</ele>
        <time>2021-02-05T15:23:51Z</time>
      </trkpt>
      <trkpt lat="43.21261" lon="2.35054">
        <ele>116.381</ele>
        <time>2021-02-05T15:24:11Z</time>
      </trkpt>
      <trkpt lat="43.21075" lon="2.35057">
        <ele>115.009</ele>
        <time>2021-02-05T15:24:31Z</time>
      </trkpt>
      <trkpt lat="43.21048" lon="2.35526">
        <ele>108.008</ele>
        <time>2021-02-05T15:24:51Z</time>
      </trkpt>
      <trkpt lat="43.21115" lon="2.35535">
        <ele>108.42</ele>
        <time>2021-02-05T15:25:11Z</time>
      </trkpt>
      <trkpt lat="43.2109" lon="2.35709">
        <ele>107.079</ele>
        <time>2021-02-05T15:25:31Z</time>
      </trkpt>
      <trkpt lat="43.21038" lon="2.35822">
        <ele>100.045</ele>
        <time>2016-04-13T14:31:12Z</time>
      </trkpt>
      <trkpt lat="43.20755" lon="2.35556">
        <ele>100.224</ele>
        <time>2016-04-13T14:31:32Z</time>
      </trkpt>
      <trkpt lat="43.20601" lon="2.35399">
        <ele>100.867</ele>
        <time>2016-04-13T14:31:52Z</time>
      </trkpt>
      <trkpt lat="43.20566" lon="2.35351">
        <ele>101.369</ele>
        <time>2016-04-13T14:32:12Z</time>
      </trkpt>
      <trkpt lat="43.20551" lon="2.35304">
        <ele>101.762</ele>
        <time>2016-04-13T14:32:32Z</time>
      </trkpt>
      <trkpt lat="43.20551" lon="2.35253">
        <ele>104.083</ele>
        <time>2016-04-13T14:32:52Z</time>
      </trkpt>
      <trkpt lat="43.20532" lon="2.35161">
        <ele>102.511</ele>
        <time>2016-04-13T14:33:12Z</time>
      </trkpt>
      <trkpt lat="43.20543" lon="2.35099">
        <ele>105.108</ele>
        <time>2016-04-13T14:33:32Z</time>
      </trkpt>
      <trkpt lat="43.20535" lon="2.35038">
        <ele>105.372</ele>
        <time>2016-04-13T14:33:52Z</time>
      </trkpt>
      <trkpt lat="43.20536" lon="2.34971">
        <ele>105.021</ele>
        <time>2016-04-13T14:34:12Z</time>
      </trkpt>
      <trkpt lat="43.20555" lon="2.34854">
        <ele>105.067</ele>
        <time>2016-04-13T14:34:32Z</time>
      </trkpt>
      <trkpt lat="43.20576" lon="2.34838">
        <ele>105.163</ele>
        <time>2016-04-13T14:34:52Z</time>
      </trkpt>
      <trkpt lat="43.20606" lon="2.34766">
        <ele>105.544</ele>
        <time>2016-04-13T14:35:12Z</time>
      </trkpt>
      <trkpt lat="43.20598" lon="2.34739">
        <ele>105.036</ele>
        <time>2016-04-13T14:35:32Z</time>
      </trkpt>
      <trkpt lat="43.20627" lon="2.34633">
        <ele>105.059</ele>
        <time>2016-04-13T14:35:52Z</time>
      </trkpt>
      <trkpt lat="43.20722" lon="2.34362">
        <ele>105.061</ele>
        <time>2016-04-13T14:36:12Z</time>
      </trkpt>
      <trkpt lat="43.20724" lon="2.34302">
        <ele>105.115</ele>
        <time>2016-04-13T14:36:32Z</time>
      </trkpt>
      <trkpt lat="43.2077" lon="2.34084">
        <ele>106.465</ele>
        <time>2016-04-13T14:36:52Z</time>
      </trkpt>
      <trkpt lat="43.20771" lon="2.33968">
        <ele>106.611</ele>
        <time>2016-04-13T14:37:12Z</time>
      </trkpt>
      <trkpt lat="43.20744" lon="2.33831">
        <ele>106.908</ele>
        <time>2016-04-13T14:37:32Z</time>
      </trkpt>
      <trkpt lat="43.20701" lon="2.33733">
        <ele>106.477</ele>
        <time>2016-04-13T14:37:52Z</time>
      </trkpt>
      <trkpt lat="43.20682" lon="2.3371">
        <ele>106.236</ele>
        <time>2016-04-13T14:38:12Z</time>
      </trkpt>
      <trkpt lat="43.20656" lon="2.33648">
        <ele>107.052</ele>
        <time>2016-04-13T14:38:32Z</time>
      </trkpt>
      <trkpt lat="43.2056" lon="2.33517">
        <ele>106.618</ele>
        <time>2016-04-13T14:38:52Z</time>
      </trkpt>
      <trkpt lat="43.20518" lon="2.33485">
        <ele>106.739</ele>
        <time>2016-04-13T14:39:12Z</time>
      </trkpt>
      <trkpt lat="43.20468" lon="2.33466">
        <ele>106.221</ele>
        <time>2016-04-13T14:39:32Z</time>
      </trkpt>
      <trkpt lat="43.20407" lon="2.33426">
        <ele>106.424</ele>
        <time>2016-04-13T14:39:52Z</time>
      </trkpt>
      <trkpt lat="43.20402" lon="2.33403">
        <ele>106.786</ele>
        <time>2016-04-13T14:40:12Z</time>
      </trkpt>
      <trkpt lat="43.20442" lon="2.33348">
        <ele>109.493</ele>
        <time>2016-04-13T14:40:32Z</time>
      </trkpt>
      <trkpt lat="43.20462" lon="2.3334">
        <ele>109.965</ele>
        <time>2016-04-13T14:40:52Z</time>
      </trkpt>
      <trkpt lat="43.2048" lon="2.33233">
        <ele>111.021</ele>
        <time>2016-04-13T14:41:12Z</time>
      </trkpt>
      <trkpt lat="43.2051" lon="2.33097">
        <ele>112.008</ele>
        <time>2016-04-13T14:41:32Z</time>
      </trkpt>
      <trkpt lat="43.20506" lon="2.33069">
        <ele>112.085</ele>
        <time>2016-04-13T14:41:52Z</time>
      </trkpt>
      <trkpt lat="43.20345" lon="2.32965">
        <ele>112.694</ele>
        <time>2016-04-13T14:42:12Z</time>
      </trkpt>
      <trkpt lat="43.20365" lon="2.32861">
        <ele>112.83</ele>
        <time>2016-04-13T14:42:32Z</time>
      </trkpt>
      <trkpt lat="43.20402" lon="2.32732">
        <ele>112.516</ele>
        <time>2016-04-13T14:42:52Z</time>
      </trkpt>
      <trkpt lat="43.20423" lon="2.32632">
        <ele>112.877</ele>
        <time>2016-04-13T14:43:12Z</time>
      </trkpt>
      <trkpt lat="43.20349" lon="2.32622">
        <ele>116.059</ele>
        <time>2016-04-13T14:43:32Z</time>
      </trkpt>
      <trkpt lat="43.20364" lon="2.32497">
        <ele>118.962</ele>
        <time>2016-04-13T14:43:52Z</time>
      </trkpt>
      <trkpt lat="43.20362" lon="2.32464">
        <ele>120.264</ele>
        <time>2016-04-13T14:44:12Z</time>
      </trkpt>
      <trkpt lat="43.20371" lon="2.32436">
        <ele>119.979</ele>
        <time>2016-04-13T14:44:32Z</time>
      </trkpt>
      <trkpt lat="43.20383" lon="2.3233">
        <ele>120.205</ele>
        <time>2016-04-13T14:44:52Z</time>
      </trkpt>
      <trkpt lat="43.20367" lon="2.32314">
        <ele>120.825</ele>
        <time>2016-04-13T14:45:12Z</time>
      </trkpt>
      <trkpt lat="43.20193" lon="2.32359">
        <ele>140.008</ele>
        <time>2016-04-13T14:45:32Z</time>
      </trkpt>
      <trkpt lat="43.20171" lon="2.32328">
        <ele>140.053</ele>
        <time>2016-04-13T14:45:52Z</time>
      </trkpt>
      <trkpt lat="43.20172" lon="2.32292">
        <ele>140.032</ele>
        <time>2016-04-13T14:46:12Z</time>
      </trkpt>
      <trkpt lat="43.2013" lon="2.32267">
        <ele>139.338</ele>
        <time>2016-04-13T14:46:32Z</time>
      </trkpt>
      <trkpt lat="43.20108" lon="2.32246">
        <ele>140.094</ele>
        <time>2016-04-13T14:46:52Z</time>
      </trkpt>
      <trkpt lat="43.19968" lon="2.3221">
        <ele>139.765</ele>
        <time>2016-04-13T14:47:12Z</time>
      </trkpt>
      <trkpt lat="43.1994" lon="2.32161">
        <ele>136.667</ele>
        <time>2016-04-13T14:47:32Z</time>
      </trkpt>
      <trkpt lat="43.19848" lon="2.32132">
        <ele>132.97</ele>
        <time>2016-04-13T14:47:52Z</time>
      </trkpt>
      <trkpt lat="43.19816" lon="2.32132">
        <ele>132.842</ele>
        <time>2016-04-13T14:48:12Z</time>
      </trkpt>
      <trkpt lat="43.19715" lon="2.32155">
        <ele>132.663</ele>
        <time>2016-04-13T14:48:32Z</time>
      </trkpt>
      <trkpt lat="43.19691" lon="2.3206">
        <ele>131.444</ele>
        <time>2016-04-13T14:48:52Z</time>
      </trkpt>
      <trkpt lat="43.19669" lon="2.31939">
        <ele>132.818</ele>
        <time>2016-04-13T14:49:12Z</time>
      </trkpt>
      <trkpt lat="43.19673" lon="2.31845">
        <ele>132.508</ele>
        <time>2016-04-13T14:49:32Z</time>
      </trkpt>
      <trkpt lat="43.19706" lon="2.31792">
        <ele>130.412</ele>
        <time>2016-04-13T14:49:52Z</time>
      </trkpt>
      <trkpt lat="43.1971" lon="2.31771">
        <ele>130.431</ele>
        <time>2016-04-13T14:50:12Z</time>
      </trkpt>
      <trkpt lat="43.19727" lon="2.31743">
        <ele>129.997</ele>
        <time>2016-04-13T14:50:32Z</time>
      </trkpt>
      <trkpt lat="43.19756" lon="2.31749">
        <ele>129.013</ele>
        <time>2016-04-13T14:50:52Z</time>
      </trkpt>
      <trkpt lat="43.1977" lon="2.31676">
        <ele>129.314</ele>
        <time>2016-04-13T14:51:12Z</time>
      </trkpt>
      <trkpt lat="43.19776" lon="2.31474">
        <ele>128.146</ele>
        <time>2016-04-13T14:51:32Z</time>
      </trkpt>
      <trkpt lat="43.19763" lon="2.31442">
        <ele>129.049</ele>
        <time>2016-04-13T14:51:52Z</time>
      </trkpt>
      <trkpt lat="43.19767" lon="2.31355">
        <ele>130.311</ele>
        <time>2016-04-13T14:52:12Z</time>
      </trkpt>
      <trkpt lat="43.19746" lon="2.31267">
        <ele>134.597</ele>
        <time>2016-04-13T14:52:32Z</time>
      </trkpt>
      <trkpt lat="43.19731" lon="2.31261">
        <ele>135.323</ele>
        <time>2016-04-13T14:52:52Z</time>
      </trkpt>
      <trkpt lat="43.19682" lon="2.31261">
        <ele>137.125</ele>
        <time>2016-04-13T14:53:12Z</time>
      </trkpt>
      <trkpt lat="43.1961" lon="2.31267">
        <ele>138.008</ele>
        <time>2016-04-13T14:53:32Z</time>
      </trkpt>
      <trkpt lat="43.19561" lon="2.31302">
        <ele>138.095</ele>
        <time>2016-04-13T14:53:52Z</time>
      </trkpt>
      <trkpt lat="43.19509" lon="2.31298">
        <ele>139.874</ele>
        <time>2016-04-13T14:54:12Z</time>
      </trkpt>
      <trkpt lat="43.1945" lon="2.31276">
        <ele>138.46</ele>
        <time>2016-04-13T14:54:32Z</time>
      </trkpt>
      <trkpt lat="43.19412" lon="2.31255">
        <ele>134.516</ele>
        <time>2016-04-13T14:54:52Z</time>
      </trkpt>
      <trkpt lat="43.19372" lon="2.3125">
        <ele>130.847</ele>
        <time>2016-04-13T14:55:12Z</time>
      </trkpt>
      <trkpt lat="43.19342" lon="2.31221">
        <ele>128.649</ele>
        <time>2016-04-13T14:55:32Z</time>
      </trkpt>
      <trkpt lat="43.19337" lon="2.31233">
        <ele>128.632</ele>
        <time>2016-04-13T14:55:52Z</time>
      </trkpt>
      <trkpt lat="43.19259" lon="2.31085">
        <ele>123.744</ele>
        <time>2016-04-13T14:56:12Z</time>
      </trkpt>
      <trkpt lat="43.1924" lon="2.31209">
        <ele>123.619</ele>
        <time>2016-04-13T14:56:32Z</time>
      </trkpt>
      <trkpt lat="43.19195" lon="2.31212">
        <ele>121.709</ele>
        <time>2016-04-13T14:56:52Z</time>
      </trkpt>
      <trkpt lat="43.19025" lon="2.31193">
        <ele>120.019</ele>
        <time>2016-04-13T14:57:12Z</time>
      </trkpt>
      <trkpt lat="43.18974" lon="2.31195">
        <ele>120.008</ele>
        <time>2016-04-13T14:57:32Z</time>
      </trkpt>
      <trkpt lat="43.18898" lon="2.31104">
        <ele>120.027</ele>
        <time>2016-04-13T14:57:52Z</time>
      </trkpt>
      <trkpt lat="43.1889" lon="2.31073">
        <ele>120.086</ele>
        <time>2016-04-13T14:58:12Z</time>
      </trkpt>
      <trkpt lat="43.18855" lon="2.31028">
        <ele>120.042</ele>
        <time>2016-04-13T14:58:32Z</time>
      </trkpt>
      <trkpt lat="43.18879" lon="2.30751">
        <ele>132.638</ele>
        <time>2016-04-13T14:58:52Z</time>
      </trkpt>
      <trkpt lat="43.18847" lon="2.30691">
        <ele>137.189</ele>
        <time>2016-04-13T14:59:12Z</time>
      </trkpt>
      <trkpt lat="43.18812" lon="2.30653">
        <ele>136.431</ele>
        <time>2016-04-13T14:59:32Z</time>
      </trkpt>
      <trkpt lat="43.18784" lon="2.3064">
        <ele>134.634</ele>
        <time>2016-04-13T14:59:52Z</time>
      </trkpt>
      <trkpt lat="43.18753" lon="2.3065">
        <ele>132.056</ele>
        <time>2016-04-13T15:00:12Z</time>
      </trkpt>
      <trkpt lat="43.187" lon="2.30704">
        <ele>128.417</ele>
        <time>2016-04-13T15:00:32Z</time>
      </trkpt>
      <trkpt lat="43.18613" lon="2.30675">
        <ele>125.887</ele>
        <time>2016-04-13T15:00:52Z</time>
      </trkpt>
      <trkpt lat="43.18553" lon="2.30646">
        <ele>124.415</ele>
        <time>2016-04-13T15:01:12Z</time>
      </trkpt>
      <trkpt lat="43.18519" lon="2.30648">
        <ele>123.408</ele>
        <time>2016-04-13T15:01:32Z</time>
      </trkpt>
      <trkpt lat="43.18432" lon="2.30692">
        <ele>120.197</ele>
        <time>2016-04-13T15:01:52Z</time>
      </trkpt>
      <trkpt lat="43.18331" lon="2.30647">
        <ele>119.026</ele>
        <time>2016-04-13T15:02:12Z</time>
      </trkpt>
      <trkpt lat="43.18109" lon="2.30499">
        <ele>120.012</ele>
        <time>2016-04-13T15:02:32Z</time>
      </trkpt>
      <trkpt lat="43.18063" lon="2.30432">
        <ele>123.898</ele>
        <time>2016-04-13T15:02:52Z</time>
      </trkpt>
      <trkpt lat="43.1802" lon="2.30384">
        <ele>128.479</ele>
        <time>2016-04-13T15:03:12Z</time>
      </trkpt>
      <trkpt lat="43.18002" lon="2.30358">
        <ele>130.211</ele>
        <time>2016-04-13T15:03:32Z</time>
      </trkpt>
      <trkpt lat="43.17979" lon="2.30293">
        <ele>133.614</ele>
        <time>2016-04-13T15:03:52Z</time>
      </trkpt>
      <trkpt lat="43.17972" lon="2.30253">
        <ele>135.866</ele>
        <time>2016-04-13T15:04:12Z</time>
      </trkpt>
      <trkpt lat="43.17932" lon="2.30163">
        <ele>139.279</ele>
        <time>2016-04-13T15:04:32Z</time>
      </trkpt>
      <trkpt lat="43.17913" lon="2.30051">
        <ele>142.005</ele>
        <time>2016-04-13T15:04:52Z</time>
      </trkpt>
      <trkpt lat="43.17899" lon="2.30028">
        <ele>142.425</ele>
        <time>2016-04-13T15:05:12Z</time>
      </trkpt>
      <trkpt lat="43.17874" lon="2.30016">
        <ele>141.908</ele>
        <time>2016-04-13T15:05:32Z</time>
      </trkpt>
      <trkpt lat="43.17857" lon="2.30016">
        <ele>141.213</ele>
        <time>2016-04-13T15:05:52Z</time>
      </trkpt>
      <trkpt lat="43.17616" lon="2.29857">
        <ele>139.442</ele>
        <time>2016-04-13T15:06:12Z</time>
      </trkpt>
      <trkpt lat="43.17609" lon="2.29835">
        <ele>140.128</ele>
        <time>2016-04-13T15:06:32Z</time>
      </trkpt>
      <trkpt lat="43.17646" lon="2.2976">
        <ele>140.134</ele>
        <time>2016-04-13T15:06:52Z</time>
      </trkpt>
      <trkpt lat="43.17658" lon="2.29663">
        <ele>141.345</ele>
        <time>2016-04-13T15:07:12Z</time>
      </trkpt>
      <trkpt lat="43.17649" lon="2.29607">
        <ele>142.327</ele>
        <time>2016-04-13T15:07:32Z</time>
      </trkpt>
      <trkpt lat="43.17657" lon="2.29496">
        <ele>143.49</ele>
        <time>2016-04-13T15:07:52Z</time>
      </trkpt>
      <trkpt lat="43.17676" lon="2.29389">
        <ele>143.092</ele>
        <time>2016-04-13T15:08:12Z</time>
      </trkpt>
      <trkpt lat="43.17688" lon="2.29349">
        <ele>142.438</ele>
        <time>2016-04-13T15:08:32Z</time>
      </trkpt>
      <trkpt lat="43.17692" lon="2.29307">
        <ele>142.37</ele>
        <time>2016-04-13T15:08:52Z</time>
      </trkpt>
      <trkpt lat="43.17705" lon="2.29242">
        <ele>141.517</ele>
        <time>2016-04-13T15:09:12Z</time>
      </trkpt>
      <trkpt lat="43.17738" lon="2.29162">
        <ele>142.008</ele>
        <time>2016-04-13T15:09:32Z</time>
      </trkpt>
      <trkpt lat="43.17879" lon="2.29049">
        <ele>141.659</ele>
        <time>2016-04-13T15:09:52Z</time>
      </trkpt>
      <trkpt lat="43.17975" lon="2.28628">
        <ele>149.258</ele>
        <time>2016-04-13T15:10:12Z</time>
      </trkpt>
      <trkpt lat="43.18056" lon="2.28282">
        <ele>163.964</ele>
        <time>2016-04-13T15:10:32Z</time>
      </trkpt>
      <trkpt lat="43.17959" lon="2.28209">
        <ele>171.52</ele>
        <time>2016-04-13T15:10:52Z</time>
      </trkpt>
      <trkpt lat="43.17903" lon="2.28127">
        <ele>168.871</ele>
        <time>2016-04-13T15:11:12Z</time>
      </trkpt>
      <trkpt lat="43.17847" lon="2.27982">
        <ele>165.213</ele>
        <time>2016-04-13T15:11:32Z</time>
      </trkpt>
      <trkpt lat="43.17816" lon="2.2785">
        <ele>161.856</ele>
        <time>2016-04-13T15:11:52Z</time>
      </trkpt>
      <trkpt lat="43.17794" lon="2.27832">
        <ele>160.128</ele>
        <time>2016-04-13T15:12:12Z</time>
      </trkpt>
      <trkpt lat="43.17744" lon="2.27808">
        <ele>159.089</ele>
        <time>2016-04-13T15:12:32Z</time>
      </trkpt>
      <trkpt lat="43.1771" lon="2.27776">
        <ele>159.006</ele>
        <time>2016-04-13T15:12:52Z</time>
      </trkpt>
      <trkpt lat="43.17673" lon="2.27765">
        <ele>161.726</ele>
        <time>2016-04-13T15:13:12Z</time>
      </trkpt>
      <trkpt lat="43.17704" lon="2.27654">
        <ele>163.408</ele>
        <time>2016-04-13T15:13:32Z</time>
      </trkpt>
      <trkpt lat="43.17733" lon="2.2753">
        <ele>166.594</ele>
        <time>2016-04-13T15:13:52Z</time>
      </trkpt>
      <trkpt lat="43.17797" lon="2.27435">
        <ele>169.673</ele>
        <time>2016-04-13T15:14:12Z</time>
      </trkpt>
      <trkpt lat="43.17953" lon="2.27075">
        <ele>173.979</ele>
        <time>2016-04-13T15:14:32Z</time>
      </trkpt>
      <trkpt lat="43.18003" lon="2.26897">
        <ele>174.045</ele>
        <time>2016-04-13T15:14:52Z</time>
      </trkpt>
      <trkpt lat="43.18033" lon="2.26867">
        <ele>175.046</ele>
        <time>2016-04-13T15:15:12Z</time>
      </trkpt>
      <trkpt lat="43.18141" lon="2.26774">
        <ele>180.098</ele>
        <time>2016-04-13T15:15:32Z</time>
      </trkpt>
      <trkpt lat="43.18203" lon="2.26591">
        <ele>181.751</ele>
        <time>2016-04-13T15:15:52Z</time>
      </trkpt>
      <trkpt lat="43.18226" lon="2.26583">
        <ele>182.053</ele>
        <time>2016-04-13T15:16:12Z</time>
      </trkpt>
      <trkpt lat="43.18294" lon="2.26635">
        <ele>183.065</ele>
        <time>2016-04-13T15:16:32Z</time>
      </trkpt>
      <trkpt lat="43.18469" lon="2.26707">
        <ele>188.668</ele>
        <time>2016-04-13T15:16:52Z</time>
      </trkpt>
      <trkpt lat="43.18493" lon="2.26729">
        <ele>186.714</ele>
        <time>2016-04-13T15:17:12Z</time>
      </trkpt>
      <trkpt lat="43.18523" lon="2.26778">
        <ele>183.208</ele>
        <time>2016-04-13T15:17:32Z</time>
      </trkpt>
      <trkpt lat="43.18567" lon="2.26792">
        <ele>178.642</ele>
        <time>2016-04-13T15:17:52Z</time>
      </trkpt>
      <trkpt lat="43.1859" lon="2.26788">
        <ele>175.491</ele>
        <time>2016-04-13T15:18:12Z</time>
      </trkpt>
      <trkpt lat="43.18601" lon="2.26756">
        <ele>175.267</ele>
        <time>2016-04-13T15:18:32Z</time>
      </trkpt>
      <trkpt lat="43.18613" lon="2.26713">
        <ele>175.533</ele>
        <time>2016-04-13T15:18:52Z</time>
      </trkpt>
      <trkpt lat="43.18638" lon="2.26686">
        <ele>173.214</ele>
        <time>2016-04-13T15:19:12Z</time>
      </trkpt>
      <trkpt lat="43.1868" lon="2.26662">
        <ele>169.726</ele>
        <time>2016-04-13T15:19:32Z</time>
      </trkpt>
      <trkpt lat="43.1877" lon="2.26578">
        <ele>160.199</ele>
        <time>2016-04-13T15:19:52Z</time>
      </trkpt>
      <trkpt lat="43.18794" lon="2.26583">
        <ele>160.091</ele>
        <time>2016-04-13T15:20:12Z</time>
      </trkpt>
      <trkpt lat="43.18869" lon="2.26645">
        <ele>160.085</ele>
        <time>2016-04-13T15:20:32Z</time>
      </trkpt>
      <trkpt lat="43.18879" lon="2.26638">
        <ele>160.089</ele>
        <time>2016-04-13T15:20:52Z</time>
      </trkpt>
      <trkpt lat="43.18891" lon="2.26514">
        <ele>161.917</ele>
        <time>2016-04-13T15:21:12Z</time>
      </trkpt>
      <trkpt lat="43.18905" lon="2.26452">
        <ele>162.208</ele>
        <time>2016-04-13T15:21:32Z</time>
      </trkpt>
      <trkpt lat="43.18905" lon="2.264">
        <ele>163.014</ele>
        <time>2016-04-13T15:21:52Z</time>
      </trkpt>
      <trkpt lat="43.18891" lon="2.26379">
        <ele>163.953</ele>
        <time>2016-04-13T15:22:12Z</time>
      </trkpt>
      <trkpt lat="43.18876" lon="2.26323">
        <ele>165.299</ele>
        <time>2016-04-13T15:22:32Z</time>
      </trkpt>
      <trkpt lat="43.18873" lon="2.2624">
        <ele>166.275</ele>
        <time>2016-04-13T15:22:52Z</time>
      </trkpt>
      <trkpt lat="43.18872" lon="2.26038">
        <ele>169.076</ele>
        <time>2016-04-13T15:23:12Z</time>
      </trkpt>
      <trkpt lat="43.18874" lon="2.25964">
        <ele>170.038</ele>
        <time>2016-04-13T15:23:32Z</time>
      </trkpt>
      <trkpt lat="43.18867" lon="2.25947">
        <ele>170.011</ele>
        <time>2016-04-13T15:23:52Z</time>
      </trkpt>
      <trkpt lat="43.18823" lon="2.25937">
        <ele>170.063</ele>
        <time>2016-04-13T15:24:12Z</time>
      </trkpt>
      <trkpt lat="43.18818" lon="2.25906">
        <ele>170.445</ele>
        <time>2016-04-13T15:24:32Z</time>
      </trkpt>
      <trkpt lat="43.18828" lon="2.2568">
        <ele>173.047</ele>
        <time>2016-04-13T15:24:52Z</time>
      </trkpt>
      <trkpt lat="43.18857" lon="2.25463">
        <ele>176.311</ele>
        <time>2016-04-13T15:25:12Z</time>
      </trkpt>
      <trkpt lat="43.18877" lon="2.25255">
        <ele>179.508</ele>
        <time>2016-04-13T15:25:32Z</time>
      </trkpt>
      <trkpt lat="43.18905" lon="2.2504">
        <ele>180.05</ele>
        <time>2016-04-13T15:25:52Z</time>
      </trkpt>
      <trkpt lat="43.18928" lon="2.24922">
        <ele>184.419</ele>
        <time>2016-04-13T15:26:12Z</time>
      </trkpt>
      <trkpt lat="43.18937" lon="2.24826">
        <ele>186.735</ele>
        <time>2016-04-13T15:26:32Z</time>
      </trkpt>
      <trkpt lat="43.18927" lon="2.24684">
        <ele>188.761</ele>
        <time>2016-04-13T15:26:52Z</time>
      </trkpt>
      <trkpt lat="43.18935" lon="2.24661">
        <ele>189.742</ele>
        <time>2016-04-13T15:27:12Z</time>
      </trkpt>
      <trkpt lat="43.189" lon="2.24595">
        <ele>190.074</ele>
        <time>2016-04-13T15:27:32Z</time>
      </trkpt>
      <trkpt lat="43.18859" lon="2.24548">
        <ele>190.287</ele>
        <time>2016-04-13T15:27:52Z</time>
      </trkpt>
      <trkpt lat="43.18815" lon="2.24484">
        <ele>190.669</ele>
        <time>2016-04-13T15:28:12Z</time>
      </trkpt>
      <trkpt lat="43.18665" lon="2.24324">
        <ele>195.148</ele>
        <time>2016-04-13T15:28:32Z</time>
      </trkpt>
      <trkpt lat="43.18585" lon="2.24277">
        <ele>204.861</ele>
        <time>2016-04-13T15:28:52Z</time>
      </trkpt>
      <trkpt lat="43.18472" lon="2.24154">
        <ele>216.017</ele>
        <time>2016-04-13T15:29:12Z</time>
      </trkpt>
      <trkpt lat="43.18387" lon="2.24171">
        <ele>221.008</ele>
        <time>2021-02-05T16:24:51Z</time>
      </trkpt>
      <trkpt lat="43.18402" lon="2.24118">
        <ele>224.09</ele>
        <time>2021-02-05T16:25:11Z</time>
      </trkpt>
      <trkpt lat="43.18374" lon="2.24101">
        <ele>226.059</ele>
        <time>2021-02-05T16:25:31Z</time>
      </trkpt>
      <trkpt lat="43.18353" lon="2.24048">
        <ele>226.885</ele>
        <time>2021-02-05T16:25:51Z</time>
      </trkpt>
      <trkpt lat="43.1838" lon="2.24004">
        <ele>224.471</ele>
        <time>2021-02-05T16:26:11Z</time>
      </trkpt>
      <trkpt lat="43.18419" lon="2.24012">
        <ele>222.392</ele>
        <time>2021-02-05T16:26:31Z</time>
      </trkpt>
      <trkpt lat="43.1845" lon="2.24087">
        <ele>222.374</ele>
        <time>2021-02-05T16:26:51Z</time>
      </trkpt>
      <trkpt lat="43.18487" lon="2.24072">
        <ele>218.047</ele>
        <time>2021-02-05T16:27:11Z</time>
      </trkpt>
      <trkpt lat="43.18488" lon="2.24046">
        <ele>216.999</ele>
        <time>2016-04-13T15:29:52Z</time>
      </trkpt>
      <trkpt lat="43.18531" lon="2.24021">
        <ele>211.011</ele>
        <time>2016-04-13T15:30:12Z</time>
      </trkpt>
      <trkpt lat="43.1858" lon="2.24026">
        <ele>201.621</ele>
        <time>2016-04-13T15:30:32Z</time>
      </trkpt>
      <trkpt lat="43.18646" lon="2.24009">
        <ele>199.003</ele>
        <time>2016-04-13T15:30:52Z</time>
      </trkpt>
      <trkpt lat="43.18705" lon="2.23973">
        <ele>202.408</ele>
        <time>2016-04-13T15:31:12Z</time>
      </trkpt>
      <trkpt lat="43.18758" lon="2.2393">
        <ele>210.837</ele>
        <time>2016-04-13T15:31:32Z</time>
      </trkpt>
      <trkpt lat="43.1882" lon="2.23904">
        <ele>210.626</ele>
        <time>2021-02-05T16:29:31Z</time>
      </trkpt>
      <trkpt lat="43.18884" lon="2.23844">
        <ele>211.552</ele>
        <time>2021-02-05T16:29:51Z</time>
      </trkpt>
      <trkpt lat="43.18887" lon="2.2372">
        <ele>215.338</ele>
        <time>2021-02-05T16:30:11Z</time>
      </trkpt>
      <trkpt lat="43.18941" lon="2.23564">
        <ele>220.179</ele>
        <time>2016-04-13T15:33:12Z</time>
      </trkpt>
      <trkpt lat="43.18943" lon="2.23516">
        <ele>221.191</ele>
        <time>2016-04-13T15:33:32Z</time>
      </trkpt>
      <trkpt lat="43.18985" lon="2.23423">
        <ele>223.954</ele>
        <time>2016-04-13T15:33:52Z</time>
      </trkpt>
      <trkpt lat="43.19064" lon="2.23286">
        <ele>218.046</ele>
        <time>2016-04-13T15:34:12Z</time>
      </trkpt>
      <trkpt lat="43.19078" lon="2.23214">
        <ele>215.119</ele>
        <time>2016-04-13T15:34:32Z</time>
      </trkpt>
      <trkpt lat="43.19121" lon="2.23047">
        <ele>215.609</ele>
        <time>2016-04-13T15:34:52Z</time>
      </trkpt>
      <trkpt lat="43.19253" lon="2.22897">
        <ele>213.619</ele>
        <time>2016-04-13T15:35:12Z</time>
      </trkpt>
      <trkpt lat="43.19291" lon="2.22822">
        <ele>214.708</ele>
        <time>2016-04-13T15:35:32Z</time>
      </trkpt>
      <trkpt lat="43.19302" lon="2.22579">
        <ele>216.117</ele>
        <time>2016-04-13T15:35:52Z</time>
      </trkpt>
      <trkpt lat="43.19292" lon="2.22482">
        <ele>217.516</ele>
        <time>2016-04-13T15:36:12Z</time>
      </trkpt>
      <trkpt lat="43.19325" lon="2.22241">
        <ele>220.012</ele>
        <time>2016-04-13T15:36:32Z</time>
      </trkpt>
      <trkpt lat="43.1933" lon="2.22164">
        <ele>220.048</ele>
        <time>2016-04-13T15:36:52Z</time>
      </trkpt>
      <trkpt lat="43.19331" lon="2.22109">
        <ele>220.049</ele>
        <time>2016-04-13T15:37:12Z</time>
      </trkpt>
      <trkpt lat="43.19346" lon="2.2205">
        <ele>220.051</ele>
        <time>2016-04-13T15:37:32Z</time>
      </trkpt>
      <trkpt lat="43.19342" lon="2.22024">
        <ele>220.054</ele>
        <time>2016-04-13T15:37:52Z</time>
      </trkpt>
      <trkpt lat="43.19346" lon="2.21975">
        <ele>220.016</ele>
        <time>2016-04-13T15:38:12Z</time>
      </trkpt>
      <trkpt lat="43.19378" lon="2.2186">
        <ele>224.025</ele>
        <time>2016-04-13T15:38:32Z</time>
      </trkpt>
      <trkpt lat="43.19431" lon="2.21733">
        <ele>225.826</ele>
        <time>2016-04-13T15:38:52Z</time>
      </trkpt>
      <trkpt lat="43.19459" lon="2.21656">
        <ele>222.208</ele>
        <time>2016-04-13T15:39:12Z</time>
      </trkpt>
      <trkpt lat="43.1952" lon="2.21552">
        <ele>214.908</ele>
        <time>2016-04-13T15:39:32Z</time>
      </trkpt>
      <trkpt lat="43.19544" lon="2.21527">
        <ele>212.318</ele>
        <time>2016-04-13T15:39:52Z</time>
      </trkpt>
      <trkpt lat="43.19581" lon="2.21451">
        <ele>210.017</ele>
        <time>2016-04-13T15:40:12Z</time>
      </trkpt>
      <trkpt lat="43.19612" lon="2.21422">
        <ele>209.723</ele>
        <time>2016-04-13T15:40:32Z</time>
      </trkpt>
      <trkpt lat="43.19607" lon="2.21372">
        <ele>210.099</ele>
        <time>2016-04-13T15:40:52Z</time>
      </trkpt>
      <trkpt lat="43.19652" lon="2.21333">
        <ele>206.58</ele>
        <time>2016-04-13T15:41:12Z</time>
      </trkpt>
      <trkpt lat="43.19682" lon="2.21273">
        <ele>199.082</ele>
        <time>2016-04-13T15:42:12Z</time>
      </trkpt>
      <trkpt lat="43.19747" lon="2.21266">
        <ele>196.835</ele>
        <time>2016-04-13T15:42:32Z</time>
      </trkpt>
      <trkpt lat="43.19801" lon="2.21238">
        <ele>190.547</ele>
        <time>2016-04-13T15:42:52Z</time>
      </trkpt>
      <trkpt lat="43.19838" lon="2.21201">
        <ele>189.852</ele>
        <time>2016-04-13T15:43:12Z</time>
      </trkpt>
      <trkpt lat="43.19866" lon="2.21174">
        <ele>189.053</ele>
        <time>2016-04-13T15:43:32Z</time>
      </trkpt>
      <trkpt lat="43.19879" lon="2.21137">
        <ele>189.008</ele>
        <time>2016-04-13T15:43:52Z</time>
      </trkpt>
      <trkpt lat="43.19877" lon="2.21117">
        <ele>189.308</ele>
        <time>2016-04-13T15:44:12Z</time>
      </trkpt>
      <trkpt lat="43.19881" lon="2.21094">
        <ele>189.751</ele>
        <time>2016-04-13T15:44:32Z</time>
      </trkpt>
      <trkpt lat="43.19867" lon="2.21005">
        <ele>195.84</ele>
        <time>2021-02-05T16:41:31Z</time>
      </trkpt>
      <trkpt lat="43.19901" lon="2.21002">
        <ele>195.986</ele>
        <time>2021-02-05T16:41:51Z</time>
      </trkpt>
      <trkpt lat="43.19916" lon="2.2102">
        <ele>194.842</ele>
        <time>2021-02-05T16:42:11Z</time>
      </trkpt>
      <trkpt lat="43.19917" lon="2.21045">
        <ele>193.323</ele>
        <time>2021-02-05T16:42:31Z</time>
      </trkpt>
      <trkpt lat="43.1994" lon="2.21059">
        <ele>191.745</ele>
        <time>2021-02-05T16:42:51Z</time>
      </trkpt>
      <trkpt lat="43.19949" lon="2.21087">
        <ele>190.158</ele>
        <time>2021-02-05T16:43:11Z</time>
      </trkpt>
      <trkpt lat="43.19979" lon="2.21063">
        <ele>190.21</ele>
        <time>2021-02-05T16:43:31Z</time>
      </trkpt>
      <trkpt lat="43.2001" lon="2.21047">
        <ele>189.077</ele>
        <time>2021-02-05T16:43:51Z</time>
      </trkpt>
      <trkpt lat="43.20038" lon="2.21013">
        <ele>187.161</ele>
        <time>2021-02-05T16:44:11Z</time>
      </trkpt>
      <trkpt lat="43.20038" lon="2.20899">
        <ele>185.827</ele>
        <time>2021-02-05T16:44:31Z</time>
      </trkpt>
      <trkpt lat="43.19999" lon="2.20857">
        <ele>180.008</ele>
        <time>2016-04-13T15:46:32Z</time>
      </trkpt>
      <trkpt lat="43.19977" lon="2.20838">
        <ele>180.063</ele>
        <time>2016-04-13T15:46:52Z</time>
      </trkpt>
      <trkpt lat="43.19971" lon="2.20801">
        <ele>180.022</ele>
        <time>2016-04-13T15:47:12Z</time>
      </trkpt>
      <trkpt lat="43.19981" lon="2.2078">
        <ele>180.038</ele>
        <time>2016-04-13T15:47:32Z</time>
      </trkpt>
      <trkpt lat="43.20063" lon="2.20659">
        <ele>182.234</ele>
        <time>2016-04-13T15:47:52Z</time>
      </trkpt>
      <trkpt lat="43.20095" lon="2.20624">
        <ele>181.965</ele>
        <time>2016-04-13T15:48:12Z</time>
      </trkpt>
      <trkpt lat="43.20101" lon="2.20598">
        <ele>181.797</ele>
        <time>2016-04-13T15:48:32Z</time>
      </trkpt>
      <trkpt lat="43.20139" lon="2.20494">
        <ele>179.03</ele>
        <time>2016-04-13T15:48:52Z</time>
      </trkpt>
      <trkpt lat="43.20163" lon="2.2041">
        <ele>176.122</ele>
        <time>2016-04-13T15:49:12Z</time>
      </trkpt>
      <trkpt lat="43.20167" lon="2.20353">
        <ele>175.032</ele>
        <time>2016-04-13T15:49:32Z</time>
      </trkpt>
      <trkpt lat="43.20179" lon="2.20294">
        <ele>175.092</ele>
        <time>2016-04-13T15:49:52Z</time>
      </trkpt>
      <trkpt lat="43.20209" lon="2.20215">
        <ele>174.011</ele>
        <time>2016-04-13T15:50:12Z</time>
      </trkpt>
      <trkpt lat="43.20222" lon="2.20128">
        <ele>174.008</ele>
        <time>2016-04-13T15:50:32Z</time>
      </trkpt>
      <trkpt lat="43.20223" lon="2.20096">
        <ele>174.069</ele>
        <time>2016-04-13T15:50:52Z</time>
      </trkpt>
      <trkpt lat="43.20241" lon="2.19986">
        <ele>174.328</ele>
        <time>2016-04-13T15:51:12Z</time>
      </trkpt>
      <trkpt lat="43.20238" lon="2.19905">
        <ele>175.264</ele>
        <time>2016-04-13T15:51:32Z</time>
      </trkpt>
      <trkpt lat="43.20244" lon="2.19812">
        <ele>176.81</ele>
        <time>2016-04-13T15:51:52Z</time>
      </trkpt>
      <trkpt lat="43.20227" lon="2.19601">
        <ele>185.041</ele>
        <time>2016-04-13T15:52:12Z</time>
      </trkpt>
      <trkpt lat="43.20249" lon="2.19314">
        <ele>189.643</ele>
        <time>2016-04-13T15:52:32Z</time>
      </trkpt>
      <trkpt lat="43.20199" lon="2.19093">
        <ele>195.056</ele>
        <time>2016-04-13T15:52:52Z</time>
      </trkpt>
      <trkpt lat="43.20204" lon="2.1895">
        <ele>196.518</ele>
        <time>2016-04-13T15:53:12Z</time>
      </trkpt>
      <trkpt lat="43.20184" lon="2.18861">
        <ele>194.744</ele>
        <time>2016-04-13T15:53:32Z</time>
      </trkpt>
      <trkpt lat="43.2018" lon="2.18676">
        <ele>204.705</ele>
        <time>2016-04-13T15:53:52Z</time>
      </trkpt>
      <trkpt lat="43.20186" lon="2.18557">
        <ele>207.915</ele>
        <time>2016-04-13T15:54:12Z</time>
      </trkpt>
      <trkpt lat="43.20185" lon="2.18484">
        <ele>209.408</ele>
        <time>2016-04-13T15:54:32Z</time>
      </trkpt>
      <trkpt lat="43.20224" lon="2.18312">
        <ele>208.13</ele>
        <time>2016-04-13T15:54:52Z</time>
      </trkpt>
      <trkpt lat="43.2024" lon="2.18258">
        <ele>203.129</ele>
        <time>2016-04-13T15:55:12Z</time>
      </trkpt>
      <trkpt lat="43.20246" lon="2.18171">
        <ele>198.945</ele>
        <time>2016-04-13T15:55:32Z</time>
      </trkpt>
      <trkpt lat="43.20238" lon="2.18119">
        <ele>204.231</ele>
        <time>2016-04-13T15:55:52Z</time>
      </trkpt>
      <trkpt lat="43.20211" lon="2.18073">
        <ele>208.412</ele>
        <time>2016-04-13T15:56:12Z</time>
      </trkpt>
      <trkpt lat="43.20049" lon="2.17976">
        <ele>223.214</ele>
        <time>2016-04-13T15:56:32Z</time>
      </trkpt>
      <trkpt lat="43.19984" lon="2.17887">
        <ele>231.777</ele>
        <time>2016-04-13T15:56:52Z</time>
      </trkpt>
      <trkpt lat="43.19954" lon="2.17861">
        <ele>234.739</ele>
        <time>2016-04-13T15:57:12Z</time>
      </trkpt>
      <trkpt lat="43.19879" lon="2.17824">
        <ele>237.599</ele>
        <time>2016-04-13T15:57:32Z</time>
      </trkpt>
      <trkpt lat="43.19857" lon="2.17801">
        <ele>238.307</ele>
        <time>2016-04-13T15:57:52Z</time>
      </trkpt>
      <trkpt lat="43.1984" lon="2.17747">
        <ele>242.027</ele>
        <time>2016-04-13T15:58:12Z</time>
      </trkpt>
      <trkpt lat="43.19739" lon="2.17537">
        <ele>250.108</ele>
        <time>2016-04-13T15:58:32Z</time>
      </trkpt>
      <trkpt lat="43.19731" lon="2.17485">
        <ele>251.565</ele>
        <time>2016-04-13T15:58:52Z</time>
      </trkpt>
      <trkpt lat="43.19698" lon="2.17376">
        <ele>254.264</ele>
        <time>2016-04-13T15:59:12Z</time>
      </trkpt>
      <trkpt lat="43.19664" lon="2.17312">
        <ele>254.06</ele>
        <time>2016-04-13T15:59:32Z</time>
      </trkpt>
      <trkpt lat="43.19654" lon="2.1726">
        <ele>253.586</ele>
        <time>2016-04-13T15:59:52Z</time>
      </trkpt>
      <trkpt lat="43.19653" lon="2.17205">
        <ele>253.237</ele>
        <time>2016-04-13T16:00:12Z</time>
      </trkpt>
      <trkpt lat="43.19639" lon="2.17128">
        <ele>250.499</ele>
        <time>2016-04-13T16:00:32Z</time>
      </trkpt>
      <trkpt lat="43.19657" lon="2.17051">
        <ele>252.562</ele>
        <time>2016-04-13T16:00:52Z</time>
      </trkpt>
      <trkpt lat="43.1965" lon="2.16994">
        <ele>256.824</ele>
        <time>2016-04-13T16:01:12Z</time>
      </trkpt>
      <trkpt lat="43.1963" lon="2.16953">
        <ele>260.063</ele>
        <time>2016-04-13T16:01:32Z</time>
      </trkpt>
      <trkpt lat="43.19606" lon="2.16927">
        <ele>260.644</ele>
        <time>2016-04-13T16:01:52Z</time>
      </trkpt>
      <trkpt lat="43.19564" lon="2.16896">
        <ele>264.918</ele>
        <time>2016-04-13T16:02:12Z</time>
      </trkpt>
      <trkpt lat="43.1951" lon="2.16833">
        <ele>269.808</ele>
        <time>2016-04-13T16:02:32Z</time>
      </trkpt>
      <trkpt lat="43.19492" lon="2.16778">
        <ele>272.512</ele>
        <time>2016-04-13T16:02:52Z</time>
      </trkpt>
      <trkpt lat="43.19479" lon="2.16701">
        <ele>276.921</ele>
        <time>2016-04-13T16:03:12Z</time>
      </trkpt>
      <trkpt lat="43.19436" lon="2.16597">
        <ele>280.097</ele>
        <time>2016-04-13T16:03:32Z</time>
      </trkpt>
      <trkpt lat="43.19427" lon="2.16557">
        <ele>284.133</ele>
        <time>2016-04-13T16:03:52Z</time>
      </trkpt>
      <trkpt lat="43.19461" lon="2.16518">
        <ele>282.754</ele>
        <time>2016-04-13T16:04:12Z</time>
      </trkpt>
      <trkpt lat="43.19481" lon="2.16448">
        <ele>283.266</ele>
        <time>2016-04-13T16:04:32Z</time>
      </trkpt>
      <trkpt lat="43.19484" lon="2.1641">
        <ele>284.159</ele>
        <time>2016-04-13T16:04:52Z</time>
      </trkpt>
      <trkpt lat="43.19478" lon="2.16366">
        <ele>282.491</ele>
        <time>2016-04-13T16:05:12Z</time>
      </trkpt>
      <trkpt lat="43.19457" lon="2.16325">
        <ele>280.945</ele>
        <time>2016-04-13T16:05:32Z</time>
      </trkpt>
      <trkpt lat="43.19429" lon="2.16308">
        <ele>284.047</ele>
        <time>2016-04-13T16:20:32Z</time>
      </trkpt>
      <trkpt lat="43.1942" lon="2.16277">
        <ele>285.211</ele>
        <time>2016-04-13T16:20:52Z</time>
      </trkpt>
      <trkpt lat="43.19425" lon="2.16186">
        <ele>282.208</ele>
        <time>2016-04-13T16:21:12Z</time>
      </trkpt>
      <trkpt lat="43.19423" lon="2.16071">
        <ele>280.47</ele>
        <time>2016-04-13T16:21:32Z</time>
      </trkpt>
      <trkpt lat="43.19442" lon="2.16028">
        <ele>279.979</ele>
        <time>2016-04-13T16:21:52Z</time>
      </trkpt>
      <trkpt lat="43.19525" lon="2.15923">
        <ele>279.055</ele>
        <time>2016-04-13T16:22:12Z</time>
      </trkpt>
      <trkpt lat="43.19621" lon="2.15781">
        <ele>269.461</ele>
        <time>2016-04-13T16:22:32Z</time>
      </trkpt>
      <trkpt lat="43.19674" lon="2.1564">
        <ele>263.912</ele>
        <time>2016-04-13T16:22:52Z</time>
      </trkpt>
      <trkpt lat="43.19681" lon="2.15555">
        <ele>264.544</ele>
        <time>2016-04-13T16:25:12Z</time>
      </trkpt>
      <trkpt lat="43.19667" lon="2.15422">
        <ele>268.877</ele>
        <time>2016-04-13T16:25:32Z</time>
      </trkpt>
      <trkpt lat="43.19633" lon="2.15321">
        <ele>260.999</ele>
        <time>2016-04-13T16:25:52Z</time>
      </trkpt>
      <trkpt lat="43.19602" lon="2.15264">
        <ele>252.841</ele>
        <time>2016-04-13T16:26:12Z</time>
      </trkpt>
      <trkpt lat="43.19604" lon="2.15235">
        <ele>251.681</ele>
        <time>2016-04-13T16:26:32Z</time>
      </trkpt>
      <trkpt lat="43.19623" lon="2.15199">
        <ele>253.809</ele>
        <time>2016-04-13T16:26:52Z</time>
      </trkpt>
      <trkpt lat="43.19598" lon="2.15131">
        <ele>255.108</ele>
        <time>2016-04-13T16:27:12Z</time>
      </trkpt>
      <trkpt lat="43.19612" lon="2.15085">
        <ele>259.07</ele>
        <time>2016-04-13T16:27:32Z</time>
      </trkpt>
      <trkpt lat="43.19612" lon="2.15001">
        <ele>257.299</ele>
        <time>2016-04-13T16:27:52Z</time>
      </trkpt>
      <trkpt lat="43.19631" lon="2.14814">
        <ele>252.395</ele>
        <time>2016-04-13T16:28:12Z</time>
      </trkpt>
      <trkpt lat="43.1968" lon="2.14804">
        <ele>247.181</ele>
        <time>2016-04-13T16:28:32Z</time>
      </trkpt>
      <trkpt lat="43.19778" lon="2.14742">
        <ele>235.492</ele>
        <time>2016-04-13T16:28:52Z</time>
      </trkpt>
      <trkpt lat="43.19844" lon="2.14679">
        <ele>234.624</ele>
        <time>2016-04-13T16:29:12Z</time>
      </trkpt>
      <trkpt lat="43.19853" lon="2.14667">
        <ele>235.497</ele>
        <time>2016-04-13T16:29:32Z</time>
      </trkpt>
      <trkpt lat="43.19919" lon="2.14627">
        <ele>241.949</ele>
        <time>2016-04-13T16:29:52Z</time>
      </trkpt>
      <trkpt lat="43.19972" lon="2.14541">
        <ele>248.152</ele>
        <time>2016-04-13T16:30:12Z</time>
      </trkpt>
      <trkpt lat="43.20054" lon="2.14338">
        <ele>248.953</ele>
        <time>2016-04-13T16:30:32Z</time>
      </trkpt>
      <trkpt lat="43.20056" lon="2.14252">
        <ele>249.908</ele>
        <time>2016-04-13T16:30:52Z</time>
      </trkpt>
      <trkpt lat="43.20024" lon="2.14282">
        <ele>252.408</ele>
        <time>2016-04-13T16:31:12Z</time>
      </trkpt>
      <trkpt lat="43.19987" lon="2.14328">
        <ele>264.251</ele>
        <time>2021-02-05T17:13:11Z</time>
      </trkpt>
      <trkpt lat="43.1994" lon="2.14319">
        <ele>264.07</ele>
        <time>2021-02-05T17:13:31Z</time>
      </trkpt>
      <trkpt lat="43.19938" lon="2.14222">
        <ele>264.016</ele>
        <time>2021-02-05T17:13:51Z</time>
      </trkpt>
      <trkpt lat="43.1994" lon="2.14181">
        <ele>264.412</ele>
        <time>2016-04-13T16:32:12Z</time>
      </trkpt>
      <trkpt lat="43.19961" lon="2.14137">
        <ele>263.263</ele>
        <time>2021-02-05T17:14:31Z</time>
      </trkpt>
      <trkpt lat="43.19953" lon="2.14059">
        <ele>261.135</ele>
        <time>2021-02-05T17:14:51Z</time>
      </trkpt>
      <trkpt lat="43.19932" lon="2.14052">
        <ele>262.028</ele>
        <time>2021-02-05T17:15:11Z</time>
      </trkpt>
      <trkpt lat="43.19899" lon="2.14144">
        <ele>261.21</ele>
        <time>2021-02-05T17:15:31Z</time>
      </trkpt>
      <trkpt lat="43.1987" lon="2.14125">
        <ele>256.944</ele>
        <time>2021-02-05T17:15:51Z</time>
      </trkpt>
      <trkpt lat="43.19883" lon="2.141">
        <ele>259.105</ele>
        <time>2016-04-13T16:36:12Z</time>
      </trkpt>
      <trkpt lat="43.19861" lon="2.14022">
        <ele>256.615</ele>
        <time>2021-02-05T17:16:31Z</time>
      </trkpt>
      <trkpt lat="43.19843" lon="2.14062">
        <ele>255.108</ele>
        <time>2021-02-05T17:16:51Z</time>
      </trkpt>
      <trkpt lat="43.19754" lon="2.14">
        <ele>240.17</ele>
        <time>2016-04-13T16:36:32Z</time>
      </trkpt>
      <trkpt lat="43.19802" lon="2.13868">
        <ele>240.169</ele>
        <time>2016-04-13T16:36:52Z</time>
      </trkpt>
      <trkpt lat="43.19749" lon="2.13816">
        <ele>233.325</ele>
        <time>2016-04-13T16:37:12Z</time>
      </trkpt>
      <trkpt lat="43.19742" lon="2.13818">
        <ele>233.281</ele>
        <time>2016-04-13T16:37:32Z</time>
      </trkpt>
      <trkpt lat="43.19656" lon="2.13746">
        <ele>226.172</ele>
        <time>2016-04-13T16:37:52Z</time>
      </trkpt>
      <trkpt lat="43.19612" lon="2.13696">
        <ele>220.294</ele>
        <time>2016-04-13T16:38:12Z</time>
      </trkpt>
      <trkpt lat="43.1956" lon="2.13606">
        <ele>207.367</ele>
        <time>2016-04-13T16:38:32Z</time>
      </trkpt>
      <trkpt lat="43.19518" lon="2.13508">
        <ele>200.349</ele>
        <time>2016-04-13T16:38:52Z</time>
      </trkpt>
      <trkpt lat="43.19498" lon="2.13435">
        <ele>200.134</ele>
        <time>2016-04-13T16:39:12Z</time>
      </trkpt>
      <trkpt lat="43.19474" lon="2.13388">
        <ele>197.355</ele>
        <time>2016-04-13T16:39:32Z</time>
      </trkpt>
      <trkpt lat="43.19424" lon="2.13332">
        <ele>195.11</ele>
        <time>2016-04-13T16:39:52Z</time>
      </trkpt>
      <trkpt lat="43.19365" lon="2.1325">
        <ele>193.408</ele>
        <time>2016-04-13T16:40:12Z</time>
      </trkpt>
      <trkpt lat="43.19262" lon="2.13129">
        <ele>192.139</ele>
        <time>2016-04-13T16:40:32Z</time>
      </trkpt>
      <trkpt lat="43.19196" lon="2.13041">
        <ele>187.298</ele>
        <time>2016-04-13T16:40:52Z</time>
      </trkpt>
      <trkpt lat="43.19182" lon="2.13015">
        <ele>186.074</ele>
        <time>2016-04-13T16:41:12Z</time>
      </trkpt>
      <trkpt lat="43.19157" lon="2.12971">
        <ele>183.38</ele>
        <time>2016-04-13T16:41:32Z</time>
      </trkpt>
      <trkpt lat="43.19142" lon="2.12902">
        <ele>182.731</ele>
        <time>2016-04-13T16:41:52Z</time>
      </trkpt>
      <trkpt lat="43.19141" lon="2.12784">
        <ele>181.193</ele>
        <time>2016-04-13T16:42:12Z</time>
      </trkpt>
      <trkpt lat="43.191" lon="2.12724">
        <ele>180.046</ele>
        <time>2016-04-13T16:42:32Z</time>
      </trkpt>
      <trkpt lat="43.1904" lon="2.12457">
        <ele>177.578</ele>
        <time>2016-04-13T16:42:52Z</time>
      </trkpt>
      <trkpt lat="43.19026" lon="2.1242">
        <ele>177.045</ele>
        <time>2016-04-13T16:43:12Z</time>
      </trkpt>
      <trkpt lat="43.18985" lon="2.12382">
        <ele>176.847</ele>
        <time>2016-04-13T16:43:32Z</time>
      </trkpt>
      <trkpt lat="43.18946" lon="2.12372">
        <ele>176.411</ele>
        <time>2016-04-13T16:43:52Z</time>
      </trkpt>
      <trkpt lat="43.18843" lon="2.12372">
        <ele>180.308</ele>
        <time>2016-04-13T16:44:12Z</time>
      </trkpt>
      <trkpt lat="43.18746" lon="2.12333">
        <ele>177.34</ele>
        <time>2016-04-13T16:44:32Z</time>
      </trkpt>
      <trkpt lat="43.1863" lon="2.12243">
        <ele>175.699</ele>
        <time>2016-04-13T16:44:52Z</time>
      </trkpt>
      <trkpt lat="43.1853" lon="2.12068">
        <ele>181.675</ele>
        <time>2016-04-13T16:45:12Z</time>
      </trkpt>
      <trkpt lat="43.18391" lon="2.11777">
        <ele>185.191</ele>
        <time>2016-04-13T16:45:32Z</time>
      </trkpt>
      <trkpt lat="43.18282" lon="2.11608">
        <ele>187.142</ele>
        <time>2016-04-13T16:45:52Z</time>
      </trkpt>
      <trkpt lat="43.18286" lon="2.11582">
        <ele>188.074</ele>
        <time>2016-04-13T16:46:12Z</time>
      </trkpt>
      <trkpt lat="43.18227" lon="2.11531">
        <ele>187.287</ele>
        <time>2016-04-13T16:46:32Z</time>
      </trkpt>
      <trkpt lat="43.18326" lon="2.11294">
        <ele>199.559</ele>
        <time>2016-04-13T16:46:52Z</time>
      </trkpt>
      <trkpt lat="43.18263" lon="2.11254">
        <ele>195.063</ele>
        <time>2016-04-13T16:47:12Z</time>
      </trkpt>
      <trkpt lat="43.18197" lon="2.11242">
        <ele>191.244</ele>
        <time>2016-04-13T16:47:32Z</time>
      </trkpt>
      <trkpt lat="43.18141" lon="2.11205">
        <ele>188.118</ele>
        <time>2016-04-13T16:47:52Z</time>
      </trkpt>
      <trkpt lat="43.18039" lon="2.11185">
        <ele>190.208</ele>
        <time>2016-04-13T16:48:12Z</time>
      </trkpt>
      <trkpt lat="43.18039" lon="2.11089">
        <ele>190.062</ele>
        <time>2016-04-13T16:48:32Z</time>
      </trkpt>
      <trkpt lat="43.17971" lon="2.11085">
        <ele>191.021</ele>
        <time>2016-04-13T16:48:52Z</time>
      </trkpt>
      <trkpt lat="43.17957" lon="2.11035">
        <ele>191.087</ele>
        <time>2016-04-13T16:49:12Z</time>
      </trkpt>
      <trkpt lat="43.17906" lon="2.10987">
        <ele>190.723</ele>
        <time>2016-04-13T16:49:32Z</time>
      </trkpt>
      <trkpt lat="43.17929" lon="2.10902">
        <ele>189.894</ele>
        <time>2016-04-13T16:49:52Z</time>
      </trkpt>
      <trkpt lat="43.17918" lon="2.1085">
        <ele>190.426</ele>
        <time>2016-04-13T16:50:12Z</time>
      </trkpt>
      <trkpt lat="43.17965" lon="2.10639">
        <ele>198.399</ele>
        <time>2016-04-13T16:50:32Z</time>
      </trkpt>
      <trkpt lat="43.1796" lon="2.10542">
        <ele>201.971</ele>
        <time>2016-04-13T16:50:52Z</time>
      </trkpt>
      <trkpt lat="43.17961" lon="2.10423">
        <ele>204.944</ele>
        <time>2016-04-13T16:51:12Z</time>
      </trkpt>
      <trkpt lat="43.17936" lon="2.10395">
        <ele>206.205</ele>
        <time>2016-04-13T16:51:32Z</time>
      </trkpt>
      <trkpt lat="43.17912" lon="2.10254">
        <ele>210.615</ele>
        <time>2016-04-13T16:51:52Z</time>
      </trkpt>
      <trkpt lat="43.17937" lon="2.10168">
        <ele>212.208</ele>
        <time>2016-04-13T16:52:12Z</time>
      </trkpt>
      <trkpt lat="43.17955" lon="2.10066">
        <ele>214.86</ele>
        <time>2016-04-13T16:52:32Z</time>
      </trkpt>
      <trkpt lat="43.18004" lon="2.09891">
        <ele>219.349</ele>
        <time>2016-04-13T16:52:52Z</time>
      </trkpt>
      <trkpt lat="43.17986" lon="2.09832">
        <ele>220.065</ele>
        <time>2016-04-13T16:53:12Z</time>
      </trkpt>
      <trkpt lat="43.17947" lon="2.09808">
        <ele>223.751</ele>
        <time>2016-04-13T16:53:32Z</time>
      </trkpt>
      <trkpt lat="43.1779" lon="2.09606">
        <ele>215.592</ele>
        <time>2016-04-13T16:53:52Z</time>
      </trkpt>
      <trkpt lat="43.17738" lon="2.09515">
        <ele>227.024</ele>
        <time>2016-04-13T16:54:12Z</time>
      </trkpt>
      <trkpt lat="43.17739" lon="2.09414">
        <ele>226.767</ele>
        <time>2016-04-13T16:54:32Z</time>
      </trkpt>
      <trkpt lat="43.17778" lon="2.09361">
        <ele>228.099</ele>
        <time>2016-04-13T16:54:52Z</time>
      </trkpt>
      <trkpt lat="43.17862" lon="2.09331">
        <ele>228.032</ele>
        <time>2016-04-13T16:55:12Z</time>
      </trkpt>
      <trkpt lat="43.17965" lon="2.09382">
        <ele>225.192</ele>
        <time>2016-04-13T16:55:32Z</time>
      </trkpt>
      <trkpt lat="43.18091" lon="2.09396">
        <ele>225.811</ele>
        <time>2016-04-13T16:55:52Z</time>
      </trkpt>
      <trkpt lat="43.18141" lon="2.09355">
        <ele>225.208</ele>
        <time>2016-04-13T16:56:12Z</time>
      </trkpt>
      <trkpt lat="43.18169" lon="2.09359">
        <ele>225.029</ele>
        <time>2016-04-13T16:56:32Z</time>
      </trkpt>
      <trkpt lat="43.18231" lon="2.09346">
        <ele>222.178</ele>
        <time>2016-04-13T16:56:52Z</time>
      </trkpt>
      <trkpt lat="43.18242" lon="2.09333">
        <ele>222.314</ele>
        <time>2016-04-13T16:57:12Z</time>
      </trkpt>
      <trkpt lat="43.18204" lon="2.09255">
        <ele>223.53</ele>
        <time>2016-04-13T16:57:32Z</time>
      </trkpt>
      <trkpt lat="43.18118" lon="2.09122">
        <ele>223.661</ele>
        <time>2016-04-13T16:57:52Z</time>
      </trkpt>
      <trkpt lat="43.18063" lon="2.08966">
        <ele>234.853</ele>
        <time>2016-04-13T16:58:12Z</time>
      </trkpt>
      <trkpt lat="43.18021" lon="2.0888">
        <ele>235.066</ele>
        <time>2016-04-13T16:58:32Z</time>
      </trkpt>
      <trkpt lat="43.18015" lon="2.08839">
        <ele>235.098</ele>
        <time>2016-04-13T16:58:52Z</time>
      </trkpt>
      <trkpt lat="43.17978" lon="2.08783">
        <ele>233.551</ele>
        <time>2016-04-13T16:59:12Z</time>
      </trkpt>
      <trkpt lat="43.17939" lon="2.08711">
        <ele>232.101</ele>
        <time>2016-04-13T16:59:32Z</time>
      </trkpt>
      <trkpt lat="43.17931" lon="2.08676">
        <ele>232.811</ele>
        <time>2016-04-13T16:59:52Z</time>
      </trkpt>
      <trkpt lat="43.17859" lon="2.08493">
        <ele>241.908</ele>
        <time>2016-04-13T17:00:12Z</time>
      </trkpt>
      <trkpt lat="43.17858" lon="2.08446">
        <ele>242.731</ele>
        <time>2016-04-13T17:00:32Z</time>
      </trkpt>
      <trkpt lat="43.17845" lon="2.0841">
        <ele>242.55</ele>
        <time>2016-04-13T17:00:52Z</time>
      </trkpt>
      <trkpt lat="43.17847" lon="2.08346">
        <ele>241.636</ele>
        <time>2021-02-05T17:41:51Z</time>
      </trkpt>
      <trkpt lat="43.17819" lon="2.08336">
        <ele>238.052</ele>
        <time>2021-02-05T17:42:11Z</time>
      </trkpt>
      <trkpt lat="43.17783" lon="2.08364">
        <ele>233.253</ele>
        <time>2021-02-05T17:42:31Z</time>
      </trkpt>
      <trkpt lat="43.17707" lon="2.08683">
        <ele>221.465</ele>
        <time>2021-02-05T17:42:51Z</time>
      </trkpt>
      <trkpt lat="43.17662" lon="2.08662">
        <ele>217.568</ele>
        <time>2021-02-05T17:43:11Z</time>
      </trkpt>
      <trkpt lat="43.17515" lon="2.08517">
        <ele>225.73</ele>
        <time>2021-02-05T17:43:31Z</time>
      </trkpt>
      <trkpt lat="43.17461" lon="2.08499">
        <ele>230.249</ele>
        <time>2021-02-05T17:43:51Z</time>
      </trkpt>
      <trkpt lat="43.17353" lon="2.0855">
        <ele>235.902</ele>
        <time>2021-02-05T17:44:11Z</time>
      </trkpt>
      <trkpt lat="43.17235" lon="2.0845">
        <ele>234.022</ele>
        <time>2021-02-05T17:44:31Z</time>
      </trkpt>
      <trkpt lat="43.17239" lon="2.08407">
        <ele>233.208</ele>
        <time>2021-02-05T17:44:51Z</time>
      </trkpt>
      <trkpt lat="43.17156" lon="2.0836">
        <ele>228.28</ele>
        <time>2021-02-05T17:45:11Z</time>
      </trkpt>
      <trkpt lat="43.17114" lon="2.08366">
        <ele>226.539</ele>
        <time>2021-02-05T17:45:31Z</time>
      </trkpt>
      <trkpt lat="43.16975" lon="2.08447">
        <ele>222.525</ele>
        <time>2021-02-05T17:45:51Z</time>
      </trkpt>
      <trkpt lat="43.16931" lon="2.08321">
        <ele>227.791</ele>
        <time>2021-02-05T17:46:11Z</time>
      </trkpt>
      <trkpt lat="43.16866" lon="2.08253">
        <ele>227.772</ele>
        <time>2021-02-05T17:46:31Z</time>
      </trkpt>
      <trkpt lat="43.1682" lon="2.08154">
        <ele>236.534</ele>
        <time>2021-02-05T17:46:51Z</time>
      </trkpt>
      <trkpt lat="43.16793" lon="2.08034">
        <ele>244.257</ele>
        <time>2021-02-05T17:47:11Z</time>
      </trkpt>
      <trkpt lat="43.16793" lon="2.07976">
        <ele>246.759</ele>
        <time>2021-02-05T17:47:31Z</time>
      </trkpt>
      <trkpt lat="43.16837" lon="2.07983">
        <ele>253.317</ele>
        <time>2021-02-05T17:47:51Z</time>
      </trkpt>
      <trkpt lat="43.16859" lon="2.07944">
        <ele>253.187</ele>
        <time>2021-02-05T17:48:11Z</time>
      </trkpt>
      <trkpt lat="43.16858" lon="2.07866">
        <ele>254.815</ele>
        <time>2021-02-05T17:48:31Z</time>
      </trkpt>
      <trkpt lat="43.16847" lon="2.07845">
        <ele>255.408</ele>
        <time>2021-02-05T17:48:51Z</time>
      </trkpt>
      <trkpt lat="43.16856" lon="2.0781">
        <ele>254.527</ele>
        <time>2021-02-05T17:49:11Z</time>
      </trkpt>
      <trkpt lat="43.16903" lon="2.07752">
        <ele>254.526</ele>
        <time>2021-02-05T17:49:31Z</time>
      </trkpt>
      <trkpt lat="43.16924" lon="2.077">
        <ele>255.042</ele>
        <time>2021-02-05T17:49:51Z</time>
      </trkpt>
      <trkpt lat="43.16969" lon="2.07578">
        <ele>255.778</ele>
        <time>2021-02-05T17:50:11Z</time>
      </trkpt>
      <trkpt lat="43.16968" lon="2.07558">
        <ele>256.169</ele>
        <time>2021-02-05T17:50:31Z</time>
      </trkpt>
      <trkpt lat="43.17067" lon="2.07383">
        <ele>257.351</ele>
        <time>2021-02-05T17:50:51Z</time>
      </trkpt>
      <trkpt lat="43.17146" lon="2.07295">
        <ele>248.394</ele>
        <time>2021-02-05T17:51:11Z</time>
      </trkpt>
      <trkpt lat="43.17177" lon="2.07221">
        <ele>241.046</ele>
        <time>2021-02-05T17:51:31Z</time>
      </trkpt>
      <trkpt lat="43.17151" lon="2.0713">
        <ele>238.643</ele>
        <time>2021-02-05T17:51:51Z</time>
      </trkpt>
      <trkpt lat="43.17217" lon="2.07194">
        <ele>238.564</ele>
        <time>2021-02-05T17:52:11Z</time>
      </trkpt>
      <trkpt lat="43.17315" lon="2.07361">
        <ele>237.41</ele>
        <time>2021-02-05T17:52:31Z</time>
      </trkpt>
      <trkpt lat="43.17345" lon="2.07368">
        <ele>237.808</ele>
        <time>2021-02-05T17:52:51Z</time>
      </trkpt>
      <trkpt lat="43.17467" lon="2.07435">
        <ele>244.83</ele>
        <time>2021-02-05T17:53:11Z</time>
      </trkpt>
      <trkpt lat="43.17455" lon="2.07296">
        <ele>256.769</ele>
        <time>2016-04-13T17:05:32Z</time>
      </trkpt>
      <trkpt lat="43.1743" lon="2.07001">
        <ele>278.475</ele>
        <time>2016-04-13T17:05:52Z</time>
      </trkpt>
      <trkpt lat="43.17426" lon="2.06908">
        <ele>285.171</ele>
        <time>2016-04-13T17:06:12Z</time>
      </trkpt>
      <trkpt lat="43.17401" lon="2.06814">
        <ele>299.612</ele>
        <time>2016-04-13T17:06:32Z</time>
      </trkpt>
      <trkpt lat="43.17366" lon="2.06727">
        <ele>304.544</ele>
        <time>2016-04-13T17:06:52Z</time>
      </trkpt>
      <trkpt lat="43.17374" lon="2.06619">
        <ele>304.917</ele>
        <time>2016-04-13T17:07:12Z</time>
      </trkpt>
      <trkpt lat="43.17372" lon="2.06498">
        <ele>302.199</ele>
        <time>2016-04-13T17:07:32Z</time>
      </trkpt>
      <trkpt lat="43.17348" lon="2.0628">
        <ele>295.697</ele>
        <time>2016-04-13T17:07:52Z</time>
      </trkpt>
      <trkpt lat="43.1733" lon="2.06237">
        <ele>294.323</ele>
        <time>2016-04-13T17:08:12Z</time>
      </trkpt>
      <trkpt lat="43.17337" lon="2.06202">
        <ele>294.925</ele>
        <time>2016-04-13T17:08:32Z</time>
      </trkpt>
      <trkpt lat="43.17334" lon="2.06176">
        <ele>294.308</ele>
        <time>2016-04-13T17:08:52Z</time>
      </trkpt>
      <trkpt lat="43.17348" lon="2.06116">
        <ele>293.675</ele>
        <time>2016-04-13T17:09:12Z</time>
      </trkpt>
      <trkpt lat="43.17358" lon="2.06005">
        <ele>294.494</ele>
        <time>2016-04-13T17:09:32Z</time>
      </trkpt>
      <trkpt lat="43.17412" lon="2.05901">
        <ele>305.06</ele>
        <time>2016-04-13T17:09:52Z</time>
      </trkpt>
      <trkpt lat="43.17445" lon="2.05796">
        <ele>306.336</ele>
        <time>2016-04-13T17:10:12Z</time>
      </trkpt>
      <trkpt lat="43.17522" lon="2.05656">
        <ele>300.047</ele>
        <time>2016-04-13T17:10:32Z</time>
      </trkpt>
      <trkpt lat="43.1747" lon="2.05589">
        <ele>302.789</ele>
        <time>2016-04-13T17:10:52Z</time>
      </trkpt>
      <trkpt lat="43.17509" lon="2.05532">
        <ele>304.822</ele>
        <time>2016-04-13T17:11:12Z</time>
      </trkpt>
      <trkpt lat="43.17454" lon="2.0549">
        <ele>312.314</ele>
        <time>2016-04-13T17:11:32Z</time>
      </trkpt>
      <trkpt lat="43.17337" lon="2.05342">
        <ele>313.718</ele>
        <time>2016-04-13T17:11:52Z</time>
      </trkpt>
      <trkpt lat="43.17265" lon="2.05282">
        <ele>319.998</ele>
        <time>2016-04-13T17:12:12Z</time>
      </trkpt>
      <trkpt lat="43.17248" lon="2.05244">
        <ele>324.417</ele>
        <time>2016-04-13T17:12:32Z</time>
      </trkpt>
      <trkpt lat="43.1723" lon="2.05152">
        <ele>323.808</ele>
        <time>2016-04-13T17:12:52Z</time>
      </trkpt>
      <trkpt lat="43.17232" lon="2.05085">
        <ele>320.727</ele>
        <time>2016-04-13T17:13:12Z</time>
      </trkpt>
      <trkpt lat="43.17247" lon="2.05044">
        <ele>317.536</ele>
        <time>2016-04-13T17:13:32Z</time>
      </trkpt>
      <trkpt lat="43.17286" lon="2.05008">
        <ele>310.142</ele>
        <time>2016-04-13T17:13:52Z</time>
      </trkpt>
      <trkpt lat="43.17364" lon="2.04973">
        <ele>302.568</ele>
        <time>2016-04-13T17:14:12Z</time>
      </trkpt>
      <trkpt lat="43.17424" lon="2.04913">
        <ele>286.689</ele>
        <time>2016-04-13T17:14:32Z</time>
      </trkpt>
      <trkpt lat="43.17483" lon="2.04825">
        <ele>273.411</ele>
        <time>2016-04-13T17:14:52Z</time>
      </trkpt>
      <trkpt lat="43.17529" lon="2.04695">
        <ele>265.274</ele>
        <time>2016-04-13T17:15:12Z</time>
      </trkpt>
      <trkpt lat="43.17563" lon="2.04534">
        <ele>265.376</ele>
        <time>2016-04-13T17:15:32Z</time>
      </trkpt>
      <trkpt lat="43.1761" lon="2.0449">
        <ele>267.746</ele>
        <time>2016-04-13T17:15:52Z</time>
      </trkpt>
      <trkpt lat="43.17656" lon="2.04485">
        <ele>269.488</ele>
        <time>2016-04-13T17:16:12Z</time>
      </trkpt>
      <trkpt lat="43.17696" lon="2.04472">
        <ele>268.916</ele>
        <time>2016-04-13T17:16:32Z</time>
      </trkpt>
      <trkpt lat="43.17746" lon="2.04494">
        <ele>263.408</ele>
        <time>2016-04-13T17:16:52Z</time>
      </trkpt>
      <trkpt lat="43.17808" lon="2.04486">
        <ele>266.68</ele>
        <time>2016-04-13T17:17:12Z</time>
      </trkpt>
      <trkpt lat="43.1784" lon="2.04493">
        <ele>265.199</ele>
        <time>2016-04-13T17:17:32Z</time>
      </trkpt>
      <trkpt lat="43.17862" lon="2.04493">
        <ele>263.435</ele>
        <time>2016-04-13T17:17:52Z</time>
      </trkpt>
      <trkpt lat="43.17864" lon="2.04462">
        <ele>265.421</ele>
        <time>2016-04-13T17:18:12Z</time>
      </trkpt>
      <trkpt lat="43.17853" lon="2.04415">
        <ele>269.772</ele>
        <time>2016-04-13T17:18:32Z</time>
      </trkpt>
      <trkpt lat="43.17861" lon="2.04383">
        <ele>270.954</ele>
        <time>2016-04-13T17:18:52Z</time>
      </trkpt>
      <trkpt lat="43.17909" lon="2.04286">
        <ele>269.547</ele>
        <time>2016-04-13T17:19:12Z</time>
      </trkpt>
      <trkpt lat="43.17929" lon="2.04187">
        <ele>278.189</ele>
        <time>2016-04-13T17:19:32Z</time>
      </trkpt>
      <trkpt lat="43.17937" lon="2.04108">
        <ele>290.798</ele>
        <time>2016-04-13T17:19:52Z</time>
      </trkpt>
      <trkpt lat="43.17979" lon="2.04029">
        <ele>293.415</ele>
        <time>2016-04-13T17:20:12Z</time>
      </trkpt>
      <trkpt lat="43.18015" lon="2.03983">
        <ele>296.826</ele>
        <time>2016-04-13T17:20:32Z</time>
      </trkpt>
      <trkpt lat="43.18067" lon="2.0395">
        <ele>299.108</ele>
        <time>2016-04-13T17:20:52Z</time>
      </trkpt>
      <trkpt lat="43.18068" lon="2.03928">
        <ele>301.665</ele>
        <time>2016-04-13T17:21:12Z</time>
      </trkpt>
      <trkpt lat="43.1821" lon="2.03783">
        <ele>323.724</ele>
        <time>2016-04-13T17:21:32Z</time>
      </trkpt>
      <trkpt lat="43.18361" lon="2.03683">
        <ele>339.83</ele>
        <time>2016-04-13T17:21:52Z</time>
      </trkpt>
      <trkpt lat="43.18502" lon="2.0353">
        <ele>334.986</ele>
        <time>2016-04-13T17:22:12Z</time>
      </trkpt>
      <trkpt lat="43.18495" lon="2.03496">
        <ele>334.517</ele>
        <time>2016-04-13T17:22:32Z</time>
      </trkpt>
      <trkpt lat="43.18495" lon="2.03439">
        <ele>331.749</ele>
        <time>2021-02-05T18:10:51Z</time>
      </trkpt>
      <trkpt lat="43.18244" lon="2.03409">
        <ele>351.012</ele>
        <time>2016-04-13T17:23:12Z</time>
      </trkpt>
      <trkpt lat="43.18104" lon="2.0333">
        <ele>350.764</ele>
        <time>2016-04-13T17:23:32Z</time>
      </trkpt>
      <trkpt lat="43.18073" lon="2.03272">
        <ele>347.553</ele>
        <time>2016-04-13T17:23:52Z</time>
      </trkpt>
      <trkpt lat="43.17968" lon="2.03235">
        <ele>349.604</ele>
        <time>2016-04-13T17:24:12Z</time>
      </trkpt>
      <trkpt lat="43.17888" lon="2.03156">
        <ele>353.014</ele>
        <time>2016-04-13T17:24:32Z</time>
      </trkpt>
      <trkpt lat="43.17538" lon="2.0297">
        <ele>354.908</ele>
        <time>2016-04-13T17:24:52Z</time>
      </trkpt>
      <trkpt lat="43.17284" lon="2.02904">
        <ele>339.911</ele>
        <time>2016-04-13T17:25:12Z</time>
      </trkpt>
      <trkpt lat="43.17168" lon="2.02789">
        <ele>329.24</ele>
        <time>2016-04-13T17:25:32Z</time>
      </trkpt>
      <trkpt lat="43.17006" lon="2.02648">
        <ele>334.126</ele>
        <time>2016-04-13T17:25:52Z</time>
      </trkpt>
      <trkpt lat="43.1683" lon="2.02506">
        <ele>355.272</ele>
        <time>2016-04-13T17:26:12Z</time>
      </trkpt>
      <trkpt lat="43.16702" lon="2.02416">
        <ele>362.283</ele>
        <time>2016-04-13T17:26:32Z</time>
      </trkpt>
      <trkpt lat="43.16589" lon="2.02378">
        <ele>368.645</ele>
        <time>2016-04-13T17:26:52Z</time>
      </trkpt>
      <trkpt lat="43.16519" lon="2.02375">
        <ele>370.268</ele>
        <time>2016-04-13T17:27:12Z</time>
      </trkpt>
      <trkpt lat="43.16397" lon="2.02323">
        <ele>375.74</ele>
        <time>2016-04-13T17:27:32Z</time>
      </trkpt>
      <trkpt lat="43.16357" lon="2.02336">
        <ele>374.987</ele>
        <time>2016-04-13T17:27:52Z</time>
      </trkpt>
      <trkpt lat="43.16292" lon="2.02391">
        <ele>377.242</ele>
        <time>2016-04-13T17:28:12Z</time>
      </trkpt>
      <trkpt lat="43.16199" lon="2.0233">
        <ele>375.926</ele>
        <time>2016-04-13T17:28:32Z</time>
      </trkpt>
      <trkpt lat="43.16154" lon="2.02265">
        <ele>377.908</ele>
        <time>2016-04-13T17:28:52Z</time>
      </trkpt>
      <trkpt lat="43.16128" lon="2.02132">
        <ele>384.644</ele>
        <time>2016-04-13T17:29:12Z</time>
      </trkpt>
      <trkpt lat="43.16072" lon="2.0202">
        <ele>390.033</ele>
        <time>2016-04-13T17:29:32Z</time>
      </trkpt>
      <trkpt lat="43.16013" lon="2.01933">
        <ele>391.259</ele>
        <time>2016-04-13T17:29:52Z</time>
      </trkpt>
      <trkpt lat="43.15991" lon="2.01848">
        <ele>391.855</ele>
        <time>2016-04-13T17:30:12Z</time>
      </trkpt>
      <trkpt lat="43.15966" lon="2.01821">
        <ele>392.736</ele>
        <time>2016-04-13T17:30:32Z</time>
      </trkpt>
      <trkpt lat="43.15866" lon="2.01803">
        <ele>402.378</ele>
        <time>2016-04-13T17:30:52Z</time>
      </trkpt>
      <trkpt lat="43.15811" lon="2.01876">
        <ele>396.141</ele>
        <time>2016-04-13T17:31:12Z</time>
      </trkpt>
      <trkpt lat="43.15752" lon="2.0193">
        <ele>391.923</ele>
        <time>2016-04-13T17:31:32Z</time>
      </trkpt>
      <trkpt lat="43.15713" lon="2.01994">
        <ele>386.487</ele>
        <time>2016-04-13T17:31:52Z</time>
      </trkpt>
      <trkpt lat="43.15678" lon="2.01934">
        <ele>387.442</ele>
        <time>2016-04-13T17:32:12Z</time>
      </trkpt>
      <trkpt lat="43.15641" lon="2.01754">
        <ele>391.026</ele>
        <time>2016-04-13T17:32:32Z</time>
      </trkpt>
      <trkpt lat="43.15638" lon="2.01692">
        <ele>390.708</ele>
        <time>2016-04-13T17:32:52Z</time>
      </trkpt>
      <trkpt lat="43.15613" lon="2.0156">
        <ele>384.484</ele>
        <time>2016-04-13T17:33:12Z</time>
      </trkpt>
      <trkpt lat="43.15588" lon="2.01516">
        <ele>378.743</ele>
        <time>2016-04-13T17:33:32Z</time>
      </trkpt>
      <trkpt lat="43.15416" lon="2.01302">
        <ele>362.149</ele>
        <time>2016-04-13T17:33:52Z</time>
      </trkpt>
      <trkpt lat="43.15389" lon="2.01251">
        <ele>360.015</ele>
        <time>2016-04-13T17:34:12Z</time>
      </trkpt>
      <trkpt lat="43.15335" lon="2.01268">
        <ele>355.186</ele>
        <time>2016-04-13T17:34:32Z</time>
      </trkpt>
      <trkpt lat="43.15276" lon="2.0125">
        <ele>355.098</ele>
        <time>2016-04-13T17:34:52Z</time>
      </trkpt>
      <trkpt lat="43.15243" lon="2.01258">
        <ele>355.411</ele>
        <time>2016-04-13T17:35:12Z</time>
      </trkpt>
      <trkpt lat="43.15044" lon="2.01249">
        <ele>350.183</ele>
        <time>2016-04-13T17:35:32Z</time>
      </trkpt>
      <trkpt lat="43.14817" lon="2.01089">
        <ele>353.198</ele>
        <time>2016-04-13T17:35:52Z</time>
      </trkpt>
      <trkpt lat="43.14772" lon="2.01018">
        <ele>353.215</ele>
        <time>2016-04-13T17:36:12Z</time>
      </trkpt>
      <trkpt lat="43.14652" lon="2.00877">
        <ele>367.626</ele>
        <time>2016-04-13T17:36:32Z</time>
      </trkpt>
      <trkpt lat="43.14608" lon="2.00763">
        <ele>373.808</ele>
        <time>2016-04-13T17:36:52Z</time>
      </trkpt>
      <trkpt lat="43.14581" lon="2.00705">
        <ele>379.435</ele>
        <time>2016-04-13T17:37:12Z</time>
      </trkpt>
      <trkpt lat="43.14572" lon="2.00667">
        <ele>382.064</ele>
        <time>2016-04-13T17:37:32Z</time>
      </trkpt>
      <trkpt lat="43.1455" lon="2.00628">
        <ele>382.52</ele>
        <time>2016-04-13T17:37:52Z</time>
      </trkpt>
      <trkpt lat="43.14529" lon="2.00556">
        <ele>385.196</ele>
        <time>2016-04-13T17:38:12Z</time>
      </trkpt>
      <trkpt lat="43.1449" lon="2.00477">
        <ele>392.617</ele>
        <time>2016-04-13T17:38:32Z</time>
      </trkpt>
      <trkpt lat="43.14467" lon="2.0047">
        <ele>396.749</ele>
        <time>2016-04-13T17:38:52Z</time>
      </trkpt>
      <trkpt lat="43.14443" lon="2.00489">
        <ele>397.542</ele>
        <time>2016-04-13T17:39:12Z</time>
      </trkpt>
      <trkpt lat="43.14429" lon="2.0049">
        <ele>395.524</ele>
        <time>2016-04-13T17:39:32Z</time>
      </trkpt>
      <trkpt lat="43.14429" lon="2.00353">
        <ele>388.111</ele>
        <time>2016-04-13T17:39:52Z</time>
      </trkpt>
      <trkpt lat="43.14412" lon="2.00294">
        <ele>381.921</ele>
        <time>2016-04-13T17:40:12Z</time>
      </trkpt>
      <trkpt lat="43.14347" lon="2.00276">
        <ele>383.203</ele>
        <time>2016-04-13T17:40:32Z</time>
      </trkpt>
      <trkpt lat="43.14264" lon="2.00207">
        <ele>380.808</ele>
        <time>2016-04-13T17:40:52Z</time>
      </trkpt>
      <trkpt lat="43.14227" lon="2.00159">
        <ele>377.527</ele>
        <time>2016-04-13T17:41:12Z</time>
      </trkpt>
      <trkpt lat="43.14196" lon="2.00111">
        <ele>377.136</ele>
        <time>2016-04-13T17:41:32Z</time>
      </trkpt>
      <trkpt lat="43.14103" lon="2.00157">
        <ele>383.812</ele>
        <time>2016-04-13T17:41:52Z</time>
      </trkpt>
      <trkpt lat="43.14049" lon="2.00157">
        <ele>393.858</ele>
        <time>2016-04-13T17:42:12Z</time>
      </trkpt>
      <trkpt lat="43.14031" lon="2.00143">
        <ele>394.939</ele>
        <time>2016-04-13T17:42:32Z</time>
      </trkpt>
      <trkpt lat="43.13948" lon="2.00153">
        <ele>392.851</ele>
        <time>2016-04-13T17:42:52Z</time>
      </trkpt>
      <trkpt lat="43.13841" lon="2.00201">
        <ele>396.944</ele>
        <time>2016-04-13T17:43:12Z</time>
      </trkpt>
      <trkpt lat="43.13761" lon="2.00204">
        <ele>399.696</ele>
        <time>2016-04-13T17:43:32Z</time>
      </trkpt>
      <trkpt lat="43.13712" lon="2.00149">
        <ele>397.089</ele>
        <time>2016-04-13T17:43:52Z</time>
      </trkpt>
      <trkpt lat="43.13643" lon="2.00118">
        <ele>397.406</ele>
        <time>2016-04-13T17:44:12Z</time>
      </trkpt>
      <trkpt lat="43.13589" lon="2.00115">
        <ele>399.626</ele>
        <time>2016-04-13T17:44:32Z</time>
      </trkpt>
      <trkpt lat="43.13456" lon="2.00083">
        <ele>405.308</ele>
        <time>2016-04-13T17:44:52Z</time>
      </trkpt>
      <trkpt lat="43.13368" lon="2.00032">
        <ele>406.044</ele>
        <time>2016-04-13T17:45:12Z</time>
      </trkpt>
      <trkpt lat="43.13333" lon="2.00038">
        <ele>406.483</ele>
        <time>2016-04-13T17:45:32Z</time>
      </trkpt>
      <trkpt lat="43.13232" lon="2.00137">
        <ele>405.519</ele>
        <time>2016-04-13T17:45:52Z</time>
      </trkpt>
      <trkpt lat="43.1309" lon="2.00162">
        <ele>406.255</ele>
        <time>2016-04-13T17:46:12Z</time>
      </trkpt>
      <trkpt lat="43.13034" lon="2.00148">
        <ele>406.996</ele>
        <time>2016-04-13T17:46:32Z</time>
      </trkpt>
      <trkpt lat="43.12978" lon="2.00165">
        <ele>407.318</ele>
        <time>2016-04-13T17:46:52Z</time>
      </trkpt>
      <trkpt lat="43.12932" lon="2.00107">
        <ele>411.851</ele>
        <time>2016-04-13T17:47:12Z</time>
      </trkpt>
      <trkpt lat="43.12901" lon="2.00099">
        <ele>413.653</ele>
        <time>2016-04-13T17:47:32Z</time>
      </trkpt>
      <trkpt lat="43.12892" lon="2.00108">
        <ele>414.465</ele>
        <time>2021-02-05T18:35:51Z</time>
      </trkpt>
      <trkpt lat="43.12896" lon="2.00156">
        <ele>416.068</ele>
        <time>2021-02-05T18:36:11Z</time>
      </trkpt>
      <trkpt lat="43.12868" lon="2.00156">
        <ele>412.514</ele>
        <time>2021-02-05T18:36:31Z</time>
      </trkpt>
      <trkpt lat="43.12866" lon="2.00124">
        <ele>409.208</ele>
        <time>2016-04-13T17:47:52Z</time>
      </trkpt>
      <trkpt lat="43.12839" lon="2.00065">
        <ele>404.442</ele>
        <time>2016-04-13T17:48:12Z</time>
      </trkpt>
      <trkpt lat="43.12819" lon="2.00092">
        <ele>402.051</ele>
        <time>2016-04-13T17:48:32Z</time>
      </trkpt>
      <trkpt lat="43.12805" lon="2.00148">
        <ele>398.017</ele>
        <time>2016-04-13T17:48:52Z</time>
      </trkpt>
      <trkpt lat="43.1278" lon="2.00166">
        <ele>394.253</ele>
        <time>2016-04-13T17:49:12Z</time>
      </trkpt>
      <trkpt lat="43.12715" lon="2.00168">
        <ele>393.524</ele>
        <time>2016-04-13T17:49:32Z</time>
      </trkpt>
      <trkpt lat="43.12616" lon="2.0011">
        <ele>400.486</ele>
        <time>2016-04-13T17:49:52Z</time>
      </trkpt>
      <trkpt lat="43.12534" lon="2.00088">
        <ele>400.929</ele>
        <time>2016-04-13T17:50:12Z</time>
      </trkpt>
      <trkpt lat="43.1249" lon="2.00113">
        <ele>396.281</ele>
        <time>2016-04-13T17:50:32Z</time>
      </trkpt>
      <trkpt lat="43.12418" lon="2.00132">
        <ele>397.556</ele>
        <time>2016-04-13T17:50:52Z</time>
      </trkpt>
      <trkpt lat="43.12394" lon="2.00151">
        <ele>394.259</ele>
        <time>2016-04-13T17:51:12Z</time>
      </trkpt>
      <trkpt lat="43.12365" lon="2.00146">
        <ele>394.514</ele>
        <time>2016-04-13T17:51:32Z</time>
      </trkpt>
      <trkpt lat="43.12325" lon="2.00072">
        <ele>390.708</ele>
        <time>2016-04-13T17:51:52Z</time>
      </trkpt>
      <trkpt lat="43.12294" lon="2.00044">
        <ele>389.261</ele>
        <time>2016-04-13T17:52:12Z</time>
      </trkpt>
      <trkpt lat="43.12233" lon="2.00065">
        <ele>386.96</ele>
        <time>2016-04-13T17:52:32Z</time>
      </trkpt>
      <trkpt lat="43.12162" lon="1.99971">
        <ele>384.986</ele>
        <time>2016-04-13T17:52:52Z</time>
      </trkpt>
      <trkpt lat="43.12142" lon="1.99971">
        <ele>384.982</ele>
        <time>2016-04-13T17:53:12Z</time>
      </trkpt>
      <trkpt lat="43.12117" lon="1.99993">
        <ele>386.013</ele>
        <time>2016-04-13T17:53:32Z</time>
      </trkpt>
      <trkpt lat="43.12009" lon="2.0003">
        <ele>380.725</ele>
        <time>2016-04-13T17:53:52Z</time>
      </trkpt>
      <trkpt lat="43.11745" lon="1.9994">
        <ele>387.878</ele>
        <time>2016-04-13T17:54:12Z</time>
      </trkpt>
      <trkpt lat="43.11699" lon="1.99932">
        <ele>395.19</ele>
        <time>2016-04-13T17:54:32Z</time>
      </trkpt>
      <trkpt lat="43.11645" lon="1.9987">
        <ele>407.333</ele>
        <time>2016-04-13T17:54:52Z</time>
      </trkpt>
      <trkpt lat="43.11555" lon="1.99847">
        <ele>417.623</ele>
        <time>2016-04-13T17:55:12Z</time>
      </trkpt>
      <trkpt lat="43.11521" lon="1.99862">
        <ele>421.715</ele>
        <time>2016-04-13T17:55:32Z</time>
      </trkpt>
      <trkpt lat="43.1146" lon="1.9991">
        <ele>433.508</ele>
        <time>2016-04-13T17:55:52Z</time>
      </trkpt>
      <trkpt lat="43.11385" lon="1.999">
        <ele>431.259</ele>
        <time>2016-04-13T17:56:12Z</time>
      </trkpt>
      <trkpt lat="43.11301" lon="1.99841">
        <ele>432.578</ele>
        <time>2016-04-13T17:56:32Z</time>
      </trkpt>
      <trkpt lat="43.11218" lon="1.99812">
        <ele>436.524</ele>
        <time>2016-04-13T17:56:52Z</time>
      </trkpt>
      <trkpt lat="43.11144" lon="1.99817">
        <ele>436.74</ele>
        <time>2016-04-13T17:57:12Z</time>
      </trkpt>
      <trkpt lat="43.11092" lon="1.99842">
        <ele>441.751</ele>
        <time>2016-04-13T17:57:32Z</time>
      </trkpt>
      <trkpt lat="43.11012" lon="1.99857">
        <ele>448.483</ele>
        <time>2016-04-13T17:57:52Z</time>
      </trkpt>
      <trkpt lat="43.1094" lon="1.99845">
        <ele>449.436</ele>
        <time>2016-04-13T17:58:12Z</time>
      </trkpt>
      <trkpt lat="43.10915" lon="1.99797">
        <ele>447.298</ele>
        <time>2016-04-13T17:58:32Z</time>
      </trkpt>
      <trkpt lat="43.10918" lon="1.99743">
        <ele>444.441</ele>
        <time>2016-04-13T17:58:52Z</time>
      </trkpt>
      <trkpt lat="43.10904" lon="1.99702">
        <ele>443.681</ele>
        <time>2016-04-13T17:59:12Z</time>
      </trkpt>
      <trkpt lat="43.10882" lon="1.99676">
        <ele>445.609</ele>
        <time>2016-04-13T17:59:32Z</time>
      </trkpt>
      <trkpt lat="43.10875" lon="1.99595">
        <ele>447.308</ele>
        <time>2016-04-13T17:59:52Z</time>
      </trkpt>
      <trkpt lat="43.10865" lon="1.99558">
        <ele>443.75</ele>
        <time>2016-04-13T18:00:12Z</time>
      </trkpt>
      <trkpt lat="43.10869" lon="1.99469">
        <ele>442.789</ele>
        <time>2016-04-13T18:00:32Z</time>
      </trkpt>
      <trkpt lat="43.10863" lon="1.9938">
        <ele>444.335</ele>
        <time>2016-04-13T18:00:52Z</time>
      </trkpt>
      <trkpt lat="43.10891" lon="1.99261">
        <ele>442.111</ele>
        <time>2016-04-13T18:01:12Z</time>
      </trkpt>
      <trkpt lat="43.10883" lon="1.99214">
        <ele>440.582</ele>
        <time>2016-04-13T18:01:32Z</time>
      </trkpt>
      <trkpt lat="43.10891" lon="1.99154">
        <ele>440.574</ele>
        <time>2016-04-13T18:01:52Z</time>
      </trkpt>
      <trkpt lat="43.10898" lon="1.99079">
        <ele>438.937</ele>
        <time>2016-04-13T18:02:12Z</time>
      </trkpt>
      <trkpt lat="43.10919" lon="1.99039">
        <ele>436.849</ele>
        <time>2016-04-13T18:02:32Z</time>
      </trkpt>
      <trkpt lat="43.10952" lon="1.99029">
        <ele>435.248</ele>
        <time>2016-04-13T18:02:52Z</time>
      </trkpt>
      <trkpt lat="43.1098" lon="1.98912">
        <ele>433.861</ele>
        <time>2016-04-13T18:03:12Z</time>
      </trkpt>
      <trkpt lat="43.10989" lon="1.98681">
        <ele>434.217</ele>
        <time>2016-04-13T18:03:32Z</time>
      </trkpt>
      <trkpt lat="43.11005" lon="1.98612">
        <ele>433.508</ele>
        <time>2016-04-13T18:03:52Z</time>
      </trkpt>
      <trkpt lat="43.11025" lon="1.98528">
        <ele>432.43</ele>
        <time>2016-04-13T18:04:12Z</time>
      </trkpt>
      <trkpt lat="43.11026" lon="1.98436">
        <ele>433.089</ele>
        <time>2016-04-13T18:04:32Z</time>
      </trkpt>
      <trkpt lat="43.11021" lon="1.98386">
        <ele>431.445</ele>
        <time>2016-04-13T18:04:52Z</time>
      </trkpt>
      <trkpt lat="43.11026" lon="1.98305">
        <ele>433.831</ele>
        <time>2016-04-13T18:05:12Z</time>
      </trkpt>
      <trkpt lat="43.11008" lon="1.98263">
        <ele>435.982</ele>
        <time>2016-04-13T18:05:32Z</time>
      </trkpt>
      <trkpt lat="43.11003" lon="1.98215">
        <ele>439.174</ele>
        <time>2016-04-13T18:05:52Z</time>
      </trkpt>
      <trkpt lat="43.10857" lon="1.9805">
        <ele>433.127</ele>
        <time>2016-04-13T18:06:12Z</time>
      </trkpt>
      <trkpt lat="43.10843" lon="1.98008">
        <ele>431.799</ele>
        <time>2016-04-13T18:06:32Z</time>
      </trkpt>
      <trkpt lat="43.10828" lon="1.97934">
        <ele>428.136</ele>
        <time>2016-04-13T18:06:52Z</time>
      </trkpt>
      <trkpt lat="43.10777" lon="1.9788">
        <ele>429.317</ele>
        <time>2016-04-13T18:07:12Z</time>
      </trkpt>
      <trkpt lat="43.10768" lon="1.97854">
        <ele>425.718</ele>
        <time>2016-04-13T18:07:32Z</time>
      </trkpt>
      <trkpt lat="43.10759" lon="1.97778">
        <ele>419.408</ele>
        <time>2016-04-13T18:07:52Z</time>
      </trkpt>
      <trkpt lat="43.10741" lon="1.97693">
        <ele>416.729</ele>
        <time>2016-04-13T18:08:12Z</time>
      </trkpt>
      <trkpt lat="43.10736" lon="1.97584">
        <ele>416.528</ele>
        <time>2016-04-13T18:08:32Z</time>
      </trkpt>
      <trkpt lat="43.10725" lon="1.9743">
        <ele>415.184</ele>
        <time>2016-04-13T18:08:52Z</time>
      </trkpt>
      <trkpt lat="43.1073" lon="1.97387">
        <ele>412.86</ele>
        <time>2016-04-13T18:09:12Z</time>
      </trkpt>
      <trkpt lat="43.10705" lon="1.97385">
        <ele>411.131</ele>
        <time>2016-04-13T18:09:32Z</time>
      </trkpt>
      <trkpt lat="43.10706" lon="1.97356">
        <ele>412.483</ele>
        <time>2016-04-13T18:09:52Z</time>
      </trkpt>
      <trkpt lat="43.10689" lon="1.97287">
        <ele>414.386</ele>
        <time>2016-04-13T18:10:12Z</time>
      </trkpt>
      <trkpt lat="43.10641" lon="1.97192">
        <ele>416.758</ele>
        <time>2016-04-13T18:10:32Z</time>
      </trkpt>
      <trkpt lat="43.10634" lon="1.97127">
        <ele>415.945</ele>
        <time>2016-04-13T18:10:52Z</time>
      </trkpt>
      <trkpt lat="43.10646" lon="1.97054">
        <ele>420.147</ele>
        <time>2016-04-13T18:11:12Z</time>
      </trkpt>
      <trkpt lat="43.1064" lon="1.96983">
        <ele>420.811</ele>
        <time>2016-04-13T18:11:32Z</time>
      </trkpt>
      <trkpt lat="43.10646" lon="1.96924">
        <ele>419.308</ele>
        <time>2016-04-13T18:11:52Z</time>
      </trkpt>
      <trkpt lat="43.10661" lon="1.96852">
        <ele>416.94</ele>
        <time>2016-04-13T18:12:12Z</time>
      </trkpt>
      <trkpt lat="43.10672" lon="1.96817">
        <ele>417.199</ele>
        <time>2016-04-13T18:12:32Z</time>
      </trkpt>
      <trkpt lat="43.10672" lon="1.96778">
        <ele>415.125</ele>
        <time>2016-04-13T18:12:52Z</time>
      </trkpt>
      <trkpt lat="43.10648" lon="1.9655">
        <ele>421.431</ele>
        <time>2016-04-13T18:13:12Z</time>
      </trkpt>
      <trkpt lat="43.10636" lon="1.96497">
        <ele>418.212</ele>
        <time>2016-04-13T18:13:32Z</time>
      </trkpt>
      <trkpt lat="43.10641" lon="1.96441">
        <ele>416.834</ele>
        <time>2016-04-13T18:13:52Z</time>
      </trkpt>
      <trkpt lat="43.10636" lon="1.96356">
        <ele>412.837</ele>
        <time>2016-04-13T18:14:12Z</time>
      </trkpt>
      <trkpt lat="43.10613" lon="1.96275">
        <ele>406.039</ele>
        <time>2016-04-13T18:14:32Z</time>
      </trkpt>
      <trkpt lat="43.10551" lon="1.96192">
        <ele>408.113</ele>
        <time>2016-04-13T18:14:52Z</time>
      </trkpt>
      <trkpt lat="43.10499" lon="1.96171">
        <ele>414.443</ele>
        <time>2016-04-13T18:15:12Z</time>
      </trkpt>
      <trkpt lat="43.10456" lon="1.9615">
        <ele>411.807</ele>
        <time>2016-04-13T18:15:32Z</time>
      </trkpt>
      <trkpt lat="43.10414" lon="1.96143">
        <ele>409.008</ele>
        <time>2016-04-13T18:15:52Z</time>
      </trkpt>
      <trkpt lat="43.1047" lon="1.96092">
        <ele>406.927</ele>
        <time>2016-04-13T18:16:12Z</time>
      </trkpt>
      <trkpt lat="43.10539" lon="1.96019">
        <ele>410.736</ele>
        <time>2016-04-13T18:16:32Z</time>
      </trkpt>
      <trkpt lat="43.10569" lon="1.95994">
        <ele>411.712</ele>
        <time>2016-04-13T18:16:52Z</time>
      </trkpt>
      <trkpt lat="43.10655" lon="1.95908">
        <ele>405.098</ele>
        <time>2016-04-13T18:17:12Z</time>
      </trkpt>
      <trkpt lat="43.10666" lon="1.95716">
        <ele>389.619</ele>
        <time>2016-04-13T18:17:32Z</time>
      </trkpt>
      <trkpt lat="43.10679" lon="1.95633">
        <ele>384.431</ele>
        <time>2016-04-13T18:17:52Z</time>
      </trkpt>
      <trkpt lat="43.107" lon="1.95576">
        <ele>379.224</ele>
        <time>2016-04-13T18:18:12Z</time>
      </trkpt>
      <trkpt lat="43.10742" lon="1.95523">
        <ele>373.756</ele>
        <time>2016-04-13T18:18:32Z</time>
      </trkpt>
      <trkpt lat="43.10789" lon="1.95434">
        <ele>372.922</ele>
        <time>2016-04-13T18:18:52Z</time>
      </trkpt>
      <trkpt lat="43.10826" lon="1.95422">
        <ele>370.462</ele>
        <time>2016-04-13T18:19:12Z</time>
      </trkpt>
      <trkpt lat="43.10889" lon="1.95386">
        <ele>371.008</ele>
        <time>2016-04-13T18:19:32Z</time>
      </trkpt>
      <trkpt lat="43.10918" lon="1.95363">
        <ele>372.108</ele>
        <time>2016-04-13T18:19:52Z</time>
      </trkpt>
      <trkpt lat="43.10937" lon="1.95353">
        <ele>369.348</ele>
        <time>2016-04-13T18:20:12Z</time>
      </trkpt>
      <trkpt lat="43.10977" lon="1.95321">
        <ele>367.337</ele>
        <time>2016-04-13T18:20:32Z</time>
      </trkpt>
      <trkpt lat="43.11015" lon="1.95246">
        <ele>368.123</ele>
        <time>2016-04-13T18:20:52Z</time>
      </trkpt>
      <trkpt lat="43.1105" lon="1.95163">
        <ele>364.499</ele>
        <time>2016-04-13T18:21:12Z</time>
      </trkpt>
      <trkpt lat="43.11084" lon="1.94987">
        <ele>358.37</ele>
        <time>2016-04-13T18:21:32Z</time>
      </trkpt>
      <trkpt lat="43.11173" lon="1.94816">
        <ele>355.392</ele>
        <time>2016-04-13T18:21:52Z</time>
      </trkpt>
      <trkpt lat="43.11204" lon="1.94633">
        <ele>347.225</ele>
        <time>2016-04-13T18:22:12Z</time>
      </trkpt>
      <trkpt lat="43.11199" lon="1.94558">
        <ele>345.557</ele>
        <time>2016-04-13T18:22:32Z</time>
      </trkpt>
      <trkpt lat="43.11174" lon="1.94489">
        <ele>346.595</ele>
        <time>2016-04-13T18:22:52Z</time>
      </trkpt>
      <trkpt lat="43.11143" lon="1.94257">
        <ele>343.649</ele>
        <time>2016-04-13T18:23:12Z</time>
      </trkpt>
      <trkpt lat="43.11121" lon="1.9414">
        <ele>339.023</ele>
        <time>2016-04-13T18:23:32Z</time>
      </trkpt>
      <trkpt lat="43.1111" lon="1.94007">
        <ele>338.008</ele>
        <time>2016-04-13T18:23:52Z</time>
      </trkpt>
      <trkpt lat="43.11089" lon="1.93976">
        <ele>337.935</ele>
        <time>2016-04-13T18:24:12Z</time>
      </trkpt>
      <trkpt lat="43.11089" lon="1.93919">
        <ele>335.994</ele>
        <time>2016-04-13T18:24:32Z</time>
      </trkpt>
      <trkpt lat="43.11053" lon="1.93779">
        <ele>336.43</ele>
        <time>2016-04-13T18:24:52Z</time>
      </trkpt>
      <trkpt lat="43.11034" lon="1.93662">
        <ele>337.866</ele>
        <time>2016-04-13T18:25:12Z</time>
      </trkpt>
      <trkpt lat="43.11014" lon="1.93626">
        <ele>337.837</ele>
        <time>2016-04-13T18:25:32Z</time>
      </trkpt>
      <trkpt lat="43.10988" lon="1.93549">
        <ele>337.569</ele>
        <time>2016-04-13T18:25:52Z</time>
      </trkpt>
      <trkpt lat="43.10956" lon="1.93485">
        <ele>338.812</ele>
        <time>2016-04-13T18:26:12Z</time>
      </trkpt>
      <trkpt lat="43.10943" lon="1.93408">
        <ele>337.714</ele>
        <time>2016-04-13T18:26:32Z</time>
      </trkpt>
      <trkpt lat="43.10918" lon="1.9335">
        <ele>337.092</ele>
        <time>2016-04-13T18:26:52Z</time>
      </trkpt>
      <trkpt lat="43.10973" lon="1.9325">
        <ele>329.073</ele>
        <time>2016-04-13T18:27:12Z</time>
      </trkpt>
      <trkpt lat="43.10989" lon="1.93239">
        <ele>329.62</ele>
        <time>2016-04-13T18:27:32Z</time>
      </trkpt>
      <trkpt lat="43.10993" lon="1.93162">
        <ele>329.608</ele>
        <time>2016-04-13T18:27:52Z</time>
      </trkpt>
      <trkpt lat="43.11018" lon="1.93138">
        <ele>329.665</ele>
        <time>2016-04-13T18:28:12Z</time>
      </trkpt>
      <trkpt lat="43.11078" lon="1.93104">
        <ele>334.174</ele>
        <time>2016-04-13T18:28:32Z</time>
      </trkpt>
      <trkpt lat="43.11089" lon="1.93087">
        <ele>336.13</ele>
        <time>2016-04-13T18:28:52Z</time>
      </trkpt>
      <trkpt lat="43.11024" lon="1.92911">
        <ele>336.246</ele>
        <time>2016-04-13T18:35:32Z</time>
      </trkpt>
      <trkpt lat="43.11041" lon="1.92676">
        <ele>330.567</ele>
        <time>2016-04-13T18:35:52Z</time>
      </trkpt>
      <trkpt lat="43.11051" lon="1.92654">
        <ele>330.429</ele>
        <time>2016-04-13T18:36:12Z</time>
      </trkpt>
      <trkpt lat="43.10917" lon="1.92527">
        <ele>327.112</ele>
        <time>2016-04-13T18:36:32Z</time>
      </trkpt>
      <trkpt lat="43.10922" lon="1.92503">
        <ele>328.814</ele>
        <time>2016-04-13T18:36:52Z</time>
      </trkpt>
      <trkpt lat="43.10916" lon="1.9249">
        <ele>330.457</ele>
        <time>2016-04-13T18:37:12Z</time>
      </trkpt>
      <trkpt lat="43.10884" lon="1.92458">
        <ele>331.5</ele>
        <time>2016-04-13T18:37:32Z</time>
      </trkpt>
      <trkpt lat="43.10871" lon="1.92422">
        <ele>332.22</ele>
        <time>2016-04-13T18:37:52Z</time>
      </trkpt>
      <trkpt lat="43.10876" lon="1.92387">
        <ele>335.708</ele>
        <time>2016-04-13T18:38:12Z</time>
      </trkpt>
      <trkpt lat="43.10914" lon="1.92351">
        <ele>339.991</ele>
        <time>2016-04-13T18:38:32Z</time>
      </trkpt>
      <trkpt lat="43.11028" lon="1.92252">
        <ele>349.12</ele>
        <time>2016-04-13T18:38:52Z</time>
      </trkpt>
      <trkpt lat="43.1107" lon="1.92261">
        <ele>353.066</ele>
        <time>2016-04-13T18:39:12Z</time>
      </trkpt>
      <trkpt lat="43.11081" lon="1.92271">
        <ele>352.662</ele>
        <time>2016-04-13T18:39:32Z</time>
      </trkpt>
      <trkpt lat="43.11095" lon="1.92266">
        <ele>352.843</ele>
        <time>2016-04-13T18:39:52Z</time>
      </trkpt>
      <trkpt lat="43.11154" lon="1.92181">
        <ele>354.585</ele>
        <time>2016-04-13T18:40:12Z</time>
      </trkpt>
      <trkpt lat="43.11192" lon="1.92084">
        <ele>355.058</ele>
        <time>2016-04-13T18:40:32Z</time>
      </trkpt>
      <trkpt lat="43.11251" lon="1.91991">
        <ele>349.92</ele>
        <time>2016-04-13T18:40:52Z</time>
      </trkpt>
      <trkpt lat="43.11283" lon="1.91935">
        <ele>349.669</ele>
        <time>2016-04-13T18:41:12Z</time>
      </trkpt>
      <trkpt lat="43.11282" lon="1.91919">
        <ele>349.804</ele>
        <time>2016-04-13T18:41:32Z</time>
      </trkpt>
      <trkpt lat="43.11304" lon="1.91821">
        <ele>354.824</ele>
        <time>2016-04-13T18:41:52Z</time>
      </trkpt>
      <trkpt lat="43.11299" lon="1.91793">
        <ele>354.608</ele>
        <time>2016-04-13T18:42:12Z</time>
      </trkpt>
      <trkpt lat="43.11337" lon="1.91494">
        <ele>336.042</ele>
        <time>2016-04-13T18:42:32Z</time>
      </trkpt>
      <trkpt lat="43.11364" lon="1.91442">
        <ele>333.971</ele>
        <time>2016-04-13T18:42:52Z</time>
      </trkpt>
      <trkpt lat="43.11404" lon="1.91331">
        <ele>328.327</ele>
        <time>2016-04-13T18:43:12Z</time>
      </trkpt>
      <trkpt lat="43.11429" lon="1.91333">
        <ele>329.513</ele>
        <time>2016-04-13T18:43:32Z</time>
      </trkpt>
      <trkpt lat="43.11534" lon="1.91058">
        <ele>350.594</ele>
        <time>2016-04-13T18:43:52Z</time>
      </trkpt>
      <trkpt lat="43.11556" lon="1.90966">
        <ele>354.196</ele>
        <time>2016-04-13T18:44:12Z</time>
      </trkpt>
      <trkpt lat="43.11604" lon="1.90852">
        <ele>363.529</ele>
        <time>2016-04-13T18:44:32Z</time>
      </trkpt>
      <trkpt lat="43.11624" lon="1.90837">
        <ele>366.851</ele>
        <time>2016-04-13T18:44:52Z</time>
      </trkpt>
      <trkpt lat="43.11666" lon="1.90697">
        <ele>375.849</ele>
        <time>2016-04-13T18:45:12Z</time>
      </trkpt>
      <trkpt lat="43.11683" lon="1.90612">
        <ele>378.702</ele>
        <time>2016-04-13T18:45:32Z</time>
      </trkpt>
      <trkpt lat="43.11693" lon="1.90511">
        <ele>387.422</ele>
        <time>2016-04-13T18:46:12Z</time>
      </trkpt>
      <trkpt lat="43.1169" lon="1.90474">
        <ele>390.508</ele>
        <time>2016-04-13T18:46:32Z</time>
      </trkpt>
      <trkpt lat="43.11677" lon="1.90449">
        <ele>391.72</ele>
        <time>2016-04-13T18:46:52Z</time>
      </trkpt>
      <trkpt lat="43.11628" lon="1.90419">
        <ele>400.229</ele>
        <time>2016-04-13T18:47:12Z</time>
      </trkpt>
      <trkpt lat="43.11579" lon="1.90417">
        <ele>401.755</ele>
        <time>2016-04-13T18:47:32Z</time>
      </trkpt>
      <trkpt lat="43.11553" lon="1.90422">
        <ele>400.591</ele>
        <time>2016-04-13T18:47:52Z</time>
      </trkpt>
      <trkpt lat="43.11543" lon="1.90382">
        <ele>399.112</ele>
        <time>2016-04-13T18:48:12Z</time>
      </trkpt>
      <trkpt lat="43.11469" lon="1.90239">
        <ele>380.694</ele>
        <time>2016-04-13T18:48:32Z</time>
      </trkpt>
      <trkpt lat="43.11447" lon="1.9021">
        <ele>375.477</ele>
        <time>2016-04-13T18:48:52Z</time>
      </trkpt>
      <trkpt lat="43.11421" lon="1.90192">
        <ele>370.789</ele>
        <time>2016-04-13T18:49:12Z</time>
      </trkpt>
      <trkpt lat="43.11421" lon="1.90174">
        <ele>370.927</ele>
        <time>2016-04-13T18:49:32Z</time>
      </trkpt>
      <trkpt lat="43.11404" lon="1.90142">
        <ele>371.868</ele>
        <time>2016-04-13T18:49:52Z</time>
      </trkpt>
      <trkpt lat="43.11347" lon="1.89994">
        <ele>385.814</ele>
        <time>2016-04-13T18:53:52Z</time>
      </trkpt>
      <trkpt lat="43.11319" lon="1.89924">
        <ele>383.308</ele>
        <time>2016-04-13T18:54:12Z</time>
      </trkpt>
      <trkpt lat="43.11263" lon="1.89906">
        <ele>381.148</ele>
        <time>2016-04-13T18:54:32Z</time>
      </trkpt>
      <trkpt lat="43.11208" lon="1.89874">
        <ele>379.077</ele>
        <time>2016-04-13T18:54:52Z</time>
      </trkpt>
      <trkpt lat="43.11183" lon="1.89888">
        <ele>376.013</ele>
        <time>2016-04-13T18:55:12Z</time>
      </trkpt>
      <trkpt lat="43.11167" lon="1.89918">
        <ele>374.229</ele>
        <time>2016-04-13T18:55:32Z</time>
      </trkpt>
      <trkpt lat="43.11168" lon="1.89874">
        <ele>370.39</ele>
        <time>2016-04-13T18:55:52Z</time>
      </trkpt>
      <trkpt lat="43.11186" lon="1.898">
        <ele>363.142</ele>
        <time>2016-04-13T18:56:12Z</time>
      </trkpt>
      <trkpt lat="43.11224" lon="1.89715">
        <ele>354.125</ele>
        <time>2016-04-13T18:56:32Z</time>
      </trkpt>
      <trkpt lat="43.11246" lon="1.89643">
        <ele>345.227</ele>
        <time>2016-04-13T18:56:52Z</time>
      </trkpt>
      <trkpt lat="43.11239" lon="1.89635">
        <ele>344.241</ele>
        <time>2016-04-13T18:57:12Z</time>
      </trkpt>
      <trkpt lat="43.11223" lon="1.89665">
        <ele>346.981</ele>
        <time>2016-04-13T18:57:32Z</time>
      </trkpt>
      <trkpt lat="43.11136" lon="1.89645">
        <ele>346.809</ele>
        <time>2016-04-13T18:57:52Z</time>
      </trkpt>
      <trkpt lat="43.11113" lon="1.89653">
        <ele>348.508</ele>
        <time>2016-04-13T18:58:12Z</time>
      </trkpt>
      <trkpt lat="43.11088" lon="1.89707">
        <ele>348.38</ele>
        <time>2016-04-13T18:58:32Z</time>
      </trkpt>
      <trkpt lat="43.10999" lon="1.89731">
        <ele>337.899</ele>
        <time>2016-04-13T18:58:52Z</time>
      </trkpt>
      <trkpt lat="43.10933" lon="1.89725">
        <ele>328.495</ele>
        <time>2016-04-13T18:59:12Z</time>
      </trkpt>
      <trkpt lat="43.10914" lon="1.89677">
        <ele>324.911</ele>
        <time>2016-04-13T18:59:32Z</time>
      </trkpt>
      <trkpt lat="43.10878" lon="1.89675">
        <ele>323.672</ele>
        <time>2016-04-13T18:59:52Z</time>
      </trkpt>
      <trkpt lat="43.10857" lon="1.89618">
        <ele>323.864</ele>
        <time>2016-04-13T19:00:12Z</time>
      </trkpt>
      <trkpt lat="43.10847" lon="1.89611">
        <ele>324.067</ele>
        <time>2016-04-13T19:00:32Z</time>
      </trkpt>
      <trkpt lat="43.10831" lon="1.89586">
        <ele>326.819</ele>
        <time>2016-04-13T19:00:52Z</time>
      </trkpt>
      <trkpt lat="43.10774" lon="1.89581">
        <ele>328.117</ele>
        <time>2016-04-13T19:01:12Z</time>
      </trkpt>
      <trkpt lat="43.10687" lon="1.89561">
        <ele>329.687</ele>
        <time>2016-04-13T19:01:32Z</time>
      </trkpt>
      <trkpt lat="43.10647" lon="1.8952">
        <ele>329.815</ele>
        <time>2016-04-13T19:01:52Z</time>
      </trkpt>
      <trkpt lat="43.10621" lon="1.89511">
        <ele>328.608</ele>
        <time>2016-04-13T19:02:12Z</time>
      </trkpt>
      <trkpt lat="43.10573" lon="1.89524">
        <ele>330.127</ele>
        <time>2016-04-13T19:02:32Z</time>
      </trkpt>
      <trkpt lat="43.10521" lon="1.89475">
        <ele>338.556</ele>
        <time>2016-04-13T19:02:52Z</time>
      </trkpt>
      <trkpt lat="43.10499" lon="1.89476">
        <ele>340.862</ele>
        <time>2016-04-13T19:03:12Z</time>
      </trkpt>
      <trkpt lat="43.10414" lon="1.89525">
        <ele>347.598</ele>
        <time>2016-04-13T19:03:32Z</time>
      </trkpt>
      <trkpt lat="43.10427" lon="1.89483">
        <ele>349.929</ele>
        <time>2016-04-13T19:03:52Z</time>
      </trkpt>
      <trkpt lat="43.10445" lon="1.89345">
        <ele>359.231</ele>
        <time>2016-04-13T19:04:12Z</time>
      </trkpt>
      <trkpt lat="43.10505" lon="1.89268">
        <ele>364.394</ele>
        <time>2016-04-13T19:04:32Z</time>
      </trkpt>
      <trkpt lat="43.10541" lon="1.8918">
        <ele>362.256</ele>
        <time>2016-04-13T19:04:52Z</time>
      </trkpt>
      <trkpt lat="43.10586" lon="1.89125">
        <ele>359.464</ele>
        <time>2016-04-13T19:05:12Z</time>
      </trkpt>
      <trkpt lat="43.10638" lon="1.89077">
        <ele>352.406</ele>
        <time>2016-04-13T19:05:32Z</time>
      </trkpt>
      <trkpt lat="43.10654" lon="1.89037">
        <ele>346.016</ele>
        <time>2016-04-13T19:05:52Z</time>
      </trkpt>
      <trkpt lat="43.10656" lon="1.89011">
        <ele>343.208</ele>
        <time>2016-04-13T19:06:52Z</time>
      </trkpt>
      <trkpt lat="43.10644" lon="1.88984">
        <ele>340.082</ele>
        <time>2016-04-13T19:07:12Z</time>
      </trkpt>
      <trkpt lat="43.10539" lon="1.88975">
        <ele>336.421</ele>
        <time>2016-04-13T19:07:32Z</time>
      </trkpt>
      <trkpt lat="43.10536" lon="1.88962">
        <ele>335.717</ele>
        <time>2016-04-13T19:07:52Z</time>
      </trkpt>
      <trkpt lat="43.10618" lon="1.88823">
        <ele>339.343</ele>
        <time>2016-04-13T19:08:12Z</time>
      </trkpt>
      <trkpt lat="43.10648" lon="1.8875">
        <ele>344.324</ele>
        <time>2016-04-13T19:08:32Z</time>
      </trkpt>
      <trkpt lat="43.10702" lon="1.88654">
        <ele>354.066</ele>
        <time>2016-04-13T19:08:52Z</time>
      </trkpt>
      <trkpt lat="43.107" lon="1.88598">
        <ele>357.179</ele>
        <time>2016-04-13T19:09:12Z</time>
      </trkpt>
      <trkpt lat="43.10734" lon="1.88523">
        <ele>359.271</ele>
        <time>2016-04-13T19:09:32Z</time>
      </trkpt>
      <trkpt lat="43.10766" lon="1.88526">
        <ele>360.068</ele>
        <time>2016-04-13T19:10:52Z</time>
      </trkpt>
      <trkpt lat="43.1091" lon="1.88366">
        <ele>365.642</ele>
        <time>2016-04-13T19:11:12Z</time>
      </trkpt>
      <trkpt lat="43.10893" lon="1.88341">
        <ele>366.026</ele>
        <time>2016-04-13T19:11:52Z</time>
      </trkpt>
      <trkpt lat="43.10788" lon="1.88272">
        <ele>352.408</ele>
        <time>2016-04-13T19:12:12Z</time>
      </trkpt>
      <trkpt lat="43.1069" lon="1.88224">
        <ele>348.932</ele>
        <time>2016-04-13T19:12:32Z</time>
      </trkpt>
      <trkpt lat="43.10524" lon="1.88141">
        <ele>337.241</ele>
        <time>2021-02-05T19:49:31Z</time>
      </trkpt>
      <trkpt lat="43.10491" lon="1.88182">
        <ele>334.377</ele>
        <time>2016-04-13T19:14:32Z</time>
      </trkpt>
      <trkpt lat="43.10401" lon="1.88089">
        <ele>343.963</ele>
        <time>2016-04-13T19:14:52Z</time>
      </trkpt>
      <trkpt lat="43.10289" lon="1.88061">
        <ele>357.644</ele>
        <time>2016-04-13T19:15:12Z</time>
      </trkpt>
      <trkpt lat="43.10243" lon="1.88028">
        <ele>357.286</ele>
        <time>2016-04-13T19:15:32Z</time>
      </trkpt>
      <trkpt lat="43.10196" lon="1.88036">
        <ele>354.579</ele>
        <time>2016-04-13T19:15:52Z</time>
      </trkpt>
      <trkpt lat="43.10135" lon="1.88006">
        <ele>346.881</ele>
        <time>2016-04-13T19:16:12Z</time>
      </trkpt>
      <trkpt lat="43.10088" lon="1.8802">
        <ele>347.518</ele>
        <time>2016-04-13T19:16:32Z</time>
      </trkpt>
      <trkpt lat="43.10156" lon="1.87898">
        <ele>326.098</ele>
        <time>2016-04-13T19:16:52Z</time>
      </trkpt>
      <trkpt lat="43.10081" lon="1.87796">
        <ele>316.617</ele>
        <time>2016-04-13T19:17:12Z</time>
      </trkpt>
      <trkpt lat="43.09995" lon="1.87746">
        <ele>313.608</ele>
        <time>2021-02-05T19:52:51Z</time>
      </trkpt>
      <trkpt lat="43.09954" lon="1.87731">
        <ele>310.397</ele>
        <time>2021-02-05T19:53:11Z</time>
      </trkpt>
      <trkpt lat="43.09927" lon="1.87708">
        <ele>307.016</ele>
        <time>2021-02-05T19:53:31Z</time>
      </trkpt>
      <trkpt lat="43.09908" lon="1.87649">
        <ele>302.572</ele>
        <time>2021-02-05T19:53:51Z</time>
      </trkpt>
      <trkpt lat="43.0987" lon="1.87594">
        <ele>298.618</ele>
        <time>2021-02-05T19:54:11Z</time>
      </trkpt>
      <trkpt lat="43.09785" lon="1.87509">
        <ele>295.439</ele>
        <time>2021-02-05T19:54:31Z</time>
      </trkpt>
      <trkpt lat="43.09939" lon="1.87234">
        <ele>296.571</ele>
        <time>2021-02-05T19:54:51Z</time>
      </trkpt>
      <trkpt lat="43.10009" lon="1.87205">
        <ele>296.994</ele>
        <time>2016-04-13T19:20:32Z</time>
      </trkpt>
      <trkpt lat="43.10024" lon="1.87182">
        <ele>297.726</ele>
        <time>2016-04-13T19:20:52Z</time>
      </trkpt>
      <trkpt lat="43.10059" lon="1.87059">
        <ele>300.036</ele>
        <time>2016-04-13T19:21:12Z</time>
      </trkpt>
      <trkpt lat="43.10039" lon="1.86986">
        <ele>302.317</ele>
        <time>2016-04-13T19:21:32Z</time>
      </trkpt>
      <trkpt lat="43.09988" lon="1.8693">
        <ele>301.018</ele>
        <time>2016-04-13T19:21:52Z</time>
      </trkpt>
      <trkpt lat="43.09952" lon="1.86768">
        <ele>300.408</ele>
        <time>2016-04-13T19:22:12Z</time>
      </trkpt>
      <trkpt lat="43.09928" lon="1.86659">
        <ele>300.099</ele>
        <time>2016-04-13T19:22:32Z</time>
      </trkpt>
      <trkpt lat="43.09881" lon="1.86523">
        <ele>298.898</ele>
        <time>2016-04-13T19:22:52Z</time>
      </trkpt>
      <trkpt lat="43.09844" lon="1.86372">
        <ele>300.464</ele>
        <time>2016-04-13T19:23:12Z</time>
      </trkpt>
      <trkpt lat="43.09845" lon="1.86318">
        <ele>302.51</ele>
        <time>2016-04-13T19:23:32Z</time>
      </trkpt>
      <trkpt lat="43.09873" lon="1.86258">
        <ele>300.191</ele>
        <time>2016-04-13T19:23:52Z</time>
      </trkpt>
      <trkpt lat="43.09844" lon="1.86135">
        <ele>294.443</ele>
        <time>2016-04-13T19:24:12Z</time>
      </trkpt>
      <trkpt lat="43.09872" lon="1.86111">
        <ele>295.016</ele>
        <time>2016-04-13T19:24:32Z</time>
      </trkpt>
      <trkpt lat="43.09908" lon="1.86092">
        <ele>295.978</ele>
        <time>2016-04-13T19:24:52Z</time>
      </trkpt>
      <trkpt lat="43.09939" lon="1.86056">
        <ele>296.835</ele>
        <time>2016-04-13T19:25:12Z</time>
      </trkpt>
      <trkpt lat="43.09951" lon="1.86015">
        <ele>298.286</ele>
        <time>2016-04-13T19:25:32Z</time>
      </trkpt>
      <trkpt lat="43.0995" lon="1.85989">
        <ele>298.614</ele>
        <time>2016-04-13T19:25:52Z</time>
      </trkpt>
      <trkpt lat="43.09957" lon="1.85955">
        <ele>300.108</ele>
        <time>2016-04-13T19:26:12Z</time>
      </trkpt>
      <trkpt lat="43.0995" lon="1.85923">
        <ele>300.879</ele>
        <time>2016-04-13T19:26:32Z</time>
      </trkpt>
      <trkpt lat="43.09953" lon="1.85875">
        <ele>301.738</ele>
        <time>2016-04-13T19:26:52Z</time>
      </trkpt>
      <trkpt lat="43.0995" lon="1.85842">
        <ele>302.114</ele>
        <time>2016-04-13T19:27:12Z</time>
      </trkpt>
      <trkpt lat="43.0996" lon="1.85815">
        <ele>303.13</ele>
        <time>2016-04-13T19:27:32Z</time>
      </trkpt>
      <trkpt lat="43.09951" lon="1.85802">
        <ele>304.051</ele>
        <time>2016-04-13T19:28:52Z</time>
      </trkpt>
      <trkpt lat="43.09881" lon="1.85741">
        <ele>305.293</ele>
        <time>2016-04-13T19:29:12Z</time>
      </trkpt>
      <trkpt lat="43.09861" lon="1.85694">
        <ele>305.976</ele>
        <time>2016-04-13T19:29:32Z</time>
      </trkpt>
      <trkpt lat="43.09831" lon="1.85657">
        <ele>301.158</ele>
        <time>2016-04-13T19:29:52Z</time>
      </trkpt>
      <trkpt lat="43.09819" lon="1.85584">
        <ele>304.488</ele>
        <time>2016-04-13T19:30:12Z</time>
      </trkpt>
      <trkpt lat="43.098" lon="1.85505">
        <ele>300.324</ele>
        <time>2016-04-13T19:30:32Z</time>
      </trkpt>
      <trkpt lat="43.09792" lon="1.85418">
        <ele>300.626</ele>
        <time>2016-04-13T19:30:52Z</time>
      </trkpt>
      <trkpt lat="43.09771" lon="1.85383">
        <ele>299.208</ele>
        <time>2016-04-13T19:31:12Z</time>
      </trkpt>
      <trkpt lat="43.09742" lon="1.85346">
        <ele>296.234</ele>
        <time>2016-04-13T19:31:32Z</time>
      </trkpt>
      <trkpt lat="43.09728" lon="1.85274">
        <ele>296.183</ele>
        <time>2016-04-13T19:31:52Z</time>
      </trkpt>
      <trkpt lat="43.09737" lon="1.85262">
        <ele>298.039</ele>
        <time>2016-04-13T19:32:12Z</time>
      </trkpt>
      <trkpt lat="43.09728" lon="1.85066">
        <ele>297.985</ele>
        <time>2016-04-13T19:32:32Z</time>
      </trkpt>
      <trkpt lat="43.0972" lon="1.85039">
        <ele>296.426</ele>
        <time>2016-04-13T19:32:52Z</time>
      </trkpt>
      <trkpt lat="43.09713" lon="1.8494">
        <ele>297.058</ele>
        <time>2016-04-13T19:33:12Z</time>
      </trkpt>
      <trkpt lat="43.09737" lon="1.84762">
        <ele>301.161</ele>
        <time>2016-04-13T19:33:32Z</time>
      </trkpt>
      <trkpt lat="43.09738" lon="1.84593">
        <ele>300.283</ele>
        <time>2016-04-13T19:33:52Z</time>
      </trkpt>
      <trkpt lat="43.09733" lon="1.84565">
        <ele>299.958</ele>
        <time>2016-04-13T19:34:12Z</time>
      </trkpt>
      <trkpt lat="43.09755" lon="1.84554">
        <ele>300.252</ele>
        <time>2016-04-13T19:34:32Z</time>
      </trkpt>
      <trkpt lat="43.09736" lon="1.84492">
        <ele>300.017</ele>
        <time>2016-04-13T19:34:52Z</time>
      </trkpt>
      <trkpt lat="43.0973" lon="1.84401">
        <ele>300.308</ele>
        <time>2016-04-13T19:35:12Z</time>
      </trkpt>
      <trkpt lat="43.09737" lon="1.84387">
        <ele>301.191</ele>
        <time>2016-04-13T19:35:32Z</time>
      </trkpt>
      <trkpt lat="43.09729" lon="1.8434">
        <ele>302.06</ele>
        <time>2016-04-13T19:35:52Z</time>
      </trkpt>
      <trkpt lat="43.09732" lon="1.84279">
        <ele>307.716</ele>
        <time>2016-04-13T19:36:12Z</time>
      </trkpt>
      <trkpt lat="43.09722" lon="1.84172">
        <ele>316.342</ele>
        <time>2016-04-13T19:36:32Z</time>
      </trkpt>
      <trkpt lat="43.09734" lon="1.84099">
        <ele>323.483</ele>
        <time>2016-04-13T19:36:52Z</time>
      </trkpt>
      <trkpt lat="43.09733" lon="1.8407">
        <ele>324.165</ele>
        <time>2016-04-13T19:37:12Z</time>
      </trkpt>
      <trkpt lat="43.09746" lon="1.84002">
        <ele>330.898</ele>
        <time>2016-04-13T19:37:32Z</time>
      </trkpt>
      <trkpt lat="43.09712" lon="1.83964">
        <ele>326.75</ele>
        <time>2016-04-13T19:37:52Z</time>
      </trkpt>
      <trkpt lat="43.09729" lon="1.83889">
        <ele>336.571</ele>
        <time>2016-04-13T19:38:12Z</time>
      </trkpt>
      <trkpt lat="43.09739" lon="1.83804">
        <ele>340.141</ele>
        <time>2016-04-13T19:38:32Z</time>
      </trkpt>
      <trkpt lat="43.09741" lon="1.83739">
        <ele>341.615</ele>
        <time>2016-04-13T19:38:52Z</time>
      </trkpt>
      <trkpt lat="43.09753" lon="1.83664">
        <ele>344.208</ele>
        <time>2016-04-13T19:39:12Z</time>
      </trkpt>
      <trkpt lat="43.09786" lon="1.83525">
        <ele>351.423</ele>
        <time>2016-04-13T19:39:32Z</time>
      </trkpt>
      <trkpt lat="43.09816" lon="1.83411">
        <ele>353.092</ele>
        <time>2016-04-13T19:39:52Z</time>
      </trkpt>
      <trkpt lat="43.0985" lon="1.83368">
        <ele>359.228</ele>
        <time>2016-04-13T19:40:12Z</time>
      </trkpt>
      <trkpt lat="43.09953" lon="1.83283">
        <ele>367.764</ele>
        <time>2016-04-13T19:40:32Z</time>
      </trkpt>
      <trkpt lat="43.10105" lon="1.83173">
        <ele>384.395</ele>
        <time>2016-04-13T19:40:52Z</time>
      </trkpt>
      <trkpt lat="43.09991" lon="1.83094">
        <ele>397.087</ele>
        <time>2016-04-13T19:41:12Z</time>
      </trkpt>
      <trkpt lat="43.09952" lon="1.83056">
        <ele>411.89</ele>
        <time>2016-04-13T19:41:32Z</time>
      </trkpt>
      <trkpt lat="43.09893" lon="1.83039">
        <ele>421.432</ele>
        <time>2016-04-13T19:41:52Z</time>
      </trkpt>
      <trkpt lat="43.0993" lon="1.83009">
        <ele>428.538</ele>
        <time>2016-04-13T19:42:12Z</time>
      </trkpt>
      <trkpt lat="43.09915" lon="1.82994">
        <ele>430.47</ele>
        <time>2016-04-13T19:42:32Z</time>
      </trkpt>
      <trkpt lat="43.09979" lon="1.82935">
        <ele>421.717</ele>
        <time>2016-04-13T19:42:52Z</time>
      </trkpt>
      <trkpt lat="43.10036" lon="1.82857">
        <ele>406.308</ele>
        <time>2016-04-13T19:43:12Z</time>
      </trkpt>
      <trkpt lat="43.10072" lon="1.82781">
        <ele>396.959</ele>
        <time>2016-04-13T19:43:32Z</time>
      </trkpt>
      <trkpt lat="43.10089" lon="1.82735">
        <ele>387.978</ele>
        <time>2016-04-13T19:43:52Z</time>
      </trkpt>
      <trkpt lat="43.10111" lon="1.82703">
        <ele>381.574</ele>
        <time>2016-04-13T19:44:12Z</time>
      </trkpt>
      <trkpt lat="43.10149" lon="1.82716">
        <ele>382.53</ele>
        <time>2016-04-13T19:44:32Z</time>
      </trkpt>
      <trkpt lat="43.10144" lon="1.82687">
        <ele>375.111</ele>
        <time>2016-04-13T19:44:52Z</time>
      </trkpt>
      <trkpt lat="43.10126" lon="1.82663">
        <ele>370.213</ele>
        <time>2016-04-13T19:45:12Z</time>
      </trkpt>
      <trkpt lat="43.10091" lon="1.82658">
        <ele>366.876</ele>
        <time>2016-04-13T19:45:32Z</time>
      </trkpt>
      <trkpt lat="43.10114" lon="1.82617">
        <ele>357.568</ele>
        <time>2016-04-13T19:45:52Z</time>
      </trkpt>
      <trkpt lat="43.1011" lon="1.8242">
        <ele>346.913</ele>
        <time>2016-04-13T19:46:12Z</time>
      </trkpt>
      <trkpt lat="43.10125" lon="1.82301">
        <ele>343.243</ele>
        <time>2016-04-13T19:46:32Z</time>
      </trkpt>
      <trkpt lat="43.1013" lon="1.82107">
        <ele>333.307</ele>
        <time>2016-04-13T19:46:52Z</time>
      </trkpt>
      <trkpt lat="43.10147" lon="1.82029">
        <ele>331.208</ele>
        <time>2016-04-13T19:47:12Z</time>
      </trkpt>
      <trkpt lat="43.10142" lon="1.81985">
        <ele>325.657</ele>
        <time>2016-04-13T19:47:32Z</time>
      </trkpt>
      <trkpt lat="43.10126" lon="1.81926">
        <ele>326.176</ele>
        <time>2016-04-13T19:47:52Z</time>
      </trkpt>
      <trkpt lat="43.10131" lon="1.81746">
        <ele>316.282</ele>
        <time>2016-04-13T19:48:12Z</time>
      </trkpt>
      <trkpt lat="43.10113" lon="1.8168">
        <ele>313.128</ele>
        <time>2016-04-13T19:48:32Z</time>
      </trkpt>
      <trkpt lat="43.10082" lon="1.81609">
        <ele>309.929</ele>
        <time>2016-04-13T19:48:52Z</time>
      </trkpt>
      <trkpt lat="43.10072" lon="1.81525">
        <ele>305.261</ele>
        <time>2016-04-13T19:49:12Z</time>
      </trkpt>
      <trkpt lat="43.10078" lon="1.81493">
        <ele>303.384</ele>
        <time>2016-04-13T19:49:32Z</time>
      </trkpt>
      <trkpt lat="43.10079" lon="1.81456">
        <ele>301.166</ele>
        <time>2016-04-13T19:49:52Z</time>
      </trkpt>
      <trkpt lat="43.10079" lon="1.81425">
        <ele>299.635</ele>
        <time>2016-04-13T19:50:12Z</time>
      </trkpt>
      <trkpt lat="43.10083" lon="1.81409">
        <ele>298.586</ele>
        <time>2016-04-13T19:50:32Z</time>
      </trkpt>
      <trkpt lat="43.10062" lon="1.81392">
        <ele>298.814</ele>
        <time>2016-04-13T19:50:52Z</time>
      </trkpt>
      <trkpt lat="43.10052" lon="1.81354">
        <ele>296.508</ele>
        <time>2016-04-13T19:51:12Z</time>
      </trkpt>
      <trkpt lat="43.10066" lon="1.81197">
        <ele>299.259</ele>
        <time>2016-04-13T19:51:32Z</time>
      </trkpt>
      <trkpt lat="43.10042" lon="1.81144">
        <ele>303.048</ele>
        <time>2016-04-13T19:51:52Z</time>
      </trkpt>
      <trkpt lat="43.0999" lon="1.81125">
        <ele>302.034</ele>
        <time>2016-04-13T19:52:12Z</time>
      </trkpt>
      <trkpt lat="43.0993" lon="1.81082">
        <ele>303.62</ele>
        <time>2016-04-13T19:52:32Z</time>
      </trkpt>
      <trkpt lat="43.0983" lon="1.81093">
        <ele>301.231</ele>
        <time>2016-04-13T19:52:52Z</time>
      </trkpt>
      <trkpt lat="43.09716" lon="1.81126">
        <ele>297.293</ele>
        <time>2016-04-13T19:53:12Z</time>
      </trkpt>
      <trkpt lat="43.09645" lon="1.81112">
        <ele>295.216</ele>
        <time>2016-04-13T19:53:32Z</time>
      </trkpt>
      <trkpt lat="43.09493" lon="1.81043">
        <ele>293.968</ele>
        <time>2016-04-13T19:53:52Z</time>
      </trkpt>
      <trkpt lat="43.09457" lon="1.8105">
        <ele>291.773</ele>
        <time>2016-04-13T19:54:12Z</time>
      </trkpt>
      <trkpt lat="43.09491" lon="1.80967">
        <ele>297.285</ele>
        <time>2016-04-13T19:54:32Z</time>
      </trkpt>
      <trkpt lat="43.09515" lon="1.80985">
        <ele>298.213</ele>
        <time>2016-04-13T19:54:52Z</time>
      </trkpt>
      <trkpt lat="43.0954" lon="1.80978">
        <ele>300.808</ele>
        <time>2016-04-13T19:55:12Z</time>
      </trkpt>
      <trkpt lat="43.09558" lon="1.80975">
        <ele>302.723</ele>
        <time>2016-04-13T19:55:32Z</time>
      </trkpt>
      <trkpt lat="43.09577" lon="1.80884">
        <ele>313.682</ele>
        <time>2016-04-13T19:55:52Z</time>
      </trkpt>
      <trkpt lat="43.096" lon="1.80727">
        <ele>325.328</ele>
        <time>2016-04-13T19:56:12Z</time>
      </trkpt>
      <trkpt lat="43.09648" lon="1.80603">
        <ele>332.664</ele>
        <time>2016-04-13T19:56:32Z</time>
      </trkpt>
      <trkpt lat="43.09671" lon="1.80565">
        <ele>333.875</ele>
        <time>2016-04-13T19:56:52Z</time>
      </trkpt>
      <trkpt lat="43.09774" lon="1.8047">
        <ele>345.337</ele>
        <time>2016-04-13T19:57:12Z</time>
      </trkpt>
      <trkpt lat="43.09864" lon="1.8041">
        <ele>357.18</ele>
        <time>2016-04-13T19:57:32Z</time>
      </trkpt>
      <trkpt lat="43.09901" lon="1.80356">
        <ele>361.572</ele>
        <time>2016-04-13T19:57:52Z</time>
      </trkpt>
      <trkpt lat="43.09975" lon="1.80308">
        <ele>373.221</ele>
        <time>2016-04-13T19:58:12Z</time>
      </trkpt>
      <trkpt lat="43.10039" lon="1.80259">
        <ele>383.541</ele>
        <time>2016-04-13T19:58:32Z</time>
      </trkpt>
      <trkpt lat="43.10069" lon="1.80242">
        <ele>392.105</ele>
        <time>2016-04-13T19:58:52Z</time>
      </trkpt>
      <trkpt lat="43.10073" lon="1.80218">
        <ele>394.708</ele>
        <time>2016-04-13T19:59:12Z</time>
      </trkpt>
      <trkpt lat="43.10059" lon="1.80187">
        <ele>397.328</ele>
        <time>2016-04-13T19:59:32Z</time>
      </trkpt>
      <trkpt lat="43.10008" lon="1.80139">
        <ele>400.927</ele>
        <time>2016-04-13T19:59:52Z</time>
      </trkpt>
      <trkpt lat="43.09938" lon="1.80026">
        <ele>412.923</ele>
        <time>2016-04-13T20:00:12Z</time>
      </trkpt>
      <trkpt lat="43.09882" lon="1.79991">
        <ele>418.649</ele>
        <time>2016-04-13T20:00:32Z</time>
      </trkpt>
      <trkpt lat="43.09882" lon="1.79946">
        <ele>415.84</ele>
        <time>2016-04-13T20:00:52Z</time>
      </trkpt>
      <trkpt lat="43.09933" lon="1.79729">
        <ele>418.582</ele>
        <time>2016-04-13T20:01:12Z</time>
      </trkpt>
      <trkpt lat="43.0995" lon="1.79425">
        <ele>407.845</ele>
        <time>2016-04-13T20:01:32Z</time>
      </trkpt>
      <trkpt lat="43.09943" lon="1.79364">
        <ele>403.247</ele>
        <time>2016-04-13T20:01:52Z</time>
      </trkpt>
      <trkpt lat="43.0987" lon="1.79249">
        <ele>400.031</ele>
        <time>2016-04-13T20:02:12Z</time>
      </trkpt>
      <trkpt lat="43.09843" lon="1.79213">
        <ele>401.861</ele>
        <time>2016-04-13T20:02:32Z</time>
      </trkpt>
      <trkpt lat="43.09826" lon="1.79171">
        <ele>403.607</ele>
        <time>2016-04-13T20:02:52Z</time>
      </trkpt>
      <trkpt lat="43.0982" lon="1.79122">
        <ele>401.808</ele>
        <time>2016-04-13T20:03:12Z</time>
      </trkpt>
      <trkpt lat="43.09803" lon="1.79071">
        <ele>398.899</ele>
        <time>2016-04-13T20:03:32Z</time>
      </trkpt>
      <trkpt lat="43.09788" lon="1.79057">
        <ele>397.478</ele>
        <time>2016-04-13T20:03:52Z</time>
      </trkpt>
      <trkpt lat="43.09774" lon="1.7901">
        <ele>397.774</ele>
        <time>2016-04-13T20:04:12Z</time>
      </trkpt>
      <trkpt lat="43.09771" lon="1.78962">
        <ele>399.15</ele>
        <time>2016-04-13T20:04:32Z</time>
      </trkpt>
      <trkpt lat="43.09748" lon="1.78925">
        <ele>398.511</ele>
        <time>2016-04-13T20:04:52Z</time>
      </trkpt>
      <trkpt lat="43.09718" lon="1.78721">
        <ele>391.493</ele>
        <time>2016-04-13T20:05:12Z</time>
      </trkpt>
      <trkpt lat="43.09697" lon="1.78675">
        <ele>393.646</ele>
        <time>2016-04-13T20:05:32Z</time>
      </trkpt>
      <trkpt lat="43.09659" lon="1.78634">
        <ele>390.868</ele>
        <time>2016-04-13T20:05:52Z</time>
      </trkpt>
      <trkpt lat="43.09662" lon="1.78571">
        <ele>386.891</ele>
        <time>2016-04-13T20:06:12Z</time>
      </trkpt>
      <trkpt lat="43.09635" lon="1.78474">
        <ele>373.381</ele>
        <time>2016-04-13T20:06:32Z</time>
      </trkpt>
      <trkpt lat="43.09621" lon="1.78416">
        <ele>366.719</ele>
        <time>2016-04-13T20:06:52Z</time>
      </trkpt>
      <trkpt lat="43.09558" lon="1.7834">
        <ele>360.908</ele>
        <time>2016-04-13T20:07:12Z</time>
      </trkpt>
      <trkpt lat="43.09549" lon="1.78253">
        <ele>353.515</ele>
        <time>2016-04-13T20:07:32Z</time>
      </trkpt>
      <trkpt lat="43.0953" lon="1.78213">
        <ele>345.154</ele>
        <time>2016-04-13T20:07:52Z</time>
      </trkpt>
      <trkpt lat="43.09509" lon="1.78125">
        <ele>331.41</ele>
        <time>2016-04-13T20:08:12Z</time>
      </trkpt>
      <trkpt lat="43.09459" lon="1.78043">
        <ele>318.526</ele>
        <time>2016-04-13T20:08:32Z</time>
      </trkpt>
      <trkpt lat="43.09426" lon="1.78005">
        <ele>312.237</ele>
        <time>2016-04-13T20:08:52Z</time>
      </trkpt>
      <trkpt lat="43.09378" lon="1.77956">
        <ele>302.849</ele>
        <time>2016-04-13T20:09:12Z</time>
      </trkpt>
      <trkpt lat="43.09363" lon="1.77926">
        <ele>298.452</ele>
        <time>2016-04-13T20:09:32Z</time>
      </trkpt>
      <trkpt lat="43.09361" lon="1.77903">
        <ele>294.044</ele>
        <time>2016-04-13T20:09:52Z</time>
      </trkpt>
      <trkpt lat="43.09348" lon="1.77925">
        <ele>293.848</ele>
        <time>2016-04-13T20:10:12Z</time>
      </trkpt>
      <trkpt lat="43.09336" lon="1.77888">
        <ele>286.361</ele>
        <time>2016-04-13T20:10:32Z</time>
      </trkpt>
      <trkpt lat="43.09319" lon="1.77894">
        <ele>283.917</ele>
        <time>2016-04-13T20:10:52Z</time>
      </trkpt>
      <trkpt lat="43.09271" lon="1.77894">
        <ele>278.408</ele>
        <time>2016-04-13T20:11:12Z</time>
      </trkpt>
      <trkpt lat="43.09267" lon="1.77868">
        <ele>276.67</ele>
        <time>2016-04-13T20:11:32Z</time>
      </trkpt>
      <trkpt lat="43.09196" lon="1.77872">
        <ele>275.489</ele>
        <time>2016-04-13T20:11:52Z</time>
      </trkpt>
      <trkpt lat="43.09147" lon="1.77853">
        <ele>275.055</ele>
        <time>2016-04-13T20:12:12Z</time>
      </trkpt>
      <trkpt lat="43.09117" lon="1.77828">
        <ele>275.061</ele>
        <time>2016-04-13T20:12:32Z</time>
      </trkpt>
      <trkpt lat="43.09123" lon="1.77774">
        <ele>275.052</ele>
        <time>2016-04-13T20:12:52Z</time>
      </trkpt>
      <trkpt lat="43.0911" lon="1.77648">
        <ele>274.944</ele>
        <time>2016-04-13T20:13:12Z</time>
      </trkpt>
      <trkpt lat="43.09039" lon="1.77463">
        <ele>274.727</ele>
        <time>2016-04-13T20:13:32Z</time>
      </trkpt>
      <trkpt lat="43.09031" lon="1.77401">
        <ele>272.949</ele>
        <time>2016-04-13T20:13:52Z</time>
      </trkpt>
      <trkpt lat="43.0903" lon="1.77306">
        <ele>273.063</ele>
        <time>2016-04-13T20:14:12Z</time>
      </trkpt>
      <trkpt lat="43.09051" lon="1.77148">
        <ele>267.844</ele>
        <time>2016-04-13T20:14:32Z</time>
      </trkpt>
      <trkpt lat="43.09093" lon="1.76986">
        <ele>267.718</ele>
        <time>2016-04-13T20:14:52Z</time>
      </trkpt>
      <trkpt lat="43.09093" lon="1.7686">
        <ele>267.008</ele>
        <time>2016-04-13T20:15:12Z</time>
      </trkpt>
      <trkpt lat="43.09126" lon="1.76767">
        <ele>268.052</ele>
        <time>2016-04-13T20:15:32Z</time>
      </trkpt>
      <trkpt lat="43.09131" lon="1.76706">
        <ele>266.721</ele>
        <time>2016-04-13T20:15:52Z</time>
      </trkpt>
      <trkpt lat="43.0914" lon="1.76664">
        <ele>266.037</ele>
        <time>2016-04-13T20:16:12Z</time>
      </trkpt>
      <trkpt lat="43.09264" lon="1.76437">
        <ele>268.513</ele>
        <time>2016-04-13T20:16:32Z</time>
      </trkpt>
      <trkpt lat="43.09345" lon="1.76251">
        <ele>269.714</ele>
        <time>2016-04-13T20:16:52Z</time>
      </trkpt>
      <trkpt lat="43.09421" lon="1.76108">
        <ele>269.456</ele>
        <time>2016-04-13T20:17:12Z</time>
      </trkpt>
      <trkpt lat="43.09499" lon="1.75999">
        <ele>268.939</ele>
        <time>2016-04-13T20:17:32Z</time>
      </trkpt>
      <trkpt lat="43.09543" lon="1.76035">
        <ele>271.691</ele>
        <time>2021-02-05T20:51:31Z</time>
      </trkpt>
      <trkpt lat="43.0957" lon="1.75998">
        <ele>270.595</ele>
        <time>2021-02-05T20:51:51Z</time>
      </trkpt>
      <trkpt lat="43.09672" lon="1.76096">
        <ele>275.149</ele>
        <time>2016-04-13T20:18:52Z</time>
      </trkpt>
      <trkpt lat="43.09707" lon="1.76173">
        <ele>283.923</ele>
        <time>2016-04-13T20:19:12Z</time>
      </trkpt>
      <trkpt lat="43.09711" lon="1.76243">
        <ele>288.308</ele>
        <time>2016-04-13T20:19:32Z</time>
      </trkpt>
      <trkpt lat="43.09728" lon="1.76275">
        <ele>289.145</ele>
        <time>2016-04-13T20:19:52Z</time>
      </trkpt>
      <trkpt lat="43.09735" lon="1.76301">
        <ele>293.314</ele>
        <time>2016-04-13T20:20:12Z</time>
      </trkpt>
      <trkpt lat="43.09743" lon="1.76298">
        <ele>293.51</ele>
        <time>2016-04-13T20:20:32Z</time>
      </trkpt>
      <trkpt lat="43.09754" lon="1.76282">
        <ele>292.166</ele>
        <time>2016-04-13T20:20:52Z</time>
      </trkpt>
      <trkpt lat="43.09774" lon="1.76278">
        <ele>294.427</ele>
        <time>2016-04-13T20:21:12Z</time>
      </trkpt>
      <trkpt lat="43.09858" lon="1.76314">
        <ele>301.229</ele>
        <time>2016-04-13T20:21:32Z</time>
      </trkpt>
      <trkpt lat="43.09875" lon="1.7632">
        <ele>302.752</ele>
        <time>2016-04-13T20:21:52Z</time>
      </trkpt>
      <trkpt lat="43.09918" lon="1.7636">
        <ele>306.594</ele>
        <time>2016-04-13T20:22:12Z</time>
      </trkpt>
      <trkpt lat="43.09971" lon="1.76417">
        <ele>310.961</ele>
        <time>2016-04-13T20:22:32Z</time>
      </trkpt>
      <trkpt lat="43.10007" lon="1.76524">
        <ele>315.321</ele>
        <time>2016-04-13T20:22:52Z</time>
      </trkpt>
      <trkpt lat="43.10072" lon="1.76587">
        <ele>325.513</ele>
        <time>2016-04-13T20:30:12Z</time>
      </trkpt>
      <trkpt lat="43.10191" lon="1.76617">
        <ele>336.208</ele>
        <time>2016-04-13T20:30:32Z</time>
      </trkpt>
      <trkpt lat="43.10249" lon="1.76617">
        <ele>342.452</ele>
        <time>2016-04-13T20:30:52Z</time>
      </trkpt>
      <trkpt lat="43.10285" lon="1.76628">
        <ele>350.441</ele>
        <time>2016-04-13T20:31:12Z</time>
      </trkpt>
      <trkpt lat="43.10291" lon="1.76673">
        <ele>354.137</ele>
        <time>2016-04-13T20:31:32Z</time>
      </trkpt>
      <trkpt lat="43.10303" lon="1.76672">
        <ele>357.933</ele>
        <time>2016-04-13T20:31:52Z</time>
      </trkpt>
      <trkpt lat="43.10323" lon="1.76635">
        <ele>362.374</ele>
        <time>2016-04-13T20:32:12Z</time>
      </trkpt>
      <trkpt lat="43.10343" lon="1.76637">
        <ele>365.336</ele>
        <time>2016-04-13T20:32:32Z</time>
      </trkpt>
      <trkpt lat="43.10358" lon="1.76679">
        <ele>368.949</ele>
        <time>2016-04-13T20:32:52Z</time>
      </trkpt>
      <trkpt lat="43.10358" lon="1.76713">
        <ele>372.561</ele>
        <time>2016-04-13T20:33:12Z</time>
      </trkpt>
      <trkpt lat="43.10349" lon="1.76747">
        <ele>372.758</ele>
        <time>2016-04-13T20:33:32Z</time>
      </trkpt>
      <trkpt lat="43.10399" lon="1.76814">
        <ele>377.652</ele>
        <time>2016-04-13T20:33:52Z</time>
      </trkpt>
      <trkpt lat="43.10497" lon="1.76834">
        <ele>378.917</ele>
        <time>2016-04-13T20:34:12Z</time>
      </trkpt>
      <trkpt lat="43.10573" lon="1.76808">
        <ele>372.808</ele>
        <time>2016-04-13T20:34:32Z</time>
      </trkpt>
      <trkpt lat="43.10598" lon="1.76764">
        <ele>368.681</ele>
        <time>2016-04-13T20:34:52Z</time>
      </trkpt>
      <trkpt lat="43.10617" lon="1.76702">
        <ele>371.91</ele>
        <time>2021-02-05T21:01:31Z</time>
      </trkpt>
      <trkpt lat="43.10666" lon="1.76639">
        <ele>365.866</ele>
        <time>2021-02-05T21:01:51Z</time>
      </trkpt>
      <trkpt lat="43.10687" lon="1.76546">
        <ele>367.672</ele>
        <time>2021-02-05T21:02:11Z</time>
      </trkpt>
      <trkpt lat="43.10751" lon="1.76555">
        <ele>356.773</ele>
        <time>2021-02-05T21:02:31Z</time>
      </trkpt>
      <trkpt lat="43.10943" lon="1.76588">
        <ele>372.175</ele>
        <time>2021-02-05T21:02:51Z</time>
      </trkpt>
      <trkpt lat="43.11037" lon="1.76553">
        <ele>384.188</ele>
        <time>2016-04-13T20:42:32Z</time>
      </trkpt>
      <trkpt lat="43.11372" lon="1.76319">
        <ele>379.79</ele>
        <time>2016-04-13T20:42:52Z</time>
      </trkpt>
      <trkpt lat="43.11373" lon="1.76259">
        <ele>374.133</ele>
        <time>2016-04-13T20:43:12Z</time>
      </trkpt>
      <trkpt lat="43.11398" lon="1.76191">
        <ele>367.123</ele>
        <time>2016-04-13T20:43:32Z</time>
      </trkpt>
      <trkpt lat="43.11399" lon="1.76129">
        <ele>362.115</ele>
        <time>2016-04-13T20:43:52Z</time>
      </trkpt>
      <trkpt lat="43.11438" lon="1.76009">
        <ele>354.508</ele>
        <time>2016-04-13T20:44:12Z</time>
      </trkpt>
      <trkpt lat="43.11465" lon="1.75905">
        <ele>355.349</ele>
        <time>2016-04-13T20:44:32Z</time>
      </trkpt>
      <trkpt lat="43.1151" lon="1.75774">
        <ele>363.058</ele>
        <time>2016-04-13T20:45:32Z</time>
      </trkpt>
      <trkpt lat="43.11514" lon="1.75732">
        <ele>366.554</ele>
        <time>2016-04-13T20:45:52Z</time>
      </trkpt>
      <trkpt lat="43.11517" lon="1.75643">
        <ele>369.91</ele>
        <time>2016-04-13T20:46:12Z</time>
      </trkpt>
      <trkpt lat="43.11576" lon="1.75483">
        <ele>366.031</ele>
        <time>2016-04-13T20:46:32Z</time>
      </trkpt>
      <trkpt lat="43.11579" lon="1.75438">
        <ele>362.823</ele>
        <time>2016-04-13T20:46:52Z</time>
      </trkpt>
      <trkpt lat="43.11576" lon="1.75389">
        <ele>357.356</ele>
        <time>2016-04-13T20:47:12Z</time>
      </trkpt>
      <trkpt lat="43.11664" lon="1.75042">
        <ele>331.678</ele>
        <time>2016-04-13T20:47:32Z</time>
      </trkpt>
      <trkpt lat="43.11686" lon="1.75005">
        <ele>329.913</ele>
        <time>2016-04-13T20:47:52Z</time>
      </trkpt>
      <trkpt lat="43.11754" lon="1.74757">
        <ele>312.543</ele>
        <time>2016-04-13T20:48:12Z</time>
      </trkpt>
      <trkpt lat="43.11729" lon="1.74684">
        <ele>305.807</ele>
        <time>2016-04-13T20:48:32Z</time>
      </trkpt>
      <trkpt lat="43.11702" lon="1.74672">
        <ele>304.508</ele>
        <time>2016-04-13T20:48:52Z</time>
      </trkpt>
      <trkpt lat="43.11693" lon="1.74638">
        <ele>301.037</ele>
        <time>2016-04-13T20:49:12Z</time>
      </trkpt>
      <trkpt lat="43.11693" lon="1.7418">
        <ele>274.516</ele>
        <time>2016-04-13T20:49:32Z</time>
      </trkpt>
      <trkpt lat="43.11702" lon="1.7417">
        <ele>274.422</ele>
        <time>2016-04-13T20:49:52Z</time>
      </trkpt>
      <trkpt lat="43.11735" lon="1.74182">
        <ele>276.048</ele>
        <time>2016-04-13T20:50:12Z</time>
      </trkpt>
      <trkpt lat="43.11781" lon="1.74185">
        <ele>275.319</ele>
        <time>2016-04-13T20:50:32Z</time>
      </trkpt>
      <trkpt lat="43.11814" lon="1.74206">
        <ele>272.211</ele>
        <time>2016-04-13T20:50:52Z</time>
      </trkpt>
      <trkpt lat="43.11852" lon="1.742">
        <ele>271.994</ele>
        <time>2016-04-13T20:51:12Z</time>
      </trkpt>
      <trkpt lat="43.11872" lon="1.74184">
        <ele>273.936</ele>
        <time>2016-04-13T20:51:32Z</time>
      </trkpt>
      <trkpt lat="43.11904" lon="1.74106">
        <ele>274.914</ele>
        <time>2016-04-13T20:51:52Z</time>
      </trkpt>
      <trkpt lat="43.11964" lon="1.74039">
        <ele>270.454</ele>
        <time>2016-04-13T20:52:12Z</time>
      </trkpt>
      <trkpt lat="43.11987" lon="1.74032">
        <ele>267.909</ele>
        <time>2016-04-13T20:52:32Z</time>
      </trkpt>
      <trkpt lat="43.12181" lon="1.74045">
        <ele>266.208</ele>
        <time>2016-04-13T20:52:52Z</time>
      </trkpt>
      <trkpt lat="43.12189" lon="1.74032">
        <ele>263.817</ele>
        <time>2016-04-13T20:53:12Z</time>
      </trkpt>
      <trkpt lat="43.12124" lon="1.74001">
        <ele>262.186</ele>
        <time>2016-04-13T20:53:32Z</time>
      </trkpt>
      <trkpt lat="43.12123" lon="1.73985">
        <ele>260.952</ele>
        <time>2016-04-13T20:53:52Z</time>
      </trkpt>
      <trkpt lat="43.12156" lon="1.7397">
        <ele>259.318</ele>
        <time>2016-04-13T20:54:12Z</time>
      </trkpt>
      <trkpt lat="43.12176" lon="1.73937">
        <ele>258.469</ele>
        <time>2016-04-13T20:54:32Z</time>
      </trkpt>
      <trkpt lat="43.12179" lon="1.73891">
        <ele>257.631</ele>
        <time>2016-04-13T20:54:52Z</time>
      </trkpt>
      <trkpt lat="43.12266" lon="1.7383">
        <ele>255.024</ele>
        <time>2016-04-13T20:55:12Z</time>
      </trkpt>
      <trkpt lat="43.12344" lon="1.73642">
        <ele>255.016</ele>
        <time>2016-04-13T20:55:32Z</time>
      </trkpt>
      <trkpt lat="43.1241" lon="1.73454">
        <ele>256.033</ele>
        <time>2016-04-13T20:55:52Z</time>
      </trkpt>
      <trkpt lat="43.12432" lon="1.73428">
        <ele>256.023</ele>
        <time>2016-04-13T20:56:12Z</time>
      </trkpt>
      <trkpt lat="43.12397" lon="1.73356">
        <ele>256.115</ele>
        <time>2016-04-13T20:56:32Z</time>
      </trkpt>
      <trkpt lat="43.12381" lon="1.7327">
        <ele>257.008</ele>
        <time>2016-04-13T20:56:52Z</time>
      </trkpt>
      <trkpt lat="43.12312" lon="1.73057">
        <ele>257.069</ele>
        <time>2016-04-13T20:57:12Z</time>
      </trkpt>
      <trkpt lat="43.12298" lon="1.72926">
        <ele>257.068</ele>
        <time>2016-04-13T20:57:32Z</time>
      </trkpt>
      <trkpt lat="43.12273" lon="1.72843">
        <ele>257.034</ele>
        <time>2016-04-13T20:57:52Z</time>
      </trkpt>
      <trkpt lat="43.12189" lon="1.72737">
        <ele>258.08</ele>
        <time>2016-04-13T20:58:12Z</time>
      </trkpt>
      <trkpt lat="43.12064" lon="1.72755">
        <ele>258.061</ele>
        <time>2016-04-13T20:58:32Z</time>
      </trkpt>
      <trkpt lat="43.12036" lon="1.72669">
        <ele>258.973</ele>
        <time>2016-04-13T20:58:52Z</time>
      </trkpt>
      <trkpt lat="43.11995" lon="1.72588">
        <ele>259.046</ele>
        <time>2016-04-13T20:59:12Z</time>
      </trkpt>
      <trkpt lat="43.11928" lon="1.72524">
        <ele>260.078</ele>
        <time>2016-04-13T20:59:32Z</time>
      </trkpt>
      <trkpt lat="43.1187" lon="1.72492">
        <ele>260.144</ele>
        <time>2016-04-13T20:59:52Z</time>
      </trkpt>
      <trkpt lat="43.11743" lon="1.72456">
        <ele>260.005</ele>
        <time>2016-04-13T21:00:12Z</time>
      </trkpt>
      <trkpt lat="43.11667" lon="1.72459">
        <ele>260.015</ele>
        <time>2016-04-13T21:00:32Z</time>
      </trkpt>
      <trkpt lat="43.11622" lon="1.72447">
        <ele>260.008</ele>
        <time>2016-04-13T21:00:52Z</time>
      </trkpt>
      <trkpt lat="43.11589" lon="1.72425">
        <ele>260.92</ele>
        <time>2016-04-13T21:01:12Z</time>
      </trkpt>
      <trkpt lat="43.11549" lon="1.72369">
        <ele>262.059</ele>
        <time>2016-04-13T21:01:32Z</time>
      </trkpt>
      <trkpt lat="43.11462" lon="1.72292">
        <ele>265.555</ele>
        <time>2016-04-13T21:01:52Z</time>
      </trkpt>
      <trkpt lat="43.11299" lon="1.72289">
        <ele>267.671</ele>
        <time>2016-04-13T21:02:12Z</time>
      </trkpt>
      <trkpt lat="43.1128" lon="1.72192">
        <ele>271.112</ele>
        <time>2016-04-13T21:02:32Z</time>
      </trkpt>
      <trkpt lat="43.11337" lon="1.72167">
        <ele>272.044</ele>
        <time>2016-04-13T21:02:52Z</time>
      </trkpt>
      <trkpt lat="43.11356" lon="1.72148">
        <ele>272.197</ele>
        <time>2016-04-13T21:03:12Z</time>
      </trkpt>
      <trkpt lat="43.11366" lon="1.72116">
        <ele>272.899</ele>
        <time>2016-04-13T21:03:32Z</time>
      </trkpt>
      <trkpt lat="43.11334" lon="1.7203">
        <ele>279.853</ele>
        <time>2016-04-13T21:03:52Z</time>
      </trkpt>
      <trkpt lat="43.11335" lon="1.72009">
        <ele>280.604</ele>
        <time>2016-04-13T21:04:12Z</time>
      </trkpt>
      <trkpt lat="43.11446" lon="1.71965">
        <ele>286.914</ele>
        <time>2016-04-13T21:04:32Z</time>
      </trkpt>
      <trkpt lat="43.11549" lon="1.71922">
        <ele>288.208</ele>
        <time>2016-04-13T21:04:52Z</time>
      </trkpt>
      <trkpt lat="43.11735" lon="1.71895">
        <ele>287.611</ele>
        <time>2016-04-13T21:05:12Z</time>
      </trkpt>
      <trkpt lat="43.11832" lon="1.71884">
        <ele>287.89</ele>
        <time>2016-04-13T21:05:32Z</time>
      </trkpt>
      <trkpt lat="43.11944" lon="1.71899">
        <ele>283.216</ele>
        <time>2016-04-13T21:05:52Z</time>
      </trkpt>
      <trkpt lat="43.11945" lon="1.71886">
        <ele>284.532</ele>
        <time>2016-04-13T21:06:12Z</time>
      </trkpt>
      <trkpt lat="43.11967" lon="1.71881">
        <ele>292.173</ele>
        <time>2016-04-13T21:06:32Z</time>
      </trkpt>
      <trkpt lat="43.11944" lon="1.71835">
        <ele>290.765</ele>
        <time>2016-04-13T21:06:52Z</time>
      </trkpt>
      <trkpt lat="43.11919" lon="1.71745">
        <ele>299.988</ele>
        <time>2016-04-13T21:07:12Z</time>
      </trkpt>
      <trkpt lat="43.11933" lon="1.71667">
        <ele>314.86</ele>
        <time>2016-04-13T21:07:32Z</time>
      </trkpt>
      <trkpt lat="43.11958" lon="1.71621">
        <ele>316.564</ele>
        <time>2016-04-13T21:07:52Z</time>
      </trkpt>
      <trkpt lat="43.11871" lon="1.71531">
        <ele>321.006</ele>
        <time>2016-04-13T21:08:12Z</time>
      </trkpt>
      <trkpt lat="43.11816" lon="1.71519">
        <ele>321.016</ele>
        <time>2016-04-13T21:08:32Z</time>
      </trkpt>
      <trkpt lat="43.11816" lon="1.7145">
        <ele>322.008</ele>
        <time>2016-04-13T21:11:12Z</time>
      </trkpt>
      <trkpt lat="43.11832" lon="1.71428">
        <ele>322.022</ele>
        <time>2016-04-13T21:11:32Z</time>
      </trkpt>
      <trkpt lat="43.11854" lon="1.71413">
        <ele>322.081</ele>
        <time>2016-04-13T21:11:52Z</time>
      </trkpt>
      <trkpt lat="43.11955" lon="1.71267">
        <ele>321.397</ele>
        <time>2019-12-08T23:07:49Z</time>
      </trkpt>
      <trkpt lat="43.12065" lon="1.71288">
        <ele>317.593</ele>
        <time>2019-12-08T23:08:09Z</time>
      </trkpt>
      <trkpt lat="43.12131" lon="1.71287">
        <ele>316.124</ele>
        <time>2019-12-08T23:08:29Z</time>
      </trkpt>
      <trkpt lat="43.12144" lon="1.71243">
        <ele>313.976</ele>
        <time>2019-12-08T23:08:49Z</time>
      </trkpt>
      <trkpt lat="43.12176" lon="1.71232">
        <ele>312.669</ele>
        <time>2019-12-08T23:09:09Z</time>
      </trkpt>
      <trkpt lat="43.12209" lon="1.71195">
        <ele>309.961</ele>
        <time>2019-12-08T23:09:29Z</time>
      </trkpt>
      <trkpt lat="43.12243" lon="1.71203">
        <ele>309.394</ele>
        <time>2019-12-08T23:09:49Z</time>
      </trkpt>
      <trkpt lat="43.12304" lon="1.71177">
        <ele>307.857</ele>
        <time>2019-12-08T23:10:09Z</time>
      </trkpt>
      <trkpt lat="43.12321" lon="1.71177">
        <ele>306.822</ele>
        <time>2019-12-08T23:10:29Z</time>
      </trkpt>
      <trkpt lat="43.12353" lon="1.71155">
        <ele>305.108</ele>
        <time>2019-12-08T23:10:49Z</time>
      </trkpt>
      <trkpt lat="43.12367" lon="1.71152">
        <ele>304.935</ele>
        <time>2019-12-08T23:11:09Z</time>
      </trkpt>
      <trkpt lat="43.12406" lon="1.71119">
        <ele>301.184</ele>
        <time>2019-12-08T23:11:29Z</time>
      </trkpt>
      <trkpt lat="43.12442" lon="1.71109">
        <ele>300.03</ele>
        <time>2019-12-08T23:11:49Z</time>
      </trkpt>
      <trkpt lat="43.12461" lon="1.71082">
        <ele>300.116</ele>
        <time>2019-12-08T23:12:09Z</time>
      </trkpt>
      <trkpt lat="43.12551" lon="1.71042">
        <ele>311.327</ele>
        <time>2019-12-08T23:12:29Z</time>
      </trkpt>
      <trkpt lat="43.12628" lon="1.71106">
        <ele>312.359</ele>
        <time>2019-12-08T23:12:49Z</time>
      </trkpt>
      <trkpt lat="43.12654" lon="1.71113">
        <ele>312.742</ele>
        <time>2019-12-08T23:13:09Z</time>
      </trkpt>
      <trkpt lat="43.12675" lon="1.71106">
        <ele>311.974</ele>
        <time>2019-12-08T23:13:29Z</time>
      </trkpt>
      <trkpt lat="43.12715" lon="1.71026">
        <ele>310.912</ele>
        <time>2019-12-08T23:13:49Z</time>
      </trkpt>
      <trkpt lat="43.12791" lon="1.71008">
        <ele>315.032</ele>
        <time>2019-12-08T23:14:09Z</time>
      </trkpt>
      <trkpt lat="43.12828" lon="1.71006">
        <ele>315.005</ele>
        <time>2019-12-08T23:14:29Z</time>
      </trkpt>
      <trkpt lat="43.12826" lon="1.70976">
        <ele>315.008</ele>
        <time>2019-12-08T23:14:49Z</time>
      </trkpt>
      <trkpt lat="43.12897" lon="1.70897">
        <ele>312.327</ele>
        <time>2019-12-08T23:15:09Z</time>
      </trkpt>
      <trkpt lat="43.12935" lon="1.70808">
        <ele>315.046</ele>
        <time>2019-12-08T23:15:29Z</time>
      </trkpt>
      <trkpt lat="43.1292" lon="1.70696">
        <ele>312.842</ele>
        <time>2019-12-08T23:15:49Z</time>
      </trkpt>
      <trkpt lat="43.12937" lon="1.70574">
        <ele>305.228</ele>
        <time>2019-12-08T23:16:09Z</time>
      </trkpt>
      <trkpt lat="43.13014" lon="1.7057">
        <ele>301.879</ele>
        <time>2019-12-08T23:16:29Z</time>
      </trkpt>
      <trkpt lat="43.13001" lon="1.70341">
        <ele>298.081</ele>
        <time>2019-12-08T23:16:49Z</time>
      </trkpt>
      <trkpt lat="43.13" lon="1.70284">
        <ele>297.054</ele>
        <time>2019-12-08T23:17:09Z</time>
      </trkpt>
      <trkpt lat="43.13018" lon="1.70112">
        <ele>296.056</ele>
        <time>2019-12-08T23:17:29Z</time>
      </trkpt>
      <trkpt lat="43.13016" lon="1.69996">
        <ele>296.019</ele>
        <time>2019-12-08T23:17:49Z</time>
      </trkpt>
      <trkpt lat="43.12988" lon="1.69874">
        <ele>296.009</ele>
        <time>2019-12-08T23:18:09Z</time>
      </trkpt>
      <trkpt lat="43.12985" lon="1.69783">
        <ele>295.019</ele>
        <time>2019-12-08T23:18:29Z</time>
      </trkpt>
      <trkpt lat="43.12958" lon="1.69777">
        <ele>295.508</ele>
        <time>2019-12-08T23:18:49Z</time>
      </trkpt>
      <trkpt lat="43.12913" lon="1.68803">
        <ele>293.057</ele>
        <time>2019-12-08T23:19:09Z</time>
      </trkpt>
      <trkpt lat="43.12859" lon="1.67806">
        <ele>295.036</ele>
        <time>2019-12-08T23:19:29Z</time>
      </trkpt>
      <trkpt lat="43.12841" lon="1.6777">
        <ele>295.042</ele>
        <time>2019-12-08T23:19:49Z</time>
      </trkpt>
      <trkpt lat="43.12642" lon="1.67612">
        <ele>297.058</ele>
        <time>2019-12-08T23:20:09Z</time>
      </trkpt>
      <trkpt lat="43.12541" lon="1.6753">
        <ele>297.039</ele>
        <time>2019-12-08T23:20:29Z</time>
      </trkpt>
      <trkpt lat="43.12492" lon="1.67507">
        <ele>297.861</ele>
        <time>2019-12-08T23:20:49Z</time>
      </trkpt>
      <trkpt lat="43.12373" lon="1.67428">
        <ele>299.044</ele>
        <time>2019-12-08T23:21:09Z</time>
      </trkpt>
      <trkpt lat="43.12362" lon="1.67408">
        <ele>299.036</ele>
        <time>2019-12-08T23:21:29Z</time>
      </trkpt>
      <trkpt lat="43.12359" lon="1.6738">
        <ele>299.021</ele>
        <time>2019-12-08T23:21:49Z</time>
      </trkpt>
      <trkpt lat="43.12272" lon="1.67309">
        <ele>300.041</ele>
        <time>2019-12-08T23:22:09Z</time>
      </trkpt>
      <trkpt lat="43.12172" lon="1.6726">
        <ele>300.005</ele>
        <time>2019-12-08T23:22:29Z</time>
      </trkpt>
      <trkpt lat="43.12072" lon="1.67167">
        <ele>301.008</ele>
        <time>2019-12-08T23:22:49Z</time>
      </trkpt>
      <trkpt lat="43.11959" lon="1.67085">
        <ele>302.098</ele>
        <time>2019-12-08T23:23:09Z</time>
      </trkpt>
      <trkpt lat="43.1189" lon="1.67088">
        <ele>302.027</ele>
        <time>2019-12-08T23:23:29Z</time>
      </trkpt>
      <trkpt lat="43.11849" lon="1.67065">
        <ele>303.073</ele>
        <time>2019-12-08T23:23:49Z</time>
      </trkpt>
      <trkpt lat="43.11823" lon="1.67006">
        <ele>303.099</ele>
        <time>2019-12-08T23:24:09Z</time>
      </trkpt>
      <trkpt lat="43.11807" lon="1.6686">
        <ele>303.02</ele>
        <time>2019-12-08T23:24:29Z</time>
      </trkpt>
      <trkpt lat="43.11795" lon="1.66803">
        <ele>303.022</ele>
        <time>2019-12-08T23:24:49Z</time>
      </trkpt>
      <trkpt lat="43.11729" lon="1.66711">
        <ele>304.095</ele>
        <time>2019-12-08T23:25:09Z</time>
      </trkpt>
      <trkpt lat="43.11682" lon="1.66654">
        <ele>304.097</ele>
        <time>2019-12-08T23:25:29Z</time>
      </trkpt>
      <trkpt lat="43.11665" lon="1.66601">
        <ele>304.164</ele>
        <time>2019-12-08T23:25:49Z</time>
      </trkpt>
      <trkpt lat="43.11651" lon="1.66533">
        <ele>304.906</ele>
        <time>2019-12-08T23:26:09Z</time>
      </trkpt>
      <trkpt lat="43.1166" lon="1.66473">
        <ele>305.016</ele>
        <time>2019-12-08T23:26:29Z</time>
      </trkpt>
      <trkpt lat="43.11648" lon="1.66432">
        <ele>305.008</ele>
        <time>2019-12-08T23:26:49Z</time>
      </trkpt>
      <trkpt lat="43.11473" lon="1.66202">
        <ele>306.012</ele>
        <time>2019-12-08T23:27:09Z</time>
      </trkpt>
      <trkpt lat="43.1149" lon="1.66199">
        <ele>305.491</ele>
        <time>2019-12-08T23:27:29Z</time>
      </trkpt>
      <trkpt lat="43.11451" lon="1.66053">
        <ele>305.847</ele>
        <time>2019-12-08T23:27:49Z</time>
      </trkpt>
      <trkpt lat="43.11398" lon="1.65832">
        <ele>306.083</ele>
        <time>2019-12-08T23:28:09Z</time>
      </trkpt>
      <trkpt lat="43.11338" lon="1.6565">
        <ele>306.084</ele>
        <time>2019-12-08T23:28:29Z</time>
      </trkpt>
      <trkpt lat="43.11321" lon="1.65544">
        <ele>306.016</ele>
        <time>2019-12-08T23:28:49Z</time>
      </trkpt>
      <trkpt lat="43.11305" lon="1.65484">
        <ele>306.059</ele>
        <time>2019-12-08T23:29:09Z</time>
      </trkpt>
      <trkpt lat="43.11309" lon="1.65442">
        <ele>305.811</ele>
        <time>2019-12-08T23:29:29Z</time>
      </trkpt>
      <trkpt lat="43.11324" lon="1.65354">
        <ele>305.011</ele>
        <time>2019-12-08T23:29:49Z</time>
      </trkpt>
      <trkpt lat="43.11334" lon="1.6527">
        <ele>304.021</ele>
        <time>2019-12-08T23:30:09Z</time>
      </trkpt>
      <trkpt lat="43.11361" lon="1.65137">
        <ele>303.003</ele>
        <time>2019-12-08T23:30:29Z</time>
      </trkpt>
      <trkpt lat="43.11371" lon="1.65007">
        <ele>302.208</ele>
        <time>2019-12-08T23:30:49Z</time>
      </trkpt>
      <trkpt lat="43.11392" lon="1.64876">
        <ele>301.087</ele>
        <time>2019-12-08T23:31:09Z</time>
      </trkpt>
      <trkpt lat="43.11385" lon="1.64671">
        <ele>301.086</ele>
        <time>2019-12-08T23:31:29Z</time>
      </trkpt>
      <trkpt lat="43.11391" lon="1.64585">
        <ele>301.032</ele>
        <time>2019-12-08T23:31:49Z</time>
      </trkpt>
      <trkpt lat="43.11389" lon="1.64438">
        <ele>301.028</ele>
        <time>2019-12-08T23:32:09Z</time>
      </trkpt>
      <trkpt lat="43.11426" lon="1.64246">
        <ele>300.069</ele>
        <time>2019-12-08T23:32:29Z</time>
      </trkpt>
      <trkpt lat="43.11424" lon="1.64195">
        <ele>300.071</ele>
        <time>2019-12-08T23:32:49Z</time>
      </trkpt>
      <trkpt lat="43.11408" lon="1.64094">
        <ele>300.074</ele>
        <time>2019-12-08T23:33:09Z</time>
      </trkpt>
      <trkpt lat="43.11361" lon="1.63882">
        <ele>300.076</ele>
        <time>2019-12-08T23:33:29Z</time>
      </trkpt>
      <trkpt lat="43.11275" lon="1.63753">
        <ele>300.022</ele>
        <time>2019-12-08T23:33:49Z</time>
      </trkpt>
      <trkpt lat="43.11266" lon="1.63716">
        <ele>300.062</ele>
        <time>2019-12-08T23:34:09Z</time>
      </trkpt>
      <trkpt lat="43.11277" lon="1.63672">
        <ele>300.008</ele>
        <time>2019-12-08T23:34:29Z</time>
      </trkpt>
      <trkpt lat="43.11292" lon="1.63657">
        <ele>300.008</ele>
        <time>2019-12-08T23:34:49Z</time>
      </trkpt>
      <trkpt lat="43.11296" lon="1.63612">
        <ele>300.058</ele>
        <time>2019-12-08T23:35:09Z</time>
      </trkpt>
      <trkpt lat="43.11301" lon="1.63479">
        <ele>300.067</ele>
        <time>2019-12-08T23:35:29Z</time>
      </trkpt>
      <trkpt lat="43.11302" lon="1.63366">
        <ele>299.313</ele>
        <time>2019-12-08T23:35:49Z</time>
      </trkpt>
      <trkpt lat="43.11393" lon="1.63369">
        <ele>299.099</ele>
        <time>2019-12-08T23:36:09Z</time>
      </trkpt>
      <trkpt lat="43.11428" lon="1.63343">
        <ele>299.02</ele>
        <time>2019-12-08T23:36:29Z</time>
      </trkpt>
      <trkpt lat="43.11485" lon="1.63329">
        <ele>299.032</ele>
        <time>2019-12-08T23:36:49Z</time>
      </trkpt>
      <trkpt lat="43.11506" lon="1.63327">
        <ele>299.045</ele>
        <time>2019-12-08T23:37:09Z</time>
      </trkpt>
      <trkpt lat="43.11512" lon="1.63313">
        <ele>299.097</ele>
        <time>2019-12-08T23:37:29Z</time>
      </trkpt>
      <trkpt lat="43.11507" lon="1.63247">
        <ele>298.877</ele>
        <time>2019-12-08T23:37:49Z</time>
      </trkpt>
      <trkpt lat="43.11527" lon="1.63117">
        <ele>298.061</ele>
        <time>2019-12-08T23:38:09Z</time>
      </trkpt>
      <trkpt lat="43.11557" lon="1.63129">
        <ele>298.027</ele>
        <time>2019-12-08T23:38:29Z</time>
      </trkpt>
      <trkpt lat="43.11633" lon="1.63215">
        <ele>298.008</ele>
        <time>2019-12-08T23:38:49Z</time>
      </trkpt>
      <trkpt lat="43.11644" lon="1.63215">
        <ele>298.033</ele>
        <time>2019-12-08T23:39:09Z</time>
      </trkpt>
      <trkpt lat="43.11655" lon="1.63203">
        <ele>298.022</ele>
        <time>2019-12-08T23:39:29Z</time>
      </trkpt>
      <trkpt lat="43.11618" lon="1.6317">
        <ele>298.028</ele>
        <time>2019-12-08T23:39:49Z</time>
      </trkpt>
      <trkpt lat="43.11574" lon="1.63088">
        <ele>298.084</ele>
        <time>2019-12-08T23:40:09Z</time>
      </trkpt>
      <trkpt lat="43.11539" lon="1.6296">
        <ele>298.065</ele>
        <time>2019-12-08T23:40:29Z</time>
      </trkpt>
      <trkpt lat="43.11537" lon="1.62875">
        <ele>297.037</ele>
        <time>2019-12-08T23:40:49Z</time>
      </trkpt>
      <trkpt lat="43.11557" lon="1.62789">
        <ele>297.07</ele>
        <time>2019-12-08T23:41:09Z</time>
      </trkpt>
      <trkpt lat="43.11579" lon="1.62728">
        <ele>297.122</ele>
        <time>2019-12-08T23:41:29Z</time>
      </trkpt>
      <trkpt lat="43.11594" lon="1.62654">
        <ele>297.319</ele>
        <time>2019-12-08T23:41:49Z</time>
      </trkpt>
      <trkpt lat="43.11592" lon="1.62581">
        <ele>297.009</ele>
        <time>2019-12-08T23:42:09Z</time>
      </trkpt>
      <trkpt lat="43.11559" lon="1.62366">
        <ele>297.019</ele>
        <time>2019-12-08T23:42:29Z</time>
      </trkpt>
      <trkpt lat="43.11526" lon="1.62118">
        <ele>298.008</ele>
        <time>2019-12-08T23:42:49Z</time>
      </trkpt>
      <trkpt lat="43.11476" lon="1.62047">
        <ele>297.667</ele>
        <time>2019-12-08T23:43:09Z</time>
      </trkpt>
      <trkpt lat="43.11584" lon="1.62017">
        <ele>296.016</ele>
        <time>2019-12-08T23:43:29Z</time>
      </trkpt>
      <trkpt lat="43.11906" lon="1.61901">
        <ele>295.052</ele>
        <time>2019-12-08T23:43:49Z</time>
      </trkpt>
      <trkpt lat="43.11988" lon="1.61854">
        <ele>295.058</ele>
        <time>2019-12-08T23:44:09Z</time>
      </trkpt>
      <trkpt lat="43.12029" lon="1.61862">
        <ele>295.039</ele>
        <time>2019-12-08T23:44:29Z</time>
      </trkpt>
      <trkpt lat="43.12016" lon="1.61798">
        <ele>294.331</ele>
        <time>2019-12-08T23:44:49Z</time>
      </trkpt>
      <trkpt lat="43.11966" lon="1.61804">
        <ele>295.024</ele>
        <time>2019-12-08T23:45:09Z</time>
      </trkpt>
      <trkpt lat="43.11941" lon="1.61783">
        <ele>295.076</ele>
        <time>2019-12-08T23:45:29Z</time>
      </trkpt>
      <trkpt lat="43.11949" lon="1.61735">
        <ele>295.052</ele>
        <time>2019-12-08T23:45:49Z</time>
      </trkpt>
      <trkpt lat="43.11924" lon="1.61696">
        <ele>295.053</ele>
        <time>2019-12-08T23:46:09Z</time>
      </trkpt>
      <trkpt lat="43.1192" lon="1.61665">
        <ele>294.908</ele>
        <time>2019-12-08T23:46:29Z</time>
      </trkpt>
      <trkpt lat="43.11887" lon="1.61625">
        <ele>289.408</ele>
        <time>2019-12-08T23:46:49Z</time>
      </trkpt>
      <trkpt lat="43.11904" lon="1.61554">
        <ele>288.841</ele>
        <time>2020-04-15T21:54:48Z</time>
      </trkpt>
      <trkpt lat="43.11951" lon="1.61507">
        <ele>291.14</ele>
        <time>2020-04-15T21:55:08Z</time>
      </trkpt>
      <trkpt lat="43.11903" lon="1.61503">
        <ele>287.036</ele>
        <time>2020-04-15T21:55:28Z</time>
      </trkpt>
      <trkpt lat="43.11844" lon="1.61391">
        <ele>281.352</ele>
        <time>2020-04-15T21:55:48Z</time>
      </trkpt>
      <trkpt lat="43.11924" lon="1.61273">
        <ele>280.933</ele>
        <time>2021-02-05T22:10:31Z</time>
      </trkpt>
      <trkpt lat="43.11874" lon="1.6119">
        <ele>284.385</ele>
        <time>2021-02-05T22:10:51Z</time>
      </trkpt>
      <trkpt lat="43.11644" lon="1.61186">
        <ele>290.278</ele>
        <time>2021-02-05T22:11:11Z</time>
      </trkpt>
      <trkpt lat="43.11565" lon="1.61099">
        <ele>292.33</ele>
        <time>2021-02-05T22:11:31Z</time>
      </trkpt>
      <trkpt lat="43.11595" lon="1.61016">
        <ele>289.925</ele>
        <time>2020-04-15T22:00:08Z</time>
      </trkpt>
      <trkpt lat="43.1144" lon="1.60921">
        <ele>293.826</ele>
        <time>2019-12-09T09:26:01Z</time>
      </trkpt>
      <trkpt lat="43.11449" lon="1.60882">
        <ele>294.608</ele>
        <time>2019-12-09T09:26:21Z</time>
      </trkpt>
      <trkpt lat="43.11443" lon="1.60868">
        <ele>295.108</ele>
        <time>2019-12-09T09:26:41Z</time>
      </trkpt>
      <trkpt lat="43.11434" lon="1.60858">
        <ele>295.888</ele>
        <time>2019-12-09T09:27:01Z</time>
      </trkpt>
      <trkpt lat="43.11426" lon="1.60814">
        <ele>297.867</ele>
        <time>2019-12-09T09:27:21Z</time>
      </trkpt>
      <trkpt lat="43.11343" lon="1.60803">
        <ele>300.463</ele>
        <time>2019-12-09T09:27:41Z</time>
      </trkpt>
      <trkpt lat="43.11337" lon="1.60794">
        <ele>300.579</ele>
        <time>2019-12-09T09:28:01Z</time>
      </trkpt>
      <trkpt lat="43.11323" lon="1.60804">
        <ele>295.51</ele>
        <time>2019-12-09T09:28:21Z</time>
      </trkpt>
      <trkpt lat="43.11315" lon="1.60852">
        <ele>294.962</ele>
        <time>2019-12-09T09:28:41Z</time>
      </trkpt>
      <trkpt lat="43.11263" lon="1.60861">
        <ele>288.655</ele>
        <time>2021-02-05T22:15:11Z</time>
      </trkpt>
      <trkpt lat="43.11266" lon="1.60739">
        <ele>287.757</ele>
        <time>2021-02-05T22:15:31Z</time>
      </trkpt>
      <trkpt lat="43.11285" lon="1.60681">
        <ele>289.851</ele>
        <time>2019-12-09T09:29:41Z</time>
      </trkpt>
      <trkpt lat="43.11307" lon="1.60646">
        <ele>287.401</ele>
        <time>2019-12-09T09:30:01Z</time>
      </trkpt>
      <trkpt lat="43.11358" lon="1.606">
        <ele>288.511</ele>
        <time>2019-12-09T09:30:21Z</time>
      </trkpt>
      <trkpt lat="43.11357" lon="1.60578">
        <ele>284.108</ele>
        <time>2019-12-09T09:30:41Z</time>
      </trkpt>
      <trkpt lat="43.11351" lon="1.60569">
        <ele>284.021</ele>
        <time>2019-12-09T09:31:01Z</time>
      </trkpt>
      <trkpt lat="43.11283" lon="1.60368">
        <ele>283.83</ele>
        <time>2021-02-05T22:17:31Z</time>
      </trkpt>
      <trkpt lat="43.11255" lon="1.6038">
        <ele>284.996</ele>
        <time>2021-02-05T22:17:51Z</time>
      </trkpt>
      <trkpt lat="43.11218" lon="1.60365">
        <ele>287.422</ele>
        <time>2021-02-05T22:18:11Z</time>
      </trkpt>
      <trkpt lat="43.11188" lon="1.60341">
        <ele>291.033</ele>
        <time>2021-02-05T22:18:31Z</time>
      </trkpt>
      <trkpt lat="43.11155" lon="1.60344">
        <ele>291.245</ele>
        <time>2021-02-05T22:18:51Z</time>
      </trkpt>
      <trkpt lat="43.11126" lon="1.60303">
        <ele>292.628</ele>
        <time>2021-02-05T22:19:11Z</time>
      </trkpt>
      <trkpt lat="43.11096" lon="1.60237">
        <ele>297.37</ele>
        <time>2021-02-05T22:19:31Z</time>
      </trkpt>
      <trkpt lat="43.11065" lon="1.60204">
        <ele>300.847</ele>
        <time>2021-02-05T22:19:51Z</time>
      </trkpt>
      <trkpt lat="43.11049" lon="1.60171">
        <ele>305.129</ele>
        <time>2021-02-05T22:20:11Z</time>
      </trkpt>
      <trkpt lat="43.11023" lon="1.60147">
        <ele>309.121</ele>
        <time>2019-12-09T09:33:01Z</time>
      </trkpt>
      <trkpt lat="43.11001" lon="1.60128">
        <ele>310.508</ele>
        <time>2019-12-09T09:33:21Z</time>
      </trkpt>
      <trkpt lat="43.10949" lon="1.60134">
        <ele>304.34</ele>
        <time>2019-12-09T09:33:41Z</time>
      </trkpt>
      <trkpt lat="43.10902" lon="1.60152">
        <ele>300.969</ele>
        <time>2021-02-05T22:21:31Z</time>
      </trkpt>
      <trkpt lat="43.10879" lon="1.60192">
        <ele>297.595</ele>
        <time>2021-02-05T22:21:51Z</time>
      </trkpt>
      <trkpt lat="43.10854" lon="1.6023">
        <ele>294.591</ele>
        <time>2021-02-05T22:22:11Z</time>
      </trkpt>
      <trkpt lat="43.10836" lon="1.60274">
        <ele>290.322</ele>
        <time>2021-02-05T22:22:31Z</time>
      </trkpt>
      <trkpt lat="43.10781" lon="1.60296">
        <ele>290.584</ele>
        <time>2021-02-05T22:22:51Z</time>
      </trkpt>
      <trkpt lat="43.1072" lon="1.60333">
        <ele>289.647</ele>
        <time>2021-02-05T22:23:11Z</time>
      </trkpt>
      <trkpt lat="43.10597" lon="1.60366">
        <ele>297.649</ele>
        <time>2019-12-09T09:36:21Z</time>
      </trkpt>
      <trkpt lat="43.10567" lon="1.60443">
        <ele>298.737</ele>
        <time>2019-12-09T09:36:41Z</time>
      </trkpt>
      <trkpt lat="43.10534" lon="1.60491">
        <ele>299.649</ele>
        <time>2019-12-09T09:37:01Z</time>
      </trkpt>
      <trkpt lat="43.10528" lon="1.60594">
        <ele>291.013</ele>
        <time>2019-12-09T09:37:21Z</time>
      </trkpt>
      <trkpt lat="43.10501" lon="1.60694">
        <ele>288.208</ele>
        <time>2019-12-09T09:37:41Z</time>
      </trkpt>
      <trkpt lat="43.10493" lon="1.60776">
        <ele>292.039</ele>
        <time>2019-12-09T09:38:01Z</time>
      </trkpt>
      <trkpt lat="43.10487" lon="1.60853">
        <ele>292.378</ele>
        <time>2019-12-09T09:38:21Z</time>
      </trkpt>
      <trkpt lat="43.10501" lon="1.61074">
        <ele>293.024</ele>
        <time>2019-12-09T09:38:41Z</time>
      </trkpt>
      <trkpt lat="43.10488" lon="1.61113">
        <ele>292.76</ele>
        <time>2019-12-09T09:39:01Z</time>
      </trkpt>
      <trkpt lat="43.10485" lon="1.61273">
        <ele>293.491</ele>
        <time>2019-12-09T09:39:21Z</time>
      </trkpt>
      <trkpt lat="43.10434" lon="1.61318">
        <ele>292.333</ele>
        <time>2019-12-09T09:39:41Z</time>
      </trkpt>
      <trkpt lat="43.10398" lon="1.6138">
        <ele>291.296</ele>
        <time>2019-12-09T09:40:01Z</time>
      </trkpt>
      <trkpt lat="43.10353" lon="1.61316">
        <ele>291.058</ele>
        <time>2019-12-09T09:40:21Z</time>
      </trkpt>
      <trkpt lat="43.10292" lon="1.61244">
        <ele>291.025</ele>
        <time>2019-12-09T09:40:41Z</time>
      </trkpt>
      <trkpt lat="43.10068" lon="1.61072">
        <ele>308.126</ele>
        <time>2019-12-09T09:41:01Z</time>
      </trkpt>
      <trkpt lat="43.10037" lon="1.61056">
        <ele>315.608</ele>
        <time>2019-12-09T09:41:21Z</time>
      </trkpt>
      <trkpt lat="43.10013" lon="1.61014">
        <ele>330.508</ele>
        <time>2021-02-05T22:28:51Z</time>
      </trkpt>
      <trkpt lat="43.0989" lon="1.60626">
        <ele>403.638</ele>
        <time>2021-02-05T22:29:11Z</time>
      </trkpt>
      <trkpt lat="43.09736" lon="1.60659">
        <ele>423.657</ele>
        <time>2021-02-05T22:29:31Z</time>
      </trkpt>
      <trkpt lat="43.09609" lon="1.60797">
        <ele>428.233</ele>
        <time>2021-02-05T22:29:51Z</time>
      </trkpt>
      <trkpt lat="43.09577" lon="1.60803">
        <ele>426.869</ele>
        <time>2021-02-05T22:30:11Z</time>
      </trkpt>
      <trkpt lat="43.09515" lon="1.60736">
        <ele>435.46</ele>
        <time>2021-02-05T22:30:31Z</time>
      </trkpt>
      <trkpt lat="43.09517" lon="1.60711">
        <ele>440.842</ele>
        <time>2021-02-05T22:30:51Z</time>
      </trkpt>
      <trkpt lat="43.09546" lon="1.60703">
        <ele>443.755</ele>
        <time>2021-02-05T22:31:11Z</time>
      </trkpt>
      <trkpt lat="43.09587" lon="1.60713">
        <ele>443.537</ele>
        <time>2021-02-05T22:31:31Z</time>
      </trkpt>
      <trkpt lat="43.09605" lon="1.60695">
        <ele>444.138</ele>
        <time>2021-02-05T22:31:51Z</time>
      </trkpt>
      <trkpt lat="43.09591" lon="1.60667">
        <ele>449.67</ele>
        <time>2019-12-09T09:50:21Z</time>
      </trkpt>
      <trkpt lat="43.09561" lon="1.60665">
        <ele>450.317</ele>
        <time>2019-12-09T09:50:41Z</time>
      </trkpt>
      <trkpt lat="43.09536" lon="1.60645">
        <ele>450.308</ele>
        <time>2019-12-09T09:51:01Z</time>
      </trkpt>
      <trkpt lat="43.0949" lon="1.60635">
        <ele>448.139</ele>
        <time>2019-12-09T09:51:21Z</time>
      </trkpt>
      <trkpt lat="43.0946" lon="1.60587">
        <ele>448.638</ele>
        <time>2019-12-09T09:51:41Z</time>
      </trkpt>
      <trkpt lat="43.09398" lon="1.60529">
        <ele>449.294</ele>
        <time>2019-12-09T09:52:01Z</time>
      </trkpt>
      <trkpt lat="43.09389" lon="1.60457">
        <ele>451.53</ele>
        <time>2019-12-09T09:52:21Z</time>
      </trkpt>
      <trkpt lat="43.09366" lon="1.60409">
        <ele>452.311</ele>
        <time>2019-12-09T09:52:41Z</time>
      </trkpt>
      <trkpt lat="43.09248" lon="1.60347">
        <ele>444.563</ele>
        <time>2019-12-09T09:53:01Z</time>
      </trkpt>
      <trkpt lat="43.09164" lon="1.60263">
        <ele>442.476</ele>
        <time>2019-12-09T09:53:21Z</time>
      </trkpt>
      <trkpt lat="43.09071" lon="1.60223">
        <ele>441.448</ele>
        <time>2019-12-09T09:53:41Z</time>
      </trkpt>
      <trkpt lat="43.09033" lon="1.60181">
        <ele>441.347</ele>
        <time>2019-12-09T09:54:01Z</time>
      </trkpt>
      <trkpt lat="43.09003" lon="1.60115">
        <ele>446.729</ele>
        <time>2019-12-09T09:54:21Z</time>
      </trkpt>
      <trkpt lat="43.09002" lon="1.60027">
        <ele>451.721</ele>
        <time>2019-12-09T09:54:41Z</time>
      </trkpt>
      <trkpt lat="43.0899" lon="1.59971">
        <ele>458.608</ele>
        <time>2019-12-09T09:55:01Z</time>
      </trkpt>
      <trkpt lat="43.08929" lon="1.59991">
        <ele>461.78</ele>
        <time>2019-12-09T09:55:21Z</time>
      </trkpt>
      <trkpt lat="43.08875" lon="1.59989">
        <ele>461.059</ele>
        <time>2019-12-09T09:55:41Z</time>
      </trkpt>
      <trkpt lat="43.08781" lon="1.59935">
        <ele>464.195</ele>
        <time>2019-12-09T09:56:01Z</time>
      </trkpt>
      <trkpt lat="43.08711" lon="1.59949">
        <ele>466.671</ele>
        <time>2019-12-09T09:56:21Z</time>
      </trkpt>
      <trkpt lat="43.08623" lon="1.59941">
        <ele>467.682</ele>
        <time>2019-12-09T09:56:41Z</time>
      </trkpt>
      <trkpt lat="43.08666" lon="1.59901">
        <ele>470.874</ele>
        <time>2019-12-09T09:57:01Z</time>
      </trkpt>
      <trkpt lat="43.08691" lon="1.59516">
        <ele>457.457</ele>
        <time>2019-12-09T09:57:21Z</time>
      </trkpt>
      <trkpt lat="43.08664" lon="1.5941">
        <ele>448.119</ele>
        <time>2019-12-09T09:57:41Z</time>
      </trkpt>
      <trkpt lat="43.08636" lon="1.59378">
        <ele>443.054</ele>
        <time>2019-12-09T09:58:01Z</time>
      </trkpt>
      <trkpt lat="43.08622" lon="1.59288">
        <ele>437.356</ele>
        <time>2019-12-09T09:58:21Z</time>
      </trkpt>
      <trkpt lat="43.08626" lon="1.59198">
        <ele>432.011</ele>
        <time>2019-12-09T09:58:41Z</time>
      </trkpt>
      <trkpt lat="43.08663" lon="1.5908">
        <ele>427.108</ele>
        <time>2019-12-09T09:59:01Z</time>
      </trkpt>
      <trkpt lat="43.08666" lon="1.58992">
        <ele>424.361</ele>
        <time>2019-12-09T09:59:21Z</time>
      </trkpt>
      <trkpt lat="43.08748" lon="1.58711">
        <ele>410.22</ele>
        <time>2019-12-09T09:59:41Z</time>
      </trkpt>
      <trkpt lat="43.08753" lon="1.58639">
        <ele>406.936</ele>
        <time>2019-12-09T10:00:01Z</time>
      </trkpt>
      <trkpt lat="43.08784" lon="1.58557">
        <ele>405.632</ele>
        <time>2019-12-09T10:00:21Z</time>
      </trkpt>
      <trkpt lat="43.08805" lon="1.58467">
        <ele>407.973</ele>
        <time>2019-12-09T10:00:41Z</time>
      </trkpt>
      <trkpt lat="43.08835" lon="1.58385">
        <ele>406.595</ele>
        <time>2019-12-09T10:01:01Z</time>
      </trkpt>
      <trkpt lat="43.08859" lon="1.58261">
        <ele>404.458</ele>
        <time>2019-12-09T10:01:21Z</time>
      </trkpt>
      <trkpt lat="43.08952" lon="1.58173">
        <ele>401.46</ele>
        <time>2019-12-09T10:01:41Z</time>
      </trkpt>
      <trkpt lat="43.09006" lon="1.58019">
        <ele>404.328</ele>
        <time>2019-12-09T10:02:01Z</time>
      </trkpt>
      <trkpt lat="43.09015" lon="1.57969">
        <ele>404.189</ele>
        <time>2019-12-09T10:02:21Z</time>
      </trkpt>
      <trkpt lat="43.09033" lon="1.57776">
        <ele>395.717</ele>
        <time>2019-12-09T10:02:41Z</time>
      </trkpt>
      <trkpt lat="43.09101" lon="1.5762">
        <ele>395.808</ele>
        <time>2019-12-09T10:03:01Z</time>
      </trkpt>
      <trkpt lat="43.09103" lon="1.5754">
        <ele>391.648</ele>
        <time>2019-12-09T10:03:21Z</time>
      </trkpt>
      <trkpt lat="43.09096" lon="1.57478">
        <ele>388.227</ele>
        <time>2019-12-09T10:03:41Z</time>
      </trkpt>
      <trkpt lat="43.09112" lon="1.57282">
        <ele>385.963</ele>
        <time>2019-12-09T10:04:01Z</time>
      </trkpt>
      <trkpt lat="43.09103" lon="1.57256">
        <ele>386.089</ele>
        <time>2019-12-09T10:04:21Z</time>
      </trkpt>
      <trkpt lat="43.09125" lon="1.5712">
        <ele>386.29</ele>
        <time>2019-12-09T10:04:41Z</time>
      </trkpt>
      <trkpt lat="43.09112" lon="1.56894">
        <ele>376.992</ele>
        <time>2019-12-09T10:05:01Z</time>
      </trkpt>
      <trkpt lat="43.09088" lon="1.56789">
        <ele>374.765</ele>
        <time>2019-12-09T10:05:21Z</time>
      </trkpt>
      <trkpt lat="43.09066" lon="1.56657">
        <ele>366.257</ele>
        <time>2019-12-09T10:05:41Z</time>
      </trkpt>
      <trkpt lat="43.09103" lon="1.56537">
        <ele>356.398</ele>
        <time>2019-12-09T10:06:01Z</time>
      </trkpt>
      <trkpt lat="43.09163" lon="1.56525">
        <ele>355.615</ele>
        <time>2019-12-09T10:06:21Z</time>
      </trkpt>
      <trkpt lat="43.09177" lon="1.56463">
        <ele>348.226</ele>
        <time>2019-12-09T10:06:41Z</time>
      </trkpt>
      <trkpt lat="43.09237" lon="1.56375">
        <ele>340.808</ele>
        <time>2019-12-09T10:07:01Z</time>
      </trkpt>
      <trkpt lat="43.09349" lon="1.56323">
        <ele>328.285</ele>
        <time>2019-12-09T10:07:21Z</time>
      </trkpt>
      <trkpt lat="43.09392" lon="1.56269">
        <ele>322.824</ele>
        <time>2019-12-09T10:07:41Z</time>
      </trkpt>
      <trkpt lat="43.09473" lon="1.56211">
        <ele>313.76</ele>
        <time>2019-12-09T10:08:01Z</time>
      </trkpt>
      <trkpt lat="43.09527" lon="1.56239">
        <ele>313.446</ele>
        <time>2019-12-09T10:08:21Z</time>
      </trkpt>
      <trkpt lat="43.09534" lon="1.56223">
        <ele>312.997</ele>
        <time>2019-12-09T10:08:41Z</time>
      </trkpt>
      <trkpt lat="43.09547" lon="1.56117">
        <ele>309.189</ele>
        <time>2019-12-09T10:09:01Z</time>
      </trkpt>
      <trkpt lat="43.09582" lon="1.56041">
        <ele>308.062</ele>
        <time>2019-12-09T10:09:21Z</time>
      </trkpt>
      <trkpt lat="43.09571" lon="1.56007">
        <ele>308.094</ele>
        <time>2019-12-09T10:09:41Z</time>
      </trkpt>
      <trkpt lat="43.09574" lon="1.55886">
        <ele>306.955</ele>
        <time>2019-12-09T10:10:01Z</time>
      </trkpt>
      <trkpt lat="43.0955" lon="1.55738">
        <ele>308.507</ele>
        <time>2019-12-09T10:10:21Z</time>
      </trkpt>
      <trkpt lat="43.0952" lon="1.55638">
        <ele>312.317</ele>
        <time>2019-12-09T10:10:41Z</time>
      </trkpt>
      <trkpt lat="43.0947" lon="1.55578">
        <ele>316.608</ele>
        <time>2019-12-09T10:11:01Z</time>
      </trkpt>
      <trkpt lat="43.09322" lon="1.55232">
        <ele>330.341</ele>
        <time>2019-12-09T10:11:21Z</time>
      </trkpt>
      <trkpt lat="43.09028" lon="1.55356">
        <ele>327.88</ele>
        <time>2019-12-09T10:11:41Z</time>
      </trkpt>
      <trkpt lat="43.08898" lon="1.55208">
        <ele>331.896</ele>
        <time>2019-12-09T10:12:01Z</time>
      </trkpt>
      <trkpt lat="43.08661" lon="1.54917">
        <ele>337.492</ele>
        <time>2019-12-09T10:12:21Z</time>
      </trkpt>
      <trkpt lat="43.0848" lon="1.54727">
        <ele>338.893</ele>
        <time>2019-12-09T10:12:41Z</time>
      </trkpt>
      <trkpt lat="43.08408" lon="1.54615">
        <ele>341.475</ele>
        <time>2019-12-09T10:13:01Z</time>
      </trkpt>
      <trkpt lat="43.08338" lon="1.54431">
        <ele>344.578</ele>
        <time>2019-12-09T10:13:21Z</time>
      </trkpt>
      <trkpt lat="43.08316" lon="1.54339">
        <ele>347.02</ele>
        <time>2019-12-09T10:13:41Z</time>
      </trkpt>
      <trkpt lat="43.08275" lon="1.54279">
        <ele>348.697</ele>
        <time>2019-12-09T10:14:01Z</time>
      </trkpt>
      <trkpt lat="43.08196" lon="1.54081">
        <ele>357.123</ele>
        <time>2019-12-09T10:14:21Z</time>
      </trkpt>
      <trkpt lat="43.08224" lon="1.54023">
        <ele>359.125</ele>
        <time>2019-12-09T10:14:41Z</time>
      </trkpt>
      <trkpt lat="43.08217" lon="1.53968">
        <ele>363.508</ele>
        <time>2019-12-09T10:15:01Z</time>
      </trkpt>
      <trkpt lat="43.0816" lon="1.53942">
        <ele>362.655</ele>
        <time>2019-12-09T10:15:21Z</time>
      </trkpt>
      <trkpt lat="43.08084" lon="1.53852">
        <ele>371.524</ele>
        <time>2019-12-09T10:15:41Z</time>
      </trkpt>
      <trkpt lat="43.07996" lon="1.53774">
        <ele>374.74</ele>
        <time>2019-12-09T10:16:01Z</time>
      </trkpt>
      <trkpt lat="43.07977" lon="1.53724">
        <ele>380.826</ele>
        <time>2019-12-09T10:16:21Z</time>
      </trkpt>
      <trkpt lat="43.07949" lon="1.53606">
        <ele>388.697</ele>
        <time>2019-12-09T10:16:41Z</time>
      </trkpt>
      <trkpt lat="43.07901" lon="1.53494">
        <ele>398.739</ele>
        <time>2019-12-09T10:17:01Z</time>
      </trkpt>
      <trkpt lat="43.07844" lon="1.53414">
        <ele>407.872</ele>
        <time>2019-12-09T10:17:21Z</time>
      </trkpt>
      <trkpt lat="43.07781" lon="1.53326">
        <ele>419.454</ele>
        <time>2019-12-09T10:17:41Z</time>
      </trkpt>
      <trkpt lat="43.07793" lon="1.53314">
        <ele>420.632</ele>
        <time>2019-12-09T10:18:01Z</time>
      </trkpt>
      <trkpt lat="43.07834" lon="1.53332">
        <ele>418.792</ele>
        <time>2019-12-09T10:18:21Z</time>
      </trkpt>
      <trkpt lat="43.07873" lon="1.5338">
        <ele>416.011</ele>
        <time>2019-12-09T10:18:41Z</time>
      </trkpt>
      <trkpt lat="43.07945" lon="1.53424">
        <ele>414.508</ele>
        <time>2019-12-09T10:19:01Z</time>
      </trkpt>
      <trkpt lat="43.07987" lon="1.53434">
        <ele>417.949</ele>
        <time>2019-12-09T10:19:21Z</time>
      </trkpt>
      <trkpt lat="43.08014" lon="1.5347">
        <ele>416.118</ele>
        <time>2019-12-09T10:19:41Z</time>
      </trkpt>
      <trkpt lat="43.08025" lon="1.53454">
        <ele>417.464</ele>
        <time>2019-12-09T10:20:01Z</time>
      </trkpt>
      <trkpt lat="43.07873" lon="1.5323">
        <ele>437.78</ele>
        <time>2019-12-09T10:20:21Z</time>
      </trkpt>
      <trkpt lat="43.07873" lon="1.53174">
        <ele>440.311</ele>
        <time>2019-12-09T10:20:41Z</time>
      </trkpt>
      <trkpt lat="43.07902" lon="1.5311">
        <ele>446.273</ele>
        <time>2019-12-09T10:21:01Z</time>
      </trkpt>
      <trkpt lat="43.07888" lon="1.53019">
        <ele>453.516</ele>
        <time>2019-12-09T10:21:21Z</time>
      </trkpt>
      <trkpt lat="43.07892" lon="1.52949">
        <ele>456.878</ele>
        <time>2019-12-09T10:21:41Z</time>
      </trkpt>
      <trkpt lat="43.07885" lon="1.52875">
        <ele>460.051</ele>
        <time>2019-12-09T10:22:01Z</time>
      </trkpt>
      <trkpt lat="43.07905" lon="1.52809">
        <ele>460.401</ele>
        <time>2019-12-09T10:22:21Z</time>
      </trkpt>
      <trkpt lat="43.07891" lon="1.52793">
        <ele>460.711</ele>
        <time>2019-12-09T10:22:41Z</time>
      </trkpt>
      <trkpt lat="43.07841" lon="1.52867">
        <ele>462.108</ele>
        <time>2019-12-09T10:23:01Z</time>
      </trkpt>
      <trkpt lat="43.07818" lon="1.52951">
        <ele>464.551</ele>
        <time>2019-12-09T10:23:21Z</time>
      </trkpt>
      <trkpt lat="43.07791" lon="1.52955">
        <ele>464.35</ele>
        <time>2019-12-09T10:23:41Z</time>
      </trkpt>
      <trkpt lat="43.07752" lon="1.52883">
        <ele>469.296</ele>
        <time>2019-12-09T10:24:01Z</time>
      </trkpt>
      <trkpt lat="43.07695" lon="1.52845">
        <ele>471.882</ele>
        <time>2019-12-09T10:24:21Z</time>
      </trkpt>
      <trkpt lat="43.07645" lon="1.52765">
        <ele>480.473</ele>
        <time>2019-12-09T10:24:41Z</time>
      </trkpt>
      <trkpt lat="43.07587" lon="1.52745">
        <ele>485.445</ele>
        <time>2019-12-09T10:25:01Z</time>
      </trkpt>
      <trkpt lat="43.07544" lon="1.52717">
        <ele>490.428</ele>
        <time>2019-12-09T10:25:21Z</time>
      </trkpt>
      <trkpt lat="43.07448" lon="1.52737">
        <ele>485.28</ele>
        <time>2019-12-09T10:25:41Z</time>
      </trkpt>
      <trkpt lat="43.07448" lon="1.52721">
        <ele>486.453</ele>
        <time>2019-12-09T10:26:01Z</time>
      </trkpt>
      <trkpt lat="43.07489" lon="1.52699">
        <ele>490.204</ele>
        <time>2019-12-09T10:26:21Z</time>
      </trkpt>
      <trkpt lat="43.07532" lon="1.52651">
        <ele>499.314</ele>
        <time>2019-12-09T10:26:41Z</time>
      </trkpt>
      <trkpt lat="43.07549" lon="1.52581">
        <ele>504.708</ele>
        <time>2019-12-09T10:27:01Z</time>
      </trkpt>
      <trkpt lat="43.07534" lon="1.52573">
        <ele>505.621</ele>
        <time>2019-12-09T10:27:21Z</time>
      </trkpt>
      <trkpt lat="43.07505" lon="1.52615">
        <ele>502.24</ele>
        <time>2019-12-09T10:27:41Z</time>
      </trkpt>
      <trkpt lat="43.07473" lon="1.52631">
        <ele>500.016</ele>
        <time>2019-12-09T10:28:01Z</time>
      </trkpt>
      <trkpt lat="43.0744" lon="1.52583">
        <ele>506.822</ele>
        <time>2019-12-09T10:28:21Z</time>
      </trkpt>
      <trkpt lat="43.07395" lon="1.52537">
        <ele>504.483</ele>
        <time>2019-12-09T10:28:41Z</time>
      </trkpt>
      <trkpt lat="43.07367" lon="1.52453">
        <ele>514.265</ele>
        <time>2019-12-09T10:29:01Z</time>
      </trkpt>
      <trkpt lat="43.07364" lon="1.52391">
        <ele>520.628</ele>
        <time>2019-12-09T10:29:21Z</time>
      </trkpt>
      <trkpt lat="43.07354" lon="1.52301">
        <ele>528.39</ele>
        <time>2019-12-09T10:29:41Z</time>
      </trkpt>
      <trkpt lat="43.07377" lon="1.52187">
        <ele>532.443</ele>
        <time>2019-12-09T10:30:01Z</time>
      </trkpt>
      <trkpt lat="43.07348" lon="1.52046">
        <ele>533.864</ele>
        <time>2019-12-09T10:30:21Z</time>
      </trkpt>
      <trkpt lat="43.07373" lon="1.5189">
        <ele>531.81</ele>
        <time>2019-12-09T10:30:41Z</time>
      </trkpt>
      <trkpt lat="43.07358" lon="1.51888">
        <ele>530.808</ele>
        <time>2019-12-09T10:31:01Z</time>
      </trkpt>
      <trkpt lat="43.07336" lon="1.51918">
        <ele>529.64</ele>
        <time>2019-12-09T10:31:21Z</time>
      </trkpt>
      <trkpt lat="43.07285" lon="1.51966">
        <ele>526.079</ele>
        <time>2019-12-09T10:31:41Z</time>
      </trkpt>
      <trkpt lat="43.07279" lon="1.51954">
        <ele>525.415</ele>
        <time>2019-12-09T10:32:01Z</time>
      </trkpt>
      <trkpt lat="43.073" lon="1.51904">
        <ele>522.551</ele>
        <time>2019-12-09T10:32:21Z</time>
      </trkpt>
      <trkpt lat="43.07331" lon="1.51656">
        <ele>508.422</ele>
        <time>2019-12-09T10:32:41Z</time>
      </trkpt>
      <trkpt lat="43.07306" lon="1.51454">
        <ele>502.434</ele>
        <time>2019-12-09T10:33:01Z</time>
      </trkpt>
      <trkpt lat="43.07274" lon="1.51118">
        <ele>491.987</ele>
        <time>2019-12-09T10:33:21Z</time>
      </trkpt>
      <trkpt lat="43.07237" lon="1.51069">
        <ele>501.629</ele>
        <time>2019-12-09T10:33:41Z</time>
      </trkpt>
      <trkpt lat="43.07247" lon="1.50851">
        <ele>495.722</ele>
        <time>2019-12-09T10:34:01Z</time>
      </trkpt>
      <trkpt lat="43.07239" lon="1.50827">
        <ele>492.962</ele>
        <time>2019-12-09T10:34:21Z</time>
      </trkpt>
      <trkpt lat="43.0719" lon="1.50799">
        <ele>496.908</ele>
        <time>2019-12-09T10:34:41Z</time>
      </trkpt>
      <trkpt lat="43.07152" lon="1.50757">
        <ele>500.008</ele>
        <time>2019-12-09T10:35:01Z</time>
      </trkpt>
      <trkpt lat="43.07111" lon="1.50741">
        <ele>495.488</ele>
        <time>2019-12-09T10:35:21Z</time>
      </trkpt>
      <trkpt lat="43.071" lon="1.50641">
        <ele>493.247</ele>
        <time>2019-12-09T10:35:41Z</time>
      </trkpt>
      <trkpt lat="43.07083" lon="1.50719">
        <ele>494.013</ele>
        <time>2019-12-09T10:36:01Z</time>
      </trkpt>
      <trkpt lat="43.07009" lon="1.50743">
        <ele>475.529</ele>
        <time>2019-12-09T10:36:21Z</time>
      </trkpt>
      <trkpt lat="43.06942" lon="1.50785">
        <ele>476.48</ele>
        <time>2019-12-09T10:36:41Z</time>
      </trkpt>
      <trkpt lat="43.06899" lon="1.50749">
        <ele>452.122</ele>
        <time>2019-12-09T10:37:01Z</time>
      </trkpt>
      <trkpt lat="43.06819" lon="1.50747">
        <ele>445.755</ele>
        <time>2019-12-09T10:37:21Z</time>
      </trkpt>
      <trkpt lat="43.06788" lon="1.50721">
        <ele>439.787</ele>
        <time>2019-12-09T10:37:41Z</time>
      </trkpt>
      <trkpt lat="43.06791" lon="1.50663">
        <ele>430.127</ele>
        <time>2019-12-09T10:38:01Z</time>
      </trkpt>
      <trkpt lat="43.06807" lon="1.50635">
        <ele>429.668</ele>
        <time>2019-12-09T10:38:21Z</time>
      </trkpt>
      <trkpt lat="43.06826" lon="1.50631">
        <ele>430.114</ele>
        <time>2019-12-09T10:38:41Z</time>
      </trkpt>
      <trkpt lat="43.06851" lon="1.50681">
        <ele>442.908</ele>
        <time>2019-12-09T10:39:01Z</time>
      </trkpt>
      <trkpt lat="43.06911" lon="1.50663">
        <ele>435.238</ele>
        <time>2019-12-09T10:39:21Z</time>
      </trkpt>
      <trkpt lat="43.06931" lon="1.50635">
        <ele>439.497</ele>
        <time>2019-12-09T10:39:41Z</time>
      </trkpt>
      <trkpt lat="43.06933" lon="1.50599">
        <ele>436.773</ele>
        <time>2019-12-09T10:40:01Z</time>
      </trkpt>
      <trkpt lat="43.06849" lon="1.50463">
        <ele>417.139</ele>
        <time>2019-12-09T10:40:21Z</time>
      </trkpt>
      <trkpt lat="43.06861" lon="1.50395">
        <ele>416.37</ele>
        <time>2019-12-09T10:40:41Z</time>
      </trkpt>
      <trkpt lat="43.06804" lon="1.50303">
        <ele>404.792</ele>
        <time>2019-12-09T10:41:01Z</time>
      </trkpt>
      <trkpt lat="43.06773" lon="1.50219">
        <ele>400.215</ele>
        <time>2019-12-09T10:41:21Z</time>
      </trkpt>
      <trkpt lat="43.06735" lon="1.50187">
        <ele>392.257</ele>
        <time>2019-12-09T10:41:41Z</time>
      </trkpt>
      <trkpt lat="43.06857" lon="1.49924">
        <ele>382.166</ele>
        <time>2019-12-09T10:42:01Z</time>
      </trkpt>
      <trkpt lat="43.06895" lon="1.49798">
        <ele>375.929</ele>
        <time>2019-12-09T10:42:21Z</time>
      </trkpt>
      <trkpt lat="43.06904" lon="1.4955">
        <ele>365.521</ele>
        <time>2019-12-09T10:42:41Z</time>
      </trkpt>
      <trkpt lat="43.06901" lon="1.49508">
        <ele>365.808</ele>
        <time>2019-12-09T10:43:01Z</time>
      </trkpt>
      <trkpt lat="43.06911" lon="1.49466">
        <ele>361.792</ele>
        <time>2019-12-09T10:43:21Z</time>
      </trkpt>
      <trkpt lat="43.06926" lon="1.4935">
        <ele>355.521</ele>
        <time>2019-12-09T10:43:41Z</time>
      </trkpt>
      <trkpt lat="43.06945" lon="1.4931">
        <ele>349.427</ele>
        <time>2019-12-09T10:44:01Z</time>
      </trkpt>
      <trkpt lat="43.06887" lon="1.49212">
        <ele>341.023</ele>
        <time>2019-12-09T10:44:21Z</time>
      </trkpt>
      <trkpt lat="43.06983" lon="1.49027">
        <ele>337.034</ele>
        <time>2019-12-09T10:44:41Z</time>
      </trkpt>
      <trkpt lat="43.07019" lon="1.49003">
        <ele>340.016</ele>
        <time>2019-12-09T10:45:01Z</time>
      </trkpt>
      <trkpt lat="43.07025" lon="1.48933">
        <ele>336.359</ele>
        <time>2019-12-09T10:45:21Z</time>
      </trkpt>
      <trkpt lat="43.07045" lon="1.48937">
        <ele>336.821</ele>
        <time>2019-12-09T10:45:41Z</time>
      </trkpt>
      <trkpt lat="43.07066" lon="1.49041">
        <ele>342.632</ele>
        <time>2019-12-09T10:46:01Z</time>
      </trkpt>
      <trkpt lat="43.0712" lon="1.49133">
        <ele>352.492</ele>
        <time>2019-12-09T10:46:21Z</time>
      </trkpt>
      <trkpt lat="43.07183" lon="1.49196">
        <ele>367.611</ele>
        <time>2019-12-09T10:46:41Z</time>
      </trkpt>
      <trkpt lat="43.07176" lon="1.49246">
        <ele>368.308</ele>
        <time>2019-12-09T10:47:01Z</time>
      </trkpt>
      <trkpt lat="43.07193" lon="1.49382">
        <ele>382.289</ele>
        <time>2019-12-09T10:47:21Z</time>
      </trkpt>
      <trkpt lat="43.072" lon="1.49544">
        <ele>401.238</ele>
        <time>2019-12-09T10:47:41Z</time>
      </trkpt>
      <trkpt lat="43.072" lon="1.49694">
        <ele>420.884</ele>
        <time>2019-12-09T10:48:01Z</time>
      </trkpt>
      <trkpt lat="43.07214" lon="1.4973">
        <ele>423.57</ele>
        <time>2019-12-09T10:48:21Z</time>
      </trkpt>
      <trkpt lat="43.07241" lon="1.49738">
        <ele>427.041</ele>
        <time>2019-12-09T10:48:41Z</time>
      </trkpt>
      <trkpt lat="43.07277" lon="1.49698">
        <ele>431.893</ele>
        <time>2019-12-09T10:49:01Z</time>
      </trkpt>
      <trkpt lat="43.07312" lon="1.49642">
        <ele>426.166</ele>
        <time>2019-12-09T10:49:21Z</time>
      </trkpt>
      <trkpt lat="43.07376" lon="1.4959">
        <ele>440.398</ele>
        <time>2019-12-09T10:49:41Z</time>
      </trkpt>
      <trkpt lat="43.07401" lon="1.49532">
        <ele>436.395</ele>
        <time>2019-12-09T10:50:01Z</time>
      </trkpt>
      <trkpt lat="43.07448" lon="1.49356">
        <ele>448.849</ele>
        <time>2019-12-09T10:50:21Z</time>
      </trkpt>
      <trkpt lat="43.07484" lon="1.49346">
        <ele>453.223</ele>
        <time>2019-12-09T10:50:41Z</time>
      </trkpt>
      <trkpt lat="43.07532" lon="1.49362">
        <ele>473.008</ele>
        <time>2019-12-09T10:51:01Z</time>
      </trkpt>
      <trkpt lat="43.07569" lon="1.49334">
        <ele>475.185</ele>
        <time>2019-12-09T10:51:21Z</time>
      </trkpt>
      <trkpt lat="43.07614" lon="1.49266">
        <ele>473.624</ele>
        <time>2019-12-09T10:51:41Z</time>
      </trkpt>
      <trkpt lat="43.07673" lon="1.4926">
        <ele>492.01</ele>
        <time>2019-12-09T10:52:01Z</time>
      </trkpt>
      <trkpt lat="43.07689" lon="1.49186">
        <ele>483.146</ele>
        <time>2019-12-09T10:52:21Z</time>
      </trkpt>
      <trkpt lat="43.07788" lon="1.49062">
        <ele>480.397</ele>
        <time>2019-12-09T10:52:41Z</time>
      </trkpt>
      <trkpt lat="43.078" lon="1.49061">
        <ele>481.989</ele>
        <time>2019-12-09T10:53:01Z</time>
      </trkpt>
      <trkpt lat="43.07855" lon="1.49099">
        <ele>512.282</ele>
        <time>2019-12-09T10:53:21Z</time>
      </trkpt>
      <trkpt lat="43.07891" lon="1.49091">
        <ele>518.664</ele>
        <time>2019-12-09T10:53:41Z</time>
      </trkpt>
      <trkpt lat="43.07913" lon="1.49001">
        <ele>510.639</ele>
        <time>2019-12-09T10:54:01Z</time>
      </trkpt>
      <trkpt lat="43.07918" lon="1.48947">
        <ele>512.901</ele>
        <time>2019-12-09T10:54:21Z</time>
      </trkpt>
      <trkpt lat="43.07931" lon="1.48894">
        <ele>504.321</ele>
        <time>2019-12-09T10:54:41Z</time>
      </trkpt>
      <trkpt lat="43.07947" lon="1.48896">
        <ele>504.408</ele>
        <time>2019-12-09T10:55:01Z</time>
      </trkpt>
      <trkpt lat="43.08007" lon="1.48921">
        <ele>515.369</ele>
        <time>2019-12-09T10:55:21Z</time>
      </trkpt>
      <trkpt lat="43.08045" lon="1.48921">
        <ele>513.698</ele>
        <time>2019-12-09T10:55:41Z</time>
      </trkpt>
      <trkpt lat="43.08099" lon="1.48905">
        <ele>501.924</ele>
        <time>2019-12-09T10:56:01Z</time>
      </trkpt>
      <trkpt lat="43.08112" lon="1.48916">
        <ele>500.65</ele>
        <time>2019-12-09T10:56:21Z</time>
      </trkpt>
      <trkpt lat="43.08141" lon="1.48879">
        <ele>498.181</ele>
        <time>2019-12-09T10:56:41Z</time>
      </trkpt>
      <trkpt lat="43.08189" lon="1.48847">
        <ele>494.693</ele>
        <time>2019-12-09T10:57:01Z</time>
      </trkpt>
      <trkpt lat="43.08197" lon="1.48817">
        <ele>495.546</ele>
        <time>2019-12-09T10:57:21Z</time>
      </trkpt>
      <trkpt lat="43.082" lon="1.48715">
        <ele>492.628</ele>
        <time>2019-12-09T10:57:41Z</time>
      </trkpt>
      <trkpt lat="43.0825" lon="1.48572">
        <ele>498.468</ele>
        <time>2019-12-09T10:58:01Z</time>
      </trkpt>
      <trkpt lat="43.08247" lon="1.48534">
        <ele>494.842</ele>
        <time>2019-12-09T10:58:21Z</time>
      </trkpt>
      <trkpt lat="43.08261" lon="1.48527">
        <ele>500.326</ele>
        <time>2019-12-09T10:58:41Z</time>
      </trkpt>
      <trkpt lat="43.08267" lon="1.48505">
        <ele>501.008</ele>
        <time>2019-12-09T10:59:01Z</time>
      </trkpt>
      <trkpt lat="43.08268" lon="1.48489">
        <ele>499.582</ele>
        <time>2019-12-09T10:59:21Z</time>
      </trkpt>
      <trkpt lat="43.08297" lon="1.48456">
        <ele>496.381</ele>
        <time>2019-12-09T10:59:41Z</time>
      </trkpt>
      <trkpt lat="43.0834" lon="1.48323">
        <ele>482.977</ele>
        <time>2019-12-09T11:00:01Z</time>
      </trkpt>
      <trkpt lat="43.08394" lon="1.48329">
        <ele>484.563</ele>
        <time>2019-12-09T11:00:21Z</time>
      </trkpt>
      <trkpt lat="43.08451" lon="1.48289">
        <ele>490.234</ele>
        <time>2019-12-09T11:00:41Z</time>
      </trkpt>
      <trkpt lat="43.08442" lon="1.48315">
        <ele>490.576</ele>
        <time>2019-12-09T11:01:01Z</time>
      </trkpt>
      <trkpt lat="43.08454" lon="1.48345">
        <ele>488.879</ele>
        <time>2019-12-09T11:01:21Z</time>
      </trkpt>
      <trkpt lat="43.08487" lon="1.48335">
        <ele>492.451</ele>
        <time>2019-12-09T11:01:41Z</time>
      </trkpt>
      <trkpt lat="43.08641" lon="1.48082">
        <ele>498.721</ele>
        <time>2019-12-09T11:02:01Z</time>
      </trkpt>
      <trkpt lat="43.08677" lon="1.48048">
        <ele>501.141</ele>
        <time>2019-12-09T11:02:21Z</time>
      </trkpt>
      <trkpt lat="43.0872" lon="1.4796">
        <ele>498.605</ele>
        <time>2019-12-09T11:02:41Z</time>
      </trkpt>
      <trkpt lat="43.08771" lon="1.47902">
        <ele>502.408</ele>
        <time>2019-12-09T11:03:01Z</time>
      </trkpt>
      <trkpt lat="43.08818" lon="1.47822">
        <ele>508.618</ele>
        <time>2019-12-09T11:03:21Z</time>
      </trkpt>
      <trkpt lat="43.08825" lon="1.47756">
        <ele>511.727</ele>
        <time>2019-12-09T11:03:41Z</time>
      </trkpt>
      <trkpt lat="43.08827" lon="1.4773">
        <ele>509.773</ele>
        <time>2019-12-09T11:04:01Z</time>
      </trkpt>
      <trkpt lat="43.08835" lon="1.47694">
        <ele>514.589</ele>
        <time>2019-12-09T11:04:21Z</time>
      </trkpt>
      <trkpt lat="43.08832" lon="1.47648">
        <ele>510.99</ele>
        <time>2019-12-09T11:04:41Z</time>
      </trkpt>
      <trkpt lat="43.08859" lon="1.47622">
        <ele>518.312</ele>
        <time>2019-12-09T11:05:01Z</time>
      </trkpt>
      <trkpt lat="43.08944" lon="1.47326">
        <ele>529.815</ele>
        <time>2019-12-09T11:05:21Z</time>
      </trkpt>
      <trkpt lat="43.09037" lon="1.46917">
        <ele>510.917</ele>
        <time>2019-12-09T11:05:41Z</time>
      </trkpt>
      <trkpt lat="43.09129" lon="1.46575">
        <ele>483.755</ele>
        <time>2019-12-09T11:06:01Z</time>
      </trkpt>
      <trkpt lat="43.09189" lon="1.46431">
        <ele>483.207</ele>
        <time>2019-12-09T11:06:21Z</time>
      </trkpt>
      <trkpt lat="43.09277" lon="1.46158">
        <ele>435.717</ele>
        <time>2019-12-09T11:06:41Z</time>
      </trkpt>
      <trkpt lat="43.0933" lon="1.4607">
        <ele>422.608</ele>
        <time>2019-12-09T11:07:01Z</time>
      </trkpt>
      <trkpt lat="43.09325" lon="1.46156">
        <ele>431.531</ele>
        <time>2019-12-09T11:07:21Z</time>
      </trkpt>
      <trkpt lat="43.09416" lon="1.46174">
        <ele>413.32</ele>
        <time>2019-12-09T11:07:41Z</time>
      </trkpt>
      <trkpt lat="43.09522" lon="1.46206">
        <ele>392.236</ele>
        <time>2019-12-09T11:08:01Z</time>
      </trkpt>
      <trkpt lat="43.09618" lon="1.46118">
        <ele>377.722</ele>
        <time>2019-12-09T11:08:21Z</time>
      </trkpt>
      <trkpt lat="43.09753" lon="1.4609">
        <ele>367.313</ele>
        <time>2019-12-09T11:08:41Z</time>
      </trkpt>
      <trkpt lat="43.09724" lon="1.45892">
        <ele>359.345</ele>
        <time>2019-12-09T11:09:01Z</time>
      </trkpt>
      <trkpt lat="43.09639" lon="1.45804">
        <ele>375.198</ele>
        <time>2019-12-09T11:09:21Z</time>
      </trkpt>
      <trkpt lat="43.09698" lon="1.45614">
        <ele>345.39</ele>
        <time>2019-12-09T11:09:41Z</time>
      </trkpt>
      <trkpt lat="43.09692" lon="1.45526">
        <ele>344.147</ele>
        <time>2019-12-09T11:10:01Z</time>
      </trkpt>
      <trkpt lat="43.09715" lon="1.45368">
        <ele>331.629</ele>
        <time>2019-12-09T11:10:21Z</time>
      </trkpt>
      <trkpt lat="43.09737" lon="1.45312">
        <ele>320.121</ele>
        <time>2019-12-09T11:10:41Z</time>
      </trkpt>
      <trkpt lat="43.09734" lon="1.45265">
        <ele>317.308</ele>
        <time>2019-12-09T11:11:01Z</time>
      </trkpt>
      <trkpt lat="43.0978" lon="1.45105">
        <ele>309.51</ele>
        <time>2019-12-09T11:11:21Z</time>
      </trkpt>
      <trkpt lat="43.09784" lon="1.45029">
        <ele>307.549</ele>
        <time>2019-12-09T11:11:41Z</time>
      </trkpt>
      <trkpt lat="43.098" lon="1.44949">
        <ele>307.385</ele>
        <time>2019-12-09T11:12:01Z</time>
      </trkpt>
      <trkpt lat="43.09818" lon="1.44903">
        <ele>307.691</ele>
        <time>2019-12-09T11:12:21Z</time>
      </trkpt>
      <trkpt lat="43.09818" lon="1.44859">
        <ele>306.622</ele>
        <time>2019-12-09T11:12:41Z</time>
      </trkpt>
      <trkpt lat="43.09838" lon="1.44787">
        <ele>305.234</ele>
        <time>2019-12-09T11:13:01Z</time>
      </trkpt>
      <trkpt lat="43.09865" lon="1.44753">
        <ele>304.467</ele>
        <time>2019-12-09T11:13:21Z</time>
      </trkpt>
      <trkpt lat="43.09907" lon="1.44607">
        <ele>295.999</ele>
        <time>2019-12-09T11:13:41Z</time>
      </trkpt>
      <trkpt lat="43.09894" lon="1.44597">
        <ele>295.823</ele>
        <time>2019-12-09T11:14:01Z</time>
      </trkpt>
      <trkpt lat="43.09914" lon="1.44479">
        <ele>298.783</ele>
        <time>2019-12-09T11:14:21Z</time>
      </trkpt>
      <trkpt lat="43.09849" lon="1.44485">
        <ele>300.011</ele>
        <time>2019-12-09T11:14:41Z</time>
      </trkpt>
      <trkpt lat="43.0981" lon="1.44533">
        <ele>306.208</ele>
        <time>2019-12-09T11:15:01Z</time>
      </trkpt>
      <trkpt lat="43.09714" lon="1.44533">
        <ele>328.138</ele>
        <time>2019-12-09T11:15:21Z</time>
      </trkpt>
      <trkpt lat="43.09733" lon="1.44577">
        <ele>322.627</ele>
        <time>2019-12-09T11:15:41Z</time>
      </trkpt>
      <trkpt lat="43.09702" lon="1.44637">
        <ele>328.123</ele>
        <time>2019-12-09T11:16:01Z</time>
      </trkpt>
      <trkpt lat="43.09686" lon="1.44605">
        <ele>331.999</ele>
        <time>2019-12-09T11:16:21Z</time>
      </trkpt>
      <trkpt lat="43.09653" lon="1.44593">
        <ele>346.76</ele>
        <time>2019-12-09T11:16:41Z</time>
      </trkpt>
      <trkpt lat="43.09656" lon="1.44615">
        <ele>348.522</ele>
        <time>2019-12-09T11:17:01Z</time>
      </trkpt>
      <trkpt lat="43.09596" lon="1.44669">
        <ele>361.575</ele>
        <time>2019-12-09T11:17:21Z</time>
      </trkpt>
      <trkpt lat="43.09544" lon="1.44709">
        <ele>374.777</ele>
        <time>2019-12-09T11:17:41Z</time>
      </trkpt>
      <trkpt lat="43.09479" lon="1.44701">
        <ele>385.212</ele>
        <time>2019-12-09T11:18:01Z</time>
      </trkpt>
      <trkpt lat="43.09389" lon="1.44753">
        <ele>397.632</ele>
        <time>2019-12-09T11:18:21Z</time>
      </trkpt>
      <trkpt lat="43.09325" lon="1.44795">
        <ele>406.905</ele>
        <time>2019-12-09T11:18:41Z</time>
      </trkpt>
      <trkpt lat="43.09277" lon="1.44807">
        <ele>410.508</ele>
        <time>2019-12-09T11:19:01Z</time>
      </trkpt>
      <trkpt lat="43.09236" lon="1.44803">
        <ele>423.377</ele>
        <time>2019-12-09T11:19:21Z</time>
      </trkpt>
      <trkpt lat="43.09196" lon="1.44817">
        <ele>427.176</ele>
        <time>2019-12-09T11:19:41Z</time>
      </trkpt>
      <trkpt lat="43.0915" lon="1.44815">
        <ele>441.212</ele>
        <time>2019-12-09T11:20:01Z</time>
      </trkpt>
      <trkpt lat="43.09109" lon="1.44845">
        <ele>434.468</ele>
        <time>2019-12-09T11:20:21Z</time>
      </trkpt>
      <trkpt lat="43.09058" lon="1.44899">
        <ele>438.339</ele>
        <time>2019-12-09T11:20:41Z</time>
      </trkpt>
      <trkpt lat="43.09017" lon="1.44919">
        <ele>432.541</ele>
        <time>2019-12-09T11:21:01Z</time>
      </trkpt>
      <trkpt lat="43.0897" lon="1.44957">
        <ele>439.954</ele>
        <time>2019-12-09T11:21:21Z</time>
      </trkpt>
      <trkpt lat="43.08901" lon="1.44981">
        <ele>445.166</ele>
        <time>2019-12-09T11:21:41Z</time>
      </trkpt>
      <trkpt lat="43.08851" lon="1.44995">
        <ele>442.727</ele>
        <time>2019-12-09T11:22:01Z</time>
      </trkpt>
      <trkpt lat="43.08813" lon="1.45023">
        <ele>441.668</ele>
        <time>2019-12-09T11:22:21Z</time>
      </trkpt>
      <trkpt lat="43.0872" lon="1.45125">
        <ele>438.214</ele>
        <time>2019-12-09T11:22:41Z</time>
      </trkpt>
      <trkpt lat="43.08666" lon="1.45201">
        <ele>439.208</ele>
        <time>2019-12-09T11:23:01Z</time>
      </trkpt>
      <trkpt lat="43.08605" lon="1.4524">
        <ele>440.828</ele>
        <time>2021-02-06T00:05:11Z</time>
      </trkpt>
      <trkpt lat="43.08539" lon="1.45199">
        <ele>444.297</ele>
        <time>2021-02-06T00:05:31Z</time>
      </trkpt>
      <trkpt lat="43.08536" lon="1.45179">
        <ele>444.243</ele>
        <time>2019-12-09T11:24:01Z</time>
      </trkpt>
      <trkpt lat="43.08599" lon="1.45074">
        <ele>426.759</ele>
        <time>2021-02-06T00:06:11Z</time>
      </trkpt>
      <trkpt lat="43.08553" lon="1.45066">
        <ele>428.68</ele>
        <time>2021-02-06T00:06:31Z</time>
      </trkpt>
      <trkpt lat="43.08452" lon="1.45172">
        <ele>454.182</ele>
        <time>2021-02-06T00:06:51Z</time>
      </trkpt>
      <trkpt lat="43.08432" lon="1.45101">
        <ele>449.765</ele>
        <time>2019-12-09T11:25:21Z</time>
      </trkpt>
      <trkpt lat="43.08403" lon="1.45085">
        <ele>452.787</ele>
        <time>2019-12-09T11:25:41Z</time>
      </trkpt>
      <trkpt lat="43.08346" lon="1.45125">
        <ele>453.982</ele>
        <time>2019-12-09T11:26:01Z</time>
      </trkpt>
      <trkpt lat="43.08242" lon="1.45127">
        <ele>442.443</ele>
        <time>2019-12-09T11:26:21Z</time>
      </trkpt>
      <trkpt lat="43.08192" lon="1.45113">
        <ele>442.117</ele>
        <time>2019-12-09T11:26:41Z</time>
      </trkpt>
      <trkpt lat="43.08152" lon="1.45117">
        <ele>438.708</ele>
        <time>2019-12-09T11:27:01Z</time>
      </trkpt>
      <trkpt lat="43.08123" lon="1.45065">
        <ele>444.214</ele>
        <time>2019-12-09T11:27:21Z</time>
      </trkpt>
      <trkpt lat="43.08097" lon="1.45025">
        <ele>442.993</ele>
        <time>2019-12-09T11:27:41Z</time>
      </trkpt>
      <trkpt lat="43.08094" lon="1.44929">
        <ele>444.079</ele>
        <time>2019-12-09T11:28:01Z</time>
      </trkpt>
      <trkpt lat="43.08062" lon="1.44899">
        <ele>436.455</ele>
        <time>2019-12-09T11:28:21Z</time>
      </trkpt>
      <trkpt lat="43.07989" lon="1.44793">
        <ele>431.856</ele>
        <time>2019-12-09T11:28:41Z</time>
      </trkpt>
      <trkpt lat="43.07964" lon="1.44795">
        <ele>430.228</ele>
        <time>2019-12-09T11:29:01Z</time>
      </trkpt>
      <trkpt lat="43.07939" lon="1.44813">
        <ele>427.011</ele>
        <time>2019-12-09T11:29:21Z</time>
      </trkpt>
      <trkpt lat="43.07916" lon="1.44771">
        <ele>423.753</ele>
        <time>2019-12-09T11:29:41Z</time>
      </trkpt>
      <trkpt lat="43.07867" lon="1.44767">
        <ele>420.831</ele>
        <time>2019-12-09T11:30:01Z</time>
      </trkpt>
      <trkpt lat="43.07818" lon="1.44779">
        <ele>412.961</ele>
        <time>2019-12-09T11:30:21Z</time>
      </trkpt>
      <trkpt lat="43.07787" lon="1.44755">
        <ele>410.707</ele>
        <time>2019-12-09T11:30:41Z</time>
      </trkpt>
      <trkpt lat="43.07705" lon="1.44741">
        <ele>398.308</ele>
        <time>2019-12-09T11:31:01Z</time>
      </trkpt>
      <trkpt lat="43.07676" lon="1.44783">
        <ele>397.079</ele>
        <time>2019-12-09T11:31:21Z</time>
      </trkpt>
      <trkpt lat="43.07663" lon="1.44781">
        <ele>392.948</ele>
        <time>2019-12-09T11:31:41Z</time>
      </trkpt>
      <trkpt lat="43.07647" lon="1.44741">
        <ele>394.274</ele>
        <time>2019-12-09T11:32:01Z</time>
      </trkpt>
      <trkpt lat="43.07623" lon="1.44752">
        <ele>392.91</ele>
        <time>2019-12-09T11:32:21Z</time>
      </trkpt>
      <trkpt lat="43.07584" lon="1.44761">
        <ele>393.331</ele>
        <time>2019-12-09T11:32:41Z</time>
      </trkpt>
      <trkpt lat="43.07555" lon="1.44819">
        <ele>397.423</ele>
        <time>2019-12-09T11:33:01Z</time>
      </trkpt>
      <trkpt lat="43.07534" lon="1.44846">
        <ele>395.946</ele>
        <time>2019-12-09T11:33:21Z</time>
      </trkpt>
      <trkpt lat="43.07516" lon="1.44859">
        <ele>397.318</ele>
        <time>2019-12-09T11:33:41Z</time>
      </trkpt>
      <trkpt lat="43.07509" lon="1.44886">
        <ele>395.734</ele>
        <time>2019-12-09T11:34:01Z</time>
      </trkpt>
      <trkpt lat="43.07497" lon="1.44902">
        <ele>404.555</ele>
        <time>2019-12-09T11:34:21Z</time>
      </trkpt>
      <trkpt lat="43.07475" lon="1.44998">
        <ele>402.21</ele>
        <time>2019-12-09T11:34:41Z</time>
      </trkpt>
      <trkpt lat="43.07468" lon="1.45178">
        <ele>390.508</ele>
        <time>2019-12-09T11:35:01Z</time>
      </trkpt>
      <trkpt lat="43.07462" lon="1.45271">
        <ele>387.919</ele>
        <time>2019-12-09T11:35:21Z</time>
      </trkpt>
      <trkpt lat="43.07414" lon="1.45326">
        <ele>394.988</ele>
        <time>2019-12-09T11:35:41Z</time>
      </trkpt>
      <trkpt lat="43.07397" lon="1.45357">
        <ele>396.184</ele>
        <time>2019-12-09T11:36:01Z</time>
      </trkpt>
      <trkpt lat="43.07379" lon="1.45425">
        <ele>391.39</ele>
        <time>2019-12-09T11:36:21Z</time>
      </trkpt>
      <trkpt lat="43.07365" lon="1.45453">
        <ele>391.851</ele>
        <time>2019-12-09T11:36:41Z</time>
      </trkpt>
      <trkpt lat="43.07369" lon="1.45492">
        <ele>390.143</ele>
        <time>2019-12-09T11:37:01Z</time>
      </trkpt>
      <trkpt lat="43.07345" lon="1.45523">
        <ele>387.596</ele>
        <time>2019-12-09T11:37:21Z</time>
      </trkpt>
      <trkpt lat="43.07323" lon="1.45544">
        <ele>397.138</ele>
        <time>2019-12-09T11:37:41Z</time>
      </trkpt>
      <trkpt lat="43.07315" lon="1.4556">
        <ele>396.531</ele>
        <time>2019-12-09T11:38:01Z</time>
      </trkpt>
      <trkpt lat="43.07287" lon="1.45539">
        <ele>400.861</ele>
        <time>2019-12-09T11:38:21Z</time>
      </trkpt>
      <trkpt lat="43.07224" lon="1.45448">
        <ele>423.807</ele>
        <time>2019-12-09T11:38:41Z</time>
      </trkpt>
      <trkpt lat="43.07222" lon="1.45431">
        <ele>424.508</ele>
        <time>2019-12-09T11:39:01Z</time>
      </trkpt>
      <trkpt lat="43.07181" lon="1.45438">
        <ele>429.139</ele>
        <time>2019-12-09T11:39:21Z</time>
      </trkpt>
      <trkpt lat="43.0713" lon="1.45421">
        <ele>437.638</ele>
        <time>2019-12-09T11:39:41Z</time>
      </trkpt>
      <trkpt lat="43.07083" lon="1.45383">
        <ele>463.024</ele>
        <time>2019-12-09T11:40:01Z</time>
      </trkpt>
      <trkpt lat="43.07103" lon="1.45283">
        <ele>470.08</ele>
        <time>2019-12-09T11:40:21Z</time>
      </trkpt>
      <trkpt lat="43.07059" lon="1.45321">
        <ele>480.311</ele>
        <time>2019-12-09T11:40:41Z</time>
      </trkpt>
      <trkpt lat="43.07028" lon="1.45361">
        <ele>473.123</ele>
        <time>2019-12-09T11:41:01Z</time>
      </trkpt>
      <trkpt lat="43.06952" lon="1.45394">
        <ele>483.856</ele>
        <time>2019-12-09T11:41:21Z</time>
      </trkpt>
      <trkpt lat="43.06871" lon="1.45415">
        <ele>478.658</ele>
        <time>2019-12-09T11:41:41Z</time>
      </trkpt>
      <trkpt lat="43.06858" lon="1.45411">
        <ele>477.081</ele>
        <time>2019-12-09T11:42:01Z</time>
      </trkpt>
      <trkpt lat="43.06922" lon="1.45206">
        <ele>491.461</ele>
        <time>2019-12-09T11:42:21Z</time>
      </trkpt>
      <trkpt lat="43.07007" lon="1.44908">
        <ele>507.017</ele>
        <time>2019-12-09T11:42:41Z</time>
      </trkpt>
      <trkpt lat="43.07021" lon="1.44831">
        <ele>509.208</ele>
        <time>2019-12-09T11:43:01Z</time>
      </trkpt>
      <trkpt lat="43.07028" lon="1.44766">
        <ele>511.364</ele>
        <time>2019-12-09T11:43:21Z</time>
      </trkpt>
      <trkpt lat="43.07052" lon="1.44663">
        <ele>521.273</ele>
        <time>2019-12-09T11:43:41Z</time>
      </trkpt>
      <trkpt lat="43.07043" lon="1.44624">
        <ele>520.729</ele>
        <time>2019-12-09T11:44:01Z</time>
      </trkpt>
      <trkpt lat="43.07097" lon="1.44454">
        <ele>531.665</ele>
        <time>2019-12-09T11:44:21Z</time>
      </trkpt>
      <trkpt lat="43.07073" lon="1.44415">
        <ele>525.166</ele>
        <time>2019-12-09T11:44:41Z</time>
      </trkpt>
      <trkpt lat="43.07094" lon="1.44356">
        <ele>525.718</ele>
        <time>2019-12-09T11:45:01Z</time>
      </trkpt>
      <trkpt lat="43.07096" lon="1.44294">
        <ele>519.951</ele>
        <time>2019-12-09T11:45:21Z</time>
      </trkpt>
      <trkpt lat="43.07084" lon="1.44259">
        <ele>516.053</ele>
        <time>2019-12-09T11:45:41Z</time>
      </trkpt>
      <trkpt lat="43.07025" lon="1.44157">
        <ele>494.675</ele>
        <time>2019-12-09T11:46:01Z</time>
      </trkpt>
      <trkpt lat="43.07049" lon="1.43979">
        <ele>489.828</ele>
        <time>2019-12-09T11:46:21Z</time>
      </trkpt>
      <trkpt lat="43.07082" lon="1.4387">
        <ele>488.32</ele>
        <time>2019-12-09T11:46:41Z</time>
      </trkpt>
      <trkpt lat="43.07119" lon="1.43656">
        <ele>485.208</ele>
        <time>2019-12-09T11:47:01Z</time>
      </trkpt>
      <trkpt lat="43.07141" lon="1.43513">
        <ele>484.563</ele>
        <time>2019-12-09T11:47:21Z</time>
      </trkpt>
      <trkpt lat="43.07172" lon="1.43499">
        <ele>492.452</ele>
        <time>2019-12-09T11:47:41Z</time>
      </trkpt>
      <trkpt lat="43.07231" lon="1.43359">
        <ele>487.588</ele>
        <time>2019-12-09T11:49:21Z</time>
      </trkpt>
      <trkpt lat="43.07216" lon="1.43356">
        <ele>486.834</ele>
        <time>2019-12-09T11:49:41Z</time>
      </trkpt>
      <trkpt lat="43.07206" lon="1.43323">
        <ele>482.135</ele>
        <time>2019-12-09T11:50:01Z</time>
      </trkpt>
      <trkpt lat="43.07169" lon="1.43333">
        <ele>480.067</ele>
        <time>2019-12-09T11:50:21Z</time>
      </trkpt>
      <trkpt lat="43.07197" lon="1.43153">
        <ele>462.31</ele>
        <time>2019-12-09T11:50:41Z</time>
      </trkpt>
      <trkpt lat="43.07102" lon="1.43316">
        <ele>454.312</ele>
        <time>2019-12-09T11:51:01Z</time>
      </trkpt>
      <trkpt lat="43.07124" lon="1.43125">
        <ele>433.886</ele>
        <time>2019-12-09T11:51:21Z</time>
      </trkpt>
      <trkpt lat="43.07141" lon="1.43073">
        <ele>429.66</ele>
        <time>2019-12-09T11:51:41Z</time>
      </trkpt>
      <trkpt lat="43.07135" lon="1.43013">
        <ele>425.826</ele>
        <time>2019-12-09T11:52:01Z</time>
      </trkpt>
      <trkpt lat="43.07105" lon="1.42975">
        <ele>418.208</ele>
        <time>2019-12-09T11:52:21Z</time>
      </trkpt>
      <trkpt lat="43.06991" lon="1.4291">
        <ele>414.084</ele>
        <time>2019-12-09T11:52:41Z</time>
      </trkpt>
      <trkpt lat="43.06969" lon="1.42848">
        <ele>416.863</ele>
        <time>2019-12-09T11:53:01Z</time>
      </trkpt>
      <trkpt lat="43.06919" lon="1.42814">
        <ele>422.539</ele>
        <time>2019-12-09T11:53:21Z</time>
      </trkpt>
      <trkpt lat="43.06926" lon="1.42698">
        <ele>427.445</ele>
        <time>2019-12-09T11:53:41Z</time>
      </trkpt>
      <trkpt lat="43.06952" lon="1.42597">
        <ele>431.166</ele>
        <time>2019-12-09T11:54:01Z</time>
      </trkpt>
      <trkpt lat="43.06947" lon="1.42518">
        <ele>434.328</ele>
        <time>2019-12-09T11:54:21Z</time>
      </trkpt>
      <trkpt lat="43.06934" lon="1.4243">
        <ele>437.291</ele>
        <time>2019-12-09T11:54:41Z</time>
      </trkpt>
      <trkpt lat="43.06928" lon="1.42363">
        <ele>438.143</ele>
        <time>2019-12-09T11:55:01Z</time>
      </trkpt>
      <trkpt lat="43.06922" lon="1.42243">
        <ele>443.423</ele>
        <time>2019-12-09T11:55:21Z</time>
      </trkpt>
      <trkpt lat="43.06878" lon="1.42206">
        <ele>445.283</ele>
        <time>2019-12-09T11:55:41Z</time>
      </trkpt>
      <trkpt lat="43.06867" lon="1.42091">
        <ele>449.611</ele>
        <time>2019-12-09T11:56:01Z</time>
      </trkpt>
      <trkpt lat="43.0684" lon="1.41973">
        <ele>457.908</ele>
        <time>2019-12-09T11:56:21Z</time>
      </trkpt>
      <trkpt lat="43.06818" lon="1.41732">
        <ele>478.058</ele>
        <time>2019-12-09T11:56:41Z</time>
      </trkpt>
      <trkpt lat="43.06803" lon="1.41672">
        <ele>479.377</ele>
        <time>2019-12-09T11:57:01Z</time>
      </trkpt>
      <trkpt lat="43.06798" lon="1.4161">
        <ele>477.583</ele>
        <time>2019-12-09T11:57:21Z</time>
      </trkpt>
      <trkpt lat="43.06825" lon="1.41501">
        <ele>469.919</ele>
        <time>2019-12-09T11:57:41Z</time>
      </trkpt>
      <trkpt lat="43.06817" lon="1.414">
        <ele>460.34</ele>
        <time>2019-12-09T11:58:01Z</time>
      </trkpt>
      <trkpt lat="43.06782" lon="1.41498">
        <ele>460.852</ele>
        <time>2019-12-09T11:58:21Z</time>
      </trkpt>
      <trkpt lat="43.06738" lon="1.41518">
        <ele>459.285</ele>
        <time>2019-12-09T11:58:41Z</time>
      </trkpt>
      <trkpt lat="43.06677" lon="1.41513">
        <ele>450.227</ele>
        <time>2019-12-09T11:59:01Z</time>
      </trkpt>
      <trkpt lat="43.06726" lon="1.4146">
        <ele>444.894</ele>
        <time>2019-12-09T11:59:21Z</time>
      </trkpt>
      <trkpt lat="43.06693" lon="1.4144">
        <ele>438.757</ele>
        <time>2019-12-09T11:59:41Z</time>
      </trkpt>
      <trkpt lat="43.06561" lon="1.4155">
        <ele>415.222</ele>
        <time>2019-12-09T12:00:01Z</time>
      </trkpt>
      <trkpt lat="43.06585" lon="1.41462">
        <ele>418.708</ele>
        <time>2019-12-09T12:00:21Z</time>
      </trkpt>
      <trkpt lat="43.06535" lon="1.41477">
        <ele>401.235</ele>
        <time>2019-12-09T12:00:41Z</time>
      </trkpt>
      <trkpt lat="43.06549" lon="1.41434">
        <ele>400.234</ele>
        <time>2019-12-09T12:01:01Z</time>
      </trkpt>
      <trkpt lat="43.06514" lon="1.41443">
        <ele>396.17</ele>
        <time>2019-12-09T12:01:21Z</time>
      </trkpt>
      <trkpt lat="43.0652" lon="1.41391">
        <ele>387.056</ele>
        <time>2019-12-09T12:01:41Z</time>
      </trkpt>
      <trkpt lat="43.06497" lon="1.414">
        <ele>378.087</ele>
        <time>2019-12-09T12:02:01Z</time>
      </trkpt>
      <trkpt lat="43.06467" lon="1.41503">
        <ele>385.999</ele>
        <time>2019-12-09T12:02:21Z</time>
      </trkpt>
      <trkpt lat="43.06442" lon="1.41486">
        <ele>376.572</ele>
        <time>2019-12-09T12:02:41Z</time>
      </trkpt>
      <trkpt lat="43.06415" lon="1.41419">
        <ele>365.274</ele>
        <time>2019-12-09T12:03:01Z</time>
      </trkpt>
      <trkpt lat="43.06415" lon="1.4134">
        <ele>358.013</ele>
        <time>2019-12-09T12:03:21Z</time>
      </trkpt>
      <trkpt lat="43.06433" lon="1.41249">
        <ele>352.743</ele>
        <time>2019-12-09T12:03:41Z</time>
      </trkpt>
      <trkpt lat="43.06442" lon="1.41112">
        <ele>352.407</ele>
        <time>2019-12-09T12:04:01Z</time>
      </trkpt>
      <trkpt lat="43.06422" lon="1.41046">
        <ele>347.008</ele>
        <time>2019-12-09T12:04:21Z</time>
      </trkpt>
      <trkpt lat="43.06414" lon="1.40992">
        <ele>340.127</ele>
        <time>2019-12-09T12:04:41Z</time>
      </trkpt>
      <trkpt lat="43.06437" lon="1.40962">
        <ele>340.656</ele>
        <time>2019-12-09T12:05:01Z</time>
      </trkpt>
      <trkpt lat="43.06425" lon="1.40921">
        <ele>333.832</ele>
        <time>2019-12-09T12:05:21Z</time>
      </trkpt>
      <trkpt lat="43.06442" lon="1.40846">
        <ele>333.318</ele>
        <time>2019-12-09T12:05:41Z</time>
      </trkpt>
      <trkpt lat="43.06458" lon="1.40715">
        <ele>329.829</ele>
        <time>2019-12-09T12:06:01Z</time>
      </trkpt>
      <trkpt lat="43.06483" lon="1.40668">
        <ele>331.381</ele>
        <time>2019-12-09T12:06:21Z</time>
      </trkpt>
      <trkpt lat="43.06578" lon="1.40629">
        <ele>335.734</ele>
        <time>2019-12-09T12:06:41Z</time>
      </trkpt>
      <trkpt lat="43.06599" lon="1.40316">
        <ele>326.626</ele>
        <time>2019-12-09T12:07:01Z</time>
      </trkpt>
      <trkpt lat="43.06622" lon="1.4029">
        <ele>328.097</ele>
        <time>2019-12-09T12:07:21Z</time>
      </trkpt>
      <trkpt lat="43.06679" lon="1.4026">
        <ele>336.423</ele>
        <time>2019-12-09T12:07:41Z</time>
      </trkpt>
      <trkpt lat="43.06671" lon="1.40198">
        <ele>333.225</ele>
        <time>2019-12-09T12:08:01Z</time>
      </trkpt>
      <trkpt lat="43.06694" lon="1.40134">
        <ele>332.108</ele>
        <time>2019-12-09T12:08:21Z</time>
      </trkpt>
      <trkpt lat="43.06729" lon="1.40082">
        <ele>334.865</ele>
        <time>2019-12-09T12:08:41Z</time>
      </trkpt>
      <trkpt lat="43.06713" lon="1.40026">
        <ele>332.684</ele>
        <time>2019-12-09T12:09:01Z</time>
      </trkpt>
      <trkpt lat="43.06713" lon="1.39913">
        <ele>329.63</ele>
        <time>2019-12-09T12:09:21Z</time>
      </trkpt>
      <trkpt lat="43.06748" lon="1.3984">
        <ele>330.366</ele>
        <time>2019-12-09T12:09:41Z</time>
      </trkpt>
      <trkpt lat="43.06759" lon="1.39792">
        <ele>332.267</ele>
        <time>2019-12-09T12:10:01Z</time>
      </trkpt>
      <trkpt lat="43.06839" lon="1.39662">
        <ele>331.299</ele>
        <time>2019-12-09T12:10:21Z</time>
      </trkpt>
      <trkpt lat="43.06853" lon="1.39617">
        <ele>332.322</ele>
        <time>2019-12-09T12:10:41Z</time>
      </trkpt>
      <trkpt lat="43.06878" lon="1.39589">
        <ele>333.434</ele>
        <time>2019-12-09T12:11:01Z</time>
      </trkpt>
      <trkpt lat="43.06894" lon="1.39538">
        <ele>327.636</ele>
        <time>2019-12-09T12:11:21Z</time>
      </trkpt>
      <trkpt lat="43.06931" lon="1.3953">
        <ele>338.317</ele>
        <time>2019-12-09T12:11:41Z</time>
      </trkpt>
      <trkpt lat="43.06946" lon="1.39431">
        <ele>334.018</ele>
        <time>2019-12-09T12:12:01Z</time>
      </trkpt>
      <trkpt lat="43.06967" lon="1.39365">
        <ele>329.008</ele>
        <time>2019-12-09T12:12:21Z</time>
      </trkpt>
      <trkpt lat="43.06983" lon="1.39344">
        <ele>328.959</ele>
        <time>2019-12-09T12:12:41Z</time>
      </trkpt>
      <trkpt lat="43.07" lon="1.39344">
        <ele>329.368</ele>
        <time>2019-12-09T12:13:01Z</time>
      </trkpt>
      <trkpt lat="43.0702" lon="1.39351">
        <ele>338.724</ele>
        <time>2019-12-09T12:13:21Z</time>
      </trkpt>
      <trkpt lat="43.07042" lon="1.39338">
        <ele>341.13</ele>
        <time>2019-12-09T12:13:41Z</time>
      </trkpt>
      <trkpt lat="43.07057" lon="1.39285">
        <ele>330.671</ele>
        <time>2019-12-09T12:14:01Z</time>
      </trkpt>
      <trkpt lat="43.07105" lon="1.39245">
        <ele>323.173</ele>
        <time>2019-12-09T12:14:21Z</time>
      </trkpt>
      <trkpt lat="43.07132" lon="1.39212">
        <ele>321.866</ele>
        <time>2019-12-09T12:14:41Z</time>
      </trkpt>
      <trkpt lat="43.07156" lon="1.392">
        <ele>320.968</ele>
        <time>2019-12-09T12:15:01Z</time>
      </trkpt>
      <trkpt lat="43.07181" lon="1.39199">
        <ele>328.898</ele>
        <time>2019-12-09T12:15:21Z</time>
      </trkpt>
      <trkpt lat="43.07198" lon="1.39174">
        <ele>327.315</ele>
        <time>2019-12-09T12:15:41Z</time>
      </trkpt>
      <trkpt lat="43.07286" lon="1.39103">
        <ele>318.526</ele>
        <time>2019-12-09T12:16:01Z</time>
      </trkpt>
      <trkpt lat="43.07323" lon="1.39096">
        <ele>315.508</ele>
        <time>2019-12-09T12:16:21Z</time>
      </trkpt>
      <trkpt lat="43.07409" lon="1.39117">
        <ele>318.465</ele>
        <time>2019-12-09T12:16:41Z</time>
      </trkpt>
      <trkpt lat="43.07447" lon="1.39108">
        <ele>313.574</ele>
        <time>2019-12-09T12:17:01Z</time>
      </trkpt>
      <trkpt lat="43.07512" lon="1.39115">
        <ele>307.63</ele>
        <time>2019-12-09T12:17:21Z</time>
      </trkpt>
      <trkpt lat="43.07565" lon="1.39142">
        <ele>306.936</ele>
        <time>2019-12-09T12:17:41Z</time>
      </trkpt>
      <trkpt lat="43.07592" lon="1.39166">
        <ele>306.287</ele>
        <time>2019-12-09T12:18:01Z</time>
      </trkpt>
      <trkpt lat="43.0763" lon="1.39149">
        <ele>309.789</ele>
        <time>2019-12-09T12:18:21Z</time>
      </trkpt>
      <trkpt lat="43.07646" lon="1.39104">
        <ele>310.592</ele>
        <time>2019-12-09T12:18:41Z</time>
      </trkpt>
      <trkpt lat="43.07618" lon="1.38977">
        <ele>313.974</ele>
        <time>2019-12-09T12:19:01Z</time>
      </trkpt>
      <trkpt lat="43.07599" lon="1.38932">
        <ele>310.661</ele>
        <time>2019-12-09T12:19:21Z</time>
      </trkpt>
      <trkpt lat="43.07624" lon="1.38775">
        <ele>313.921</ele>
        <time>2019-12-09T12:19:41Z</time>
      </trkpt>
      <trkpt lat="43.07685" lon="1.38582">
        <ele>308.213</ele>
        <time>2019-12-09T12:20:01Z</time>
      </trkpt>
      <trkpt lat="43.07738" lon="1.38511">
        <ele>305.308</ele>
        <time>2019-12-09T12:20:21Z</time>
      </trkpt>
      <trkpt lat="43.07796" lon="1.384">
        <ele>306.752</ele>
        <time>2019-12-09T12:20:41Z</time>
      </trkpt>
      <trkpt lat="43.07793" lon="1.38376">
        <ele>307.121</ele>
        <time>2019-12-09T12:21:01Z</time>
      </trkpt>
      <trkpt lat="43.07763" lon="1.38316">
        <ele>305.387</ele>
        <time>2019-12-09T12:21:21Z</time>
      </trkpt>
      <trkpt lat="43.07765" lon="1.38222">
        <ele>307.173</ele>
        <time>2019-12-09T12:21:41Z</time>
      </trkpt>
      <trkpt lat="43.07752" lon="1.38138">
        <ele>300.064</ele>
        <time>2019-12-09T12:22:01Z</time>
      </trkpt>
      <trkpt lat="43.07759" lon="1.38074">
        <ele>291.246</ele>
        <time>2019-12-09T12:22:21Z</time>
      </trkpt>
      <trkpt lat="43.07731" lon="1.37999">
        <ele>295.179</ele>
        <time>2019-12-09T12:22:41Z</time>
      </trkpt>
      <trkpt lat="43.07738" lon="1.37949">
        <ele>299.781</ele>
        <time>2019-12-09T12:23:01Z</time>
      </trkpt>
      <trkpt lat="43.07785" lon="1.37889">
        <ele>294.223</ele>
        <time>2019-12-09T12:23:21Z</time>
      </trkpt>
      <trkpt lat="43.07787" lon="1.37722">
        <ele>302.983</ele>
        <time>2019-12-09T12:23:41Z</time>
      </trkpt>
      <trkpt lat="43.07897" lon="1.37808">
        <ele>289.011</ele>
        <time>2019-12-09T12:24:01Z</time>
      </trkpt>
      <trkpt lat="43.07897" lon="1.37788">
        <ele>289.308</ele>
        <time>2019-12-09T12:24:21Z</time>
      </trkpt>
      <trkpt lat="43.07851" lon="1.37743">
        <ele>287.048</ele>
        <time>2019-12-09T12:24:41Z</time>
      </trkpt>
      <trkpt lat="43.07853" lon="1.37685">
        <ele>288.227</ele>
        <time>2019-12-09T12:25:01Z</time>
      </trkpt>
      <trkpt lat="43.07878" lon="1.37527">
        <ele>294.743</ele>
        <time>2019-12-09T12:25:21Z</time>
      </trkpt>
      <trkpt lat="43.07881" lon="1.37443">
        <ele>293.759</ele>
        <time>2019-12-09T12:25:41Z</time>
      </trkpt>
      <trkpt lat="43.07859" lon="1.37183">
        <ele>287.21</ele>
        <time>2019-12-09T12:26:01Z</time>
      </trkpt>
      <trkpt lat="43.07864" lon="1.36911">
        <ele>286.322</ele>
        <time>2019-12-09T12:26:21Z</time>
      </trkpt>
      <trkpt lat="43.07914" lon="1.3672">
        <ele>286.165</ele>
        <time>2019-12-09T12:26:41Z</time>
      </trkpt>
      <trkpt lat="43.07942" lon="1.36715">
        <ele>285.987</ele>
        <time>2019-12-09T12:27:01Z</time>
      </trkpt>
      <trkpt lat="43.07975" lon="1.36666">
        <ele>286.361</ele>
        <time>2019-12-09T12:27:21Z</time>
      </trkpt>
      <trkpt lat="43.08005" lon="1.36645">
        <ele>286.121</ele>
        <time>2019-12-09T12:27:41Z</time>
      </trkpt>
      <trkpt lat="43.08035" lon="1.36647">
        <ele>286.313</ele>
        <time>2019-12-09T12:28:01Z</time>
      </trkpt>
      <trkpt lat="43.08046" lon="1.36619">
        <ele>286.208</ele>
        <time>2019-12-09T12:28:21Z</time>
      </trkpt>
      <trkpt lat="43.08118" lon="1.36561">
        <ele>286.632</ele>
        <time>2019-12-09T12:28:41Z</time>
      </trkpt>
      <trkpt lat="43.08187" lon="1.36527">
        <ele>289.321</ele>
        <time>2019-12-09T12:29:01Z</time>
      </trkpt>
      <trkpt lat="43.08234" lon="1.36469">
        <ele>287.097</ele>
        <time>2019-12-09T12:29:21Z</time>
      </trkpt>
      <trkpt lat="43.08267" lon="1.36439">
        <ele>290.143</ele>
        <time>2019-12-09T12:29:41Z</time>
      </trkpt>
      <trkpt lat="43.08321" lon="1.36351">
        <ele>286.544</ele>
        <time>2019-12-09T12:30:01Z</time>
      </trkpt>
      <trkpt lat="43.08325" lon="1.36286">
        <ele>285.566</ele>
        <time>2019-12-09T12:30:21Z</time>
      </trkpt>
      <trkpt lat="43.08336" lon="1.36181">
        <ele>287.159</ele>
        <time>2019-12-09T12:30:41Z</time>
      </trkpt>
      <trkpt lat="43.08317" lon="1.3608">
        <ele>287.731</ele>
        <time>2019-12-09T12:31:01Z</time>
      </trkpt>
      <trkpt lat="43.08281" lon="1.361">
        <ele>285.817</ele>
        <time>2019-12-09T12:31:21Z</time>
      </trkpt>
      <trkpt lat="43.0821" lon="1.3608">
        <ele>286.987</ele>
        <time>2019-12-09T12:31:41Z</time>
      </trkpt>
      <trkpt lat="43.08173" lon="1.36121">
        <ele>287.415</ele>
        <time>2019-12-09T12:32:01Z</time>
      </trkpt>
      <trkpt lat="43.08143" lon="1.3617">
        <ele>287.608</ele>
        <time>2019-12-09T12:32:21Z</time>
      </trkpt>
      <trkpt lat="43.08088" lon="1.36181">
        <ele>288.247</ele>
        <time>2019-12-09T12:32:41Z</time>
      </trkpt>
      <trkpt lat="43.08028" lon="1.3617">
        <ele>287.936</ele>
        <time>2019-12-09T12:33:01Z</time>
      </trkpt>
      <trkpt lat="43.07964" lon="1.3614">
        <ele>288.932</ele>
        <time>2019-12-09T12:33:21Z</time>
      </trkpt>
      <trkpt lat="43.07868" lon="1.36031">
        <ele>290.538</ele>
        <time>2019-12-09T12:33:41Z</time>
      </trkpt>
      <trkpt lat="43.07575" lon="1.35954">
        <ele>311.089</ele>
        <time>2019-12-09T12:34:01Z</time>
      </trkpt>
      <trkpt lat="43.0751" lon="1.35874">
        <ele>303.961</ele>
        <time>2019-12-09T12:34:21Z</time>
      </trkpt>
      <trkpt lat="43.07347" lon="1.35735">
        <ele>312.554</ele>
        <time>2019-12-09T12:34:41Z</time>
      </trkpt>
      <trkpt lat="43.07296" lon="1.35683">
        <ele>311.916</ele>
        <time>2019-12-09T12:35:01Z</time>
      </trkpt>
      <trkpt lat="43.07252" lon="1.3569">
        <ele>312.854</ele>
        <time>2019-12-09T12:35:21Z</time>
      </trkpt>
      <trkpt lat="43.07218" lon="1.35681">
        <ele>320.056</ele>
        <time>2019-12-09T12:35:41Z</time>
      </trkpt>
      <trkpt lat="43.07179" lon="1.35694">
        <ele>323.411</ele>
        <time>2019-12-09T12:36:01Z</time>
      </trkpt>
      <trkpt lat="43.0718" lon="1.35716">
        <ele>327.408</ele>
        <time>2019-12-09T12:36:21Z</time>
      </trkpt>
      <trkpt lat="43.0729" lon="1.35795">
        <ele>333.421</ele>
        <time>2019-12-09T12:36:41Z</time>
      </trkpt>
      <trkpt lat="43.07262" lon="1.35825">
        <ele>338.96</ele>
        <time>2019-12-09T12:37:01Z</time>
      </trkpt>
      <trkpt lat="43.07201" lon="1.35793">
        <ele>346.136</ele>
        <time>2019-12-09T12:37:21Z</time>
      </trkpt>
      <trkpt lat="43.07155" lon="1.35793">
        <ele>365.332</ele>
        <time>2019-12-09T12:37:41Z</time>
      </trkpt>
      <trkpt lat="43.0714" lon="1.35748">
        <ele>347.573</ele>
        <time>2019-12-09T12:38:01Z</time>
      </trkpt>
      <trkpt lat="43.0701" lon="1.35677">
        <ele>372.255</ele>
        <time>2019-12-09T12:38:21Z</time>
      </trkpt>
      <trkpt lat="43.06886" lon="1.35724">
        <ele>373.768</ele>
        <time>2019-12-09T12:38:41Z</time>
      </trkpt>
      <trkpt lat="43.06831" lon="1.35726">
        <ele>368.52</ele>
        <time>2019-12-09T12:39:01Z</time>
      </trkpt>
      <trkpt lat="43.06726" lon="1.35713">
        <ele>359.994</ele>
        <time>2019-12-09T12:39:21Z</time>
      </trkpt>
      <trkpt lat="43.06669" lon="1.35713">
        <ele>358.157</ele>
        <time>2019-12-09T12:39:41Z</time>
      </trkpt>
      <trkpt lat="43.06607" lon="1.35668">
        <ele>358.722</ele>
        <time>2019-12-09T12:40:01Z</time>
      </trkpt>
      <trkpt lat="43.06575" lon="1.35606">
        <ele>357.308</ele>
        <time>2019-12-09T12:40:21Z</time>
      </trkpt>
      <trkpt lat="43.0639" lon="1.35068">
        <ele>343.975</ele>
        <time>2019-12-09T12:40:41Z</time>
      </trkpt>
      <trkpt lat="43.06293" lon="1.34825">
        <ele>333.584</ele>
        <time>2019-12-09T12:41:01Z</time>
      </trkpt>
      <trkpt lat="43.06266" lon="1.34838">
        <ele>332.84</ele>
        <time>2019-12-09T12:41:21Z</time>
      </trkpt>
      <trkpt lat="43.06213" lon="1.34939">
        <ele>337.366</ele>
        <time>2019-12-09T12:41:41Z</time>
      </trkpt>
      <trkpt lat="43.06099" lon="1.35001">
        <ele>329.727</ele>
        <time>2019-12-09T12:42:01Z</time>
      </trkpt>
      <trkpt lat="43.05911" lon="1.34795">
        <ele>331.339</ele>
        <time>2019-12-09T12:42:21Z</time>
      </trkpt>
      <trkpt lat="43.05898" lon="1.34759">
        <ele>330.472</ele>
        <time>2019-12-09T12:42:41Z</time>
      </trkpt>
      <trkpt lat="43.05838" lon="1.34692">
        <ele>329.574</ele>
        <time>2019-12-09T12:43:01Z</time>
      </trkpt>
      <trkpt lat="43.05821" lon="1.34625">
        <ele>330.256</ele>
        <time>2019-12-09T12:43:21Z</time>
      </trkpt>
      <trkpt lat="43.05784" lon="1.34587">
        <ele>329.959</ele>
        <time>2019-12-09T12:43:41Z</time>
      </trkpt>
      <trkpt lat="43.05732" lon="1.34587">
        <ele>330.314</ele>
        <time>2019-12-09T12:44:01Z</time>
      </trkpt>
      <trkpt lat="43.05655" lon="1.34538">
        <ele>333.508</ele>
        <time>2019-12-09T12:44:21Z</time>
      </trkpt>
      <trkpt lat="43.05575" lon="1.34503">
        <ele>336.751</ele>
        <time>2019-12-09T12:44:41Z</time>
      </trkpt>
      <trkpt lat="43.05539" lon="1.34462">
        <ele>338.44</ele>
        <time>2019-12-09T12:45:01Z</time>
      </trkpt>
      <trkpt lat="43.05473" lon="1.34338">
        <ele>346.296</ele>
        <time>2019-12-09T12:45:21Z</time>
      </trkpt>
      <trkpt lat="43.05445" lon="1.34186">
        <ele>344.122</ele>
        <time>2019-12-09T12:45:41Z</time>
      </trkpt>
      <trkpt lat="43.05447" lon="1.34089">
        <ele>342.033</ele>
        <time>2019-12-09T12:46:01Z</time>
      </trkpt>
      <trkpt lat="43.05476" lon="1.33992">
        <ele>338.135</ele>
        <time>2019-12-09T12:46:21Z</time>
      </trkpt>
      <trkpt lat="43.05447" lon="1.339">
        <ele>342.548</ele>
        <time>2019-12-09T12:46:41Z</time>
      </trkpt>
      <trkpt lat="43.05445" lon="1.33763">
        <ele>345.47</ele>
        <time>2019-12-09T12:47:01Z</time>
      </trkpt>
      <trkpt lat="43.05376" lon="1.3351">
        <ele>357.522</ele>
        <time>2019-12-09T12:47:21Z</time>
      </trkpt>
      <trkpt lat="43.05356" lon="1.33488">
        <ele>355.062</ele>
        <time>2019-12-09T12:47:41Z</time>
      </trkpt>
      <trkpt lat="43.05324" lon="1.33486">
        <ele>368.508</ele>
        <time>2019-12-09T12:48:01Z</time>
      </trkpt>
      <trkpt lat="43.0526" lon="1.33347">
        <ele>347.508</ele>
        <time>2019-12-09T12:48:21Z</time>
      </trkpt>
      <trkpt lat="43.05229" lon="1.33319">
        <ele>342.868</ele>
        <time>2019-12-09T12:48:41Z</time>
      </trkpt>
      <trkpt lat="43.05147" lon="1.33314">
        <ele>343.937</ele>
        <time>2019-12-09T12:49:01Z</time>
      </trkpt>
      <trkpt lat="43.05044" lon="1.33381">
        <ele>348.093</ele>
        <time>2019-12-09T12:49:21Z</time>
      </trkpt>
      <trkpt lat="43.0499" lon="1.33454">
        <ele>357.569</ele>
        <time>2019-12-09T12:49:41Z</time>
      </trkpt>
      <trkpt lat="43.04943" lon="1.33473">
        <ele>359.82</ele>
        <time>2019-12-09T12:50:01Z</time>
      </trkpt>
      <trkpt lat="43.04938" lon="1.33447">
        <ele>355.222</ele>
        <time>2019-12-09T12:50:21Z</time>
      </trkpt>
      <trkpt lat="43.04848" lon="1.33426">
        <ele>350.255</ele>
        <time>2019-12-09T12:50:41Z</time>
      </trkpt>
      <trkpt lat="43.0475" lon="1.33462">
        <ele>349.217</ele>
        <time>2019-12-09T12:51:01Z</time>
      </trkpt>
      <trkpt lat="43.04746" lon="1.33477">
        <ele>347.383</ele>
        <time>2019-12-09T12:51:21Z</time>
      </trkpt>
      <trkpt lat="43.04733" lon="1.33477">
        <ele>346.625</ele>
        <time>2019-12-09T12:51:41Z</time>
      </trkpt>
      <trkpt lat="43.04725" lon="1.33467">
        <ele>344.817</ele>
        <time>2019-12-09T12:52:01Z</time>
      </trkpt>
      <trkpt lat="43.04672" lon="1.33475">
        <ele>344.808</ele>
        <time>2019-12-09T12:52:21Z</time>
      </trkpt>
      <trkpt lat="43.04597" lon="1.33565">
        <ele>353.434</ele>
        <time>2019-12-09T12:52:41Z</time>
      </trkpt>
      <trkpt lat="43.04575" lon="1.3363">
        <ele>357.593</ele>
        <time>2019-12-09T12:53:01Z</time>
      </trkpt>
      <trkpt lat="43.04565" lon="1.33707">
        <ele>361.669</ele>
        <time>2019-12-09T12:53:21Z</time>
      </trkpt>
      <trkpt lat="43.04545" lon="1.33714">
        <ele>361.135</ele>
        <time>2019-12-09T12:53:41Z</time>
      </trkpt>
      <trkpt lat="43.04517" lon="1.3369">
        <ele>359.336</ele>
        <time>2019-12-09T12:54:01Z</time>
      </trkpt>
      <trkpt lat="43.04526" lon="1.33638">
        <ele>358.148</ele>
        <time>2019-12-09T12:54:21Z</time>
      </trkpt>
      <trkpt lat="43.04532" lon="1.33599">
        <ele>358.911</ele>
        <time>2021-02-06T01:35:11Z</time>
      </trkpt>
      <trkpt lat="43.04507" lon="1.3358">
        <ele>361.813</ele>
        <time>2021-02-06T01:35:31Z</time>
      </trkpt>
      <trkpt lat="43.04482" lon="1.33533">
        <ele>366.046</ele>
        <time>2021-02-06T01:35:51Z</time>
      </trkpt>
      <trkpt lat="43.04424" lon="1.33628">
        <ele>385.388</ele>
        <time>2021-02-06T01:36:11Z</time>
      </trkpt>
      <trkpt lat="43.04402" lon="1.33598">
        <ele>396.416</ele>
        <time>2021-02-06T01:36:31Z</time>
      </trkpt>
      <trkpt lat="43.04361" lon="1.33565">
        <ele>411.308</ele>
        <time>2021-02-06T01:36:51Z</time>
      </trkpt>
      <trkpt lat="43.04329" lon="1.33477">
        <ele>411.72</ele>
        <time>2021-02-06T01:37:11Z</time>
      </trkpt>
      <trkpt lat="43.04227" lon="1.33367">
        <ele>414.729</ele>
        <time>2021-02-06T01:37:31Z</time>
      </trkpt>
      <trkpt lat="43.04194" lon="1.33363">
        <ele>423.155</ele>
        <time>2021-02-06T01:37:51Z</time>
      </trkpt>
      <trkpt lat="43.04145" lon="1.33309">
        <ele>421.361</ele>
        <time>2021-02-06T01:38:11Z</time>
      </trkpt>
      <trkpt lat="43.04096" lon="1.3328">
        <ele>422.972</ele>
        <time>2021-02-06T01:38:31Z</time>
      </trkpt>
      <trkpt lat="43.0394" lon="1.331">
        <ele>359.384</ele>
        <time>2019-12-09T12:58:41Z</time>
      </trkpt>
      <trkpt lat="43.03856" lon="1.33106">
        <ele>362.447</ele>
        <time>2019-12-09T12:59:01Z</time>
      </trkpt>
      <trkpt lat="43.0382" lon="1.33098">
        <ele>362.999</ele>
        <time>2019-12-09T12:59:21Z</time>
      </trkpt>
      <trkpt lat="43.03786" lon="1.3304">
        <ele>349.766</ele>
        <time>2019-12-09T12:59:41Z</time>
      </trkpt>
      <trkpt lat="43.03828" lon="1.32997">
        <ele>345.829</ele>
        <time>2019-12-09T13:00:01Z</time>
      </trkpt>
      <trkpt lat="43.03918" lon="1.32999">
        <ele>345.521</ele>
        <time>2019-12-09T13:00:21Z</time>
      </trkpt>
      <trkpt lat="43.03969" lon="1.3295">
        <ele>355.208</ele>
        <time>2019-12-09T13:00:41Z</time>
      </trkpt>
      <trkpt lat="43.04056" lon="1.32941">
        <ele>350.362</ele>
        <time>2019-12-09T13:01:01Z</time>
      </trkpt>
      <trkpt lat="43.0411" lon="1.32926">
        <ele>348.391</ele>
        <time>2019-12-09T13:01:21Z</time>
      </trkpt>
      <trkpt lat="43.04147" lon="1.3293">
        <ele>347.387</ele>
        <time>2019-12-09T13:01:41Z</time>
      </trkpt>
      <trkpt lat="43.04173" lon="1.32915">
        <ele>351.783</ele>
        <time>2019-12-09T13:02:01Z</time>
      </trkpt>
      <trkpt lat="43.04217" lon="1.32911">
        <ele>354.794</ele>
        <time>2019-12-09T13:02:21Z</time>
      </trkpt>
      <trkpt lat="43.04247" lon="1.32844">
        <ele>364.066</ele>
        <time>2019-12-09T13:02:41Z</time>
      </trkpt>
      <trkpt lat="43.04294" lon="1.32844">
        <ele>363.429</ele>
        <time>2019-12-09T13:03:01Z</time>
      </trkpt>
      <trkpt lat="43.04332" lon="1.32825">
        <ele>373.051</ele>
        <time>2019-12-09T13:03:21Z</time>
      </trkpt>
      <trkpt lat="43.04413" lon="1.32887">
        <ele>375.841</ele>
        <time>2019-12-09T13:03:41Z</time>
      </trkpt>
      <trkpt lat="43.04465" lon="1.32956">
        <ele>378.181</ele>
        <time>2019-12-09T13:04:01Z</time>
      </trkpt>
      <trkpt lat="43.04551" lon="1.3299">
        <ele>385.209</ele>
        <time>2019-12-09T13:04:21Z</time>
      </trkpt>
      <trkpt lat="43.04545" lon="1.32905">
        <ele>396.408</ele>
        <time>2019-12-09T13:04:41Z</time>
      </trkpt>
      <trkpt lat="43.0452" lon="1.3284">
        <ele>401.46</ele>
        <time>2019-12-09T13:05:01Z</time>
      </trkpt>
      <trkpt lat="43.04501" lon="1.32767">
        <ele>403.279</ele>
        <time>2019-12-09T13:05:21Z</time>
      </trkpt>
      <trkpt lat="43.04434" lon="1.32724">
        <ele>404.075</ele>
        <time>2019-12-09T13:05:41Z</time>
      </trkpt>
      <trkpt lat="43.04354" lon="1.32649">
        <ele>412.181</ele>
        <time>2019-12-09T13:06:01Z</time>
      </trkpt>
      <trkpt lat="43.04343" lon="1.32617">
        <ele>413.362</ele>
        <time>2019-12-09T13:06:21Z</time>
      </trkpt>
      <trkpt lat="43.04327" lon="1.32598">
        <ele>419.394</ele>
        <time>2019-12-09T13:06:41Z</time>
      </trkpt>
      <trkpt lat="43.04307" lon="1.32583">
        <ele>424.597</ele>
        <time>2019-12-09T13:07:01Z</time>
      </trkpt>
      <trkpt lat="43.04303" lon="1.32561">
        <ele>425.319</ele>
        <time>2019-12-09T13:07:21Z</time>
      </trkpt>
      <trkpt lat="43.04283" lon="1.32546">
        <ele>426.625</ele>
        <time>2019-12-09T13:07:41Z</time>
      </trkpt>
      <trkpt lat="43.04277" lon="1.32518">
        <ele>429.026</ele>
        <time>2019-12-09T13:08:01Z</time>
      </trkpt>
      <trkpt lat="43.04231" lon="1.32439">
        <ele>444.508</ele>
        <time>2019-12-09T13:08:21Z</time>
      </trkpt>
      <trkpt lat="43.04231" lon="1.32405">
        <ele>453.708</ele>
        <time>2019-12-09T13:08:41Z</time>
      </trkpt>
      <trkpt lat="43.04162" lon="1.32284">
        <ele>479.078</ele>
        <time>2019-12-09T13:09:01Z</time>
      </trkpt>
      <trkpt lat="43.04172" lon="1.32224">
        <ele>487.777</ele>
        <time>2019-12-09T13:09:21Z</time>
      </trkpt>
      <trkpt lat="43.04143" lon="1.32246">
        <ele>492.393</ele>
        <time>2019-12-09T13:09:41Z</time>
      </trkpt>
      <trkpt lat="43.04143" lon="1.3216">
        <ele>510.159</ele>
        <time>2019-12-09T13:10:01Z</time>
      </trkpt>
      <trkpt lat="43.04162" lon="1.32141">
        <ele>511.37</ele>
        <time>2019-12-09T13:10:21Z</time>
      </trkpt>
      <trkpt lat="43.04128" lon="1.32139">
        <ele>513.832</ele>
        <time>2019-12-09T13:10:41Z</time>
      </trkpt>
      <trkpt lat="43.04068" lon="1.32175">
        <ele>507.615</ele>
        <time>2019-12-09T13:11:01Z</time>
      </trkpt>
      <trkpt lat="43.04063" lon="1.32119">
        <ele>516.177</ele>
        <time>2019-12-09T13:11:21Z</time>
      </trkpt>
      <trkpt lat="43.0404" lon="1.32121">
        <ele>515.124</ele>
        <time>2019-12-09T13:11:41Z</time>
      </trkpt>
      <trkpt lat="43.04021" lon="1.32143">
        <ele>513.504</ele>
        <time>2019-12-09T13:12:01Z</time>
      </trkpt>
      <trkpt lat="43.0399" lon="1.32093">
        <ele>509.914</ele>
        <time>2019-12-09T13:12:21Z</time>
      </trkpt>
      <trkpt lat="43.03982" lon="1.32031">
        <ele>509.208</ele>
        <time>2019-12-09T13:12:41Z</time>
      </trkpt>
      <trkpt lat="43.03954" lon="1.31967">
        <ele>508.178</ele>
        <time>2019-12-09T13:13:01Z</time>
      </trkpt>
      <trkpt lat="43.03941" lon="1.31956">
        <ele>508.047</ele>
        <time>2019-12-09T13:13:21Z</time>
      </trkpt>
      <trkpt lat="43.03899" lon="1.31868">
        <ele>514.563</ele>
        <time>2019-12-09T13:13:41Z</time>
      </trkpt>
      <trkpt lat="43.03883" lon="1.31778">
        <ele>511.229</ele>
        <time>2019-12-09T13:14:01Z</time>
      </trkpt>
      <trkpt lat="43.03852" lon="1.31722">
        <ele>508.08</ele>
        <time>2019-12-09T13:14:21Z</time>
      </trkpt>
      <trkpt lat="43.03798" lon="1.31664">
        <ele>504.352</ele>
        <time>2019-12-09T13:14:41Z</time>
      </trkpt>
      <trkpt lat="43.03747" lon="1.31621">
        <ele>499.635</ele>
        <time>2019-12-09T13:15:01Z</time>
      </trkpt>
      <trkpt lat="43.03678" lon="1.31497">
        <ele>501.137</ele>
        <time>2019-12-09T13:15:21Z</time>
      </trkpt>
      <trkpt lat="43.03676" lon="1.31308">
        <ele>494.486</ele>
        <time>2019-12-09T13:15:41Z</time>
      </trkpt>
      <trkpt lat="43.03679" lon="1.31205">
        <ele>488.56</ele>
        <time>2019-12-09T13:16:01Z</time>
      </trkpt>
      <trkpt lat="43.03674" lon="1.30978">
        <ele>483.926</ele>
        <time>2019-12-09T13:16:21Z</time>
      </trkpt>
      <trkpt lat="43.03681" lon="1.30907">
        <ele>481.808</ele>
        <time>2019-12-09T13:16:41Z</time>
      </trkpt>
      <trkpt lat="43.03657" lon="1.30789">
        <ele>482.534</ele>
        <time>2019-12-09T13:17:01Z</time>
      </trkpt>
      <trkpt lat="43.03626" lon="1.30757">
        <ele>483.893</ele>
        <time>2019-12-09T13:17:21Z</time>
      </trkpt>
      <trkpt lat="43.03618" lon="1.30733">
        <ele>484.469</ele>
        <time>2019-12-09T13:17:41Z</time>
      </trkpt>
      <trkpt lat="43.0358" lon="1.30712">
        <ele>493.145</ele>
        <time>2019-12-09T13:18:01Z</time>
      </trkpt>
      <trkpt lat="43.03551" lon="1.30639">
        <ele>493.616</ele>
        <time>2019-12-09T13:18:21Z</time>
      </trkpt>
      <trkpt lat="43.03518" lon="1.30591">
        <ele>496.928</ele>
        <time>2019-12-09T13:18:41Z</time>
      </trkpt>
      <trkpt lat="43.03486" lon="1.30581">
        <ele>499.651</ele>
        <time>2019-12-09T13:19:01Z</time>
      </trkpt>
      <trkpt lat="43.03482" lon="1.30557">
        <ele>499.113</ele>
        <time>2019-12-09T13:19:21Z</time>
      </trkpt>
      <trkpt lat="43.03456" lon="1.30531">
        <ele>498.222</ele>
        <time>2019-12-09T13:19:41Z</time>
      </trkpt>
      <trkpt lat="43.03408" lon="1.30458">
        <ele>494.862</ele>
        <time>2019-12-09T13:20:01Z</time>
      </trkpt>
      <trkpt lat="43.03363" lon="1.30442">
        <ele>493.908</ele>
        <time>2019-12-09T13:20:21Z</time>
      </trkpt>
      <trkpt lat="43.03334" lon="1.30438">
        <ele>493.208</ele>
        <time>2019-12-09T13:20:41Z</time>
      </trkpt>
      <trkpt lat="43.03296" lon="1.30418">
        <ele>493.278</ele>
        <time>2019-12-09T13:21:01Z</time>
      </trkpt>
      <trkpt lat="43.03235" lon="1.30448">
        <ele>488.937</ele>
        <time>2019-12-09T13:21:21Z</time>
      </trkpt>
      <trkpt lat="43.03204" lon="1.30529">
        <ele>490.193</ele>
        <time>2019-12-09T13:21:41Z</time>
      </trkpt>
      <trkpt lat="43.03201" lon="1.30557">
        <ele>489.979</ele>
        <time>2019-12-09T13:22:01Z</time>
      </trkpt>
      <trkpt lat="43.03135" lon="1.30645">
        <ele>484.94</ele>
        <time>2019-12-09T13:22:21Z</time>
      </trkpt>
      <trkpt lat="43.0311" lon="1.30654">
        <ele>484.712</ele>
        <time>2019-12-09T13:22:41Z</time>
      </trkpt>
      <trkpt lat="43.03165" lon="1.30446">
        <ele>475.175</ele>
        <time>2019-12-09T13:23:01Z</time>
      </trkpt>
      <trkpt lat="43.03154" lon="1.30293">
        <ele>454.127</ele>
        <time>2019-12-09T13:23:21Z</time>
      </trkpt>
      <trkpt lat="43.03188" lon="1.30225">
        <ele>452.389</ele>
        <time>2019-12-09T13:23:41Z</time>
      </trkpt>
      <trkpt lat="43.03232" lon="1.30199">
        <ele>452.406</ele>
        <time>2019-12-09T13:24:01Z</time>
      </trkpt>
      <trkpt lat="43.03259" lon="1.30137">
        <ele>443.726</ele>
        <time>2019-12-09T13:24:21Z</time>
      </trkpt>
      <trkpt lat="43.03278" lon="1.30053">
        <ele>425.208</ele>
        <time>2019-12-09T13:24:41Z</time>
      </trkpt>
      <trkpt lat="43.03342" lon="1.30079">
        <ele>428.454</ele>
        <time>2019-12-09T13:25:01Z</time>
      </trkpt>
      <trkpt lat="43.0332" lon="1.30046">
        <ele>424.233</ele>
        <time>2019-12-09T13:25:21Z</time>
      </trkpt>
      <trkpt lat="43.03276" lon="1.29967">
        <ele>409.169</ele>
        <time>2019-12-09T13:25:41Z</time>
      </trkpt>
      <trkpt lat="43.03256" lon="1.29939">
        <ele>407.015</ele>
        <time>2019-12-09T13:26:01Z</time>
      </trkpt>
      <trkpt lat="43.03254" lon="1.29808">
        <ele>391.446</ele>
        <time>2019-12-09T13:26:21Z</time>
      </trkpt>
      <trkpt lat="43.03271" lon="1.29804">
        <ele>390.858</ele>
        <time>2019-12-09T13:26:41Z</time>
      </trkpt>
      <trkpt lat="43.03298" lon="1.29825">
        <ele>390.661</ele>
        <time>2019-12-09T13:27:01Z</time>
      </trkpt>
      <trkpt lat="43.03281" lon="1.29789">
        <ele>390.083</ele>
        <time>2019-12-09T13:27:21Z</time>
      </trkpt>
      <trkpt lat="43.03254" lon="1.29774">
        <ele>388.341</ele>
        <time>2019-12-09T13:27:41Z</time>
      </trkpt>
      <trkpt lat="43.03284" lon="1.29772">
        <ele>389.581</ele>
        <time>2019-12-09T13:28:01Z</time>
      </trkpt>
      <trkpt lat="43.03309" lon="1.29793">
        <ele>390.409</ele>
        <time>2019-12-09T13:28:21Z</time>
      </trkpt>
      <trkpt lat="43.03284" lon="1.2975">
        <ele>389.008</ele>
        <time>2019-12-09T13:28:41Z</time>
      </trkpt>
      <trkpt lat="43.03226" lon="1.29746">
        <ele>385.59</ele>
        <time>2019-12-09T13:29:01Z</time>
      </trkpt>
      <trkpt lat="43.03215" lon="1.29714">
        <ele>387.329</ele>
        <time>2019-12-09T13:29:21Z</time>
      </trkpt>
      <trkpt lat="43.03174" lon="1.29707">
        <ele>385.025</ele>
        <time>2019-12-09T13:29:41Z</time>
      </trkpt>
      <trkpt lat="43.031" lon="1.29669">
        <ele>379.321</ele>
        <time>2019-12-09T13:30:01Z</time>
      </trkpt>
      <trkpt lat="43.03016" lon="1.29572">
        <ele>388.642</ele>
        <time>2019-12-09T13:30:21Z</time>
      </trkpt>
      <trkpt lat="43.02989" lon="1.29473">
        <ele>395.224</ele>
        <time>2019-12-09T13:30:41Z</time>
      </trkpt>
      <trkpt lat="43.02953" lon="1.29411">
        <ele>399.837</ele>
        <time>2019-12-09T13:31:01Z</time>
      </trkpt>
      <trkpt lat="43.02918" lon="1.29306">
        <ele>405.289</ele>
        <time>2019-12-09T13:31:21Z</time>
      </trkpt>
      <trkpt lat="43.02862" lon="1.29237">
        <ele>395.541</ele>
        <time>2019-12-09T13:31:41Z</time>
      </trkpt>
      <trkpt lat="43.02809" lon="1.29216">
        <ele>392.481</ele>
        <time>2019-12-09T13:32:01Z</time>
      </trkpt>
      <trkpt lat="43.02806" lon="1.29162">
        <ele>399.509</ele>
        <time>2019-12-09T13:32:21Z</time>
      </trkpt>
      <trkpt lat="43.02818" lon="1.29077">
        <ele>403.208</ele>
        <time>2019-12-09T13:32:41Z</time>
      </trkpt>
      <trkpt lat="43.02798" lon="1.2892">
        <ele>416.02</ele>
        <time>2019-12-09T13:33:01Z</time>
      </trkpt>
      <trkpt lat="43.02784" lon="1.29008">
        <ele>415.429</ele>
        <time>2019-12-09T13:33:21Z</time>
      </trkpt>
      <trkpt lat="43.02768" lon="1.29059">
        <ele>415.115</ele>
        <time>2019-12-09T13:33:41Z</time>
      </trkpt>
      <trkpt lat="43.02748" lon="1.29083">
        <ele>421.921</ele>
        <time>2019-12-09T13:34:01Z</time>
      </trkpt>
      <trkpt lat="43.02744" lon="1.2901">
        <ele>431.582</ele>
        <time>2019-12-09T13:34:21Z</time>
      </trkpt>
      <trkpt lat="43.02716" lon="1.28894">
        <ele>443.984</ele>
        <time>2019-12-09T13:34:41Z</time>
      </trkpt>
      <trkpt lat="43.02689" lon="1.28838">
        <ele>446.927</ele>
        <time>2019-12-09T13:35:01Z</time>
      </trkpt>
      <trkpt lat="43.02658" lon="1.28815">
        <ele>454.179</ele>
        <time>2019-12-09T13:35:21Z</time>
      </trkpt>
      <trkpt lat="43.02573" lon="1.288">
        <ele>469.566</ele>
        <time>2019-12-09T13:35:41Z</time>
      </trkpt>
      <trkpt lat="43.02542" lon="1.28866">
        <ele>468.629</ele>
        <time>2019-12-09T13:36:01Z</time>
      </trkpt>
      <trkpt lat="43.02533" lon="1.28918">
        <ele>464.521</ele>
        <time>2019-12-09T13:36:21Z</time>
      </trkpt>
      <trkpt lat="43.0247" lon="1.29008">
        <ele>465.708</ele>
        <time>2019-12-09T13:36:41Z</time>
      </trkpt>
      <trkpt lat="43.02396" lon="1.28954">
        <ele>474.152</ele>
        <time>2019-12-09T13:37:01Z</time>
      </trkpt>
      <trkpt lat="43.02264" lon="1.28838">
        <ele>484.251</ele>
        <time>2019-12-09T13:37:21Z</time>
      </trkpt>
      <trkpt lat="43.02214" lon="1.28828">
        <ele>484.877</ele>
        <time>2019-12-09T13:37:41Z</time>
      </trkpt>
      <trkpt lat="43.02167" lon="1.28753">
        <ele>484.013</ele>
        <time>2019-12-09T13:38:01Z</time>
      </trkpt>
      <trkpt lat="43.02151" lon="1.2868">
        <ele>484.154</ele>
        <time>2019-12-09T13:38:21Z</time>
      </trkpt>
      <trkpt lat="43.02131" lon="1.28622">
        <ele>486.466</ele>
        <time>2019-12-09T13:38:41Z</time>
      </trkpt>
      <trkpt lat="43.02148" lon="1.28534">
        <ele>488.149</ele>
        <time>2019-12-09T13:39:01Z</time>
      </trkpt>
      <trkpt lat="43.0214" lon="1.28491">
        <ele>488.631</ele>
        <time>2019-12-09T13:39:21Z</time>
      </trkpt>
      <trkpt lat="43.02106" lon="1.28448">
        <ele>491.915</ele>
        <time>2019-12-09T13:39:41Z</time>
      </trkpt>
      <trkpt lat="43.02029" lon="1.28289">
        <ele>491.765</ele>
        <time>2019-12-09T13:40:01Z</time>
      </trkpt>
      <trkpt lat="43.01977" lon="1.28218">
        <ele>485.911</ele>
        <time>2019-12-09T13:40:21Z</time>
      </trkpt>
      <trkpt lat="43.01935" lon="1.28207">
        <ele>485.308</ele>
        <time>2019-12-09T13:40:41Z</time>
      </trkpt>
      <trkpt lat="43.01907" lon="1.28205">
        <ele>485.857</ele>
        <time>2019-12-09T13:41:01Z</time>
      </trkpt>
      <trkpt lat="43.01844" lon="1.2818">
        <ele>485.576</ele>
        <time>2019-12-09T13:41:21Z</time>
      </trkpt>
      <trkpt lat="43.01809" lon="1.2812">
        <ele>483.492</ele>
        <time>2019-12-09T13:41:41Z</time>
      </trkpt>
      <trkpt lat="43.01762" lon="1.28062">
        <ele>481.548</ele>
        <time>2019-12-09T13:42:01Z</time>
      </trkpt>
      <trkpt lat="43.01726" lon="1.28023">
        <ele>478.079</ele>
        <time>2019-12-09T13:42:21Z</time>
      </trkpt>
      <trkpt lat="43.01653" lon="1.27886">
        <ele>469.821</ele>
        <time>2019-12-09T13:42:41Z</time>
      </trkpt>
      <trkpt lat="43.01637" lon="1.27785">
        <ele>460.914</ele>
        <time>2019-12-09T13:43:01Z</time>
      </trkpt>
      <trkpt lat="43.0146" lon="1.27647">
        <ele>450.286</ele>
        <time>2019-12-09T13:43:21Z</time>
      </trkpt>
      <trkpt lat="43.01317" lon="1.27596">
        <ele>459.055</ele>
        <time>2019-12-09T13:43:41Z</time>
      </trkpt>
      <trkpt lat="43.01282" lon="1.27594">
        <ele>461.907</ele>
        <time>2019-12-09T13:44:01Z</time>
      </trkpt>
      <trkpt lat="43.01282" lon="1.27559">
        <ele>458.117</ele>
        <time>2019-12-09T13:44:21Z</time>
      </trkpt>
      <trkpt lat="43.01303" lon="1.27525">
        <ele>459.008</ele>
        <time>2019-12-09T13:44:41Z</time>
      </trkpt>
      <trkpt lat="43.01337" lon="1.27523">
        <ele>457.381</ele>
        <time>2019-12-09T13:45:01Z</time>
      </trkpt>
      <trkpt lat="43.01347" lon="1.27497">
        <ele>464.16</ele>
        <time>2019-12-09T13:45:21Z</time>
      </trkpt>
      <trkpt lat="43.01376" lon="1.2748">
        <ele>466.956</ele>
        <time>2019-12-09T13:45:41Z</time>
      </trkpt>
      <trkpt lat="43.01456" lon="1.27379">
        <ele>486.442</ele>
        <time>2019-12-09T13:46:01Z</time>
      </trkpt>
      <trkpt lat="43.01508" lon="1.27373">
        <ele>487.353</ele>
        <time>2019-12-09T13:46:21Z</time>
      </trkpt>
      <trkpt lat="43.0151" lon="1.27347">
        <ele>490.445</ele>
        <time>2019-12-09T13:46:41Z</time>
      </trkpt>
      <trkpt lat="43.01438" lon="1.27195">
        <ele>503.038</ele>
        <time>2019-12-09T13:47:01Z</time>
      </trkpt>
      <trkpt lat="43.01405" lon="1.27085">
        <ele>495.68</ele>
        <time>2019-12-09T13:47:21Z</time>
      </trkpt>
      <trkpt lat="43.01361" lon="1.27083">
        <ele>490.568</ele>
        <time>2019-12-09T13:47:41Z</time>
      </trkpt>
      <trkpt lat="43.01304" lon="1.27017">
        <ele>489.342</ele>
        <time>2019-12-09T13:48:01Z</time>
      </trkpt>
      <trkpt lat="43.01271" lon="1.26952">
        <ele>487.726</ele>
        <time>2019-12-09T13:48:21Z</time>
      </trkpt>
      <trkpt lat="43.01191" lon="1.26892">
        <ele>486.708</ele>
        <time>2019-12-09T13:48:41Z</time>
      </trkpt>
      <trkpt lat="43.01138" lon="1.26832">
        <ele>484.782</ele>
        <time>2019-12-09T13:49:01Z</time>
      </trkpt>
      <trkpt lat="43.0107" lon="1.26828">
        <ele>483.731</ele>
        <time>2019-12-09T13:49:21Z</time>
      </trkpt>
      <trkpt lat="43.00975" lon="1.26774">
        <ele>489.467</ele>
        <time>2019-12-09T13:49:41Z</time>
      </trkpt>
      <trkpt lat="43.00926" lon="1.26838">
        <ele>490.393</ele>
        <time>2019-12-09T13:50:01Z</time>
      </trkpt>
      <trkpt lat="43.0089" lon="1.26699">
        <ele>496.964</ele>
        <time>2019-12-09T13:50:21Z</time>
      </trkpt>
      <trkpt lat="43.00915" lon="1.26667">
        <ele>500.786</ele>
        <time>2019-12-09T13:50:41Z</time>
      </trkpt>
      <trkpt lat="43.00882" lon="1.26506">
        <ele>505.729</ele>
        <time>2019-12-09T13:51:01Z</time>
      </trkpt>
      <trkpt lat="43.00846" lon="1.26459">
        <ele>509.771</ele>
        <time>2019-12-09T13:51:21Z</time>
      </trkpt>
      <trkpt lat="43.00769" lon="1.26427">
        <ele>509.224</ele>
        <time>2019-12-09T13:51:41Z</time>
      </trkpt>
      <trkpt lat="43.00727" lon="1.26396">
        <ele>513.004</ele>
        <time>2019-12-09T13:52:01Z</time>
      </trkpt>
      <trkpt lat="43.00648" lon="1.26205">
        <ele>511.514</ele>
        <time>2019-12-09T13:52:21Z</time>
      </trkpt>
      <trkpt lat="43.00637" lon="1.26057">
        <ele>513.508</ele>
        <time>2019-12-09T13:52:41Z</time>
      </trkpt>
      <trkpt lat="43.00578" lon="1.25937">
        <ele>504.588</ele>
        <time>2019-12-09T13:53:01Z</time>
      </trkpt>
      <trkpt lat="43.00614" lon="1.25905">
        <ele>513.617</ele>
        <time>2019-12-09T13:53:21Z</time>
      </trkpt>
      <trkpt lat="43.00615" lon="1.25864">
        <ele>514.043</ele>
        <time>2019-12-09T13:53:41Z</time>
      </trkpt>
      <trkpt lat="43.00648" lon="1.25856">
        <ele>517.889</ele>
        <time>2019-12-09T13:54:01Z</time>
      </trkpt>
      <trkpt lat="43.00622" lon="1.25757">
        <ele>516.11</ele>
        <time>2019-12-09T13:54:21Z</time>
      </trkpt>
      <trkpt lat="43.00623" lon="1.25575">
        <ele>516.652</ele>
        <time>2019-12-09T13:54:41Z</time>
      </trkpt>
      <trkpt lat="43.00593" lon="1.25502">
        <ele>514.755</ele>
        <time>2019-12-09T13:55:01Z</time>
      </trkpt>
      <trkpt lat="43.00568" lon="1.25416">
        <ele>517.177</ele>
        <time>2019-12-09T13:55:21Z</time>
      </trkpt>
      <trkpt lat="43.00568" lon="1.25313">
        <ele>515.874</ele>
        <time>2019-12-09T13:55:41Z</time>
      </trkpt>
      <trkpt lat="43.00543" lon="1.25229">
        <ele>514.356</ele>
        <time>2019-12-09T13:56:01Z</time>
      </trkpt>
      <trkpt lat="43.00546" lon="1.25154">
        <ele>513.121</ele>
        <time>2019-12-09T13:56:21Z</time>
      </trkpt>
      <trkpt lat="43.00523" lon="1.25135">
        <ele>512.808</ele>
        <time>2019-12-09T13:56:41Z</time>
      </trkpt>
      <trkpt lat="43.0052" lon="1.25085">
        <ele>512.133</ele>
        <time>2019-12-09T13:57:01Z</time>
      </trkpt>
      <trkpt lat="43.00499" lon="1.2504">
        <ele>509.622</ele>
        <time>2019-12-09T13:57:21Z</time>
      </trkpt>
      <trkpt lat="43.0044" lon="1.25002">
        <ele>504.038</ele>
        <time>2019-12-09T13:57:41Z</time>
      </trkpt>
      <trkpt lat="43.00399" lon="1.24944">
        <ele>492.594</ele>
        <time>2019-12-09T13:58:01Z</time>
      </trkpt>
      <trkpt lat="43.00383" lon="1.24849">
        <ele>488.285</ele>
        <time>2019-12-09T13:58:21Z</time>
      </trkpt>
      <trkpt lat="43.00342" lon="1.24716">
        <ele>481.647</ele>
        <time>2019-12-09T13:58:41Z</time>
      </trkpt>
      <trkpt lat="43.00317" lon="1.24676">
        <ele>477.31</ele>
        <time>2019-12-09T13:59:01Z</time>
      </trkpt>
      <trkpt lat="43.00259" lon="1.24622">
        <ele>471.752</ele>
        <time>2019-12-09T13:59:21Z</time>
      </trkpt>
      <trkpt lat="43.00214" lon="1.24543">
        <ele>465.436</ele>
        <time>2019-12-09T13:59:41Z</time>
      </trkpt>
      <trkpt lat="43.00129" lon="1.24489">
        <ele>470.117</ele>
        <time>2019-12-09T14:00:01Z</time>
      </trkpt>
      <trkpt lat="43.00107" lon="1.24377">
        <ele>479.818</ele>
        <time>2019-12-09T14:00:21Z</time>
      </trkpt>
      <trkpt lat="43.00102" lon="1.24281">
        <ele>484.108</ele>
        <time>2019-12-09T14:00:41Z</time>
      </trkpt>
      <trkpt lat="43.00109" lon="1.24234">
        <ele>485.639</ele>
        <time>2019-12-09T14:01:01Z</time>
      </trkpt>
      <trkpt lat="43.00088" lon="1.24167">
        <ele>494.628</ele>
        <time>2019-12-09T14:01:21Z</time>
      </trkpt>
      <trkpt lat="43.00082" lon="1.2412">
        <ele>497.014</ele>
        <time>2019-12-09T14:01:41Z</time>
      </trkpt>
      <trkpt lat="43.00089" lon="1.24103">
        <ele>496.15</ele>
        <time>2021-02-06T02:42:11Z</time>
      </trkpt>
      <trkpt lat="43.00078" lon="1.24091">
        <ele>496.921</ele>
        <time>2021-02-06T02:42:31Z</time>
      </trkpt>
      <trkpt lat="43.00104" lon="1.24019">
        <ele>494.983</ele>
        <time>2021-02-06T02:42:51Z</time>
      </trkpt>
      <trkpt lat="43.00101" lon="1.23964">
        <ele>493.836</ele>
        <time>2021-02-06T02:43:11Z</time>
      </trkpt>
      <trkpt lat="43.00107" lon="1.2394">
        <ele>493.078</ele>
        <time>2021-02-06T02:43:31Z</time>
      </trkpt>
      <trkpt lat="43.00127" lon="1.23933">
        <ele>493.692</ele>
        <time>2021-02-06T02:43:51Z</time>
      </trkpt>
      <trkpt lat="43.00126" lon="1.23903">
        <ele>489.073</ele>
        <time>2019-12-09T14:02:21Z</time>
      </trkpt>
      <trkpt lat="43.00153" lon="1.23824">
        <ele>480.62</ele>
        <time>2021-02-06T02:44:31Z</time>
      </trkpt>
      <trkpt lat="43.00151" lon="1.238">
        <ele>475.808</ele>
        <time>2021-02-06T02:44:51Z</time>
      </trkpt>
      <trkpt lat="43.00079" lon="1.23802">
        <ele>474.445</ele>
        <time>2019-12-09T14:03:01Z</time>
      </trkpt>
      <trkpt lat="43.00025" lon="1.23761">
        <ele>470.894</ele>
        <time>2019-12-09T14:03:21Z</time>
      </trkpt>
      <trkpt lat="42.99981" lon="1.23753">
        <ele>465.83</ele>
        <time>2019-12-09T14:03:41Z</time>
      </trkpt>
      <trkpt lat="42.99966" lon="1.23719">
        <ele>457.916</ele>
        <time>2019-12-09T14:04:01Z</time>
      </trkpt>
      <trkpt lat="42.99925" lon="1.23716">
        <ele>455.597</ele>
        <time>2019-12-09T14:04:21Z</time>
      </trkpt>
      <trkpt lat="42.99872" lon="1.238">
        <ele>452.229</ele>
        <time>2019-12-09T14:04:41Z</time>
      </trkpt>
      <trkpt lat="42.9989" lon="1.23699">
        <ele>447.032</ele>
        <time>2019-12-09T14:05:01Z</time>
      </trkpt>
      <trkpt lat="42.99961" lon="1.23626">
        <ele>446.794</ele>
        <time>2019-12-09T14:05:21Z</time>
      </trkpt>
      <trkpt lat="43" lon="1.23616">
        <ele>447.825</ele>
        <time>2019-12-09T14:05:41Z</time>
      </trkpt>
      <trkpt lat="42.99983" lon="1.23568">
        <ele>441.126</ele>
        <time>2019-12-09T14:06:01Z</time>
      </trkpt>
      <trkpt lat="43.00008" lon="1.2353">
        <ele>440.508</ele>
        <time>2019-12-09T14:06:21Z</time>
      </trkpt>
      <trkpt lat="43.00033" lon="1.23457">
        <ele>439.808</ele>
        <time>2019-12-09T14:06:41Z</time>
      </trkpt>
      <trkpt lat="43.00038" lon="1.23377">
        <ele>439.878</ele>
        <time>2019-12-09T14:07:01Z</time>
      </trkpt>
      <trkpt lat="43.00094" lon="1.23367">
        <ele>445.537</ele>
        <time>2019-12-09T14:07:21Z</time>
      </trkpt>
      <trkpt lat="43.00102" lon="1.23337">
        <ele>445.483</ele>
        <time>2019-12-09T14:07:41Z</time>
      </trkpt>
      <trkpt lat="43.00047" lon="1.23259">
        <ele>443.479</ele>
        <time>2019-12-09T14:08:01Z</time>
      </trkpt>
      <trkpt lat="43.00041" lon="1.23098">
        <ele>449.37</ele>
        <time>2019-12-09T14:08:21Z</time>
      </trkpt>
      <trkpt lat="43.0006" lon="1.22995">
        <ele>455.822</ele>
        <time>2019-12-09T14:08:41Z</time>
      </trkpt>
      <trkpt lat="43.00061" lon="1.22905">
        <ele>458.775</ele>
        <time>2019-12-09T14:09:01Z</time>
      </trkpt>
      <trkpt lat="43.00047" lon="1.22654">
        <ele>465.427</ele>
        <time>2019-12-09T14:09:21Z</time>
      </trkpt>
      <trkpt lat="43.00033" lon="1.22547">
        <ele>469.699</ele>
        <time>2019-12-09T14:09:41Z</time>
      </trkpt>
      <trkpt lat="43.00065" lon="1.22386">
        <ele>483.607</ele>
        <time>2019-12-09T14:10:01Z</time>
      </trkpt>
      <trkpt lat="43.00082" lon="1.22124">
        <ele>496.627</ele>
        <time>2019-12-09T14:10:21Z</time>
      </trkpt>
      <trkpt lat="43.00072" lon="1.22002">
        <ele>492.608</ele>
        <time>2019-12-09T14:10:41Z</time>
      </trkpt>
      <trkpt lat="43.00094" lon="1.21978">
        <ele>487.745</ele>
        <time>2019-12-09T14:11:01Z</time>
      </trkpt>
      <trkpt lat="43.00116" lon="1.21908">
        <ele>484.764</ele>
        <time>2019-12-09T14:11:21Z</time>
      </trkpt>
      <trkpt lat="43.00167" lon="1.21671">
        <ele>472.24</ele>
        <time>2019-12-09T14:11:41Z</time>
      </trkpt>
      <trkpt lat="43.00242" lon="1.2145">
        <ele>468.946</ele>
        <time>2019-12-09T14:12:01Z</time>
      </trkpt>
      <trkpt lat="43.00267" lon="1.21315">
        <ele>461.857</ele>
        <time>2019-12-09T14:12:21Z</time>
      </trkpt>
      <trkpt lat="43.00303" lon="1.2124">
        <ele>455.969</ele>
        <time>2019-12-09T14:12:41Z</time>
      </trkpt>
      <trkpt lat="43.00306" lon="1.21174">
        <ele>455.082</ele>
        <time>2019-12-09T14:13:01Z</time>
      </trkpt>
      <trkpt lat="43.00346" lon="1.21092">
        <ele>449.864</ele>
        <time>2019-12-09T14:13:21Z</time>
      </trkpt>
      <trkpt lat="43.00469" lon="1.20496">
        <ele>442.219</ele>
        <time>2019-12-09T14:13:41Z</time>
      </trkpt>
      <trkpt lat="43.00488" lon="1.20101">
        <ele>442.909</ele>
        <time>2019-12-09T14:14:01Z</time>
      </trkpt>
      <trkpt lat="43.0054" lon="1.19906">
        <ele>446.519</ele>
        <time>2019-12-09T14:14:21Z</time>
      </trkpt>
      <trkpt lat="43.00402" lon="1.19689">
        <ele>433.908</ele>
        <time>2019-12-09T14:14:41Z</time>
      </trkpt>
      <trkpt lat="43.00311" lon="1.19695">
        <ele>430.727</ele>
        <time>2019-12-09T14:15:01Z</time>
      </trkpt>
      <trkpt lat="43.00265" lon="1.19695">
        <ele>431.076</ele>
        <time>2019-12-09T14:15:21Z</time>
      </trkpt>
      <trkpt lat="43.00079" lon="1.19788">
        <ele>428.842</ele>
        <time>2019-12-09T14:15:41Z</time>
      </trkpt>
      <trkpt lat="42.9998" lon="1.19803">
        <ele>427.418</ele>
        <time>2019-12-09T14:16:01Z</time>
      </trkpt>
      <trkpt lat="42.99972" lon="1.19719">
        <ele>429.129</ele>
        <time>2019-12-09T14:16:21Z</time>
      </trkpt>
      <trkpt lat="42.99941" lon="1.19536">
        <ele>432.721</ele>
        <time>2019-12-09T14:16:41Z</time>
      </trkpt>
      <trkpt lat="42.9992" lon="1.1947">
        <ele>434.574</ele>
        <time>2019-12-09T14:17:01Z</time>
      </trkpt>
      <trkpt lat="42.99916" lon="1.19401">
        <ele>432.476</ele>
        <time>2019-12-09T14:17:21Z</time>
      </trkpt>
      <trkpt lat="42.99933" lon="1.19335">
        <ele>434.135</ele>
        <time>2019-12-09T14:17:41Z</time>
      </trkpt>
      <trkpt lat="42.99916" lon="1.19258">
        <ele>433.586</ele>
        <time>2019-12-09T14:18:01Z</time>
      </trkpt>
      <trkpt lat="42.99923" lon="1.19195">
        <ele>440.514</ele>
        <time>2019-12-09T14:18:21Z</time>
      </trkpt>
      <trkpt lat="42.9992" lon="1.19103">
        <ele>441.908</ele>
        <time>2019-12-09T14:18:41Z</time>
      </trkpt>
      <trkpt lat="42.99945" lon="1.18989">
        <ele>442.629</ele>
        <time>2019-12-09T14:19:01Z</time>
      </trkpt>
      <trkpt lat="42.99919" lon="1.18903">
        <ele>443.378</ele>
        <time>2019-12-09T14:19:21Z</time>
      </trkpt>
      <trkpt lat="42.99906" lon="1.18788">
        <ele>438.744</ele>
        <time>2019-12-09T14:19:41Z</time>
      </trkpt>
      <trkpt lat="42.99845" lon="1.18768">
        <ele>439.81</ele>
        <time>2019-12-09T14:20:01Z</time>
      </trkpt>
      <trkpt lat="42.99846" lon="1.18687">
        <ele>433.461</ele>
        <time>2019-12-09T14:20:21Z</time>
      </trkpt>
      <trkpt lat="42.99807" lon="1.18642">
        <ele>438.233</ele>
        <time>2019-12-09T14:20:41Z</time>
      </trkpt>
      <trkpt lat="42.99804" lon="1.18554">
        <ele>432.646</ele>
        <time>2019-12-09T14:21:01Z</time>
      </trkpt>
      <trkpt lat="42.99857" lon="1.18386">
        <ele>428.748</ele>
        <time>2019-12-09T14:21:21Z</time>
      </trkpt>
      <trkpt lat="42.999" lon="1.18249">
        <ele>445.541</ele>
        <time>2019-12-09T14:21:41Z</time>
      </trkpt>
      <trkpt lat="42.99937" lon="1.18187">
        <ele>449.681</ele>
        <time>2019-12-09T14:22:01Z</time>
      </trkpt>
      <trkpt lat="43.00057" lon="1.17893">
        <ele>438.009</ele>
        <time>2019-12-09T14:22:21Z</time>
      </trkpt>
      <trkpt lat="43.0008" lon="1.17856">
        <ele>437.208</ele>
        <time>2019-12-09T14:22:41Z</time>
      </trkpt>
      <trkpt lat="43.0012" lon="1.17614">
        <ele>432.59</ele>
        <time>2019-12-09T14:23:01Z</time>
      </trkpt>
      <trkpt lat="43.00093" lon="1.17552">
        <ele>432.849</ele>
        <time>2019-12-09T14:23:21Z</time>
      </trkpt>
      <trkpt lat="43.00061" lon="1.17412">
        <ele>434.475</ele>
        <time>2019-12-09T14:23:41Z</time>
      </trkpt>
      <trkpt lat="42.99996" lon="1.17316">
        <ele>436.091</ele>
        <time>2019-12-09T14:24:01Z</time>
      </trkpt>
      <trkpt lat="42.99969" lon="1.17221">
        <ele>439.332</ele>
        <time>2019-12-09T14:24:21Z</time>
      </trkpt>
      <trkpt lat="42.99884" lon="1.17146">
        <ele>439.884</ele>
        <time>2019-12-09T14:24:41Z</time>
      </trkpt>
      <trkpt lat="42.99862" lon="1.17071">
        <ele>444.347</ele>
        <time>2019-12-09T14:25:01Z</time>
      </trkpt>
      <trkpt lat="42.9992" lon="1.16792">
        <ele>432.089</ele>
        <time>2019-12-09T14:25:21Z</time>
      </trkpt>
      <trkpt lat="42.99945" lon="1.16668">
        <ele>424.141</ele>
        <time>2019-12-09T14:25:41Z</time>
      </trkpt>
      <trkpt lat="42.99941" lon="1.16584">
        <ele>420.181</ele>
        <time>2019-12-09T14:26:01Z</time>
      </trkpt>
      <trkpt lat="42.99959" lon="1.16528">
        <ele>418.109</ele>
        <time>2019-12-09T14:26:21Z</time>
      </trkpt>
      <trkpt lat="42.99956" lon="1.16388">
        <ele>423.008</ele>
        <time>2021-02-06T03:08:51Z</time>
      </trkpt>
      <trkpt lat="42.99971" lon="1.1634">
        <ele>427.19</ele>
        <time>2021-02-06T03:09:11Z</time>
      </trkpt>
      <trkpt lat="42.99989" lon="1.16197">
        <ele>436.539</ele>
        <time>2021-02-06T03:09:31Z</time>
      </trkpt>
      <trkpt lat="43.00003" lon="1.16169">
        <ele>439.135</ele>
        <time>2021-02-06T03:09:51Z</time>
      </trkpt>
      <trkpt lat="43" lon="1.16117">
        <ele>443.171</ele>
        <time>2021-02-06T03:10:11Z</time>
      </trkpt>
      <trkpt lat="42.99983" lon="1.1605">
        <ele>447.392</ele>
        <time>2021-02-06T03:10:31Z</time>
      </trkpt>
      <trkpt lat="43.00082" lon="1.1605">
        <ele>453.914</ele>
        <time>2021-02-06T03:10:51Z</time>
      </trkpt>
      <trkpt lat="43.00075" lon="1.15991">
        <ele>457.067</ele>
        <time>2021-02-06T03:11:11Z</time>
      </trkpt>
      <trkpt lat="43.00129" lon="1.15954">
        <ele>457.069</ele>
        <time>2021-02-06T03:11:31Z</time>
      </trkpt>
      <trkpt lat="43.00104" lon="1.15773">
        <ele>467.077</ele>
        <time>2019-12-09T14:29:01Z</time>
      </trkpt>
      <trkpt lat="43.00131" lon="1.15683">
        <ele>467.061</ele>
        <time>2019-12-09T14:29:21Z</time>
      </trkpt>
      <trkpt lat="43.00129" lon="1.15571">
        <ele>466.727</ele>
        <time>2019-12-09T14:29:41Z</time>
      </trkpt>
      <trkpt lat="43.00093" lon="1.15483">
        <ele>470.208</ele>
        <time>2019-12-09T14:30:01Z</time>
      </trkpt>
      <trkpt lat="43.00082" lon="1.15324">
        <ele>470.273</ele>
        <time>2019-12-09T14:30:21Z</time>
      </trkpt>
      <trkpt lat="43.0011" lon="1.14925">
        <ele>472.132</ele>
        <time>2019-12-09T14:30:41Z</time>
      </trkpt>
      <trkpt lat="43.00115" lon="1.14651">
        <ele>457.518</ele>
        <time>2019-12-09T14:31:01Z</time>
      </trkpt>
      <trkpt lat="43.00134" lon="1.14558">
        <ele>455.544</ele>
        <time>2019-12-09T14:31:21Z</time>
      </trkpt>
      <trkpt lat="43.00131" lon="1.14455">
        <ele>452.635</ele>
        <time>2019-12-09T14:31:41Z</time>
      </trkpt>
      <trkpt lat="43.00151" lon="1.14281">
        <ele>440.047</ele>
        <time>2019-12-09T14:32:01Z</time>
      </trkpt>
      <trkpt lat="43.00174" lon="1.14187">
        <ele>429.56</ele>
        <time>2019-12-09T14:32:21Z</time>
      </trkpt>
      <trkpt lat="43.00178" lon="1.14088">
        <ele>423.932</ele>
        <time>2019-12-09T14:32:41Z</time>
      </trkpt>
      <trkpt lat="43.00209" lon="1.14026">
        <ele>422.331</ele>
        <time>2019-12-09T14:33:01Z</time>
      </trkpt>
      <trkpt lat="43.0022" lon="1.13966">
        <ele>423.261</ele>
        <time>2019-12-09T14:33:21Z</time>
      </trkpt>
      <trkpt lat="43.00209" lon="1.13902">
        <ele>426.907</ele>
        <time>2019-12-09T14:33:41Z</time>
      </trkpt>
      <trkpt lat="43.00195" lon="1.13863">
        <ele>427.108</ele>
        <time>2019-12-09T14:34:01Z</time>
      </trkpt>
      <trkpt lat="43.00189" lon="1.1379">
        <ele>433.779</ele>
        <time>2019-12-09T14:34:21Z</time>
      </trkpt>
      <trkpt lat="43.0016" lon="1.13791">
        <ele>424.578</ele>
        <time>2019-12-09T14:34:41Z</time>
      </trkpt>
      <trkpt lat="43.00176" lon="1.1376">
        <ele>433.494</ele>
        <time>2019-12-09T14:35:01Z</time>
      </trkpt>
      <trkpt lat="43.00179" lon="1.13735">
        <ele>435.01</ele>
        <time>2019-12-09T14:35:21Z</time>
      </trkpt>
      <trkpt lat="43.00194" lon="1.13727">
        <ele>436.691</ele>
        <time>2019-12-09T14:35:41Z</time>
      </trkpt>
      <trkpt lat="43.00198" lon="1.13653">
        <ele>432.383</ele>
        <time>2019-12-09T14:36:01Z</time>
      </trkpt>
      <trkpt lat="43.00165" lon="1.13608">
        <ele>418.326</ele>
        <time>2019-12-09T14:36:21Z</time>
      </trkpt>
      <trkpt lat="43.00145" lon="1.13594">
        <ele>417.118</ele>
        <time>2019-12-09T14:36:41Z</time>
      </trkpt>
      <trkpt lat="43.00025" lon="1.13569">
        <ele>391.087</ele>
        <time>2019-12-09T14:37:01Z</time>
      </trkpt>
      <trkpt lat="43.00046" lon="1.13509">
        <ele>388.942</ele>
        <time>2019-12-09T14:37:21Z</time>
      </trkpt>
      <trkpt lat="43.00027" lon="1.13432">
        <ele>390.526</ele>
        <time>2019-12-09T14:37:41Z</time>
      </trkpt>
      <trkpt lat="42.99873" lon="1.13503">
        <ele>385.908</ele>
        <time>2019-12-09T14:38:01Z</time>
      </trkpt>
      <trkpt lat="42.99862" lon="1.13453">
        <ele>394.394</ele>
        <time>2019-12-09T14:38:21Z</time>
      </trkpt>
      <trkpt lat="42.99771" lon="1.13438">
        <ele>399.413</ele>
        <time>2019-12-09T14:38:41Z</time>
      </trkpt>
      <trkpt lat="42.99735" lon="1.13449">
        <ele>405.399</ele>
        <time>2019-12-09T14:39:01Z</time>
      </trkpt>
      <trkpt lat="42.99666" lon="1.13408">
        <ele>414.775</ele>
        <time>2019-12-09T14:39:21Z</time>
      </trkpt>
      <trkpt lat="42.996" lon="1.13442">
        <ele>414.966</ele>
        <time>2019-12-09T14:39:41Z</time>
      </trkpt>
      <trkpt lat="42.99526" lon="1.13453">
        <ele>418.188</ele>
        <time>2019-12-09T14:40:01Z</time>
      </trkpt>
      <trkpt lat="42.99467" lon="1.13483">
        <ele>418.261</ele>
        <time>2019-12-09T14:40:21Z</time>
      </trkpt>
      <trkpt lat="42.99383" lon="1.13475">
        <ele>416.583</ele>
        <time>2019-12-09T14:40:41Z</time>
      </trkpt>
      <trkpt lat="42.99327" lon="1.13412">
        <ele>418.619</ele>
        <time>2019-12-09T14:41:01Z</time>
      </trkpt>
      <trkpt lat="42.99236" lon="1.134">
        <ele>413.609</ele>
        <time>2019-12-09T14:41:21Z</time>
      </trkpt>
      <trkpt lat="42.99128" lon="1.13348">
        <ele>415.119</ele>
        <time>2019-12-09T14:41:41Z</time>
      </trkpt>
      <trkpt lat="42.98996" lon="1.1337">
        <ele>418.608</ele>
        <time>2019-12-09T14:42:01Z</time>
      </trkpt>
      <trkpt lat="42.989" lon="1.13346">
        <ele>419.977</ele>
        <time>2019-12-09T14:42:21Z</time>
      </trkpt>
      <trkpt lat="42.98764" lon="1.13234">
        <ele>425.896</ele>
        <time>2019-12-09T14:42:41Z</time>
      </trkpt>
      <trkpt lat="42.98691" lon="1.13194">
        <ele>424.532</ele>
        <time>2019-12-09T14:43:01Z</time>
      </trkpt>
      <trkpt lat="42.98616" lon="1.13136">
        <ele>425.158</ele>
        <time>2019-12-09T14:43:21Z</time>
      </trkpt>
      <trkpt lat="42.98563" lon="1.13095">
        <ele>424.649</ele>
        <time>2019-12-09T14:43:41Z</time>
      </trkpt>
      <trkpt lat="42.98427" lon="1.12968">
        <ele>426.061</ele>
        <time>2021-02-06T03:26:51Z</time>
      </trkpt>
      <trkpt lat="42.9835" lon="1.13093">
        <ele>417.754</ele>
        <time>2021-02-06T03:27:11Z</time>
      </trkpt>
      <trkpt lat="42.98328" lon="1.13149">
        <ele>411.226</ele>
        <time>2021-02-06T03:27:31Z</time>
      </trkpt>
      <trkpt lat="42.98271" lon="1.13253">
        <ele>398.563</ele>
        <time>2021-02-06T03:27:51Z</time>
      </trkpt>
      <trkpt lat="42.98284" lon="1.13272">
        <ele>398.744</ele>
        <time>2021-02-06T03:28:11Z</time>
      </trkpt>
      <trkpt lat="42.98239" lon="1.13332">
        <ele>398.318</ele>
        <time>2021-02-06T03:28:31Z</time>
      </trkpt>
      <trkpt lat="42.98232" lon="1.1336">
        <ele>398.208</ele>
        <time>2021-02-06T03:28:51Z</time>
      </trkpt>
      <trkpt lat="42.98212" lon="1.13393">
        <ele>398.822</ele>
        <time>2021-02-06T03:29:11Z</time>
      </trkpt>
      <trkpt lat="42.98138" lon="1.13342">
        <ele>401.911</ele>
        <time>2021-02-06T03:29:31Z</time>
      </trkpt>
      <trkpt lat="42.98068" lon="1.13299">
        <ele>404.427</ele>
        <time>2021-02-06T03:29:51Z</time>
      </trkpt>
      <trkpt lat="42.98045" lon="1.13278">
        <ele>405.463</ele>
        <time>2021-02-06T03:30:11Z</time>
      </trkpt>
      <trkpt lat="42.97916" lon="1.13099">
        <ele>409.014</ele>
        <time>2021-02-06T03:30:31Z</time>
      </trkpt>
      <trkpt lat="42.97857" lon="1.12998">
        <ele>407.156</ele>
        <time>2021-02-06T03:30:51Z</time>
      </trkpt>
      <trkpt lat="42.97819" lon="1.1295">
        <ele>411.199</ele>
        <time>2021-02-06T03:31:11Z</time>
      </trkpt>
      <trkpt lat="42.97801" lon="1.12917">
        <ele>413.771</ele>
        <time>2021-02-06T03:31:31Z</time>
      </trkpt>
      <trkpt lat="42.9776" lon="1.12829">
        <ele>413.271</ele>
        <time>2021-02-06T03:31:51Z</time>
      </trkpt>
      <trkpt lat="42.97724" lon="1.12802">
        <ele>420.941</ele>
        <time>2021-02-06T03:32:11Z</time>
      </trkpt>
      <trkpt lat="42.97661" lon="1.12727">
        <ele>422.915</ele>
        <time>2021-02-06T03:32:31Z</time>
      </trkpt>
      <trkpt lat="42.97584" lon="1.12695">
        <ele>437.708</ele>
        <time>2021-02-06T03:32:51Z</time>
      </trkpt>
      <trkpt lat="42.97547" lon="1.12662">
        <ele>441.143</ele>
        <time>2021-02-06T03:33:11Z</time>
      </trkpt>
      <trkpt lat="42.97487" lon="1.12577">
        <ele>441.452</ele>
        <time>2021-02-06T03:33:31Z</time>
      </trkpt>
      <trkpt lat="42.9746" lon="1.12516">
        <ele>435.228</ele>
        <time>2021-02-06T03:33:51Z</time>
      </trkpt>
      <trkpt lat="42.97354" lon="1.12384">
        <ele>437.664</ele>
        <time>2021-02-06T03:34:11Z</time>
      </trkpt>
      <trkpt lat="42.97277" lon="1.12311">
        <ele>435.555</ele>
        <time>2021-02-06T03:34:31Z</time>
      </trkpt>
      <trkpt lat="42.97149" lon="1.12217">
        <ele>441.787</ele>
        <time>2021-02-06T03:34:51Z</time>
      </trkpt>
      <trkpt lat="42.97093" lon="1.12137">
        <ele>443.77</ele>
        <time>2021-02-06T03:35:11Z</time>
      </trkpt>
      <trkpt lat="42.9704" lon="1.11904">
        <ele>431.052</ele>
        <time>2021-02-06T03:35:31Z</time>
      </trkpt>
      <trkpt lat="42.97018" lon="1.11858">
        <ele>433.853</ele>
        <time>2021-02-06T03:35:51Z</time>
      </trkpt>
      <trkpt lat="42.97008" lon="1.11804">
        <ele>430.404</ele>
        <time>2021-02-06T03:36:11Z</time>
      </trkpt>
      <trkpt lat="42.96985" lon="1.11736">
        <ele>434.514</ele>
        <time>2021-02-06T03:36:31Z</time>
      </trkpt>
      <trkpt lat="42.96955" lon="1.1154">
        <ele>437.908</ele>
        <time>2021-02-06T03:36:51Z</time>
      </trkpt>
      <trkpt lat="42.96928" lon="1.11439">
        <ele>443.411</ele>
        <time>2021-02-06T03:37:11Z</time>
      </trkpt>
      <trkpt lat="42.96878" lon="1.11352">
        <ele>444.78</ele>
        <time>2021-02-06T03:37:31Z</time>
      </trkpt>
      <trkpt lat="42.96772" lon="1.11127">
        <ele>439.436</ele>
        <time>2021-02-06T03:37:51Z</time>
      </trkpt>
      <trkpt lat="42.96721" lon="1.11059">
        <ele>441.442</ele>
        <time>2021-02-06T03:38:11Z</time>
      </trkpt>
      <trkpt lat="42.96698" lon="1.11013">
        <ele>439.443</ele>
        <time>2021-02-06T03:38:31Z</time>
      </trkpt>
      <trkpt lat="42.9665" lon="1.10942">
        <ele>437.075</ele>
        <time>2021-02-06T03:38:51Z</time>
      </trkpt>
      <trkpt lat="42.96548" lon="1.10823">
        <ele>434.738</ele>
        <time>2021-02-06T03:39:11Z</time>
      </trkpt>
      <trkpt lat="42.96544" lon="1.10804">
        <ele>434.48</ele>
        <time>2021-02-06T03:39:31Z</time>
      </trkpt>
      <trkpt lat="42.96558" lon="1.10758">
        <ele>430.611</ele>
        <time>2021-02-06T03:39:51Z</time>
      </trkpt>
      <trkpt lat="42.96543" lon="1.10723">
        <ele>431.421</ele>
        <time>2021-02-06T03:40:11Z</time>
      </trkpt>
      <trkpt lat="42.96538" lon="1.10696">
        <ele>431.003</ele>
        <time>2021-02-06T03:40:31Z</time>
      </trkpt>
      <trkpt lat="42.96507" lon="1.10607">
        <ele>431.608</ele>
        <time>2021-02-06T03:40:51Z</time>
      </trkpt>
      <trkpt lat="42.96485" lon="1.10514">
        <ele>431.257</ele>
        <time>2021-02-06T03:41:11Z</time>
      </trkpt>
      <trkpt lat="42.96463" lon="1.10453">
        <ele>433.956</ele>
        <time>2021-02-06T03:41:31Z</time>
      </trkpt>
      <trkpt lat="42.96443" lon="1.10408">
        <ele>437.392</ele>
        <time>2021-02-06T03:41:51Z</time>
      </trkpt>
      <trkpt lat="42.96428" lon="1.10335">
        <ele>434.258</ele>
        <time>2021-02-06T03:42:11Z</time>
      </trkpt>
      <trkpt lat="42.9643" lon="1.10323">
        <ele>433.279</ele>
        <time>2021-02-06T03:42:31Z</time>
      </trkpt>
      <trkpt lat="42.96457" lon="1.10294">
        <ele>428.561</ele>
        <time>2021-02-06T03:42:51Z</time>
      </trkpt>
      <trkpt lat="42.96437" lon="1.1023">
        <ele>427.694</ele>
        <time>2019-12-09T14:53:41Z</time>
      </trkpt>
      <trkpt lat="42.96402" lon="1.10179">
        <ele>430.066</ele>
        <time>2019-12-09T14:54:01Z</time>
      </trkpt>
      <trkpt lat="42.96347" lon="1.10125">
        <ele>428.018</ele>
        <time>2019-12-09T14:54:21Z</time>
      </trkpt>
      <trkpt lat="42.96336" lon="1.10095">
        <ele>426.698</ele>
        <time>2019-12-09T14:54:41Z</time>
      </trkpt>
      <trkpt lat="42.96322" lon="1.0993">
        <ele>425.617</ele>
        <time>2019-12-09T14:55:01Z</time>
      </trkpt>
      <trkpt lat="42.96134" lon="1.09634">
        <ele>428.208</ele>
        <time>2021-02-06T03:44:51Z</time>
      </trkpt>
      <trkpt lat="42.96116" lon="1.09087">
        <ele>436.557</ele>
        <time>2021-02-06T03:45:11Z</time>
      </trkpt>
      <trkpt lat="42.96124" lon="1.09081">
        <ele>437.416</ele>
        <time>2021-02-06T03:45:31Z</time>
      </trkpt>
      <trkpt lat="42.96106" lon="1.08968">
        <ele>437.042</ele>
        <time>2021-02-06T03:45:51Z</time>
      </trkpt>
      <trkpt lat="42.96112" lon="1.0878">
        <ele>444.648</ele>
        <time>2021-02-06T03:46:11Z</time>
      </trkpt>
      <trkpt lat="42.96052" lon="1.08698">
        <ele>441.429</ele>
        <time>2021-02-06T03:46:31Z</time>
      </trkpt>
      <trkpt lat="42.95958" lon="1.08673">
        <ele>438.081</ele>
        <time>2021-02-06T03:46:51Z</time>
      </trkpt>
      <trkpt lat="42.95893" lon="1.08638">
        <ele>437.944</ele>
        <time>2021-02-06T03:47:11Z</time>
      </trkpt>
      <trkpt lat="42.95874" lon="1.08602">
        <ele>438.026</ele>
        <time>2021-02-06T03:47:31Z</time>
      </trkpt>
      <trkpt lat="42.95911" lon="1.08477">
        <ele>439.547</ele>
        <time>2021-02-06T03:47:51Z</time>
      </trkpt>
      <trkpt lat="42.95905" lon="1.08464">
        <ele>439.429</ele>
        <time>2019-12-09T15:01:21Z</time>
      </trkpt>
      <trkpt lat="42.95859" lon="1.08374">
        <ele>440.121</ele>
        <time>2019-12-09T15:01:41Z</time>
      </trkpt>
      <trkpt lat="42.95777" lon="1.08273">
        <ele>440.508</ele>
        <time>2019-12-09T15:02:01Z</time>
      </trkpt>
      <trkpt lat="42.95702" lon="1.08194">
        <ele>441.72</ele>
        <time>2019-12-09T15:02:21Z</time>
      </trkpt>
      <trkpt lat="42.95628" lon="1.07973">
        <ele>462.839</ele>
        <time>2019-12-09T15:02:41Z</time>
      </trkpt>
      <trkpt lat="42.95575" lon="1.07876">
        <ele>459.895</ele>
        <time>2019-12-09T15:03:01Z</time>
      </trkpt>
      <trkpt lat="42.95564" lon="1.07812">
        <ele>464.541</ele>
        <time>2019-12-09T15:03:21Z</time>
      </trkpt>
      <trkpt lat="42.95572" lon="1.07677">
        <ele>477.892</ele>
        <time>2019-12-09T15:03:41Z</time>
      </trkpt>
      <trkpt lat="42.95559" lon="1.0761">
        <ele>483.444</ele>
        <time>2019-12-09T15:04:01Z</time>
      </trkpt>
      <trkpt lat="42.95532" lon="1.07595">
        <ele>483.337</ele>
        <time>2019-12-09T15:04:21Z</time>
      </trkpt>
      <trkpt lat="42.95454" lon="1.07497">
        <ele>486.929</ele>
        <time>2019-12-09T15:04:41Z</time>
      </trkpt>
      <trkpt lat="42.95424" lon="1.07479">
        <ele>485.194</ele>
        <time>2019-12-09T15:05:01Z</time>
      </trkpt>
      <trkpt lat="42.95397" lon="1.07441">
        <ele>478.457</ele>
        <time>2019-12-09T15:05:21Z</time>
      </trkpt>
      <trkpt lat="42.95372" lon="1.07353">
        <ele>482.322</ele>
        <time>2019-12-09T15:05:41Z</time>
      </trkpt>
      <trkpt lat="42.95333" lon="1.07308">
        <ele>478.808</ele>
        <time>2019-12-09T15:06:01Z</time>
      </trkpt>
      <trkpt lat="42.95253" lon="1.07194">
        <ele>484.245</ele>
        <time>2019-12-09T15:06:21Z</time>
      </trkpt>
      <trkpt lat="42.95218" lon="1.07127">
        <ele>480.134</ele>
        <time>2019-12-09T15:06:41Z</time>
      </trkpt>
      <trkpt lat="42.95152" lon="1.07063">
        <ele>476.52</ele>
        <time>2019-12-09T15:07:01Z</time>
      </trkpt>
      <trkpt lat="42.95137" lon="1.06937">
        <ele>478.866</ele>
        <time>2019-12-09T15:07:21Z</time>
      </trkpt>
      <trkpt lat="42.95116" lon="1.06874">
        <ele>480.467</ele>
        <time>2019-12-09T15:07:41Z</time>
      </trkpt>
      <trkpt lat="42.95116" lon="1.06836">
        <ele>480.939</ele>
        <time>2019-12-09T15:08:01Z</time>
      </trkpt>
      <trkpt lat="42.95093" lon="1.06756">
        <ele>483.562</ele>
        <time>2019-12-09T15:08:21Z</time>
      </trkpt>
      <trkpt lat="42.95061" lon="1.06677">
        <ele>478.494</ele>
        <time>2019-12-09T15:08:41Z</time>
      </trkpt>
      <trkpt lat="42.95063" lon="1.06559">
        <ele>480.653</ele>
        <time>2019-12-09T15:09:01Z</time>
      </trkpt>
      <trkpt lat="42.95047" lon="1.0655">
        <ele>479.004</ele>
        <time>2019-12-09T15:09:21Z</time>
      </trkpt>
      <trkpt lat="42.95003" lon="1.06454">
        <ele>478.514</ele>
        <time>2019-12-09T15:09:41Z</time>
      </trkpt>
      <trkpt lat="42.94987" lon="1.06383">
        <ele>474.408</ele>
        <time>2019-12-09T15:10:01Z</time>
      </trkpt>
      <trkpt lat="42.94948" lon="1.06342">
        <ele>472.331</ele>
        <time>2019-12-09T15:10:21Z</time>
      </trkpt>
      <trkpt lat="42.9492" lon="1.06246">
        <ele>474.13</ele>
        <time>2019-12-09T15:10:41Z</time>
      </trkpt>
      <trkpt lat="42.9492" lon="1.06207">
        <ele>479.246</ele>
        <time>2019-12-09T15:11:01Z</time>
      </trkpt>
      <trkpt lat="42.94896" lon="1.06087">
        <ele>470.622</ele>
        <time>2019-12-09T15:11:21Z</time>
      </trkpt>
      <trkpt lat="42.94898" lon="1.05982">
        <ele>470.943</ele>
        <time>2019-12-09T15:11:41Z</time>
      </trkpt>
      <trkpt lat="42.94932" lon="1.05924">
        <ele>478.495</ele>
        <time>2019-12-09T15:12:01Z</time>
      </trkpt>
      <trkpt lat="42.94939" lon="1.05885">
        <ele>477.558</ele>
        <time>2019-12-09T15:12:21Z</time>
      </trkpt>
      <trkpt lat="42.95008" lon="1.05765">
        <ele>481.38</ele>
        <time>2019-12-09T15:12:41Z</time>
      </trkpt>
      <trkpt lat="42.95082" lon="1.05728">
        <ele>484.942</ele>
        <time>2019-12-09T15:13:01Z</time>
      </trkpt>
      <trkpt lat="42.95099" lon="1.05698">
        <ele>496.422</ele>
        <time>2019-12-09T15:13:21Z</time>
      </trkpt>
      <trkpt lat="42.95113" lon="1.05628">
        <ele>488.714</ele>
        <time>2019-12-09T15:13:41Z</time>
      </trkpt>
      <trkpt lat="42.95143" lon="1.05563">
        <ele>491.608</ele>
        <time>2019-12-09T15:14:01Z</time>
      </trkpt>
      <trkpt lat="42.95154" lon="1.05475">
        <ele>497.89</ele>
        <time>2019-12-09T15:14:21Z</time>
      </trkpt>
      <trkpt lat="42.95137" lon="1.0528">
        <ele>511.399</ele>
        <time>2019-12-09T15:14:41Z</time>
      </trkpt>
      <trkpt lat="42.95154" lon="1.05237">
        <ele>521.045</ele>
        <time>2019-12-09T15:15:01Z</time>
      </trkpt>
      <trkpt lat="42.95195" lon="1.05203">
        <ele>546.731</ele>
        <time>2019-12-09T15:15:21Z</time>
      </trkpt>
      <trkpt lat="42.95204" lon="1.0514">
        <ele>550.682</ele>
        <time>2019-12-09T15:15:41Z</time>
      </trkpt>
      <trkpt lat="42.95193" lon="1.05085">
        <ele>547.184</ele>
        <time>2019-12-09T15:16:01Z</time>
      </trkpt>
      <trkpt lat="42.9519" lon="1.05038">
        <ele>550.727</ele>
        <time>2019-12-09T15:16:21Z</time>
      </trkpt>
      <trkpt lat="42.95207" lon="1.04935">
        <ele>553.029</ele>
        <time>2019-12-09T15:16:41Z</time>
      </trkpt>
      <trkpt lat="42.95209" lon="1.04675">
        <ele>535.976</ele>
        <time>2019-12-09T15:17:01Z</time>
      </trkpt>
      <trkpt lat="42.95188" lon="1.04591">
        <ele>525.29</ele>
        <time>2019-12-09T15:17:21Z</time>
      </trkpt>
      <trkpt lat="42.95174" lon="1.04424">
        <ele>513.019</ele>
        <time>2019-12-09T15:17:41Z</time>
      </trkpt>
      <trkpt lat="42.95179" lon="1.04379">
        <ele>514.308</ele>
        <time>2021-02-06T04:04:51Z</time>
      </trkpt>
      <trkpt lat="42.95155" lon="1.04293">
        <ele>511.753</ele>
        <time>2021-02-06T04:05:11Z</time>
      </trkpt>
      <trkpt lat="42.95059" lon="1.04224">
        <ele>486.972</ele>
        <time>2021-02-06T04:05:31Z</time>
      </trkpt>
      <trkpt lat="42.95058" lon="1.04199">
        <ele>486.998</ele>
        <time>2021-02-06T04:05:51Z</time>
      </trkpt>
      <trkpt lat="42.95017" lon="1.04223">
        <ele>482.764</ele>
        <time>2021-02-06T04:06:11Z</time>
      </trkpt>
      <trkpt lat="42.9502" lon="1.04183">
        <ele>484.925</ele>
        <time>2021-02-06T04:06:31Z</time>
      </trkpt>
      <trkpt lat="42.95016" lon="1.04171">
        <ele>485.497</ele>
        <time>2021-02-06T04:06:51Z</time>
      </trkpt>
      <trkpt lat="42.9502" lon="1.04124">
        <ele>494.06</ele>
        <time>2021-02-06T04:07:11Z</time>
      </trkpt>
      <trkpt lat="42.95031" lon="1.041">
        <ele>496.872</ele>
        <time>2021-02-06T04:07:31Z</time>
      </trkpt>
      <trkpt lat="42.95074" lon="1.04042">
        <ele>497.561</ele>
        <time>2021-02-06T04:07:51Z</time>
      </trkpt>
      <trkpt lat="42.95086" lon="1.03994">
        <ele>502.321</ele>
        <time>2021-02-06T04:08:11Z</time>
      </trkpt>
      <trkpt lat="42.95087" lon="1.03961">
        <ele>504.713</ele>
        <time>2021-02-06T04:08:31Z</time>
      </trkpt>
      <trkpt lat="42.95078" lon="1.03965">
        <ele>507.108</ele>
        <time>2021-02-06T04:08:51Z</time>
      </trkpt>
      <trkpt lat="42.95048" lon="1.03909">
        <ele>524.692</ele>
        <time>2021-02-06T04:09:11Z</time>
      </trkpt>
      <trkpt lat="42.95025" lon="1.03897">
        <ele>535.021</ele>
        <time>2021-02-06T04:09:31Z</time>
      </trkpt>
      <trkpt lat="42.94998" lon="1.03898">
        <ele>544.067</ele>
        <time>2021-02-06T04:09:51Z</time>
      </trkpt>
      <trkpt lat="42.94971" lon="1.03852">
        <ele>552.023</ele>
        <time>2021-02-06T04:10:11Z</time>
      </trkpt>
      <trkpt lat="42.94947" lon="1.03791">
        <ele>564.644</ele>
        <time>2021-02-06T04:10:31Z</time>
      </trkpt>
      <trkpt lat="42.94914" lon="1.0378">
        <ele>567.986</ele>
        <time>2021-02-06T04:10:51Z</time>
      </trkpt>
      <trkpt lat="42.94891" lon="1.03789">
        <ele>571.339</ele>
        <time>2021-02-06T04:11:11Z</time>
      </trkpt>
      <trkpt lat="42.94866" lon="1.0373">
        <ele>585.041</ele>
        <time>2021-02-06T04:11:31Z</time>
      </trkpt>
      <trkpt lat="42.94832" lon="1.03746">
        <ele>589.118</ele>
        <time>2021-02-06T04:11:51Z</time>
      </trkpt>
      <trkpt lat="42.94808" lon="1.0375">
        <ele>583.998</ele>
        <time>2021-02-06T04:12:11Z</time>
      </trkpt>
      <trkpt lat="42.94808" lon="1.03733">
        <ele>585.417</ele>
        <time>2021-02-06T04:12:31Z</time>
      </trkpt>
      <trkpt lat="42.94837" lon="1.03599">
        <ele>607.708</ele>
        <time>2021-02-06T04:12:51Z</time>
      </trkpt>
      <trkpt lat="42.94884" lon="1.03489">
        <ele>625.837</ele>
        <time>2021-02-06T04:13:11Z</time>
      </trkpt>
      <trkpt lat="42.94904" lon="1.03413">
        <ele>638.716</ele>
        <time>2021-02-06T04:13:31Z</time>
      </trkpt>
      <trkpt lat="42.94915" lon="1.03299">
        <ele>644.682</ele>
        <time>2021-02-06T04:13:51Z</time>
      </trkpt>
      <trkpt lat="42.94965" lon="1.03154">
        <ele>648.688</ele>
        <time>2021-02-06T04:14:11Z</time>
      </trkpt>
      <trkpt lat="42.94951" lon="1.03154">
        <ele>647.369</ele>
        <time>2021-02-06T04:14:31Z</time>
      </trkpt>
      <trkpt lat="42.94927" lon="1.03113">
        <ele>653.171</ele>
        <time>2021-02-06T04:14:51Z</time>
      </trkpt>
      <trkpt lat="42.94901" lon="1.0306">
        <ele>658.734</ele>
        <time>2021-02-06T04:15:11Z</time>
      </trkpt>
      <trkpt lat="42.94826" lon="1.02981">
        <ele>656.266</ele>
        <time>2021-02-06T04:15:31Z</time>
      </trkpt>
      <trkpt lat="42.94803" lon="1.0297">
        <ele>651.684</ele>
        <time>2021-02-06T04:15:51Z</time>
      </trkpt>
      <trkpt lat="42.94768" lon="1.02965">
        <ele>640.607</ele>
        <time>2021-02-06T04:16:11Z</time>
      </trkpt>
      <trkpt lat="42.94753" lon="1.02946">
        <ele>638.217</ele>
        <time>2021-02-06T04:16:31Z</time>
      </trkpt>
      <trkpt lat="42.94748" lon="1.02878">
        <ele>641.808</ele>
        <time>2021-02-06T04:16:51Z</time>
      </trkpt>
      <trkpt lat="42.9473" lon="1.02805">
        <ele>639.534</ele>
        <time>2021-02-06T04:17:11Z</time>
      </trkpt>
      <trkpt lat="42.94707" lon="1.02743">
        <ele>642.533</ele>
        <time>2021-02-06T04:17:31Z</time>
      </trkpt>
      <trkpt lat="42.94682" lon="1.02732">
        <ele>638.519</ele>
        <time>2021-02-06T04:17:51Z</time>
      </trkpt>
      <trkpt lat="42.94627" lon="1.0275">
        <ele>622.425</ele>
        <time>2021-02-06T04:18:11Z</time>
      </trkpt>
      <trkpt lat="42.94555" lon="1.0284">
        <ele>593.936</ele>
        <time>2021-02-06T04:18:31Z</time>
      </trkpt>
      <trkpt lat="42.9453" lon="1.02859">
        <ele>588.498</ele>
        <time>2021-02-06T04:18:51Z</time>
      </trkpt>
      <trkpt lat="42.94511" lon="1.02856">
        <ele>587.671</ele>
        <time>2021-02-06T04:19:11Z</time>
      </trkpt>
      <trkpt lat="42.94503" lon="1.02797">
        <ele>593.183</ele>
        <time>2021-02-06T04:19:31Z</time>
      </trkpt>
      <trkpt lat="42.94478" lon="1.02722">
        <ele>600.161</ele>
        <time>2021-02-06T04:19:51Z</time>
      </trkpt>
      <trkpt lat="42.9445" lon="1.02722">
        <ele>596.021</ele>
        <time>2021-02-06T04:20:11Z</time>
      </trkpt>
      <trkpt lat="42.94391" lon="1.02758">
        <ele>582.313</ele>
        <time>2021-02-06T04:20:31Z</time>
      </trkpt>
      <trkpt lat="42.94349" lon="1.028">
        <ele>573.508</ele>
        <time>2021-02-06T04:20:51Z</time>
      </trkpt>
      <trkpt lat="42.94326" lon="1.02795">
        <ele>571.452</ele>
        <time>2021-02-06T04:21:11Z</time>
      </trkpt>
      <trkpt lat="42.94282" lon="1.0271">
        <ele>561.941</ele>
        <time>2021-02-06T04:21:31Z</time>
      </trkpt>
      <trkpt lat="42.94277" lon="1.02638">
        <ele>562.777</ele>
        <time>2021-02-06T04:21:51Z</time>
      </trkpt>
      <trkpt lat="42.94269" lon="1.02569">
        <ele>565.393</ele>
        <time>2021-02-06T04:22:11Z</time>
      </trkpt>
      <trkpt lat="42.9427" lon="1.02514">
        <ele>571.874</ele>
        <time>2021-02-06T04:22:31Z</time>
      </trkpt>
      <trkpt lat="42.94256" lon="1.02512">
        <ele>571.936</ele>
        <time>2021-02-06T04:22:51Z</time>
      </trkpt>
      <trkpt lat="42.94152" lon="1.02686">
        <ele>574.999</ele>
        <time>2019-12-09T15:30:01Z</time>
      </trkpt>
      <trkpt lat="42.94103" lon="1.02787">
        <ele>560.541</ele>
        <time>2019-12-09T15:30:21Z</time>
      </trkpt>
      <trkpt lat="42.94073" lon="1.02797">
        <ele>561.552</ele>
        <time>2019-12-09T15:30:41Z</time>
      </trkpt>
      <trkpt lat="42.93959" lon="1.02733">
        <ele>564.553</ele>
        <time>2019-12-09T15:31:01Z</time>
      </trkpt>
      <trkpt lat="42.93965" lon="1.02611">
        <ele>577.908</ele>
        <time>2019-12-09T15:31:21Z</time>
      </trkpt>
      <trkpt lat="42.93959" lon="1.02585">
        <ele>577.808</ele>
        <time>2019-12-09T15:31:41Z</time>
      </trkpt>
      <trkpt lat="42.93902" lon="1.02581">
        <ele>573.971</ele>
        <time>2019-12-09T15:32:01Z</time>
      </trkpt>
      <trkpt lat="42.93871" lon="1.02527">
        <ele>578.38</ele>
        <time>2019-12-09T15:32:21Z</time>
      </trkpt>
      <trkpt lat="42.93845" lon="1.02529">
        <ele>577.986</ele>
        <time>2019-12-09T15:32:41Z</time>
      </trkpt>
      <trkpt lat="42.93803" lon="1.02598">
        <ele>557.862</ele>
        <time>2019-12-09T15:33:01Z</time>
      </trkpt>
      <trkpt lat="42.93757" lon="1.02602">
        <ele>560.483</ele>
        <time>2019-12-09T15:33:21Z</time>
      </trkpt>
      <trkpt lat="42.93687" lon="1.02585">
        <ele>545.345</ele>
        <time>2019-12-09T15:33:41Z</time>
      </trkpt>
      <trkpt lat="42.93651" lon="1.02557">
        <ele>552.588</ele>
        <time>2019-12-09T15:34:01Z</time>
      </trkpt>
      <trkpt lat="42.93619" lon="1.02553">
        <ele>549.84</ele>
        <time>2019-12-09T15:34:21Z</time>
      </trkpt>
      <trkpt lat="42.93571" lon="1.02521">
        <ele>540.843</ele>
        <time>2019-12-09T15:34:41Z</time>
      </trkpt>
      <trkpt lat="42.93522" lon="1.02505">
        <ele>531.564</ele>
        <time>2019-12-09T15:35:01Z</time>
      </trkpt>
      <trkpt lat="42.93442" lon="1.02426">
        <ele>547.11</ele>
        <time>2019-12-09T15:35:21Z</time>
      </trkpt>
      <trkpt lat="42.93379" lon="1.02465">
        <ele>531.408</ele>
        <time>2019-12-09T15:35:41Z</time>
      </trkpt>
      <trkpt lat="42.93314" lon="1.02456">
        <ele>524.86</ele>
        <time>2019-12-09T15:36:01Z</time>
      </trkpt>
      <trkpt lat="42.93223" lon="1.02437">
        <ele>517.949</ele>
        <time>2019-12-09T15:36:21Z</time>
      </trkpt>
      <trkpt lat="42.93183" lon="1.0243">
        <ele>514.935</ele>
        <time>2019-12-09T15:36:41Z</time>
      </trkpt>
      <trkpt lat="42.93135" lon="1.02402">
        <ele>516.741</ele>
        <time>2019-12-09T15:37:01Z</time>
      </trkpt>
      <trkpt lat="42.93099" lon="1.024">
        <ele>513.742</ele>
        <time>2019-12-09T15:37:21Z</time>
      </trkpt>
      <trkpt lat="42.93043" lon="1.02349">
        <ele>510.334</ele>
        <time>2019-12-09T15:37:41Z</time>
      </trkpt>
      <trkpt lat="42.9297" lon="1.02315">
        <ele>510.287</ele>
        <time>2019-12-09T15:38:01Z</time>
      </trkpt>
      <trkpt lat="42.92908" lon="1.02278">
        <ele>510.939</ele>
        <time>2019-12-09T15:38:21Z</time>
      </trkpt>
      <trkpt lat="42.92831" lon="1.02169">
        <ele>509.865</ele>
        <time>2019-12-09T15:38:41Z</time>
      </trkpt>
      <trkpt lat="42.92743" lon="1.02057">
        <ele>516.168</ele>
        <time>2019-12-09T15:39:01Z</time>
      </trkpt>
      <trkpt lat="42.92658" lon="1.01911">
        <ele>521.314</ele>
        <time>2019-12-09T15:39:21Z</time>
      </trkpt>
      <trkpt lat="42.92662" lon="1.01842">
        <ele>521.608</ele>
        <time>2019-12-09T15:39:41Z</time>
      </trkpt>
      <trkpt lat="42.927" lon="1.01705">
        <ele>521.282</ele>
        <time>2019-12-09T15:40:01Z</time>
      </trkpt>
      <trkpt lat="42.92746" lon="1.01628">
        <ele>520.571</ele>
        <time>2019-12-09T15:40:21Z</time>
      </trkpt>
      <trkpt lat="42.92749" lon="1.0157">
        <ele>519.297</ele>
        <time>2019-12-09T15:40:41Z</time>
      </trkpt>
      <trkpt lat="42.927" lon="1.01463">
        <ele>520.293</ele>
        <time>2019-12-09T15:41:01Z</time>
      </trkpt>
      <trkpt lat="42.92739" lon="1.01415">
        <ele>524.554</ele>
        <time>2019-12-09T15:41:21Z</time>
      </trkpt>
      <trkpt lat="42.92727" lon="1.013">
        <ele>530.086</ele>
        <time>2019-12-09T15:41:41Z</time>
      </trkpt>
      <trkpt lat="42.92732" lon="1.01229">
        <ele>538.059</ele>
        <time>2019-12-09T15:42:01Z</time>
      </trkpt>
      <trkpt lat="42.92675" lon="1.01074">
        <ele>538.961</ele>
        <time>2019-12-09T15:42:21Z</time>
      </trkpt>
      <trkpt lat="42.92688" lon="1.01001">
        <ele>544.598</ele>
        <time>2019-12-09T15:42:41Z</time>
      </trkpt>
      <trkpt lat="42.92688" lon="1.00958">
        <ele>548.715</ele>
        <time>2019-12-09T15:43:01Z</time>
      </trkpt>
      <trkpt lat="42.92697" lon="1.00911">
        <ele>551.126</ele>
        <time>2019-12-09T15:43:21Z</time>
      </trkpt>
      <trkpt lat="42.92694" lon="1.00836">
        <ele>552.008</ele>
        <time>2019-12-09T15:43:41Z</time>
      </trkpt>
      <trkpt lat="42.92664" lon="1.00703">
        <ele>545.065</ele>
        <time>2019-12-09T15:44:01Z</time>
      </trkpt>
      <trkpt lat="42.92651" lon="1.00568">
        <ele>549.614</ele>
        <time>2019-12-09T15:44:21Z</time>
      </trkpt>
      <trkpt lat="42.92688" lon="1.00435">
        <ele>558.57</ele>
        <time>2019-12-09T15:44:41Z</time>
      </trkpt>
      <trkpt lat="42.92661" lon="1.00385">
        <ele>545.016</ele>
        <time>2019-12-09T15:45:01Z</time>
      </trkpt>
      <trkpt lat="42.92658" lon="1.00325">
        <ele>547.027</ele>
        <time>2019-12-09T15:45:21Z</time>
      </trkpt>
      <trkpt lat="42.92664" lon="1.00237">
        <ele>543.959</ele>
        <time>2019-12-09T15:45:41Z</time>
      </trkpt>
      <trkpt lat="42.92695" lon="1.00109">
        <ele>548.982</ele>
        <time>2019-12-09T15:46:01Z</time>
      </trkpt>
      <trkpt lat="42.92738" lon="1.00038">
        <ele>543.644</ele>
        <time>2019-12-09T15:46:21Z</time>
      </trkpt>
      <trkpt lat="42.92801" lon="0.99941">
        <ele>548.265</ele>
        <time>2019-12-09T15:46:41Z</time>
      </trkpt>
      <trkpt lat="42.92823" lon="0.99924">
        <ele>549.968</ele>
        <time>2019-12-09T15:47:01Z</time>
      </trkpt>
      <trkpt lat="42.92854" lon="0.9986">
        <ele>554.914</ele>
        <time>2019-12-09T15:47:21Z</time>
      </trkpt>
      <trkpt lat="42.92867" lon="0.99798">
        <ele>547.808</ele>
        <time>2019-12-09T15:47:41Z</time>
      </trkpt>
      <trkpt lat="42.92898" lon="0.99731">
        <ele>542.562</ele>
        <time>2019-12-09T15:48:01Z</time>
      </trkpt>
      <trkpt lat="42.92961" lon="0.99649">
        <ele>542.761</ele>
        <time>2019-12-09T15:48:21Z</time>
      </trkpt>
      <trkpt lat="42.92986" lon="0.99634">
        <ele>544.067</ele>
        <time>2019-12-09T15:48:41Z</time>
      </trkpt>
      <trkpt lat="42.93019" lon="0.99587">
        <ele>547.383</ele>
        <time>2019-12-09T15:49:01Z</time>
      </trkpt>
      <trkpt lat="42.93139" lon="0.9948">
        <ele>541.914</ele>
        <time>2019-12-09T15:49:21Z</time>
      </trkpt>
      <trkpt lat="42.93145" lon="0.99454">
        <ele>540.866</ele>
        <time>2019-12-09T15:49:41Z</time>
      </trkpt>
      <trkpt lat="42.93173" lon="0.9942">
        <ele>541.079</ele>
        <time>2019-12-09T15:50:01Z</time>
      </trkpt>
      <trkpt lat="42.9317" lon="0.99388">
        <ele>540.371</ele>
        <time>2019-12-09T15:50:21Z</time>
      </trkpt>
      <trkpt lat="42.93187" lon="0.99375">
        <ele>540.793</ele>
        <time>2019-12-09T15:50:41Z</time>
      </trkpt>
      <trkpt lat="42.93217" lon="0.99268">
        <ele>542.565</ele>
        <time>2019-12-09T15:51:01Z</time>
      </trkpt>
      <trkpt lat="42.93195" lon="0.9921">
        <ele>542.621</ele>
        <time>2019-12-09T15:51:21Z</time>
      </trkpt>
      <trkpt lat="42.93126" lon="0.99237">
        <ele>539.008</ele>
        <time>2019-12-09T15:51:41Z</time>
      </trkpt>
      <trkpt lat="42.93024" lon="0.99177">
        <ele>535.935</ele>
        <time>2019-12-09T15:52:01Z</time>
      </trkpt>
      <trkpt lat="42.92956" lon="0.99165">
        <ele>536.074</ele>
        <time>2019-12-09T15:52:21Z</time>
      </trkpt>
      <trkpt lat="42.92917" lon="0.99137">
        <ele>536.43</ele>
        <time>2019-12-09T15:52:41Z</time>
      </trkpt>
      <trkpt lat="42.92826" lon="0.99029">
        <ele>554.616</ele>
        <time>2019-12-09T15:53:01Z</time>
      </trkpt>
      <trkpt lat="42.92859" lon="0.9895">
        <ele>550.747</ele>
        <time>2019-12-09T15:53:21Z</time>
      </trkpt>
      <trkpt lat="42.92862" lon="0.98903">
        <ele>555.569</ele>
        <time>2019-12-09T15:53:41Z</time>
      </trkpt>
      <trkpt lat="42.92889" lon="0.98853">
        <ele>552.512</ele>
        <time>2019-12-09T15:54:01Z</time>
      </trkpt>
      <trkpt lat="42.92884" lon="0.98772">
        <ele>561.994</ele>
        <time>2019-12-09T15:54:21Z</time>
      </trkpt>
      <trkpt lat="42.92908" lon="0.98697">
        <ele>566.947</ele>
        <time>2019-12-09T15:54:41Z</time>
      </trkpt>
      <trkpt lat="42.92936" lon="0.98542">
        <ele>559.129</ele>
        <time>2019-12-09T15:55:01Z</time>
      </trkpt>
      <trkpt lat="42.92933" lon="0.98491">
        <ele>563.721</ele>
        <time>2019-12-09T15:55:21Z</time>
      </trkpt>
      <trkpt lat="42.92906" lon="0.98471">
        <ele>573.908</ele>
        <time>2019-12-09T15:55:41Z</time>
      </trkpt>
      <trkpt lat="42.92893" lon="0.98437">
        <ele>574.28</ele>
        <time>2019-12-09T15:56:01Z</time>
      </trkpt>
      <trkpt lat="42.92934" lon="0.98362">
        <ele>571.979</ele>
        <time>2019-12-09T15:56:21Z</time>
      </trkpt>
      <trkpt lat="42.92936" lon="0.98298">
        <ele>579.045</ele>
        <time>2019-12-09T15:56:41Z</time>
      </trkpt>
      <trkpt lat="42.92893" lon="0.98182">
        <ele>605.471</ele>
        <time>2019-12-09T15:57:01Z</time>
      </trkpt>
      <trkpt lat="42.9289" lon="0.9813">
        <ele>603.642</ele>
        <time>2019-12-09T15:57:21Z</time>
      </trkpt>
      <trkpt lat="42.92879" lon="0.98027">
        <ele>597.974</ele>
        <time>2019-12-09T15:57:41Z</time>
      </trkpt>
      <trkpt lat="42.92875" lon="0.97922">
        <ele>588.287</ele>
        <time>2019-12-09T15:58:01Z</time>
      </trkpt>
      <trkpt lat="42.92783" lon="0.97761">
        <ele>593.459</ele>
        <time>2019-12-09T15:58:21Z</time>
      </trkpt>
      <trkpt lat="42.92816" lon="0.97755">
        <ele>584.821</ele>
        <time>2019-12-09T15:58:41Z</time>
      </trkpt>
      <trkpt lat="42.92876" lon="0.97806">
        <ele>580.141</ele>
        <time>2019-12-09T15:59:01Z</time>
      </trkpt>
      <trkpt lat="42.9293" lon="0.97808">
        <ele>580.905</ele>
        <time>2019-12-09T15:59:21Z</time>
      </trkpt>
      <trkpt lat="42.92952" lon="0.97821">
        <ele>581.008</ele>
        <time>2019-12-09T15:59:41Z</time>
      </trkpt>
      <trkpt lat="42.92994" lon="0.97832">
        <ele>578.498</ele>
        <time>2019-12-09T16:00:01Z</time>
      </trkpt>
      <trkpt lat="42.93035" lon="0.97789">
        <ele>575.067</ele>
        <time>2019-12-09T16:00:21Z</time>
      </trkpt>
      <trkpt lat="42.9314" lon="0.97624">
        <ele>579.623</ele>
        <time>2019-12-09T16:00:41Z</time>
      </trkpt>
      <trkpt lat="42.93162" lon="0.97566">
        <ele>585.379</ele>
        <time>2019-12-09T16:01:01Z</time>
      </trkpt>
      <trkpt lat="42.93187" lon="0.97538">
        <ele>573.09</ele>
        <time>2019-12-09T16:01:21Z</time>
      </trkpt>
      <trkpt lat="42.93206" lon="0.97493">
        <ele>577.072</ele>
        <time>2019-12-09T16:01:41Z</time>
      </trkpt>
      <trkpt lat="42.93256" lon="0.97499">
        <ele>564.155</ele>
        <time>2019-12-09T16:02:01Z</time>
      </trkpt>
      <trkpt lat="42.93286" lon="0.97467">
        <ele>564.367</ele>
        <time>2019-12-09T16:02:21Z</time>
      </trkpt>
      <trkpt lat="42.9334" lon="0.97476">
        <ele>556.054</ele>
        <time>2019-12-09T16:02:41Z</time>
      </trkpt>
      <trkpt lat="42.93396" lon="0.97525">
        <ele>551.856</ele>
        <time>2019-12-09T16:03:01Z</time>
      </trkpt>
      <trkpt lat="42.93431" lon="0.97478">
        <ele>552.111</ele>
        <time>2019-12-09T16:03:21Z</time>
      </trkpt>
      <trkpt lat="42.93473" lon="0.97381">
        <ele>552.908</ele>
        <time>2019-12-09T16:03:41Z</time>
      </trkpt>
      <trkpt lat="42.93509" lon="0.97418">
        <ele>551.571</ele>
        <time>2019-12-09T16:04:01Z</time>
      </trkpt>
      <trkpt lat="42.93567" lon="0.97414">
        <ele>552.62</ele>
        <time>2019-12-09T16:04:21Z</time>
      </trkpt>
      <trkpt lat="42.93618" lon="0.97381">
        <ele>554.646</ele>
        <time>2019-12-09T16:04:41Z</time>
      </trkpt>
      <trkpt lat="42.93693" lon="0.97276">
        <ele>560.552</ele>
        <time>2019-12-09T16:05:01Z</time>
      </trkpt>
      <trkpt lat="42.93703" lon="0.97205">
        <ele>559.733</ele>
        <time>2019-12-09T16:05:21Z</time>
      </trkpt>
      <trkpt lat="42.93729" lon="0.9709">
        <ele>559.455</ele>
        <time>2019-12-09T16:05:41Z</time>
      </trkpt>
      <trkpt lat="42.93754" lon="0.97032">
        <ele>563.278</ele>
        <time>2019-12-09T16:06:01Z</time>
      </trkpt>
      <trkpt lat="42.93781" lon="0.97021">
        <ele>564.79</ele>
        <time>2019-12-09T16:06:21Z</time>
      </trkpt>
      <trkpt lat="42.93856" lon="0.97004">
        <ele>576.133</ele>
        <time>2019-12-09T16:06:41Z</time>
      </trkpt>
      <trkpt lat="42.93951" lon="0.96924">
        <ele>597.023</ele>
        <time>2019-12-09T16:07:01Z</time>
      </trkpt>
      <trkpt lat="42.93999" lon="0.96875">
        <ele>611.715</ele>
        <time>2019-12-09T16:07:21Z</time>
      </trkpt>
      <trkpt lat="42.94048" lon="0.96783">
        <ele>636.908</ele>
        <time>2019-12-09T16:07:41Z</time>
      </trkpt>
      <trkpt lat="42.94113" lon="0.96416">
        <ele>705.299</ele>
        <time>2019-12-09T16:08:01Z</time>
      </trkpt>
      <trkpt lat="42.94098" lon="0.96358">
        <ele>706.658</ele>
        <time>2019-12-09T16:08:21Z</time>
      </trkpt>
      <trkpt lat="42.94103" lon="0.96302">
        <ele>707.924</ele>
        <time>2019-12-09T16:08:41Z</time>
      </trkpt>
      <trkpt lat="42.94199" lon="0.96274">
        <ele>723.18</ele>
        <time>2019-12-09T16:09:01Z</time>
      </trkpt>
      <trkpt lat="42.9427" lon="0.96274">
        <ele>730.821</ele>
        <time>2019-12-09T16:09:21Z</time>
      </trkpt>
      <trkpt lat="42.94384" lon="0.96324">
        <ele>736.413</ele>
        <time>2019-12-09T16:09:41Z</time>
      </trkpt>
      <trkpt lat="42.94453" lon="0.96324">
        <ele>739.466</ele>
        <time>2019-12-09T16:10:01Z</time>
      </trkpt>
      <trkpt lat="42.94585" lon="0.96278">
        <ele>752.038</ele>
        <time>2019-12-09T16:10:21Z</time>
      </trkpt>
      <trkpt lat="42.94643" lon="0.96287">
        <ele>757.321</ele>
        <time>2019-12-09T16:10:41Z</time>
      </trkpt>
      <trkpt lat="42.9465" lon="0.96255">
        <ele>759.841</ele>
        <time>2019-12-09T16:11:01Z</time>
      </trkpt>
      <trkpt lat="42.94631" lon="0.96197">
        <ele>757.905</ele>
        <time>2019-12-09T16:11:21Z</time>
      </trkpt>
      <trkpt lat="42.94636" lon="0.96156">
        <ele>760.408</ele>
        <time>2019-12-09T16:11:41Z</time>
      </trkpt>
      <trkpt lat="42.94722" lon="0.96109">
        <ele>778.138</ele>
        <time>2019-12-09T16:12:01Z</time>
      </trkpt>
      <trkpt lat="42.94725" lon="0.96023">
        <ele>780.767</ele>
        <time>2019-12-09T16:12:21Z</time>
      </trkpt>
      <trkpt lat="42.94713" lon="0.95982">
        <ele>789.073</ele>
        <time>2019-12-09T16:12:41Z</time>
      </trkpt>
      <trkpt lat="42.94669" lon="0.95944">
        <ele>790.549</ele>
        <time>2019-12-09T16:13:01Z</time>
      </trkpt>
      <trkpt lat="42.94665" lon="0.95712">
        <ele>818.12</ele>
        <time>2019-12-09T16:13:21Z</time>
      </trkpt>
      <trkpt lat="42.94716" lon="0.95639">
        <ele>814.822</ele>
        <time>2019-12-09T16:13:41Z</time>
      </trkpt>
      <trkpt lat="42.94819" lon="0.95523">
        <ele>808.765</ele>
        <time>2019-12-09T16:14:01Z</time>
      </trkpt>
      <trkpt lat="42.95022" lon="0.95362">
        <ele>801.077</ele>
        <time>2019-12-09T16:14:21Z</time>
      </trkpt>
      <trkpt lat="42.95119" lon="0.95296">
        <ele>785.224</ele>
        <time>2019-12-09T16:14:41Z</time>
      </trkpt>
      <trkpt lat="42.9516" lon="0.95285">
        <ele>783.904</ele>
        <time>2019-12-09T16:15:01Z</time>
      </trkpt>
      <trkpt lat="42.95223" lon="0.95231">
        <ele>776.814</ele>
        <time>2019-12-09T16:15:21Z</time>
      </trkpt>
      <trkpt lat="42.95228" lon="0.95193">
        <ele>776.708</ele>
        <time>2019-12-09T16:15:41Z</time>
      </trkpt>
      <trkpt lat="42.95133" lon="0.95096">
        <ele>790.198</ele>
        <time>2019-12-09T16:16:01Z</time>
      </trkpt>
      <trkpt lat="42.95053" lon="0.94989">
        <ele>828.067</ele>
        <time>2019-12-09T16:16:21Z</time>
      </trkpt>
      <trkpt lat="42.94948" lon="0.94967">
        <ele>832.193</ele>
        <time>2019-12-09T16:16:41Z</time>
      </trkpt>
      <trkpt lat="42.94903" lon="0.94929">
        <ele>834.579</ele>
        <time>2019-12-09T16:17:01Z</time>
      </trkpt>
      <trkpt lat="42.94846" lon="0.94856">
        <ele>845.49</ele>
        <time>2019-12-09T16:17:21Z</time>
      </trkpt>
      <trkpt lat="42.94789" lon="0.94697">
        <ele>849.112</ele>
        <time>2019-12-09T16:17:41Z</time>
      </trkpt>
      <trkpt lat="42.94785" lon="0.94633">
        <ele>859.865</ele>
        <time>2019-12-09T16:18:01Z</time>
      </trkpt>
      <trkpt lat="42.94735" lon="0.94547">
        <ele>860.367</ele>
        <time>2019-12-09T16:18:21Z</time>
      </trkpt>
      <trkpt lat="42.94684" lon="0.9459">
        <ele>840.322</ele>
        <time>2019-12-09T16:18:41Z</time>
      </trkpt>
      <trkpt lat="42.94618" lon="0.94583">
        <ele>846.462</ele>
        <time>2019-12-09T16:19:01Z</time>
      </trkpt>
      <trkpt lat="42.94565" lon="0.9462">
        <ele>827.008</ele>
        <time>2019-12-09T16:19:21Z</time>
      </trkpt>
      <trkpt lat="42.94519" lon="0.9459">
        <ele>826.808</ele>
        <time>2019-12-09T16:19:41Z</time>
      </trkpt>
      <trkpt lat="42.94496" lon="0.94534">
        <ele>836.068</ele>
        <time>2019-12-09T16:20:01Z</time>
      </trkpt>
      <trkpt lat="42.94516" lon="0.94463">
        <ele>854.737</ele>
        <time>2019-12-09T16:20:21Z</time>
      </trkpt>
      <trkpt lat="42.94513" lon="0.94433">
        <ele>855.473</ele>
        <time>2019-12-09T16:20:41Z</time>
      </trkpt>
      <trkpt lat="42.9438" lon="0.94455">
        <ele>840.699</ele>
        <time>2019-12-09T16:21:01Z</time>
      </trkpt>
      <trkpt lat="42.94359" lon="0.94403">
        <ele>841.78</ele>
        <time>2019-12-09T16:21:21Z</time>
      </trkpt>
      <trkpt lat="42.94359" lon="0.94291">
        <ele>831.212</ele>
        <time>2019-12-09T16:21:41Z</time>
      </trkpt>
      <trkpt lat="42.94387" lon="0.94242">
        <ele>820.855</ele>
        <time>2019-12-09T16:22:01Z</time>
      </trkpt>
      <trkpt lat="42.9432" lon="0.94216">
        <ele>809.277</ele>
        <time>2019-12-09T16:22:21Z</time>
      </trkpt>
      <trkpt lat="42.94339" lon="0.94133">
        <ele>803.969</ele>
        <time>2019-12-09T16:22:41Z</time>
      </trkpt>
      <trkpt lat="42.94276" lon="0.94143">
        <ele>790.304</ele>
        <time>2019-12-09T16:23:01Z</time>
      </trkpt>
      <trkpt lat="42.94281" lon="0.94113">
        <ele>788.324</ele>
        <time>2019-12-09T16:23:21Z</time>
      </trkpt>
      <trkpt lat="42.94361" lon="0.94015">
        <ele>784.608</ele>
        <time>2019-12-09T16:23:41Z</time>
      </trkpt>
      <trkpt lat="42.94373" lon="0.93961">
        <ele>782.832</ele>
        <time>2019-12-09T16:24:01Z</time>
      </trkpt>
      <trkpt lat="42.9432" lon="0.93961">
        <ele>774.591</ele>
        <time>2019-12-09T16:24:21Z</time>
      </trkpt>
      <trkpt lat="42.94252" lon="0.93903">
        <ele>782.197</ele>
        <time>2019-12-09T16:24:41Z</time>
      </trkpt>
      <trkpt lat="42.94127" lon="0.9392">
        <ele>758.493</ele>
        <time>2019-12-09T16:25:01Z</time>
      </trkpt>
      <trkpt lat="42.94048" lon="0.93967">
        <ele>754.514</ele>
        <time>2019-12-09T16:25:21Z</time>
      </trkpt>
      <trkpt lat="42.9399" lon="0.93965">
        <ele>751.556</ele>
        <time>2019-12-09T16:25:41Z</time>
      </trkpt>
      <trkpt lat="42.93916" lon="0.93952">
        <ele>735.019</ele>
        <time>2019-12-09T16:26:01Z</time>
      </trkpt>
      <trkpt lat="42.93833" lon="0.93927">
        <ele>728.681</ele>
        <time>2019-12-09T16:26:21Z</time>
      </trkpt>
      <trkpt lat="42.93676" lon="0.93972">
        <ele>698.038</ele>
        <time>2019-12-09T16:26:41Z</time>
      </trkpt>
      <trkpt lat="42.93616" lon="0.93907">
        <ele>692.97</ele>
        <time>2019-12-09T16:27:01Z</time>
      </trkpt>
      <trkpt lat="42.93556" lon="0.93697">
        <ele>683.017</ele>
        <time>2019-12-09T16:27:21Z</time>
      </trkpt>
      <trkpt lat="42.93539" lon="0.93581">
        <ele>683.708</ele>
        <time>2019-12-09T16:27:41Z</time>
      </trkpt>
      <trkpt lat="42.93545" lon="0.93495">
        <ele>687.869</ele>
        <time>2019-12-09T16:28:01Z</time>
      </trkpt>
      <trkpt lat="42.93572" lon="0.93425">
        <ele>693.918</ele>
        <time>2019-12-09T16:28:21Z</time>
      </trkpt>
      <trkpt lat="42.93561" lon="0.93375">
        <ele>697.844</ele>
        <time>2019-12-09T16:28:41Z</time>
      </trkpt>
      <trkpt lat="42.93519" lon="0.933">
        <ele>703.22</ele>
        <time>2019-12-09T16:29:01Z</time>
      </trkpt>
      <trkpt lat="42.9355" lon="0.93141">
        <ele>709.031</ele>
        <time>2019-12-09T16:29:21Z</time>
      </trkpt>
      <trkpt lat="42.93545" lon="0.93096">
        <ele>709.453</ele>
        <time>2019-12-09T16:29:41Z</time>
      </trkpt>
      <trkpt lat="42.93523" lon="0.93021">
        <ele>714.016</ele>
        <time>2019-12-09T16:30:01Z</time>
      </trkpt>
      <trkpt lat="42.93489" lon="0.92989">
        <ele>710.318</ele>
        <time>2019-12-09T16:30:21Z</time>
      </trkpt>
      <trkpt lat="42.93483" lon="0.92944">
        <ele>710.463</ele>
        <time>2019-12-09T16:30:41Z</time>
      </trkpt>
      <trkpt lat="42.93541" lon="0.92835">
        <ele>723.144</ele>
        <time>2019-12-09T16:31:01Z</time>
      </trkpt>
      <trkpt lat="42.93577" lon="0.92684">
        <ele>710.018</ele>
        <time>2019-12-09T16:31:21Z</time>
      </trkpt>
      <trkpt lat="42.93545" lon="0.92714">
        <ele>707.408</ele>
        <time>2019-12-09T16:31:41Z</time>
      </trkpt>
      <trkpt lat="42.93552" lon="0.92644">
        <ele>699.262</ele>
        <time>2019-12-09T16:32:01Z</time>
      </trkpt>
      <trkpt lat="42.93572" lon="0.92598">
        <ele>699.171</ele>
        <time>2019-12-09T16:32:21Z</time>
      </trkpt>
      <trkpt lat="42.93574" lon="0.92543">
        <ele>696.397</ele>
        <time>2019-12-09T16:32:41Z</time>
      </trkpt>
      <trkpt lat="42.93563" lon="0.92521">
        <ele>696.043</ele>
        <time>2019-12-09T16:33:01Z</time>
      </trkpt>
      <trkpt lat="42.93492" lon="0.92517">
        <ele>694.524</ele>
        <time>2019-12-09T16:33:21Z</time>
      </trkpt>
      <trkpt lat="42.93481" lon="0.92468">
        <ele>698.736</ele>
        <time>2019-12-09T16:33:41Z</time>
      </trkpt>
      <trkpt lat="42.93454" lon="0.92448">
        <ele>698.829</ele>
        <time>2019-12-09T16:34:01Z</time>
      </trkpt>
      <trkpt lat="42.93442" lon="0.92392">
        <ele>699.011</ele>
        <time>2019-12-09T16:34:21Z</time>
      </trkpt>
      <trkpt lat="42.93423" lon="0.92386">
        <ele>698.233</ele>
        <time>2019-12-09T16:34:41Z</time>
      </trkpt>
      <trkpt lat="42.93413" lon="0.9235">
        <ele>686.623</ele>
        <time>2019-12-09T16:35:01Z</time>
      </trkpt>
      <trkpt lat="42.93406" lon="0.92283">
        <ele>680.015</ele>
        <time>2019-12-09T16:35:21Z</time>
      </trkpt>
      <trkpt lat="42.93366" lon="0.92223">
        <ele>671.408</ele>
        <time>2019-12-09T16:35:41Z</time>
      </trkpt>
      <trkpt lat="42.93346" lon="0.9215">
        <ele>669.029</ele>
        <time>2019-12-09T16:36:01Z</time>
      </trkpt>
      <trkpt lat="42.93302" lon="0.92103">
        <ele>649.038</ele>
        <time>2019-12-09T16:36:21Z</time>
      </trkpt>
      <trkpt lat="42.93283" lon="0.92015">
        <ele>650.944</ele>
        <time>2019-12-09T16:36:41Z</time>
      </trkpt>
      <trkpt lat="42.93275" lon="0.91942">
        <ele>656.97</ele>
        <time>2019-12-09T16:37:01Z</time>
      </trkpt>
      <trkpt lat="42.9315" lon="0.9192">
        <ele>642.511</ele>
        <time>2019-12-09T16:37:21Z</time>
      </trkpt>
      <trkpt lat="42.93151" lon="0.9188">
        <ele>643.063</ele>
        <time>2019-12-09T16:37:41Z</time>
      </trkpt>
      <trkpt lat="42.93173" lon="0.91821">
        <ele>636.396</ele>
        <time>2021-02-06T05:31:11Z</time>
      </trkpt>
      <trkpt lat="42.93167" lon="0.91797">
        <ele>636.088</ele>
        <time>2021-02-06T05:31:31Z</time>
      </trkpt>
      <trkpt lat="42.93145" lon="0.91797">
        <ele>639.744</ele>
        <time>2021-02-06T05:31:51Z</time>
      </trkpt>
      <trkpt lat="42.93137" lon="0.91782">
        <ele>640.805</ele>
        <time>2021-02-06T05:32:11Z</time>
      </trkpt>
      <trkpt lat="42.931" lon="0.91749">
        <ele>644.115</ele>
        <time>2021-02-06T05:32:31Z</time>
      </trkpt>
      <trkpt lat="42.93069" lon="0.91742">
        <ele>651.708</ele>
        <time>2021-02-06T05:32:51Z</time>
      </trkpt>
      <trkpt lat="42.93059" lon="0.91725">
        <ele>653.99</ele>
        <time>2021-02-06T05:33:11Z</time>
      </trkpt>
      <trkpt lat="42.9306" lon="0.91651">
        <ele>646.229</ele>
        <time>2021-02-06T05:33:31Z</time>
      </trkpt>
      <trkpt lat="42.93048" lon="0.91623">
        <ele>647.265</ele>
        <time>2021-02-06T05:33:51Z</time>
      </trkpt>
      <trkpt lat="42.93026" lon="0.9162">
        <ele>650.831</ele>
        <time>2021-02-06T05:34:11Z</time>
      </trkpt>
      <trkpt lat="42.92972" lon="0.91656">
        <ele>667.442</ele>
        <time>2019-12-09T16:40:41Z</time>
      </trkpt>
      <trkpt lat="42.92937" lon="0.91631">
        <ele>669.334</ele>
        <time>2019-12-09T16:41:01Z</time>
      </trkpt>
      <trkpt lat="42.92853" lon="0.91601">
        <ele>687.657</ele>
        <time>2019-12-09T16:41:21Z</time>
      </trkpt>
      <trkpt lat="42.92713" lon="0.91182">
        <ele>725.919</ele>
        <time>2019-12-09T16:41:41Z</time>
      </trkpt>
      <trkpt lat="42.92686" lon="0.91017">
        <ele>719.469</ele>
        <time>2019-12-09T16:42:01Z</time>
      </trkpt>
      <trkpt lat="42.92596" lon="0.90886">
        <ele>744.604</ele>
        <time>2019-12-09T16:42:21Z</time>
      </trkpt>
      <trkpt lat="42.92595" lon="0.90854">
        <ele>746.524</ele>
        <time>2019-12-09T16:42:41Z</time>
      </trkpt>
      <trkpt lat="42.92617" lon="0.90841">
        <ele>747.808</ele>
        <time>2021-02-06T05:36:51Z</time>
      </trkpt>
      <trkpt lat="42.92664" lon="0.90829">
        <ele>745.872</ele>
        <time>2021-02-06T05:37:11Z</time>
      </trkpt>
      <trkpt lat="42.92602" lon="0.90779">
        <ele>772.621</ele>
        <time>2021-02-06T05:37:31Z</time>
      </trkpt>
      <trkpt lat="42.92533" lon="0.90694">
        <ele>818.827</ele>
        <time>2021-02-06T05:37:51Z</time>
      </trkpt>
      <trkpt lat="42.92516" lon="0.90563">
        <ele>865.613</ele>
        <time>2021-02-06T05:38:11Z</time>
      </trkpt>
      <trkpt lat="42.9252" lon="0.90527">
        <ele>867.484</ele>
        <time>2021-02-06T05:38:31Z</time>
      </trkpt>
      <trkpt lat="42.92602" lon="0.90469">
        <ele>830.776</ele>
        <time>2021-02-06T05:38:51Z</time>
      </trkpt>
      <trkpt lat="42.92638" lon="0.90461">
        <ele>812.669</ele>
        <time>2021-02-06T05:39:11Z</time>
      </trkpt>
      <trkpt lat="42.92642" lon="0.90435">
        <ele>807.241</ele>
        <time>2021-02-06T05:39:31Z</time>
      </trkpt>
      <trkpt lat="42.92659" lon="0.90439">
        <ele>800.415</ele>
        <time>2021-02-06T05:39:51Z</time>
      </trkpt>
      <trkpt lat="42.92679" lon="0.90459">
        <ele>793.165</ele>
        <time>2021-02-06T05:40:11Z</time>
      </trkpt>
      <trkpt lat="42.92689" lon="0.90432">
        <ele>785.311</ele>
        <time>2021-02-06T05:40:31Z</time>
      </trkpt>
      <trkpt lat="42.92717" lon="0.90421">
        <ele>771.408</ele>
        <time>2021-02-06T05:40:51Z</time>
      </trkpt>
      <trkpt lat="42.92716" lon="0.90393">
        <ele>765.127</ele>
        <time>2021-02-06T05:41:11Z</time>
      </trkpt>
      <trkpt lat="42.92749" lon="0.90406">
        <ele>753.776</ele>
        <time>2021-02-06T05:41:31Z</time>
      </trkpt>
      <trkpt lat="42.92752" lon="0.90341">
        <ele>736.042</ele>
        <time>2021-02-06T05:41:51Z</time>
      </trkpt>
      <trkpt lat="42.9274" lon="0.90208">
        <ele>733.078</ele>
        <time>2021-02-06T05:42:11Z</time>
      </trkpt>
      <trkpt lat="42.92818" lon="0.90218">
        <ele>704.539</ele>
        <time>2021-02-06T05:42:31Z</time>
      </trkpt>
      <trkpt lat="42.92854" lon="0.90201">
        <ele>697.471</ele>
        <time>2021-02-06T05:42:51Z</time>
      </trkpt>
      <trkpt lat="42.92917" lon="0.89957">
        <ele>699.284</ele>
        <time>2019-12-09T16:45:41Z</time>
      </trkpt>
      <trkpt lat="42.92867" lon="0.89768">
        <ele>704.726</ele>
        <time>2019-12-09T16:46:01Z</time>
      </trkpt>
      <trkpt lat="42.92824" lon="0.89646">
        <ele>722.925</ele>
        <time>2019-12-09T16:46:21Z</time>
      </trkpt>
      <trkpt lat="42.92834" lon="0.89569">
        <ele>696.326</ele>
        <time>2019-12-09T16:46:41Z</time>
      </trkpt>
      <trkpt lat="42.9285" lon="0.89577">
        <ele>696.808</ele>
        <time>2021-02-06T05:44:31Z</time>
      </trkpt>
      <trkpt lat="42.9287" lon="0.89506">
        <ele>690.008</ele>
        <time>2021-02-06T05:44:51Z</time>
      </trkpt>
      <trkpt lat="42.92882" lon="0.89498">
        <ele>687.728</ele>
        <time>2021-02-06T05:45:11Z</time>
      </trkpt>
      <trkpt lat="42.9289" lon="0.89523">
        <ele>686.757</ele>
        <time>2021-02-06T05:45:31Z</time>
      </trkpt>
      <trkpt lat="42.92902" lon="0.89505">
        <ele>684.483</ele>
        <time>2021-02-06T05:45:51Z</time>
      </trkpt>
      <trkpt lat="42.92986" lon="0.89564">
        <ele>699.199</ele>
        <time>2019-12-09T16:47:41Z</time>
      </trkpt>
      <trkpt lat="42.92986" lon="0.89601">
        <ele>703.14</ele>
        <time>2019-12-09T16:48:01Z</time>
      </trkpt>
      <trkpt lat="42.93041" lon="0.89637">
        <ele>731.142</ele>
        <time>2019-12-09T16:48:21Z</time>
      </trkpt>
      <trkpt lat="42.93047" lon="0.89665">
        <ele>734.265</ele>
        <time>2019-12-09T16:48:41Z</time>
      </trkpt>
      <trkpt lat="42.93216" lon="0.8974">
        <ele>807.067</ele>
        <time>2019-12-09T16:49:01Z</time>
      </trkpt>
      <trkpt lat="42.93238" lon="0.89794">
        <ele>820.837</ele>
        <time>2019-12-09T16:49:21Z</time>
      </trkpt>
      <trkpt lat="42.93346" lon="0.89667">
        <ele>853.749</ele>
        <time>2019-12-09T16:49:41Z</time>
      </trkpt>
      <trkpt lat="42.93446" lon="0.89597">
        <ele>873.913</ele>
        <time>2019-12-09T16:50:01Z</time>
      </trkpt>
      <trkpt lat="42.93556" lon="0.89543">
        <ele>880.108</ele>
        <time>2019-12-09T16:50:21Z</time>
      </trkpt>
      <trkpt lat="42.93696" lon="0.89515">
        <ele>880.839</ele>
        <time>2019-12-09T16:50:41Z</time>
      </trkpt>
      <trkpt lat="42.93797" lon="0.89406">
        <ele>911.468</ele>
        <time>2019-12-09T16:51:01Z</time>
      </trkpt>
      <trkpt lat="42.93849" lon="0.89391">
        <ele>902.354</ele>
        <time>2019-12-09T16:51:21Z</time>
      </trkpt>
      <trkpt lat="42.93937" lon="0.89384">
        <ele>911.81</ele>
        <time>2019-12-09T16:51:41Z</time>
      </trkpt>
      <trkpt lat="42.93935" lon="0.893">
        <ele>910.871</ele>
        <time>2019-12-09T16:52:01Z</time>
      </trkpt>
      <trkpt lat="42.9397" lon="0.89234">
        <ele>905.153</ele>
        <time>2019-12-09T16:52:21Z</time>
      </trkpt>
      <trkpt lat="42.94025" lon="0.8921">
        <ele>901.316</ele>
        <time>2019-12-09T16:52:41Z</time>
      </trkpt>
      <trkpt lat="42.9413" lon="0.89187">
        <ele>898.088</ele>
        <time>2019-12-09T16:53:01Z</time>
      </trkpt>
      <trkpt lat="42.9423" lon="0.8915">
        <ele>888.749</ele>
        <time>2019-12-09T16:53:21Z</time>
      </trkpt>
      <trkpt lat="42.94469" lon="0.88938">
        <ele>888.902</ele>
        <time>2019-12-09T16:53:41Z</time>
      </trkpt>
      <trkpt lat="42.94508" lon="0.88912">
        <ele>886.322</ele>
        <time>2019-12-09T16:54:01Z</time>
      </trkpt>
      <trkpt lat="42.94541" lon="0.88854">
        <ele>884.608</ele>
        <time>2019-12-09T16:54:21Z</time>
      </trkpt>
      <trkpt lat="42.94543" lon="0.888">
        <ele>879.05</ele>
        <time>2019-12-09T16:54:41Z</time>
      </trkpt>
      <trkpt lat="42.94516" lon="0.88751">
        <ele>875.049</ele>
        <time>2019-12-09T16:55:01Z</time>
      </trkpt>
      <trkpt lat="42.94469" lon="0.88713">
        <ele>864.995</ele>
        <time>2019-12-09T16:55:21Z</time>
      </trkpt>
      <trkpt lat="42.94419" lon="0.88635">
        <ele>867.481</ele>
        <time>2019-12-09T16:55:41Z</time>
      </trkpt>
      <trkpt lat="42.94417" lon="0.88588">
        <ele>867.272</ele>
        <time>2019-12-09T16:56:01Z</time>
      </trkpt>
      <trkpt lat="42.94332" lon="0.88483">
        <ele>866.114</ele>
        <time>2019-12-09T16:56:21Z</time>
      </trkpt>
      <trkpt lat="42.94329" lon="0.88431">
        <ele>871.347</ele>
        <time>2019-12-09T16:56:41Z</time>
      </trkpt>
      <trkpt lat="42.94296" lon="0.88316">
        <ele>882.549</ele>
        <time>2019-12-09T16:57:01Z</time>
      </trkpt>
      <trkpt lat="42.94334" lon="0.88307">
        <ele>891.451</ele>
        <time>2019-12-09T16:57:21Z</time>
      </trkpt>
      <trkpt lat="42.9435" lon="0.88217">
        <ele>896.001</ele>
        <time>2019-12-09T16:57:41Z</time>
      </trkpt>
      <trkpt lat="42.9437" lon="0.88155">
        <ele>896.211</ele>
        <time>2019-12-09T16:58:01Z</time>
      </trkpt>
      <trkpt lat="42.94364" lon="0.88039">
        <ele>897.408</ele>
        <time>2019-12-09T16:58:21Z</time>
      </trkpt>
      <trkpt lat="42.94383" lon="0.88">
        <ele>902.941</ele>
        <time>2019-12-09T16:58:41Z</time>
      </trkpt>
      <trkpt lat="42.9437" lon="0.87964">
        <ele>908.41</ele>
        <time>2019-12-09T16:59:01Z</time>
      </trkpt>
      <trkpt lat="42.94334" lon="0.87931">
        <ele>905.396</ele>
        <time>2019-12-09T16:59:21Z</time>
      </trkpt>
      <trkpt lat="42.94279" lon="0.87934">
        <ele>887.062</ele>
        <time>2019-12-09T16:59:41Z</time>
      </trkpt>
      <trkpt lat="42.94246" lon="0.87921">
        <ele>878.453</ele>
        <time>2019-12-09T17:00:01Z</time>
      </trkpt>
      <trkpt lat="42.94249" lon="0.87876">
        <ele>867.465</ele>
        <time>2019-12-09T17:00:21Z</time>
      </trkpt>
      <trkpt lat="42.94298" lon="0.87856">
        <ele>892.988</ele>
        <time>2019-12-09T17:00:41Z</time>
      </trkpt>
      <trkpt lat="42.9432" lon="0.87807">
        <ele>891.95</ele>
        <time>2019-12-09T17:01:01Z</time>
      </trkpt>
      <trkpt lat="42.94314" lon="0.87758">
        <ele>890.195</ele>
        <time>2019-12-09T17:01:21Z</time>
      </trkpt>
      <trkpt lat="42.94243" lon="0.87693">
        <ele>858.949</ele>
        <time>2019-12-09T17:01:41Z</time>
      </trkpt>
      <trkpt lat="42.94243" lon="0.8764">
        <ele>856.623</ele>
        <time>2019-12-09T17:02:01Z</time>
      </trkpt>
      <trkpt lat="42.94271" lon="0.87556">
        <ele>871.508</ele>
        <time>2019-12-09T17:02:21Z</time>
      </trkpt>
      <trkpt lat="42.94276" lon="0.87492">
        <ele>877.425</ele>
        <time>2019-12-09T17:02:41Z</time>
      </trkpt>
      <trkpt lat="42.9424" lon="0.87477">
        <ele>871.964</ele>
        <time>2019-12-09T17:03:01Z</time>
      </trkpt>
      <trkpt lat="42.94177" lon="0.87477">
        <ele>869.79</ele>
        <time>2019-12-09T17:03:21Z</time>
      </trkpt>
      <trkpt lat="42.94142" lon="0.87464">
        <ele>864.856</ele>
        <time>2019-12-09T17:03:41Z</time>
      </trkpt>
      <trkpt lat="42.94116" lon="0.87423">
        <ele>867.617</ele>
        <time>2019-12-09T17:04:01Z</time>
      </trkpt>
      <trkpt lat="42.94075" lon="0.87328">
        <ele>885.349</ele>
        <time>2019-12-09T17:04:21Z</time>
      </trkpt>
      <trkpt lat="42.93985" lon="0.87236">
        <ele>877.642</ele>
        <time>2019-12-09T17:04:41Z</time>
      </trkpt>
      <trkpt lat="42.93937" lon="0.8715">
        <ele>878.454</ele>
        <time>2019-12-09T17:05:01Z</time>
      </trkpt>
      <trkpt lat="42.93897" lon="0.87103">
        <ele>859.511</ele>
        <time>2019-12-09T17:05:21Z</time>
      </trkpt>
      <trkpt lat="42.93894" lon="0.87052">
        <ele>860.121</ele>
        <time>2019-12-09T17:05:41Z</time>
      </trkpt>
      <trkpt lat="42.9393" lon="0.86893">
        <ele>863.503</ele>
        <time>2019-12-09T17:06:01Z</time>
      </trkpt>
      <trkpt lat="42.93993" lon="0.86749">
        <ele>856.708</ele>
        <time>2019-12-09T17:06:21Z</time>
      </trkpt>
      <trkpt lat="42.9401" lon="0.86723">
        <ele>862.327</ele>
        <time>2019-12-09T17:06:41Z</time>
      </trkpt>
      <trkpt lat="42.94007" lon="0.86663">
        <ele>857.026</ele>
        <time>2019-12-09T17:07:01Z</time>
      </trkpt>
      <trkpt lat="42.94036" lon="0.86597">
        <ele>861.442</ele>
        <time>2019-12-09T17:07:21Z</time>
      </trkpt>
      <trkpt lat="42.94089" lon="0.86558">
        <ele>869.018</ele>
        <time>2019-12-09T17:07:41Z</time>
      </trkpt>
      <trkpt lat="42.94124" lon="0.86481">
        <ele>881.699</ele>
        <time>2019-12-09T17:08:01Z</time>
      </trkpt>
      <trkpt lat="42.94127" lon="0.86455">
        <ele>884.681</ele>
        <time>2019-12-09T17:08:21Z</time>
      </trkpt>
      <trkpt lat="42.94219" lon="0.86421">
        <ele>888.384</ele>
        <time>2019-12-09T17:08:41Z</time>
      </trkpt>
      <trkpt lat="42.9424" lon="0.86378">
        <ele>902.766</ele>
        <time>2019-12-09T17:09:01Z</time>
      </trkpt>
      <trkpt lat="42.94254" lon="0.8626">
        <ele>918.125</ele>
        <time>2019-12-09T17:09:21Z</time>
      </trkpt>
      <trkpt lat="42.94263" lon="0.86163">
        <ele>930.926</ele>
        <time>2019-12-09T17:09:41Z</time>
      </trkpt>
      <trkpt lat="42.94307" lon="0.86065">
        <ele>945.908</ele>
        <time>2019-12-09T17:10:01Z</time>
      </trkpt>
      <trkpt lat="42.94331" lon="0.85912">
        <ele>966.408</ele>
        <time>2019-12-09T17:10:21Z</time>
      </trkpt>
      <trkpt lat="42.94376" lon="0.85841">
        <ele>971.978</ele>
        <time>2019-12-09T17:10:41Z</time>
      </trkpt>
      <trkpt lat="42.9448" lon="0.85865">
        <ele>983.337</ele>
        <time>2019-12-09T17:11:01Z</time>
      </trkpt>
      <trkpt lat="42.94538" lon="0.85848">
        <ele>1004.173</ele>
        <time>2019-12-09T17:11:21Z</time>
      </trkpt>
      <trkpt lat="42.9457" lon="0.857">
        <ele>1022.659</ele>
        <time>2019-12-09T17:11:41Z</time>
      </trkpt>
      <trkpt lat="42.94568" lon="0.85511">
        <ele>1056.62</ele>
        <time>2019-12-09T17:12:01Z</time>
      </trkpt>
      <trkpt lat="42.94511" lon="0.85468">
        <ele>1065.442</ele>
        <time>2019-12-09T17:12:21Z</time>
      </trkpt>
      <trkpt lat="42.94485" lon="0.85391">
        <ele>1074.385</ele>
        <time>2019-12-09T17:12:41Z</time>
      </trkpt>
      <trkpt lat="42.94529" lon="0.85352">
        <ele>1081.527</ele>
        <time>2019-12-09T17:13:01Z</time>
      </trkpt>
      <trkpt lat="42.94544" lon="0.85309">
        <ele>1084.432</ele>
        <time>2019-12-09T17:13:21Z</time>
      </trkpt>
      <trkpt lat="42.94551" lon="0.85262">
        <ele>1084.892</ele>
        <time>2019-12-09T17:13:41Z</time>
      </trkpt>
      <trkpt lat="42.94598" lon="0.85144">
        <ele>1098.111</ele>
        <time>2019-12-09T17:14:01Z</time>
      </trkpt>
      <trkpt lat="42.94625" lon="0.85026">
        <ele>1097.708</ele>
        <time>2019-12-09T17:14:21Z</time>
      </trkpt>
      <trkpt lat="42.94664" lon="0.84945">
        <ele>1094.169</ele>
        <time>2019-12-09T17:14:41Z</time>
      </trkpt>
      <trkpt lat="42.94708" lon="0.8493">
        <ele>1112.348</ele>
        <time>2019-12-09T17:15:01Z</time>
      </trkpt>
      <trkpt lat="42.94761" lon="0.8494">
        <ele>1131.994</ele>
        <time>2019-12-09T17:15:21Z</time>
      </trkpt>
      <trkpt lat="42.94761" lon="0.84762">
        <ele>1119.57</ele>
        <time>2019-12-09T17:15:41Z</time>
      </trkpt>
      <trkpt lat="42.9481" lon="0.84668">
        <ele>1132.181</ele>
        <time>2019-12-09T17:16:01Z</time>
      </trkpt>
      <trkpt lat="42.94816" lon="0.84556">
        <ele>1126.913</ele>
        <time>2019-12-09T17:16:21Z</time>
      </trkpt>
      <trkpt lat="42.94843" lon="0.84412">
        <ele>1151.176</ele>
        <time>2019-12-09T17:16:41Z</time>
      </trkpt>
      <trkpt lat="42.94829" lon="0.84247">
        <ele>1147.168</ele>
        <time>2019-12-09T17:17:01Z</time>
      </trkpt>
      <trkpt lat="42.94866" lon="0.84054">
        <ele>1167.735</ele>
        <time>2019-12-09T17:17:21Z</time>
      </trkpt>
      <trkpt lat="42.9489" lon="0.83818">
        <ele>1179.086</ele>
        <time>2019-12-09T17:17:41Z</time>
      </trkpt>
      <trkpt lat="42.94909" lon="0.83494">
        <ele>1175.814</ele>
        <time>2019-12-09T17:18:01Z</time>
      </trkpt>
      <trkpt lat="42.94936" lon="0.83406">
        <ele>1174.308</ele>
        <time>2019-12-09T17:18:21Z</time>
      </trkpt>
      <trkpt lat="42.94953" lon="0.83333">
        <ele>1148.919</ele>
        <time>2019-12-09T17:18:41Z</time>
      </trkpt>
      <trkpt lat="42.94986" lon="0.83333">
        <ele>1156.758</ele>
        <time>2019-12-09T17:19:01Z</time>
      </trkpt>
      <trkpt lat="42.95035" lon="0.83387">
        <ele>1167.814</ele>
        <time>2019-12-09T17:19:21Z</time>
      </trkpt>
      <trkpt lat="42.951" lon="0.83419">
        <ele>1165.18</ele>
        <time>2019-12-09T17:19:41Z</time>
      </trkpt>
      <trkpt lat="42.95281" lon="0.8353">
        <ele>1175.061</ele>
        <time>2019-12-09T17:20:01Z</time>
      </trkpt>
      <trkpt lat="42.95311" lon="0.8353">
        <ele>1176.873</ele>
        <time>2019-12-09T17:20:21Z</time>
      </trkpt>
      <trkpt lat="42.95352" lon="0.83485">
        <ele>1172.986</ele>
        <time>2019-12-09T17:20:41Z</time>
      </trkpt>
      <trkpt lat="42.95358" lon="0.8341">
        <ele>1146.078</ele>
        <time>2019-12-09T17:21:01Z</time>
      </trkpt>
      <trkpt lat="42.95416" lon="0.83361">
        <ele>1161.076</ele>
        <time>2019-12-09T17:21:21Z</time>
      </trkpt>
      <trkpt lat="42.9541" lon="0.83277">
        <ele>1143.29</ele>
        <time>2019-12-09T17:21:41Z</time>
      </trkpt>
      <trkpt lat="42.95424" lon="0.83219">
        <ele>1169.919</ele>
        <time>2019-12-09T17:22:01Z</time>
      </trkpt>
      <trkpt lat="42.95421" lon="0.83134">
        <ele>1157.808</ele>
        <time>2019-12-09T17:22:21Z</time>
      </trkpt>
      <trkpt lat="42.95462" lon="0.83028">
        <ele>1151.933</ele>
        <time>2019-12-09T17:22:41Z</time>
      </trkpt>
      <trkpt lat="42.95476" lon="0.82979">
        <ele>1145.812</ele>
        <time>2019-12-09T17:23:01Z</time>
      </trkpt>
      <trkpt lat="42.95482" lon="0.82915">
        <ele>1136.798</ele>
        <time>2019-12-09T17:23:21Z</time>
      </trkpt>
      <trkpt lat="42.9551" lon="0.82897">
        <ele>1141.864</ele>
        <time>2019-12-09T17:23:41Z</time>
      </trkpt>
      <trkpt lat="42.95572" lon="0.82919">
        <ele>1153.425</ele>
        <time>2019-12-09T17:24:01Z</time>
      </trkpt>
      <trkpt lat="42.95622" lon="0.829">
        <ele>1136.627</ele>
        <time>2019-12-09T17:24:21Z</time>
      </trkpt>
      <trkpt lat="42.9568" lon="0.82893">
        <ele>1149.78</ele>
        <time>2019-12-09T17:24:41Z</time>
      </trkpt>
      <trkpt lat="42.95716" lon="0.82717">
        <ele>1093.492</ele>
        <time>2019-12-09T17:25:01Z</time>
      </trkpt>
      <trkpt lat="42.95763" lon="0.827">
        <ele>1107.515</ele>
        <time>2019-12-09T17:25:21Z</time>
      </trkpt>
      <trkpt lat="42.95917" lon="0.82749">
        <ele>1138.265</ele>
        <time>2021-02-06T06:24:11Z</time>
      </trkpt>
      <trkpt lat="42.95892" lon="0.82674">
        <ele>1125.611</ele>
        <time>2021-02-06T06:24:31Z</time>
      </trkpt>
      <trkpt lat="42.95895" lon="0.82643">
        <ele>1121.708</ele>
        <time>2021-02-06T06:24:51Z</time>
      </trkpt>
      <trkpt lat="42.95929" lon="0.82615">
        <ele>1128.527</ele>
        <time>2021-02-06T06:25:11Z</time>
      </trkpt>
      <trkpt lat="42.95946" lon="0.82475">
        <ele>1103.886</ele>
        <time>2021-02-06T06:25:31Z</time>
      </trkpt>
      <trkpt lat="42.95973" lon="0.82411">
        <ele>1099.662</ele>
        <time>2021-02-06T06:25:51Z</time>
      </trkpt>
      <trkpt lat="42.95967" lon="0.82379">
        <ele>1096.038</ele>
        <time>2021-02-06T06:26:11Z</time>
      </trkpt>
      <trkpt lat="42.9601" lon="0.82363">
        <ele>1100.999</ele>
        <time>2019-12-09T17:28:21Z</time>
      </trkpt>
      <trkpt lat="42.96066" lon="0.82357">
        <ele>1104.251</ele>
        <time>2019-12-09T17:28:41Z</time>
      </trkpt>
      <trkpt lat="42.96095" lon="0.82305">
        <ele>1099.564</ele>
        <time>2019-12-09T17:29:01Z</time>
      </trkpt>
      <trkpt lat="42.96129" lon="0.8231">
        <ele>1103.596</ele>
        <time>2019-12-09T17:29:21Z</time>
      </trkpt>
      <trkpt lat="42.96179" lon="0.82157">
        <ele>1072.088</ele>
        <time>2019-12-09T17:29:41Z</time>
      </trkpt>
      <trkpt lat="42.96212" lon="0.82134">
        <ele>1078.224</ele>
        <time>2019-12-09T17:30:01Z</time>
      </trkpt>
      <trkpt lat="42.96211" lon="0.82089">
        <ele>1073.426</ele>
        <time>2019-12-09T17:30:21Z</time>
      </trkpt>
      <trkpt lat="42.96242" lon="0.81928">
        <ele>1045.808</ele>
        <time>2019-12-09T17:30:41Z</time>
      </trkpt>
      <trkpt lat="42.96336" lon="0.81719">
        <ele>1051.024</ele>
        <time>2019-12-09T17:31:01Z</time>
      </trkpt>
      <trkpt lat="42.96341" lon="0.81638">
        <ele>1033.923</ele>
        <time>2019-12-09T17:31:21Z</time>
      </trkpt>
      <trkpt lat="42.96374" lon="0.81479">
        <ele>1013.289</ele>
        <time>2019-12-09T17:31:41Z</time>
      </trkpt>
      <trkpt lat="42.96383" lon="0.81301">
        <ele>988.195</ele>
        <time>2019-12-09T17:32:01Z</time>
      </trkpt>
      <trkpt lat="42.96382" lon="0.81144">
        <ele>961.646</ele>
        <time>2019-12-09T17:32:21Z</time>
      </trkpt>
      <trkpt lat="42.96399" lon="0.80951">
        <ele>931.258</ele>
        <time>2019-12-09T17:32:41Z</time>
      </trkpt>
      <trkpt lat="42.96429" lon="0.80863">
        <ele>931.141</ele>
        <time>2019-12-09T17:33:01Z</time>
      </trkpt>
      <trkpt lat="42.96506" lon="0.8082">
        <ele>913.993</ele>
        <time>2019-12-09T17:33:21Z</time>
      </trkpt>
      <trkpt lat="42.96589" lon="0.80799">
        <ele>890.741</ele>
        <time>2019-12-09T17:33:41Z</time>
      </trkpt>
      <trkpt lat="42.96621" lon="0.80769">
        <ele>884.681</ele>
        <time>2019-12-09T17:34:01Z</time>
      </trkpt>
      <trkpt lat="42.96679" lon="0.80743">
        <ele>868.209</ele>
        <time>2019-12-09T17:34:21Z</time>
      </trkpt>
      <trkpt lat="42.96806" lon="0.80728">
        <ele>839.508</ele>
        <time>2019-12-09T17:34:41Z</time>
      </trkpt>
      <trkpt lat="42.96807" lon="0.80775">
        <ele>851.32</ele>
        <time>2019-12-09T17:35:01Z</time>
      </trkpt>
      <trkpt lat="42.96859" lon="0.80859">
        <ele>844.299</ele>
        <time>2019-12-09T17:35:21Z</time>
      </trkpt>
      <trkpt lat="42.96867" lon="0.80908">
        <ele>848.865</ele>
        <time>2019-12-09T17:35:41Z</time>
      </trkpt>
      <trkpt lat="42.96903" lon="0.8088">
        <ele>840.421</ele>
        <time>2019-12-09T17:36:01Z</time>
      </trkpt>
      <trkpt lat="42.96905" lon="0.80829">
        <ele>822.362</ele>
        <time>2019-12-09T17:36:21Z</time>
      </trkpt>
      <trkpt lat="42.96939" lon="0.80807">
        <ele>815.214</ele>
        <time>2019-12-09T17:36:41Z</time>
      </trkpt>
      <trkpt lat="42.9699" lon="0.80835">
        <ele>832.157</ele>
        <time>2019-12-09T17:37:01Z</time>
      </trkpt>
      <trkpt lat="42.97004" lon="0.80823">
        <ele>832.589</ele>
        <time>2019-12-09T17:37:21Z</time>
      </trkpt>
      <trkpt lat="42.97007" lon="0.80745">
        <ele>809.527</ele>
        <time>2019-12-09T17:37:41Z</time>
      </trkpt>
      <trkpt lat="42.97026" lon="0.80702">
        <ele>810.968</ele>
        <time>2019-12-09T17:38:01Z</time>
      </trkpt>
      <trkpt lat="42.97054" lon="0.80683">
        <ele>817.414</ele>
        <time>2019-12-09T17:38:21Z</time>
      </trkpt>
      <trkpt lat="42.97045" lon="0.80604">
        <ele>802.508</ele>
        <time>2019-12-09T17:38:41Z</time>
      </trkpt>
      <trkpt lat="42.97025" lon="0.80577">
        <ele>790.918</ele>
        <time>2019-12-09T17:39:01Z</time>
      </trkpt>
      <trkpt lat="42.9703" lon="0.80547">
        <ele>795.117</ele>
        <time>2019-12-09T17:39:21Z</time>
      </trkpt>
      <trkpt lat="42.9703" lon="0.8049">
        <ele>789.753</ele>
        <time>2019-12-09T17:39:41Z</time>
      </trkpt>
      <trkpt lat="42.97045" lon="0.80389">
        <ele>782.639</ele>
        <time>2019-12-09T17:40:01Z</time>
      </trkpt>
      <trkpt lat="42.97062" lon="0.80345">
        <ele>783.97</ele>
        <time>2019-12-09T17:40:21Z</time>
      </trkpt>
      <trkpt lat="42.97082" lon="0.80267">
        <ele>770.332</ele>
        <time>2019-12-09T17:40:41Z</time>
      </trkpt>
      <trkpt lat="42.97114" lon="0.80193">
        <ele>774.265</ele>
        <time>2019-12-09T17:41:01Z</time>
      </trkpt>
      <trkpt lat="42.97193" lon="0.8012">
        <ele>772.047</ele>
        <time>2019-12-09T17:41:21Z</time>
      </trkpt>
      <trkpt lat="42.97232" lon="0.80055">
        <ele>753.483</ele>
        <time>2019-12-09T17:41:41Z</time>
      </trkpt>
      <trkpt lat="42.97183" lon="0.80083">
        <ele>746.825</ele>
        <time>2019-12-09T17:42:01Z</time>
      </trkpt>
      <trkpt lat="42.97127" lon="0.80101">
        <ele>748.317</ele>
        <time>2019-12-09T17:42:21Z</time>
      </trkpt>
      <trkpt lat="42.97072" lon="0.80101">
        <ele>729.908</ele>
        <time>2019-12-09T17:42:41Z</time>
      </trkpt>
      <trkpt lat="42.9704" lon="0.80145">
        <ele>730.454</ele>
        <time>2019-12-09T17:43:01Z</time>
      </trkpt>
      <trkpt lat="42.96968" lon="0.80216">
        <ele>717.683</ele>
        <time>2019-12-09T17:43:21Z</time>
      </trkpt>
      <trkpt lat="42.96966" lon="0.80196">
        <ele>715.069</ele>
        <time>2019-12-09T17:43:41Z</time>
      </trkpt>
      <trkpt lat="42.97001" lon="0.80129">
        <ele>724.365</ele>
        <time>2019-12-09T17:44:01Z</time>
      </trkpt>
      <trkpt lat="42.97" lon="0.80046">
        <ele>696.546</ele>
        <time>2019-12-09T17:44:21Z</time>
      </trkpt>
      <trkpt lat="42.97065" lon="0.79917">
        <ele>695.588</ele>
        <time>2019-12-09T17:44:41Z</time>
      </trkpt>
      <trkpt lat="42.97124" lon="0.79913">
        <ele>690.981</ele>
        <time>2019-12-09T17:45:01Z</time>
      </trkpt>
      <trkpt lat="42.97166" lon="0.79878">
        <ele>688.973</ele>
        <time>2019-12-09T17:45:21Z</time>
      </trkpt>
      <trkpt lat="42.97178" lon="0.79759">
        <ele>669.663</ele>
        <time>2019-12-09T17:45:41Z</time>
      </trkpt>
      <trkpt lat="42.97139" lon="0.79805">
        <ele>670.244</ele>
        <time>2019-12-09T17:46:01Z</time>
      </trkpt>
      <trkpt lat="42.97111" lon="0.79805">
        <ele>669.318</ele>
        <time>2019-12-09T17:46:21Z</time>
      </trkpt>
      <trkpt lat="42.97075" lon="0.79765">
        <ele>658.108</ele>
        <time>2019-12-09T17:46:41Z</time>
      </trkpt>
      <trkpt lat="42.9703" lon="0.798">
        <ele>659.572</ele>
        <time>2019-12-09T17:47:01Z</time>
      </trkpt>
      <trkpt lat="42.96998" lon="0.79793">
        <ele>648.241</ele>
        <time>2019-12-09T17:47:21Z</time>
      </trkpt>
      <trkpt lat="42.96981" lon="0.79761">
        <ele>645.047</ele>
        <time>2019-12-09T17:47:41Z</time>
      </trkpt>
      <trkpt lat="42.96981" lon="0.79692">
        <ele>633.233</ele>
        <time>2019-12-09T17:48:01Z</time>
      </trkpt>
      <trkpt lat="42.96936" lon="0.79696">
        <ele>629.344</ele>
        <time>2019-12-09T17:48:21Z</time>
      </trkpt>
      <trkpt lat="42.96915" lon="0.79779">
        <ele>628.316</ele>
        <time>2019-12-09T17:48:41Z</time>
      </trkpt>
      <trkpt lat="42.96863" lon="0.79782">
        <ele>622.569</ele>
        <time>2019-12-09T17:49:01Z</time>
      </trkpt>
      <trkpt lat="42.96838" lon="0.79795">
        <ele>621.011</ele>
        <time>2019-12-09T17:49:21Z</time>
      </trkpt>
      <trkpt lat="42.96843" lon="0.79844">
        <ele>625.744</ele>
        <time>2019-12-09T17:49:41Z</time>
      </trkpt>
      <trkpt lat="42.96801" lon="0.7988">
        <ele>622.805</ele>
        <time>2019-12-09T17:50:01Z</time>
      </trkpt>
      <trkpt lat="42.96803" lon="0.79749">
        <ele>599.815</ele>
        <time>2019-12-09T17:50:21Z</time>
      </trkpt>
      <trkpt lat="42.96877" lon="0.7968">
        <ele>610.908</ele>
        <time>2019-12-09T17:50:41Z</time>
      </trkpt>
      <trkpt lat="42.96882" lon="0.79542">
        <ele>586.19</ele>
        <time>2019-12-09T17:51:01Z</time>
      </trkpt>
      <trkpt lat="42.96961" lon="0.79549">
        <ele>596.569</ele>
        <time>2019-12-09T17:51:21Z</time>
      </trkpt>
      <trkpt lat="42.97001" lon="0.7954">
        <ele>595.755</ele>
        <time>2019-12-09T17:51:41Z</time>
      </trkpt>
      <trkpt lat="42.97042" lon="0.79515">
        <ele>592.251</ele>
        <time>2019-12-09T17:52:01Z</time>
      </trkpt>
      <trkpt lat="42.9708" lon="0.79517">
        <ele>589.662</ele>
        <time>2019-12-09T17:52:21Z</time>
      </trkpt>
      <trkpt lat="42.97107" lon="0.79462">
        <ele>579.174</ele>
        <time>2019-12-09T17:52:41Z</time>
      </trkpt>
      <trkpt lat="42.97131" lon="0.79384">
        <ele>563.247</ele>
        <time>2019-12-09T17:53:01Z</time>
      </trkpt>
      <trkpt lat="42.97218" lon="0.79349">
        <ele>563.559</ele>
        <time>2019-12-09T17:53:21Z</time>
      </trkpt>
      <trkpt lat="42.9726" lon="0.79391">
        <ele>572.415</ele>
        <time>2019-12-09T17:53:41Z</time>
      </trkpt>
      <trkpt lat="42.97276" lon="0.79388">
        <ele>572.865</ele>
        <time>2019-12-09T17:54:01Z</time>
      </trkpt>
      <trkpt lat="42.97284" lon="0.79315">
        <ele>558.211</ele>
        <time>2019-12-09T17:54:21Z</time>
      </trkpt>
      <trkpt lat="42.97321" lon="0.79287">
        <ele>559.608</ele>
        <time>2019-12-09T17:54:41Z</time>
      </trkpt>
      <trkpt lat="42.97353" lon="0.79223">
        <ele>553.177</ele>
        <time>2019-12-09T17:55:01Z</time>
      </trkpt>
      <trkpt lat="42.97387" lon="0.79186">
        <ele>550.656</ele>
        <time>2019-12-09T17:55:21Z</time>
      </trkpt>
      <trkpt lat="42.97405" lon="0.79142">
        <ele>539.822</ele>
        <time>2019-12-09T17:55:41Z</time>
      </trkpt>
      <trkpt lat="42.9742" lon="0.79181">
        <ele>550.358</ele>
        <time>2019-12-09T17:56:01Z</time>
      </trkpt>
      <trkpt lat="42.97461" lon="0.79135">
        <ele>538.079</ele>
        <time>2019-12-09T17:56:21Z</time>
      </trkpt>
      <trkpt lat="42.97515" lon="0.79151">
        <ele>532.081</ele>
        <time>2019-12-09T17:56:41Z</time>
      </trkpt>
      <trkpt lat="42.97585" lon="0.79202">
        <ele>533.544</ele>
        <time>2019-12-09T17:57:01Z</time>
      </trkpt>
      <trkpt lat="42.97634" lon="0.79184">
        <ele>532.076</ele>
        <time>2019-12-09T17:57:21Z</time>
      </trkpt>
      <trkpt lat="42.97737" lon="0.79177">
        <ele>530.593</ele>
        <time>2019-12-09T17:57:41Z</time>
      </trkpt>
      <trkpt lat="42.97794" lon="0.79154">
        <ele>517.465</ele>
        <time>2019-12-09T17:58:01Z</time>
      </trkpt>
      <trkpt lat="42.97863" lon="0.79181">
        <ele>526.621</ele>
        <time>2019-12-09T17:58:21Z</time>
      </trkpt>
      <trkpt lat="42.97885" lon="0.79207">
        <ele>528.508</ele>
        <time>2019-12-09T17:58:41Z</time>
      </trkpt>
      <trkpt lat="42.97896" lon="0.79237">
        <ele>532.445</ele>
        <time>2019-12-09T17:59:01Z</time>
      </trkpt>
      <trkpt lat="42.97991" lon="0.7922">
        <ele>522.224</ele>
        <time>2019-12-09T17:59:21Z</time>
      </trkpt>
      <trkpt lat="42.98026" lon="0.79246">
        <ele>520.78</ele>
        <time>2019-12-09T17:59:41Z</time>
      </trkpt>
      <trkpt lat="42.98055" lon="0.79243">
        <ele>517.796</ele>
        <time>2019-12-09T18:00:01Z</time>
      </trkpt>
      <trkpt lat="42.9809" lon="0.7926">
        <ele>524.627</ele>
        <time>2019-12-09T18:00:21Z</time>
      </trkpt>
      <trkpt lat="42.98108" lon="0.7925">
        <ele>524.999</ele>
        <time>2019-12-09T18:00:41Z</time>
      </trkpt>
      <trkpt lat="42.98172" lon="0.79255">
        <ele>511.862</ele>
        <time>2019-12-09T18:01:01Z</time>
      </trkpt>
      <trkpt lat="42.98194" lon="0.79278">
        <ele>513.414</ele>
        <time>2019-12-09T18:01:21Z</time>
      </trkpt>
      <trkpt lat="42.98198" lon="0.79264">
        <ele>511.975</ele>
        <time>2019-12-09T18:01:41Z</time>
      </trkpt>
      <trkpt lat="42.98186" lon="0.79209">
        <ele>498.328</ele>
        <time>2019-12-09T18:02:01Z</time>
      </trkpt>
      <trkpt lat="42.98236" lon="0.79193">
        <ele>493.92</ele>
        <time>2019-12-09T18:02:21Z</time>
      </trkpt>
      <trkpt lat="42.98305" lon="0.79204">
        <ele>489.808</ele>
        <time>2019-12-09T18:02:41Z</time>
      </trkpt>
      <trkpt lat="42.9831" lon="0.79105">
        <ele>491.723</ele>
        <time>2019-12-09T18:03:01Z</time>
      </trkpt>
      <trkpt lat="42.98219" lon="0.79089">
        <ele>495.062</ele>
        <time>2019-12-09T18:03:21Z</time>
      </trkpt>
      <trkpt lat="42.98166" lon="0.79073">
        <ele>498.048</ele>
        <time>2019-12-09T18:03:41Z</time>
      </trkpt>
      <trkpt lat="42.98093" lon="0.79092">
        <ele>495.254</ele>
        <time>2019-12-09T18:04:01Z</time>
      </trkpt>
      <trkpt lat="42.9806" lon="0.78977">
        <ele>505.235</ele>
        <time>2019-12-09T18:04:21Z</time>
      </trkpt>
      <trkpt lat="42.98056" lon="0.78933">
        <ele>507.717</ele>
        <time>2019-12-09T18:04:41Z</time>
      </trkpt>
      <trkpt lat="42.98039" lon="0.78866">
        <ele>519.16</ele>
        <time>2019-12-09T18:05:01Z</time>
      </trkpt>
      <trkpt lat="42.98122" lon="0.78839">
        <ele>525.022</ele>
        <time>2019-12-09T18:05:21Z</time>
      </trkpt>
      <trkpt lat="42.98162" lon="0.78834">
        <ele>527.274</ele>
        <time>2019-12-09T18:05:41Z</time>
      </trkpt>
      <trkpt lat="42.98194" lon="0.78788">
        <ele>532.756</ele>
        <time>2019-12-09T18:06:01Z</time>
      </trkpt>
      <trkpt lat="42.97969" lon="0.7868">
        <ele>542.721</ele>
        <time>2019-12-09T18:06:21Z</time>
      </trkpt>
      <trkpt lat="42.97932" lon="0.78639">
        <ele>551.308</ele>
        <time>2019-12-09T18:06:41Z</time>
      </trkpt>
      <trkpt lat="42.97903" lon="0.78517">
        <ele>560.273</ele>
        <time>2019-12-09T18:07:01Z</time>
      </trkpt>
      <trkpt lat="42.97932" lon="0.78346">
        <ele>581.522</ele>
        <time>2019-12-09T18:07:21Z</time>
      </trkpt>
      <trkpt lat="42.97913" lon="0.78163">
        <ele>571.588</ele>
        <time>2019-12-09T18:07:41Z</time>
      </trkpt>
      <trkpt lat="42.9791" lon="0.77946">
        <ele>583.934</ele>
        <time>2019-12-09T18:08:01Z</time>
      </trkpt>
      <trkpt lat="42.97861" lon="0.77762">
        <ele>590.565</ele>
        <time>2019-12-09T18:08:21Z</time>
      </trkpt>
      <trkpt lat="42.97859" lon="0.77705">
        <ele>590.337</ele>
        <time>2019-12-09T18:08:41Z</time>
      </trkpt>
      <trkpt lat="42.97836" lon="0.77585">
        <ele>592.57</ele>
        <time>2019-12-09T18:09:01Z</time>
      </trkpt>
      <trkpt lat="42.97843" lon="0.77502">
        <ele>597.952</ele>
        <time>2019-12-09T18:09:21Z</time>
      </trkpt>
      <trkpt lat="42.97833" lon="0.7741">
        <ele>602.652</ele>
        <time>2019-12-09T18:09:41Z</time>
      </trkpt>
      <trkpt lat="42.97866" lon="0.77309">
        <ele>603.853</ele>
        <time>2019-12-09T18:10:01Z</time>
      </trkpt>
      <trkpt lat="42.97816" lon="0.77045">
        <ele>610.508</ele>
        <time>2019-12-09T18:10:21Z</time>
      </trkpt>
      <trkpt lat="42.97777" lon="0.77036">
        <ele>612.908</ele>
        <time>2019-12-09T18:10:41Z</time>
      </trkpt>
      <trkpt lat="42.97764" lon="0.76967">
        <ele>611.791</ele>
        <time>2019-12-09T18:11:01Z</time>
      </trkpt>
      <trkpt lat="42.9776" lon="0.76865">
        <ele>607.09</ele>
        <time>2019-12-09T18:11:21Z</time>
      </trkpt>
      <trkpt lat="42.97748" lon="0.76808">
        <ele>615.916</ele>
        <time>2019-12-09T18:11:41Z</time>
      </trkpt>
      <trkpt lat="42.97752" lon="0.76688">
        <ele>600.042</ele>
        <time>2019-12-09T18:12:01Z</time>
      </trkpt>
      <trkpt lat="42.97735" lon="0.7661">
        <ele>610.253</ele>
        <time>2019-12-09T18:12:21Z</time>
      </trkpt>
      <trkpt lat="42.97745" lon="0.76484">
        <ele>602.425</ele>
        <time>2019-12-09T18:12:41Z</time>
      </trkpt>
      <trkpt lat="42.97737" lon="0.76401">
        <ele>604.098</ele>
        <time>2019-12-09T18:13:01Z</time>
      </trkpt>
      <trkpt lat="42.97703" lon="0.76279">
        <ele>604.53</ele>
        <time>2019-12-09T18:13:21Z</time>
      </trkpt>
      <trkpt lat="42.97706" lon="0.7613">
        <ele>599.967</ele>
        <time>2019-12-09T18:13:41Z</time>
      </trkpt>
      <trkpt lat="42.97689" lon="0.76049">
        <ele>599.081</ele>
        <time>2019-12-09T18:14:01Z</time>
      </trkpt>
      <trkpt lat="42.97684" lon="0.75973">
        <ele>598.219</ele>
        <time>2019-12-09T18:14:21Z</time>
      </trkpt>
      <trkpt lat="42.97732" lon="0.75803">
        <ele>592.708</ele>
        <time>2019-12-09T18:14:41Z</time>
      </trkpt>
      <trkpt lat="42.9774" lon="0.75729">
        <ele>589.132</ele>
        <time>2019-12-09T18:15:01Z</time>
      </trkpt>
      <trkpt lat="42.97721" lon="0.75651">
        <ele>588.281</ele>
        <time>2019-12-09T18:15:21Z</time>
      </trkpt>
      <trkpt lat="42.97732" lon="0.75589">
        <ele>587.757</ele>
        <time>2019-12-09T18:15:41Z</time>
      </trkpt>
      <trkpt lat="42.97772" lon="0.7546">
        <ele>582.953</ele>
        <time>2019-12-09T18:16:01Z</time>
      </trkpt>
      <trkpt lat="42.97785" lon="0.75371">
        <ele>581.864</ele>
        <time>2019-12-09T18:16:21Z</time>
      </trkpt>
      <trkpt lat="42.97812" lon="0.75276">
        <ele>576.616</ele>
        <time>2019-12-09T18:16:41Z</time>
      </trkpt>
      <trkpt lat="42.97833" lon="0.75246">
        <ele>574.669</ele>
        <time>2019-12-09T18:17:01Z</time>
      </trkpt>
      <trkpt lat="42.97896" lon="0.75164">
        <ele>580.341</ele>
        <time>2019-12-09T18:17:21Z</time>
      </trkpt>
      <trkpt lat="42.97917" lon="0.75099">
        <ele>581.258</ele>
        <time>2019-12-09T18:17:41Z</time>
      </trkpt>
      <trkpt lat="42.9791" lon="0.7492">
        <ele>574.352</ele>
        <time>2019-12-09T18:18:01Z</time>
      </trkpt>
      <trkpt lat="42.97942" lon="0.74786">
        <ele>581.417</ele>
        <time>2019-12-09T18:18:21Z</time>
      </trkpt>
      <trkpt lat="42.97977" lon="0.74754">
        <ele>583.108</ele>
        <time>2019-12-09T18:18:41Z</time>
      </trkpt>
      <trkpt lat="42.98013" lon="0.74665">
        <ele>586.141</ele>
        <time>2019-12-09T18:19:01Z</time>
      </trkpt>
      <trkpt lat="42.98046" lon="0.74554">
        <ele>584.94</ele>
        <time>2019-12-09T18:19:21Z</time>
      </trkpt>
      <trkpt lat="42.98076" lon="0.74529">
        <ele>584.176</ele>
        <time>2019-12-09T18:19:41Z</time>
      </trkpt>
      <trkpt lat="42.98167" lon="0.74506">
        <ele>575.422</ele>
        <time>2019-12-09T18:20:01Z</time>
      </trkpt>
      <trkpt lat="42.98275" lon="0.74524">
        <ele>563.523</ele>
        <time>2019-12-09T18:20:21Z</time>
      </trkpt>
      <trkpt lat="42.98327" lon="0.74504">
        <ele>561.145</ele>
        <time>2019-12-09T18:20:41Z</time>
      </trkpt>
      <trkpt lat="42.98362" lon="0.74462">
        <ele>556.458</ele>
        <time>2019-12-09T18:21:01Z</time>
      </trkpt>
      <trkpt lat="42.98527" lon="0.74156">
        <ele>541.14</ele>
        <time>2019-12-09T18:21:21Z</time>
      </trkpt>
      <trkpt lat="42.98551" lon="0.74044">
        <ele>529.387</ele>
        <time>2019-12-09T18:21:41Z</time>
      </trkpt>
      <trkpt lat="42.98574" lon="0.74046">
        <ele>530.442</ele>
        <time>2019-12-09T18:22:01Z</time>
      </trkpt>
      <trkpt lat="42.98628" lon="0.74126">
        <ele>532.726</ele>
        <time>2019-12-09T18:22:21Z</time>
      </trkpt>
      <trkpt lat="42.98669" lon="0.74085">
        <ele>527.808</ele>
        <time>2019-12-09T18:22:41Z</time>
      </trkpt>
      <trkpt lat="42.98699" lon="0.74097">
        <ele>518.734</ele>
        <time>2019-12-09T18:23:01Z</time>
      </trkpt>
      <trkpt lat="42.98723" lon="0.74133">
        <ele>514.723</ele>
        <time>2019-12-09T18:23:21Z</time>
      </trkpt>
      <trkpt lat="42.98748" lon="0.74143">
        <ele>511.819</ele>
        <time>2019-12-09T18:23:41Z</time>
      </trkpt>
      <trkpt lat="42.98756" lon="0.74051">
        <ele>497.895</ele>
        <time>2019-12-09T18:24:01Z</time>
      </trkpt>
      <trkpt lat="42.98741" lon="0.74011">
        <ele>503.576</ele>
        <time>2019-12-09T18:24:21Z</time>
      </trkpt>
      <trkpt lat="42.98706" lon="0.73975">
        <ele>499.538</ele>
        <time>2019-12-09T18:24:41Z</time>
      </trkpt>
      <trkpt lat="42.98652" lon="0.73758">
        <ele>494.711</ele>
        <time>2019-12-09T18:25:01Z</time>
      </trkpt>
      <trkpt lat="42.98593" lon="0.73735">
        <ele>499.113</ele>
        <time>2019-12-09T18:25:21Z</time>
      </trkpt>
      <trkpt lat="42.98591" lon="0.73692">
        <ele>500.132</ele>
        <time>2019-12-09T18:25:41Z</time>
      </trkpt>
      <trkpt lat="42.98576" lon="0.73586">
        <ele>511.892</ele>
        <time>2019-12-09T18:26:01Z</time>
      </trkpt>
      <trkpt lat="42.9858" lon="0.73494">
        <ele>530.811</ele>
        <time>2019-12-09T18:26:21Z</time>
      </trkpt>
      <trkpt lat="42.98578" lon="0.7345">
        <ele>530.508</ele>
        <time>2019-12-09T18:26:41Z</time>
      </trkpt>
      <trkpt lat="42.98601" lon="0.73413">
        <ele>554.129</ele>
        <time>2019-12-09T18:27:01Z</time>
      </trkpt>
      <trkpt lat="42.98591" lon="0.73342">
        <ele>556.488</ele>
        <time>2019-12-09T18:27:21Z</time>
      </trkpt>
      <trkpt lat="42.9861" lon="0.7331">
        <ele>564.484</ele>
        <time>2019-12-09T18:27:41Z</time>
      </trkpt>
      <trkpt lat="42.98608" lon="0.73243">
        <ele>561.74</ele>
        <time>2019-12-09T18:28:01Z</time>
      </trkpt>
      <trkpt lat="42.98628" lon="0.73142">
        <ele>563.571</ele>
        <time>2019-12-09T18:28:21Z</time>
      </trkpt>
      <trkpt lat="42.98615" lon="0.73096">
        <ele>561.683</ele>
        <time>2019-12-09T18:28:41Z</time>
      </trkpt>
      <trkpt lat="42.98657" lon="0.7297">
        <ele>578.596</ele>
        <time>2019-12-09T18:29:01Z</time>
      </trkpt>
      <trkpt lat="42.98665" lon="0.72859">
        <ele>594.948</ele>
        <time>2019-12-09T18:29:21Z</time>
      </trkpt>
      <trkpt lat="42.98679" lon="0.72862">
        <ele>602.632</ele>
        <time>2019-12-09T18:29:41Z</time>
      </trkpt>
      <trkpt lat="42.98692" lon="0.72954">
        <ele>595.392</ele>
        <time>2019-12-09T18:30:01Z</time>
      </trkpt>
      <trkpt lat="42.98744" lon="0.72993">
        <ele>601.011</ele>
        <time>2019-12-09T18:30:21Z</time>
      </trkpt>
      <trkpt lat="42.98738" lon="0.72901">
        <ele>606.208</ele>
        <time>2019-12-09T18:30:41Z</time>
      </trkpt>
      <trkpt lat="42.98744" lon="0.72839">
        <ele>610.779</ele>
        <time>2019-12-09T18:31:01Z</time>
      </trkpt>
      <trkpt lat="42.98763" lon="0.72776">
        <ele>605.428</ele>
        <time>2019-12-09T18:31:21Z</time>
      </trkpt>
      <trkpt lat="42.98751" lon="0.72726">
        <ele>606.764</ele>
        <time>2019-12-09T18:31:41Z</time>
      </trkpt>
      <trkpt lat="42.98717" lon="0.72714">
        <ele>617.98</ele>
        <time>2019-12-09T18:32:01Z</time>
      </trkpt>
      <trkpt lat="42.9868" lon="0.72712">
        <ele>618.611</ele>
        <time>2019-12-09T18:32:21Z</time>
      </trkpt>
      <trkpt lat="42.98662" lon="0.72684">
        <ele>620.363</ele>
        <time>2019-12-09T18:32:41Z</time>
      </trkpt>
      <trkpt lat="42.9865" lon="0.72556">
        <ele>632.136</ele>
        <time>2019-12-09T18:33:01Z</time>
      </trkpt>
      <trkpt lat="42.98667" lon="0.72487">
        <ele>646.138</ele>
        <time>2019-12-09T18:33:21Z</time>
      </trkpt>
      <trkpt lat="42.98706" lon="0.72383">
        <ele>654.388</ele>
        <time>2019-12-09T18:33:41Z</time>
      </trkpt>
      <trkpt lat="42.98748" lon="0.72344">
        <ele>659.424</ele>
        <time>2019-12-09T18:34:01Z</time>
      </trkpt>
      <trkpt lat="42.98783" lon="0.72273">
        <ele>656.126</ele>
        <time>2019-12-09T18:34:21Z</time>
      </trkpt>
      <trkpt lat="42.9882" lon="0.72084">
        <ele>671.408</ele>
        <time>2019-12-09T18:34:41Z</time>
      </trkpt>
      <trkpt lat="42.98852" lon="0.71953">
        <ele>678.034</ele>
        <time>2019-12-09T18:35:01Z</time>
      </trkpt>
      <trkpt lat="42.98889" lon="0.71921">
        <ele>677.263</ele>
        <time>2019-12-09T18:35:21Z</time>
      </trkpt>
      <trkpt lat="42.98928" lon="0.71836">
        <ele>683.619</ele>
        <time>2019-12-09T18:35:41Z</time>
      </trkpt>
      <trkpt lat="42.98978" lon="0.71583">
        <ele>694.185</ele>
        <time>2019-12-09T18:36:01Z</time>
      </trkpt>
      <trkpt lat="42.98971" lon="0.71502">
        <ele>697.386</ele>
        <time>2019-12-09T18:36:21Z</time>
      </trkpt>
      <trkpt lat="42.98943" lon="0.71422">
        <ele>705.298</ele>
        <time>2019-12-09T18:36:41Z</time>
      </trkpt>
      <trkpt lat="42.98926" lon="0.71265">
        <ele>708.941</ele>
        <time>2019-12-09T18:37:01Z</time>
      </trkpt>
      <trkpt lat="42.98978" lon="0.71118">
        <ele>714.163</ele>
        <time>2019-12-09T18:37:21Z</time>
      </trkpt>
      <trkpt lat="42.9901" lon="0.70939">
        <ele>699.754</ele>
        <time>2019-12-09T18:37:41Z</time>
      </trkpt>
      <trkpt lat="42.99056" lon="0.70838">
        <ele>709.056</ele>
        <time>2019-12-09T18:38:01Z</time>
      </trkpt>
      <trkpt lat="42.99098" lon="0.70612">
        <ele>724.811</ele>
        <time>2019-12-09T18:38:21Z</time>
      </trkpt>
      <trkpt lat="42.99141" lon="0.70403">
        <ele>751.908</ele>
        <time>2019-12-09T18:38:41Z</time>
      </trkpt>
      <trkpt lat="42.99173" lon="0.7038">
        <ele>745.111</ele>
        <time>2019-12-09T18:39:01Z</time>
      </trkpt>
      <trkpt lat="42.99195" lon="0.70364">
        <ele>746.49</ele>
        <time>2019-12-09T18:39:21Z</time>
      </trkpt>
      <trkpt lat="42.99204" lon="0.70295">
        <ele>755.566</ele>
        <time>2019-12-09T18:39:41Z</time>
      </trkpt>
      <trkpt lat="42.9917" lon="0.70297">
        <ele>754.862</ele>
        <time>2019-12-09T18:40:01Z</time>
      </trkpt>
      <trkpt lat="42.9916" lon="0.70109">
        <ele>784.213</ele>
        <time>2019-12-09T18:40:21Z</time>
      </trkpt>
      <trkpt lat="42.99143" lon="0.69936">
        <ele>797.125</ele>
        <time>2019-12-09T18:40:41Z</time>
      </trkpt>
      <trkpt lat="42.99138" lon="0.69619">
        <ele>809.518</ele>
        <time>2019-12-09T18:41:01Z</time>
      </trkpt>
      <trkpt lat="42.99089" lon="0.69387">
        <ele>811.33</ele>
        <time>2019-12-09T18:41:21Z</time>
      </trkpt>
      <trkpt lat="42.99046" lon="0.69324">
        <ele>803.056</ele>
        <time>2019-12-09T18:41:41Z</time>
      </trkpt>
      <trkpt lat="42.99044" lon="0.69258">
        <ele>799.759</ele>
        <time>2019-12-09T18:42:01Z</time>
      </trkpt>
      <trkpt lat="42.98956" lon="0.69235">
        <ele>784.614</ele>
        <time>2019-12-09T18:42:21Z</time>
      </trkpt>
      <trkpt lat="42.98931" lon="0.69186">
        <ele>782.708</ele>
        <time>2019-12-09T18:42:41Z</time>
      </trkpt>
      <trkpt lat="42.98876" lon="0.68954">
        <ele>770.291</ele>
        <time>2019-12-09T18:43:01Z</time>
      </trkpt>
      <trkpt lat="42.98786" lon="0.68805">
        <ele>756.21</ele>
        <time>2019-12-09T18:43:21Z</time>
      </trkpt>
      <trkpt lat="42.98751" lon="0.68591">
        <ele>731.756</ele>
        <time>2019-12-09T18:43:41Z</time>
      </trkpt>
      <trkpt lat="42.9867" lon="0.68248">
        <ele>696.262</ele>
        <time>2019-12-09T18:44:01Z</time>
      </trkpt>
      <trkpt lat="42.98632" lon="0.68117">
        <ele>683.753</ele>
        <time>2019-12-09T18:44:21Z</time>
      </trkpt>
      <trkpt lat="42.98548" lon="0.68037">
        <ele>686.525</ele>
        <time>2019-12-09T18:44:41Z</time>
      </trkpt>
      <trkpt lat="42.98492" lon="0.67924">
        <ele>672.898</ele>
        <time>2019-12-09T18:45:01Z</time>
      </trkpt>
      <trkpt lat="42.98435" lon="0.67869">
        <ele>663.65</ele>
        <time>2019-12-09T18:45:21Z</time>
      </trkpt>
      <trkpt lat="42.98361" lon="0.67747">
        <ele>653.397</ele>
        <time>2019-12-09T18:45:41Z</time>
      </trkpt>
      <trkpt lat="42.98416" lon="0.6762">
        <ele>636.323</ele>
        <time>2019-12-09T18:46:01Z</time>
      </trkpt>
      <trkpt lat="42.98437" lon="0.67485">
        <ele>614.725</ele>
        <time>2019-12-09T18:46:21Z</time>
      </trkpt>
      <trkpt lat="42.98448" lon="0.67278">
        <ele>599.808</ele>
        <time>2019-12-09T18:46:41Z</time>
      </trkpt>
      <trkpt lat="42.98462" lon="0.67216">
        <ele>599.665</ele>
        <time>2019-12-09T18:47:01Z</time>
      </trkpt>
      <trkpt lat="42.98462" lon="0.67179">
        <ele>599.874</ele>
        <time>2019-12-09T18:47:21Z</time>
      </trkpt>
      <trkpt lat="42.98411" lon="0.67107">
        <ele>599.11</ele>
        <time>2019-12-09T18:47:41Z</time>
      </trkpt>
      <trkpt lat="42.98376" lon="0.67073">
        <ele>600.146</ele>
        <time>2019-12-09T18:48:01Z</time>
      </trkpt>
      <trkpt lat="42.98425" lon="0.67002">
        <ele>606.817</ele>
        <time>2019-12-09T18:48:21Z</time>
      </trkpt>
      <trkpt lat="42.98445" lon="0.66951">
        <ele>606.499</ele>
        <time>2019-12-09T18:48:41Z</time>
      </trkpt>
      <trkpt lat="42.98465" lon="0.6699">
        <ele>606.942</ele>
        <time>2019-12-09T18:49:01Z</time>
      </trkpt>
      <trkpt lat="42.98489" lon="0.67002">
        <ele>607.594</ele>
        <time>2019-12-09T18:49:21Z</time>
      </trkpt>
      <trkpt lat="42.98544" lon="0.67096">
        <ele>607.349</ele>
        <time>2019-12-09T18:49:41Z</time>
      </trkpt>
      <trkpt lat="42.9862" lon="0.67133">
        <ele>609.402</ele>
        <time>2019-12-09T18:50:01Z</time>
      </trkpt>
      <trkpt lat="42.9866" lon="0.67197">
        <ele>604.922</ele>
        <time>2019-12-09T18:50:21Z</time>
      </trkpt>
      <trkpt lat="42.98702" lon="0.67232">
        <ele>607.108</ele>
        <time>2019-12-09T18:50:41Z</time>
      </trkpt>
      <trkpt lat="42.98899" lon="0.67202">
        <ele>616.76</ele>
        <time>2019-12-09T18:51:01Z</time>
      </trkpt>
      <trkpt lat="42.98965" lon="0.67243">
        <ele>625.019</ele>
        <time>2019-12-09T18:51:21Z</time>
      </trkpt>
      <trkpt lat="42.99046" lon="0.67411">
        <ele>612.275</ele>
        <time>2019-12-09T18:51:41Z</time>
      </trkpt>
      <trkpt lat="42.99155" lon="0.67429">
        <ele>616.311</ele>
        <time>2019-12-09T18:52:01Z</time>
      </trkpt>
      <trkpt lat="42.99168" lon="0.67424">
        <ele>618.332</ele>
        <time>2019-12-09T18:52:21Z</time>
      </trkpt>
      <trkpt lat="42.99188" lon="0.67441">
        <ele>618.814</ele>
        <time>2019-12-09T18:52:41Z</time>
      </trkpt>
      <trkpt lat="42.99209" lon="0.67426">
        <ele>616.667</ele>
        <time>2019-12-09T18:53:01Z</time>
      </trkpt>
      <trkpt lat="42.99215" lon="0.67395">
        <ele>614.429</ele>
        <time>2019-12-09T18:53:21Z</time>
      </trkpt>
      <trkpt lat="42.99237" lon="0.67375">
        <ele>613.336</ele>
        <time>2019-12-09T18:53:41Z</time>
      </trkpt>
      <trkpt lat="42.9923" lon="0.67416">
        <ele>610.317</ele>
        <time>2019-12-09T18:54:01Z</time>
      </trkpt>
      <trkpt lat="42.99237" lon="0.67426">
        <ele>611.218</ele>
        <time>2019-12-09T18:54:21Z</time>
      </trkpt>
      <trkpt lat="42.99261" lon="0.67414">
        <ele>599.908</ele>
        <time>2019-12-09T18:54:41Z</time>
      </trkpt>
      <trkpt lat="42.99285" lon="0.67424">
        <ele>605.469</ele>
        <time>2019-12-09T18:55:01Z</time>
      </trkpt>
      <trkpt lat="42.99328" lon="0.67382">
        <ele>590.198</ele>
        <time>2019-12-09T18:55:21Z</time>
      </trkpt>
      <trkpt lat="42.9939" lon="0.67367">
        <ele>571.044</ele>
        <time>2019-12-09T18:55:41Z</time>
      </trkpt>
      <trkpt lat="42.99449" lon="0.67366">
        <ele>556.04</ele>
        <time>2019-12-09T18:56:01Z</time>
      </trkpt>
      <trkpt lat="42.99526" lon="0.67388">
        <ele>545.671</ele>
        <time>2019-12-09T18:56:21Z</time>
      </trkpt>
      <trkpt lat="42.9957" lon="0.67418">
        <ele>547.193</ele>
        <time>2019-12-09T18:56:41Z</time>
      </trkpt>
      <trkpt lat="42.99615" lon="0.67462">
        <ele>542.886</ele>
        <time>2019-12-09T18:57:01Z</time>
      </trkpt>
      <trkpt lat="42.99713" lon="0.67347">
        <ele>534.848</ele>
        <time>2019-12-09T18:57:21Z</time>
      </trkpt>
      <trkpt lat="42.99804" lon="0.67294">
        <ele>533.916</ele>
        <time>2019-12-09T18:57:41Z</time>
      </trkpt>
      <trkpt lat="42.99907" lon="0.67259">
        <ele>537.376</ele>
        <time>2019-12-09T18:58:01Z</time>
      </trkpt>
      <trkpt lat="42.99939" lon="0.67275">
        <ele>538.513</ele>
        <time>2019-12-09T18:58:21Z</time>
      </trkpt>
      <trkpt lat="42.99967" lon="0.67278">
        <ele>539.108</ele>
        <time>2019-12-09T18:58:41Z</time>
      </trkpt>
      <trkpt lat="42.99982" lon="0.67289">
        <ele>539.197</ele>
        <time>2019-12-09T18:59:01Z</time>
      </trkpt>
      <trkpt lat="43.00007" lon="0.67243">
        <ele>546.036</ele>
        <time>2020-04-16T07:33:48Z</time>
      </trkpt>
      <trkpt lat="42.99996" lon="0.67223">
        <ele>540.722</ele>
        <time>2019-12-10T17:14:54Z</time>
      </trkpt>
      <trkpt lat="42.99995" lon="0.67197">
        <ele>544.289</ele>
        <time>2019-12-10T17:15:14Z</time>
      </trkpt>
      <trkpt lat="42.99985" lon="0.67176">
        <ele>545.851</ele>
        <time>2019-12-10T17:15:34Z</time>
      </trkpt>
      <trkpt lat="42.99964" lon="0.67184">
        <ele>542.394</ele>
        <time>2019-12-10T17:15:54Z</time>
      </trkpt>
      <trkpt lat="42.99958" lon="0.6713">
        <ele>548.926</ele>
        <time>2019-12-10T17:16:14Z</time>
      </trkpt>
      <trkpt lat="42.99929" lon="0.67109">
        <ele>546.054</ele>
        <time>2019-12-10T17:16:34Z</time>
      </trkpt>
      <trkpt lat="42.99917" lon="0.67082">
        <ele>547.256</ele>
        <time>2019-12-10T17:16:54Z</time>
      </trkpt>
      <trkpt lat="42.99901" lon="0.67053">
        <ele>549.311</ele>
        <time>2019-12-10T17:17:14Z</time>
      </trkpt>
      <trkpt lat="42.99892" lon="0.66992">
        <ele>558.908</ele>
        <time>2019-12-10T17:17:34Z</time>
      </trkpt>
      <trkpt lat="42.99844" lon="0.66945">
        <ele>557.111</ele>
        <time>2019-12-10T17:17:54Z</time>
      </trkpt>
      <trkpt lat="42.99838" lon="0.66897">
        <ele>566.39</ele>
        <time>2019-12-10T17:18:14Z</time>
      </trkpt>
      <trkpt lat="42.99816" lon="0.66832">
        <ele>574.896</ele>
        <time>2019-12-10T17:18:34Z</time>
      </trkpt>
      <trkpt lat="42.99811" lon="0.66795">
        <ele>579.912</ele>
        <time>2019-12-10T17:18:54Z</time>
      </trkpt>
      <trkpt lat="42.99799" lon="0.66749">
        <ele>584.483</ele>
        <time>2019-12-10T17:19:14Z</time>
      </trkpt>
      <trkpt lat="42.99792" lon="0.66693">
        <ele>592.855</ele>
        <time>2019-12-10T17:19:34Z</time>
      </trkpt>
      <trkpt lat="42.99752" lon="0.66597">
        <ele>603.998</ele>
        <time>2019-12-10T17:19:54Z</time>
      </trkpt>
      <trkpt lat="42.99756" lon="0.66541">
        <ele>618.87</ele>
        <time>2019-12-10T17:20:14Z</time>
      </trkpt>
      <trkpt lat="42.99736" lon="0.66504">
        <ele>627.284</ele>
        <time>2019-12-10T17:20:34Z</time>
      </trkpt>
      <trkpt lat="42.9971" lon="0.66477">
        <ele>640.607</ele>
        <time>2019-12-10T17:20:54Z</time>
      </trkpt>
      <trkpt lat="42.99695" lon="0.66428">
        <ele>657.017</ele>
        <time>2019-12-10T17:21:14Z</time>
      </trkpt>
      <trkpt lat="42.99696" lon="0.66367">
        <ele>667.408</ele>
        <time>2019-12-10T17:21:34Z</time>
      </trkpt>
      <trkpt lat="42.99705" lon="0.66344">
        <ele>668.834</ele>
        <time>2019-12-10T17:21:54Z</time>
      </trkpt>
      <trkpt lat="42.99666" lon="0.6628">
        <ele>685.163</ele>
        <time>2019-12-10T17:22:14Z</time>
      </trkpt>
      <trkpt lat="42.99657" lon="0.66243">
        <ele>688.669</ele>
        <time>2019-12-10T17:22:34Z</time>
      </trkpt>
      <trkpt lat="42.99635" lon="0.66203">
        <ele>694.645</ele>
        <time>2019-12-10T17:22:54Z</time>
      </trkpt>
      <trkpt lat="42.99573" lon="0.66159">
        <ele>711.296</ele>
        <time>2019-12-10T17:23:14Z</time>
      </trkpt>
      <trkpt lat="42.99534" lon="0.66105">
        <ele>719.128</ele>
        <time>2019-12-10T17:23:34Z</time>
      </trkpt>
      <trkpt lat="42.9957" lon="0.66074">
        <ele>702.331</ele>
        <time>2019-12-10T17:23:54Z</time>
      </trkpt>
      <trkpt lat="42.9958" lon="0.66019">
        <ele>702.543</ele>
        <time>2019-12-10T17:24:14Z</time>
      </trkpt>
      <trkpt lat="42.99583" lon="0.65973">
        <ele>711.882</ele>
        <time>2019-12-10T17:24:34Z</time>
      </trkpt>
      <trkpt lat="42.99605" lon="0.6592">
        <ele>736.143</ele>
        <time>2019-12-10T17:24:54Z</time>
      </trkpt>
      <trkpt lat="42.99604" lon="0.65892">
        <ele>743.517</ele>
        <time>2019-12-10T17:25:14Z</time>
      </trkpt>
      <trkpt lat="42.99618" lon="0.65848">
        <ele>758.908</ele>
        <time>2019-12-10T17:25:34Z</time>
      </trkpt>
      <trkpt lat="42.99637" lon="0.65742">
        <ele>779.844</ele>
        <time>2019-12-10T17:25:54Z</time>
      </trkpt>
      <trkpt lat="42.9966" lon="0.65703">
        <ele>789.643</ele>
        <time>2019-12-10T17:26:14Z</time>
      </trkpt>
      <trkpt lat="42.99705" lon="0.65733">
        <ele>798.959</ele>
        <time>2019-12-10T17:26:34Z</time>
      </trkpt>
      <trkpt lat="42.99751" lon="0.65686">
        <ele>801.645</ele>
        <time>2019-12-10T17:26:54Z</time>
      </trkpt>
      <trkpt lat="42.99764" lon="0.65628">
        <ele>807.526</ele>
        <time>2019-12-10T17:27:14Z</time>
      </trkpt>
      <trkpt lat="42.99742" lon="0.65576">
        <ele>807.198</ele>
        <time>2019-12-10T17:27:34Z</time>
      </trkpt>
      <trkpt lat="42.99759" lon="0.65576">
        <ele>809.941</ele>
        <time>2019-12-10T17:27:54Z</time>
      </trkpt>
      <trkpt lat="42.99753" lon="0.65512">
        <ele>809.923</ele>
        <time>2019-12-10T17:28:14Z</time>
      </trkpt>
      <trkpt lat="42.99742" lon="0.65452">
        <ele>807.637</ele>
        <time>2019-12-10T17:28:34Z</time>
      </trkpt>
      <trkpt lat="42.99716" lon="0.6543">
        <ele>805.149</ele>
        <time>2019-12-10T17:28:54Z</time>
      </trkpt>
      <trkpt lat="42.99616" lon="0.65438">
        <ele>802.113</ele>
        <time>2019-12-10T17:29:14Z</time>
      </trkpt>
      <trkpt lat="42.99577" lon="0.65428">
        <ele>798.908</ele>
        <time>2019-12-10T17:29:34Z</time>
      </trkpt>
      <trkpt lat="42.99595" lon="0.65385">
        <ele>812.979</ele>
        <time>2019-12-10T17:29:54Z</time>
      </trkpt>
      <trkpt lat="42.99618" lon="0.65279">
        <ele>845.438</ele>
        <time>2019-12-10T17:30:14Z</time>
      </trkpt>
      <trkpt lat="42.99694" lon="0.65202">
        <ele>860.044</ele>
        <time>2019-12-10T17:30:34Z</time>
      </trkpt>
      <trkpt lat="42.99764" lon="0.65211">
        <ele>863.62</ele>
        <time>2019-12-10T17:30:54Z</time>
      </trkpt>
      <trkpt lat="42.99786" lon="0.65187">
        <ele>869.871</ele>
        <time>2019-12-10T17:31:14Z</time>
      </trkpt>
      <trkpt lat="42.99763" lon="0.65161">
        <ele>871.273</ele>
        <time>2019-12-10T17:31:34Z</time>
      </trkpt>
      <trkpt lat="42.99753" lon="0.65112">
        <ele>871.236</ele>
        <time>2019-12-10T17:31:54Z</time>
      </trkpt>
      <trkpt lat="42.99741" lon="0.65071">
        <ele>867.728</ele>
        <time>2019-12-10T17:32:14Z</time>
      </trkpt>
      <trkpt lat="42.9975" lon="0.65019">
        <ele>870.097</ele>
        <time>2019-12-10T17:32:34Z</time>
      </trkpt>
      <trkpt lat="42.99805" lon="0.64967">
        <ele>874.523</ele>
        <time>2019-12-10T17:32:54Z</time>
      </trkpt>
      <trkpt lat="42.99881" lon="0.64933">
        <ele>875.825</ele>
        <time>2019-12-10T17:33:14Z</time>
      </trkpt>
      <trkpt lat="42.99933" lon="0.64954">
        <ele>877.608</ele>
        <time>2019-12-10T17:33:34Z</time>
      </trkpt>
      <trkpt lat="42.99973" lon="0.64911">
        <ele>887.765</ele>
        <time>2019-12-10T17:33:54Z</time>
      </trkpt>
      <trkpt lat="43.0003" lon="0.64774">
        <ele>905.544</ele>
        <time>2019-12-10T17:34:14Z</time>
      </trkpt>
      <trkpt lat="42.99983" lon="0.64632">
        <ele>899.67</ele>
        <time>2019-12-10T17:34:34Z</time>
      </trkpt>
      <trkpt lat="42.99974" lon="0.64573">
        <ele>888.516</ele>
        <time>2019-12-10T17:34:54Z</time>
      </trkpt>
      <trkpt lat="42.99946" lon="0.64487">
        <ele>890.287</ele>
        <time>2019-12-10T17:35:14Z</time>
      </trkpt>
      <trkpt lat="42.99936" lon="0.64378">
        <ele>895.139</ele>
        <time>2019-12-10T17:35:34Z</time>
      </trkpt>
      <trkpt lat="42.99947" lon="0.64291">
        <ele>899.812</ele>
        <time>2019-12-10T17:35:54Z</time>
      </trkpt>
      <trkpt lat="42.99984" lon="0.64294">
        <ele>894.684</ele>
        <time>2019-12-10T17:36:14Z</time>
      </trkpt>
      <trkpt lat="43.00058" lon="0.64285">
        <ele>892.951</ele>
        <time>2019-12-10T17:36:34Z</time>
      </trkpt>
      <trkpt lat="43.00096" lon="0.64319">
        <ele>899.801</ele>
        <time>2019-12-10T17:36:54Z</time>
      </trkpt>
      <trkpt lat="43.00147" lon="0.6432">
        <ele>903.811</ele>
        <time>2019-12-10T17:37:14Z</time>
      </trkpt>
      <trkpt lat="43.00186" lon="0.64332">
        <ele>909.508</ele>
        <time>2019-12-10T17:37:34Z</time>
      </trkpt>
      <trkpt lat="43.00234" lon="0.64328">
        <ele>914.551</ele>
        <time>2019-12-10T17:37:54Z</time>
      </trkpt>
      <trkpt lat="43.00323" lon="0.6435">
        <ele>932.89</ele>
        <time>2019-12-10T17:38:14Z</time>
      </trkpt>
      <trkpt lat="43.00401" lon="0.64272">
        <ele>930.826</ele>
        <time>2019-12-10T17:38:34Z</time>
      </trkpt>
      <trkpt lat="43.00478" lon="0.64186">
        <ele>927.182</ele>
        <time>2019-12-10T17:38:54Z</time>
      </trkpt>
      <trkpt lat="43.00567" lon="0.64109">
        <ele>932.343</ele>
        <time>2019-12-10T17:39:14Z</time>
      </trkpt>
      <trkpt lat="43.00608" lon="0.64066">
        <ele>934.965</ele>
        <time>2019-12-10T17:39:34Z</time>
      </trkpt>
      <trkpt lat="43.00701" lon="0.64003">
        <ele>945.828</ele>
        <time>2019-12-10T17:39:54Z</time>
      </trkpt>
      <trkpt lat="43.00735" lon="0.64029">
        <ele>956.23</ele>
        <time>2019-12-10T17:40:14Z</time>
      </trkpt>
      <trkpt lat="43.00783" lon="0.64038">
        <ele>961.183</ele>
        <time>2019-12-10T17:40:34Z</time>
      </trkpt>
      <trkpt lat="43.0081" lon="0.64085">
        <ele>972.425</ele>
        <time>2019-12-10T17:40:54Z</time>
      </trkpt>
      <trkpt lat="43.00909" lon="0.64134">
        <ele>968.317</ele>
        <time>2019-12-10T17:41:14Z</time>
      </trkpt>
      <trkpt lat="43.00939" lon="0.64132">
        <ele>964.708</ele>
        <time>2019-12-10T17:41:34Z</time>
      </trkpt>
      <trkpt lat="43.00948" lon="0.64141">
        <ele>966.814</ele>
        <time>2019-12-10T17:41:54Z</time>
      </trkpt>
      <trkpt lat="43.00987" lon="0.64119">
        <ele>960.913</ele>
        <time>2019-12-10T17:42:14Z</time>
      </trkpt>
      <trkpt lat="43.01034" lon="0.64109">
        <ele>961.269</ele>
        <time>2019-12-10T17:42:34Z</time>
      </trkpt>
      <trkpt lat="43.01071" lon="0.64057">
        <ele>951.995</ele>
        <time>2019-12-10T17:42:54Z</time>
      </trkpt>
      <trkpt lat="43.01175" lon="0.63859">
        <ele>933.026</ele>
        <time>2019-12-10T17:43:14Z</time>
      </trkpt>
      <trkpt lat="43.01196" lon="0.63777">
        <ele>924.958</ele>
        <time>2019-12-10T17:43:34Z</time>
      </trkpt>
      <trkpt lat="43.01223" lon="0.63704">
        <ele>931.441</ele>
        <time>2019-12-10T17:43:54Z</time>
      </trkpt>
      <trkpt lat="43.01264" lon="0.63695">
        <ele>932.523</ele>
        <time>2019-12-10T17:44:14Z</time>
      </trkpt>
      <trkpt lat="43.01301" lon="0.63736">
        <ele>917.521</ele>
        <time>2019-12-10T17:44:34Z</time>
      </trkpt>
      <trkpt lat="43.01323" lon="0.63762">
        <ele>912.541</ele>
        <time>2019-12-10T17:44:54Z</time>
      </trkpt>
      <trkpt lat="43.01369" lon="0.63728">
        <ele>913.005</ele>
        <time>2019-12-10T17:45:14Z</time>
      </trkpt>
      <trkpt lat="43.01392" lon="0.63581">
        <ele>908.208</ele>
        <time>2019-12-10T17:45:34Z</time>
      </trkpt>
      <trkpt lat="43.01411" lon="0.63527">
        <ele>895.448</ele>
        <time>2019-12-10T17:45:54Z</time>
      </trkpt>
      <trkpt lat="43.01461" lon="0.63474">
        <ele>874.517</ele>
        <time>2019-12-10T17:46:14Z</time>
      </trkpt>
      <trkpt lat="43.01474" lon="0.63431">
        <ele>868.393</ele>
        <time>2019-12-10T17:46:34Z</time>
      </trkpt>
      <trkpt lat="43.01511" lon="0.6339">
        <ele>853.619</ele>
        <time>2019-12-10T17:46:54Z</time>
      </trkpt>
      <trkpt lat="43.01536" lon="0.63338">
        <ele>842.27</ele>
        <time>2019-12-10T17:47:14Z</time>
      </trkpt>
      <trkpt lat="43.01588" lon="0.63319">
        <ele>837.832</ele>
        <time>2019-12-10T17:47:34Z</time>
      </trkpt>
      <trkpt lat="43.01619" lon="0.63428">
        <ele>830.175</ele>
        <time>2019-12-10T17:47:54Z</time>
      </trkpt>
      <trkpt lat="43.01646" lon="0.63487">
        <ele>830.167</ele>
        <time>2019-12-10T17:48:14Z</time>
      </trkpt>
      <trkpt lat="43.01659" lon="0.63536">
        <ele>827.662</ele>
        <time>2019-12-10T17:48:34Z</time>
      </trkpt>
      <trkpt lat="43.01683" lon="0.63543">
        <ele>825.683</ele>
        <time>2019-12-10T17:48:54Z</time>
      </trkpt>
      <trkpt lat="43.01773" lon="0.63631">
        <ele>805.011</ele>
        <time>2019-12-10T17:49:14Z</time>
      </trkpt>
      <trkpt lat="43.01791" lon="0.63612">
        <ele>800.608</ele>
        <time>2019-12-10T17:49:34Z</time>
      </trkpt>
      <trkpt lat="43.01784" lon="0.6354">
        <ele>796.262</ele>
        <time>2019-12-10T17:49:54Z</time>
      </trkpt>
      <trkpt lat="43.01825" lon="0.63312">
        <ele>763.861</ele>
        <time>2019-12-10T17:50:14Z</time>
      </trkpt>
      <trkpt lat="43.01828" lon="0.63216">
        <ele>754.877</ele>
        <time>2019-12-10T17:50:34Z</time>
      </trkpt>
      <trkpt lat="43.01866" lon="0.63063">
        <ele>739.283</ele>
        <time>2019-12-10T17:50:54Z</time>
      </trkpt>
      <trkpt lat="43.01884" lon="0.62944">
        <ele>738.364</ele>
        <time>2019-12-10T17:51:14Z</time>
      </trkpt>
      <trkpt lat="43.01926" lon="0.62875">
        <ele>729.466</ele>
        <time>2019-12-10T17:51:34Z</time>
      </trkpt>
      <trkpt lat="43.01945" lon="0.6286">
        <ele>722.919</ele>
        <time>2019-12-10T17:51:54Z</time>
      </trkpt>
      <trkpt lat="43.02011" lon="0.62839">
        <ele>716.341</ele>
        <time>2019-12-10T17:52:14Z</time>
      </trkpt>
      <trkpt lat="43.02064" lon="0.62802">
        <ele>712.872</ele>
        <time>2019-12-10T17:52:34Z</time>
      </trkpt>
      <trkpt lat="43.0209" lon="0.62766">
        <ele>709.113</ele>
        <time>2019-12-10T17:52:54Z</time>
      </trkpt>
      <trkpt lat="43.02137" lon="0.62688">
        <ele>706.014</ele>
        <time>2019-12-10T17:53:14Z</time>
      </trkpt>
      <trkpt lat="43.02176" lon="0.62647">
        <ele>708.008</ele>
        <time>2019-12-10T17:53:34Z</time>
      </trkpt>
      <trkpt lat="43.02169" lon="0.62568">
        <ele>703.983</ele>
        <time>2019-12-10T17:53:54Z</time>
      </trkpt>
      <trkpt lat="43.02193" lon="0.62509">
        <ele>706.682</ele>
        <time>2019-12-10T17:54:14Z</time>
      </trkpt>
      <trkpt lat="43.02208" lon="0.62393">
        <ele>707.098</ele>
        <time>2019-12-10T17:54:34Z</time>
      </trkpt>
      <trkpt lat="43.02205" lon="0.6235">
        <ele>700.944</ele>
        <time>2019-12-10T17:54:54Z</time>
      </trkpt>
      <trkpt lat="43.0225" lon="0.62303">
        <ele>696.545</ele>
        <time>2019-12-10T17:55:14Z</time>
      </trkpt>
      <trkpt lat="43.02309" lon="0.62299">
        <ele>691.097</ele>
        <time>2019-12-10T17:55:34Z</time>
      </trkpt>
      <trkpt lat="43.02339" lon="0.62324">
        <ele>688.61</ele>
        <time>2019-12-10T17:55:54Z</time>
      </trkpt>
      <trkpt lat="43.02417" lon="0.62337">
        <ele>676.652</ele>
        <time>2019-12-10T17:56:14Z</time>
      </trkpt>
      <trkpt lat="43.02471" lon="0.62363">
        <ele>667.633</ele>
        <time>2019-12-10T17:56:34Z</time>
      </trkpt>
      <trkpt lat="43.02523" lon="0.62428">
        <ele>675.423</ele>
        <time>2019-12-10T17:56:54Z</time>
      </trkpt>
      <trkpt lat="43.02602" lon="0.62449">
        <ele>648.415</ele>
        <time>2019-12-10T17:57:14Z</time>
      </trkpt>
      <trkpt lat="43.0269" lon="0.62529">
        <ele>641.208</ele>
        <time>2019-12-10T17:57:34Z</time>
      </trkpt>
      <trkpt lat="43.02811" lon="0.62692">
        <ele>617.569</ele>
        <time>2019-12-10T17:57:54Z</time>
      </trkpt>
      <trkpt lat="43.02908" lon="0.62871">
        <ele>600.648</ele>
        <time>2019-12-10T17:58:14Z</time>
      </trkpt>
      <trkpt lat="43.03035" lon="0.63039">
        <ele>581.534</ele>
        <time>2019-12-10T17:58:34Z</time>
      </trkpt>
      <trkpt lat="43.0309" lon="0.63073">
        <ele>575.75</ele>
        <time>2019-12-10T17:58:54Z</time>
      </trkpt>
      <trkpt lat="43.03165" lon="0.63086">
        <ele>566.671</ele>
        <time>2019-12-10T17:59:14Z</time>
      </trkpt>
      <trkpt lat="43.03207" lon="0.63075">
        <ele>561.053</ele>
        <time>2019-12-10T17:59:34Z</time>
      </trkpt>
      <trkpt lat="43.03243" lon="0.63028">
        <ele>559.636</ele>
        <time>2019-12-10T17:59:54Z</time>
      </trkpt>
      <trkpt lat="43.03289" lon="0.62865">
        <ele>545.478</ele>
        <time>2019-12-10T18:00:14Z</time>
      </trkpt>
      <trkpt lat="43.03323" lon="0.62781">
        <ele>536.016</ele>
        <time>2019-12-10T18:00:34Z</time>
      </trkpt>
      <trkpt lat="43.03256" lon="0.62794">
        <ele>518.776</ele>
        <time>2019-12-10T18:00:54Z</time>
      </trkpt>
      <trkpt lat="43.03237" lon="0.62757">
        <ele>513.113</ele>
        <time>2019-12-10T18:01:14Z</time>
      </trkpt>
      <trkpt lat="43.03159" lon="0.62729">
        <ele>520.408</ele>
        <time>2019-12-10T18:01:34Z</time>
      </trkpt>
      <trkpt lat="43.0309" lon="0.6272">
        <ele>534.637</ele>
        <time>2019-12-10T18:01:54Z</time>
      </trkpt>
      <trkpt lat="43.03069" lon="0.62692">
        <ele>533.996</ele>
        <time>2019-12-10T18:02:14Z</time>
      </trkpt>
      <trkpt lat="43.03056" lon="0.62583">
        <ele>510.072</ele>
        <time>2019-12-10T18:02:34Z</time>
      </trkpt>
      <trkpt lat="43.03028" lon="0.62522">
        <ele>501.058</ele>
        <time>2019-12-10T18:02:54Z</time>
      </trkpt>
      <trkpt lat="43.02978" lon="0.62449">
        <ele>492.119</ele>
        <time>2019-12-10T18:03:14Z</time>
      </trkpt>
      <trkpt lat="43.02978" lon="0.62398">
        <ele>479.461</ele>
        <time>2019-12-10T18:03:34Z</time>
      </trkpt>
      <trkpt lat="43.02936" lon="0.62359">
        <ele>478.834</ele>
        <time>2019-12-10T18:03:54Z</time>
      </trkpt>
      <trkpt lat="43.02896" lon="0.62331">
        <ele>482.426</ele>
        <time>2019-12-10T18:04:14Z</time>
      </trkpt>
      <trkpt lat="43.02814" lon="0.62215">
        <ele>476.673</ele>
        <time>2019-12-10T18:04:34Z</time>
      </trkpt>
      <trkpt lat="43.02706" lon="0.62126">
        <ele>473.985</ele>
        <time>2019-12-10T18:04:54Z</time>
      </trkpt>
      <trkpt lat="43.02676" lon="0.62084">
        <ele>468.213</ele>
        <time>2019-12-10T18:05:14Z</time>
      </trkpt>
      <trkpt lat="43.02608" lon="0.62023">
        <ele>469.908</ele>
        <time>2019-12-10T18:05:34Z</time>
      </trkpt>
      <trkpt lat="43.02602" lon="0.61995">
        <ele>462.353</ele>
        <time>2019-12-10T18:05:54Z</time>
      </trkpt>
      <trkpt lat="43.02641" lon="0.62002">
        <ele>458.312</ele>
        <time>2019-12-10T18:06:14Z</time>
      </trkpt>
      <trkpt lat="43.02646" lon="0.61976">
        <ele>455.688</ele>
        <time>2019-12-10T18:06:34Z</time>
      </trkpt>
      <trkpt lat="43.02684" lon="0.61911">
        <ele>452.654</ele>
        <time>2019-12-10T18:06:54Z</time>
      </trkpt>
      <trkpt lat="43.02679" lon="0.61886">
        <ele>450.645</ele>
        <time>2019-12-10T18:07:14Z</time>
      </trkpt>
      <trkpt lat="43.02688" lon="0.61802">
        <ele>448.657</ele>
        <time>2019-12-10T18:07:34Z</time>
      </trkpt>
      <trkpt lat="43.02707" lon="0.61758">
        <ele>444.78</ele>
        <time>2019-12-10T18:07:54Z</time>
      </trkpt>
      <trkpt lat="43.02743" lon="0.61802">
        <ele>445.422</ele>
        <time>2019-12-10T18:08:14Z</time>
      </trkpt>
      <trkpt lat="43.02901" lon="0.617">
        <ele>444.092</ele>
        <time>2019-12-10T18:08:34Z</time>
      </trkpt>
      <trkpt lat="43.02865" lon="0.61601">
        <ele>443.073</ele>
        <time>2019-12-10T18:08:54Z</time>
      </trkpt>
      <trkpt lat="43.02824" lon="0.61447">
        <ele>442.02</ele>
        <time>2019-12-10T18:09:14Z</time>
      </trkpt>
      <trkpt lat="43.02852" lon="0.61199">
        <ele>440.008</ele>
        <time>2019-12-10T18:09:34Z</time>
      </trkpt>
      <trkpt lat="43.02792" lon="0.60992">
        <ele>440.085</ele>
        <time>2019-12-10T18:09:54Z</time>
      </trkpt>
      <trkpt lat="43.0258" lon="0.60685">
        <ele>441.124</ele>
        <time>2019-12-10T18:10:14Z</time>
      </trkpt>
      <trkpt lat="43.02492" lon="0.60508">
        <ele>440.59</ele>
        <time>2019-12-10T18:10:34Z</time>
      </trkpt>
      <trkpt lat="43.02458" lon="0.60476">
        <ele>441.056</ele>
        <time>2019-12-10T18:10:54Z</time>
      </trkpt>
      <trkpt lat="43.02418" lon="0.60493">
        <ele>441.797</ele>
        <time>2019-12-10T18:11:14Z</time>
      </trkpt>
      <trkpt lat="43.02388" lon="0.60414">
        <ele>441.039</ele>
        <time>2019-12-10T18:11:34Z</time>
      </trkpt>
      <trkpt lat="43.02384" lon="0.60299">
        <ele>442.072</ele>
        <time>2019-12-10T18:11:54Z</time>
      </trkpt>
      <trkpt lat="43.02519" lon="0.5994">
        <ele>440.174</ele>
        <time>2019-12-10T18:12:14Z</time>
      </trkpt>
      <trkpt lat="43.02522" lon="0.59884">
        <ele>440.485</ele>
        <time>2019-12-10T18:12:34Z</time>
      </trkpt>
      <trkpt lat="43.02572" lon="0.59613">
        <ele>454.389</ele>
        <time>2019-12-10T18:12:54Z</time>
      </trkpt>
      <trkpt lat="43.0269" lon="0.59632">
        <ele>455.017</ele>
        <time>2019-12-10T18:13:14Z</time>
      </trkpt>
      <trkpt lat="43.02886" lon="0.59636">
        <ele>452.208</ele>
        <time>2019-12-10T18:13:34Z</time>
      </trkpt>
      <trkpt lat="43.02915" lon="0.59568">
        <ele>450.094</ele>
        <time>2019-12-10T18:13:54Z</time>
      </trkpt>
      <trkpt lat="43.02952" lon="0.59523">
        <ele>453.773</ele>
        <time>2019-12-10T18:14:14Z</time>
      </trkpt>
      <trkpt lat="43.03035" lon="0.59514">
        <ele>454.379</ele>
        <time>2019-12-10T18:14:34Z</time>
      </trkpt>
      <trkpt lat="43.03045" lon="0.59484">
        <ele>456.885</ele>
        <time>2019-12-10T18:14:54Z</time>
      </trkpt>
      <trkpt lat="43.02976" lon="0.5948">
        <ele>459.196</ele>
        <time>2019-12-10T18:15:14Z</time>
      </trkpt>
      <trkpt lat="43.02956" lon="0.59454">
        <ele>460.298</ele>
        <time>2019-12-10T18:15:34Z</time>
      </trkpt>
      <trkpt lat="43.02922" lon="0.59368">
        <ele>464.441</ele>
        <time>2019-12-10T18:15:54Z</time>
      </trkpt>
      <trkpt lat="43.02768" lon="0.59155">
        <ele>460.083</ele>
        <time>2019-12-10T18:16:14Z</time>
      </trkpt>
      <trkpt lat="43.02763" lon="0.59103">
        <ele>460.078</ele>
        <time>2019-12-10T18:16:34Z</time>
      </trkpt>
      <trkpt lat="43.0284" lon="0.58911">
        <ele>460.033</ele>
        <time>2019-12-10T18:16:54Z</time>
      </trkpt>
      <trkpt lat="43.02882" lon="0.5872">
        <ele>459.026</ele>
        <time>2019-12-10T18:17:14Z</time>
      </trkpt>
      <trkpt lat="43.0291" lon="0.58548">
        <ele>459.008</ele>
        <time>2019-12-10T18:17:34Z</time>
      </trkpt>
      <trkpt lat="43.02922" lon="0.58457">
        <ele>458.483</ele>
        <time>2021-02-06T09:01:11Z</time>
      </trkpt>
      <trkpt lat="43.02878" lon="0.58454">
        <ele>459.442</ele>
        <time>2021-02-06T09:01:31Z</time>
      </trkpt>
      <trkpt lat="43.02828" lon="0.58433">
        <ele>460.288</ele>
        <time>2021-02-06T09:01:51Z</time>
      </trkpt>
      <trkpt lat="43.028" lon="0.58361">
        <ele>461.224</ele>
        <time>2021-02-06T09:02:11Z</time>
      </trkpt>
      <trkpt lat="43.02879" lon="0.5823">
        <ele>457.435</ele>
        <time>2021-02-06T09:02:31Z</time>
      </trkpt>
      <trkpt lat="43.02809" lon="0.57891">
        <ele>459.827</ele>
        <time>2019-12-10T18:18:34Z</time>
      </trkpt>
      <trkpt lat="43.02814" lon="0.57836">
        <ele>459.74</ele>
        <time>2019-12-10T18:18:54Z</time>
      </trkpt>
      <trkpt lat="43.02826" lon="0.57769">
        <ele>460.062</ele>
        <time>2019-12-10T18:19:14Z</time>
      </trkpt>
      <trkpt lat="43.02815" lon="0.57756">
        <ele>460.036</ele>
        <time>2019-12-10T18:19:34Z</time>
      </trkpt>
      <trkpt lat="43.02791" lon="0.57739">
        <ele>460.017</ele>
        <time>2019-12-10T18:19:54Z</time>
      </trkpt>
      <trkpt lat="43.02765" lon="0.57704">
        <ele>460.018</ele>
        <time>2019-12-10T18:20:14Z</time>
      </trkpt>
      <trkpt lat="43.02746" lon="0.5768">
        <ele>460.108</ele>
        <time>2019-12-10T18:20:34Z</time>
      </trkpt>
      <trkpt lat="43.02727" lon="0.5763">
        <ele>461.149</ele>
        <time>2019-12-10T18:20:54Z</time>
      </trkpt>
      <trkpt lat="43.02742" lon="0.57617">
        <ele>461.198</ele>
        <time>2019-12-10T18:21:14Z</time>
      </trkpt>
      <trkpt lat="43.02729" lon="0.57568">
        <ele>461.914</ele>
        <time>2019-12-10T18:21:34Z</time>
      </trkpt>
      <trkpt lat="43.02695" lon="0.57521">
        <ele>463.08</ele>
        <time>2019-12-10T18:21:54Z</time>
      </trkpt>
      <trkpt lat="43.02693" lon="0.57469">
        <ele>463.131</ele>
        <time>2019-12-10T18:22:14Z</time>
      </trkpt>
      <trkpt lat="43.02666" lon="0.57476">
        <ele>464.063</ele>
        <time>2019-12-10T18:22:34Z</time>
      </trkpt>
      <trkpt lat="43.02655" lon="0.57416">
        <ele>464.016</ele>
        <time>2019-12-10T18:22:54Z</time>
      </trkpt>
      <trkpt lat="43.02645" lon="0.57415">
        <ele>464.168</ele>
        <time>2019-12-10T18:23:14Z</time>
      </trkpt>
      <trkpt lat="43.02649" lon="0.57392">
        <ele>464.916</ele>
        <time>2019-12-10T18:23:34Z</time>
      </trkpt>
      <trkpt lat="43.0265" lon="0.57375">
        <ele>465.076</ele>
        <time>2019-12-10T18:23:54Z</time>
      </trkpt>
      <trkpt lat="43.02669" lon="0.57367">
        <ele>465.013</ele>
        <time>2019-12-10T18:24:14Z</time>
      </trkpt>
      <trkpt lat="43.02701" lon="0.57369">
        <ele>464.708</ele>
        <time>2019-12-10T18:24:34Z</time>
      </trkpt>
      <trkpt lat="43.02699" lon="0.57344">
        <ele>468.567</ele>
        <time>2019-12-10T18:24:54Z</time>
      </trkpt>
      <trkpt lat="43.0268" lon="0.57334">
        <ele>469.896</ele>
        <time>2019-12-10T18:25:14Z</time>
      </trkpt>
      <trkpt lat="43.02722" lon="0.57313">
        <ele>479.342</ele>
        <time>2019-12-10T18:25:34Z</time>
      </trkpt>
      <trkpt lat="43.02732" lon="0.57284">
        <ele>488.358</ele>
        <time>2019-12-10T18:25:54Z</time>
      </trkpt>
      <trkpt lat="43.02711" lon="0.57306">
        <ele>483.419</ele>
        <time>2019-12-10T18:26:14Z</time>
      </trkpt>
      <trkpt lat="43.02685" lon="0.57308">
        <ele>482.231</ele>
        <time>2019-12-10T18:26:34Z</time>
      </trkpt>
      <trkpt lat="43.02667" lon="0.57297">
        <ele>484.054</ele>
        <time>2019-12-10T18:26:54Z</time>
      </trkpt>
      <trkpt lat="43.02677" lon="0.57273">
        <ele>494.826</ele>
        <time>2019-12-10T18:27:14Z</time>
      </trkpt>
      <trkpt lat="43.02689" lon="0.57219">
        <ele>506.864</ele>
        <time>2019-12-10T18:27:34Z</time>
      </trkpt>
      <trkpt lat="43.02711" lon="0.57164">
        <ele>510.006</ele>
        <time>2019-12-10T18:27:54Z</time>
      </trkpt>
      <trkpt lat="43.02697" lon="0.5715">
        <ele>510.016</ele>
        <time>2019-12-10T18:28:14Z</time>
      </trkpt>
      <trkpt lat="43.0271" lon="0.57107">
        <ele>510.008</ele>
        <time>2019-12-10T18:28:34Z</time>
      </trkpt>
      <trkpt lat="43.02708" lon="0.57085">
        <ele>510.072</ele>
        <time>2019-12-10T18:28:54Z</time>
      </trkpt>
      <trkpt lat="43.02696" lon="0.5706">
        <ele>510.031</ele>
        <time>2019-12-10T18:29:14Z</time>
      </trkpt>
      <trkpt lat="43.02666" lon="0.57039">
        <ele>507.657</ele>
        <time>2019-12-10T18:29:34Z</time>
      </trkpt>
      <trkpt lat="43.02645" lon="0.56958">
        <ele>499.053</ele>
        <time>2019-12-10T18:29:54Z</time>
      </trkpt>
      <trkpt lat="43.02615" lon="0.56946">
        <ele>490.294</ele>
        <time>2019-12-10T18:30:14Z</time>
      </trkpt>
      <trkpt lat="43.02631" lon="0.57011">
        <ele>494.656</ele>
        <time>2019-12-10T18:30:34Z</time>
      </trkpt>
      <trkpt lat="43.02626" lon="0.57013">
        <ele>492.739</ele>
        <time>2019-12-10T18:30:54Z</time>
      </trkpt>
      <trkpt lat="43.02612" lon="0.56983">
        <ele>489.011</ele>
        <time>2019-12-10T18:31:14Z</time>
      </trkpt>
      <trkpt lat="43.02579" lon="0.56947">
        <ele>475.854</ele>
        <time>2019-12-10T18:31:34Z</time>
      </trkpt>
      <trkpt lat="43.02566" lon="0.56905">
        <ele>472.556</ele>
        <time>2019-12-10T18:31:54Z</time>
      </trkpt>
      <trkpt lat="43.02574" lon="0.56876">
        <ele>473.811</ele>
        <time>2019-12-10T18:32:14Z</time>
      </trkpt>
      <trkpt lat="43.02575" lon="0.56854">
        <ele>474.008</ele>
        <time>2019-12-10T18:32:34Z</time>
      </trkpt>
      <trkpt lat="43.02578" lon="0.56814">
        <ele>476.351</ele>
        <time>2019-12-10T18:32:54Z</time>
      </trkpt>
      <trkpt lat="43.0257" lon="0.56793">
        <ele>480.92</ele>
        <time>2019-12-10T18:33:14Z</time>
      </trkpt>
      <trkpt lat="43.02545" lon="0.56768">
        <ele>479.926</ele>
        <time>2019-12-10T18:33:34Z</time>
      </trkpt>
      <trkpt lat="43.02544" lon="0.56746">
        <ele>485.452</ele>
        <time>2019-12-10T18:33:54Z</time>
      </trkpt>
      <trkpt lat="43.0256" lon="0.56715">
        <ele>495.893</ele>
        <time>2019-12-10T18:34:14Z</time>
      </trkpt>
      <trkpt lat="43.02569" lon="0.56667">
        <ele>505.085</ele>
        <time>2019-12-10T18:34:34Z</time>
      </trkpt>
      <trkpt lat="43.02577" lon="0.56665">
        <ele>505.268</ele>
        <time>2019-12-10T18:34:54Z</time>
      </trkpt>
      <trkpt lat="43.02589" lon="0.56732">
        <ele>502.21</ele>
        <time>2019-12-10T18:35:14Z</time>
      </trkpt>
      <trkpt lat="43.02596" lon="0.56733">
        <ele>502.822</ele>
        <time>2019-12-10T18:35:34Z</time>
      </trkpt>
      <trkpt lat="43.02593" lon="0.56686">
        <ele>505.062</ele>
        <time>2019-12-10T18:35:54Z</time>
      </trkpt>
      <trkpt lat="43.026" lon="0.56655">
        <ele>508.208</ele>
        <time>2019-12-10T18:36:14Z</time>
      </trkpt>
      <trkpt lat="43.0261" lon="0.56642">
        <ele>510.608</ele>
        <time>2019-12-10T18:36:34Z</time>
      </trkpt>
      <trkpt lat="43.0263" lon="0.56621">
        <ele>512.318</ele>
        <time>2019-12-10T18:36:54Z</time>
      </trkpt>
      <trkpt lat="43.02643" lon="0.56597">
        <ele>513.317</ele>
        <time>2019-12-10T18:37:14Z</time>
      </trkpt>
      <trkpt lat="43.02645" lon="0.56585">
        <ele>513.793</ele>
        <time>2019-12-10T18:37:34Z</time>
      </trkpt>
      <trkpt lat="43.02643" lon="0.56577">
        <ele>514.359</ele>
        <time>2019-12-10T18:37:54Z</time>
      </trkpt>
      <trkpt lat="43.02666" lon="0.56567">
        <ele>514.24</ele>
        <time>2019-12-10T18:38:14Z</time>
      </trkpt>
      <trkpt lat="43.02713" lon="0.5656">
        <ele>512.932</ele>
        <time>2019-12-10T18:38:34Z</time>
      </trkpt>
      <trkpt lat="43.02734" lon="0.56513">
        <ele>515.825</ele>
        <time>2019-12-10T18:38:54Z</time>
      </trkpt>
      <trkpt lat="43.02749" lon="0.56505">
        <ele>517.897</ele>
        <time>2019-12-10T18:39:14Z</time>
      </trkpt>
      <trkpt lat="43.02829" lon="0.56552">
        <ele>511.552</ele>
        <time>2019-12-10T18:39:34Z</time>
      </trkpt>
      <trkpt lat="43.02934" lon="0.56539">
        <ele>523.453</ele>
        <time>2019-12-10T18:39:54Z</time>
      </trkpt>
      <trkpt lat="43.0297" lon="0.5651">
        <ele>525.008</ele>
        <time>2019-12-10T18:40:14Z</time>
      </trkpt>
      <trkpt lat="43.03013" lon="0.56458">
        <ele>519.508</ele>
        <time>2019-12-10T18:40:34Z</time>
      </trkpt>
      <trkpt lat="43.03054" lon="0.56431">
        <ele>512.781</ele>
        <time>2019-12-10T18:40:54Z</time>
      </trkpt>
      <trkpt lat="43.03103" lon="0.56439">
        <ele>506.03</ele>
        <time>2019-12-10T18:41:14Z</time>
      </trkpt>
      <trkpt lat="43.03125" lon="0.56422">
        <ele>504.116</ele>
        <time>2019-12-10T18:41:34Z</time>
      </trkpt>
      <trkpt lat="43.03191" lon="0.56351">
        <ele>500.012</ele>
        <time>2019-12-10T18:41:54Z</time>
      </trkpt>
      <trkpt lat="43.03154" lon="0.56291">
        <ele>504.493</ele>
        <time>2019-12-10T18:42:14Z</time>
      </trkpt>
      <trkpt lat="43.0322" lon="0.56229">
        <ele>506.965</ele>
        <time>2019-12-10T18:42:34Z</time>
      </trkpt>
      <trkpt lat="43.0327" lon="0.56156">
        <ele>500.568</ele>
        <time>2019-12-10T18:42:54Z</time>
      </trkpt>
      <trkpt lat="43.03307" lon="0.56119">
        <ele>496.01</ele>
        <time>2019-12-10T18:43:14Z</time>
      </trkpt>
      <trkpt lat="43.03373" lon="0.55909">
        <ele>491.722</ele>
        <time>2019-12-10T18:43:34Z</time>
      </trkpt>
      <trkpt lat="43.03352" lon="0.55863">
        <ele>496.262</ele>
        <time>2019-12-10T18:43:54Z</time>
      </trkpt>
      <trkpt lat="43.03347" lon="0.55699">
        <ele>495.608</ele>
        <time>2019-12-10T18:44:14Z</time>
      </trkpt>
      <trkpt lat="43.03337" lon="0.55655">
        <ele>499.508</ele>
        <time>2019-12-10T18:44:34Z</time>
      </trkpt>
      <trkpt lat="43.0333" lon="0.55577">
        <ele>501.868</ele>
        <time>2019-12-10T18:44:54Z</time>
      </trkpt>
      <trkpt lat="43.03337" lon="0.55551">
        <ele>499.947</ele>
        <time>2019-12-10T18:45:14Z</time>
      </trkpt>
      <trkpt lat="43.03322" lon="0.55491">
        <ele>507.463</ele>
        <time>2019-12-10T18:45:34Z</time>
      </trkpt>
      <trkpt lat="43.03297" lon="0.55434">
        <ele>516.049</ele>
        <time>2019-12-10T18:45:54Z</time>
      </trkpt>
      <trkpt lat="43.03279" lon="0.55325">
        <ele>517.87</ele>
        <time>2019-12-10T18:46:14Z</time>
      </trkpt>
      <trkpt lat="43.03264" lon="0.55309">
        <ele>519.042</ele>
        <time>2019-12-10T18:46:34Z</time>
      </trkpt>
      <trkpt lat="43.03246" lon="0.55148">
        <ele>516.025</ele>
        <time>2019-12-10T18:46:54Z</time>
      </trkpt>
      <trkpt lat="43.03292" lon="0.55164">
        <ele>515.927</ele>
        <time>2019-12-10T18:47:14Z</time>
      </trkpt>
      <trkpt lat="43.03378" lon="0.55156">
        <ele>510.038</ele>
        <time>2019-12-10T18:47:34Z</time>
      </trkpt>
      <trkpt lat="43.03429" lon="0.54963">
        <ele>508.47</ele>
        <time>2019-12-10T18:47:54Z</time>
      </trkpt>
      <trkpt lat="43.03428" lon="0.54821">
        <ele>506.817</ele>
        <time>2019-12-10T18:48:14Z</time>
      </trkpt>
      <trkpt lat="43.03438" lon="0.54795">
        <ele>503.308</ele>
        <time>2019-12-10T18:48:34Z</time>
      </trkpt>
      <trkpt lat="43.03462" lon="0.54782">
        <ele>500.849</ele>
        <time>2019-12-10T18:48:54Z</time>
      </trkpt>
      <trkpt lat="43.03448" lon="0.54763">
        <ele>496.088</ele>
        <time>2019-12-10T18:49:14Z</time>
      </trkpt>
      <trkpt lat="43.03472" lon="0.54743">
        <ele>490.524</ele>
        <time>2019-12-10T18:49:34Z</time>
      </trkpt>
      <trkpt lat="43.03465" lon="0.54702">
        <ele>489.75</ele>
        <time>2019-12-10T18:49:54Z</time>
      </trkpt>
      <trkpt lat="43.03481" lon="0.54702">
        <ele>489.911</ele>
        <time>2019-12-10T18:50:14Z</time>
      </trkpt>
      <trkpt lat="43.0362" lon="0.5475">
        <ele>485.493</ele>
        <time>2019-12-10T18:50:34Z</time>
      </trkpt>
      <trkpt lat="43.03752" lon="0.54766">
        <ele>488.486</ele>
        <time>2019-12-10T18:50:54Z</time>
      </trkpt>
      <trkpt lat="43.03813" lon="0.54735">
        <ele>488.358</ele>
        <time>2019-12-10T18:51:14Z</time>
      </trkpt>
      <trkpt lat="43.03915" lon="0.54663">
        <ele>488.174</ele>
        <time>2019-12-10T18:51:34Z</time>
      </trkpt>
      <trkpt lat="43.0398" lon="0.54645">
        <ele>486.556</ele>
        <time>2019-12-10T18:51:54Z</time>
      </trkpt>
      <trkpt lat="43.04068" lon="0.54764">
        <ele>483.521</ele>
        <time>2019-12-10T18:52:14Z</time>
      </trkpt>
      <trkpt lat="43.04198" lon="0.54798">
        <ele>481.108</ele>
        <time>2019-12-10T18:52:34Z</time>
      </trkpt>
      <trkpt lat="43.0427" lon="0.54785">
        <ele>476.983</ele>
        <time>2019-12-10T18:52:54Z</time>
      </trkpt>
      <trkpt lat="43.04318" lon="0.54763">
        <ele>476.262</ele>
        <time>2019-12-10T18:53:14Z</time>
      </trkpt>
      <trkpt lat="43.0435" lon="0.5473">
        <ele>481.268</ele>
        <time>2019-12-10T18:53:34Z</time>
      </trkpt>
      <trkpt lat="43.04477" lon="0.54725">
        <ele>482.234</ele>
        <time>2019-12-10T18:53:54Z</time>
      </trkpt>
      <trkpt lat="43.04564" lon="0.54634">
        <ele>482.865</ele>
        <time>2019-12-10T18:54:14Z</time>
      </trkpt>
      <trkpt lat="43.04571" lon="0.54584">
        <ele>487.597</ele>
        <time>2019-12-10T18:54:34Z</time>
      </trkpt>
      <trkpt lat="43.0461" lon="0.54536">
        <ele>481.97</ele>
        <time>2019-12-10T18:54:54Z</time>
      </trkpt>
      <trkpt lat="43.0466" lon="0.54491">
        <ele>479.872</ele>
        <time>2019-12-10T18:55:14Z</time>
      </trkpt>
      <trkpt lat="43.04705" lon="0.54462">
        <ele>479.441</ele>
        <time>2019-12-10T18:55:34Z</time>
      </trkpt>
      <trkpt lat="43.04746" lon="0.54372">
        <ele>481.881</ele>
        <time>2019-12-10T18:55:54Z</time>
      </trkpt>
      <trkpt lat="43.0479" lon="0.54299">
        <ele>483.809</ele>
        <time>2019-12-10T18:56:14Z</time>
      </trkpt>
      <trkpt lat="43.04762" lon="0.54258">
        <ele>486.308</ele>
        <time>2019-12-10T18:56:34Z</time>
      </trkpt>
      <trkpt lat="43.04767" lon="0.542">
        <ele>487.88</ele>
        <time>2019-12-10T18:56:54Z</time>
      </trkpt>
      <trkpt lat="43.04764" lon="0.54164">
        <ele>489.149</ele>
        <time>2019-12-10T18:57:14Z</time>
      </trkpt>
      <trkpt lat="43.0479" lon="0.54159">
        <ele>488.885</ele>
        <time>2019-12-10T18:57:34Z</time>
      </trkpt>
      <trkpt lat="43.04805" lon="0.5413">
        <ele>490.081</ele>
        <time>2019-12-10T18:57:54Z</time>
      </trkpt>
      <trkpt lat="43.04847" lon="0.54125">
        <ele>488.852</ele>
        <time>2019-12-10T18:58:14Z</time>
      </trkpt>
      <trkpt lat="43.04915" lon="0.54112">
        <ele>488.074</ele>
        <time>2019-12-10T18:58:34Z</time>
      </trkpt>
      <trkpt lat="43.05088" lon="0.54195">
        <ele>483.147</ele>
        <time>2019-12-10T18:58:54Z</time>
      </trkpt>
      <trkpt lat="43.05132" lon="0.54192">
        <ele>486.089</ele>
        <time>2019-12-10T18:59:14Z</time>
      </trkpt>
      <trkpt lat="43.05155" lon="0.54172">
        <ele>491.792</ele>
        <time>2019-12-10T18:59:34Z</time>
      </trkpt>
      <trkpt lat="43.05188" lon="0.5418">
        <ele>494.673</ele>
        <time>2019-12-10T18:59:54Z</time>
      </trkpt>
      <trkpt lat="43.05252" lon="0.54174">
        <ele>501.22</ele>
        <time>2019-12-10T19:00:14Z</time>
      </trkpt>
      <trkpt lat="43.05338" lon="0.54138">
        <ele>515.708</ele>
        <time>2019-12-10T19:00:34Z</time>
      </trkpt>
      <trkpt lat="43.05359" lon="0.54187">
        <ele>519.285</ele>
        <time>2019-12-10T19:00:54Z</time>
      </trkpt>
      <trkpt lat="43.05374" lon="0.54182">
        <ele>523.274</ele>
        <time>2019-12-10T19:01:14Z</time>
      </trkpt>
      <trkpt lat="43.05421" lon="0.54097">
        <ele>530.42</ele>
        <time>2019-12-10T19:01:34Z</time>
      </trkpt>
      <trkpt lat="43.05423" lon="0.54068">
        <ele>532.226</ele>
        <time>2019-12-10T19:01:54Z</time>
      </trkpt>
      <trkpt lat="43.05454" lon="0.54013">
        <ele>538.097</ele>
        <time>2019-12-10T19:02:14Z</time>
      </trkpt>
      <trkpt lat="43.05456" lon="0.53764">
        <ele>560.459</ele>
        <time>2019-12-10T19:02:34Z</time>
      </trkpt>
      <trkpt lat="43.05473" lon="0.53748">
        <ele>558.842</ele>
        <time>2019-12-10T19:02:54Z</time>
      </trkpt>
      <trkpt lat="43.055" lon="0.53679">
        <ele>553.934</ele>
        <time>2019-12-10T19:03:14Z</time>
      </trkpt>
      <trkpt lat="43.05477" lon="0.53632">
        <ele>541.784</ele>
        <time>2019-12-10T19:03:34Z</time>
      </trkpt>
      <trkpt lat="43.05473" lon="0.5359">
        <ele>529.007</ele>
        <time>2019-12-10T19:03:54Z</time>
      </trkpt>
      <trkpt lat="43.05478" lon="0.53543">
        <ele>520.717</ele>
        <time>2019-12-10T19:04:14Z</time>
      </trkpt>
      <trkpt lat="43.05511" lon="0.53488">
        <ele>509.408</ele>
        <time>2019-12-10T19:04:34Z</time>
      </trkpt>
      <trkpt lat="43.05527" lon="0.53387">
        <ele>505.434</ele>
        <time>2019-12-10T19:04:54Z</time>
      </trkpt>
      <trkpt lat="43.05548" lon="0.53307">
        <ele>507.013</ele>
        <time>2019-12-10T19:05:14Z</time>
      </trkpt>
      <trkpt lat="43.05588" lon="0.5327">
        <ele>523.919</ele>
        <time>2021-02-06T09:49:51Z</time>
      </trkpt>
      <trkpt lat="43.05622" lon="0.53174">
        <ele>527.525</ele>
        <time>2021-02-06T09:50:11Z</time>
      </trkpt>
      <trkpt lat="43.05656" lon="0.53093">
        <ele>522.966</ele>
        <time>2021-02-06T09:50:31Z</time>
      </trkpt>
      <trkpt lat="43.05668" lon="0.52931">
        <ele>511.868</ele>
        <time>2019-12-10T19:07:54Z</time>
      </trkpt>
      <trkpt lat="43.05664" lon="0.52808">
        <ele>513.571</ele>
        <time>2019-12-10T19:08:14Z</time>
      </trkpt>
      <trkpt lat="43.05626" lon="0.52601">
        <ele>514.763</ele>
        <time>2019-12-10T19:08:34Z</time>
      </trkpt>
      <trkpt lat="43.05641" lon="0.52431">
        <ele>510.675</ele>
        <time>2019-12-10T19:08:54Z</time>
      </trkpt>
      <trkpt lat="43.05631" lon="0.52265">
        <ele>511.228</ele>
        <time>2019-12-10T19:09:14Z</time>
      </trkpt>
      <trkpt lat="43.05597" lon="0.5219">
        <ele>512.92</ele>
        <time>2019-12-10T19:09:34Z</time>
      </trkpt>
      <trkpt lat="43.05557" lon="0.52128">
        <ele>513.408</ele>
        <time>2019-12-10T19:09:54Z</time>
      </trkpt>
      <trkpt lat="43.05566" lon="0.52084">
        <ele>509.913</ele>
        <time>2019-12-10T19:10:14Z</time>
      </trkpt>
      <trkpt lat="43.05498" lon="0.5204">
        <ele>517.022</ele>
        <time>2019-12-10T19:10:34Z</time>
      </trkpt>
      <trkpt lat="43.05421" lon="0.52006">
        <ele>518.098</ele>
        <time>2019-12-10T19:10:54Z</time>
      </trkpt>
      <trkpt lat="43.05366" lon="0.52001">
        <ele>517.414</ele>
        <time>2019-12-10T19:11:14Z</time>
      </trkpt>
      <trkpt lat="43.05313" lon="0.52027">
        <ele>515.735</ele>
        <time>2019-12-10T19:11:34Z</time>
      </trkpt>
      <trkpt lat="43.05268" lon="0.52039">
        <ele>517.097</ele>
        <time>2019-12-10T19:11:54Z</time>
      </trkpt>
      <trkpt lat="43.05017" lon="0.52153">
        <ele>507.66</ele>
        <time>2019-12-10T19:12:14Z</time>
      </trkpt>
      <trkpt lat="43.04979" lon="0.52188">
        <ele>511.132</ele>
        <time>2019-12-10T19:12:34Z</time>
      </trkpt>
      <trkpt lat="43.04956" lon="0.52187">
        <ele>509.969</ele>
        <time>2019-12-10T19:12:54Z</time>
      </trkpt>
      <trkpt lat="43.04915" lon="0.52159">
        <ele>506.504</ele>
        <time>2019-12-10T19:13:14Z</time>
      </trkpt>
      <trkpt lat="43.0489" lon="0.52156">
        <ele>505.624</ele>
        <time>2019-12-10T19:13:34Z</time>
      </trkpt>
      <trkpt lat="43.04874" lon="0.52172">
        <ele>506.208</ele>
        <time>2019-12-10T19:13:54Z</time>
      </trkpt>
      <trkpt lat="43.04847" lon="0.52289">
        <ele>510.242</ele>
        <time>2019-12-10T19:14:14Z</time>
      </trkpt>
      <trkpt lat="43.04718" lon="0.52379">
        <ele>508.631</ele>
        <time>2019-12-10T19:14:34Z</time>
      </trkpt>
      <trkpt lat="43.04675" lon="0.524">
        <ele>510.797</ele>
        <time>2019-12-10T19:14:54Z</time>
      </trkpt>
      <trkpt lat="43.04644" lon="0.52396">
        <ele>509.693</ele>
        <time>2019-12-10T19:15:14Z</time>
      </trkpt>
      <trkpt lat="43.04607" lon="0.52379">
        <ele>507.164</ele>
        <time>2019-12-10T19:15:34Z</time>
      </trkpt>
      <trkpt lat="43.04408" lon="0.52379">
        <ele>499.666</ele>
        <time>2019-12-10T19:15:54Z</time>
      </trkpt>
      <trkpt lat="43.04439" lon="0.52287">
        <ele>496.869</ele>
        <time>2019-12-10T19:16:14Z</time>
      </trkpt>
      <trkpt lat="43.04472" lon="0.52244">
        <ele>505.921</ele>
        <time>2019-12-10T19:16:34Z</time>
      </trkpt>
      <trkpt lat="43.04525" lon="0.52235">
        <ele>514.063</ele>
        <time>2019-12-10T19:16:54Z</time>
      </trkpt>
      <trkpt lat="43.04559" lon="0.52203">
        <ele>522.944</ele>
        <time>2019-12-10T19:17:14Z</time>
      </trkpt>
      <trkpt lat="43.04596" lon="0.52192">
        <ele>519.418</ele>
        <time>2019-12-10T19:17:34Z</time>
      </trkpt>
      <trkpt lat="43.04619" lon="0.52174">
        <ele>517.208</ele>
        <time>2019-12-10T19:17:54Z</time>
      </trkpt>
      <trkpt lat="43.04648" lon="0.52159">
        <ele>509.992</ele>
        <time>2019-12-10T19:18:14Z</time>
      </trkpt>
      <trkpt lat="43.04711" lon="0.52063">
        <ele>507.121</ele>
        <time>2019-12-10T19:18:34Z</time>
      </trkpt>
      <trkpt lat="43.04754" lon="0.52026">
        <ele>509.677</ele>
        <time>2019-12-10T19:18:54Z</time>
      </trkpt>
      <trkpt lat="43.04809" lon="0.52014">
        <ele>509.463</ele>
        <time>2019-12-10T19:19:14Z</time>
      </trkpt>
      <trkpt lat="43.04848" lon="0.5199">
        <ele>505.964</ele>
        <time>2019-12-10T19:19:34Z</time>
      </trkpt>
      <trkpt lat="43.04874" lon="0.52019">
        <ele>494.476</ele>
        <time>2019-12-10T19:19:54Z</time>
      </trkpt>
      <trkpt lat="43.04906" lon="0.51995">
        <ele>491.019</ele>
        <time>2019-12-10T19:20:14Z</time>
      </trkpt>
      <trkpt lat="43.04947" lon="0.52032">
        <ele>472.691</ele>
        <time>2019-12-10T19:20:34Z</time>
      </trkpt>
      <trkpt lat="43.04998" lon="0.51952">
        <ele>473.788</ele>
        <time>2019-12-10T19:20:54Z</time>
      </trkpt>
      <trkpt lat="43.05027" lon="0.51964">
        <ele>467.424</ele>
        <time>2019-12-10T19:21:14Z</time>
      </trkpt>
      <trkpt lat="43.05045" lon="0.51948">
        <ele>466.626</ele>
        <time>2019-12-10T19:21:34Z</time>
      </trkpt>
      <trkpt lat="43.05064" lon="0.51941">
        <ele>465.808</ele>
        <time>2019-12-10T19:21:54Z</time>
      </trkpt>
      <trkpt lat="43.05092" lon="0.51946">
        <ele>465.034</ele>
        <time>2019-12-10T19:22:14Z</time>
      </trkpt>
      <trkpt lat="43.05112" lon="0.51922">
        <ele>465.193</ele>
        <time>2019-12-10T19:22:34Z</time>
      </trkpt>
      <trkpt lat="43.05119" lon="0.51892">
        <ele>465.449</ele>
        <time>2019-12-10T19:22:54Z</time>
      </trkpt>
      <trkpt lat="43.05101" lon="0.51884">
        <ele>465.165</ele>
        <time>2019-12-10T19:23:14Z</time>
      </trkpt>
      <trkpt lat="43.05095" lon="0.51852">
        <ele>465.896</ele>
        <time>2019-12-10T19:23:34Z</time>
      </trkpt>
      <trkpt lat="43.05111" lon="0.51813">
        <ele>465.188</ele>
        <time>2019-12-10T19:23:54Z</time>
      </trkpt>
      <trkpt lat="43.0512" lon="0.51761">
        <ele>468.051</ele>
        <time>2019-12-10T19:24:14Z</time>
      </trkpt>
      <trkpt lat="43.05219" lon="0.51783">
        <ele>465.063</ele>
        <time>2019-12-10T19:24:34Z</time>
      </trkpt>
      <trkpt lat="43.05256" lon="0.51748">
        <ele>465.211</ele>
        <time>2019-12-10T19:24:54Z</time>
      </trkpt>
      <trkpt lat="43.05247" lon="0.51713">
        <ele>470.721</ele>
        <time>2019-12-10T19:25:14Z</time>
      </trkpt>
      <trkpt lat="43.05285" lon="0.51668">
        <ele>476.303</ele>
        <time>2019-12-10T19:25:34Z</time>
      </trkpt>
      <trkpt lat="43.05314" lon="0.51635">
        <ele>482.008</ele>
        <time>2019-12-10T19:25:54Z</time>
      </trkpt>
      <trkpt lat="43.05367" lon="0.51601">
        <ele>481.477</ele>
        <time>2019-12-10T19:26:14Z</time>
      </trkpt>
      <trkpt lat="43.05358" lon="0.51473">
        <ele>478.836</ele>
        <time>2019-12-10T19:26:34Z</time>
      </trkpt>
      <trkpt lat="43.0539" lon="0.51369">
        <ele>463.262</ele>
        <time>2019-12-10T19:26:54Z</time>
      </trkpt>
      <trkpt lat="43.05422" lon="0.51313">
        <ele>459.978</ele>
        <time>2019-12-10T19:27:14Z</time>
      </trkpt>
      <trkpt lat="43.0548" lon="0.51234">
        <ele>454.799</ele>
        <time>2019-12-10T19:27:34Z</time>
      </trkpt>
      <trkpt lat="43.05505" lon="0.51175">
        <ele>454.031</ele>
        <time>2019-12-10T19:27:54Z</time>
      </trkpt>
      <trkpt lat="43.05569" lon="0.51128">
        <ele>454.914</ele>
        <time>2019-12-10T19:28:14Z</time>
      </trkpt>
      <trkpt lat="43.05609" lon="0.51082">
        <ele>457.916</ele>
        <time>2019-12-10T19:28:34Z</time>
      </trkpt>
      <trkpt lat="43.05635" lon="0.51004">
        <ele>464.457</ele>
        <time>2019-12-10T19:28:54Z</time>
      </trkpt>
      <trkpt lat="43.05686" lon="0.50952">
        <ele>469.1</ele>
        <time>2019-12-10T19:29:14Z</time>
      </trkpt>
      <trkpt lat="43.05762" lon="0.51047">
        <ele>467.12</ele>
        <time>2019-12-10T19:29:34Z</time>
      </trkpt>
      <trkpt lat="43.05819" lon="0.5104">
        <ele>469.608</ele>
        <time>2019-12-10T19:29:54Z</time>
      </trkpt>
      <trkpt lat="43.05834" lon="0.50965">
        <ele>478.921</ele>
        <time>2019-12-10T19:30:14Z</time>
      </trkpt>
      <trkpt lat="43.05875" lon="0.50907">
        <ele>484.14</ele>
        <time>2019-12-10T19:30:34Z</time>
      </trkpt>
      <trkpt lat="43.05908" lon="0.50839">
        <ele>490.246</ele>
        <time>2019-12-10T19:30:54Z</time>
      </trkpt>
      <trkpt lat="43.06039" lon="0.50769">
        <ele>499.762</ele>
        <time>2019-12-10T19:31:14Z</time>
      </trkpt>
      <trkpt lat="43.06169" lon="0.5066">
        <ele>507.033</ele>
        <time>2019-12-10T19:31:34Z</time>
      </trkpt>
      <trkpt lat="43.06209" lon="0.50608">
        <ele>504.775</ele>
        <time>2019-12-10T19:31:54Z</time>
      </trkpt>
      <trkpt lat="43.06212" lon="0.50583">
        <ele>502.758</ele>
        <time>2019-12-10T19:32:14Z</time>
      </trkpt>
      <trkpt lat="43.06191" lon="0.50575">
        <ele>504.06</ele>
        <time>2019-12-10T19:32:34Z</time>
      </trkpt>
      <trkpt lat="43.06152" lon="0.50541">
        <ele>510.032</ele>
        <time>2019-12-10T19:32:54Z</time>
      </trkpt>
      <trkpt lat="43.06143" lon="0.50455">
        <ele>516.892</ele>
        <time>2019-12-10T19:33:14Z</time>
      </trkpt>
      <trkpt lat="43.06051" lon="0.5039">
        <ele>524.911</ele>
        <time>2019-12-10T19:33:34Z</time>
      </trkpt>
      <trkpt lat="43.06024" lon="0.50346">
        <ele>525.008</ele>
        <time>2019-12-10T19:33:54Z</time>
      </trkpt>
      <trkpt lat="43.05935" lon="0.50268">
        <ele>528.079</ele>
        <time>2019-12-10T19:34:14Z</time>
      </trkpt>
      <trkpt lat="43.05788" lon="0.50061">
        <ele>540.038</ele>
        <time>2019-12-10T19:34:34Z</time>
      </trkpt>
      <trkpt lat="43.05754" lon="0.49991">
        <ele>544.554</ele>
        <time>2019-12-10T19:34:54Z</time>
      </trkpt>
      <trkpt lat="43.05746" lon="0.49939">
        <ele>544.84</ele>
        <time>2019-12-10T19:35:14Z</time>
      </trkpt>
      <trkpt lat="43.05669" lon="0.49783">
        <ele>542.771</ele>
        <time>2019-12-10T19:35:34Z</time>
      </trkpt>
      <trkpt lat="43.05635" lon="0.49729">
        <ele>548.313</ele>
        <time>2019-12-10T19:35:54Z</time>
      </trkpt>
      <trkpt lat="43.0559" lon="0.49616">
        <ele>556.436</ele>
        <time>2019-12-10T19:36:14Z</time>
      </trkpt>
      <trkpt lat="43.05549" lon="0.49564">
        <ele>558.738</ele>
        <time>2019-12-10T19:36:34Z</time>
      </trkpt>
      <trkpt lat="43.05384" lon="0.4938">
        <ele>571.472</ele>
        <time>2021-02-06T10:19:51Z</time>
      </trkpt>
      <trkpt lat="43.05307" lon="0.49386">
        <ele>576.313</ele>
        <time>2021-02-06T10:20:11Z</time>
      </trkpt>
      <trkpt lat="43.05267" lon="0.49264">
        <ele>583.914</ele>
        <time>2021-02-06T10:20:31Z</time>
      </trkpt>
      <trkpt lat="43.05208" lon="0.49134">
        <ele>574.508</ele>
        <time>2019-12-10T19:38:54Z</time>
      </trkpt>
      <trkpt lat="43.05005" lon="0.48778">
        <ele>575.893</ele>
        <time>2019-12-10T19:39:14Z</time>
      </trkpt>
      <trkpt lat="43.05067" lon="0.48733">
        <ele>567.812</ele>
        <time>2019-12-10T19:39:34Z</time>
      </trkpt>
      <trkpt lat="43.05144" lon="0.48744">
        <ele>557.388</ele>
        <time>2019-12-10T19:39:54Z</time>
      </trkpt>
      <trkpt lat="43.05196" lon="0.4878">
        <ele>548.014</ele>
        <time>2019-12-10T19:40:14Z</time>
      </trkpt>
      <trkpt lat="43.05257" lon="0.48811">
        <ele>540.095</ele>
        <time>2019-12-10T19:40:34Z</time>
      </trkpt>
      <trkpt lat="43.05306" lon="0.48866">
        <ele>535.587</ele>
        <time>2019-12-10T19:40:54Z</time>
      </trkpt>
      <trkpt lat="43.05322" lon="0.48868">
        <ele>534.96</ele>
        <time>2019-12-10T19:41:14Z</time>
      </trkpt>
      <trkpt lat="43.05371" lon="0.4878">
        <ele>520.212</ele>
        <time>2019-12-10T19:41:34Z</time>
      </trkpt>
      <trkpt lat="43.05467" lon="0.48708">
        <ele>502.294</ele>
        <time>2019-12-10T19:41:54Z</time>
      </trkpt>
      <trkpt lat="43.05517" lon="0.48677">
        <ele>495.157</ele>
        <time>2019-12-10T19:42:14Z</time>
      </trkpt>
      <trkpt lat="43.05573" lon="0.48609">
        <ele>486.922</ele>
        <time>2019-12-10T19:42:34Z</time>
      </trkpt>
      <trkpt lat="43.05603" lon="0.48537">
        <ele>482.608</ele>
        <time>2019-12-10T19:42:54Z</time>
      </trkpt>
      <trkpt lat="43.05636" lon="0.48531">
        <ele>478.695</ele>
        <time>2019-12-10T19:43:14Z</time>
      </trkpt>
      <trkpt lat="43.05669" lon="0.4851">
        <ele>475.384</ele>
        <time>2019-12-10T19:43:34Z</time>
      </trkpt>
      <trkpt lat="43.0573" lon="0.4845">
        <ele>474.08</ele>
        <time>2019-12-10T19:43:54Z</time>
      </trkpt>
      <trkpt lat="43.05921" lon="0.48455">
        <ele>486.396</ele>
        <time>2019-12-10T19:44:14Z</time>
      </trkpt>
      <trkpt lat="43.05982" lon="0.48443">
        <ele>488.347</ele>
        <time>2019-12-10T19:44:34Z</time>
      </trkpt>
      <trkpt lat="43.06041" lon="0.4837">
        <ele>492.399</ele>
        <time>2019-12-10T19:44:54Z</time>
      </trkpt>
      <trkpt lat="43.0607" lon="0.4829">
        <ele>491.162</ele>
        <time>2019-12-10T19:45:14Z</time>
      </trkpt>
      <trkpt lat="43.06083" lon="0.48186">
        <ele>492.624</ele>
        <time>2019-12-10T19:45:34Z</time>
      </trkpt>
      <trkpt lat="43.06101" lon="0.48106">
        <ele>488.771</ele>
        <time>2019-12-10T19:45:54Z</time>
      </trkpt>
      <trkpt lat="43.06101" lon="0.48056">
        <ele>485.941</ele>
        <time>2019-12-10T19:46:14Z</time>
      </trkpt>
      <trkpt lat="43.06081" lon="0.47994">
        <ele>485.715</ele>
        <time>2019-12-10T19:46:34Z</time>
      </trkpt>
      <trkpt lat="43.06197" lon="0.47946">
        <ele>501.108</ele>
        <time>2019-12-10T19:46:54Z</time>
      </trkpt>
      <trkpt lat="43.06212" lon="0.47876">
        <ele>503.863</ele>
        <time>2019-12-10T19:47:14Z</time>
      </trkpt>
      <trkpt lat="43.06234" lon="0.4783">
        <ele>506.862</ele>
        <time>2019-12-10T19:47:34Z</time>
      </trkpt>
      <trkpt lat="43.06268" lon="0.47794">
        <ele>510.048</ele>
        <time>2019-12-10T19:47:54Z</time>
      </trkpt>
      <trkpt lat="43.06339" lon="0.47802">
        <ele>508.924</ele>
        <time>2019-12-10T19:48:14Z</time>
      </trkpt>
      <trkpt lat="43.06343" lon="0.47748">
        <ele>510.735</ele>
        <time>2019-12-10T19:48:34Z</time>
      </trkpt>
      <trkpt lat="43.0634" lon="0.47669">
        <ele>512.447</ele>
        <time>2019-12-10T19:48:54Z</time>
      </trkpt>
      <trkpt lat="43.06354" lon="0.47536">
        <ele>514.06</ele>
        <time>2019-12-10T19:49:14Z</time>
      </trkpt>
      <trkpt lat="43.06387" lon="0.47436">
        <ele>513.292</ele>
        <time>2019-12-10T19:49:34Z</time>
      </trkpt>
      <trkpt lat="43.06429" lon="0.47202">
        <ele>511.156</ele>
        <time>2019-12-10T19:49:54Z</time>
      </trkpt>
      <trkpt lat="43.06449" lon="0.47053">
        <ele>503.159</ele>
        <time>2019-12-10T19:50:14Z</time>
      </trkpt>
      <trkpt lat="43.06404" lon="0.46517">
        <ele>495.914</ele>
        <time>2019-12-10T19:50:34Z</time>
      </trkpt>
      <trkpt lat="43.0635" lon="0.46436">
        <ele>492.808</ele>
        <time>2019-12-10T19:50:54Z</time>
      </trkpt>
      <trkpt lat="43.06376" lon="0.46397">
        <ele>492.221</ele>
        <time>2019-12-10T19:51:14Z</time>
      </trkpt>
      <trkpt lat="43.06407" lon="0.46304">
        <ele>497.32</ele>
        <time>2019-12-10T19:51:34Z</time>
      </trkpt>
      <trkpt lat="43.06402" lon="0.46263">
        <ele>497.546</ele>
        <time>2019-12-10T19:51:54Z</time>
      </trkpt>
      <trkpt lat="43.064" lon="0.4613">
        <ele>496.262</ele>
        <time>2019-12-10T19:52:14Z</time>
      </trkpt>
      <trkpt lat="43.06414" lon="0.45992">
        <ele>498.723</ele>
        <time>2019-12-10T19:52:34Z</time>
      </trkpt>
      <trkpt lat="43.06335" lon="0.45982">
        <ele>510.845</ele>
        <time>2019-12-10T19:52:54Z</time>
      </trkpt>
      <trkpt lat="43.06272" lon="0.45988">
        <ele>518.128</ele>
        <time>2019-12-10T19:53:14Z</time>
      </trkpt>
      <trkpt lat="43.0626" lon="0.4593">
        <ele>517.45</ele>
        <time>2019-12-10T19:53:34Z</time>
      </trkpt>
      <trkpt lat="43.06251" lon="0.45881">
        <ele>515.384</ele>
        <time>2019-12-10T19:53:54Z</time>
      </trkpt>
      <trkpt lat="43.06226" lon="0.45846">
        <ele>516.007</ele>
        <time>2019-12-10T19:54:14Z</time>
      </trkpt>
      <trkpt lat="43.06221" lon="0.45803">
        <ele>517.717</ele>
        <time>2019-12-10T19:54:34Z</time>
      </trkpt>
      <trkpt lat="43.06271" lon="0.45683">
        <ele>527.508</ele>
        <time>2019-12-10T19:54:54Z</time>
      </trkpt>
      <trkpt lat="43.06256" lon="0.4556">
        <ele>537.694</ele>
        <time>2019-12-10T19:55:14Z</time>
      </trkpt>
      <trkpt lat="43.0623" lon="0.45499">
        <ele>540.643</ele>
        <time>2019-12-10T19:55:34Z</time>
      </trkpt>
      <trkpt lat="43.06194" lon="0.45446">
        <ele>544.229</ele>
        <time>2019-12-10T19:55:54Z</time>
      </trkpt>
      <trkpt lat="43.06174" lon="0.45424">
        <ele>547.665</ele>
        <time>2019-12-10T19:56:14Z</time>
      </trkpt>
      <trkpt lat="43.06171" lon="0.45385">
        <ele>543.686</ele>
        <time>2019-12-10T19:56:34Z</time>
      </trkpt>
      <trkpt lat="43.06138" lon="0.45282">
        <ele>536.538</ele>
        <time>2019-12-10T19:56:54Z</time>
      </trkpt>
      <trkpt lat="43.061" lon="0.45233">
        <ele>534.081</ele>
        <time>2019-12-10T19:57:14Z</time>
      </trkpt>
      <trkpt lat="43.0603" lon="0.45168">
        <ele>524.353</ele>
        <time>2019-12-10T19:57:34Z</time>
      </trkpt>
      <trkpt lat="43.0592" lon="0.45216">
        <ele>529.256</ele>
        <time>2019-12-10T19:57:54Z</time>
      </trkpt>
      <trkpt lat="43.05767" lon="0.45375">
        <ele>547.859</ele>
        <time>2019-12-10T19:58:14Z</time>
      </trkpt>
      <trkpt lat="43.0571" lon="0.45422">
        <ele>556.714</ele>
        <time>2019-12-10T19:58:34Z</time>
      </trkpt>
      <trkpt lat="43.05658" lon="0.45444">
        <ele>559.008</ele>
        <time>2019-12-10T19:58:54Z</time>
      </trkpt>
      <trkpt lat="43.05544" lon="0.45551">
        <ele>564.721</ele>
        <time>2019-12-10T19:59:14Z</time>
      </trkpt>
      <trkpt lat="43.05452" lon="0.45532">
        <ele>575.08</ele>
        <time>2019-12-10T19:59:34Z</time>
      </trkpt>
      <trkpt lat="43.05407" lon="0.4547">
        <ele>576.896</ele>
        <time>2019-12-10T19:59:54Z</time>
      </trkpt>
      <trkpt lat="43.05386" lon="0.45342">
        <ele>584.482</ele>
        <time>2019-12-10T20:00:14Z</time>
      </trkpt>
      <trkpt lat="43.0537" lon="0.45278">
        <ele>581.893</ele>
        <time>2019-12-10T20:00:34Z</time>
      </trkpt>
      <trkpt lat="43.05352" lon="0.4525">
        <ele>582.375</ele>
        <time>2019-12-10T20:00:54Z</time>
      </trkpt>
      <trkpt lat="43.05307" lon="0.45201">
        <ele>588.448</ele>
        <time>2019-12-10T20:01:14Z</time>
      </trkpt>
      <trkpt lat="43.05282" lon="0.45222">
        <ele>593.99</ele>
        <time>2019-12-10T20:01:34Z</time>
      </trkpt>
      <trkpt lat="43.05258" lon="0.45284">
        <ele>589.587</ele>
        <time>2019-12-10T20:01:54Z</time>
      </trkpt>
      <trkpt lat="43.05222" lon="0.45321">
        <ele>588.142</ele>
        <time>2019-12-10T20:02:14Z</time>
      </trkpt>
      <trkpt lat="43.05281" lon="0.4516">
        <ele>602.426</ele>
        <time>2019-12-10T20:02:34Z</time>
      </trkpt>
      <trkpt lat="43.05344" lon="0.44985">
        <ele>612.908</ele>
        <time>2019-12-10T20:02:54Z</time>
      </trkpt>
      <trkpt lat="43.05366" lon="0.44959">
        <ele>608.734</ele>
        <time>2019-12-10T20:03:14Z</time>
      </trkpt>
      <trkpt lat="43.05382" lon="0.44931">
        <ele>604.943</ele>
        <time>2019-12-10T20:03:34Z</time>
      </trkpt>
      <trkpt lat="43.05598" lon="0.44847">
        <ele>586.079</ele>
        <time>2019-12-10T20:03:54Z</time>
      </trkpt>
      <trkpt lat="43.0555" lon="0.44755">
        <ele>575.335</ele>
        <time>2019-12-10T20:04:14Z</time>
      </trkpt>
      <trkpt lat="43.05366" lon="0.44576">
        <ele>545.236</ele>
        <time>2019-12-10T20:04:34Z</time>
      </trkpt>
      <trkpt lat="43.05351" lon="0.44531">
        <ele>540.088</ele>
        <time>2019-12-10T20:04:54Z</time>
      </trkpt>
      <trkpt lat="43.05378" lon="0.44365">
        <ele>539.991</ele>
        <time>2019-12-10T20:05:14Z</time>
      </trkpt>
      <trkpt lat="43.05377" lon="0.44314">
        <ele>549.733</ele>
        <time>2019-12-10T20:05:34Z</time>
      </trkpt>
      <trkpt lat="43.05412" lon="0.44245">
        <ele>557.745</ele>
        <time>2019-12-10T20:05:54Z</time>
      </trkpt>
      <trkpt lat="43.05401" lon="0.44066">
        <ele>564.247</ele>
        <time>2019-12-10T20:06:14Z</time>
      </trkpt>
      <trkpt lat="43.05379" lon="0.43982">
        <ele>562.111</ele>
        <time>2019-12-10T20:06:34Z</time>
      </trkpt>
      <trkpt lat="43.05329" lon="0.43894">
        <ele>555.808</ele>
        <time>2019-12-10T20:06:54Z</time>
      </trkpt>
      <trkpt lat="43.05263" lon="0.43825">
        <ele>546.92</ele>
        <time>2019-12-10T20:07:14Z</time>
      </trkpt>
      <trkpt lat="43.05262" lon="0.43787">
        <ele>546.459</ele>
        <time>2019-12-10T20:07:34Z</time>
      </trkpt>
      <trkpt lat="43.05213" lon="0.43724">
        <ele>536.435</ele>
        <time>2019-12-10T20:07:54Z</time>
      </trkpt>
      <trkpt lat="43.05199" lon="0.43673">
        <ele>534.221</ele>
        <time>2019-12-10T20:08:14Z</time>
      </trkpt>
      <trkpt lat="43.05165" lon="0.43621">
        <ele>536.772</ele>
        <time>2019-12-10T20:08:34Z</time>
      </trkpt>
      <trkpt lat="43.05146" lon="0.43632">
        <ele>540.374</ele>
        <time>2019-12-10T20:08:54Z</time>
      </trkpt>
      <trkpt lat="43.05109" lon="0.43634">
        <ele>549.987</ele>
        <time>2019-12-10T20:09:14Z</time>
      </trkpt>
      <trkpt lat="43.0505" lon="0.43666">
        <ele>553.579</ele>
        <time>2019-12-10T20:09:34Z</time>
      </trkpt>
      <trkpt lat="43.05053" lon="0.43619">
        <ele>559.498</ele>
        <time>2019-12-10T20:09:54Z</time>
      </trkpt>
      <trkpt lat="43.05" lon="0.43612">
        <ele>558.015</ele>
        <time>2019-12-10T20:10:14Z</time>
      </trkpt>
      <trkpt lat="43.04958" lon="0.4356">
        <ele>550.026</ele>
        <time>2019-12-10T20:10:34Z</time>
      </trkpt>
      <trkpt lat="43.04855" lon="0.43354">
        <ele>525.508</ele>
        <time>2019-12-10T20:10:54Z</time>
      </trkpt>
      <trkpt lat="43.04818" lon="0.43266">
        <ele>513.655</ele>
        <time>2019-12-10T20:11:14Z</time>
      </trkpt>
      <trkpt lat="43.0476" lon="0.43203">
        <ele>510.924</ele>
        <time>2019-12-10T20:11:34Z</time>
      </trkpt>
      <trkpt lat="43.04702" lon="0.43119">
        <ele>518.44</ele>
        <time>2019-12-10T20:11:54Z</time>
      </trkpt>
      <trkpt lat="43.04679" lon="0.43051">
        <ele>522.116</ele>
        <time>2019-12-10T20:12:14Z</time>
      </trkpt>
      <trkpt lat="43.04683" lon="0.42939">
        <ele>527.027</ele>
        <time>2019-12-10T20:12:34Z</time>
      </trkpt>
      <trkpt lat="43.04605" lon="0.42816">
        <ele>532.589</ele>
        <time>2019-12-10T20:12:54Z</time>
      </trkpt>
      <trkpt lat="43.04689" lon="0.42799">
        <ele>524.732</ele>
        <time>2019-12-10T20:13:14Z</time>
      </trkpt>
      <trkpt lat="43.04694" lon="0.4273">
        <ele>517.124</ele>
        <time>2019-12-10T20:13:34Z</time>
      </trkpt>
      <trkpt lat="43.04728" lon="0.42687">
        <ele>515.086</ele>
        <time>2019-12-10T20:13:54Z</time>
      </trkpt>
      <trkpt lat="43.0473" lon="0.42538">
        <ele>520.26</ele>
        <time>2019-12-10T20:14:14Z</time>
      </trkpt>
      <trkpt lat="43.04896" lon="0.42343">
        <ele>529.526</ele>
        <time>2019-12-10T20:14:34Z</time>
      </trkpt>
      <trkpt lat="43.05064" lon="0.42172">
        <ele>532.308</ele>
        <time>2019-12-10T20:14:54Z</time>
      </trkpt>
      <trkpt lat="43.0516" lon="0.41979">
        <ele>537.854</ele>
        <time>2019-12-10T20:15:14Z</time>
      </trkpt>
      <trkpt lat="43.05184" lon="0.41744">
        <ele>550.043</ele>
        <time>2019-12-10T20:15:34Z</time>
      </trkpt>
      <trkpt lat="43.05229" lon="0.41574">
        <ele>553.269</ele>
        <time>2019-12-10T20:15:54Z</time>
      </trkpt>
      <trkpt lat="43.05265" lon="0.4137">
        <ele>558.855</ele>
        <time>2019-12-10T20:16:14Z</time>
      </trkpt>
      <trkpt lat="43.05295" lon="0.41316">
        <ele>557.696</ele>
        <time>2019-12-10T20:16:34Z</time>
      </trkpt>
      <trkpt lat="43.05301" lon="0.41215">
        <ele>557.888</ele>
        <time>2021-02-06T10:58:51Z</time>
      </trkpt>
      <trkpt lat="43.05313" lon="0.41085">
        <ele>566.431</ele>
        <time>2021-02-06T10:59:11Z</time>
      </trkpt>
      <trkpt lat="43.05282" lon="0.41028">
        <ele>568.323</ele>
        <time>2021-02-06T10:59:31Z</time>
      </trkpt>
      <trkpt lat="43.05261" lon="0.40975">
        <ele>569.044</ele>
        <time>2021-02-06T10:59:51Z</time>
      </trkpt>
      <trkpt lat="43.05237" lon="0.40938">
        <ele>567.505</ele>
        <time>2021-02-06T11:00:11Z</time>
      </trkpt>
      <trkpt lat="43.05203" lon="0.4093">
        <ele>564.415</ele>
        <time>2021-02-06T11:00:31Z</time>
      </trkpt>
      <trkpt lat="43.05159" lon="0.40926">
        <ele>560.908</ele>
        <time>2021-02-06T11:00:51Z</time>
      </trkpt>
      <trkpt lat="43.05127" lon="0.40897">
        <ele>560.28</ele>
        <time>2021-02-06T11:01:11Z</time>
      </trkpt>
      <trkpt lat="43.05066" lon="0.40803">
        <ele>556.889</ele>
        <time>2021-02-06T11:01:31Z</time>
      </trkpt>
      <trkpt lat="43.05039" lon="0.40776">
        <ele>553.015</ele>
        <time>2021-02-06T11:01:51Z</time>
      </trkpt>
      <trkpt lat="43.05023" lon="0.40742">
        <ele>548.661</ele>
        <time>2021-02-06T11:02:11Z</time>
      </trkpt>
      <trkpt lat="43.04992" lon="0.40713">
        <ele>544.462</ele>
        <time>2021-02-06T11:02:31Z</time>
      </trkpt>
      <trkpt lat="43.04931" lon="0.40694">
        <ele>540.964</ele>
        <time>2021-02-06T11:02:51Z</time>
      </trkpt>
      <trkpt lat="43.04828" lon="0.40628">
        <ele>538.997</ele>
        <time>2021-02-06T11:03:11Z</time>
      </trkpt>
      <trkpt lat="43.04666" lon="0.40466">
        <ele>554.399</ele>
        <time>2021-02-06T11:03:31Z</time>
      </trkpt>
      <trkpt lat="43.04691" lon="0.40472">
        <ele>552.263</ele>
        <time>2021-02-06T11:03:51Z</time>
      </trkpt>
      <trkpt lat="43.0471" lon="0.40439">
        <ele>551.344</ele>
        <time>2021-02-06T11:04:11Z</time>
      </trkpt>
      <trkpt lat="43.04707" lon="0.40425">
        <ele>551.918</ele>
        <time>2021-02-06T11:04:31Z</time>
      </trkpt>
      <trkpt lat="43.04675" lon="0.40391">
        <ele>555.108</ele>
        <time>2021-02-06T11:04:51Z</time>
      </trkpt>
      <trkpt lat="43.04648" lon="0.40276">
        <ele>560.782</ele>
        <time>2021-02-06T11:05:11Z</time>
      </trkpt>
      <trkpt lat="43.04599" lon="0.40224">
        <ele>560.731</ele>
        <time>2021-02-06T11:05:31Z</time>
      </trkpt>
      <trkpt lat="43.04566" lon="0.40224">
        <ele>559.527</ele>
        <time>2021-02-06T11:05:51Z</time>
      </trkpt>
      <trkpt lat="43.04546" lon="0.40197">
        <ele>560.993</ele>
        <time>2021-02-06T11:06:11Z</time>
      </trkpt>
      <trkpt lat="43.04524" lon="0.40227">
        <ele>559.254</ele>
        <time>2021-02-06T11:06:31Z</time>
      </trkpt>
      <trkpt lat="43.04501" lon="0.40193">
        <ele>560.776</ele>
        <time>2021-02-06T11:06:51Z</time>
      </trkpt>
      <trkpt lat="43.04495" lon="0.4017">
        <ele>561.579</ele>
        <time>2021-02-06T11:07:11Z</time>
      </trkpt>
      <trkpt lat="43.04425" lon="0.40121">
        <ele>557.651</ele>
        <time>2021-02-06T11:07:31Z</time>
      </trkpt>
      <trkpt lat="43.04401" lon="0.40093">
        <ele>556.343</ele>
        <time>2021-02-06T11:07:51Z</time>
      </trkpt>
      <trkpt lat="43.04352" lon="0.40066">
        <ele>552.464</ele>
        <time>2021-02-06T11:08:11Z</time>
      </trkpt>
      <trkpt lat="43.04351" lon="0.40008">
        <ele>554.51</ele>
        <time>2021-02-06T11:08:31Z</time>
      </trkpt>
      <trkpt lat="43.04332" lon="0.39949">
        <ele>557.108</ele>
        <time>2021-02-06T11:08:51Z</time>
      </trkpt>
      <trkpt lat="43.04293" lon="0.39889">
        <ele>561.14</ele>
        <time>2021-02-06T11:09:11Z</time>
      </trkpt>
      <trkpt lat="43.04239" lon="0.39849">
        <ele>564.939</ele>
        <time>2021-02-06T11:09:31Z</time>
      </trkpt>
      <trkpt lat="43.04203" lon="0.39807">
        <ele>567.935</ele>
        <time>2021-02-06T11:09:51Z</time>
      </trkpt>
      <trkpt lat="43.04127" lon="0.39799">
        <ele>572.931</ele>
        <time>2021-02-06T11:10:11Z</time>
      </trkpt>
      <trkpt lat="43.04107" lon="0.39786">
        <ele>575.052</ele>
        <time>2021-02-06T11:10:31Z</time>
      </trkpt>
      <trkpt lat="43.04071" lon="0.39738">
        <ele>580.024</ele>
        <time>2021-02-06T11:10:51Z</time>
      </trkpt>
      <trkpt lat="43.04001" lon="0.39627">
        <ele>592.067</ele>
        <time>2021-02-06T11:11:11Z</time>
      </trkpt>
      <trkpt lat="43.0396" lon="0.39573">
        <ele>597.089</ele>
        <time>2021-02-06T11:11:31Z</time>
      </trkpt>
      <trkpt lat="43.03937" lon="0.39521">
        <ele>600.239</ele>
        <time>2021-02-06T11:11:51Z</time>
      </trkpt>
      <trkpt lat="43.03931" lon="0.39468">
        <ele>604.001</ele>
        <time>2021-02-06T11:12:11Z</time>
      </trkpt>
      <trkpt lat="43.03938" lon="0.39437">
        <ele>606.221</ele>
        <time>2021-02-06T11:12:31Z</time>
      </trkpt>
      <trkpt lat="43.03964" lon="0.39414">
        <ele>607.208</ele>
        <time>2021-02-06T11:12:51Z</time>
      </trkpt>
      <trkpt lat="43.0397" lon="0.39386">
        <ele>609.759</ele>
        <time>2021-02-06T11:13:11Z</time>
      </trkpt>
      <trkpt lat="43.03939" lon="0.3929">
        <ele>621.318</ele>
        <time>2021-02-06T11:13:31Z</time>
      </trkpt>
      <trkpt lat="43.03935" lon="0.39238">
        <ele>625.584</ele>
        <time>2021-02-06T11:13:51Z</time>
      </trkpt>
      <trkpt lat="43.03936" lon="0.39179">
        <ele>630.04</ele>
        <time>2021-02-06T11:14:11Z</time>
      </trkpt>
      <trkpt lat="43.03931" lon="0.39074">
        <ele>640.621</ele>
        <time>2021-02-06T11:14:31Z</time>
      </trkpt>
      <trkpt lat="43.03915" lon="0.39037">
        <ele>646.153</ele>
        <time>2021-02-06T11:14:51Z</time>
      </trkpt>
      <trkpt lat="43.03895" lon="0.39013">
        <ele>649.856</ele>
        <time>2021-02-06T11:15:11Z</time>
      </trkpt>
      <trkpt lat="43.0388" lon="0.39011">
        <ele>650.748</ele>
        <time>2021-02-06T11:15:31Z</time>
      </trkpt>
      <trkpt lat="43.03863" lon="0.3902">
        <ele>651.212</ele>
        <time>2021-02-06T11:15:51Z</time>
      </trkpt>
      <trkpt lat="43.03848" lon="0.39013">
        <ele>652.232</ele>
        <time>2021-02-06T11:16:11Z</time>
      </trkpt>
      <trkpt lat="43.03851" lon="0.38956">
        <ele>654.005</ele>
        <time>2021-02-06T11:16:31Z</time>
      </trkpt>
      <trkpt lat="43.03843" lon="0.3893">
        <ele>654.508</ele>
        <time>2021-02-06T11:16:51Z</time>
      </trkpt>
      <trkpt lat="43.03806" lon="0.38838">
        <ele>647.467</ele>
        <time>2021-02-06T11:17:11Z</time>
      </trkpt>
      <trkpt lat="43.03719" lon="0.38706">
        <ele>634.236</ele>
        <time>2021-02-06T11:17:31Z</time>
      </trkpt>
      <trkpt lat="43.03708" lon="0.38656">
        <ele>629.952</ele>
        <time>2021-02-06T11:17:51Z</time>
      </trkpt>
      <trkpt lat="43.03701" lon="0.38585">
        <ele>622.948</ele>
        <time>2021-02-06T11:18:11Z</time>
      </trkpt>
      <trkpt lat="43.03671" lon="0.38445">
        <ele>612.029</ele>
        <time>2021-02-06T11:18:31Z</time>
      </trkpt>
      <trkpt lat="43.03628" lon="0.38373">
        <ele>611.311</ele>
        <time>2021-02-06T11:18:51Z</time>
      </trkpt>
      <trkpt lat="43.03641" lon="0.38322">
        <ele>607.384</ele>
        <time>2021-02-06T11:19:11Z</time>
      </trkpt>
      <trkpt lat="43.03624" lon="0.38261">
        <ele>601.776</ele>
        <time>2021-02-06T11:19:31Z</time>
      </trkpt>
      <trkpt lat="43.03622" lon="0.38166">
        <ele>590.912</ele>
        <time>2021-02-06T11:19:51Z</time>
      </trkpt>
      <trkpt lat="43.03644" lon="0.3811">
        <ele>587.832</ele>
        <time>2021-02-06T11:20:11Z</time>
      </trkpt>
      <trkpt lat="43.03754" lon="0.38075">
        <ele>589.705</ele>
        <time>2021-02-06T11:20:31Z</time>
      </trkpt>
      <trkpt lat="43.03835" lon="0.38082">
        <ele>591.908</ele>
        <time>2021-02-06T11:20:51Z</time>
      </trkpt>
      <trkpt lat="43.0387" lon="0.38071">
        <ele>593.447</ele>
        <time>2021-02-06T11:21:11Z</time>
      </trkpt>
      <trkpt lat="43.03907" lon="0.38029">
        <ele>586.866</ele>
        <time>2021-02-06T11:21:31Z</time>
      </trkpt>
      <trkpt lat="43.03935" lon="0.3798">
        <ele>578.762</ele>
        <time>2021-02-06T11:21:51Z</time>
      </trkpt>
      <trkpt lat="43.03987" lon="0.37931">
        <ele>570.498</ele>
        <time>2021-02-06T11:22:11Z</time>
      </trkpt>
      <trkpt lat="43.04019" lon="0.37921">
        <ele>565.289</ele>
        <time>2021-02-06T11:22:31Z</time>
      </trkpt>
      <trkpt lat="43.04058" lon="0.37933">
        <ele>567.081</ele>
        <time>2021-02-06T11:22:51Z</time>
      </trkpt>
      <trkpt lat="43.04194" lon="0.37999">
        <ele>566.014</ele>
        <time>2021-02-06T11:23:11Z</time>
      </trkpt>
      <trkpt lat="43.04243" lon="0.37997">
        <ele>557.186</ele>
        <time>2021-02-06T11:23:31Z</time>
      </trkpt>
      <trkpt lat="43.04254" lon="0.37857">
        <ele>551.212</ele>
        <time>2019-12-10T20:32:54Z</time>
      </trkpt>
      <trkpt lat="43.04238" lon="0.37666">
        <ele>564.132</ele>
        <time>2019-12-10T20:33:14Z</time>
      </trkpt>
      <trkpt lat="43.04179" lon="0.37617">
        <ele>568.105</ele>
        <time>2019-12-10T20:33:34Z</time>
      </trkpt>
      <trkpt lat="43.04207" lon="0.375">
        <ele>583.308</ele>
        <time>2019-12-10T20:33:54Z</time>
      </trkpt>
      <trkpt lat="43.04205" lon="0.37419">
        <ele>591.887</ele>
        <time>2019-12-10T20:34:14Z</time>
      </trkpt>
      <trkpt lat="43.04178" lon="0.37363">
        <ele>596.146</ele>
        <time>2019-12-10T20:34:34Z</time>
      </trkpt>
      <trkpt lat="43.04163" lon="0.37285">
        <ele>607.122</ele>
        <time>2019-12-10T20:34:54Z</time>
      </trkpt>
      <trkpt lat="43.04178" lon="0.37031">
        <ele>612.968</ele>
        <time>2019-12-10T20:35:14Z</time>
      </trkpt>
      <trkpt lat="43.04197" lon="0.37031">
        <ele>613.129</ele>
        <time>2019-12-10T20:35:34Z</time>
      </trkpt>
      <trkpt lat="43.04201" lon="0.36713">
        <ele>625.151</ele>
        <time>2019-12-10T20:35:54Z</time>
      </trkpt>
      <trkpt lat="43.04174" lon="0.36691">
        <ele>628.484</ele>
        <time>2019-12-10T20:36:14Z</time>
      </trkpt>
      <trkpt lat="43.04104" lon="0.36665">
        <ele>634.736</ele>
        <time>2019-12-10T20:36:34Z</time>
      </trkpt>
      <trkpt lat="43.03925" lon="0.36626">
        <ele>656.295</ele>
        <time>2019-12-10T20:36:54Z</time>
      </trkpt>
      <trkpt lat="43.03849" lon="0.36474">
        <ele>666.949</ele>
        <time>2019-12-10T20:37:14Z</time>
      </trkpt>
      <trkpt lat="43.03839" lon="0.36418">
        <ele>668.723</ele>
        <time>2019-12-10T20:37:34Z</time>
      </trkpt>
      <trkpt lat="43.03793" lon="0.36351">
        <ele>670.908</ele>
        <time>2019-12-10T20:37:54Z</time>
      </trkpt>
      <trkpt lat="43.03737" lon="0.36108">
        <ele>653.165</ele>
        <time>2019-12-10T20:38:14Z</time>
      </trkpt>
      <trkpt lat="43.03628" lon="0.36119">
        <ele>645.554</ele>
        <time>2019-12-10T20:38:34Z</time>
      </trkpt>
      <trkpt lat="43.03594" lon="0.36106">
        <ele>642.71</ele>
        <time>2019-12-10T20:38:54Z</time>
      </trkpt>
      <trkpt lat="43.03557" lon="0.36017">
        <ele>631.766</ele>
        <time>2019-12-10T20:39:14Z</time>
      </trkpt>
      <trkpt lat="43.03469" lon="0.35981">
        <ele>630.217</ele>
        <time>2019-12-10T20:39:34Z</time>
      </trkpt>
      <trkpt lat="43.03392" lon="0.35932">
        <ele>627.219</ele>
        <time>2019-12-10T20:39:54Z</time>
      </trkpt>
      <trkpt lat="43.0343" lon="0.35923">
        <ele>621.642</ele>
        <time>2019-12-10T20:40:14Z</time>
      </trkpt>
      <trkpt lat="43.03465" lon="0.35923">
        <ele>617.234</ele>
        <time>2019-12-10T20:40:34Z</time>
      </trkpt>
      <trkpt lat="43.03498" lon="0.3591">
        <ele>611.542</ele>
        <time>2019-12-10T20:40:54Z</time>
      </trkpt>
      <trkpt lat="43.03558" lon="0.35893">
        <ele>609.222</ele>
        <time>2019-12-10T20:41:14Z</time>
      </trkpt>
      <trkpt lat="43.03596" lon="0.35819">
        <ele>598.914</ele>
        <time>2019-12-10T20:41:34Z</time>
      </trkpt>
      <trkpt lat="43.03632" lon="0.35794">
        <ele>598.308</ele>
        <time>2019-12-10T20:41:54Z</time>
      </trkpt>
      <trkpt lat="43.03651" lon="0.35764">
        <ele>594.89</ele>
        <time>2019-12-10T20:42:14Z</time>
      </trkpt>
      <trkpt lat="43.03587" lon="0.35721">
        <ele>580.949</ele>
        <time>2019-12-10T20:42:34Z</time>
      </trkpt>
      <trkpt lat="43.03566" lon="0.3566">
        <ele>570.965</ele>
        <time>2019-12-10T20:42:54Z</time>
      </trkpt>
      <trkpt lat="43.03557" lon="0.35465">
        <ele>546.981</ele>
        <time>2019-12-10T20:43:14Z</time>
      </trkpt>
      <trkpt lat="43.0359" lon="0.35344">
        <ele>540.942</ele>
        <time>2019-12-10T20:43:34Z</time>
      </trkpt>
      <trkpt lat="43.03558" lon="0.35109">
        <ele>544.124</ele>
        <time>2019-12-10T20:43:54Z</time>
      </trkpt>
      <trkpt lat="43.03506" lon="0.35127">
        <ele>540.487</ele>
        <time>2019-12-10T20:44:14Z</time>
      </trkpt>
      <trkpt lat="43.03456" lon="0.35099">
        <ele>540.029</ele>
        <time>2019-12-10T20:44:34Z</time>
      </trkpt>
      <trkpt lat="43.03452" lon="0.35056">
        <ele>540.046</ele>
        <time>2019-12-10T20:44:54Z</time>
      </trkpt>
      <trkpt lat="43.03474" lon="0.34875">
        <ele>540.088</ele>
        <time>2019-12-10T20:45:14Z</time>
      </trkpt>
      <trkpt lat="43.03457" lon="0.34743">
        <ele>540.016</ele>
        <time>2019-12-10T20:45:34Z</time>
      </trkpt>
      <trkpt lat="43.03482" lon="0.34709">
        <ele>540.008</ele>
        <time>2019-12-10T20:45:54Z</time>
      </trkpt>
      <trkpt lat="43.03506" lon="0.34638">
        <ele>541.04</ele>
        <time>2019-12-10T20:46:14Z</time>
      </trkpt>
      <trkpt lat="43.03536" lon="0.34586">
        <ele>546.169</ele>
        <time>2019-12-10T20:46:34Z</time>
      </trkpt>
      <trkpt lat="43.03554" lon="0.34487">
        <ele>558.545</ele>
        <time>2019-12-10T20:46:54Z</time>
      </trkpt>
      <trkpt lat="43.03542" lon="0.34425">
        <ele>568.471</ele>
        <time>2019-12-10T20:47:14Z</time>
      </trkpt>
      <trkpt lat="43.03524" lon="0.34388">
        <ele>576.192</ele>
        <time>2019-12-10T20:47:34Z</time>
      </trkpt>
      <trkpt lat="43.03547" lon="0.34283">
        <ele>591.634</ele>
        <time>2019-12-10T20:47:54Z</time>
      </trkpt>
      <trkpt lat="43.03573" lon="0.34259">
        <ele>600.667</ele>
        <time>2019-12-10T20:48:14Z</time>
      </trkpt>
      <trkpt lat="43.0361" lon="0.34244">
        <ele>605.039</ele>
        <time>2019-12-10T20:48:34Z</time>
      </trkpt>
      <trkpt lat="43.03583" lon="0.34216">
        <ele>618.224</ele>
        <time>2019-12-10T20:48:54Z</time>
      </trkpt>
      <trkpt lat="43.0362" lon="0.34188">
        <ele>628.304</ele>
        <time>2019-12-10T20:49:14Z</time>
      </trkpt>
      <trkpt lat="43.03616" lon="0.34175">
        <ele>634.714</ele>
        <time>2019-12-10T20:49:34Z</time>
      </trkpt>
      <trkpt lat="43.0358" lon="0.34165">
        <ele>641.408</ele>
        <time>2019-12-10T20:49:54Z</time>
      </trkpt>
      <trkpt lat="43.03562" lon="0.34145">
        <ele>650.178</ele>
        <time>2019-12-10T20:50:14Z</time>
      </trkpt>
      <trkpt lat="43.03512" lon="0.34124">
        <ele>649.167</ele>
        <time>2019-12-10T20:50:34Z</time>
      </trkpt>
      <trkpt lat="43.0345" lon="0.34051">
        <ele>652.553</ele>
        <time>2019-12-10T20:50:54Z</time>
      </trkpt>
      <trkpt lat="43.03441" lon="0.33906">
        <ele>677.199</ele>
        <time>2019-12-10T20:51:14Z</time>
      </trkpt>
      <trkpt lat="43.03449" lon="0.33792">
        <ele>687.93</ele>
        <time>2019-12-10T20:51:34Z</time>
      </trkpt>
      <trkpt lat="43.03387" lon="0.33751">
        <ele>684.432</ele>
        <time>2019-12-10T20:51:54Z</time>
      </trkpt>
      <trkpt lat="43.03314" lon="0.33779">
        <ele>698.365</ele>
        <time>2019-12-10T20:52:14Z</time>
      </trkpt>
      <trkpt lat="43.03263" lon="0.33775">
        <ele>704.777</ele>
        <time>2019-12-10T20:52:34Z</time>
      </trkpt>
      <trkpt lat="43.03225" lon="0.33814">
        <ele>707.487</ele>
        <time>2019-12-10T20:52:54Z</time>
      </trkpt>
      <trkpt lat="43.03179" lon="0.3382">
        <ele>718.642</ele>
        <time>2019-12-10T20:53:14Z</time>
      </trkpt>
      <trkpt lat="43.03158" lon="0.33792">
        <ele>720.826</ele>
        <time>2019-12-10T20:53:34Z</time>
      </trkpt>
      <trkpt lat="43.03138" lon="0.33794">
        <ele>728.308</ele>
        <time>2019-12-10T20:53:54Z</time>
      </trkpt>
      <trkpt lat="43.03027" lon="0.33964">
        <ele>721.994</ele>
        <time>2019-12-10T20:54:14Z</time>
      </trkpt>
      <trkpt lat="43.02985" lon="0.33984">
        <ele>718.953</ele>
        <time>2019-12-10T20:54:34Z</time>
      </trkpt>
      <trkpt lat="43.02911" lon="0.33887">
        <ele>698.979</ele>
        <time>2019-12-10T20:54:54Z</time>
      </trkpt>
      <trkpt lat="43.02867" lon="0.33917">
        <ele>699.875</ele>
        <time>2019-12-10T20:55:14Z</time>
      </trkpt>
      <trkpt lat="43.02821" lon="0.33924">
        <ele>695.596</ele>
        <time>2019-12-10T20:55:34Z</time>
      </trkpt>
      <trkpt lat="43.02768" lon="0.33911">
        <ele>688.058</ele>
        <time>2019-12-10T20:55:54Z</time>
      </trkpt>
      <trkpt lat="43.02761" lon="0.33878">
        <ele>678.231</ele>
        <time>2019-12-10T20:56:14Z</time>
      </trkpt>
      <trkpt lat="43.02728" lon="0.33814">
        <ele>679.153</ele>
        <time>2019-12-10T20:56:34Z</time>
      </trkpt>
      <trkpt lat="43.02709" lon="0.33726">
        <ele>677.069</ele>
        <time>2019-12-10T20:56:54Z</time>
      </trkpt>
      <trkpt lat="43.02702" lon="0.33607">
        <ele>664.004</ele>
        <time>2019-12-10T20:57:14Z</time>
      </trkpt>
      <trkpt lat="43.02672" lon="0.33538">
        <ele>658.524</ele>
        <time>2019-12-10T20:57:34Z</time>
      </trkpt>
      <trkpt lat="43.02683" lon="0.33457">
        <ele>650.808</ele>
        <time>2019-12-10T20:57:54Z</time>
      </trkpt>
      <trkpt lat="43.02705" lon="0.33407">
        <ele>641.752</ele>
        <time>2019-12-10T20:58:14Z</time>
      </trkpt>
      <trkpt lat="43.02735" lon="0.33385">
        <ele>627.231</ele>
        <time>2019-12-10T20:58:34Z</time>
      </trkpt>
      <trkpt lat="43.02763" lon="0.33336">
        <ele>618.567</ele>
        <time>2019-12-10T20:58:54Z</time>
      </trkpt>
      <trkpt lat="43.02776" lon="0.33284">
        <ele>610.823</ele>
        <time>2019-12-10T20:59:14Z</time>
      </trkpt>
      <trkpt lat="43.02744" lon="0.33209">
        <ele>613.984</ele>
        <time>2019-12-10T20:59:34Z</time>
      </trkpt>
      <trkpt lat="43.02727" lon="0.33142">
        <ele>615.186</ele>
        <time>2019-12-10T20:59:54Z</time>
      </trkpt>
      <trkpt lat="43.02747" lon="0.33108">
        <ele>605.069</ele>
        <time>2019-12-10T21:00:14Z</time>
      </trkpt>
      <trkpt lat="43.02748" lon="0.33076">
        <ele>605.321</ele>
        <time>2019-12-10T21:00:34Z</time>
      </trkpt>
      <trkpt lat="43.02765" lon="0.33041">
        <ele>596.991</ele>
        <time>2019-12-10T21:00:54Z</time>
      </trkpt>
      <trkpt lat="43.02789" lon="0.33067">
        <ele>592.181</ele>
        <time>2019-12-10T21:01:14Z</time>
      </trkpt>
      <trkpt lat="43.02833" lon="0.3306">
        <ele>579.519</ele>
        <time>2019-12-10T21:01:34Z</time>
      </trkpt>
      <trkpt lat="43.02796" lon="0.32974">
        <ele>572.408</ele>
        <time>2019-12-10T21:01:54Z</time>
      </trkpt>
      <trkpt lat="43.02836" lon="0.32979">
        <ele>562.655</ele>
        <time>2019-12-10T21:02:14Z</time>
      </trkpt>
      <trkpt lat="43.029" lon="0.32968">
        <ele>548.074</ele>
        <time>2019-12-10T21:02:34Z</time>
      </trkpt>
      <trkpt lat="43.02925" lon="0.32987">
        <ele>545.79</ele>
        <time>2019-12-10T21:02:54Z</time>
      </trkpt>
      <trkpt lat="43.02931" lon="0.32987">
        <ele>543.696</ele>
        <time>2019-12-10T21:03:14Z</time>
      </trkpt>
      <trkpt lat="43.02933" lon="0.32953">
        <ele>538.637</ele>
        <time>2019-12-10T21:03:34Z</time>
      </trkpt>
      <trkpt lat="43.02929" lon="0.32926">
        <ele>533.629</ele>
        <time>2019-12-10T21:03:54Z</time>
      </trkpt>
      <trkpt lat="43.02944" lon="0.32917">
        <ele>530.082</ele>
        <time>2019-12-10T21:04:14Z</time>
      </trkpt>
      <trkpt lat="43.02963" lon="0.32925">
        <ele>524.314</ele>
        <time>2019-12-10T21:04:34Z</time>
      </trkpt>
      <trkpt lat="43.02979" lon="0.33025">
        <ele>520.163</ele>
        <time>2019-12-10T21:04:54Z</time>
      </trkpt>
      <trkpt lat="43.02991" lon="0.33052">
        <ele>514.044</ele>
        <time>2019-12-10T21:05:14Z</time>
      </trkpt>
      <trkpt lat="43.03" lon="0.33016">
        <ele>507.618</ele>
        <time>2019-12-10T21:05:34Z</time>
      </trkpt>
      <trkpt lat="43.03028" lon="0.32988">
        <ele>506.908</ele>
        <time>2019-12-10T21:05:54Z</time>
      </trkpt>
      <trkpt lat="43.03039" lon="0.32951">
        <ele>504.642</ele>
        <time>2019-12-10T21:06:14Z</time>
      </trkpt>
      <trkpt lat="43.03063" lon="0.32827">
        <ele>494.291</ele>
        <time>2019-12-10T21:06:34Z</time>
      </trkpt>
      <trkpt lat="43.03075" lon="0.32675">
        <ele>478.557</ele>
        <time>2019-12-10T21:06:54Z</time>
      </trkpt>
      <trkpt lat="43.0311" lon="0.32557">
        <ele>470.433</ele>
        <time>2019-12-10T21:07:14Z</time>
      </trkpt>
      <trkpt lat="43.03136" lon="0.32417">
        <ele>468.454</ele>
        <time>2019-12-10T21:07:34Z</time>
      </trkpt>
      <trkpt lat="43.03148" lon="0.32311">
        <ele>467.796</ele>
        <time>2019-12-10T21:07:54Z</time>
      </trkpt>
      <trkpt lat="43.03151" lon="0.32249">
        <ele>466.529</ele>
        <time>2019-12-10T21:08:14Z</time>
      </trkpt>
      <trkpt lat="43.03189" lon="0.32164">
        <ele>467.751</ele>
        <time>2019-12-10T21:08:34Z</time>
      </trkpt>
      <trkpt lat="43.03212" lon="0.32144">
        <ele>470.755</ele>
        <time>2019-12-10T21:08:54Z</time>
      </trkpt>
      <trkpt lat="43.03296" lon="0.3206">
        <ele>485.807</ele>
        <time>2019-12-10T21:09:14Z</time>
      </trkpt>
      <trkpt lat="43.0328" lon="0.31944">
        <ele>485.617</ele>
        <time>2019-12-10T21:09:34Z</time>
      </trkpt>
      <trkpt lat="43.03291" lon="0.31894">
        <ele>492.308</ele>
        <time>2019-12-10T21:09:54Z</time>
      </trkpt>
      <trkpt lat="43.03278" lon="0.31772">
        <ele>492.871</ele>
        <time>2019-12-10T21:10:14Z</time>
      </trkpt>
      <trkpt lat="43.03287" lon="0.31716">
        <ele>492.83</ele>
        <time>2019-12-10T21:10:34Z</time>
      </trkpt>
      <trkpt lat="43.03318" lon="0.31624">
        <ele>492.366</ele>
        <time>2019-12-10T21:10:54Z</time>
      </trkpt>
      <trkpt lat="43.03375" lon="0.3158">
        <ele>485.252</ele>
        <time>2019-12-10T21:11:14Z</time>
      </trkpt>
      <trkpt lat="43.03441" lon="0.3147">
        <ele>470.013</ele>
        <time>2019-12-10T21:11:34Z</time>
      </trkpt>
      <trkpt lat="43.03483" lon="0.3138">
        <ele>470.995</ele>
        <time>2019-12-10T21:11:54Z</time>
      </trkpt>
      <trkpt lat="43.03435" lon="0.31348">
        <ele>474.718</ele>
        <time>2019-12-10T21:12:14Z</time>
      </trkpt>
      <trkpt lat="43.03477" lon="0.31332">
        <ele>479.44</ele>
        <time>2019-12-10T21:12:34Z</time>
      </trkpt>
      <trkpt lat="43.03521" lon="0.31292">
        <ele>484.968</ele>
        <time>2019-12-10T21:12:54Z</time>
      </trkpt>
      <trkpt lat="43.03534" lon="0.31286">
        <ele>485.642</ele>
        <time>2019-12-10T21:13:14Z</time>
      </trkpt>
      <trkpt lat="43.03543" lon="0.31219">
        <ele>490.026</ele>
        <time>2019-12-10T21:13:34Z</time>
      </trkpt>
      <trkpt lat="43.03618" lon="0.31252">
        <ele>495.908</ele>
        <time>2019-12-10T21:13:54Z</time>
      </trkpt>
      <trkpt lat="43.03631" lon="0.31113">
        <ele>496.422</ele>
        <time>2019-12-10T21:14:14Z</time>
      </trkpt>
      <trkpt lat="43.03628" lon="0.31001">
        <ele>494.171</ele>
        <time>2019-12-10T21:14:34Z</time>
      </trkpt>
      <trkpt lat="43.03653" lon="0.30925">
        <ele>494.337</ele>
        <time>2019-12-10T21:14:54Z</time>
      </trkpt>
      <trkpt lat="43.03687" lon="0.30785">
        <ele>483.353</ele>
        <time>2019-12-10T21:15:14Z</time>
      </trkpt>
      <trkpt lat="43.03687" lon="0.30727">
        <ele>478.994</ele>
        <time>2019-12-10T21:15:34Z</time>
      </trkpt>
      <trkpt lat="43.03673" lon="0.30663">
        <ele>473.076</ele>
        <time>2019-12-10T21:15:54Z</time>
      </trkpt>
      <trkpt lat="43.03687" lon="0.30589">
        <ele>471.119</ele>
        <time>2019-12-10T21:16:14Z</time>
      </trkpt>
      <trkpt lat="43.03679" lon="0.30561">
        <ele>467.731</ele>
        <time>2019-12-10T21:16:34Z</time>
      </trkpt>
      <trkpt lat="43.03706" lon="0.30509">
        <ele>464.568</ele>
        <time>2019-12-10T21:16:54Z</time>
      </trkpt>
      <trkpt lat="43.03736" lon="0.30503">
        <ele>463.842</ele>
        <time>2019-12-10T21:17:14Z</time>
      </trkpt>
      <trkpt lat="43.03833" lon="0.30571">
        <ele>461.826</ele>
        <time>2019-12-10T21:17:34Z</time>
      </trkpt>
      <trkpt lat="43.03867" lon="0.30573">
        <ele>463.308</ele>
        <time>2019-12-10T21:17:54Z</time>
      </trkpt>
      <trkpt lat="43.03934" lon="0.30539">
        <ele>465.992</ele>
        <time>2019-12-10T21:18:14Z</time>
      </trkpt>
      <trkpt lat="43.03976" lon="0.30559">
        <ele>468.371</ele>
        <time>2019-12-10T21:18:34Z</time>
      </trkpt>
      <trkpt lat="43.04029" lon="0.30555">
        <ele>470.067</ele>
        <time>2019-12-10T21:18:54Z</time>
      </trkpt>
      <trkpt lat="43.04068" lon="0.30519">
        <ele>469.563</ele>
        <time>2019-12-10T21:19:14Z</time>
      </trkpt>
      <trkpt lat="43.04128" lon="0.30545">
        <ele>471.844</ele>
        <time>2019-12-10T21:19:34Z</time>
      </trkpt>
      <trkpt lat="43.04169" lon="0.30531">
        <ele>477.276</ele>
        <time>2019-12-10T21:19:54Z</time>
      </trkpt>
      <trkpt lat="43.04272" lon="0.30541">
        <ele>479.069</ele>
        <time>2019-12-10T21:20:14Z</time>
      </trkpt>
      <trkpt lat="43.04333" lon="0.30527">
        <ele>476.051</ele>
        <time>2019-12-10T21:20:34Z</time>
      </trkpt>
      <trkpt lat="43.04368" lon="0.30553">
        <ele>476.457</ele>
        <time>2019-12-10T21:20:54Z</time>
      </trkpt>
      <trkpt lat="43.04418" lon="0.30637">
        <ele>487.4</ele>
        <time>2019-12-10T21:21:14Z</time>
      </trkpt>
      <trkpt lat="43.04447" lon="0.30645">
        <ele>488.52</ele>
        <time>2019-12-10T21:21:34Z</time>
      </trkpt>
      <trkpt lat="43.04478" lon="0.30635">
        <ele>489.908</ele>
        <time>2019-12-10T21:21:54Z</time>
      </trkpt>
      <trkpt lat="43.04509" lon="0.30591">
        <ele>487.761</ele>
        <time>2019-12-10T21:22:14Z</time>
      </trkpt>
      <trkpt lat="43.04547" lon="0.30587">
        <ele>487.86</ele>
        <time>2019-12-10T21:22:34Z</time>
      </trkpt>
      <trkpt lat="43.04595" lon="0.30647">
        <ele>485.936</ele>
        <time>2019-12-10T21:22:54Z</time>
      </trkpt>
      <trkpt lat="43.04654" lon="0.30761">
        <ele>484.532</ele>
        <time>2019-12-10T21:23:14Z</time>
      </trkpt>
      <trkpt lat="43.04665" lon="0.30761">
        <ele>483.153</ele>
        <time>2019-12-10T21:23:34Z</time>
      </trkpt>
      <trkpt lat="43.04686" lon="0.30655">
        <ele>480.245</ele>
        <time>2019-12-10T21:23:54Z</time>
      </trkpt>
      <trkpt lat="43.04711" lon="0.30641">
        <ele>484.048</ele>
        <time>2019-12-10T21:24:14Z</time>
      </trkpt>
      <trkpt lat="43.04727" lon="0.30697">
        <ele>494.85</ele>
        <time>2019-12-10T21:24:34Z</time>
      </trkpt>
      <trkpt lat="43.04717" lon="0.30759">
        <ele>502.433</ele>
        <time>2019-12-10T21:24:54Z</time>
      </trkpt>
      <trkpt lat="43.04724" lon="0.30835">
        <ele>513.223</ele>
        <time>2019-12-10T21:25:14Z</time>
      </trkpt>
      <trkpt lat="43.04744" lon="0.30863">
        <ele>516.815</ele>
        <time>2019-12-10T21:25:34Z</time>
      </trkpt>
      <trkpt lat="43.04749" lon="0.30917">
        <ele>526.308</ele>
        <time>2019-12-10T21:25:54Z</time>
      </trkpt>
      <trkpt lat="43.04725" lon="0.30915">
        <ele>530.089</ele>
        <time>2019-12-10T21:26:14Z</time>
      </trkpt>
      <trkpt lat="43.04728" lon="0.30947">
        <ele>536.268</ele>
        <time>2019-12-10T21:26:34Z</time>
      </trkpt>
      <trkpt lat="43.04703" lon="0.30953">
        <ele>537.924</ele>
        <time>2019-12-10T21:26:54Z</time>
      </trkpt>
      <trkpt lat="43.0468" lon="0.30991">
        <ele>542.14</ele>
        <time>2019-12-10T21:27:14Z</time>
      </trkpt>
      <trkpt lat="43.04711" lon="0.30997">
        <ele>545.661</ele>
        <time>2019-12-10T21:27:34Z</time>
      </trkpt>
      <trkpt lat="43.04727" lon="0.31131">
        <ele>561.993</ele>
        <time>2019-12-10T21:27:54Z</time>
      </trkpt>
      <trkpt lat="43.0479" lon="0.31189">
        <ele>574.986</ele>
        <time>2019-12-10T21:28:14Z</time>
      </trkpt>
      <trkpt lat="43.04806" lon="0.31276">
        <ele>589.568</ele>
        <time>2019-12-10T21:28:34Z</time>
      </trkpt>
      <trkpt lat="43.04841" lon="0.3131">
        <ele>592.419</ele>
        <time>2019-12-10T21:28:54Z</time>
      </trkpt>
      <trkpt lat="43.04907" lon="0.31466">
        <ele>602.009</ele>
        <time>2019-12-10T21:29:14Z</time>
      </trkpt>
      <trkpt lat="43.04936" lon="0.31462">
        <ele>600.019</ele>
        <time>2019-12-10T21:29:34Z</time>
      </trkpt>
      <trkpt lat="43.04954" lon="0.3143">
        <ele>599.908</ele>
        <time>2019-12-10T21:29:54Z</time>
      </trkpt>
      <trkpt lat="43.04961" lon="0.31225">
        <ele>585.147</ele>
        <time>2019-12-10T21:30:14Z</time>
      </trkpt>
      <trkpt lat="43.05028" lon="0.31165">
        <ele>585.776</ele>
        <time>2019-12-10T21:30:34Z</time>
      </trkpt>
      <trkpt lat="43.05097" lon="0.31121">
        <ele>591.322</ele>
        <time>2019-12-10T21:30:54Z</time>
      </trkpt>
      <trkpt lat="43.05128" lon="0.31043">
        <ele>598.438</ele>
        <time>2019-12-10T21:31:14Z</time>
      </trkpt>
      <trkpt lat="43.05115" lon="0.30991">
        <ele>600.729</ele>
        <time>2019-12-10T21:31:34Z</time>
      </trkpt>
      <trkpt lat="43.05075" lon="0.30929">
        <ele>588.761</ele>
        <time>2019-12-10T21:31:54Z</time>
      </trkpt>
      <trkpt lat="43.05088" lon="0.30853">
        <ele>585.994</ele>
        <time>2019-12-10T21:32:14Z</time>
      </trkpt>
      <trkpt lat="43.05148" lon="0.30699">
        <ele>581.226</ele>
        <time>2019-12-10T21:32:34Z</time>
      </trkpt>
      <trkpt lat="43.05205" lon="0.30639">
        <ele>578.165</ele>
        <time>2019-12-10T21:32:54Z</time>
      </trkpt>
      <trkpt lat="43.05255" lon="0.30637">
        <ele>578.768</ele>
        <time>2019-12-10T21:33:14Z</time>
      </trkpt>
      <trkpt lat="43.053" lon="0.30681">
        <ele>581.114</ele>
        <time>2019-12-10T21:33:34Z</time>
      </trkpt>
      <trkpt lat="43.05324" lon="0.30763">
        <ele>582.908</ele>
        <time>2019-12-10T21:33:54Z</time>
      </trkpt>
      <trkpt lat="43.05387" lon="0.30811">
        <ele>576.322</ele>
        <time>2019-12-10T21:34:14Z</time>
      </trkpt>
      <trkpt lat="43.05415" lon="0.30961">
        <ele>588.411</ele>
        <time>2019-12-10T21:34:34Z</time>
      </trkpt>
      <trkpt lat="43.05447" lon="0.30971">
        <ele>578.287</ele>
        <time>2019-12-10T21:34:54Z</time>
      </trkpt>
      <trkpt lat="43.05537" lon="0.30909">
        <ele>587.443</ele>
        <time>2019-12-10T21:35:14Z</time>
      </trkpt>
      <trkpt lat="43.05578" lon="0.30915">
        <ele>597.834</ele>
        <time>2019-12-10T21:35:34Z</time>
      </trkpt>
      <trkpt lat="43.05586" lon="0.30943">
        <ele>600.076</ele>
        <time>2019-12-10T21:35:54Z</time>
      </trkpt>
      <trkpt lat="43.05611" lon="0.30921">
        <ele>599.159</ele>
        <time>2021-02-06T12:27:11Z</time>
      </trkpt>
      <trkpt lat="43.05695" lon="0.30766">
        <ele>602.321</ele>
        <time>2021-02-06T12:27:31Z</time>
      </trkpt>
      <trkpt lat="43.05767" lon="0.30658">
        <ele>614.697</ele>
        <time>2021-02-06T12:27:51Z</time>
      </trkpt>
      <trkpt lat="43.0579" lon="0.30657">
        <ele>617.223</ele>
        <time>2019-12-10T21:37:14Z</time>
      </trkpt>
      <trkpt lat="43.05823" lon="0.30597">
        <ele>616.725</ele>
        <time>2019-12-10T21:37:34Z</time>
      </trkpt>
      <trkpt lat="43.05853" lon="0.30513">
        <ele>616.108</ele>
        <time>2019-12-10T21:37:54Z</time>
      </trkpt>
      <trkpt lat="43.05874" lon="0.30427">
        <ele>611.415</ele>
        <time>2019-12-10T21:38:14Z</time>
      </trkpt>
      <trkpt lat="43.05919" lon="0.30377">
        <ele>607.454</ele>
        <time>2019-12-10T21:38:34Z</time>
      </trkpt>
      <trkpt lat="43.05975" lon="0.30367">
        <ele>601.29</ele>
        <time>2019-12-10T21:38:54Z</time>
      </trkpt>
      <trkpt lat="43.05948" lon="0.30337">
        <ele>599.736</ele>
        <time>2019-12-10T21:39:14Z</time>
      </trkpt>
      <trkpt lat="43.05941" lon="0.30295">
        <ele>593.477</ele>
        <time>2019-12-10T21:39:34Z</time>
      </trkpt>
      <trkpt lat="43.0591" lon="0.30266">
        <ele>590.039</ele>
        <time>2019-12-10T21:39:54Z</time>
      </trkpt>
      <trkpt lat="43.05916" lon="0.30256">
        <ele>589.182</ele>
        <time>2019-12-10T21:40:14Z</time>
      </trkpt>
      <trkpt lat="43.05969" lon="0.30254">
        <ele>579.634</ele>
        <time>2019-12-10T21:40:34Z</time>
      </trkpt>
      <trkpt lat="43.06054" lon="0.30206">
        <ele>563.422</ele>
        <time>2019-12-10T21:40:54Z</time>
      </trkpt>
      <trkpt lat="43.06033" lon="0.30134">
        <ele>551.062</ele>
        <time>2019-12-10T21:41:14Z</time>
      </trkpt>
      <trkpt lat="43.06065" lon="0.3002">
        <ele>535.408</ele>
        <time>2019-12-10T21:41:34Z</time>
      </trkpt>
      <trkpt lat="43.0608" lon="0.29996">
        <ele>532.008</ele>
        <time>2019-12-10T21:41:54Z</time>
      </trkpt>
      <trkpt lat="43.06098" lon="0.29948">
        <ele>530.158</ele>
        <time>2019-12-10T21:42:14Z</time>
      </trkpt>
      <trkpt lat="43.06127" lon="0.29916">
        <ele>533.297</ele>
        <time>2019-12-10T21:42:34Z</time>
      </trkpt>
      <trkpt lat="43.06082" lon="0.2993">
        <ele>527.473</ele>
        <time>2019-12-10T21:42:54Z</time>
      </trkpt>
      <trkpt lat="43.06052" lon="0.29932">
        <ele>519.269</ele>
        <time>2019-12-10T21:43:14Z</time>
      </trkpt>
      <trkpt lat="43.06" lon="0.29982">
        <ele>508.72</ele>
        <time>2019-12-10T21:43:34Z</time>
      </trkpt>
      <trkpt lat="43.05973" lon="0.2997">
        <ele>502.882</ele>
        <time>2019-12-10T21:43:54Z</time>
      </trkpt>
      <trkpt lat="43.05965" lon="0.29932">
        <ele>495.615</ele>
        <time>2019-12-10T21:44:14Z</time>
      </trkpt>
      <trkpt lat="43.05918" lon="0.29922">
        <ele>493.237</ele>
        <time>2019-12-10T21:44:34Z</time>
      </trkpt>
      <trkpt lat="43.05951" lon="0.29892">
        <ele>487.614</ele>
        <time>2019-12-10T21:44:54Z</time>
      </trkpt>
      <trkpt lat="43.05951" lon="0.29878">
        <ele>484.654</ele>
        <time>2019-12-10T21:45:14Z</time>
      </trkpt>
      <trkpt lat="43.05932" lon="0.29846">
        <ele>477.009</ele>
        <time>2019-12-10T21:45:34Z</time>
      </trkpt>
      <trkpt lat="43.05953" lon="0.29824">
        <ele>476.008</ele>
        <time>2019-12-10T21:45:54Z</time>
      </trkpt>
      <trkpt lat="43.05954" lon="0.29748">
        <ele>468.887</ele>
        <time>2019-12-10T21:46:14Z</time>
      </trkpt>
      <trkpt lat="43.05965" lon="0.29682">
        <ele>462.426</ele>
        <time>2019-12-10T21:46:34Z</time>
      </trkpt>
      <trkpt lat="43.05947" lon="0.29646">
        <ele>457.922</ele>
        <time>2019-12-10T21:46:54Z</time>
      </trkpt>
      <trkpt lat="43.05924" lon="0.29582">
        <ele>447.918</ele>
        <time>2019-12-10T21:47:14Z</time>
      </trkpt>
      <trkpt lat="43.05921" lon="0.29524">
        <ele>442.129</ele>
        <time>2019-12-10T21:47:34Z</time>
      </trkpt>
      <trkpt lat="43.05915" lon="0.2948">
        <ele>438.581</ele>
        <time>2019-12-10T21:47:54Z</time>
      </trkpt>
      <trkpt lat="43.05886" lon="0.29478">
        <ele>436.784</ele>
        <time>2019-12-10T21:48:14Z</time>
      </trkpt>
      <trkpt lat="43.0589" lon="0.29432">
        <ele>434.156</ele>
        <time>2019-12-10T21:48:34Z</time>
      </trkpt>
      <trkpt lat="43.05862" lon="0.29315">
        <ele>421.851</ele>
        <time>2019-12-10T21:48:54Z</time>
      </trkpt>
      <trkpt lat="43.05826" lon="0.29301">
        <ele>413.401</ele>
        <time>2019-12-10T21:49:14Z</time>
      </trkpt>
      <trkpt lat="43.05788" lon="0.29305">
        <ele>409.011</ele>
        <time>2019-12-10T21:49:34Z</time>
      </trkpt>
      <trkpt lat="43.05771" lon="0.29219">
        <ele>392.208</ele>
        <time>2019-12-10T21:49:54Z</time>
      </trkpt>
      <trkpt lat="43.05834" lon="0.29155">
        <ele>380.611</ele>
        <time>2019-12-10T21:50:14Z</time>
      </trkpt>
      <trkpt lat="43.05823" lon="0.29099">
        <ele>380.91</ele>
        <time>2019-12-10T21:50:34Z</time>
      </trkpt>
      <trkpt lat="43.05757" lon="0.29095">
        <ele>390.436</ele>
        <time>2019-12-10T21:50:54Z</time>
      </trkpt>
      <trkpt lat="43.05776" lon="0.29077">
        <ele>390.832</ele>
        <time>2019-12-10T21:51:14Z</time>
      </trkpt>
      <trkpt lat="43.05792" lon="0.29011">
        <ele>402.323</ele>
        <time>2019-12-10T21:51:34Z</time>
      </trkpt>
      <trkpt lat="43.05833" lon="0.28953">
        <ele>418.055</ele>
        <time>2019-12-10T21:51:54Z</time>
      </trkpt>
      <trkpt lat="43.05856" lon="0.28955">
        <ele>421.778</ele>
        <time>2019-12-10T21:52:14Z</time>
      </trkpt>
      <trkpt lat="43.05913" lon="0.28983">
        <ele>420.13</ele>
        <time>2019-12-10T21:52:34Z</time>
      </trkpt>
      <trkpt lat="43.0597" lon="0.28947">
        <ele>427.098</ele>
        <time>2019-12-10T21:52:54Z</time>
      </trkpt>
      <trkpt lat="43.06054" lon="0.28929">
        <ele>433.115</ele>
        <time>2019-12-10T21:53:14Z</time>
      </trkpt>
      <trkpt lat="43.06092" lon="0.28879">
        <ele>429.626</ele>
        <time>2019-12-10T21:53:34Z</time>
      </trkpt>
      <trkpt lat="43.06121" lon="0.28881">
        <ele>427.608</ele>
        <time>2019-12-10T21:53:54Z</time>
      </trkpt>
      <trkpt lat="43.06125" lon="0.28913">
        <ele>427.245</ele>
        <time>2019-12-10T21:54:14Z</time>
      </trkpt>
      <trkpt lat="43.06117" lon="0.28983">
        <ele>421.754</ele>
        <time>2019-12-10T21:54:34Z</time>
      </trkpt>
      <trkpt lat="43.06161" lon="0.29079">
        <ele>410.17</ele>
        <time>2019-12-10T21:54:54Z</time>
      </trkpt>
      <trkpt lat="43.06196" lon="0.29099">
        <ele>408.526</ele>
        <time>2019-12-10T21:55:14Z</time>
      </trkpt>
      <trkpt lat="43.0624" lon="0.29105">
        <ele>401.947</ele>
        <time>2019-12-10T21:55:34Z</time>
      </trkpt>
      <trkpt lat="43.063" lon="0.29127">
        <ele>393.799</ele>
        <time>2019-12-10T21:55:54Z</time>
      </trkpt>
      <trkpt lat="43.06349" lon="0.29125">
        <ele>397.582</ele>
        <time>2019-12-10T21:56:14Z</time>
      </trkpt>
      <trkpt lat="43.06389" lon="0.29195">
        <ele>384.864</ele>
        <time>2019-12-10T21:56:34Z</time>
      </trkpt>
      <trkpt lat="43.0644" lon="0.29217">
        <ele>376.997</ele>
        <time>2019-12-10T21:56:54Z</time>
      </trkpt>
      <trkpt lat="43.06496" lon="0.29193">
        <ele>375.323</ele>
        <time>2019-12-10T21:57:14Z</time>
      </trkpt>
      <trkpt lat="43.06544" lon="0.29227">
        <ele>370.925</ele>
        <time>2019-12-10T21:57:34Z</time>
      </trkpt>
      <trkpt lat="43.06553" lon="0.29261">
        <ele>369.608</ele>
        <time>2019-12-10T21:57:54Z</time>
      </trkpt>
      <trkpt lat="43.06649" lon="0.29305">
        <ele>371.115</ele>
        <time>2019-12-10T21:58:14Z</time>
      </trkpt>
      <trkpt lat="43.06724" lon="0.29289">
        <ele>372.314</ele>
        <time>2019-12-10T21:58:34Z</time>
      </trkpt>
      <trkpt lat="43.06813" lon="0.29311">
        <ele>371.52</ele>
        <time>2019-12-10T21:58:54Z</time>
      </trkpt>
      <trkpt lat="43.06797" lon="0.29235">
        <ele>372.366</ele>
        <time>2019-12-10T21:59:14Z</time>
      </trkpt>
      <trkpt lat="43.06857" lon="0.29225">
        <ele>370.997</ele>
        <time>2019-12-10T21:59:34Z</time>
      </trkpt>
      <trkpt lat="43.06895" lon="0.29219">
        <ele>371.039</ele>
        <time>2019-12-10T21:59:54Z</time>
      </trkpt>
      <trkpt lat="43.07015" lon="0.29239">
        <ele>372.622</ele>
        <time>2019-12-10T22:00:14Z</time>
      </trkpt>
      <trkpt lat="43.07126" lon="0.29211">
        <ele>372.054</ele>
        <time>2019-12-10T22:00:34Z</time>
      </trkpt>
      <trkpt lat="43.07151" lon="0.29181">
        <ele>374.276</ele>
        <time>2019-12-10T22:00:54Z</time>
      </trkpt>
      <trkpt lat="43.07332" lon="0.29201">
        <ele>377.69</ele>
        <time>2019-12-10T22:01:14Z</time>
      </trkpt>
      <trkpt lat="43.07392" lon="0.29249">
        <ele>371.319</ele>
        <time>2019-12-10T22:01:34Z</time>
      </trkpt>
      <trkpt lat="43.07478" lon="0.29221">
        <ele>366.708</ele>
        <time>2019-12-10T22:01:54Z</time>
      </trkpt>
      <trkpt lat="43.07518" lon="0.29165">
        <ele>368.283</ele>
        <time>2019-12-10T22:02:14Z</time>
      </trkpt>
      <trkpt lat="43.07546" lon="0.29109">
        <ele>365.722</ele>
        <time>2019-12-10T22:02:34Z</time>
      </trkpt>
      <trkpt lat="43.07519" lon="0.28991">
        <ele>372.158</ele>
        <time>2019-12-10T22:02:54Z</time>
      </trkpt>
      <trkpt lat="43.07535" lon="0.28945">
        <ele>366.654</ele>
        <time>2019-12-10T22:03:14Z</time>
      </trkpt>
      <trkpt lat="43.07538" lon="0.28905">
        <ele>365.675</ele>
        <time>2019-12-10T22:03:34Z</time>
      </trkpt>
      <trkpt lat="43.07579" lon="0.28847">
        <ele>367.137</ele>
        <time>2019-12-10T22:03:54Z</time>
      </trkpt>
      <trkpt lat="43.07635" lon="0.28833">
        <ele>361.67</ele>
        <time>2019-12-10T22:04:14Z</time>
      </trkpt>
      <trkpt lat="43.0768" lon="0.28833">
        <ele>361.612</ele>
        <time>2019-12-10T22:04:34Z</time>
      </trkpt>
      <trkpt lat="43.07692" lon="0.28847">
        <ele>361.013</ele>
        <time>2019-12-10T22:04:54Z</time>
      </trkpt>
      <trkpt lat="43.0778" lon="0.28847">
        <ele>363.743</ele>
        <time>2019-12-10T22:05:14Z</time>
      </trkpt>
      <trkpt lat="43.07859" lon="0.28883">
        <ele>360.307</ele>
        <time>2019-12-10T22:05:34Z</time>
      </trkpt>
      <trkpt lat="43.07987" lon="0.28831">
        <ele>359.208</ele>
        <time>2019-12-10T22:05:54Z</time>
      </trkpt>
      <trkpt lat="43.08009" lon="0.28791">
        <ele>363.357</ele>
        <time>2019-12-10T22:06:14Z</time>
      </trkpt>
      <trkpt lat="43.0804" lon="0.28801">
        <ele>361.046</ele>
        <time>2019-12-10T22:06:34Z</time>
      </trkpt>
      <trkpt lat="43.08094" lon="0.28757">
        <ele>362.492</ele>
        <time>2019-12-10T22:06:54Z</time>
      </trkpt>
      <trkpt lat="43.0817" lon="0.28637">
        <ele>359.098</ele>
        <time>2019-12-10T22:07:14Z</time>
      </trkpt>
      <trkpt lat="43.08205" lon="0.28595">
        <ele>356.199</ele>
        <time>2019-12-10T22:07:34Z</time>
      </trkpt>
      <trkpt lat="43.08211" lon="0.28547">
        <ele>360.961</ele>
        <time>2019-12-10T22:07:54Z</time>
      </trkpt>
      <trkpt lat="43.08297" lon="0.28399">
        <ele>357.044</ele>
        <time>2019-12-10T22:08:14Z</time>
      </trkpt>
      <trkpt lat="43.08357" lon="0.2828">
        <ele>359.516</ele>
        <time>2019-12-10T22:08:34Z</time>
      </trkpt>
      <trkpt lat="43.08422" lon="0.28188">
        <ele>353.186</ele>
        <time>2019-12-10T22:08:54Z</time>
      </trkpt>
      <trkpt lat="43.08502" lon="0.28226">
        <ele>350.06</ele>
        <time>2019-12-10T22:09:14Z</time>
      </trkpt>
      <trkpt lat="43.08504" lon="0.28232">
        <ele>350.026</ele>
        <time>2019-12-10T22:09:34Z</time>
      </trkpt>
      <trkpt lat="43.08547" lon="0.28167">
        <ele>350.008</ele>
        <time>2019-12-10T22:09:54Z</time>
      </trkpt>
      <trkpt lat="43.0859" lon="0.28064">
        <ele>350.044</ele>
        <time>2019-12-10T22:10:14Z</time>
      </trkpt>
      <trkpt lat="43.08599" lon="0.28045">
        <ele>350.063</ele>
        <time>2019-12-10T22:10:34Z</time>
      </trkpt>
      <trkpt lat="43.08587" lon="0.28014">
        <ele>350.029</ele>
        <time>2019-12-10T22:10:54Z</time>
      </trkpt>
      <trkpt lat="43.08654" lon="0.27929">
        <ele>349.895</ele>
        <time>2019-12-10T22:11:14Z</time>
      </trkpt>
      <trkpt lat="43.08665" lon="0.2788">
        <ele>356.586</ele>
        <time>2019-12-10T22:11:34Z</time>
      </trkpt>
      <trkpt lat="43.08766" lon="0.27803">
        <ele>369.258</ele>
        <time>2019-12-10T22:11:54Z</time>
      </trkpt>
      <trkpt lat="43.08831" lon="0.27721">
        <ele>371.041</ele>
        <time>2019-12-10T22:12:14Z</time>
      </trkpt>
      <trkpt lat="43.08824" lon="0.27631">
        <ele>376.983</ele>
        <time>2019-12-10T22:12:34Z</time>
      </trkpt>
      <trkpt lat="43.08806" lon="0.2758">
        <ele>375.744</ele>
        <time>2019-12-10T22:12:54Z</time>
      </trkpt>
      <trkpt lat="43.08843" lon="0.27522">
        <ele>370.505</ele>
        <time>2019-12-10T22:13:14Z</time>
      </trkpt>
      <trkpt lat="43.08879" lon="0.27438">
        <ele>364.815</ele>
        <time>2019-12-10T22:13:34Z</time>
      </trkpt>
      <trkpt lat="43.08958" lon="0.27341">
        <ele>355.508</ele>
        <time>2019-12-10T22:13:54Z</time>
      </trkpt>
      <trkpt lat="43.08944" lon="0.2729">
        <ele>351.79</ele>
        <time>2019-12-10T22:14:14Z</time>
      </trkpt>
      <trkpt lat="43.09" lon="0.27221">
        <ele>352.079</ele>
        <time>2019-12-10T22:14:34Z</time>
      </trkpt>
      <trkpt lat="43.09014" lon="0.27165">
        <ele>349.995</ele>
        <time>2019-12-10T22:14:54Z</time>
      </trkpt>
      <trkpt lat="43.09025" lon="0.27101">
        <ele>347.211</ele>
        <time>2019-12-10T22:15:14Z</time>
      </trkpt>
      <trkpt lat="43.09061" lon="0.26966">
        <ele>344.842</ele>
        <time>2019-12-10T22:15:34Z</time>
      </trkpt>
      <trkpt lat="43.09077" lon="0.26848">
        <ele>343.074</ele>
        <time>2019-12-10T22:15:54Z</time>
      </trkpt>
      <trkpt lat="43.09077" lon="0.26644">
        <ele>338.487</ele>
        <time>2019-12-10T22:16:14Z</time>
      </trkpt>
      <trkpt lat="43.09113" lon="0.26554">
        <ele>337.959</ele>
        <time>2019-12-10T22:16:34Z</time>
      </trkpt>
      <trkpt lat="43.09144" lon="0.26423">
        <ele>337.048</ele>
        <time>2019-12-10T22:16:54Z</time>
      </trkpt>
      <trkpt lat="43.09155" lon="0.26193">
        <ele>339.861</ele>
        <time>2019-12-10T22:17:14Z</time>
      </trkpt>
      <trkpt lat="43.0918" lon="0.26174">
        <ele>339.417</ele>
        <time>2019-12-10T22:17:34Z</time>
      </trkpt>
      <trkpt lat="43.09219" lon="0.262">
        <ele>337.408</ele>
        <time>2019-12-10T22:17:54Z</time>
      </trkpt>
      <trkpt lat="43.09312" lon="0.26174">
        <ele>335.06</ele>
        <time>2019-12-10T22:18:14Z</time>
      </trkpt>
      <trkpt lat="43.09395" lon="0.26163">
        <ele>331.519</ele>
        <time>2019-12-10T22:18:34Z</time>
      </trkpt>
      <trkpt lat="43.09417" lon="0.26429">
        <ele>330.595</ele>
        <time>2019-12-10T22:18:54Z</time>
      </trkpt>
      <trkpt lat="43.09417" lon="0.2647">
        <ele>331.911</ele>
        <time>2019-12-10T22:19:14Z</time>
      </trkpt>
      <trkpt lat="43.09445" lon="0.26477">
        <ele>337.752</ele>
        <time>2019-12-10T22:19:34Z</time>
      </trkpt>
      <trkpt lat="43.09503" lon="0.2641">
        <ele>336.624</ele>
        <time>2019-12-10T22:19:54Z</time>
      </trkpt>
      <trkpt lat="43.09578" lon="0.26395">
        <ele>335.717</ele>
        <time>2019-12-10T22:20:14Z</time>
      </trkpt>
      <trkpt lat="43.09711" lon="0.26475">
        <ele>337.149</ele>
        <time>2019-12-10T22:20:34Z</time>
      </trkpt>
      <trkpt lat="43.09771" lon="0.26498">
        <ele>333.122</ele>
        <time>2019-12-10T22:20:54Z</time>
      </trkpt>
      <trkpt lat="43.09785" lon="0.26552">
        <ele>338.962</ele>
        <time>2019-12-10T22:21:14Z</time>
      </trkpt>
      <trkpt lat="43.09843" lon="0.26616">
        <ele>332.508</ele>
        <time>2019-12-10T22:21:34Z</time>
      </trkpt>
      <trkpt lat="43.09851" lon="0.26653">
        <ele>333.208</ele>
        <time>2019-12-10T22:21:54Z</time>
      </trkpt>
      <trkpt lat="43.0984" lon="0.2667">
        <ele>335.288</ele>
        <time>2019-12-10T22:22:14Z</time>
      </trkpt>
      <trkpt lat="43.0987" lon="0.26663">
        <ele>330.727</ele>
        <time>2019-12-10T22:22:34Z</time>
      </trkpt>
      <trkpt lat="43.09896" lon="0.26674">
        <ele>330.013</ele>
        <time>2019-12-10T22:22:54Z</time>
      </trkpt>
      <trkpt lat="43.09907" lon="0.26723">
        <ele>330.549</ele>
        <time>2019-12-10T22:23:14Z</time>
      </trkpt>
      <trkpt lat="43.09937" lon="0.26801">
        <ele>332.22</ele>
        <time>2019-12-10T22:23:34Z</time>
      </trkpt>
      <trkpt lat="43.09957" lon="0.26837">
        <ele>331.942</ele>
        <time>2019-12-10T22:23:54Z</time>
      </trkpt>
      <trkpt lat="43.09982" lon="0.26929">
        <ele>332.255</ele>
        <time>2019-12-10T22:24:14Z</time>
      </trkpt>
      <trkpt lat="43.09975" lon="0.2699">
        <ele>334.277</ele>
        <time>2019-12-10T22:24:34Z</time>
      </trkpt>
      <trkpt lat="43.09993" lon="0.2703">
        <ele>332.682</ele>
        <time>2019-12-10T22:24:54Z</time>
      </trkpt>
      <trkpt lat="43.09987" lon="0.27077">
        <ele>337.743</ele>
        <time>2019-12-10T22:25:14Z</time>
      </trkpt>
      <trkpt lat="43.0996" lon="0.27135">
        <ele>345.617</ele>
        <time>2019-12-10T22:25:34Z</time>
      </trkpt>
      <trkpt lat="43.0999" lon="0.27142">
        <ele>339.108</ele>
        <time>2019-12-10T22:25:54Z</time>
      </trkpt>
      <trkpt lat="43.09993" lon="0.27198">
        <ele>344.314</ele>
        <time>2019-12-10T22:26:14Z</time>
      </trkpt>
      <trkpt lat="43.10007" lon="0.27232">
        <ele>343.643</ele>
        <time>2019-12-10T22:26:34Z</time>
      </trkpt>
      <trkpt lat="43.09996" lon="0.27283">
        <ele>350.649</ele>
        <time>2019-12-10T22:26:54Z</time>
      </trkpt>
      <trkpt lat="43.10006" lon="0.27294">
        <ele>348.455</ele>
        <time>2019-12-10T22:27:14Z</time>
      </trkpt>
      <trkpt lat="43.10036" lon="0.27344">
        <ele>345.016</ele>
        <time>2019-12-10T22:27:34Z</time>
      </trkpt>
      <trkpt lat="43.10067" lon="0.27389">
        <ele>339.938</ele>
        <time>2019-12-10T22:27:54Z</time>
      </trkpt>
      <trkpt lat="43.1008" lon="0.27421">
        <ele>334.541</ele>
        <time>2019-12-10T22:28:14Z</time>
      </trkpt>
      <trkpt lat="43.10062" lon="0.27449">
        <ele>335.163</ele>
        <time>2019-12-10T22:28:34Z</time>
      </trkpt>
      <trkpt lat="43.10062" lon="0.27462">
        <ele>335.248</ele>
        <time>2019-12-10T22:28:54Z</time>
      </trkpt>
      <trkpt lat="43.10123" lon="0.27489">
        <ele>333.261</ele>
        <time>2019-12-10T22:29:14Z</time>
      </trkpt>
      <trkpt lat="43.10152" lon="0.27472">
        <ele>331.017</ele>
        <time>2019-12-10T22:29:34Z</time>
      </trkpt>
      <trkpt lat="43.10249" lon="0.27365">
        <ele>330.008</ele>
        <time>2019-12-10T22:29:54Z</time>
      </trkpt>
      <trkpt lat="43.10232" lon="0.27303">
        <ele>330.03</ele>
        <time>2019-12-10T22:30:14Z</time>
      </trkpt>
      <trkpt lat="43.10264" lon="0.27217">
        <ele>330.099</ele>
        <time>2019-12-10T22:30:34Z</time>
      </trkpt>
      <trkpt lat="43.10302" lon="0.2717">
        <ele>330.055</ele>
        <time>2019-12-10T22:30:54Z</time>
      </trkpt>
      <trkpt lat="43.10347" lon="0.27125">
        <ele>331.821</ele>
        <time>2019-12-10T22:31:14Z</time>
      </trkpt>
      <trkpt lat="43.10329" lon="0.26979">
        <ele>330.092</ele>
        <time>2019-12-10T22:31:34Z</time>
      </trkpt>
      <trkpt lat="43.10352" lon="0.26923">
        <ele>335.174</ele>
        <time>2019-12-10T22:31:54Z</time>
      </trkpt>
      <trkpt lat="43.10326" lon="0.26874">
        <ele>340.787</ele>
        <time>2019-12-10T22:32:14Z</time>
      </trkpt>
      <trkpt lat="43.10271" lon="0.26678">
        <ele>353.859</ele>
        <time>2019-12-10T22:32:34Z</time>
      </trkpt>
      <trkpt lat="43.10332" lon="0.26616">
        <ele>339.736</ele>
        <time>2019-12-10T22:32:54Z</time>
      </trkpt>
      <trkpt lat="43.10346" lon="0.26522">
        <ele>335.217</ele>
        <time>2019-12-10T22:33:14Z</time>
      </trkpt>
      <trkpt lat="43.10379" lon="0.26487">
        <ele>318.618</ele>
        <time>2019-12-10T22:33:34Z</time>
      </trkpt>
      <trkpt lat="43.10393" lon="0.2644">
        <ele>316.208</ele>
        <time>2019-12-10T22:33:54Z</time>
      </trkpt>
      <trkpt lat="43.10451" lon="0.26318">
        <ele>317.979</ele>
        <time>2019-12-10T22:34:14Z</time>
      </trkpt>
      <trkpt lat="43.10456" lon="0.26266">
        <ele>325.788</ele>
        <time>2019-12-10T22:34:34Z</time>
      </trkpt>
      <trkpt lat="43.10474" lon="0.26215">
        <ele>327.294</ele>
        <time>2019-12-10T22:34:54Z</time>
      </trkpt>
      <trkpt lat="43.10484" lon="0.26166">
        <ele>330.04</ele>
        <time>2019-12-10T22:35:14Z</time>
      </trkpt>
      <trkpt lat="43.10542" lon="0.26069">
        <ele>325.631</ele>
        <time>2019-12-10T22:35:34Z</time>
      </trkpt>
      <trkpt lat="43.10576" lon="0.26052">
        <ele>317.243</ele>
        <time>2019-12-10T22:35:54Z</time>
      </trkpt>
      <trkpt lat="43.10625" lon="0.25979">
        <ele>322.746</ele>
        <time>2019-12-10T22:36:14Z</time>
      </trkpt>
      <trkpt lat="43.10689" lon="0.25938">
        <ele>319.368</ele>
        <time>2019-12-10T22:36:34Z</time>
      </trkpt>
      <trkpt lat="43.10741" lon="0.25878">
        <ele>321.463</ele>
        <time>2019-12-10T22:36:54Z</time>
      </trkpt>
      <trkpt lat="43.10808" lon="0.25842">
        <ele>317.944</ele>
        <time>2019-12-10T22:37:14Z</time>
      </trkpt>
      <trkpt lat="43.10932" lon="0.2579">
        <ele>310.818</ele>
        <time>2019-12-10T22:37:34Z</time>
      </trkpt>
      <trkpt lat="43.10922" lon="0.25655">
        <ele>316.108</ele>
        <time>2019-12-10T22:37:54Z</time>
      </trkpt>
      <trkpt lat="43.10886" lon="0.25571">
        <ele>322.772</ele>
        <time>2019-12-10T22:38:14Z</time>
      </trkpt>
      <trkpt lat="43.10883" lon="0.25466">
        <ele>315.821</ele>
        <time>2019-12-10T22:38:34Z</time>
      </trkpt>
      <trkpt lat="43.1085" lon="0.2535">
        <ele>326.517</ele>
        <time>2019-12-10T22:38:54Z</time>
      </trkpt>
      <trkpt lat="43.10833" lon="0.25234">
        <ele>322.983</ele>
        <time>2019-12-10T22:39:14Z</time>
      </trkpt>
      <trkpt lat="43.10764" lon="0.25148">
        <ele>326.074</ele>
        <time>2019-12-10T22:39:34Z</time>
      </trkpt>
      <trkpt lat="43.10758" lon="0.25095">
        <ele>321.366</ele>
        <time>2019-12-10T22:39:54Z</time>
      </trkpt>
      <trkpt lat="43.10734" lon="0.25084">
        <ele>325.649</ele>
        <time>2019-12-10T22:40:14Z</time>
      </trkpt>
      <trkpt lat="43.1072" lon="0.25028">
        <ele>321.511</ele>
        <time>2019-12-10T22:40:34Z</time>
      </trkpt>
      <trkpt lat="43.10698" lon="0.25013">
        <ele>324.351</ele>
        <time>2019-12-10T22:40:54Z</time>
      </trkpt>
      <trkpt lat="43.10667" lon="0.24964">
        <ele>324.401</ele>
        <time>2019-12-10T22:41:14Z</time>
      </trkpt>
      <trkpt lat="43.10651" lon="0.24897">
        <ele>321.111</ele>
        <time>2019-12-10T22:41:34Z</time>
      </trkpt>
      <trkpt lat="43.10626" lon="0.24885">
        <ele>325.608</ele>
        <time>2019-12-10T22:41:54Z</time>
      </trkpt>
      <trkpt lat="43.10614" lon="0.24839">
        <ele>331.081</ele>
        <time>2019-12-10T22:42:14Z</time>
      </trkpt>
      <trkpt lat="43.10631" lon="0.24777">
        <ele>325.47</ele>
        <time>2019-12-10T22:42:34Z</time>
      </trkpt>
      <trkpt lat="43.10601" lon="0.24691">
        <ele>323.916</ele>
        <time>2019-12-10T22:42:54Z</time>
      </trkpt>
      <trkpt lat="43.10564" lon="0.24651">
        <ele>329.152</ele>
        <time>2019-12-10T22:43:14Z</time>
      </trkpt>
      <trkpt lat="43.1057" lon="0.24528">
        <ele>323.483</ele>
        <time>2019-12-10T22:43:34Z</time>
      </trkpt>
      <trkpt lat="43.10556" lon="0.24496">
        <ele>326.135</ele>
        <time>2019-12-10T22:43:54Z</time>
      </trkpt>
      <trkpt lat="43.1055" lon="0.24299">
        <ele>329.678</ele>
        <time>2019-12-10T22:44:14Z</time>
      </trkpt>
      <trkpt lat="43.10535" lon="0.24262">
        <ele>330.79</ele>
        <time>2019-12-10T22:44:34Z</time>
      </trkpt>
      <trkpt lat="43.10545" lon="0.24243">
        <ele>330.585</ele>
        <time>2019-12-10T22:44:54Z</time>
      </trkpt>
      <trkpt lat="43.10539" lon="0.23921">
        <ele>330.189</ele>
        <time>2019-12-10T22:45:14Z</time>
      </trkpt>
      <trkpt lat="43.10507" lon="0.23857">
        <ele>332.217</ele>
        <time>2019-12-10T22:45:34Z</time>
      </trkpt>
      <trkpt lat="43.10507" lon="0.23801">
        <ele>331.508</ele>
        <time>2019-12-10T22:45:54Z</time>
      </trkpt>
      <trkpt lat="43.10421" lon="0.2376">
        <ele>341.584</ele>
        <time>2019-12-10T22:46:14Z</time>
      </trkpt>
      <trkpt lat="43.10338" lon="0.23689">
        <ele>352.863</ele>
        <time>2019-12-10T22:46:34Z</time>
      </trkpt>
      <trkpt lat="43.10288" lon="0.23634">
        <ele>358.879</ele>
        <time>2019-12-10T22:46:54Z</time>
      </trkpt>
      <trkpt lat="43.10264" lon="0.23629">
        <ele>363.075</ele>
        <time>2019-12-10T22:47:14Z</time>
      </trkpt>
      <trkpt lat="43.10232" lon="0.23737">
        <ele>376.246</ele>
        <time>2019-12-10T22:47:34Z</time>
      </trkpt>
      <trkpt lat="43.10158" lon="0.23825">
        <ele>389.478</ele>
        <time>2019-12-10T22:47:54Z</time>
      </trkpt>
      <trkpt lat="43.10147" lon="0.23876">
        <ele>390.331</ele>
        <time>2019-12-10T22:48:14Z</time>
      </trkpt>
      <trkpt lat="43.10119" lon="0.2391">
        <ele>396.643</ele>
        <time>2019-12-10T22:48:34Z</time>
      </trkpt>
      <trkpt lat="43.10103" lon="0.2382">
        <ele>408.477</ele>
        <time>2019-12-10T22:48:54Z</time>
      </trkpt>
      <trkpt lat="43.10051" lon="0.23689">
        <ele>419.061</ele>
        <time>2019-12-10T22:49:14Z</time>
      </trkpt>
      <trkpt lat="43.09928" lon="0.23533">
        <ele>432.627</ele>
        <time>2019-12-10T22:49:34Z</time>
      </trkpt>
      <trkpt lat="43.09893" lon="0.23518">
        <ele>437.908</ele>
        <time>2019-12-10T22:49:54Z</time>
      </trkpt>
      <trkpt lat="43.09863" lon="0.23513">
        <ele>442.213</ele>
        <time>2019-12-10T22:50:14Z</time>
      </trkpt>
      <trkpt lat="43.09837" lon="0.23481">
        <ele>450.582</ele>
        <time>2019-12-10T22:50:34Z</time>
      </trkpt>
      <trkpt lat="43.09818" lon="0.23417">
        <ele>456.018</ele>
        <time>2019-12-10T22:50:54Z</time>
      </trkpt>
      <trkpt lat="43.09826" lon="0.23305">
        <ele>464.884</ele>
        <time>2019-12-10T22:51:14Z</time>
      </trkpt>
      <trkpt lat="43.0981" lon="0.23153">
        <ele>470.075</ele>
        <time>2019-12-10T22:51:34Z</time>
      </trkpt>
      <trkpt lat="43.09818" lon="0.22902">
        <ele>466.187</ele>
        <time>2019-12-10T22:51:54Z</time>
      </trkpt>
      <trkpt lat="43.09808" lon="0.22818">
        <ele>463.97</ele>
        <time>2019-12-10T22:52:14Z</time>
      </trkpt>
      <trkpt lat="43.09779" lon="0.22726">
        <ele>467.642</ele>
        <time>2019-12-10T22:52:34Z</time>
      </trkpt>
      <trkpt lat="43.09788" lon="0.22591">
        <ele>477.991</ele>
        <time>2019-12-10T22:52:54Z</time>
      </trkpt>
      <trkpt lat="43.09771" lon="0.22503">
        <ele>483.581</ele>
        <time>2019-12-10T22:53:14Z</time>
      </trkpt>
      <trkpt lat="43.09707" lon="0.22337">
        <ele>493.219</ele>
        <time>2019-12-10T22:53:34Z</time>
      </trkpt>
      <trkpt lat="43.09614" lon="0.22147">
        <ele>487.208</ele>
        <time>2019-12-10T22:53:54Z</time>
      </trkpt>
      <trkpt lat="43.09541" lon="0.22046">
        <ele>483.665</ele>
        <time>2019-12-10T22:54:14Z</time>
      </trkpt>
      <trkpt lat="43.09445" lon="0.21953">
        <ele>501.014</ele>
        <time>2019-12-10T22:54:34Z</time>
      </trkpt>
      <trkpt lat="43.09378" lon="0.21928">
        <ele>511.09</ele>
        <time>2019-12-10T22:54:54Z</time>
      </trkpt>
      <trkpt lat="43.09331" lon="0.21915">
        <ele>519.826</ele>
        <time>2019-12-10T22:55:14Z</time>
      </trkpt>
      <trkpt lat="43.0928" lon="0.21932">
        <ele>519.877</ele>
        <time>2019-12-10T22:55:34Z</time>
      </trkpt>
      <trkpt lat="43.09249" lon="0.21844">
        <ele>529.319</ele>
        <time>2019-12-10T22:55:54Z</time>
      </trkpt>
      <trkpt lat="43.09248" lon="0.21644">
        <ele>551.032</ele>
        <time>2019-12-10T22:56:14Z</time>
      </trkpt>
      <trkpt lat="43.09229" lon="0.21604">
        <ele>554.534</ele>
        <time>2019-12-10T22:56:34Z</time>
      </trkpt>
      <trkpt lat="43.09194" lon="0.21567">
        <ele>558.897</ele>
        <time>2019-12-10T22:56:54Z</time>
      </trkpt>
      <trkpt lat="43.09147" lon="0.2155">
        <ele>564.923</ele>
        <time>2019-12-10T22:57:14Z</time>
      </trkpt>
      <trkpt lat="43.09111" lon="0.21563">
        <ele>565.725</ele>
        <time>2019-12-10T22:57:34Z</time>
      </trkpt>
      <trkpt lat="43.09091" lon="0.21539">
        <ele>566.108</ele>
        <time>2019-12-10T22:57:54Z</time>
      </trkpt>
      <trkpt lat="43.09069" lon="0.21471">
        <ele>567.055</ele>
        <time>2019-12-10T22:58:14Z</time>
      </trkpt>
      <trkpt lat="43.09027" lon="0.21441">
        <ele>568.334</ele>
        <time>2019-12-10T22:58:34Z</time>
      </trkpt>
      <trkpt lat="43.08857" lon="0.21464">
        <ele>559.05</ele>
        <time>2019-12-10T22:58:54Z</time>
      </trkpt>
      <trkpt lat="43.08726" lon="0.21516">
        <ele>559.926</ele>
        <time>2019-12-10T22:59:14Z</time>
      </trkpt>
      <trkpt lat="43.0868" lon="0.21576">
        <ele>559.627</ele>
        <time>2019-12-10T22:59:34Z</time>
      </trkpt>
      <trkpt lat="43.08649" lon="0.21642">
        <ele>553.999</ele>
        <time>2019-12-10T22:59:54Z</time>
      </trkpt>
      <trkpt lat="43.08632" lon="0.21683">
        <ele>549.892</ele>
        <time>2019-12-10T23:00:14Z</time>
      </trkpt>
      <trkpt lat="43.08603" lon="0.21687">
        <ele>545.414</ele>
        <time>2019-12-10T23:00:34Z</time>
      </trkpt>
      <trkpt lat="43.08517" lon="0.21617">
        <ele>538.049</ele>
        <time>2019-12-10T23:00:54Z</time>
      </trkpt>
      <trkpt lat="43.08356" lon="0.21529">
        <ele>558.502</ele>
        <time>2019-12-10T23:01:14Z</time>
      </trkpt>
      <trkpt lat="43.08307" lon="0.21466">
        <ele>561.222</ele>
        <time>2019-12-10T23:01:34Z</time>
      </trkpt>
      <trkpt lat="43.08152" lon="0.21402">
        <ele>589.808</ele>
        <time>2019-12-10T23:01:54Z</time>
      </trkpt>
      <trkpt lat="43.08201" lon="0.21358">
        <ele>582.13</ele>
        <time>2019-12-10T23:02:14Z</time>
      </trkpt>
      <trkpt lat="43.0823" lon="0.21304">
        <ele>574.719</ele>
        <time>2019-12-10T23:02:34Z</time>
      </trkpt>
      <trkpt lat="43.0823" lon="0.21265">
        <ele>571.225</ele>
        <time>2019-12-10T23:02:54Z</time>
      </trkpt>
      <trkpt lat="43.08216" lon="0.21234">
        <ele>567.451</ele>
        <time>2019-12-10T23:03:14Z</time>
      </trkpt>
      <trkpt lat="43.08171" lon="0.21199">
        <ele>564.812</ele>
        <time>2019-12-10T23:03:34Z</time>
      </trkpt>
      <trkpt lat="43.08151" lon="0.21077">
        <ele>557.964</ele>
        <time>2019-12-10T23:03:54Z</time>
      </trkpt>
      <trkpt lat="43.08123" lon="0.21002">
        <ele>552.927</ele>
        <time>2019-12-10T23:04:14Z</time>
      </trkpt>
      <trkpt lat="43.08094" lon="0.20966">
        <ele>546.439</ele>
        <time>2019-12-10T23:04:34Z</time>
      </trkpt>
      <trkpt lat="43.08054" lon="0.20933">
        <ele>541.615</ele>
        <time>2019-12-10T23:04:54Z</time>
      </trkpt>
      <trkpt lat="43.08041" lon="0.20887">
        <ele>534.165</ele>
        <time>2019-12-10T23:05:14Z</time>
      </trkpt>
      <trkpt lat="43.08016" lon="0.20858">
        <ele>530.011</ele>
        <time>2019-12-10T23:05:34Z</time>
      </trkpt>
      <trkpt lat="43.07987" lon="0.20856">
        <ele>531.308</ele>
        <time>2019-12-10T23:05:54Z</time>
      </trkpt>
      <trkpt lat="43.07975" lon="0.20837">
        <ele>527.677</ele>
        <time>2019-12-10T23:06:14Z</time>
      </trkpt>
      <trkpt lat="43.07989" lon="0.20753">
        <ele>512.326</ele>
        <time>2019-12-10T23:06:34Z</time>
      </trkpt>
      <trkpt lat="43.07978" lon="0.20689">
        <ele>499.142</ele>
        <time>2019-12-10T23:06:54Z</time>
      </trkpt>
      <trkpt lat="43.07943" lon="0.20661">
        <ele>490.858</ele>
        <time>2019-12-10T23:07:14Z</time>
      </trkpt>
      <trkpt lat="43.07914" lon="0.20657">
        <ele>485.519</ele>
        <time>2019-12-10T23:07:34Z</time>
      </trkpt>
      <trkpt lat="43.07885" lon="0.20669">
        <ele>482.091</ele>
        <time>2019-12-10T23:07:54Z</time>
      </trkpt>
      <trkpt lat="43.07857" lon="0.20636">
        <ele>470.174</ele>
        <time>2019-12-10T23:08:14Z</time>
      </trkpt>
      <trkpt lat="43.07857" lon="0.20586">
        <ele>470.026</ele>
        <time>2019-12-10T23:08:34Z</time>
      </trkpt>
      <trkpt lat="43.07877" lon="0.20539">
        <ele>477.819</ele>
        <time>2019-12-10T23:08:54Z</time>
      </trkpt>
      <trkpt lat="43.07862" lon="0.20481">
        <ele>496.209</ele>
        <time>2019-12-10T23:09:14Z</time>
      </trkpt>
      <trkpt lat="43.07864" lon="0.20455">
        <ele>505.019</ele>
        <time>2019-12-10T23:09:34Z</time>
      </trkpt>
      <trkpt lat="43.07861" lon="0.20415">
        <ele>514.308</ele>
        <time>2019-12-10T23:09:54Z</time>
      </trkpt>
      <trkpt lat="43.07908" lon="0.20392">
        <ele>521.087</ele>
        <time>2019-12-10T23:10:14Z</time>
      </trkpt>
      <trkpt lat="43.07932" lon="0.20347">
        <ele>528.476</ele>
        <time>2019-12-10T23:10:34Z</time>
      </trkpt>
      <trkpt lat="43.07985" lon="0.20282">
        <ele>531.872</ele>
        <time>2019-12-10T23:10:54Z</time>
      </trkpt>
      <trkpt lat="43.0801" lon="0.2008">
        <ele>534.898</ele>
        <time>2019-12-10T23:11:14Z</time>
      </trkpt>
      <trkpt lat="43.08001" lon="0.20016">
        <ele>538.479</ele>
        <time>2019-12-10T23:11:34Z</time>
      </trkpt>
      <trkpt lat="43.07922" lon="0.19918">
        <ele>553.451</ele>
        <time>2019-12-10T23:11:54Z</time>
      </trkpt>
      <trkpt lat="43.07847" lon="0.19784">
        <ele>559.884</ele>
        <time>2019-12-10T23:12:14Z</time>
      </trkpt>
      <trkpt lat="43.07816" lon="0.19688">
        <ele>560.086</ele>
        <time>2019-12-10T23:12:34Z</time>
      </trkpt>
      <trkpt lat="43.07819" lon="0.19599">
        <ele>560.063</ele>
        <time>2019-12-10T23:12:54Z</time>
      </trkpt>
      <trkpt lat="43.07848" lon="0.19523">
        <ele>559.144</ele>
        <time>2019-12-10T23:13:14Z</time>
      </trkpt>
      <trkpt lat="43.07789" lon="0.19472">
        <ele>550.218</ele>
        <time>2019-12-10T23:13:34Z</time>
      </trkpt>
      <trkpt lat="43.0774" lon="0.19395">
        <ele>536.108</ele>
        <time>2019-12-10T23:13:54Z</time>
      </trkpt>
      <trkpt lat="43.07713" lon="0.19303">
        <ele>520.552</ele>
        <time>2019-12-10T23:14:14Z</time>
      </trkpt>
      <trkpt lat="43.07682" lon="0.19306">
        <ele>514.171</ele>
        <time>2019-12-10T23:14:34Z</time>
      </trkpt>
      <trkpt lat="43.07658" lon="0.19338">
        <ele>512.477</ele>
        <time>2019-12-10T23:14:54Z</time>
      </trkpt>
      <trkpt lat="43.07628" lon="0.19397">
        <ele>509.133</ele>
        <time>2019-12-10T23:15:14Z</time>
      </trkpt>
      <trkpt lat="43.07593" lon="0.19449">
        <ele>506.364</ele>
        <time>2019-12-10T23:15:34Z</time>
      </trkpt>
      <trkpt lat="43.07592" lon="0.19434">
        <ele>503.616</ele>
        <time>2019-12-10T23:15:54Z</time>
      </trkpt>
      <trkpt lat="43.07617" lon="0.19402">
        <ele>504.719</ele>
        <time>2019-12-10T23:16:14Z</time>
      </trkpt>
      <trkpt lat="43.07633" lon="0.19363">
        <ele>505.051</ele>
        <time>2019-12-10T23:16:34Z</time>
      </trkpt>
      <trkpt lat="43.0765" lon="0.19276">
        <ele>500.888</ele>
        <time>2019-12-10T23:16:54Z</time>
      </trkpt>
      <trkpt lat="43.0764" lon="0.1926">
        <ele>500.124</ele>
        <time>2019-12-10T23:17:14Z</time>
      </trkpt>
      <trkpt lat="43.07606" lon="0.19253">
        <ele>501.226</ele>
        <time>2019-12-10T23:17:34Z</time>
      </trkpt>
      <trkpt lat="43.07584" lon="0.19158">
        <ele>505.108</ele>
        <time>2019-12-10T23:17:54Z</time>
      </trkpt>
      <trkpt lat="43.07593" lon="0.1908">
        <ele>527.424</ele>
        <time>2021-02-06T14:09:11Z</time>
      </trkpt>
      <trkpt lat="43.07586" lon="0.19041">
        <ele>527.443</ele>
        <time>2021-02-06T14:09:31Z</time>
      </trkpt>
      <trkpt lat="43.07546" lon="0.18954">
        <ele>528.749</ele>
        <time>2021-02-06T14:09:51Z</time>
      </trkpt>
      <trkpt lat="43.07519" lon="0.18935">
        <ele>527.115</ele>
        <time>2021-02-06T14:10:11Z</time>
      </trkpt>
      <trkpt lat="43.07495" lon="0.18951">
        <ele>526.126</ele>
        <time>2021-02-06T14:10:31Z</time>
      </trkpt>
      <trkpt lat="43.07483" lon="0.18976">
        <ele>527.918</ele>
        <time>2021-02-06T14:10:51Z</time>
      </trkpt>
      <trkpt lat="43.07473" lon="0.19013">
        <ele>528.841</ele>
        <time>2021-02-06T14:11:11Z</time>
      </trkpt>
      <trkpt lat="43.07421" lon="0.19076">
        <ele>526.663</ele>
        <time>2021-02-06T14:11:31Z</time>
      </trkpt>
      <trkpt lat="43.07397" lon="0.19134">
        <ele>534.555</ele>
        <time>2021-02-06T14:11:51Z</time>
      </trkpt>
      <trkpt lat="43.07362" lon="0.1915">
        <ele>535.307</ele>
        <time>2021-02-06T14:12:11Z</time>
      </trkpt>
      <trkpt lat="43.07317" lon="0.19192">
        <ele>537.417</ele>
        <time>2021-02-06T14:12:31Z</time>
      </trkpt>
      <trkpt lat="43.07304" lon="0.19228">
        <ele>539.208</ele>
        <time>2021-02-06T14:12:51Z</time>
      </trkpt>
      <trkpt lat="43.07259" lon="0.19264">
        <ele>536.881</ele>
        <time>2021-02-06T14:13:11Z</time>
      </trkpt>
      <trkpt lat="43.07247" lon="0.19291">
        <ele>537.23</ele>
        <time>2021-02-06T14:13:31Z</time>
      </trkpt>
      <trkpt lat="43.07234" lon="0.19307">
        <ele>541.976</ele>
        <time>2021-02-06T14:13:51Z</time>
      </trkpt>
      <trkpt lat="43.07231" lon="0.19374">
        <ele>542.532</ele>
        <time>2021-02-06T14:14:11Z</time>
      </trkpt>
      <trkpt lat="43.07204" lon="0.19404">
        <ele>545.453</ele>
        <time>2021-02-06T14:14:31Z</time>
      </trkpt>
      <trkpt lat="43.07153" lon="0.19208">
        <ele>585.875</ele>
        <time>2021-02-06T14:14:51Z</time>
      </trkpt>
      <trkpt lat="43.07165" lon="0.19198">
        <ele>583.378</ele>
        <time>2021-02-06T14:15:11Z</time>
      </trkpt>
      <trkpt lat="43.07207" lon="0.19191">
        <ele>568.68</ele>
        <time>2021-02-06T14:15:31Z</time>
      </trkpt>
      <trkpt lat="43.07234" lon="0.19163">
        <ele>566.145</ele>
        <time>2021-02-06T14:15:51Z</time>
      </trkpt>
      <trkpt lat="43.07252" lon="0.19119">
        <ele>575.047</ele>
        <time>2021-02-06T14:16:11Z</time>
      </trkpt>
      <trkpt lat="43.07263" lon="0.19045">
        <ele>592.611</ele>
        <time>2021-02-06T14:16:31Z</time>
      </trkpt>
      <trkpt lat="43.0729" lon="0.18991">
        <ele>594.508</ele>
        <time>2021-02-06T14:16:51Z</time>
      </trkpt>
      <trkpt lat="43.07289" lon="0.18945">
        <ele>599.66</ele>
        <time>2021-02-06T14:17:11Z</time>
      </trkpt>
      <trkpt lat="43.07278" lon="0.1888">
        <ele>611.619</ele>
        <time>2021-02-06T14:17:31Z</time>
      </trkpt>
      <trkpt lat="43.07292" lon="0.18824">
        <ele>612.285</ele>
        <time>2021-02-06T14:17:51Z</time>
      </trkpt>
      <trkpt lat="43.07306" lon="0.18792">
        <ele>608.011</ele>
        <time>2021-02-06T14:18:11Z</time>
      </trkpt>
      <trkpt lat="43.07304" lon="0.18761">
        <ele>609.742</ele>
        <time>2021-02-06T14:18:31Z</time>
      </trkpt>
      <trkpt lat="43.07214" lon="0.1874">
        <ele>627.194</ele>
        <time>2019-12-10T23:22:14Z</time>
      </trkpt>
      <trkpt lat="43.07218" lon="0.18768">
        <ele>629.947</ele>
        <time>2019-12-10T23:22:34Z</time>
      </trkpt>
      <trkpt lat="43.072" lon="0.18811">
        <ele>635.679</ele>
        <time>2019-12-10T23:22:54Z</time>
      </trkpt>
      <trkpt lat="43.0714" lon="0.1885">
        <ele>649.985</ele>
        <time>2019-12-10T23:23:14Z</time>
      </trkpt>
      <trkpt lat="43.07132" lon="0.18907">
        <ele>651.389</ele>
        <time>2019-12-10T23:23:34Z</time>
      </trkpt>
      <trkpt lat="43.0708" lon="0.18961">
        <ele>660.217</ele>
        <time>2019-12-10T23:23:54Z</time>
      </trkpt>
      <trkpt lat="43.07001" lon="0.19001">
        <ele>670.708</ele>
        <time>2019-12-10T23:24:14Z</time>
      </trkpt>
      <trkpt lat="43.06933" lon="0.19101">
        <ele>674.724</ele>
        <time>2019-12-10T23:24:34Z</time>
      </trkpt>
      <trkpt lat="43.06861" lon="0.19144">
        <ele>675.233</ele>
        <time>2019-12-10T23:24:54Z</time>
      </trkpt>
      <trkpt lat="43.06846" lon="0.19132">
        <ele>678.069</ele>
        <time>2019-12-10T23:25:14Z</time>
      </trkpt>
      <trkpt lat="43.06832" lon="0.19099">
        <ele>680.025</ele>
        <time>2019-12-10T23:25:34Z</time>
      </trkpt>
      <trkpt lat="43.06703" lon="0.19083">
        <ele>689.796</ele>
        <time>2019-12-10T23:25:54Z</time>
      </trkpt>
      <trkpt lat="43.06715" lon="0.1913">
        <ele>697.758</ele>
        <time>2019-12-10T23:26:14Z</time>
      </trkpt>
      <trkpt lat="43.06717" lon="0.19216">
        <ele>705.111</ele>
        <time>2019-12-10T23:26:34Z</time>
      </trkpt>
      <trkpt lat="43.0668" lon="0.19291">
        <ele>713.873</ele>
        <time>2019-12-10T23:26:54Z</time>
      </trkpt>
      <trkpt lat="43.06641" lon="0.19357">
        <ele>720.796</ele>
        <time>2019-12-10T23:27:14Z</time>
      </trkpt>
      <trkpt lat="43.06561" lon="0.19397">
        <ele>727.331</ele>
        <time>2019-12-10T23:27:34Z</time>
      </trkpt>
      <trkpt lat="43.06493" lon="0.19359">
        <ele>729.024</ele>
        <time>2019-12-10T23:27:54Z</time>
      </trkpt>
      <trkpt lat="43.06413" lon="0.19324">
        <ele>731.208</ele>
        <time>2019-12-10T23:28:14Z</time>
      </trkpt>
      <trkpt lat="43.06384" lon="0.19275">
        <ele>730.265</ele>
        <time>2019-12-10T23:28:34Z</time>
      </trkpt>
      <trkpt lat="43.06278" lon="0.19268">
        <ele>732.674</ele>
        <time>2019-12-10T23:28:54Z</time>
      </trkpt>
      <trkpt lat="43.06223" lon="0.19245">
        <ele>733.63</ele>
        <time>2019-12-10T23:29:14Z</time>
      </trkpt>
      <trkpt lat="43.06183" lon="0.19209">
        <ele>741.766</ele>
        <time>2019-12-10T23:29:34Z</time>
      </trkpt>
      <trkpt lat="43.06139" lon="0.19129">
        <ele>751.867</ele>
        <time>2019-12-10T23:29:54Z</time>
      </trkpt>
      <trkpt lat="43.06064" lon="0.19076">
        <ele>766.559</ele>
        <time>2019-12-10T23:30:14Z</time>
      </trkpt>
      <trkpt lat="43.0603" lon="0.19083">
        <ele>777.422</ele>
        <time>2019-12-10T23:30:34Z</time>
      </trkpt>
      <trkpt lat="43.05979" lon="0.19172">
        <ele>789.374</ele>
        <time>2019-12-10T23:30:54Z</time>
      </trkpt>
      <trkpt lat="43.05946" lon="0.19275">
        <ele>791.891</ele>
        <time>2019-12-10T23:31:14Z</time>
      </trkpt>
      <trkpt lat="43.059" lon="0.19331">
        <ele>799.181</ele>
        <time>2019-12-10T23:31:34Z</time>
      </trkpt>
      <trkpt lat="43.05834" lon="0.19359">
        <ele>807.019</ele>
        <time>2019-12-10T23:31:54Z</time>
      </trkpt>
      <trkpt lat="43.05775" lon="0.1934">
        <ele>810.308</ele>
        <time>2019-12-10T23:32:14Z</time>
      </trkpt>
      <trkpt lat="43.05755" lon="0.19381">
        <ele>812.425</ele>
        <time>2019-12-10T23:32:34Z</time>
      </trkpt>
      <trkpt lat="43.05724" lon="0.19404">
        <ele>813.454</ele>
        <time>2019-12-10T23:32:54Z</time>
      </trkpt>
      <trkpt lat="43.05673" lon="0.19341">
        <ele>821.09</ele>
        <time>2019-12-10T23:33:14Z</time>
      </trkpt>
      <trkpt lat="43.05655" lon="0.19298">
        <ele>823.966</ele>
        <time>2019-12-10T23:33:34Z</time>
      </trkpt>
      <trkpt lat="43.05621" lon="0.19242">
        <ele>829.937</ele>
        <time>2019-12-10T23:33:54Z</time>
      </trkpt>
      <trkpt lat="43.05583" lon="0.19134">
        <ele>839.369</ele>
        <time>2019-12-10T23:34:14Z</time>
      </trkpt>
      <trkpt lat="43.05562" lon="0.19141">
        <ele>844.332</ele>
        <time>2019-12-10T23:34:34Z</time>
      </trkpt>
      <trkpt lat="43.0556" lon="0.19197">
        <ele>845.844</ele>
        <time>2019-12-10T23:34:54Z</time>
      </trkpt>
      <trkpt lat="43.05534" lon="0.19155">
        <ele>850.624</ele>
        <time>2019-12-10T23:35:14Z</time>
      </trkpt>
      <trkpt lat="43.0548" lon="0.19174">
        <ele>860.704</ele>
        <time>2019-12-10T23:35:34Z</time>
      </trkpt>
      <trkpt lat="43.05432" lon="0.19137">
        <ele>863.014</ele>
        <time>2019-12-10T23:35:54Z</time>
      </trkpt>
      <trkpt lat="43.05427" lon="0.18977">
        <ele>854.608</ele>
        <time>2019-12-10T23:36:14Z</time>
      </trkpt>
      <trkpt lat="43.05422" lon="0.18878">
        <ele>850.358</ele>
        <time>2019-12-10T23:36:34Z</time>
      </trkpt>
      <trkpt lat="43.05452" lon="0.1878">
        <ele>843.447</ele>
        <time>2019-12-10T23:36:54Z</time>
      </trkpt>
      <trkpt lat="43.05506" lon="0.18693">
        <ele>830.113</ele>
        <time>2019-12-10T23:37:14Z</time>
      </trkpt>
      <trkpt lat="43.05539" lon="0.18606">
        <ele>827.779</ele>
        <time>2019-12-10T23:37:34Z</time>
      </trkpt>
      <trkpt lat="43.05593" lon="0.18404">
        <ele>817.63</ele>
        <time>2019-12-10T23:37:54Z</time>
      </trkpt>
      <trkpt lat="43.05602" lon="0.18299">
        <ele>803.072</ele>
        <time>2019-12-10T23:38:14Z</time>
      </trkpt>
      <trkpt lat="43.05644" lon="0.18095">
        <ele>773.275</ele>
        <time>2019-12-10T23:38:34Z</time>
      </trkpt>
      <trkpt lat="43.05681" lon="0.1794">
        <ele>749.247</ele>
        <time>2019-12-10T23:38:54Z</time>
      </trkpt>
      <trkpt lat="43.05722" lon="0.17888">
        <ele>742.764</ele>
        <time>2019-12-10T23:39:14Z</time>
      </trkpt>
      <trkpt lat="43.05725" lon="0.17855">
        <ele>737.406</ele>
        <time>2019-12-10T23:39:34Z</time>
      </trkpt>
      <trkpt lat="43.05741" lon="0.17842">
        <ele>736.016</ele>
        <time>2019-12-10T23:39:54Z</time>
      </trkpt>
      <trkpt lat="43.05748" lon="0.1771">
        <ele>728.608</ele>
        <time>2019-12-10T23:40:14Z</time>
      </trkpt>
      <trkpt lat="43.05775" lon="0.1757">
        <ele>716.962</ele>
        <time>2019-12-10T23:40:34Z</time>
      </trkpt>
      <trkpt lat="43.05776" lon="0.17438">
        <ele>705.811</ele>
        <time>2019-12-10T23:40:54Z</time>
      </trkpt>
      <trkpt lat="43.05804" lon="0.17386">
        <ele>696.167</ele>
        <time>2019-12-10T23:41:14Z</time>
      </trkpt>
      <trkpt lat="43.05806" lon="0.17257">
        <ele>673.733</ele>
        <time>2019-12-10T23:41:34Z</time>
      </trkpt>
      <trkpt lat="43.05821" lon="0.17196">
        <ele>668.294</ele>
        <time>2019-12-10T23:41:54Z</time>
      </trkpt>
      <trkpt lat="43.05841" lon="0.17149">
        <ele>665.616</ele>
        <time>2019-12-10T23:42:14Z</time>
      </trkpt>
      <trkpt lat="43.05848" lon="0.17082">
        <ele>652.039</ele>
        <time>2019-12-10T23:42:34Z</time>
      </trkpt>
      <trkpt lat="43.05792" lon="0.17008">
        <ele>640.031</ele>
        <time>2019-12-10T23:42:54Z</time>
      </trkpt>
      <trkpt lat="43.05733" lon="0.16994">
        <ele>632.694</ele>
        <time>2019-12-10T23:43:14Z</time>
      </trkpt>
      <trkpt lat="43.05658" lon="0.1694">
        <ele>621.857</ele>
        <time>2019-12-10T23:43:34Z</time>
      </trkpt>
      <trkpt lat="43.05624" lon="0.16891">
        <ele>609.422</ele>
        <time>2019-12-10T23:43:54Z</time>
      </trkpt>
      <trkpt lat="43.05604" lon="0.16884">
        <ele>604.908</ele>
        <time>2019-12-10T23:44:14Z</time>
      </trkpt>
      <trkpt lat="43.0555" lon="0.1687">
        <ele>591.425</ele>
        <time>2019-12-10T23:44:34Z</time>
      </trkpt>
      <trkpt lat="43.0552" lon="0.16847">
        <ele>588.244</ele>
        <time>2019-12-10T23:44:54Z</time>
      </trkpt>
      <trkpt lat="43.05492" lon="0.16842">
        <ele>587.47</ele>
        <time>2019-12-10T23:45:14Z</time>
      </trkpt>
      <trkpt lat="43.05492" lon="0.16807">
        <ele>586.126</ele>
        <time>2019-12-10T23:45:34Z</time>
      </trkpt>
      <trkpt lat="43.05524" lon="0.1679">
        <ele>585.897</ele>
        <time>2019-12-10T23:45:54Z</time>
      </trkpt>
      <trkpt lat="43.05536" lon="0.16739">
        <ele>582.969</ele>
        <time>2019-12-10T23:46:14Z</time>
      </trkpt>
      <trkpt lat="43.05533" lon="0.16643">
        <ele>578.832</ele>
        <time>2019-12-10T23:46:34Z</time>
      </trkpt>
      <trkpt lat="43.05525" lon="0.16584">
        <ele>577.074</ele>
        <time>2019-12-10T23:46:54Z</time>
      </trkpt>
      <trkpt lat="43.05575" lon="0.16488">
        <ele>573.738</ele>
        <time>2019-12-10T23:47:14Z</time>
      </trkpt>
      <trkpt lat="43.05627" lon="0.16438">
        <ele>570.97</ele>
        <time>2019-12-10T23:47:34Z</time>
      </trkpt>
      <trkpt lat="43.05682" lon="0.16518">
        <ele>572.817</ele>
        <time>2019-12-10T23:47:54Z</time>
      </trkpt>
      <trkpt lat="43.05704" lon="0.16513">
        <ele>573.608</ele>
        <time>2019-12-10T23:48:14Z</time>
      </trkpt>
      <trkpt lat="43.05798" lon="0.16413">
        <ele>570.599</ele>
        <time>2019-12-10T23:48:34Z</time>
      </trkpt>
      <trkpt lat="43.05837" lon="0.16399">
        <ele>578.478</ele>
        <time>2019-12-10T23:48:54Z</time>
      </trkpt>
      <trkpt lat="43.0586" lon="0.16338">
        <ele>568.314</ele>
        <time>2019-12-10T23:49:14Z</time>
      </trkpt>
      <trkpt lat="43.05937" lon="0.1627">
        <ele>567.42</ele>
        <time>2019-12-10T23:49:34Z</time>
      </trkpt>
      <trkpt lat="43.06099" lon="0.16185">
        <ele>569.131</ele>
        <time>2019-12-10T23:49:54Z</time>
      </trkpt>
      <trkpt lat="43.06123" lon="0.16145">
        <ele>561.013</ele>
        <time>2019-12-10T23:50:14Z</time>
      </trkpt>
      <trkpt lat="43.06147" lon="0.16131">
        <ele>560.326</ele>
        <time>2019-12-10T23:50:34Z</time>
      </trkpt>
      <trkpt lat="43.06129" lon="0.1607">
        <ele>557.738</ele>
        <time>2019-12-10T23:50:54Z</time>
      </trkpt>
      <trkpt lat="43.06109" lon="0.16063">
        <ele>558.042</ele>
        <time>2019-12-10T23:51:14Z</time>
      </trkpt>
      <trkpt lat="43.0609" lon="0.15997">
        <ele>557.822</ele>
        <time>2019-12-10T23:51:34Z</time>
      </trkpt>
      <trkpt lat="43.06077" lon="0.16005">
        <ele>558.014</ele>
        <time>2019-12-10T23:51:54Z</time>
      </trkpt>
      <trkpt lat="43.06045" lon="0.15875">
        <ele>557.408</ele>
        <time>2019-12-10T23:52:14Z</time>
      </trkpt>
      <trkpt lat="43.06055" lon="0.15869">
        <ele>557.09</ele>
        <time>2019-12-10T23:52:34Z</time>
      </trkpt>
      <trkpt lat="43.06027" lon="0.1566">
        <ele>554.279</ele>
        <time>2019-12-10T23:52:54Z</time>
      </trkpt>
      <trkpt lat="43.06041" lon="0.15624">
        <ele>554.515</ele>
        <time>2019-12-10T23:53:14Z</time>
      </trkpt>
      <trkpt lat="43.06148" lon="0.15613">
        <ele>551.751</ele>
        <time>2019-12-10T23:53:34Z</time>
      </trkpt>
      <trkpt lat="43.06109" lon="0.15481">
        <ele>553.112</ele>
        <time>2019-12-10T23:53:54Z</time>
      </trkpt>
      <trkpt lat="43.06263" lon="0.15406">
        <ele>550.064</ele>
        <time>2019-12-10T23:54:14Z</time>
      </trkpt>
      <trkpt lat="43.06368" lon="0.15345">
        <ele>549.557</ele>
        <time>2019-12-10T23:54:34Z</time>
      </trkpt>
      <trkpt lat="43.06255" lon="0.15005">
        <ele>552.849</ele>
        <time>2019-12-10T23:54:54Z</time>
      </trkpt>
      <trkpt lat="43.06189" lon="0.14904">
        <ele>554.226</ele>
        <time>2019-12-10T23:55:14Z</time>
      </trkpt>
      <trkpt lat="43.059" lon="0.14757">
        <ele>558.347</ele>
        <time>2019-12-10T23:55:34Z</time>
      </trkpt>
      <trkpt lat="43.05904" lon="0.14725">
        <ele>558.811</ele>
        <time>2019-12-10T23:55:54Z</time>
      </trkpt>
      <trkpt lat="43.05884" lon="0.14712">
        <ele>560.208</ele>
        <time>2019-12-10T23:56:14Z</time>
      </trkpt>
      <trkpt lat="43.05869" lon="0.1469">
        <ele>560.448</ele>
        <time>2019-12-10T23:56:34Z</time>
      </trkpt>
      <trkpt lat="43.05843" lon="0.14676">
        <ele>562.947</ele>
        <time>2019-12-10T23:56:54Z</time>
      </trkpt>
      <trkpt lat="43.05798" lon="0.1461">
        <ele>569.453</ele>
        <time>2019-12-10T23:57:14Z</time>
      </trkpt>
      <trkpt lat="43.05756" lon="0.14591">
        <ele>570.029</ele>
        <time>2019-12-10T23:57:34Z</time>
      </trkpt>
      <trkpt lat="43.05739" lon="0.14568">
        <ele>570.39</ele>
        <time>2019-12-10T23:57:54Z</time>
      </trkpt>
      <trkpt lat="43.05662" lon="0.14554">
        <ele>570.072</ele>
        <time>2019-12-10T23:58:14Z</time>
      </trkpt>
      <trkpt lat="43.05582" lon="0.14593">
        <ele>570.085</ele>
        <time>2019-12-10T23:58:34Z</time>
      </trkpt>
      <trkpt lat="43.05531" lon="0.14588">
        <ele>570.727</ele>
        <time>2019-12-10T23:58:54Z</time>
      </trkpt>
      <trkpt lat="43.05506" lon="0.14601">
        <ele>571.884</ele>
        <time>2019-12-10T23:59:14Z</time>
      </trkpt>
      <trkpt lat="43.05482" lon="0.14602">
        <ele>575.007</ele>
        <time>2019-12-10T23:59:34Z</time>
      </trkpt>
      <trkpt lat="43.05443" lon="0.1465">
        <ele>575.417</ele>
        <time>2019-12-10T23:59:54Z</time>
      </trkpt>
      <trkpt lat="43.05425" lon="0.14704">
        <ele>579.008</ele>
        <time>2019-12-11T00:00:14Z</time>
      </trkpt>
      <trkpt lat="43.05393" lon="0.14743">
        <ele>579.254</ele>
        <time>2019-12-11T00:00:34Z</time>
      </trkpt>
      <trkpt lat="43.05362" lon="0.14761">
        <ele>574.253</ele>
        <time>2019-12-11T00:00:54Z</time>
      </trkpt>
      <trkpt lat="43.05319" lon="0.14755">
        <ele>575.039</ele>
        <time>2019-12-11T00:01:14Z</time>
      </trkpt>
      <trkpt lat="43.05276" lon="0.14758">
        <ele>576.655</ele>
        <time>2019-12-11T00:01:34Z</time>
      </trkpt>
      <trkpt lat="43.0523" lon="0.14729">
        <ele>579.926</ele>
        <time>2019-12-11T00:01:54Z</time>
      </trkpt>
      <trkpt lat="43.05137" lon="0.14684">
        <ele>580.518</ele>
        <time>2019-12-11T00:02:14Z</time>
      </trkpt>
      <trkpt lat="43.05119" lon="0.14703">
        <ele>584.531</ele>
        <time>2019-12-11T00:02:34Z</time>
      </trkpt>
      <trkpt lat="43.05072" lon="0.1481">
        <ele>592.073</ele>
        <time>2019-12-11T00:02:54Z</time>
      </trkpt>
      <trkpt lat="43.05089" lon="0.14634">
        <ele>610.428</ele>
        <time>2019-12-11T00:03:14Z</time>
      </trkpt>
      <trkpt lat="43.0508" lon="0.14623">
        <ele>617.289</ele>
        <time>2019-12-11T00:03:34Z</time>
      </trkpt>
      <trkpt lat="43.05092" lon="0.14559">
        <ele>624.217</ele>
        <time>2019-12-11T00:03:54Z</time>
      </trkpt>
      <trkpt lat="43.0502" lon="0.14678">
        <ele>636.008</ele>
        <time>2019-12-11T00:04:14Z</time>
      </trkpt>
      <trkpt lat="43.05024" lon="0.14609">
        <ele>650.028</ele>
        <time>2019-12-11T00:04:34Z</time>
      </trkpt>
      <trkpt lat="43.05046" lon="0.14569">
        <ele>647.367</ele>
        <time>2019-12-11T00:04:54Z</time>
      </trkpt>
      <trkpt lat="43.05014" lon="0.14596">
        <ele>656.463</ele>
        <time>2019-12-11T00:05:14Z</time>
      </trkpt>
      <trkpt lat="43.0498" lon="0.1466">
        <ele>658.789</ele>
        <time>2019-12-11T00:05:34Z</time>
      </trkpt>
      <trkpt lat="43.05018" lon="0.14512">
        <ele>671.45</ele>
        <time>2019-12-11T00:05:54Z</time>
      </trkpt>
      <trkpt lat="43.04969" lon="0.14622">
        <ele>674.412</ele>
        <time>2019-12-11T00:06:14Z</time>
      </trkpt>
      <trkpt lat="43.04977" lon="0.14525">
        <ele>692.735</ele>
        <time>2019-12-11T00:06:34Z</time>
      </trkpt>
      <trkpt lat="43.04948" lon="0.14587">
        <ele>697.527</ele>
        <time>2019-12-11T00:06:54Z</time>
      </trkpt>
      <trkpt lat="43.04964" lon="0.1449">
        <ele>708.479</ele>
        <time>2019-12-11T00:07:14Z</time>
      </trkpt>
      <trkpt lat="43.04935" lon="0.14544">
        <ele>715.305</ele>
        <time>2019-12-11T00:07:34Z</time>
      </trkpt>
      <trkpt lat="43.04936" lon="0.14521">
        <ele>718.825</ele>
        <time>2019-12-11T00:07:54Z</time>
      </trkpt>
      <trkpt lat="43.0492" lon="0.14541">
        <ele>724.808</ele>
        <time>2019-12-11T00:08:14Z</time>
      </trkpt>
      <trkpt lat="43.04937" lon="0.14471">
        <ele>730.333</ele>
        <time>2019-12-11T00:08:34Z</time>
      </trkpt>
      <trkpt lat="43.04876" lon="0.14587">
        <ele>742.862</ele>
        <time>2019-12-11T00:08:54Z</time>
      </trkpt>
      <trkpt lat="43.04893" lon="0.1452">
        <ele>747.748</ele>
        <time>2019-12-11T00:09:14Z</time>
      </trkpt>
      <trkpt lat="43.04856" lon="0.14582">
        <ele>757.184</ele>
        <time>2019-12-11T00:09:34Z</time>
      </trkpt>
      <trkpt lat="43.04915" lon="0.14391">
        <ele>762.165</ele>
        <time>2019-12-11T00:09:54Z</time>
      </trkpt>
      <trkpt lat="43.04943" lon="0.14257">
        <ele>770.417</ele>
        <time>2019-12-11T00:10:14Z</time>
      </trkpt>
      <trkpt lat="43.04956" lon="0.14158">
        <ele>773.99</ele>
        <time>2019-12-11T00:10:34Z</time>
      </trkpt>
      <trkpt lat="43.0495" lon="0.14005">
        <ele>781.272</ele>
        <time>2019-12-11T00:10:54Z</time>
      </trkpt>
      <trkpt lat="43.04996" lon="0.13982">
        <ele>773.931</ele>
        <time>2019-12-11T00:11:14Z</time>
      </trkpt>
      <trkpt lat="43.05012" lon="0.13928">
        <ele>778.361</ele>
        <time>2019-12-11T00:11:34Z</time>
      </trkpt>
      <trkpt lat="43.05034" lon="0.13898">
        <ele>785.107</ele>
        <time>2019-12-11T00:11:54Z</time>
      </trkpt>
      <trkpt lat="43.05068" lon="0.13905">
        <ele>782.608</ele>
        <time>2019-12-11T00:12:14Z</time>
      </trkpt>
      <trkpt lat="43.05098" lon="0.13881">
        <ele>784.779</ele>
        <time>2019-12-11T00:12:34Z</time>
      </trkpt>
      <trkpt lat="43.05138" lon="0.13815">
        <ele>792.878</ele>
        <time>2019-12-11T00:12:54Z</time>
      </trkpt>
      <trkpt lat="43.05174" lon="0.13764">
        <ele>794.454</ele>
        <time>2019-12-11T00:13:14Z</time>
      </trkpt>
      <trkpt lat="43.05245" lon="0.13557">
        <ele>802.42</ele>
        <time>2019-12-11T00:13:34Z</time>
      </trkpt>
      <trkpt lat="43.05227" lon="0.13442">
        <ele>806.671</ele>
        <time>2019-12-11T00:13:54Z</time>
      </trkpt>
      <trkpt lat="43.05199" lon="0.13551">
        <ele>816.663</ele>
        <time>2019-12-11T00:14:14Z</time>
      </trkpt>
      <trkpt lat="43.05145" lon="0.13661">
        <ele>826.556</ele>
        <time>2019-12-11T00:14:34Z</time>
      </trkpt>
      <trkpt lat="43.05146" lon="0.13558">
        <ele>831.358</ele>
        <time>2019-12-11T00:14:54Z</time>
      </trkpt>
      <trkpt lat="43.05126" lon="0.13506">
        <ele>832.617</ele>
        <time>2019-12-11T00:15:14Z</time>
      </trkpt>
      <trkpt lat="43.05092" lon="0.1349">
        <ele>834.787</ele>
        <time>2019-12-11T00:15:34Z</time>
      </trkpt>
      <trkpt lat="43.05021" lon="0.13572">
        <ele>853.915</ele>
        <time>2019-12-11T00:15:54Z</time>
      </trkpt>
      <trkpt lat="43.04992" lon="0.1359">
        <ele>859.508</ele>
        <time>2019-12-11T00:16:14Z</time>
      </trkpt>
      <trkpt lat="43.04968" lon="0.1353">
        <ele>863.557</ele>
        <time>2019-12-11T00:16:34Z</time>
      </trkpt>
      <trkpt lat="43.04924" lon="0.13614">
        <ele>875.116</ele>
        <time>2019-12-11T00:16:54Z</time>
      </trkpt>
      <trkpt lat="43.04847" lon="0.13684">
        <ele>891.892</ele>
        <time>2019-12-11T00:17:14Z</time>
      </trkpt>
      <trkpt lat="43.0481" lon="0.13741">
        <ele>892.168</ele>
        <time>2019-12-11T00:17:34Z</time>
      </trkpt>
      <trkpt lat="43.04778" lon="0.13754">
        <ele>901.059</ele>
        <time>2019-12-11T00:17:54Z</time>
      </trkpt>
      <trkpt lat="43.04806" lon="0.13701">
        <ele>905.231</ele>
        <time>2019-12-11T00:18:14Z</time>
      </trkpt>
      <trkpt lat="43.0477" lon="0.13717">
        <ele>911.354</ele>
        <time>2019-12-11T00:18:34Z</time>
      </trkpt>
      <trkpt lat="43.04808" lon="0.13637">
        <ele>925.086</ele>
        <time>2019-12-11T00:18:54Z</time>
      </trkpt>
      <trkpt lat="43.04769" lon="0.13621">
        <ele>933.067</ele>
        <time>2019-12-11T00:19:14Z</time>
      </trkpt>
      <trkpt lat="43.04699" lon="0.13706">
        <ele>932.781</ele>
        <time>2019-12-11T00:19:34Z</time>
      </trkpt>
      <trkpt lat="43.04631" lon="0.13708">
        <ele>945.519</ele>
        <time>2019-12-11T00:19:54Z</time>
      </trkpt>
      <trkpt lat="43.04601" lon="0.13687">
        <ele>951.108</ele>
        <time>2019-12-11T00:20:14Z</time>
      </trkpt>
      <trkpt lat="43.04527" lon="0.13699">
        <ele>962.282</ele>
        <time>2019-12-11T00:20:34Z</time>
      </trkpt>
      <trkpt lat="43.04501" lon="0.13694">
        <ele>968.621</ele>
        <time>2019-12-11T00:20:54Z</time>
      </trkpt>
      <trkpt lat="43.04481" lon="0.13717">
        <ele>971.247</ele>
        <time>2019-12-11T00:21:14Z</time>
      </trkpt>
      <trkpt lat="43.04405" lon="0.13872">
        <ele>994.923</ele>
        <time>2019-12-11T00:21:34Z</time>
      </trkpt>
      <trkpt lat="43.04359" lon="0.13928">
        <ele>1002.744</ele>
        <time>2019-12-11T00:21:54Z</time>
      </trkpt>
      <trkpt lat="43.0431" lon="0.13942">
        <ele>1015.766</ele>
        <time>2019-12-11T00:22:14Z</time>
      </trkpt>
      <trkpt lat="43.04276" lon="0.13987">
        <ele>1020.239</ele>
        <time>2019-12-11T00:22:34Z</time>
      </trkpt>
      <trkpt lat="43.04194" lon="0.14109">
        <ele>1034.671</ele>
        <time>2019-12-11T00:22:54Z</time>
      </trkpt>
      <trkpt lat="43.04135" lon="0.1417">
        <ele>1041.974</ele>
        <time>2019-12-11T00:23:14Z</time>
      </trkpt>
      <trkpt lat="43.0408" lon="0.14212">
        <ele>1051.456</ele>
        <time>2019-12-11T00:23:34Z</time>
      </trkpt>
      <trkpt lat="43.04001" lon="0.14311">
        <ele>1064.521</ele>
        <time>2019-12-11T00:23:54Z</time>
      </trkpt>
      <trkpt lat="43.03916" lon="0.14304">
        <ele>1076.608</ele>
        <time>2019-12-11T00:24:14Z</time>
      </trkpt>
      <trkpt lat="43.03829" lon="0.14242">
        <ele>1098.723</ele>
        <time>2019-12-11T00:24:34Z</time>
      </trkpt>
      <trkpt lat="43.03769" lon="0.14245">
        <ele>1100.222</ele>
        <time>2019-12-11T00:24:54Z</time>
      </trkpt>
      <trkpt lat="43.03752" lon="0.14228">
        <ele>1101.488</ele>
        <time>2019-12-11T00:25:14Z</time>
      </trkpt>
      <trkpt lat="43.03746" lon="0.14163">
        <ele>1105.734</ele>
        <time>2019-12-11T00:25:34Z</time>
      </trkpt>
      <trkpt lat="43.03751" lon="0.14029">
        <ele>1105.435</ele>
        <time>2019-12-11T00:25:54Z</time>
      </trkpt>
      <trkpt lat="43.03744" lon="0.13877">
        <ele>1111.277</ele>
        <time>2019-12-11T00:26:14Z</time>
      </trkpt>
      <trkpt lat="43.03756" lon="0.13815">
        <ele>1110.25</ele>
        <time>2019-12-11T00:26:34Z</time>
      </trkpt>
      <trkpt lat="43.03754" lon="0.13762">
        <ele>1116.542</ele>
        <time>2019-12-11T00:26:54Z</time>
      </trkpt>
      <trkpt lat="43.0374" lon="0.13708">
        <ele>1123.012</ele>
        <time>2019-12-11T00:27:14Z</time>
      </trkpt>
      <trkpt lat="43.03755" lon="0.13649">
        <ele>1110.332</ele>
        <time>2019-12-11T00:27:34Z</time>
      </trkpt>
      <trkpt lat="43.0375" lon="0.13583">
        <ele>1099.905</ele>
        <time>2019-12-11T00:27:54Z</time>
      </trkpt>
      <trkpt lat="43.03703" lon="0.1352">
        <ele>1105.408</ele>
        <time>2019-12-11T00:28:14Z</time>
      </trkpt>
      <trkpt lat="43.03686" lon="0.13466">
        <ele>1105.997</ele>
        <time>2019-12-11T00:28:34Z</time>
      </trkpt>
      <trkpt lat="43.0373" lon="0.13367">
        <ele>1101.436</ele>
        <time>2019-12-11T00:28:54Z</time>
      </trkpt>
      <trkpt lat="43.03742" lon="0.13232">
        <ele>1103.592</ele>
        <time>2019-12-11T00:29:14Z</time>
      </trkpt>
      <trkpt lat="43.03713" lon="0.13164">
        <ele>1102.948</ele>
        <time>2019-12-11T00:29:34Z</time>
      </trkpt>
      <trkpt lat="43.03619" lon="0.13056">
        <ele>1098.189</ele>
        <time>2019-12-11T00:29:54Z</time>
      </trkpt>
      <trkpt lat="43.0358" lon="0.12987">
        <ele>1096.871</ele>
        <time>2019-12-11T00:30:14Z</time>
      </trkpt>
      <trkpt lat="43.03579" lon="0.12933">
        <ele>1093.644</ele>
        <time>2019-12-11T00:30:34Z</time>
      </trkpt>
      <trkpt lat="43.03597" lon="0.12847">
        <ele>1088.836</ele>
        <time>2019-12-11T00:30:54Z</time>
      </trkpt>
      <trkpt lat="43.03619" lon="0.128">
        <ele>1084.371</ele>
        <time>2019-12-11T00:31:14Z</time>
      </trkpt>
      <trkpt lat="43.0367" lon="0.12678">
        <ele>1080.041</ele>
        <time>2019-12-11T00:31:34Z</time>
      </trkpt>
      <trkpt lat="43.03698" lon="0.12495">
        <ele>1081.915</ele>
        <time>2019-12-11T00:31:54Z</time>
      </trkpt>
      <trkpt lat="43.03666" lon="0.12354">
        <ele>1084.908</ele>
        <time>2019-12-11T00:32:14Z</time>
      </trkpt>
      <trkpt lat="43.03665" lon="0.12276">
        <ele>1084.173</ele>
        <time>2019-12-11T00:32:34Z</time>
      </trkpt>
      <trkpt lat="43.03686" lon="0.12166">
        <ele>1082.252</ele>
        <time>2019-12-11T00:32:54Z</time>
      </trkpt>
      <trkpt lat="43.03705" lon="0.12127">
        <ele>1083.168</ele>
        <time>2019-12-11T00:33:14Z</time>
      </trkpt>
      <trkpt lat="43.03712" lon="0.12063">
        <ele>1076.784</ele>
        <time>2019-12-11T00:33:34Z</time>
      </trkpt>
      <trkpt lat="43.03745" lon="0.11967">
        <ele>1069.745</ele>
        <time>2019-12-11T00:33:54Z</time>
      </trkpt>
      <trkpt lat="43.03766" lon="0.11948">
        <ele>1069.167</ele>
        <time>2019-12-11T00:34:14Z</time>
      </trkpt>
      <trkpt lat="43.03695" lon="0.11735">
        <ele>1063.65</ele>
        <time>2019-12-11T00:34:34Z</time>
      </trkpt>
      <trkpt lat="43.03634" lon="0.11446">
        <ele>1046.922</ele>
        <time>2019-12-11T00:34:54Z</time>
      </trkpt>
      <trkpt lat="43.03586" lon="0.11158">
        <ele>1034.968</ele>
        <time>2019-12-11T00:35:14Z</time>
      </trkpt>
      <trkpt lat="43.03558" lon="0.1113">
        <ele>1033.442</ele>
        <time>2019-12-11T00:35:34Z</time>
      </trkpt>
      <trkpt lat="43.0353" lon="0.11069">
        <ele>1033.226</ele>
        <time>2019-12-11T00:35:54Z</time>
      </trkpt>
      <trkpt lat="43.03554" lon="0.11012">
        <ele>1041.208</ele>
        <time>2019-12-11T00:36:14Z</time>
      </trkpt>
      <trkpt lat="43.03561" lon="0.10886">
        <ele>1049.882</ele>
        <time>2019-12-11T00:36:34Z</time>
      </trkpt>
      <trkpt lat="43.03621" lon="0.10726">
        <ele>1049.261</ele>
        <time>2019-12-11T00:36:54Z</time>
      </trkpt>
      <trkpt lat="43.03629" lon="0.10691">
        <ele>1052.257</ele>
        <time>2019-12-11T00:37:14Z</time>
      </trkpt>
      <trkpt lat="43.03653" lon="0.1067">
        <ele>1050.013</ele>
        <time>2019-12-11T00:37:34Z</time>
      </trkpt>
      <trkpt lat="43.03686" lon="0.10656">
        <ele>1044.194</ele>
        <time>2019-12-11T00:37:54Z</time>
      </trkpt>
      <trkpt lat="43.03707" lon="0.10608">
        <ele>1043.886</ele>
        <time>2019-12-11T00:38:14Z</time>
      </trkpt>
      <trkpt lat="43.03746" lon="0.1044">
        <ele>1042.029</ele>
        <time>2019-12-11T00:38:34Z</time>
      </trkpt>
      <trkpt lat="43.03769" lon="0.10381">
        <ele>1036.791</ele>
        <time>2019-12-11T00:38:54Z</time>
      </trkpt>
      <trkpt lat="43.03811" lon="0.10311">
        <ele>1030.429</ele>
        <time>2019-12-11T00:39:14Z</time>
      </trkpt>
      <trkpt lat="43.03829" lon="0.10242">
        <ele>1024.6</ele>
        <time>2019-12-11T00:39:34Z</time>
      </trkpt>
      <trkpt lat="43.03847" lon="0.10074">
        <ele>1008.22</ele>
        <time>2019-12-11T00:39:54Z</time>
      </trkpt>
      <trkpt lat="43.0383" lon="0.09632">
        <ele>961.208</ele>
        <time>2019-12-11T00:40:14Z</time>
      </trkpt>
      <trkpt lat="43.03835" lon="0.09578">
        <ele>959.118</ele>
        <time>2019-12-11T00:40:34Z</time>
      </trkpt>
      <trkpt lat="43.03816" lon="0.09548">
        <ele>959.667</ele>
        <time>2019-12-11T00:40:54Z</time>
      </trkpt>
      <trkpt lat="43.03774" lon="0.09536">
        <ele>951.853</ele>
        <time>2019-12-11T00:41:14Z</time>
      </trkpt>
      <trkpt lat="43.03746" lon="0.09497">
        <ele>949.359</ele>
        <time>2019-12-11T00:41:34Z</time>
      </trkpt>
      <trkpt lat="43.03686" lon="0.09449">
        <ele>941.65</ele>
        <time>2019-12-11T00:41:54Z</time>
      </trkpt>
      <trkpt lat="43.0363" lon="0.09381">
        <ele>937.882</ele>
        <time>2019-12-11T00:42:14Z</time>
      </trkpt>
      <trkpt lat="43.03601" lon="0.09278">
        <ele>938.285</ele>
        <time>2019-12-11T00:42:34Z</time>
      </trkpt>
      <trkpt lat="43.0356" lon="0.09168">
        <ele>938.637</ele>
        <time>2019-12-11T00:42:54Z</time>
      </trkpt>
      <trkpt lat="43.03534" lon="0.09134">
        <ele>937.838</ele>
        <time>2021-02-06T15:39:51Z</time>
      </trkpt>
      <trkpt lat="43.03532" lon="0.09107">
        <ele>937.97</ele>
        <time>2021-02-06T15:40:11Z</time>
      </trkpt>
      <trkpt lat="43.0362" lon="0.09046">
        <ele>923.517</ele>
        <time>2021-02-06T15:40:31Z</time>
      </trkpt>
      <trkpt lat="43.03692" lon="0.09069">
        <ele>923.608</ele>
        <time>2021-02-06T15:40:51Z</time>
      </trkpt>
      <trkpt lat="43.03786" lon="0.09048">
        <ele>901.279</ele>
        <time>2021-02-06T15:41:11Z</time>
      </trkpt>
      <trkpt lat="43.03834" lon="0.09076">
        <ele>901.418</ele>
        <time>2021-02-06T15:41:31Z</time>
      </trkpt>
      <trkpt lat="43.0386" lon="0.09078">
        <ele>899.784</ele>
        <time>2021-02-06T15:41:51Z</time>
      </trkpt>
      <trkpt lat="43.03892" lon="0.09068">
        <ele>894.11</ele>
        <time>2021-02-06T15:42:11Z</time>
      </trkpt>
      <trkpt lat="43.03919" lon="0.09065">
        <ele>892.241</ele>
        <time>2021-02-06T15:42:31Z</time>
      </trkpt>
      <trkpt lat="43.03947" lon="0.09043">
        <ele>894.243</ele>
        <time>2021-02-06T15:42:51Z</time>
      </trkpt>
      <trkpt lat="43.03962" lon="0.09007">
        <ele>889.286</ele>
        <time>2021-02-06T15:43:11Z</time>
      </trkpt>
      <trkpt lat="43.03969" lon="0.08959">
        <ele>879.758</ele>
        <time>2021-02-06T15:43:31Z</time>
      </trkpt>
      <trkpt lat="43.03983" lon="0.08934">
        <ele>878.986</ele>
        <time>2021-02-06T15:43:51Z</time>
      </trkpt>
      <trkpt lat="43.04003" lon="0.08916">
        <ele>882.66</ele>
        <time>2021-02-06T15:44:11Z</time>
      </trkpt>
      <trkpt lat="43.04001" lon="0.08901">
        <ele>882.826</ele>
        <time>2021-02-06T15:44:31Z</time>
      </trkpt>
      <trkpt lat="43.03978" lon="0.08843">
        <ele>874.308</ele>
        <time>2021-02-06T15:44:51Z</time>
      </trkpt>
      <trkpt lat="43.03969" lon="0.08802">
        <ele>877.684</ele>
        <time>2021-02-06T15:45:11Z</time>
      </trkpt>
      <trkpt lat="43.03875" lon="0.08726">
        <ele>842.623</ele>
        <time>2021-02-06T15:45:31Z</time>
      </trkpt>
      <trkpt lat="43.03871" lon="0.08662">
        <ele>842.649</ele>
        <time>2021-02-06T15:45:51Z</time>
      </trkpt>
      <trkpt lat="43.03886" lon="0.0854">
        <ele>834.015</ele>
        <time>2021-02-06T15:46:11Z</time>
      </trkpt>
      <trkpt lat="43.0392" lon="0.0839">
        <ele>823.486</ele>
        <time>2021-02-06T15:46:31Z</time>
      </trkpt>
      <trkpt lat="43.03993" lon="0.0814">
        <ele>798.838</ele>
        <time>2021-02-06T15:46:51Z</time>
      </trkpt>
      <trkpt lat="43.04052" lon="0.08002">
        <ele>790.591</ele>
        <time>2021-02-06T15:47:11Z</time>
      </trkpt>
      <trkpt lat="43.0412" lon="0.07887">
        <ele>791.083</ele>
        <time>2021-02-06T15:47:31Z</time>
      </trkpt>
      <trkpt lat="43.04112" lon="0.07882">
        <ele>773.277</ele>
        <time>2019-12-11T00:49:14Z</time>
      </trkpt>
      <trkpt lat="43.04093" lon="0.07901">
        <ele>770.961</ele>
        <time>2019-12-11T00:49:34Z</time>
      </trkpt>
      <trkpt lat="43.04042" lon="0.07929">
        <ele>759.227</ele>
        <time>2019-12-11T00:49:54Z</time>
      </trkpt>
      <trkpt lat="43.04012" lon="0.07957">
        <ele>756.908</ele>
        <time>2019-12-11T00:50:14Z</time>
      </trkpt>
      <trkpt lat="43.04067" lon="0.07793">
        <ele>735.893</ele>
        <time>2019-12-11T00:50:34Z</time>
      </trkpt>
      <trkpt lat="43.04065" lon="0.0769">
        <ele>724.872</ele>
        <time>2019-12-11T00:50:54Z</time>
      </trkpt>
      <trkpt lat="43.04099" lon="0.07469">
        <ele>705.348</ele>
        <time>2019-12-11T00:51:14Z</time>
      </trkpt>
      <trkpt lat="43.041" lon="0.07406">
        <ele>695.094</ele>
        <time>2019-12-11T00:51:34Z</time>
      </trkpt>
      <trkpt lat="43.04067" lon="0.07329">
        <ele>671.865</ele>
        <time>2019-12-11T00:51:54Z</time>
      </trkpt>
      <trkpt lat="43.04058" lon="0.07287">
        <ele>668.787</ele>
        <time>2019-12-11T00:52:14Z</time>
      </trkpt>
      <trkpt lat="43.03993" lon="0.07247">
        <ele>651.32</ele>
        <time>2019-12-11T00:52:34Z</time>
      </trkpt>
      <trkpt lat="43.04003" lon="0.07232">
        <ele>651.422</ele>
        <time>2019-12-11T00:52:54Z</time>
      </trkpt>
      <trkpt lat="43.03991" lon="0.07231">
        <ele>649.116</ele>
        <time>2019-12-11T00:53:14Z</time>
      </trkpt>
      <trkpt lat="43.03995" lon="0.0722">
        <ele>648.576</ele>
        <time>2019-12-11T00:53:34Z</time>
      </trkpt>
      <trkpt lat="43.04011" lon="0.07204">
        <ele>646.113</ele>
        <time>2019-12-11T00:53:54Z</time>
      </trkpt>
      <trkpt lat="43.03971" lon="0.07209">
        <ele>640.108</ele>
        <time>2019-12-11T00:54:14Z</time>
      </trkpt>
      <trkpt lat="43.03945" lon="0.07248">
        <ele>634.947</ele>
        <time>2019-12-11T00:54:34Z</time>
      </trkpt>
      <trkpt lat="43.03936" lon="0.07275">
        <ele>632.596</ele>
        <time>2019-12-11T00:54:54Z</time>
      </trkpt>
      <trkpt lat="43.03924" lon="0.07282">
        <ele>632.332</ele>
        <time>2019-12-11T00:55:14Z</time>
      </trkpt>
      <trkpt lat="43.03907" lon="0.07275">
        <ele>630.688</ele>
        <time>2019-12-11T00:55:34Z</time>
      </trkpt>
      <trkpt lat="43.03885" lon="0.073">
        <ele>632.119</ele>
        <time>2019-12-11T00:55:54Z</time>
      </trkpt>
      <trkpt lat="43.03859" lon="0.07296">
        <ele>631.021</ele>
        <time>2019-12-11T00:56:14Z</time>
      </trkpt>
      <trkpt lat="43.03867" lon="0.07228">
        <ele>636.414</ele>
        <time>2019-12-11T00:56:34Z</time>
      </trkpt>
      <trkpt lat="43.0391" lon="0.07185">
        <ele>632.476</ele>
        <time>2019-12-11T00:56:54Z</time>
      </trkpt>
      <trkpt lat="43.03973" lon="0.0712">
        <ele>629.051</ele>
        <time>2019-12-11T00:57:14Z</time>
      </trkpt>
      <trkpt lat="43.04059" lon="0.07071">
        <ele>626.101</ele>
        <time>2019-12-11T00:57:34Z</time>
      </trkpt>
      <trkpt lat="43.04158" lon="0.07033">
        <ele>625.511</ele>
        <time>2019-12-11T00:57:54Z</time>
      </trkpt>
      <trkpt lat="43.04202" lon="0.07028">
        <ele>622.508</ele>
        <time>2019-12-11T00:58:14Z</time>
      </trkpt>
      <trkpt lat="43.04259" lon="0.06995">
        <ele>634.761</ele>
        <time>2019-12-11T00:58:34Z</time>
      </trkpt>
      <trkpt lat="43.0431" lon="0.06993">
        <ele>630.48</ele>
        <time>2019-12-11T00:58:54Z</time>
      </trkpt>
      <trkpt lat="43.04344" lon="0.06956">
        <ele>635.866</ele>
        <time>2019-12-11T00:59:14Z</time>
      </trkpt>
      <trkpt lat="43.04445" lon="0.06911">
        <ele>623.942</ele>
        <time>2019-12-11T00:59:34Z</time>
      </trkpt>
      <trkpt lat="43.04501" lon="0.0688">
        <ele>613.243</ele>
        <time>2019-12-11T00:59:54Z</time>
      </trkpt>
      <trkpt lat="43.04586" lon="0.0688">
        <ele>612.485</ele>
        <time>2019-12-11T01:00:14Z</time>
      </trkpt>
      <trkpt lat="43.0463" lon="0.06869">
        <ele>613.068</ele>
        <time>2019-12-11T01:00:34Z</time>
      </trkpt>
      <trkpt lat="43.04699" lon="0.06838">
        <ele>614.04</ele>
        <time>2019-12-11T01:00:54Z</time>
      </trkpt>
      <trkpt lat="43.04751" lon="0.06873">
        <ele>609.628</ele>
        <time>2019-12-11T01:01:14Z</time>
      </trkpt>
      <trkpt lat="43.048" lon="0.06867">
        <ele>609.889</ele>
        <time>2019-12-11T01:01:34Z</time>
      </trkpt>
      <trkpt lat="43.04843" lon="0.06878">
        <ele>606.617</ele>
        <time>2019-12-11T01:01:54Z</time>
      </trkpt>
      <trkpt lat="43.04849" lon="0.06787">
        <ele>620.008</ele>
        <time>2019-12-11T01:02:14Z</time>
      </trkpt>
      <trkpt lat="43.04845" lon="0.06629">
        <ele>637.688</ele>
        <time>2019-12-11T01:02:34Z</time>
      </trkpt>
      <trkpt lat="43.04831" lon="0.06548">
        <ele>646.967</ele>
        <time>2019-12-11T01:02:54Z</time>
      </trkpt>
      <trkpt lat="43.0484" lon="0.06428">
        <ele>655.853</ele>
        <time>2019-12-11T01:03:14Z</time>
      </trkpt>
      <trkpt lat="43.04855" lon="0.06339">
        <ele>673.639</ele>
        <time>2021-02-06T16:02:11Z</time>
      </trkpt>
      <trkpt lat="43.04844" lon="0.06279">
        <ele>676.84</ele>
        <time>2021-02-06T16:02:31Z</time>
      </trkpt>
      <trkpt lat="43.04757" lon="0.06098">
        <ele>702.012</ele>
        <time>2021-02-06T16:02:51Z</time>
      </trkpt>
      <trkpt lat="43.04739" lon="0.05997">
        <ele>702.555</ele>
        <time>2021-02-06T16:03:11Z</time>
      </trkpt>
      <trkpt lat="43.04713" lon="0.0593">
        <ele>708.757</ele>
        <time>2021-02-06T16:03:31Z</time>
      </trkpt>
      <trkpt lat="43.04725" lon="0.05895">
        <ele>711.463</ele>
        <time>2021-02-06T16:03:51Z</time>
      </trkpt>
      <trkpt lat="43.04747" lon="0.05896">
        <ele>711.544</ele>
        <time>2021-02-06T16:04:11Z</time>
      </trkpt>
      <trkpt lat="43.04776" lon="0.05931">
        <ele>716.218</ele>
        <time>2021-02-06T16:04:31Z</time>
      </trkpt>
      <trkpt lat="43.04847" lon="0.06044">
        <ele>721.008</ele>
        <time>2021-02-06T16:04:51Z</time>
      </trkpt>
      <trkpt lat="43.04907" lon="0.0611">
        <ele>721.232</ele>
        <time>2021-02-06T16:05:11Z</time>
      </trkpt>
      <trkpt lat="43.04928" lon="0.06114">
        <ele>725.031</ele>
        <time>2021-02-06T16:05:31Z</time>
      </trkpt>
      <trkpt lat="43.04959" lon="0.06092">
        <ele>734.287</ele>
        <time>2021-02-06T16:05:51Z</time>
      </trkpt>
      <trkpt lat="43.04978" lon="0.06047">
        <ele>746.313</ele>
        <time>2021-02-06T16:06:11Z</time>
      </trkpt>
      <trkpt lat="43.05006" lon="0.06055">
        <ele>747.734</ele>
        <time>2021-02-06T16:06:31Z</time>
      </trkpt>
      <trkpt lat="43.0502" lon="0.06082">
        <ele>747.836</ele>
        <time>2021-02-06T16:06:51Z</time>
      </trkpt>
      <trkpt lat="43.05031" lon="0.06071">
        <ele>753.459</ele>
        <time>2021-02-06T16:07:11Z</time>
      </trkpt>
      <trkpt lat="43.05028" lon="0.06038">
        <ele>757.571</ele>
        <time>2021-02-06T16:07:31Z</time>
      </trkpt>
      <trkpt lat="43.05016" lon="0.06">
        <ele>760.965</ele>
        <time>2021-02-06T16:07:51Z</time>
      </trkpt>
      <trkpt lat="43.05025" lon="0.05998">
        <ele>763.668</ele>
        <time>2021-02-06T16:08:11Z</time>
      </trkpt>
      <trkpt lat="43.05051" lon="0.06039">
        <ele>764.214</ele>
        <time>2021-02-06T16:08:31Z</time>
      </trkpt>
      <trkpt lat="43.05071" lon="0.06112">
        <ele>767.608</ele>
        <time>2021-02-06T16:08:51Z</time>
      </trkpt>
      <trkpt lat="43.0508" lon="0.06102">
        <ele>770.922</ele>
        <time>2021-02-06T16:09:11Z</time>
      </trkpt>
      <trkpt lat="43.05103" lon="0.06013">
        <ele>770.451</ele>
        <time>2019-12-11T01:09:54Z</time>
      </trkpt>
      <trkpt lat="43.05126" lon="0.05964">
        <ele>780.397</ele>
        <time>2019-12-11T01:10:14Z</time>
      </trkpt>
      <trkpt lat="43.0514" lon="0.05968">
        <ele>782.033</ele>
        <time>2019-12-11T01:10:34Z</time>
      </trkpt>
      <trkpt lat="43.05141" lon="0.0602">
        <ele>786.134</ele>
        <time>2019-12-11T01:10:54Z</time>
      </trkpt>
      <trkpt lat="43.05147" lon="0.06024">
        <ele>789.776</ele>
        <time>2019-12-11T01:11:14Z</time>
      </trkpt>
      <trkpt lat="43.05171" lon="0.05994">
        <ele>795.679</ele>
        <time>2019-12-11T01:11:34Z</time>
      </trkpt>
      <trkpt lat="43.05199" lon="0.0597">
        <ele>805.241</ele>
        <time>2019-12-11T01:11:54Z</time>
      </trkpt>
      <trkpt lat="43.05197" lon="0.05924">
        <ele>813.211</ele>
        <time>2019-12-11T01:12:14Z</time>
      </trkpt>
      <trkpt lat="43.0516" lon="0.05888">
        <ele>815.221</ele>
        <time>2019-12-11T01:12:34Z</time>
      </trkpt>
      <trkpt lat="43.05128" lon="0.05841">
        <ele>824.103</ele>
        <time>2019-12-11T01:12:54Z</time>
      </trkpt>
      <trkpt lat="43.05108" lon="0.05816">
        <ele>827.208</ele>
        <time>2019-12-11T01:13:14Z</time>
      </trkpt>
      <trkpt lat="43.05132" lon="0.05815">
        <ele>832.487</ele>
        <time>2019-12-11T01:13:34Z</time>
      </trkpt>
      <trkpt lat="43.05173" lon="0.05827">
        <ele>837.716</ele>
        <time>2019-12-11T01:13:54Z</time>
      </trkpt>
      <trkpt lat="43.05201" lon="0.05848">
        <ele>839.522</ele>
        <time>2019-12-11T01:14:14Z</time>
      </trkpt>
      <trkpt lat="43.05271" lon="0.05865">
        <ele>852.518</ele>
        <time>2019-12-11T01:14:34Z</time>
      </trkpt>
      <trkpt lat="43.05296" lon="0.05839">
        <ele>856.319</ele>
        <time>2019-12-11T01:14:54Z</time>
      </trkpt>
      <trkpt lat="43.05326" lon="0.05799">
        <ele>853.581</ele>
        <time>2019-12-11T01:15:14Z</time>
      </trkpt>
      <trkpt lat="43.05296" lon="0.05769">
        <ele>853.194</ele>
        <time>2019-12-11T01:15:34Z</time>
      </trkpt>
      <trkpt lat="43.05247" lon="0.05719">
        <ele>857.086</ele>
        <time>2019-12-11T01:15:54Z</time>
      </trkpt>
      <trkpt lat="43.05166" lon="0.05661">
        <ele>868.882</ele>
        <time>2019-12-11T01:16:14Z</time>
      </trkpt>
      <trkpt lat="43.05141" lon="0.05668">
        <ele>868.043</ele>
        <time>2021-02-06T16:16:11Z</time>
      </trkpt>
      <trkpt lat="43.05126" lon="0.056">
        <ele>871.317</ele>
        <time>2021-02-06T16:16:31Z</time>
      </trkpt>
      <trkpt lat="43.05104" lon="0.0556">
        <ele>878.408</ele>
        <time>2021-02-06T16:16:51Z</time>
      </trkpt>
      <trkpt lat="43.0506" lon="0.05559">
        <ele>874.684</ele>
        <time>2021-02-06T16:17:11Z</time>
      </trkpt>
      <trkpt lat="43.04997" lon="0.05431">
        <ele>887.273</ele>
        <time>2021-02-06T16:17:31Z</time>
      </trkpt>
      <trkpt lat="43.04926" lon="0.05325">
        <ele>889.099</ele>
        <time>2019-12-11T01:17:54Z</time>
      </trkpt>
      <trkpt lat="43.0488" lon="0.05288">
        <ele>896.865</ele>
        <time>2019-12-11T01:18:14Z</time>
      </trkpt>
      <trkpt lat="43.04822" lon="0.05363">
        <ele>895.986</ele>
        <time>2019-12-11T01:18:34Z</time>
      </trkpt>
      <trkpt lat="43.04752" lon="0.05374">
        <ele>903.328</ele>
        <time>2019-12-11T01:18:54Z</time>
      </trkpt>
      <trkpt lat="43.04729" lon="0.05351">
        <ele>903.641</ele>
        <time>2019-12-11T01:19:14Z</time>
      </trkpt>
      <trkpt lat="43.04689" lon="0.05271">
        <ele>908.653</ele>
        <time>2019-12-11T01:19:34Z</time>
      </trkpt>
      <trkpt lat="43.04584" lon="0.05154">
        <ele>919.726</ele>
        <time>2019-12-11T01:19:54Z</time>
      </trkpt>
      <trkpt lat="43.04489" lon="0.05009">
        <ele>940.547</ele>
        <time>2019-12-11T01:20:14Z</time>
      </trkpt>
      <trkpt lat="43.04461" lon="0.04964">
        <ele>946.211</ele>
        <time>2019-12-11T01:20:34Z</time>
      </trkpt>
      <trkpt lat="43.04428" lon="0.04924">
        <ele>948.708</ele>
        <time>2019-12-11T01:20:54Z</time>
      </trkpt>
      <trkpt lat="43.04403" lon="0.04879">
        <ele>948.258</ele>
        <time>2019-12-11T01:21:14Z</time>
      </trkpt>
      <trkpt lat="43.0433" lon="0.04823">
        <ele>946.457</ele>
        <time>2019-12-11T01:21:34Z</time>
      </trkpt>
      <trkpt lat="43.04313" lon="0.04776">
        <ele>950.213</ele>
        <time>2019-12-11T01:21:54Z</time>
      </trkpt>
      <trkpt lat="43.04328" lon="0.04622">
        <ele>943.579</ele>
        <time>2019-12-11T01:22:14Z</time>
      </trkpt>
      <trkpt lat="43.04285" lon="0.04504">
        <ele>947.51</ele>
        <time>2019-12-11T01:22:34Z</time>
      </trkpt>
      <trkpt lat="43.04263" lon="0.04399">
        <ele>944.942</ele>
        <time>2019-12-11T01:22:54Z</time>
      </trkpt>
      <trkpt lat="43.04231" lon="0.04298">
        <ele>941.545</ele>
        <time>2019-12-11T01:23:14Z</time>
      </trkpt>
      <trkpt lat="43.04216" lon="0.04241">
        <ele>938.657</ele>
        <time>2019-12-11T01:23:34Z</time>
      </trkpt>
      <trkpt lat="43.04184" lon="0.04157">
        <ele>934.829</ele>
        <time>2019-12-11T01:23:54Z</time>
      </trkpt>
      <trkpt lat="43.04138" lon="0.04042">
        <ele>930.2</ele>
        <time>2019-12-11T01:24:14Z</time>
      </trkpt>
      <trkpt lat="43.04131" lon="0.03971">
        <ele>929.62</ele>
        <time>2019-12-11T01:24:34Z</time>
      </trkpt>
      <trkpt lat="43.04163" lon="0.03812">
        <ele>925.508</ele>
        <time>2019-12-11T01:24:54Z</time>
      </trkpt>
      <trkpt lat="43.04192" lon="0.03451">
        <ele>901.878</ele>
        <time>2019-12-11T01:25:14Z</time>
      </trkpt>
      <trkpt lat="43.04291" lon="0.0328">
        <ele>882.177</ele>
        <time>2019-12-11T01:25:34Z</time>
      </trkpt>
      <trkpt lat="43.04377" lon="0.03317">
        <ele>866.833</ele>
        <time>2019-12-11T01:25:54Z</time>
      </trkpt>
      <trkpt lat="43.04414" lon="0.03317">
        <ele>862.629</ele>
        <time>2019-12-11T01:26:14Z</time>
      </trkpt>
      <trkpt lat="43.04452" lon="0.03331">
        <ele>862.28</ele>
        <time>2019-12-11T01:26:34Z</time>
      </trkpt>
      <trkpt lat="43.04501" lon="0.03326">
        <ele>855.152</ele>
        <time>2019-12-11T01:26:54Z</time>
      </trkpt>
      <trkpt lat="43.04519" lon="0.03314">
        <ele>852.525</ele>
        <time>2019-12-11T01:27:14Z</time>
      </trkpt>
      <trkpt lat="43.0456" lon="0.0324">
        <ele>838.677</ele>
        <time>2019-12-11T01:27:34Z</time>
      </trkpt>
      <trkpt lat="43.04526" lon="0.03256">
        <ele>833.965</ele>
        <time>2019-12-11T01:27:54Z</time>
      </trkpt>
      <trkpt lat="43.04517" lon="0.03246">
        <ele>829.068</ele>
        <time>2019-12-11T01:28:14Z</time>
      </trkpt>
      <trkpt lat="43.04546" lon="0.03219">
        <ele>827.314</ele>
        <time>2019-12-11T01:28:34Z</time>
      </trkpt>
      <trkpt lat="43.04572" lon="0.03103">
        <ele>813.908</ele>
        <time>2019-12-11T01:28:54Z</time>
      </trkpt>
      <trkpt lat="43.04564" lon="0.02887">
        <ele>789.212</ele>
        <time>2019-12-11T01:29:14Z</time>
      </trkpt>
      <trkpt lat="43.04589" lon="0.0281">
        <ele>784.231</ele>
        <time>2019-12-11T01:29:34Z</time>
      </trkpt>
      <trkpt lat="43.04721" lon="0.02646">
        <ele>751.947</ele>
        <time>2019-12-11T01:29:54Z</time>
      </trkpt>
      <trkpt lat="43.04756" lon="0.02636">
        <ele>749.793</ele>
        <time>2019-12-11T01:30:14Z</time>
      </trkpt>
      <trkpt lat="43.04793" lon="0.02655">
        <ele>746.144</ele>
        <time>2019-12-11T01:30:34Z</time>
      </trkpt>
      <trkpt lat="43.0478" lon="0.02632">
        <ele>744.046</ele>
        <time>2019-12-11T01:30:54Z</time>
      </trkpt>
      <trkpt lat="43.04775" lon="0.0259">
        <ele>734.629</ele>
        <time>2019-12-11T01:31:14Z</time>
      </trkpt>
      <trkpt lat="43.048" lon="0.0262">
        <ele>732.481</ele>
        <time>2019-12-11T01:31:34Z</time>
      </trkpt>
      <trkpt lat="43.04885" lon="0.0269">
        <ele>719.785</ele>
        <time>2019-12-11T01:31:54Z</time>
      </trkpt>
      <trkpt lat="43.04914" lon="0.02699">
        <ele>711.989</ele>
        <time>2019-12-11T01:32:14Z</time>
      </trkpt>
      <trkpt lat="43.04947" lon="0.02718">
        <ele>711.617</ele>
        <time>2019-12-11T01:32:34Z</time>
      </trkpt>
      <trkpt lat="43.05001" lon="0.02728">
        <ele>704.608</ele>
        <time>2019-12-11T01:32:54Z</time>
      </trkpt>
      <trkpt lat="43.05" lon="0.02715">
        <ele>698.034</ele>
        <time>2019-12-11T01:33:14Z</time>
      </trkpt>
      <trkpt lat="43.04972" lon="0.02709">
        <ele>701.163</ele>
        <time>2019-12-11T01:33:34Z</time>
      </trkpt>
      <trkpt lat="43.04925" lon="0.0267">
        <ele>697.729</ele>
        <time>2019-12-11T01:33:54Z</time>
      </trkpt>
      <trkpt lat="43.04885" lon="0.02614">
        <ele>708.335</ele>
        <time>2021-02-06T16:34:11Z</time>
      </trkpt>
      <trkpt lat="43.04871" lon="0.02564">
        <ele>702.416</ele>
        <time>2021-02-06T16:34:31Z</time>
      </trkpt>
      <trkpt lat="43.04856" lon="0.02437">
        <ele>682.318</ele>
        <time>2021-02-06T16:34:51Z</time>
      </trkpt>
      <trkpt lat="43.04833" lon="0.02376">
        <ele>666.181</ele>
        <time>2019-12-11T01:35:14Z</time>
      </trkpt>
      <trkpt lat="43.04836" lon="0.0232">
        <ele>661.393</ele>
        <time>2021-02-06T16:35:31Z</time>
      </trkpt>
      <trkpt lat="43.04854" lon="0.02246">
        <ele>647.038</ele>
        <time>2021-02-06T16:35:51Z</time>
      </trkpt>
      <trkpt lat="43.0487" lon="0.02226">
        <ele>640.17</ele>
        <time>2019-12-11T01:36:54Z</time>
      </trkpt>
      <trkpt lat="43.04943" lon="0.02163">
        <ele>633.917</ele>
        <time>2019-12-11T01:37:14Z</time>
      </trkpt>
      <trkpt lat="43.0498" lon="0.02148">
        <ele>635.608</ele>
        <time>2019-12-11T01:37:34Z</time>
      </trkpt>
      <trkpt lat="43.05003" lon="0.02066">
        <ele>618.089</ele>
        <time>2019-12-11T01:37:54Z</time>
      </trkpt>
      <trkpt lat="43.0503" lon="0.02031">
        <ele>618.798</ele>
        <time>2019-12-11T01:38:14Z</time>
      </trkpt>
      <trkpt lat="43.05036" lon="0.01981">
        <ele>610.064</ele>
        <time>2019-12-11T01:38:34Z</time>
      </trkpt>
      <trkpt lat="43.05033" lon="0.01935">
        <ele>599.79</ele>
        <time>2019-12-11T01:38:54Z</time>
      </trkpt>
      <trkpt lat="43.05041" lon="0.01875">
        <ele>595.841</ele>
        <time>2019-12-11T01:39:14Z</time>
      </trkpt>
      <trkpt lat="43.05029" lon="0.01803">
        <ele>577.233</ele>
        <time>2019-12-11T01:39:34Z</time>
      </trkpt>
      <trkpt lat="43.05029" lon="0.01757">
        <ele>571.436</ele>
        <time>2019-12-11T01:39:54Z</time>
      </trkpt>
      <trkpt lat="43.05021" lon="0.01721">
        <ele>565.218</ele>
        <time>2019-12-11T01:40:14Z</time>
      </trkpt>
      <trkpt lat="43.05006" lon="0.01696">
        <ele>560.756</ele>
        <time>2019-12-11T01:40:34Z</time>
      </trkpt>
      <trkpt lat="43.05001" lon="0.01675">
        <ele>559.359</ele>
        <time>2019-12-11T01:40:54Z</time>
      </trkpt>
      <trkpt lat="43.05003" lon="0.01656">
        <ele>558.614</ele>
        <time>2019-12-11T01:41:14Z</time>
      </trkpt>
      <trkpt lat="43.05011" lon="0.01644">
        <ele>557.908</ele>
        <time>2019-12-11T01:41:34Z</time>
      </trkpt>
      <trkpt lat="43.05025" lon="0.01603">
        <ele>555.351</ele>
        <time>2019-12-11T01:41:54Z</time>
      </trkpt>
      <trkpt lat="43.05053" lon="0.01564">
        <ele>552.96</ele>
        <time>2019-12-11T01:42:14Z</time>
      </trkpt>
      <trkpt lat="43.05044" lon="0.01516">
        <ele>555.836</ele>
        <time>2019-12-11T01:42:34Z</time>
      </trkpt>
      <trkpt lat="43.05038" lon="0.0151">
        <ele>556.362</ele>
        <time>2019-12-11T01:42:54Z</time>
      </trkpt>
      <trkpt lat="43.05031" lon="0.01488">
        <ele>557.473</ele>
        <time>2019-12-11T01:43:14Z</time>
      </trkpt>
      <trkpt lat="43.05021" lon="0.01476">
        <ele>558.175</ele>
        <time>2019-12-11T01:43:34Z</time>
      </trkpt>
      <trkpt lat="43.05017" lon="0.01392">
        <ele>559.958</ele>
        <time>2019-12-11T01:43:54Z</time>
      </trkpt>
      <trkpt lat="43.05023" lon="0.0126">
        <ele>563.52</ele>
        <time>2019-12-11T01:44:14Z</time>
      </trkpt>
      <trkpt lat="43.05032" lon="0.01123">
        <ele>565.078</ele>
        <time>2019-12-11T01:44:34Z</time>
      </trkpt>
      <trkpt lat="43.05038" lon="0.0101">
        <ele>563.633</ele>
        <time>2019-12-11T01:44:54Z</time>
      </trkpt>
      <trkpt lat="43.05053" lon="0.00926">
        <ele>561.526</ele>
        <time>2019-12-11T01:45:14Z</time>
      </trkpt>
      <trkpt lat="43.05097" lon="0.00841">
        <ele>552.308</ele>
        <time>2019-12-11T01:45:34Z</time>
      </trkpt>
      <trkpt lat="43.05104" lon="0.00807">
        <ele>548.783</ele>
        <time>2019-12-11T01:45:54Z</time>
      </trkpt>
      <trkpt lat="43.051" lon="0.00761">
        <ele>542.262</ele>
        <time>2019-12-11T01:46:14Z</time>
      </trkpt>
      <trkpt lat="43.051" lon="0.00715">
        <ele>531.568</ele>
        <time>2019-12-11T01:46:34Z</time>
      </trkpt>
      <trkpt lat="43.05091" lon="0.00626">
        <ele>528.214</ele>
        <time>2019-12-11T01:46:54Z</time>
      </trkpt>
      <trkpt lat="43.05125" lon="0.00543">
        <ele>522.655</ele>
        <time>2019-12-11T01:47:14Z</time>
      </trkpt>
      <trkpt lat="43.05153" lon="0.00536">
        <ele>514.977</ele>
        <time>2019-12-11T01:47:34Z</time>
      </trkpt>
      <trkpt lat="43.05163" lon="0.00475">
        <ele>512.33</ele>
        <time>2019-12-11T01:47:54Z</time>
      </trkpt>
      <trkpt lat="43.05179" lon="0.00409">
        <ele>512.742</ele>
        <time>2019-12-11T01:48:14Z</time>
      </trkpt>
      <trkpt lat="43.05183" lon="0.00341">
        <ele>512.023</ele>
        <time>2019-12-11T01:48:34Z</time>
      </trkpt>
      <trkpt lat="43.05247" lon="0.00292">
        <ele>490.683</ele>
        <time>2019-12-11T01:48:54Z</time>
      </trkpt>
      <trkpt lat="43.05277" lon="0.00256">
        <ele>480.411</ele>
        <time>2019-12-11T01:49:14Z</time>
      </trkpt>
      <trkpt lat="43.05287" lon="0.0026">
        <ele>480.608</ele>
        <time>2019-12-11T01:49:34Z</time>
      </trkpt>
      <trkpt lat="43.05268" lon="0.00346">
        <ele>482.628</ele>
        <time>2019-12-11T01:49:54Z</time>
      </trkpt>
      <trkpt lat="43.05338" lon="0.00306">
        <ele>489.037</ele>
        <time>2019-12-11T01:50:14Z</time>
      </trkpt>
      <trkpt lat="43.05352" lon="0.00252">
        <ele>488.443</ele>
        <time>2019-12-11T01:50:34Z</time>
      </trkpt>
      <trkpt lat="43.05356" lon="0.00197">
        <ele>489.559</ele>
        <time>2019-12-11T01:50:54Z</time>
      </trkpt>
      <trkpt lat="43.05376" lon="0.00149">
        <ele>492.42</ele>
        <time>2019-12-11T01:51:14Z</time>
      </trkpt>
      <trkpt lat="43.0541" lon="0.00062">
        <ele>492.312</ele>
        <time>2019-12-11T01:51:34Z</time>
      </trkpt>
      <trkpt lat="43.05405" lon="0.00027">
        <ele>491.065</ele>
        <time>2019-12-11T01:51:54Z</time>
      </trkpt>
      <trkpt lat="43.05388" lon="-4.0E-5">
        <ele>487.427</ele>
        <time>2019-12-11T01:52:14Z</time>
      </trkpt>
      <trkpt lat="43.05397" lon="-0.00024">
        <ele>487.711</ele>
        <time>2019-12-11T01:52:34Z</time>
      </trkpt>
      <trkpt lat="43.05423" lon="-0.00027">
        <ele>492.421</ele>
        <time>2019-12-11T01:52:54Z</time>
      </trkpt>
      <trkpt lat="43.05456" lon="-0.001">
        <ele>501.803</ele>
        <time>2019-12-11T01:53:14Z</time>
      </trkpt>
      <trkpt lat="43.05455" lon="-0.00178">
        <ele>505.508</ele>
        <time>2019-12-11T01:53:34Z</time>
      </trkpt>
      <trkpt lat="43.05461" lon="-0.00354">
        <ele>515.587</ele>
        <time>2019-12-11T01:53:54Z</time>
      </trkpt>
      <trkpt lat="43.05496" lon="-0.00473">
        <ele>524.676</ele>
        <time>2019-12-11T01:54:14Z</time>
      </trkpt>
      <trkpt lat="43.05508" lon="-0.00554">
        <ele>522.792</ele>
        <time>2019-12-11T01:54:34Z</time>
      </trkpt>
      <trkpt lat="43.0555" lon="-0.00691">
        <ele>540.898</ele>
        <time>2019-12-11T01:54:54Z</time>
      </trkpt>
      <trkpt lat="43.05561" lon="-0.00764">
        <ele>549.959</ele>
        <time>2019-12-11T01:55:14Z</time>
      </trkpt>
      <trkpt lat="43.05561" lon="-0.00835">
        <ele>551.551</ele>
        <time>2019-12-11T01:55:34Z</time>
      </trkpt>
      <trkpt lat="43.05572" lon="-0.00884">
        <ele>556.834</ele>
        <time>2019-12-11T01:55:54Z</time>
      </trkpt>
      <trkpt lat="43.05571" lon="-0.00921">
        <ele>555.346</ele>
        <time>2019-12-11T01:56:14Z</time>
      </trkpt>
      <trkpt lat="43.05632" lon="-0.01061">
        <ele>572.095</ele>
        <time>2019-12-11T01:56:34Z</time>
      </trkpt>
      <trkpt lat="43.05673" lon="-0.01104">
        <ele>577.349</ele>
        <time>2019-12-11T01:56:54Z</time>
      </trkpt>
      <trkpt lat="43.05704" lon="-0.01112">
        <ele>581.123</ele>
        <time>2019-12-11T01:57:14Z</time>
      </trkpt>
      <trkpt lat="43.05764" lon="-0.01105">
        <ele>591.708</ele>
        <time>2019-12-11T01:57:34Z</time>
      </trkpt>
      <trkpt lat="43.05835" lon="-0.01125">
        <ele>600.845</ele>
        <time>2019-12-11T01:57:54Z</time>
      </trkpt>
      <trkpt lat="43.05869" lon="-0.01162">
        <ele>610.254</ele>
        <time>2019-12-11T01:58:14Z</time>
      </trkpt>
      <trkpt lat="43.05879" lon="-0.01211">
        <ele>611.38</ele>
        <time>2019-12-11T01:58:34Z</time>
      </trkpt>
      <trkpt lat="43.05909" lon="-0.01245">
        <ele>621.446</ele>
        <time>2019-12-11T01:58:54Z</time>
      </trkpt>
      <trkpt lat="43.05938" lon="-0.01309">
        <ele>632.347</ele>
        <time>2019-12-11T01:59:14Z</time>
      </trkpt>
      <trkpt lat="43.05929" lon="-0.01358">
        <ele>630.999</ele>
        <time>2019-12-11T01:59:34Z</time>
      </trkpt>
      <trkpt lat="43.05928" lon="-0.01406">
        <ele>632.992</ele>
        <time>2019-12-11T01:59:54Z</time>
      </trkpt>
      <trkpt lat="43.05932" lon="-0.01439">
        <ele>633.934</ele>
        <time>2019-12-11T02:00:14Z</time>
      </trkpt>
      <trkpt lat="43.05944" lon="-0.01467">
        <ele>633.535</ele>
        <time>2019-12-11T02:00:34Z</time>
      </trkpt>
      <trkpt lat="43.05961" lon="-0.01498">
        <ele>637.786</ele>
        <time>2019-12-11T02:00:54Z</time>
      </trkpt>
      <trkpt lat="43.05962" lon="-0.01518">
        <ele>636.414</ele>
        <time>2019-12-11T02:01:14Z</time>
      </trkpt>
      <trkpt lat="43.05976" lon="-0.01568">
        <ele>633.508</ele>
        <time>2019-12-11T02:01:34Z</time>
      </trkpt>
      <trkpt lat="43.05992" lon="-0.01595">
        <ele>630.099</ele>
        <time>2019-12-11T02:01:54Z</time>
      </trkpt>
      <trkpt lat="43.06031" lon="-0.01606">
        <ele>629.068</ele>
        <time>2019-12-11T02:02:14Z</time>
      </trkpt>
      <trkpt lat="43.06087" lon="-0.01643">
        <ele>623.364</ele>
        <time>2019-12-11T02:02:34Z</time>
      </trkpt>
      <trkpt lat="43.06109" lon="-0.01635">
        <ele>629.68</ele>
        <time>2019-12-11T02:02:54Z</time>
      </trkpt>
      <trkpt lat="43.06138" lon="-0.01637">
        <ele>634.561</ele>
        <time>2019-12-11T02:03:14Z</time>
      </trkpt>
      <trkpt lat="43.06159" lon="-0.0166">
        <ele>636.813</ele>
        <time>2019-12-11T02:03:34Z</time>
      </trkpt>
      <trkpt lat="43.06191" lon="-0.01714">
        <ele>640.886</ele>
        <time>2019-12-11T02:03:54Z</time>
      </trkpt>
      <trkpt lat="43.06195" lon="-0.01752">
        <ele>636.998</ele>
        <time>2019-12-11T02:04:14Z</time>
      </trkpt>
      <trkpt lat="43.06268" lon="-0.0188">
        <ele>653.861</ele>
        <time>2019-12-11T02:04:34Z</time>
      </trkpt>
      <trkpt lat="43.06283" lon="-0.01928">
        <ele>657.121</ele>
        <time>2019-12-11T02:04:54Z</time>
      </trkpt>
      <trkpt lat="43.06284" lon="-0.01976">
        <ele>659.813</ele>
        <time>2019-12-11T02:05:14Z</time>
      </trkpt>
      <trkpt lat="43.0629" lon="-0.02007">
        <ele>662.208</ele>
        <time>2019-12-11T02:05:34Z</time>
      </trkpt>
      <trkpt lat="43.06355" lon="-0.02083">
        <ele>664.632</ele>
        <time>2019-12-11T02:05:54Z</time>
      </trkpt>
      <trkpt lat="43.0639" lon="-0.02093">
        <ele>661.411</ele>
        <time>2019-12-11T02:06:14Z</time>
      </trkpt>
      <trkpt lat="43.06486" lon="-0.02065">
        <ele>663.067</ele>
        <time>2019-12-11T02:06:34Z</time>
      </trkpt>
      <trkpt lat="43.0652" lon="-0.02061">
        <ele>665.723</ele>
        <time>2019-12-11T02:06:54Z</time>
      </trkpt>
      <trkpt lat="43.06549" lon="-0.02074">
        <ele>665.574</ele>
        <time>2019-12-11T02:07:14Z</time>
      </trkpt>
      <trkpt lat="43.06564" lon="-0.02103">
        <ele>665.626</ele>
        <time>2019-12-11T02:07:34Z</time>
      </trkpt>
      <trkpt lat="43.06573" lon="-0.0215">
        <ele>663.489</ele>
        <time>2019-12-11T02:07:54Z</time>
      </trkpt>
      <trkpt lat="43.06593" lon="-0.02168">
        <ele>665.561</ele>
        <time>2019-12-11T02:08:14Z</time>
      </trkpt>
      <trkpt lat="43.06628" lon="-0.02188">
        <ele>666.151</ele>
        <time>2019-12-11T02:08:34Z</time>
      </trkpt>
      <trkpt lat="43.06665" lon="-0.02174">
        <ele>670.701</ele>
        <time>2021-02-06T17:08:11Z</time>
      </trkpt>
      <trkpt lat="43.06712" lon="-0.02194">
        <ele>662.811</ele>
        <time>2021-02-06T17:08:31Z</time>
      </trkpt>
      <trkpt lat="43.06752" lon="-0.02215">
        <ele>648.508</ele>
        <time>2019-12-11T02:11:54Z</time>
      </trkpt>
      <trkpt lat="43.06788" lon="-0.02174">
        <ele>647.511</ele>
        <time>2019-12-11T02:12:14Z</time>
      </trkpt>
      <trkpt lat="43.06805" lon="-0.0215">
        <ele>646.39</ele>
        <time>2019-12-11T02:12:34Z</time>
      </trkpt>
      <trkpt lat="43.06859" lon="-0.02105">
        <ele>636.316</ele>
        <time>2019-12-11T02:12:54Z</time>
      </trkpt>
      <trkpt lat="43.06873" lon="-0.02111">
        <ele>630.452</ele>
        <time>2019-12-11T02:13:14Z</time>
      </trkpt>
      <trkpt lat="43.06884" lon="-0.02145">
        <ele>629.313</ele>
        <time>2019-12-11T02:13:34Z</time>
      </trkpt>
      <trkpt lat="43.06914" lon="-0.02172">
        <ele>627.525</ele>
        <time>2019-12-11T02:13:54Z</time>
      </trkpt>
      <trkpt lat="43.06921" lon="-0.02191">
        <ele>628.988</ele>
        <time>2019-12-11T02:14:14Z</time>
      </trkpt>
      <trkpt lat="43.06928" lon="-0.02223">
        <ele>633.18</ele>
        <time>2019-12-11T02:14:34Z</time>
      </trkpt>
      <trkpt lat="43.06935" lon="-0.02233">
        <ele>632.915</ele>
        <time>2019-12-11T02:14:54Z</time>
      </trkpt>
      <trkpt lat="43.0695" lon="-0.02237">
        <ele>631.565</ele>
        <time>2019-12-11T02:15:14Z</time>
      </trkpt>
      <trkpt lat="43.06972" lon="-0.02224">
        <ele>628.411</ele>
        <time>2019-12-11T02:15:34Z</time>
      </trkpt>
      <trkpt lat="43.06994" lon="-0.02214">
        <ele>632.308</ele>
        <time>2019-12-11T02:15:54Z</time>
      </trkpt>
      <trkpt lat="43.07017" lon="-0.02182">
        <ele>631.327</ele>
        <time>2019-12-11T02:16:14Z</time>
      </trkpt>
      <trkpt lat="43.07038" lon="-0.02147">
        <ele>625.496</ele>
        <time>2019-12-11T02:16:34Z</time>
      </trkpt>
      <trkpt lat="43.07046" lon="-0.02113">
        <ele>615.882</ele>
        <time>2019-12-11T02:16:54Z</time>
      </trkpt>
      <trkpt lat="43.07065" lon="-0.02108">
        <ele>617.738</ele>
        <time>2019-12-11T02:17:14Z</time>
      </trkpt>
      <trkpt lat="43.07091" lon="-0.02114">
        <ele>619.869</ele>
        <time>2019-12-11T02:17:34Z</time>
      </trkpt>
      <trkpt lat="43.07126" lon="-0.02132">
        <ele>617.461</ele>
        <time>2019-12-11T02:17:54Z</time>
      </trkpt>
      <trkpt lat="43.07197" lon="-0.022">
        <ele>615.834</ele>
        <time>2019-12-11T02:18:14Z</time>
      </trkpt>
      <trkpt lat="43.07246" lon="-0.02224">
        <ele>621.516</ele>
        <time>2019-12-11T02:18:34Z</time>
      </trkpt>
      <trkpt lat="43.0734" lon="-0.02257">
        <ele>615.563</ele>
        <time>2019-12-11T02:18:54Z</time>
      </trkpt>
      <trkpt lat="43.07446" lon="-0.02344">
        <ele>643.244</ele>
        <time>2019-12-11T02:19:14Z</time>
      </trkpt>
      <trkpt lat="43.07446" lon="-0.02357">
        <ele>648.718</ele>
        <time>2019-12-11T02:19:34Z</time>
      </trkpt>
      <trkpt lat="43.07504" lon="-0.02382">
        <ele>662.908</ele>
        <time>2019-12-11T02:19:54Z</time>
      </trkpt>
      <trkpt lat="43.07538" lon="-0.0241">
        <ele>671.552</ele>
        <time>2019-12-11T02:20:14Z</time>
      </trkpt>
      <trkpt lat="43.076" lon="-0.0242">
        <ele>669.061</ele>
        <time>2019-12-11T02:20:34Z</time>
      </trkpt>
      <trkpt lat="43.07606" lon="-0.02497">
        <ele>679.017</ele>
        <time>2019-12-11T02:20:54Z</time>
      </trkpt>
      <trkpt lat="43.07632" lon="-0.02537">
        <ele>680.973</ele>
        <time>2019-12-11T02:21:14Z</time>
      </trkpt>
      <trkpt lat="43.07657" lon="-0.0254">
        <ele>679.394</ele>
        <time>2019-12-11T02:21:34Z</time>
      </trkpt>
      <trkpt lat="43.07689" lon="-0.02519">
        <ele>675.196</ele>
        <time>2019-12-11T02:21:54Z</time>
      </trkpt>
      <trkpt lat="43.07753" lon="-0.02516">
        <ele>680.189</ele>
        <time>2019-12-11T02:22:14Z</time>
      </trkpt>
      <trkpt lat="43.07795" lon="-0.02483">
        <ele>683.571</ele>
        <time>2019-12-11T02:22:34Z</time>
      </trkpt>
      <trkpt lat="43.07838" lon="-0.02386">
        <ele>678.693</ele>
        <time>2019-12-11T02:22:54Z</time>
      </trkpt>
      <trkpt lat="43.07936" lon="-0.02303">
        <ele>674.865</ele>
        <time>2019-12-11T02:23:14Z</time>
      </trkpt>
      <trkpt lat="43.07979" lon="-0.02293">
        <ele>671.821</ele>
        <time>2019-12-11T02:23:34Z</time>
      </trkpt>
      <trkpt lat="43.08036" lon="-0.02314">
        <ele>668.508</ele>
        <time>2019-12-11T02:23:54Z</time>
      </trkpt>
      <trkpt lat="43.08088" lon="-0.02316">
        <ele>652.935</ele>
        <time>2019-12-11T02:24:14Z</time>
      </trkpt>
      <trkpt lat="43.08112" lon="-0.02339">
        <ele>648.394</ele>
        <time>2019-12-11T02:24:34Z</time>
      </trkpt>
      <trkpt lat="43.08136" lon="-0.02436">
        <ele>645.77</ele>
        <time>2019-12-11T02:24:54Z</time>
      </trkpt>
      <trkpt lat="43.08198" lon="-0.02523">
        <ele>642.836</ele>
        <time>2019-12-11T02:25:14Z</time>
      </trkpt>
      <trkpt lat="43.08214" lon="-0.02525">
        <ele>636.467</ele>
        <time>2019-12-11T02:25:34Z</time>
      </trkpt>
      <trkpt lat="43.08241" lon="-0.02565">
        <ele>635.519</ele>
        <time>2019-12-11T02:25:54Z</time>
      </trkpt>
      <trkpt lat="43.08313" lon="-0.02593">
        <ele>630.292</ele>
        <time>2019-12-11T02:26:14Z</time>
      </trkpt>
      <trkpt lat="43.08373" lon="-0.02642">
        <ele>634.944</ele>
        <time>2019-12-11T02:26:34Z</time>
      </trkpt>
      <trkpt lat="43.0844" lon="-0.02601">
        <ele>621.096</ele>
        <time>2019-12-11T02:26:54Z</time>
      </trkpt>
      <trkpt lat="43.08504" lon="-0.02599">
        <ele>618.731</ele>
        <time>2019-12-11T02:27:14Z</time>
      </trkpt>
      <trkpt lat="43.08557" lon="-0.02629">
        <ele>619.124</ele>
        <time>2019-12-11T02:27:34Z</time>
      </trkpt>
      <trkpt lat="43.08595" lon="-0.027">
        <ele>640.608</ele>
        <time>2019-12-11T02:27:54Z</time>
      </trkpt>
      <trkpt lat="43.08721" lon="-0.02977">
        <ele>632.685</ele>
        <time>2019-12-11T02:28:14Z</time>
      </trkpt>
      <trkpt lat="43.08773" lon="-0.03011">
        <ele>613.994</ele>
        <time>2019-12-11T02:28:34Z</time>
      </trkpt>
      <trkpt lat="43.08772" lon="-0.03059">
        <ele>623.57</ele>
        <time>2019-12-11T02:28:54Z</time>
      </trkpt>
      <trkpt lat="43.08786" lon="-0.03088">
        <ele>630.366</ele>
        <time>2019-12-11T02:29:14Z</time>
      </trkpt>
      <trkpt lat="43.0884" lon="-0.03088">
        <ele>634.897</ele>
        <time>2019-12-11T02:29:34Z</time>
      </trkpt>
      <trkpt lat="43.08864" lon="-0.03107">
        <ele>638.049</ele>
        <time>2019-12-11T02:29:54Z</time>
      </trkpt>
      <trkpt lat="43.08866" lon="-0.03167">
        <ele>644.272</ele>
        <time>2019-12-11T02:30:14Z</time>
      </trkpt>
      <trkpt lat="43.08846" lon="-0.0331">
        <ele>660.554</ele>
        <time>2019-12-11T02:30:34Z</time>
      </trkpt>
      <trkpt lat="43.08786" lon="-0.03336">
        <ele>656.364</ele>
        <time>2019-12-11T02:30:54Z</time>
      </trkpt>
      <trkpt lat="43.08782" lon="-0.03357">
        <ele>653.806</ele>
        <time>2019-12-11T02:31:14Z</time>
      </trkpt>
      <trkpt lat="43.08798" lon="-0.03397">
        <ele>652.616</ele>
        <time>2019-12-11T02:31:34Z</time>
      </trkpt>
      <trkpt lat="43.08795" lon="-0.0343">
        <ele>651.608</ele>
        <time>2019-12-11T02:31:54Z</time>
      </trkpt>
      <trkpt lat="43.08775" lon="-0.03451">
        <ele>647.632</ele>
        <time>2019-12-11T02:32:14Z</time>
      </trkpt>
      <trkpt lat="43.08761" lon="-0.03489">
        <ele>645.481</ele>
        <time>2019-12-11T02:32:34Z</time>
      </trkpt>
      <trkpt lat="43.08594" lon="-0.03543">
        <ele>619.747</ele>
        <time>2019-12-11T02:32:54Z</time>
      </trkpt>
      <trkpt lat="43.08534" lon="-0.03597">
        <ele>611.473</ele>
        <time>2019-12-11T02:33:14Z</time>
      </trkpt>
      <trkpt lat="43.08472" lon="-0.0367">
        <ele>603.164</ele>
        <time>2019-12-11T02:33:34Z</time>
      </trkpt>
      <trkpt lat="43.08453" lon="-0.03709">
        <ele>604.296</ele>
        <time>2019-12-11T02:33:54Z</time>
      </trkpt>
      <trkpt lat="43.0845" lon="-0.03747">
        <ele>598.449</ele>
        <time>2019-12-11T02:34:14Z</time>
      </trkpt>
      <trkpt lat="43.08411" lon="-0.03819">
        <ele>588.161</ele>
        <time>2019-12-11T02:34:34Z</time>
      </trkpt>
      <trkpt lat="43.08304" lon="-0.03914">
        <ele>556.736</ele>
        <time>2019-12-11T02:34:54Z</time>
      </trkpt>
      <trkpt lat="43.08274" lon="-0.0392">
        <ele>557.817</ele>
        <time>2019-12-11T02:35:14Z</time>
      </trkpt>
      <trkpt lat="43.08346" lon="-0.03965">
        <ele>540.018</ele>
        <time>2019-12-11T02:35:34Z</time>
      </trkpt>
      <trkpt lat="43.08453" lon="-0.03932">
        <ele>520.908</ele>
        <time>2019-12-11T02:35:54Z</time>
      </trkpt>
      <trkpt lat="43.08576" lon="-0.03925">
        <ele>493.349</ele>
        <time>2019-12-11T02:36:14Z</time>
      </trkpt>
      <trkpt lat="43.08526" lon="-0.04021">
        <ele>462.358</ele>
        <time>2019-12-11T02:36:34Z</time>
      </trkpt>
      <trkpt lat="43.08381" lon="-0.04153">
        <ele>432.624</ele>
        <time>2019-12-11T02:36:54Z</time>
      </trkpt>
      <trkpt lat="43.0837" lon="-0.04232">
        <ele>427.43</ele>
        <time>2019-12-11T02:37:14Z</time>
      </trkpt>
      <trkpt lat="43.08369" lon="-0.04399">
        <ele>415.321</ele>
        <time>2019-12-11T02:37:34Z</time>
      </trkpt>
      <trkpt lat="43.08352" lon="-0.0442">
        <ele>417.823</ele>
        <time>2019-12-11T02:37:54Z</time>
      </trkpt>
      <trkpt lat="43.08355" lon="-0.04453">
        <ele>415.766</ele>
        <time>2019-12-11T02:38:14Z</time>
      </trkpt>
      <trkpt lat="43.08379" lon="-0.04448">
        <ele>410.848</ele>
        <time>2019-12-11T02:38:34Z</time>
      </trkpt>
      <trkpt lat="43.08394" lon="-0.0454">
        <ele>404.056</ele>
        <time>2019-12-11T02:38:54Z</time>
      </trkpt>
      <trkpt lat="43.08426" lon="-0.04547">
        <ele>403.359</ele>
        <time>2019-12-11T02:39:14Z</time>
      </trkpt>
      <trkpt lat="43.08435" lon="-0.04564">
        <ele>402.714</ele>
        <time>2019-12-11T02:39:34Z</time>
      </trkpt>
      <trkpt lat="43.08385" lon="-0.04571">
        <ele>407.608</ele>
        <time>2021-02-06T17:36:51Z</time>
      </trkpt>
      <trkpt lat="43.0839" lon="-0.04664">
        <ele>402.951</ele>
        <time>2021-02-06T17:37:11Z</time>
      </trkpt>
      <trkpt lat="43.08502" lon="-0.04735">
        <ele>399.35</ele>
        <time>2021-02-06T17:37:31Z</time>
      </trkpt>
      <trkpt lat="43.08617" lon="-0.04763">
        <ele>397.866</ele>
        <time>2021-02-06T17:37:51Z</time>
      </trkpt>
      <trkpt lat="43.08768" lon="-0.04741">
        <ele>401.882</ele>
        <time>2021-02-06T17:38:11Z</time>
      </trkpt>
      <trkpt lat="43.08872" lon="-0.04678">
        <ele>405.443</ele>
        <time>2021-02-06T17:38:31Z</time>
      </trkpt>
      <trkpt lat="43.08934" lon="-0.04615">
        <ele>405.575</ele>
        <time>2021-02-06T17:38:51Z</time>
      </trkpt>
      <trkpt lat="43.09116" lon="-0.04619">
        <ele>407.798</ele>
        <time>2021-02-06T17:39:11Z</time>
      </trkpt>
      <trkpt lat="43.09118" lon="-0.04736">
        <ele>412.19</ele>
        <time>2021-02-06T17:39:31Z</time>
      </trkpt>
      <trkpt lat="43.09164" lon="-0.04735">
        <ele>412.187</ele>
        <time>2021-02-06T17:39:51Z</time>
      </trkpt>
      <trkpt lat="43.09182" lon="-0.04789">
        <ele>415.642</ele>
        <time>2021-02-06T17:40:11Z</time>
      </trkpt>
      <trkpt lat="43.09208" lon="-0.04793">
        <ele>415.626</ele>
        <time>2021-02-06T17:40:31Z</time>
      </trkpt>
      <trkpt lat="43.09211" lon="-0.04815">
        <ele>417.208</ele>
        <time>2021-02-06T17:40:51Z</time>
      </trkpt>
      <trkpt lat="43.0923" lon="-0.04826">
        <ele>417.784</ele>
        <time>2021-02-06T17:41:11Z</time>
      </trkpt>
      <trkpt lat="43.09229" lon="-0.04845">
        <ele>417.443</ele>
        <time>2021-02-06T17:41:31Z</time>
      </trkpt>
      <trkpt lat="43.09316" lon="-0.04844">
        <ele>411.989</ele>
        <time>2021-02-06T17:41:51Z</time>
      </trkpt>
      <trkpt lat="43.09391" lon="-0.04811">
        <ele>411.275</ele>
        <time>2021-02-06T17:42:11Z</time>
      </trkpt>
      <trkpt lat="43.09463" lon="-0.04811">
        <ele>411.236</ele>
        <time>2021-02-06T17:42:31Z</time>
      </trkpt>
      <trkpt lat="43.0946" lon="-0.04841">
        <ele>411.188</ele>
        <time>2021-02-06T17:42:51Z</time>
      </trkpt>
      <trkpt lat="43.09451" lon="-0.04874">
        <ele>409.681</ele>
        <time>2021-02-06T17:43:11Z</time>
      </trkpt>
      <trkpt lat="43.09464" lon="-0.04882">
        <ele>409.273</ele>
        <time>2021-02-06T17:43:31Z</time>
      </trkpt>
      <trkpt lat="43.09482" lon="-0.04911">
        <ele>408.082</ele>
        <time>2021-02-06T17:43:51Z</time>
      </trkpt>
      <trkpt lat="43.09506" lon="-0.04913">
        <ele>408.443</ele>
        <time>2021-02-06T17:44:11Z</time>
      </trkpt>
      <trkpt lat="43.0951" lon="-0.04879">
        <ele>409.717</ele>
        <time>2021-02-06T17:44:31Z</time>
      </trkpt>
      <trkpt lat="43.0953" lon="-0.04866">
        <ele>410.808</ele>
        <time>2021-02-06T17:44:51Z</time>
      </trkpt>
      <trkpt lat="43.09543" lon="-0.04876">
        <ele>411.034</ele>
        <time>2021-02-06T17:45:11Z</time>
      </trkpt>
      <trkpt lat="43.09639" lon="-0.04834">
        <ele>411.783</ele>
        <time>2021-02-06T17:45:31Z</time>
      </trkpt>
      <trkpt lat="43.09632" lon="-0.04665">
        <ele>404.319</ele>
        <time>2021-02-06T17:45:51Z</time>
      </trkpt>
      <trkpt lat="43.09686" lon="-0.04664">
        <ele>394.365</ele>
        <time>2019-12-11T02:41:54Z</time>
      </trkpt>
      <trkpt lat="43.09736" lon="-0.04687">
        <ele>393.136</ele>
        <time>2019-12-11T02:42:14Z</time>
      </trkpt>
      <trkpt lat="43.09803" lon="-0.0466">
        <ele>399.478</ele>
        <time>2021-02-06T17:46:51Z</time>
      </trkpt>
      <trkpt lat="43.09809" lon="-0.04737">
        <ele>399.981</ele>
        <time>2021-02-06T17:47:11Z</time>
      </trkpt>
      <trkpt lat="43.09849" lon="-0.04925">
        <ele>394.533</ele>
        <time>2021-02-06T17:47:31Z</time>
      </trkpt>
      <trkpt lat="43.09822" lon="-0.05032">
        <ele>382.854</ele>
        <time>2021-02-06T17:47:51Z</time>
      </trkpt>
      <trkpt lat="43.09817" lon="-0.05075">
        <ele>369.056</ele>
        <time>2019-12-11T02:45:14Z</time>
      </trkpt>
      <trkpt lat="43.09807" lon="-0.05162">
        <ele>370.011</ele>
        <time>2019-12-11T02:45:34Z</time>
      </trkpt>
      <trkpt lat="43.09779" lon="-0.05183">
        <ele>370.008</ele>
        <time>2019-12-11T02:45:54Z</time>
      </trkpt>
      <trkpt lat="43.09725" lon="-0.0519">
        <ele>370.081</ele>
        <time>2019-12-11T02:46:14Z</time>
      </trkpt>
      <trkpt lat="43.09697" lon="-0.05236">
        <ele>370.06</ele>
        <time>2019-12-11T02:46:34Z</time>
      </trkpt>
      <trkpt lat="43.09671" lon="-0.05452">
        <ele>376.196</ele>
        <time>2019-12-11T02:46:54Z</time>
      </trkpt>
      <trkpt lat="43.09666" lon="-0.05575">
        <ele>380.642</ele>
        <time>2019-12-11T02:47:14Z</time>
      </trkpt>
      <trkpt lat="43.09683" lon="-0.05685">
        <ele>393.123</ele>
        <time>2019-12-11T02:47:34Z</time>
      </trkpt>
      <trkpt lat="43.09722" lon="-0.05798">
        <ele>379.675</ele>
        <time>2019-12-11T02:47:54Z</time>
      </trkpt>
      <trkpt lat="43.09713" lon="-0.05969">
        <ele>388.688</ele>
        <time>2019-12-11T02:48:14Z</time>
      </trkpt>
      <trkpt lat="43.09727" lon="-0.06025">
        <ele>387.72</ele>
        <time>2019-12-11T02:48:34Z</time>
      </trkpt>
      <trkpt lat="43.09731" lon="-0.06164">
        <ele>397.258</ele>
        <time>2019-12-11T02:48:54Z</time>
      </trkpt>
      <trkpt lat="43.09797" lon="-0.0648">
        <ele>401.952</ele>
        <time>2019-12-11T02:49:14Z</time>
      </trkpt>
      <trkpt lat="43.09845" lon="-0.06548">
        <ele>395.117</ele>
        <time>2019-12-11T02:49:34Z</time>
      </trkpt>
      <trkpt lat="43.09865" lon="-0.06626">
        <ele>388.208</ele>
        <time>2019-12-11T02:49:54Z</time>
      </trkpt>
      <trkpt lat="43.09862" lon="-0.0671">
        <ele>385.771</ele>
        <time>2019-12-11T02:50:14Z</time>
      </trkpt>
      <trkpt lat="43.09816" lon="-0.06944">
        <ele>377.04</ele>
        <time>2019-12-11T02:50:34Z</time>
      </trkpt>
      <trkpt lat="43.09742" lon="-0.07066">
        <ele>370.556</ele>
        <time>2019-12-11T02:50:54Z</time>
      </trkpt>
      <trkpt lat="43.0972" lon="-0.07123">
        <ele>371.232</ele>
        <time>2019-12-11T02:51:14Z</time>
      </trkpt>
      <trkpt lat="43.0972" lon="-0.07205">
        <ele>370.833</ele>
        <time>2019-12-11T02:51:34Z</time>
      </trkpt>
      <trkpt lat="43.09699" lon="-0.07322">
        <ele>369.035</ele>
        <time>2019-12-11T02:51:54Z</time>
      </trkpt>
      <trkpt lat="43.09709" lon="-0.0747">
        <ele>370.388</ele>
        <time>2019-12-11T02:52:14Z</time>
      </trkpt>
      <trkpt lat="43.09765" lon="-0.07728">
        <ele>369.07</ele>
        <time>2019-12-11T02:52:34Z</time>
      </trkpt>
      <trkpt lat="43.09766" lon="-0.07778">
        <ele>369.129</ele>
        <time>2019-12-11T02:52:54Z</time>
      </trkpt>
      <trkpt lat="43.09781" lon="-0.07805">
        <ele>369.8</ele>
        <time>2019-12-11T02:53:14Z</time>
      </trkpt>
      <trkpt lat="43.09794" lon="-0.07902">
        <ele>373.82</ele>
        <time>2019-12-11T02:53:34Z</time>
      </trkpt>
      <trkpt lat="43.09831" lon="-0.08035">
        <ele>376.008</ele>
        <time>2019-12-11T02:53:54Z</time>
      </trkpt>
      <trkpt lat="43.09865" lon="-0.08111">
        <ele>379.398</ele>
        <time>2019-12-11T02:54:14Z</time>
      </trkpt>
      <trkpt lat="43.09902" lon="-0.08164">
        <ele>371.687</ele>
        <time>2019-12-11T02:54:34Z</time>
      </trkpt>
      <trkpt lat="43.0997" lon="-0.08373">
        <ele>363.533</ele>
        <time>2019-12-11T02:54:54Z</time>
      </trkpt>
      <trkpt lat="43.0997" lon="-0.08429">
        <ele>365.419</ele>
        <time>2019-12-11T02:55:14Z</time>
      </trkpt>
      <trkpt lat="43.09979" lon="-0.0846">
        <ele>363.41</ele>
        <time>2019-12-11T02:55:34Z</time>
      </trkpt>
      <trkpt lat="43.09981" lon="-0.08544">
        <ele>362.962</ele>
        <time>2019-12-11T02:55:54Z</time>
      </trkpt>
      <trkpt lat="43.09995" lon="-0.0861">
        <ele>361.535</ele>
        <time>2019-12-11T02:56:14Z</time>
      </trkpt>
      <trkpt lat="43.09986" lon="-0.08636">
        <ele>362.597</ele>
        <time>2019-12-11T02:56:34Z</time>
      </trkpt>
      <trkpt lat="43.09981" lon="-0.08742">
        <ele>360.999</ele>
        <time>2019-12-11T02:56:54Z</time>
      </trkpt>
      <trkpt lat="43.09977" lon="-0.08852">
        <ele>360.007</ele>
        <time>2019-12-11T02:57:14Z</time>
      </trkpt>
      <trkpt lat="43.09949" lon="-0.08967">
        <ele>365.527</ele>
        <time>2019-12-11T02:57:34Z</time>
      </trkpt>
      <trkpt lat="43.09951" lon="-0.09047">
        <ele>364.908</ele>
        <time>2019-12-11T02:57:54Z</time>
      </trkpt>
      <trkpt lat="43.09943" lon="-0.09154">
        <ele>362.375</ele>
        <time>2019-12-11T02:58:14Z</time>
      </trkpt>
      <trkpt lat="43.0993" lon="-0.09188">
        <ele>367.664</ele>
        <time>2019-12-11T02:58:34Z</time>
      </trkpt>
      <trkpt lat="43.09914" lon="-0.09351">
        <ele>363.64</ele>
        <time>2019-12-11T02:58:54Z</time>
      </trkpt>
      <trkpt lat="43.09902" lon="-0.09443">
        <ele>369.986</ele>
        <time>2019-12-11T02:59:14Z</time>
      </trkpt>
      <trkpt lat="43.09906" lon="-0.09605">
        <ele>370.057</ele>
        <time>2019-12-11T02:59:34Z</time>
      </trkpt>
      <trkpt lat="43.09954" lon="-0.09788">
        <ele>370.069</ele>
        <time>2019-12-11T02:59:54Z</time>
      </trkpt>
      <trkpt lat="43.10047" lon="-0.1002">
        <ele>365.532</ele>
        <time>2019-12-11T03:00:14Z</time>
      </trkpt>
      <trkpt lat="43.10115" lon="-0.10271">
        <ele>366.414</ele>
        <time>2019-12-11T03:00:34Z</time>
      </trkpt>
      <trkpt lat="43.10124" lon="-0.10382">
        <ele>375.584</ele>
        <time>2019-12-11T03:00:54Z</time>
      </trkpt>
      <trkpt lat="43.10128" lon="-0.10487">
        <ele>381.707</ele>
        <time>2019-12-11T03:01:14Z</time>
      </trkpt>
      <trkpt lat="43.10158" lon="-0.10684">
        <ele>378.217</ele>
        <time>2019-12-11T03:01:34Z</time>
      </trkpt>
      <trkpt lat="43.10198" lon="-0.10867">
        <ele>372.208</ele>
        <time>2019-12-11T03:01:54Z</time>
      </trkpt>
      <trkpt lat="43.102" lon="-0.1093">
        <ele>374.454</ele>
        <time>2019-12-11T03:02:14Z</time>
      </trkpt>
      <trkpt lat="43.10246" lon="-0.11156">
        <ele>366.023</ele>
        <time>2019-12-11T03:02:34Z</time>
      </trkpt>
      <trkpt lat="43.10245" lon="-0.11292">
        <ele>361.269</ele>
        <time>2019-12-11T03:02:54Z</time>
      </trkpt>
      <trkpt lat="43.10252" lon="-0.11459">
        <ele>355.775</ele>
        <time>2019-12-11T03:03:14Z</time>
      </trkpt>
      <trkpt lat="43.1021" lon="-0.11735">
        <ele>355.166</ele>
        <time>2019-12-11T03:03:34Z</time>
      </trkpt>
      <trkpt lat="43.10204" lon="-0.11862">
        <ele>353.038</ele>
        <time>2019-12-11T03:03:54Z</time>
      </trkpt>
      <trkpt lat="43.10185" lon="-0.11958">
        <ele>351.691</ele>
        <time>2019-12-11T03:04:14Z</time>
      </trkpt>
      <trkpt lat="43.10122" lon="-0.12083">
        <ele>357.983</ele>
        <time>2019-12-11T03:04:34Z</time>
      </trkpt>
      <trkpt lat="43.10103" lon="-0.12202">
        <ele>358.666</ele>
        <time>2019-12-11T03:04:54Z</time>
      </trkpt>
      <trkpt lat="43.10083" lon="-0.1231">
        <ele>367.029</ele>
        <time>2019-12-11T03:05:14Z</time>
      </trkpt>
      <trkpt lat="43.10013" lon="-0.12437">
        <ele>364.721</ele>
        <time>2019-12-11T03:05:34Z</time>
      </trkpt>
      <trkpt lat="43.09977" lon="-0.12484">
        <ele>363.308</ele>
        <time>2019-12-11T03:05:54Z</time>
      </trkpt>
      <trkpt lat="43.09865" lon="-0.1257">
        <ele>368.412</ele>
        <time>2019-12-11T03:06:14Z</time>
      </trkpt>
      <trkpt lat="43.09816" lon="-0.12601">
        <ele>368.091</ele>
        <time>2019-12-11T03:06:34Z</time>
      </trkpt>
      <trkpt lat="43.09792" lon="-0.12707">
        <ele>364.547</ele>
        <time>2019-12-11T03:06:54Z</time>
      </trkpt>
      <trkpt lat="43.09795" lon="-0.12782">
        <ele>360.413</ele>
        <time>2019-12-11T03:07:14Z</time>
      </trkpt>
      <trkpt lat="43.09765" lon="-0.12824">
        <ele>365.264</ele>
        <time>2019-12-11T03:07:34Z</time>
      </trkpt>
      <trkpt lat="43.09792" lon="-0.12887">
        <ele>364.986</ele>
        <time>2019-12-11T03:07:54Z</time>
      </trkpt>
      <trkpt lat="43.09794" lon="-0.13014">
        <ele>367.769</ele>
        <time>2019-12-11T03:08:14Z</time>
      </trkpt>
      <trkpt lat="43.0983" lon="-0.13117">
        <ele>371.351</ele>
        <time>2019-12-11T03:08:34Z</time>
      </trkpt>
      <trkpt lat="43.09876" lon="-0.13194">
        <ele>361.281</ele>
        <time>2019-12-11T03:08:54Z</time>
      </trkpt>
      <trkpt lat="43.09924" lon="-0.13258">
        <ele>358.061</ele>
        <time>2019-12-11T03:09:14Z</time>
      </trkpt>
      <trkpt lat="43.09952" lon="-0.13328">
        <ele>360.517</ele>
        <time>2019-12-11T03:09:34Z</time>
      </trkpt>
      <trkpt lat="43.09977" lon="-0.13422">
        <ele>360.708</ele>
        <time>2019-12-11T03:09:54Z</time>
      </trkpt>
      <trkpt lat="43.10003" lon="-0.13479">
        <ele>360.154</ele>
        <time>2019-12-11T03:10:14Z</time>
      </trkpt>
      <trkpt lat="43.10005" lon="-0.13532">
        <ele>360.813</ele>
        <time>2019-12-11T03:10:34Z</time>
      </trkpt>
      <trkpt lat="43.09974" lon="-0.13645">
        <ele>360.779</ele>
        <time>2019-12-11T03:10:54Z</time>
      </trkpt>
      <trkpt lat="43.09956" lon="-0.1373">
        <ele>358.375</ele>
        <time>2019-12-11T03:11:14Z</time>
      </trkpt>
      <trkpt lat="43.09944" lon="-0.13835">
        <ele>355.026</ele>
        <time>2019-12-11T03:11:34Z</time>
      </trkpt>
      <trkpt lat="43.10013" lon="-0.13847">
        <ele>357.668</ele>
        <time>2019-12-11T03:11:54Z</time>
      </trkpt>
      <trkpt lat="43.10026" lon="-0.13877">
        <ele>358.131</ele>
        <time>2019-12-11T03:12:14Z</time>
      </trkpt>
      <trkpt lat="43.10019" lon="-0.1394">
        <ele>354.773</ele>
        <time>2019-12-11T03:12:34Z</time>
      </trkpt>
      <trkpt lat="43.10032" lon="-0.14067">
        <ele>352.815</ele>
        <time>2019-12-11T03:12:54Z</time>
      </trkpt>
      <trkpt lat="43.10055" lon="-0.14093">
        <ele>352.665</ele>
        <time>2019-12-11T03:13:14Z</time>
      </trkpt>
      <trkpt lat="43.10056" lon="-0.1418">
        <ele>350.511</ele>
        <time>2019-12-11T03:13:34Z</time>
      </trkpt>
      <trkpt lat="43.10079" lon="-0.14191">
        <ele>350.008</ele>
        <time>2019-12-11T03:13:54Z</time>
      </trkpt>
      <trkpt lat="43.10134" lon="-0.14198">
        <ele>349.987</ele>
        <time>2019-12-11T03:14:14Z</time>
      </trkpt>
      <trkpt lat="43.1018" lon="-0.14234">
        <ele>346.516</ele>
        <time>2019-12-11T03:14:34Z</time>
      </trkpt>
      <trkpt lat="43.10218" lon="-0.14288">
        <ele>340.172</ele>
        <time>2019-12-11T03:14:54Z</time>
      </trkpt>
      <trkpt lat="43.10264" lon="-0.14335">
        <ele>340.018</ele>
        <time>2019-12-11T03:15:14Z</time>
      </trkpt>
      <trkpt lat="43.10321" lon="-0.14445">
        <ele>358.529</ele>
        <time>2019-12-11T03:15:34Z</time>
      </trkpt>
      <trkpt lat="43.10289" lon="-0.14501">
        <ele>355.331</ele>
        <time>2019-12-11T03:15:54Z</time>
      </trkpt>
      <trkpt lat="43.10303" lon="-0.14506">
        <ele>359.734</ele>
        <time>2019-12-11T03:16:14Z</time>
      </trkpt>
      <trkpt lat="43.10326" lon="-0.14696">
        <ele>380.776</ele>
        <time>2019-12-11T03:16:34Z</time>
      </trkpt>
      <trkpt lat="43.10321" lon="-0.14795">
        <ele>392.848</ele>
        <time>2019-12-11T03:16:54Z</time>
      </trkpt>
      <trkpt lat="43.10312" lon="-0.14839">
        <ele>393.361</ele>
        <time>2019-12-11T03:17:14Z</time>
      </trkpt>
      <trkpt lat="43.10327" lon="-0.14973">
        <ele>392.217</ele>
        <time>2019-12-11T03:17:34Z</time>
      </trkpt>
      <trkpt lat="43.10317" lon="-0.15025">
        <ele>399.408</ele>
        <time>2019-12-11T03:17:54Z</time>
      </trkpt>
      <trkpt lat="43.1028" lon="-0.15039">
        <ele>400.01</ele>
        <time>2019-12-11T03:18:14Z</time>
      </trkpt>
      <trkpt lat="43.10234" lon="-0.15109">
        <ele>406.789</ele>
        <time>2019-12-11T03:18:34Z</time>
      </trkpt>
      <trkpt lat="43.10204" lon="-0.1521">
        <ele>409.855</ele>
        <time>2019-12-11T03:18:54Z</time>
      </trkpt>
      <trkpt lat="43.10176" lon="-0.15315">
        <ele>407.961</ele>
        <time>2019-12-11T03:19:14Z</time>
      </trkpt>
      <trkpt lat="43.10165" lon="-0.15394">
        <ele>398.882</ele>
        <time>2019-12-11T03:19:34Z</time>
      </trkpt>
      <trkpt lat="43.10146" lon="-0.15483">
        <ele>384.334</ele>
        <time>2019-12-11T03:19:54Z</time>
      </trkpt>
      <trkpt lat="43.10149" lon="-0.15533">
        <ele>380.137</ele>
        <time>2019-12-11T03:20:14Z</time>
      </trkpt>
      <trkpt lat="43.10172" lon="-0.15655">
        <ele>376.759</ele>
        <time>2019-12-11T03:20:34Z</time>
      </trkpt>
      <trkpt lat="43.10173" lon="-0.15716">
        <ele>368.087</ele>
        <time>2019-12-11T03:20:54Z</time>
      </trkpt>
      <trkpt lat="43.10186" lon="-0.15762">
        <ele>362.542</ele>
        <time>2019-12-11T03:21:14Z</time>
      </trkpt>
      <trkpt lat="43.10211" lon="-0.15809">
        <ele>357.426</ele>
        <time>2019-12-11T03:21:34Z</time>
      </trkpt>
      <trkpt lat="43.10222" lon="-0.15818">
        <ele>357.708</ele>
        <time>2019-12-11T03:21:54Z</time>
      </trkpt>
      <trkpt lat="43.10241" lon="-0.15823">
        <ele>357.864</ele>
        <time>2019-12-11T03:22:14Z</time>
      </trkpt>
      <trkpt lat="43.10254" lon="-0.15834">
        <ele>357.083</ele>
        <time>2019-12-11T03:22:34Z</time>
      </trkpt>
      <trkpt lat="43.10324" lon="-0.15808">
        <ele>358.889</ele>
        <time>2019-12-11T03:22:54Z</time>
      </trkpt>
      <trkpt lat="43.10335" lon="-0.15878">
        <ele>355.435</ele>
        <time>2019-12-11T03:23:14Z</time>
      </trkpt>
      <trkpt lat="43.10329" lon="-0.15918">
        <ele>353.846</ele>
        <time>2019-12-11T03:23:34Z</time>
      </trkpt>
      <trkpt lat="43.10342" lon="-0.15924">
        <ele>353.668</ele>
        <time>2019-12-11T03:23:54Z</time>
      </trkpt>
      <trkpt lat="43.10355" lon="-0.15982">
        <ele>351.831</ele>
        <time>2019-12-11T03:24:14Z</time>
      </trkpt>
      <trkpt lat="43.10317" lon="-0.16015">
        <ele>349.973</ele>
        <time>2019-12-11T03:24:34Z</time>
      </trkpt>
      <trkpt lat="43.10314" lon="-0.16028">
        <ele>349.339</ele>
        <time>2019-12-11T03:24:54Z</time>
      </trkpt>
      <trkpt lat="43.1029" lon="-0.1605">
        <ele>347.501</ele>
        <time>2019-12-11T03:25:14Z</time>
      </trkpt>
      <trkpt lat="43.10315" lon="-0.16101">
        <ele>347.521</ele>
        <time>2019-12-11T03:25:34Z</time>
      </trkpt>
      <trkpt lat="43.10317" lon="-0.16129">
        <ele>347.108</ele>
        <time>2019-12-11T03:25:54Z</time>
      </trkpt>
      <trkpt lat="43.10302" lon="-0.16142">
        <ele>344.579</ele>
        <time>2019-12-11T03:26:14Z</time>
      </trkpt>
      <trkpt lat="43.10286" lon="-0.16167">
        <ele>341.998</ele>
        <time>2019-12-11T03:26:34Z</time>
      </trkpt>
      <trkpt lat="43.10263" lon="-0.16168">
        <ele>339.984</ele>
        <time>2019-12-11T03:26:54Z</time>
      </trkpt>
      <trkpt lat="43.10247" lon="-0.16181">
        <ele>338.94</ele>
        <time>2019-12-11T03:27:14Z</time>
      </trkpt>
      <trkpt lat="43.10212" lon="-0.16254">
        <ele>335.141</ele>
        <time>2019-12-11T03:27:34Z</time>
      </trkpt>
      <trkpt lat="43.10247" lon="-0.16376">
        <ele>337.323</ele>
        <time>2019-12-11T03:27:54Z</time>
      </trkpt>
      <trkpt lat="43.10237" lon="-0.16618">
        <ele>337.446</ele>
        <time>2019-12-11T03:28:14Z</time>
      </trkpt>
      <trkpt lat="43.10136" lon="-0.16589">
        <ele>331.378</ele>
        <time>2019-12-11T03:28:34Z</time>
      </trkpt>
      <trkpt lat="43.10102" lon="-0.16603">
        <ele>334.311</ele>
        <time>2019-12-11T03:28:54Z</time>
      </trkpt>
      <trkpt lat="43.10084" lon="-0.16645">
        <ele>334.721</ele>
        <time>2019-12-11T03:29:14Z</time>
      </trkpt>
      <trkpt lat="43.10056" lon="-0.16761">
        <ele>333.503</ele>
        <time>2019-12-11T03:29:34Z</time>
      </trkpt>
      <trkpt lat="43.10014" lon="-0.16882">
        <ele>334.208</ele>
        <time>2019-12-11T03:29:54Z</time>
      </trkpt>
      <trkpt lat="43.09957" lon="-0.16983">
        <ele>334.457</ele>
        <time>2019-12-11T03:30:14Z</time>
      </trkpt>
      <trkpt lat="43.09939" lon="-0.17059">
        <ele>334.216</ele>
        <time>2019-12-11T03:30:34Z</time>
      </trkpt>
      <trkpt lat="43.09921" lon="-0.17242">
        <ele>330.032</ele>
        <time>2019-12-11T03:30:54Z</time>
      </trkpt>
      <trkpt lat="43.09897" lon="-0.17337">
        <ele>335.298</ele>
        <time>2019-12-11T03:31:14Z</time>
      </trkpt>
      <trkpt lat="43.0993" lon="-0.17464">
        <ele>347.829</ele>
        <time>2019-12-11T03:31:34Z</time>
      </trkpt>
      <trkpt lat="43.0997" lon="-0.17506">
        <ele>343.081</ele>
        <time>2019-12-11T03:31:54Z</time>
      </trkpt>
      <trkpt lat="43.10024" lon="-0.17549">
        <ele>331.864</ele>
        <time>2019-12-11T03:32:14Z</time>
      </trkpt>
      <trkpt lat="43.1003" lon="-0.17594">
        <ele>334.816</ele>
        <time>2019-12-11T03:32:34Z</time>
      </trkpt>
      <trkpt lat="43.10017" lon="-0.1768">
        <ele>353.289</ele>
        <time>2019-12-11T03:32:54Z</time>
      </trkpt>
      <trkpt lat="43.10059" lon="-0.17804">
        <ele>344.906</ele>
        <time>2019-12-11T03:33:14Z</time>
      </trkpt>
      <trkpt lat="43.10078" lon="-0.17922">
        <ele>346.426</ele>
        <time>2019-12-11T03:33:34Z</time>
      </trkpt>
      <trkpt lat="43.1013" lon="-0.18034">
        <ele>341.408</ele>
        <time>2019-12-11T03:33:54Z</time>
      </trkpt>
      <trkpt lat="43.10214" lon="-0.18145">
        <ele>330.554</ele>
        <time>2019-12-11T03:34:14Z</time>
      </trkpt>
      <trkpt lat="43.10237" lon="-0.18206">
        <ele>329.993</ele>
        <time>2019-12-11T03:34:34Z</time>
      </trkpt>
      <trkpt lat="43.10234" lon="-0.18483">
        <ele>328.629</ele>
        <time>2019-12-11T03:34:54Z</time>
      </trkpt>
      <trkpt lat="43.10219" lon="-0.18593">
        <ele>329.245</ele>
        <time>2019-12-11T03:35:14Z</time>
      </trkpt>
      <trkpt lat="43.10261" lon="-0.1875">
        <ele>326.456</ele>
        <time>2019-12-11T03:35:34Z</time>
      </trkpt>
      <trkpt lat="43.10357" lon="-0.18916">
        <ele>319.478</ele>
        <time>2019-12-11T03:35:54Z</time>
      </trkpt>
      <trkpt lat="43.10411" lon="-0.18971">
        <ele>319.081</ele>
        <time>2019-12-11T03:36:14Z</time>
      </trkpt>
      <trkpt lat="43.10436" lon="-0.19041">
        <ele>319.943</ele>
        <time>2019-12-11T03:36:34Z</time>
      </trkpt>
      <trkpt lat="43.1047" lon="-0.19102">
        <ele>319.111</ele>
        <time>2019-12-11T03:36:54Z</time>
      </trkpt>
      <trkpt lat="43.10484" lon="-0.19187">
        <ele>319.421</ele>
        <time>2019-12-11T03:37:14Z</time>
      </trkpt>
      <trkpt lat="43.10596" lon="-0.19231">
        <ele>320.903</ele>
        <time>2019-12-11T03:37:34Z</time>
      </trkpt>
      <trkpt lat="43.10815" lon="-0.19241">
        <ele>318.408</ele>
        <time>2019-12-11T03:37:54Z</time>
      </trkpt>
      <trkpt lat="43.10847" lon="-0.1928">
        <ele>318.147</ele>
        <time>2019-12-11T03:38:14Z</time>
      </trkpt>
      <trkpt lat="43.11224" lon="-0.19362">
        <ele>315.026</ele>
        <time>2019-12-11T03:38:34Z</time>
      </trkpt>
      <trkpt lat="43.11305" lon="-0.1944">
        <ele>315.052</ele>
        <time>2019-12-11T03:38:54Z</time>
      </trkpt>
      <trkpt lat="43.11352" lon="-0.19472">
        <ele>315.018</ele>
        <time>2019-12-11T03:39:14Z</time>
      </trkpt>
      <trkpt lat="43.11583" lon="-0.1955">
        <ele>314.889</ele>
        <time>2019-12-11T03:39:34Z</time>
      </trkpt>
      <trkpt lat="43.11638" lon="-0.19602">
        <ele>315.031</ele>
        <time>2019-12-11T03:39:54Z</time>
      </trkpt>
      <trkpt lat="43.11815" lon="-0.19862">
        <ele>314.064</ele>
        <time>2019-12-11T03:40:14Z</time>
      </trkpt>
      <trkpt lat="43.11847" lon="-0.19963">
        <ele>312.556</ele>
        <time>2019-12-11T03:40:34Z</time>
      </trkpt>
      <trkpt lat="43.11857" lon="-0.20033">
        <ele>314.164</ele>
        <time>2019-12-11T03:40:54Z</time>
      </trkpt>
      <trkpt lat="43.1188" lon="-0.20106">
        <ele>315.106</ele>
        <time>2019-12-11T03:41:14Z</time>
      </trkpt>
      <trkpt lat="43.11908" lon="-0.20212">
        <ele>314.816</ele>
        <time>2019-12-11T03:41:34Z</time>
      </trkpt>
      <trkpt lat="43.11945" lon="-0.20289">
        <ele>314.208</ele>
        <time>2019-12-11T03:41:54Z</time>
      </trkpt>
      <trkpt lat="43.12118" lon="-0.20469">
        <ele>310.032</ele>
        <time>2019-12-11T03:42:14Z</time>
      </trkpt>
      <trkpt lat="43.12179" lon="-0.20549">
        <ele>309.231</ele>
        <time>2019-12-11T03:42:34Z</time>
      </trkpt>
      <trkpt lat="43.12264" lon="-0.20667">
        <ele>309.067</ele>
        <time>2019-12-11T03:42:54Z</time>
      </trkpt>
      <trkpt lat="43.12322" lon="-0.20725">
        <ele>309.533</ele>
        <time>2019-12-11T03:43:14Z</time>
      </trkpt>
      <trkpt lat="43.12381" lon="-0.20726">
        <ele>303.764</ele>
        <time>2019-12-11T03:43:34Z</time>
      </trkpt>
      <trkpt lat="43.12425" lon="-0.20758">
        <ele>310.536</ele>
        <time>2019-12-11T03:43:54Z</time>
      </trkpt>
      <trkpt lat="43.12457" lon="-0.20775">
        <ele>310.099</ele>
        <time>2019-12-11T03:44:14Z</time>
      </trkpt>
      <trkpt lat="43.12472" lon="-0.20803">
        <ele>314.411</ele>
        <time>2019-12-11T03:44:34Z</time>
      </trkpt>
      <trkpt lat="43.12402" lon="-0.20783">
        <ele>328.322</ele>
        <time>2019-12-11T03:44:54Z</time>
      </trkpt>
      <trkpt lat="43.12342" lon="-0.20774">
        <ele>333.162</ele>
        <time>2019-12-11T03:45:14Z</time>
      </trkpt>
      <trkpt lat="43.12286" lon="-0.20791">
        <ele>341.908</ele>
        <time>2019-12-11T03:45:34Z</time>
      </trkpt>
      <trkpt lat="43.12238" lon="-0.20833">
        <ele>352.908</ele>
        <time>2019-12-11T03:45:54Z</time>
      </trkpt>
      <trkpt lat="43.12167" lon="-0.20871">
        <ele>357.798</ele>
        <time>2019-12-11T03:46:14Z</time>
      </trkpt>
      <trkpt lat="43.12205" lon="-0.20866">
        <ele>362.167</ele>
        <time>2019-12-11T03:46:34Z</time>
      </trkpt>
      <trkpt lat="43.12227" lon="-0.20881">
        <ele>372.713</ele>
        <time>2019-12-11T03:46:54Z</time>
      </trkpt>
      <trkpt lat="43.1221" lon="-0.20902">
        <ele>374.279</ele>
        <time>2019-12-11T03:47:14Z</time>
      </trkpt>
      <trkpt lat="43.12227" lon="-0.20949">
        <ele>383.24</ele>
        <time>2019-12-11T03:47:34Z</time>
      </trkpt>
      <trkpt lat="43.12272" lon="-0.20928">
        <ele>390.722</ele>
        <time>2019-12-11T03:47:54Z</time>
      </trkpt>
      <trkpt lat="43.12288" lon="-0.20934">
        <ele>391.625</ele>
        <time>2019-12-11T03:48:14Z</time>
      </trkpt>
      <trkpt lat="43.12285" lon="-0.21045">
        <ele>396.177</ele>
        <time>2019-12-11T03:48:34Z</time>
      </trkpt>
      <trkpt lat="43.12272" lon="-0.21054">
        <ele>395.631</ele>
        <time>2019-12-11T03:48:54Z</time>
      </trkpt>
      <trkpt lat="43.12266" lon="-0.21109">
        <ele>396.961</ele>
        <time>2019-12-11T03:49:14Z</time>
      </trkpt>
      <trkpt lat="43.12272" lon="-0.21214">
        <ele>406.107</ele>
        <time>2019-12-11T03:49:34Z</time>
      </trkpt>
      <trkpt lat="43.12281" lon="-0.21283">
        <ele>413.208</ele>
        <time>2019-12-11T03:49:54Z</time>
      </trkpt>
      <trkpt lat="43.12265" lon="-0.21398">
        <ele>413.679</ele>
        <time>2019-12-11T03:50:14Z</time>
      </trkpt>
      <trkpt lat="43.1224" lon="-0.21456">
        <ele>410.038</ele>
        <time>2019-12-11T03:50:34Z</time>
      </trkpt>
      <trkpt lat="43.12193" lon="-0.21597">
        <ele>411.444</ele>
        <time>2019-12-11T03:50:54Z</time>
      </trkpt>
      <trkpt lat="43.12184" lon="-0.2161">
        <ele>410.64</ele>
        <time>2019-12-11T03:51:14Z</time>
      </trkpt>
      <trkpt lat="43.12183" lon="-0.2163">
        <ele>410.211</ele>
        <time>2019-12-11T03:51:34Z</time>
      </trkpt>
      <trkpt lat="43.12172" lon="-0.21667">
        <ele>409.813</ele>
        <time>2019-12-11T03:51:54Z</time>
      </trkpt>
      <trkpt lat="43.12141" lon="-0.21739">
        <ele>408.226</ele>
        <time>2019-12-11T03:52:14Z</time>
      </trkpt>
      <trkpt lat="43.12122" lon="-0.21804">
        <ele>407.918</ele>
        <time>2019-12-11T03:52:34Z</time>
      </trkpt>
      <trkpt lat="43.12093" lon="-0.21865">
        <ele>411.679</ele>
        <time>2019-12-11T03:52:54Z</time>
      </trkpt>
      <trkpt lat="43.12099" lon="-0.21905">
        <ele>409.005</ele>
        <time>2019-12-11T03:53:14Z</time>
      </trkpt>
      <trkpt lat="43.12115" lon="-0.2194">
        <ele>405.825</ele>
        <time>2019-12-11T03:53:34Z</time>
      </trkpt>
      <trkpt lat="43.12147" lon="-0.21988">
        <ele>404.908</ele>
        <time>2019-12-11T03:53:54Z</time>
      </trkpt>
      <trkpt lat="43.12169" lon="-0.22054">
        <ele>409.653</ele>
        <time>2019-12-11T03:54:14Z</time>
      </trkpt>
      <trkpt lat="43.12195" lon="-0.221">
        <ele>403.752</ele>
        <time>2019-12-11T03:54:34Z</time>
      </trkpt>
      <trkpt lat="43.12233" lon="-0.22132">
        <ele>401.048</ele>
        <time>2019-12-11T03:54:54Z</time>
      </trkpt>
      <trkpt lat="43.12262" lon="-0.22153">
        <ele>401.544</ele>
        <time>2019-12-11T03:55:14Z</time>
      </trkpt>
      <trkpt lat="43.12276" lon="-0.22156">
        <ele>400.135</ele>
        <time>2019-12-11T03:55:34Z</time>
      </trkpt>
      <trkpt lat="43.12289" lon="-0.22175">
        <ele>398.267</ele>
        <time>2019-12-11T03:55:54Z</time>
      </trkpt>
      <trkpt lat="43.12309" lon="-0.22209">
        <ele>399.31</ele>
        <time>2019-12-11T03:56:14Z</time>
      </trkpt>
      <trkpt lat="43.12355" lon="-0.22205">
        <ele>389.912</ele>
        <time>2019-12-11T03:56:34Z</time>
      </trkpt>
      <trkpt lat="43.12403" lon="-0.22192">
        <ele>384.685</ele>
        <time>2019-12-11T03:56:54Z</time>
      </trkpt>
      <trkpt lat="43.12422" lon="-0.2217">
        <ele>381.789</ele>
        <time>2019-12-11T03:57:14Z</time>
      </trkpt>
      <trkpt lat="43.12453" lon="-0.22114">
        <ele>373.417</ele>
        <time>2019-12-11T03:57:34Z</time>
      </trkpt>
      <trkpt lat="43.12468" lon="-0.22099">
        <ele>370.408</ele>
        <time>2019-12-11T03:57:54Z</time>
      </trkpt>
      <trkpt lat="43.1248" lon="-0.22101">
        <ele>368.674</ele>
        <time>2019-12-11T03:58:14Z</time>
      </trkpt>
      <trkpt lat="43.12538" lon="-0.22168">
        <ele>359.973</ele>
        <time>2019-12-11T03:58:34Z</time>
      </trkpt>
      <trkpt lat="43.12563" lon="-0.22174">
        <ele>356.619</ele>
        <time>2019-12-11T03:58:54Z</time>
      </trkpt>
      <trkpt lat="43.12606" lon="-0.22155">
        <ele>350.485</ele>
        <time>2019-12-11T03:59:14Z</time>
      </trkpt>
      <trkpt lat="43.12571" lon="-0.22231">
        <ele>358.096</ele>
        <time>2019-12-11T03:59:34Z</time>
      </trkpt>
      <trkpt lat="43.12575" lon="-0.22329">
        <ele>364.998</ele>
        <time>2019-12-11T03:59:54Z</time>
      </trkpt>
      <trkpt lat="43.12607" lon="-0.22346">
        <ele>362.291</ele>
        <time>2019-12-11T04:00:14Z</time>
      </trkpt>
      <trkpt lat="43.12638" lon="-0.2235">
        <ele>360.353</ele>
        <time>2019-12-11T04:00:34Z</time>
      </trkpt>
      <trkpt lat="43.12672" lon="-0.22382">
        <ele>359.955</ele>
        <time>2019-12-11T04:00:54Z</time>
      </trkpt>
      <trkpt lat="43.12761" lon="-0.22633">
        <ele>346.807</ele>
        <time>2019-12-11T04:01:14Z</time>
      </trkpt>
      <trkpt lat="43.12792" lon="-0.22758">
        <ele>343.717</ele>
        <time>2019-12-11T04:01:34Z</time>
      </trkpt>
      <trkpt lat="43.1276" lon="-0.22895">
        <ele>341.508</ele>
        <time>2019-12-11T04:01:54Z</time>
      </trkpt>
      <trkpt lat="43.12747" lon="-0.23012">
        <ele>340.011</ele>
        <time>2019-12-11T04:02:14Z</time>
      </trkpt>
      <trkpt lat="43.12761" lon="-0.23026">
        <ele>340.84</ele>
        <time>2019-12-11T04:02:34Z</time>
      </trkpt>
      <trkpt lat="43.12754" lon="-0.23116">
        <ele>338.546</ele>
        <time>2019-12-11T04:02:54Z</time>
      </trkpt>
      <trkpt lat="43.12754" lon="-0.23187">
        <ele>332.532</ele>
        <time>2019-12-11T04:03:14Z</time>
      </trkpt>
      <trkpt lat="43.12735" lon="-0.23273">
        <ele>325.493</ele>
        <time>2019-12-11T04:03:34Z</time>
      </trkpt>
      <trkpt lat="43.12714" lon="-0.23312">
        <ele>324.845</ele>
        <time>2019-12-11T04:03:54Z</time>
      </trkpt>
      <trkpt lat="43.12645" lon="-0.23366">
        <ele>320.688</ele>
        <time>2019-12-11T04:04:14Z</time>
      </trkpt>
      <trkpt lat="43.12569" lon="-0.23342">
        <ele>320.43</ele>
        <time>2019-12-11T04:04:34Z</time>
      </trkpt>
      <trkpt lat="43.1255" lon="-0.23346">
        <ele>320.744</ele>
        <time>2019-12-11T04:04:54Z</time>
      </trkpt>
      <trkpt lat="43.12527" lon="-0.23376">
        <ele>321.205</ele>
        <time>2019-12-11T04:05:14Z</time>
      </trkpt>
      <trkpt lat="43.12545" lon="-0.23442">
        <ele>326.115</ele>
        <time>2019-12-11T04:05:34Z</time>
      </trkpt>
      <trkpt lat="43.12533" lon="-0.23512">
        <ele>333.108</ele>
        <time>2019-12-11T04:05:54Z</time>
      </trkpt>
      <trkpt lat="43.12508" lon="-0.23621">
        <ele>347.98</ele>
        <time>2019-12-11T04:06:14Z</time>
      </trkpt>
      <trkpt lat="43.12511" lon="-0.23687">
        <ele>350.389</ele>
        <time>2019-12-11T04:06:34Z</time>
      </trkpt>
      <trkpt lat="43.12556" lon="-0.24093">
        <ele>360.045</ele>
        <time>2019-12-11T04:06:54Z</time>
      </trkpt>
      <trkpt lat="43.12515" lon="-0.24221">
        <ele>355.081</ele>
        <time>2019-12-11T04:07:14Z</time>
      </trkpt>
      <trkpt lat="43.12469" lon="-0.24298">
        <ele>351.012</ele>
        <time>2019-12-11T04:07:34Z</time>
      </trkpt>
      <trkpt lat="43.12443" lon="-0.24363">
        <ele>345.074</ele>
        <time>2019-12-11T04:07:54Z</time>
      </trkpt>
      <trkpt lat="43.12411" lon="-0.24426">
        <ele>336.857</ele>
        <time>2019-12-11T04:08:14Z</time>
      </trkpt>
      <trkpt lat="43.12391" lon="-0.24452">
        <ele>335.089</ele>
        <time>2019-12-11T04:08:34Z</time>
      </trkpt>
      <trkpt lat="43.1235" lon="-0.24486">
        <ele>335.911</ele>
        <time>2019-12-11T04:08:54Z</time>
      </trkpt>
      <trkpt lat="43.12331" lon="-0.24522">
        <ele>333.521</ele>
        <time>2019-12-11T04:09:14Z</time>
      </trkpt>
      <trkpt lat="43.12295" lon="-0.24565">
        <ele>335.303</ele>
        <time>2019-12-11T04:09:34Z</time>
      </trkpt>
      <trkpt lat="43.12277" lon="-0.24614">
        <ele>327.208</ele>
        <time>2019-12-11T04:09:54Z</time>
      </trkpt>
      <trkpt lat="43.12238" lon="-0.24666">
        <ele>315.917</ele>
        <time>2019-12-11T04:10:14Z</time>
      </trkpt>
      <trkpt lat="43.12186" lon="-0.24715">
        <ele>312.666</ele>
        <time>2019-12-11T04:10:34Z</time>
      </trkpt>
      <trkpt lat="43.12148" lon="-0.2474">
        <ele>318.812</ele>
        <time>2019-12-11T04:10:54Z</time>
      </trkpt>
      <trkpt lat="43.12219" lon="-0.24701">
        <ele>310.318</ele>
        <time>2019-12-11T04:11:14Z</time>
      </trkpt>
      <trkpt lat="43.12316" lon="-0.24635">
        <ele>311.869</ele>
        <time>2019-12-11T04:11:34Z</time>
      </trkpt>
      <trkpt lat="43.12368" lon="-0.24646">
        <ele>310.221</ele>
        <time>2019-12-11T04:11:54Z</time>
      </trkpt>
      <trkpt lat="43.12413" lon="-0.24698">
        <ele>311.554</ele>
        <time>2019-12-11T04:12:14Z</time>
      </trkpt>
      <trkpt lat="43.12447" lon="-0.24826">
        <ele>310.366</ele>
        <time>2019-12-11T04:12:34Z</time>
      </trkpt>
      <trkpt lat="43.12471" lon="-0.24878">
        <ele>310.492</ele>
        <time>2019-12-11T04:12:54Z</time>
      </trkpt>
      <trkpt lat="43.12506" lon="-0.24911">
        <ele>311.173</ele>
        <time>2019-12-11T04:13:14Z</time>
      </trkpt>
      <trkpt lat="43.1265" lon="-0.24919">
        <ele>309.02</ele>
        <time>2019-12-11T04:13:34Z</time>
      </trkpt>
      <trkpt lat="43.12811" lon="-0.24927">
        <ele>309.508</ele>
        <time>2019-12-11T04:13:54Z</time>
      </trkpt>
      <trkpt lat="43.13022" lon="-0.24917">
        <ele>304.335</ele>
        <time>2019-12-11T04:14:14Z</time>
      </trkpt>
      <trkpt lat="43.13335" lon="-0.24885">
        <ele>303.124</ele>
        <time>2019-12-11T04:14:34Z</time>
      </trkpt>
      <trkpt lat="43.13516" lon="-0.24895">
        <ele>305.66</ele>
        <time>2019-12-11T04:14:54Z</time>
      </trkpt>
      <trkpt lat="43.13662" lon="-0.24952">
        <ele>300.996</ele>
        <time>2019-12-11T04:15:14Z</time>
      </trkpt>
      <trkpt lat="43.13795" lon="-0.24911">
        <ele>300.447</ele>
        <time>2019-12-11T04:15:34Z</time>
      </trkpt>
      <trkpt lat="43.13859" lon="-0.24909">
        <ele>300.889</ele>
        <time>2019-12-11T04:15:54Z</time>
      </trkpt>
      <trkpt lat="43.13924" lon="-0.24947">
        <ele>300.052</ele>
        <time>2019-12-11T04:16:14Z</time>
      </trkpt>
      <trkpt lat="43.14" lon="-0.25033">
        <ele>300.054</ele>
        <time>2019-12-11T04:16:34Z</time>
      </trkpt>
      <trkpt lat="43.14029" lon="-0.25046">
        <ele>300.061</ele>
        <time>2019-12-11T04:16:54Z</time>
      </trkpt>
      <trkpt lat="43.14068" lon="-0.25044">
        <ele>300.021</ele>
        <time>2019-12-11T04:17:14Z</time>
      </trkpt>
      <trkpt lat="43.14056" lon="-0.25252">
        <ele>300.013</ele>
        <time>2019-12-11T04:17:34Z</time>
      </trkpt>
      <trkpt lat="43.14072" lon="-0.25373">
        <ele>306.308</ele>
        <time>2019-12-11T04:17:54Z</time>
      </trkpt>
      <trkpt lat="43.14052" lon="-0.25435">
        <ele>315.022</ele>
        <time>2021-02-06T19:21:11Z</time>
      </trkpt>
      <trkpt lat="43.14116" lon="-0.25491">
        <ele>316.771</ele>
        <time>2021-02-06T19:21:31Z</time>
      </trkpt>
      <trkpt lat="43.14116" lon="-0.25569">
        <ele>321.577</ele>
        <time>2021-02-06T19:21:51Z</time>
      </trkpt>
      <trkpt lat="43.14236" lon="-0.25769">
        <ele>326.023</ele>
        <time>2016-10-04T16:52:59Z</time>
      </trkpt>
      <trkpt lat="43.14187" lon="-0.25789">
        <ele>327.094</ele>
        <time>2016-10-04T16:53:19Z</time>
      </trkpt>
      <trkpt lat="43.14087" lon="-0.25797">
        <ele>327.056</ele>
        <time>2016-10-04T16:53:39Z</time>
      </trkpt>
      <trkpt lat="43.14056" lon="-0.25883">
        <ele>328.079</ele>
        <time>2016-10-04T16:53:59Z</time>
      </trkpt>
      <trkpt lat="43.14001" lon="-0.25941">
        <ele>329.081</ele>
        <time>2016-10-04T16:54:19Z</time>
      </trkpt>
      <trkpt lat="43.13879" lon="-0.25986">
        <ele>333.019</ele>
        <time>2016-10-04T16:54:39Z</time>
      </trkpt>
      <trkpt lat="43.13815" lon="-0.26042">
        <ele>334.009</ele>
        <time>2016-10-04T16:54:59Z</time>
      </trkpt>
      <trkpt lat="43.13772" lon="-0.26181">
        <ele>334.019</ele>
        <time>2016-10-04T16:55:19Z</time>
      </trkpt>
      <trkpt lat="43.13703" lon="-0.26314">
        <ele>334.008</ele>
        <time>2016-10-04T16:55:39Z</time>
      </trkpt>
      <trkpt lat="43.13537" lon="-0.26454">
        <ele>337.037</ele>
        <time>2016-10-04T16:55:59Z</time>
      </trkpt>
      <trkpt lat="43.13514" lon="-0.26512">
        <ele>338.026</ele>
        <time>2016-10-04T16:56:19Z</time>
      </trkpt>
      <trkpt lat="43.13439" lon="-0.26707">
        <ele>344.082</ele>
        <time>2016-10-04T16:56:39Z</time>
      </trkpt>
      <trkpt lat="43.13401" lon="-0.26765">
        <ele>346.028</ele>
        <time>2016-10-04T16:56:59Z</time>
      </trkpt>
      <trkpt lat="43.1334" lon="-0.2672">
        <ele>345.089</ele>
        <time>2016-10-04T16:57:19Z</time>
      </trkpt>
      <trkpt lat="43.13337" lon="-0.2675">
        <ele>343.041</ele>
        <time>2016-10-04T16:57:39Z</time>
      </trkpt>
      <trkpt lat="43.13262" lon="-0.26969">
        <ele>326.054</ele>
        <time>2016-10-04T16:57:59Z</time>
      </trkpt>
      <trkpt lat="43.1313" lon="-0.27108">
        <ele>315.026</ele>
        <time>2016-10-04T16:58:19Z</time>
      </trkpt>
      <trkpt lat="43.13132" lon="-0.2717">
        <ele>315.037</ele>
        <time>2016-10-04T16:58:39Z</time>
      </trkpt>
      <trkpt lat="43.13147" lon="-0.27261">
        <ele>314.049</ele>
        <time>2016-10-04T16:58:59Z</time>
      </trkpt>
      <trkpt lat="43.13129" lon="-0.27376">
        <ele>313.013</ele>
        <time>2016-10-04T16:59:19Z</time>
      </trkpt>
      <trkpt lat="43.13133" lon="-0.27449">
        <ele>313.008</ele>
        <time>2016-10-04T16:59:39Z</time>
      </trkpt>
      <trkpt lat="43.13135" lon="-0.27587">
        <ele>309.059</ele>
        <time>2016-10-04T16:59:59Z</time>
      </trkpt>
      <trkpt lat="43.13146" lon="-0.2767">
        <ele>307.058</ele>
        <time>2016-10-04T17:00:19Z</time>
      </trkpt>
      <trkpt lat="43.13122" lon="-0.27745">
        <ele>307.054</ele>
        <time>2016-10-04T17:00:39Z</time>
      </trkpt>
      <trkpt lat="43.13113" lon="-0.27797">
        <ele>310.03</ele>
        <time>2016-10-04T17:00:59Z</time>
      </trkpt>
      <trkpt lat="43.13083" lon="-0.27894">
        <ele>316.031</ele>
        <time>2016-10-04T17:01:19Z</time>
      </trkpt>
      <trkpt lat="43.13022" lon="-0.28001">
        <ele>310.033</ele>
        <time>2016-10-04T17:01:39Z</time>
      </trkpt>
      <trkpt lat="43.12974" lon="-0.28039">
        <ele>313.026</ele>
        <time>2016-10-04T17:01:59Z</time>
      </trkpt>
      <trkpt lat="43.12945" lon="-0.28093">
        <ele>307.018</ele>
        <time>2016-10-04T17:02:19Z</time>
      </trkpt>
      <trkpt lat="43.12889" lon="-0.28155">
        <ele>309.087</ele>
        <time>2016-10-04T17:02:39Z</time>
      </trkpt>
      <trkpt lat="43.12787" lon="-0.28188">
        <ele>307.042</ele>
        <time>2016-10-04T17:02:59Z</time>
      </trkpt>
      <trkpt lat="43.12685" lon="-0.28179">
        <ele>308.026</ele>
        <time>2016-10-04T17:03:19Z</time>
      </trkpt>
      <trkpt lat="43.12512" lon="-0.28203">
        <ele>305.008</ele>
        <time>2016-10-04T17:03:39Z</time>
      </trkpt>
      <trkpt lat="43.12501" lon="-0.2828">
        <ele>305.034</ele>
        <time>2016-10-04T17:03:59Z</time>
      </trkpt>
      <trkpt lat="43.12551" lon="-0.28318">
        <ele>304.083</ele>
        <time>2016-10-04T17:04:19Z</time>
      </trkpt>
      <trkpt lat="43.12585" lon="-0.28376">
        <ele>304.019</ele>
        <time>2016-10-04T17:04:39Z</time>
      </trkpt>
      <trkpt lat="43.12599" lon="-0.28584">
        <ele>307.085</ele>
        <time>2016-10-04T17:04:59Z</time>
      </trkpt>
      <trkpt lat="43.12577" lon="-0.28653">
        <ele>309.016</ele>
        <time>2016-10-04T17:05:19Z</time>
      </trkpt>
      <trkpt lat="43.12606" lon="-0.28707">
        <ele>311.058</ele>
        <time>2016-10-04T17:05:39Z</time>
      </trkpt>
      <trkpt lat="43.12662" lon="-0.28718">
        <ele>310.071</ele>
        <time>2016-10-04T17:05:59Z</time>
      </trkpt>
      <trkpt lat="43.12684" lon="-0.28878">
        <ele>314.023</ele>
        <time>2016-10-04T17:06:19Z</time>
      </trkpt>
      <trkpt lat="43.12714" lon="-0.29001">
        <ele>324.016</ele>
        <time>2016-10-04T17:06:39Z</time>
      </trkpt>
      <trkpt lat="43.12753" lon="-0.29104">
        <ele>318.076</ele>
        <time>2016-10-04T17:06:59Z</time>
      </trkpt>
      <trkpt lat="43.12778" lon="-0.29213">
        <ele>315.013</ele>
        <time>2016-10-04T17:07:19Z</time>
      </trkpt>
      <trkpt lat="43.12776" lon="-0.29271">
        <ele>317.008</ele>
        <time>2016-10-04T17:07:39Z</time>
      </trkpt>
      <trkpt lat="43.12851" lon="-0.29348">
        <ele>313.087</ele>
        <time>2016-10-04T17:07:59Z</time>
      </trkpt>
      <trkpt lat="43.12889" lon="-0.29366">
        <ele>312.066</ele>
        <time>2016-10-04T17:08:19Z</time>
      </trkpt>
      <trkpt lat="43.12894" lon="-0.29411">
        <ele>312.022</ele>
        <time>2016-10-04T17:08:39Z</time>
      </trkpt>
      <trkpt lat="43.12862" lon="-0.29481">
        <ele>319.038</ele>
        <time>2016-10-04T17:08:59Z</time>
      </trkpt>
      <trkpt lat="43.1292" lon="-0.2972">
        <ele>317.069</ele>
        <time>2016-10-04T17:09:19Z</time>
      </trkpt>
      <trkpt lat="43.12886" lon="-0.29842">
        <ele>323.051</ele>
        <time>2016-10-04T17:09:39Z</time>
      </trkpt>
      <trkpt lat="43.1285" lon="-0.29921">
        <ele>323.054</ele>
        <time>2016-10-04T17:09:59Z</time>
      </trkpt>
      <trkpt lat="43.128" lon="-0.29988">
        <ele>324.026</ele>
        <time>2016-10-04T17:10:19Z</time>
      </trkpt>
      <trkpt lat="43.12729" lon="-0.29999">
        <ele>323.042</ele>
        <time>2016-10-04T17:10:39Z</time>
      </trkpt>
      <trkpt lat="43.12681" lon="-0.3005">
        <ele>318.022</ele>
        <time>2016-10-04T17:10:59Z</time>
      </trkpt>
      <trkpt lat="43.12607" lon="-0.30175">
        <ele>314.014</ele>
        <time>2016-10-04T17:11:19Z</time>
      </trkpt>
      <trkpt lat="43.12646" lon="-0.30183">
        <ele>312.008</ele>
        <time>2016-10-04T17:11:39Z</time>
      </trkpt>
      <trkpt lat="43.12675" lon="-0.30211">
        <ele>311.01</ele>
        <time>2016-10-04T17:11:59Z</time>
      </trkpt>
      <trkpt lat="43.12695" lon="-0.30335">
        <ele>313.039</ele>
        <time>2016-10-04T17:12:19Z</time>
      </trkpt>
      <trkpt lat="43.12535" lon="-0.30389">
        <ele>312.015</ele>
        <time>2016-10-04T17:12:39Z</time>
      </trkpt>
      <trkpt lat="43.12352" lon="-0.3038">
        <ele>319.071</ele>
        <time>2016-10-04T17:12:59Z</time>
      </trkpt>
      <trkpt lat="43.12252" lon="-0.30361">
        <ele>324.092</ele>
        <time>2016-10-04T17:13:19Z</time>
      </trkpt>
      <trkpt lat="43.12028" lon="-0.30243">
        <ele>336.084</ele>
        <time>2016-10-04T17:13:39Z</time>
      </trkpt>
      <trkpt lat="43.11967" lon="-0.30254">
        <ele>339.047</ele>
        <time>2016-10-04T17:13:59Z</time>
      </trkpt>
      <trkpt lat="43.11916" lon="-0.30252">
        <ele>343.019</ele>
        <time>2016-10-04T17:14:19Z</time>
      </trkpt>
      <trkpt lat="43.11833" lon="-0.30271">
        <ele>353.075</ele>
        <time>2016-10-04T17:14:39Z</time>
      </trkpt>
      <trkpt lat="43.11772" lon="-0.30273">
        <ele>360.028</ele>
        <time>2016-10-04T17:14:59Z</time>
      </trkpt>
      <trkpt lat="43.11694" lon="-0.30187">
        <ele>349.02</ele>
        <time>2016-10-04T17:15:19Z</time>
      </trkpt>
      <trkpt lat="43.11682" lon="-0.3019">
        <ele>347.008</ele>
        <time>2016-10-04T17:15:39Z</time>
      </trkpt>
      <trkpt lat="43.11661" lon="-0.30323">
        <ele>345.063</ele>
        <time>2016-10-04T17:15:59Z</time>
      </trkpt>
      <trkpt lat="43.11608" lon="-0.3037">
        <ele>341.022</ele>
        <time>2016-10-04T17:16:19Z</time>
      </trkpt>
      <trkpt lat="43.1163" lon="-0.30565">
        <ele>356.098</ele>
        <time>2016-10-04T17:16:39Z</time>
      </trkpt>
      <trkpt lat="43.11536" lon="-0.30649">
        <ele>346.024</ele>
        <time>2016-10-04T17:16:59Z</time>
      </trkpt>
      <trkpt lat="43.11619" lon="-0.30825">
        <ele>345.075</ele>
        <time>2016-10-04T17:17:19Z</time>
      </trkpt>
      <trkpt lat="43.11722" lon="-0.30872">
        <ele>343.027</ele>
        <time>2016-10-04T17:17:39Z</time>
      </trkpt>
      <trkpt lat="43.11774" lon="-0.30857">
        <ele>342.07</ele>
        <time>2016-10-04T17:17:59Z</time>
      </trkpt>
      <trkpt lat="43.11854" lon="-0.30979">
        <ele>333.032</ele>
        <time>2016-10-04T17:18:19Z</time>
      </trkpt>
      <trkpt lat="43.11714" lon="-0.31211">
        <ele>331.063</ele>
        <time>2016-10-04T17:18:39Z</time>
      </trkpt>
      <trkpt lat="43.11672" lon="-0.31398">
        <ele>333.044</ele>
        <time>2016-10-04T17:18:59Z</time>
      </trkpt>
      <trkpt lat="43.11652" lon="-0.31537">
        <ele>334.018</ele>
        <time>2016-10-04T17:19:19Z</time>
      </trkpt>
      <trkpt lat="43.11661" lon="-0.31582">
        <ele>334.008</ele>
        <time>2016-10-04T17:19:39Z</time>
      </trkpt>
      <trkpt lat="43.11552" lon="-0.31803">
        <ele>338.072</ele>
        <time>2016-10-04T17:19:59Z</time>
      </trkpt>
      <trkpt lat="43.11453" lon="-0.31822">
        <ele>342.091</ele>
        <time>2016-10-04T17:20:19Z</time>
      </trkpt>
      <trkpt lat="43.11342" lon="-0.32222">
        <ele>367.057</ele>
        <time>2016-10-04T17:20:39Z</time>
      </trkpt>
      <trkpt lat="43.11349" lon="-0.32269">
        <ele>369.043</ele>
        <time>2016-10-04T17:20:59Z</time>
      </trkpt>
      <trkpt lat="43.11382" lon="-0.32305">
        <ele>370.024</ele>
        <time>2016-10-04T17:21:19Z</time>
      </trkpt>
      <trkpt lat="43.1144" lon="-0.32468">
        <ele>375.066</ele>
        <time>2016-10-04T17:21:39Z</time>
      </trkpt>
      <trkpt lat="43.11484" lon="-0.32533">
        <ele>378.039</ele>
        <time>2016-10-04T17:21:59Z</time>
      </trkpt>
      <trkpt lat="43.11523" lon="-0.32679">
        <ele>379.081</ele>
        <time>2016-10-04T17:22:19Z</time>
      </trkpt>
      <trkpt lat="43.11542" lon="-0.32822">
        <ele>377.084</ele>
        <time>2016-10-04T17:22:39Z</time>
      </trkpt>
      <trkpt lat="43.11537" lon="-0.32949">
        <ele>377.007</ele>
        <time>2016-10-04T17:22:59Z</time>
      </trkpt>
      <trkpt lat="43.11592" lon="-0.33297">
        <ele>364.017</ele>
        <time>2016-10-04T17:23:19Z</time>
      </trkpt>
      <trkpt lat="43.11573" lon="-0.33312">
        <ele>359.008</ele>
        <time>2016-10-04T17:23:39Z</time>
      </trkpt>
      <trkpt lat="43.11487" lon="-0.33329">
        <ele>356.054</ele>
        <time>2016-10-04T17:23:59Z</time>
      </trkpt>
      <trkpt lat="43.11462" lon="-0.33385">
        <ele>353.053</ele>
        <time>2016-10-04T17:24:19Z</time>
      </trkpt>
      <trkpt lat="43.11453" lon="-0.34015">
        <ele>351.069</ele>
        <time>2016-10-04T17:24:39Z</time>
      </trkpt>
      <trkpt lat="43.11266" lon="-0.34569">
        <ele>367.065</ele>
        <time>2016-10-04T17:24:59Z</time>
      </trkpt>
      <trkpt lat="43.11226" lon="-0.34734">
        <ele>368.056</ele>
        <time>2016-10-04T17:25:19Z</time>
      </trkpt>
      <trkpt lat="43.11086" lon="-0.35183">
        <ele>364.028</ele>
        <time>2016-10-04T17:25:39Z</time>
      </trkpt>
      <trkpt lat="43.1105" lon="-0.35202">
        <ele>364.051</ele>
        <time>2016-10-04T17:25:59Z</time>
      </trkpt>
      <trkpt lat="43.11055" lon="-0.35239">
        <ele>365.023</ele>
        <time>2016-10-04T17:26:19Z</time>
      </trkpt>
      <trkpt lat="43.11085" lon="-0.3526">
        <ele>371.027</ele>
        <time>2016-10-04T17:26:39Z</time>
      </trkpt>
      <trkpt lat="43.11086" lon="-0.35326">
        <ele>383.068</ele>
        <time>2016-10-04T17:26:59Z</time>
      </trkpt>
      <trkpt lat="43.11144" lon="-0.35414">
        <ele>397.014</ele>
        <time>2016-10-04T17:27:19Z</time>
      </trkpt>
      <trkpt lat="43.11157" lon="-0.35494">
        <ele>406.008</ele>
        <time>2016-10-04T17:27:39Z</time>
      </trkpt>
      <trkpt lat="43.11141" lon="-0.3561">
        <ele>416.018</ele>
        <time>2016-10-04T17:27:59Z</time>
      </trkpt>
      <trkpt lat="43.11066" lon="-0.36028">
        <ele>448.087</ele>
        <time>2016-10-04T17:28:19Z</time>
      </trkpt>
      <trkpt lat="43.11005" lon="-0.36204">
        <ele>477.043</ele>
        <time>2016-10-04T17:28:39Z</time>
      </trkpt>
      <trkpt lat="43.1097" lon="-0.36356">
        <ele>481.029</ele>
        <time>2016-10-04T17:28:59Z</time>
      </trkpt>
      <trkpt lat="43.10952" lon="-0.3647">
        <ele>484.02</ele>
        <time>2016-10-04T17:29:19Z</time>
      </trkpt>
      <trkpt lat="43.10851" lon="-0.36837">
        <ele>491.082</ele>
        <time>2016-10-04T17:29:39Z</time>
      </trkpt>
      <trkpt lat="43.10836" lon="-0.36947">
        <ele>495.035</ele>
        <time>2016-10-04T17:29:59Z</time>
      </trkpt>
      <trkpt lat="43.10828" lon="-0.37165">
        <ele>493.097</ele>
        <time>2016-10-04T17:30:19Z</time>
      </trkpt>
      <trkpt lat="43.10775" lon="-0.37423">
        <ele>507.085</ele>
        <time>2016-10-04T17:30:39Z</time>
      </trkpt>
      <trkpt lat="43.10715" lon="-0.37635">
        <ele>520.089</ele>
        <time>2016-10-04T17:30:59Z</time>
      </trkpt>
      <trkpt lat="43.10673" lon="-0.37691">
        <ele>525.017</ele>
        <time>2016-10-04T17:31:19Z</time>
      </trkpt>
      <trkpt lat="43.1058" lon="-0.37685">
        <ele>524.008</ele>
        <time>2016-10-04T17:31:39Z</time>
      </trkpt>
      <trkpt lat="43.1051" lon="-0.37751">
        <ele>531.034</ele>
        <time>2016-10-04T17:31:59Z</time>
      </trkpt>
      <trkpt lat="43.10406" lon="-0.37912">
        <ele>530.063</ele>
        <time>2016-10-04T17:32:19Z</time>
      </trkpt>
      <trkpt lat="43.10378" lon="-0.38">
        <ele>527.049</ele>
        <time>2016-10-04T17:32:39Z</time>
      </trkpt>
      <trkpt lat="43.10364" lon="-0.38142">
        <ele>517.015</ele>
        <time>2016-10-04T17:32:59Z</time>
      </trkpt>
      <trkpt lat="43.10417" lon="-0.38358">
        <ele>517.016</ele>
        <time>2016-10-04T17:33:19Z</time>
      </trkpt>
      <trkpt lat="43.10427" lon="-0.3847">
        <ele>507.038</ele>
        <time>2016-10-04T17:33:39Z</time>
      </trkpt>
      <trkpt lat="43.10442" lon="-0.38556">
        <ele>496.091</ele>
        <time>2016-10-04T17:33:59Z</time>
      </trkpt>
      <trkpt lat="43.10496" lon="-0.38642">
        <ele>485.053</ele>
        <time>2016-10-04T17:34:19Z</time>
      </trkpt>
      <trkpt lat="43.10502" lon="-0.38865">
        <ele>468.066</ele>
        <time>2016-10-04T17:34:39Z</time>
      </trkpt>
      <trkpt lat="43.10452" lon="-0.38949">
        <ele>467.029</ele>
        <time>2016-10-04T17:34:59Z</time>
      </trkpt>
      <trkpt lat="43.1053" lon="-0.39015">
        <ele>465.021</ele>
        <time>2016-10-04T17:35:19Z</time>
      </trkpt>
      <trkpt lat="43.10555" lon="-0.39052">
        <ele>463.008</ele>
        <time>2016-10-04T17:35:39Z</time>
      </trkpt>
      <trkpt lat="43.10605" lon="-0.39094">
        <ele>455.052</ele>
        <time>2016-10-04T17:35:59Z</time>
      </trkpt>
      <trkpt lat="43.1067" lon="-0.39086">
        <ele>452.081</ele>
        <time>2016-10-04T17:36:19Z</time>
      </trkpt>
      <trkpt lat="43.1066" lon="-0.39176">
        <ele>450.017</ele>
        <time>2016-10-04T17:36:39Z</time>
      </trkpt>
      <trkpt lat="43.10632" lon="-0.3926">
        <ele>447.083</ele>
        <time>2016-10-04T17:36:59Z</time>
      </trkpt>
      <trkpt lat="43.10674" lon="-0.39367">
        <ele>443.044</ele>
        <time>2016-10-04T17:37:19Z</time>
      </trkpt>
      <trkpt lat="43.10762" lon="-0.39335">
        <ele>437.046</ele>
        <time>2016-10-04T17:37:39Z</time>
      </trkpt>
      <trkpt lat="43.10844" lon="-0.39397">
        <ele>441.079</ele>
        <time>2016-10-04T17:37:59Z</time>
      </trkpt>
      <trkpt lat="43.10834" lon="-0.39461">
        <ele>444.091</ele>
        <time>2016-10-04T17:38:19Z</time>
      </trkpt>
      <trkpt lat="43.10797" lon="-0.39541">
        <ele>451.013</ele>
        <time>2016-10-04T17:38:39Z</time>
      </trkpt>
      <trkpt lat="43.10765" lon="-0.39556">
        <ele>453.043</ele>
        <time>2016-10-04T17:38:59Z</time>
      </trkpt>
      <trkpt lat="43.10737" lon="-0.39639">
        <ele>465.007</ele>
        <time>2016-10-04T17:39:19Z</time>
      </trkpt>
      <trkpt lat="43.10728" lon="-0.39734">
        <ele>472.008</ele>
        <time>2016-10-04T17:39:39Z</time>
      </trkpt>
      <trkpt lat="43.10665" lon="-0.39891">
        <ele>488.087</ele>
        <time>2016-10-04T17:39:59Z</time>
      </trkpt>
      <trkpt lat="43.10421" lon="-0.40146">
        <ele>517.076</ele>
        <time>2016-10-04T17:40:19Z</time>
      </trkpt>
      <trkpt lat="43.1041" lon="-0.40176">
        <ele>525.062</ele>
        <time>2016-10-04T17:40:39Z</time>
      </trkpt>
      <trkpt lat="43.10383" lon="-0.40193">
        <ele>530.078</ele>
        <time>2016-10-04T17:40:59Z</time>
      </trkpt>
      <trkpt lat="43.10378" lon="-0.40208">
        <ele>532.079</ele>
        <time>2016-10-04T17:41:19Z</time>
      </trkpt>
      <trkpt lat="43.10306" lon="-0.40225">
        <ele>534.071</ele>
        <time>2016-10-04T17:41:39Z</time>
      </trkpt>
      <trkpt lat="43.10292" lon="-0.40253">
        <ele>539.074</ele>
        <time>2016-10-04T17:41:59Z</time>
      </trkpt>
      <trkpt lat="43.10298" lon="-0.40296">
        <ele>542.086</ele>
        <time>2016-10-04T17:42:19Z</time>
      </trkpt>
      <trkpt lat="43.1028" lon="-0.40343">
        <ele>549.077</ele>
        <time>2016-10-04T17:42:39Z</time>
      </trkpt>
      <trkpt lat="43.10217" lon="-0.40378">
        <ele>544.061</ele>
        <time>2016-10-04T17:42:59Z</time>
      </trkpt>
      <trkpt lat="43.10181" lon="-0.40453">
        <ele>545.027</ele>
        <time>2016-10-04T17:43:19Z</time>
      </trkpt>
      <trkpt lat="43.10128" lon="-0.40506">
        <ele>534.008</ele>
        <time>2016-10-04T17:43:39Z</time>
      </trkpt>
      <trkpt lat="43.10118" lon="-0.40599">
        <ele>528.093</ele>
        <time>2016-10-04T17:43:59Z</time>
      </trkpt>
      <trkpt lat="43.10153" lon="-0.40691">
        <ele>523.022</ele>
        <time>2016-10-04T17:44:19Z</time>
      </trkpt>
      <trkpt lat="43.10192" lon="-0.40818">
        <ele>525.018</ele>
        <time>2016-10-04T17:44:39Z</time>
      </trkpt>
      <trkpt lat="43.10203" lon="-0.40869">
        <ele>517.044</ele>
        <time>2016-10-04T17:44:59Z</time>
      </trkpt>
      <trkpt lat="43.10245" lon="-0.40946">
        <ele>507.045</ele>
        <time>2016-10-04T17:45:19Z</time>
      </trkpt>
      <trkpt lat="43.10259" lon="-0.41043">
        <ele>500.047</ele>
        <time>2016-10-04T17:45:39Z</time>
      </trkpt>
      <trkpt lat="43.10265" lon="-0.41122">
        <ele>491.08</ele>
        <time>2016-10-04T17:45:59Z</time>
      </trkpt>
      <trkpt lat="43.10284" lon="-0.41133">
        <ele>489.082</ele>
        <time>2016-10-04T17:46:19Z</time>
      </trkpt>
      <trkpt lat="43.10342" lon="-0.41118">
        <ele>486.084</ele>
        <time>2016-10-04T17:46:39Z</time>
      </trkpt>
      <trkpt lat="43.10403" lon="-0.41116">
        <ele>485.007</ele>
        <time>2016-10-04T17:46:59Z</time>
      </trkpt>
      <trkpt lat="43.1048" lon="-0.41086">
        <ele>480.017</ele>
        <time>2016-10-04T17:47:19Z</time>
      </trkpt>
      <trkpt lat="43.10521" lon="-0.41075">
        <ele>489.008</ele>
        <time>2016-10-04T17:47:39Z</time>
      </trkpt>
      <trkpt lat="43.10576" lon="-0.41133">
        <ele>475.044</ele>
        <time>2016-10-04T17:47:59Z</time>
      </trkpt>
      <trkpt lat="43.10602" lon="-0.41148">
        <ele>472.083</ele>
        <time>2016-10-04T17:48:19Z</time>
      </trkpt>
      <trkpt lat="43.10637" lon="-0.41195">
        <ele>461.089</ele>
        <time>2016-10-04T17:48:39Z</time>
      </trkpt>
      <trkpt lat="43.10709" lon="-0.41157">
        <ele>464.055</ele>
        <time>2016-10-04T17:48:59Z</time>
      </trkpt>
      <trkpt lat="43.1075" lon="-0.41167">
        <ele>457.036</ele>
        <time>2016-10-04T17:49:19Z</time>
      </trkpt>
      <trkpt lat="43.10815" lon="-0.41109">
        <ele>468.058</ele>
        <time>2016-10-04T17:49:39Z</time>
      </trkpt>
      <trkpt lat="43.10916" lon="-0.41084">
        <ele>481.061</ele>
        <time>2016-10-04T17:49:59Z</time>
      </trkpt>
      <trkpt lat="43.11024" lon="-0.41077">
        <ele>491.093</ele>
        <time>2016-10-04T17:50:19Z</time>
      </trkpt>
      <trkpt lat="43.1111" lon="-0.41062">
        <ele>488.022</ele>
        <time>2016-10-04T17:50:39Z</time>
      </trkpt>
      <trkpt lat="43.1127" lon="-0.41109">
        <ele>473.062</ele>
        <time>2016-10-04T17:50:59Z</time>
      </trkpt>
      <trkpt lat="43.11317" lon="-0.41148">
        <ele>472.008</ele>
        <time>2016-10-04T17:51:19Z</time>
      </trkpt>
      <trkpt lat="43.11362" lon="-0.41129">
        <ele>473.008</ele>
        <time>2016-10-04T17:51:39Z</time>
      </trkpt>
      <trkpt lat="43.11429" lon="-0.41131">
        <ele>478.088</ele>
        <time>2016-10-04T17:51:59Z</time>
      </trkpt>
      <trkpt lat="43.11476" lon="-0.41199">
        <ele>483.077</ele>
        <time>2016-10-04T17:52:19Z</time>
      </trkpt>
      <trkpt lat="43.11595" lon="-0.41174">
        <ele>505.033</ele>
        <time>2016-10-04T17:52:39Z</time>
      </trkpt>
      <trkpt lat="43.11708" lon="-0.41139">
        <ele>526.069</ele>
        <time>2016-10-04T17:52:59Z</time>
      </trkpt>
      <trkpt lat="43.11846" lon="-0.41062">
        <ele>548.01</ele>
        <time>2016-10-04T17:53:19Z</time>
      </trkpt>
      <trkpt lat="43.11874" lon="-0.41238">
        <ele>564.042</ele>
        <time>2016-10-04T17:53:39Z</time>
      </trkpt>
      <trkpt lat="43.12046" lon="-0.41348">
        <ele>565.085</ele>
        <time>2016-10-04T17:53:59Z</time>
      </trkpt>
      <trkpt lat="43.12375" lon="-0.41363">
        <ele>537.027</ele>
        <time>2016-10-04T17:54:19Z</time>
      </trkpt>
      <trkpt lat="43.12469" lon="-0.41386">
        <ele>529.023</ele>
        <time>2016-10-04T17:54:39Z</time>
      </trkpt>
      <trkpt lat="43.12507" lon="-0.41448">
        <ele>523.083</ele>
        <time>2016-10-04T17:54:59Z</time>
      </trkpt>
      <trkpt lat="43.12557" lon="-0.41485">
        <ele>521.011</ele>
        <time>2016-10-04T17:55:19Z</time>
      </trkpt>
      <trkpt lat="43.12424" lon="-0.41556">
        <ele>544.008</ele>
        <time>2016-10-04T17:55:39Z</time>
      </trkpt>
      <trkpt lat="43.1236" lon="-0.41609">
        <ele>561.048</ele>
        <time>2016-10-04T17:55:59Z</time>
      </trkpt>
      <trkpt lat="43.1231" lon="-0.41629">
        <ele>568.027</ele>
        <time>2016-10-04T17:56:19Z</time>
      </trkpt>
      <trkpt lat="43.12286" lon="-0.4165">
        <ele>568.083</ele>
        <time>2016-10-04T17:56:39Z</time>
      </trkpt>
      <trkpt lat="43.12263" lon="-0.41657">
        <ele>568.049</ele>
        <time>2016-10-04T17:56:59Z</time>
      </trkpt>
      <trkpt lat="43.12197" lon="-0.41729">
        <ele>557.04</ele>
        <time>2016-10-04T17:57:19Z</time>
      </trkpt>
      <trkpt lat="43.12313" lon="-0.41897">
        <ele>551.082</ele>
        <time>2016-10-04T17:57:39Z</time>
      </trkpt>
      <trkpt lat="43.12429" lon="-0.42066">
        <ele>538.055</ele>
        <time>2016-10-04T17:57:59Z</time>
      </trkpt>
      <trkpt lat="43.12371" lon="-0.42105">
        <ele>518.037</ele>
        <time>2016-10-04T17:58:19Z</time>
      </trkpt>
      <trkpt lat="43.124" lon="-0.42161">
        <ele>516.087</ele>
        <time>2016-10-04T17:58:39Z</time>
      </trkpt>
      <trkpt lat="43.12449" lon="-0.42214">
        <ele>512.042</ele>
        <time>2016-10-04T17:58:59Z</time>
      </trkpt>
      <trkpt lat="43.12552" lon="-0.42397">
        <ele>498.026</ele>
        <time>2016-10-04T17:59:19Z</time>
      </trkpt>
      <trkpt lat="43.12581" lon="-0.42412">
        <ele>501.008</ele>
        <time>2016-10-04T17:59:39Z</time>
      </trkpt>
      <trkpt lat="43.12587" lon="-0.42457">
        <ele>494.024</ele>
        <time>2016-10-04T17:59:59Z</time>
      </trkpt>
      <trkpt lat="43.1264" lon="-0.42553">
        <ele>482.093</ele>
        <time>2016-10-04T18:00:19Z</time>
      </trkpt>
      <trkpt lat="43.12654" lon="-0.42639">
        <ele>472.079</ele>
        <time>2016-10-04T18:00:39Z</time>
      </trkpt>
      <trkpt lat="43.12648" lon="-0.4266">
        <ele>470.475</ele>
        <time>2021-02-06T20:30:11Z</time>
      </trkpt>
      <trkpt lat="43.12666" lon="-0.42679">
        <ele>473.296</ele>
        <time>2021-02-06T20:30:31Z</time>
      </trkpt>
      <trkpt lat="43.12688" lon="-0.42742">
        <ele>475.678</ele>
        <time>2021-02-06T20:30:51Z</time>
      </trkpt>
      <trkpt lat="43.12684" lon="-0.42815">
        <ele>475.761</ele>
        <time>2021-02-06T20:31:11Z</time>
      </trkpt>
      <trkpt lat="43.12689" lon="-0.42822">
        <ele>478.053</ele>
        <time>2016-10-04T18:02:19Z</time>
      </trkpt>
      <trkpt lat="43.12678" lon="-0.42849">
        <ele>476.072</ele>
        <time>2021-02-06T20:31:51Z</time>
      </trkpt>
      <trkpt lat="43.12665" lon="-0.42852">
        <ele>474.213</ele>
        <time>2021-02-06T20:32:11Z</time>
      </trkpt>
      <trkpt lat="43.12635" lon="-0.42923">
        <ele>465.014</ele>
        <time>2016-10-04T18:03:19Z</time>
      </trkpt>
      <trkpt lat="43.12693" lon="-0.43066">
        <ele>469.008</ele>
        <time>2016-10-04T18:03:39Z</time>
      </trkpt>
      <trkpt lat="43.12725" lon="-0.43098">
        <ele>467.053</ele>
        <time>2016-10-04T18:03:59Z</time>
      </trkpt>
      <trkpt lat="43.12762" lon="-0.43264">
        <ele>459.032</ele>
        <time>2016-10-04T18:04:19Z</time>
      </trkpt>
      <trkpt lat="43.12886" lon="-0.43431">
        <ele>460.078</ele>
        <time>2016-10-04T18:04:39Z</time>
      </trkpt>
      <trkpt lat="43.12877" lon="-0.4345">
        <ele>459.064</ele>
        <time>2016-10-04T18:04:59Z</time>
      </trkpt>
      <trkpt lat="43.12884" lon="-0.43562">
        <ele>454.095</ele>
        <time>2016-10-04T18:05:19Z</time>
      </trkpt>
      <trkpt lat="43.12872" lon="-0.43762">
        <ele>444.027</ele>
        <time>2016-10-04T18:05:39Z</time>
      </trkpt>
      <trkpt lat="43.12881" lon="-0.43807">
        <ele>443.05</ele>
        <time>2016-10-04T18:05:59Z</time>
      </trkpt>
      <trkpt lat="43.12853" lon="-0.43845">
        <ele>440.022</ele>
        <time>2016-10-04T18:06:19Z</time>
      </trkpt>
      <trkpt lat="43.12873" lon="-0.43925">
        <ele>436.076</ele>
        <time>2016-10-04T18:06:39Z</time>
      </trkpt>
      <trkpt lat="43.12823" lon="-0.43985">
        <ele>428.09</ele>
        <time>2016-10-04T18:06:59Z</time>
      </trkpt>
      <trkpt lat="43.12789" lon="-0.44062">
        <ele>424.019</ele>
        <time>2016-10-04T18:07:19Z</time>
      </trkpt>
      <trkpt lat="43.12739" lon="-0.44229">
        <ele>420.008</ele>
        <time>2016-10-04T18:07:39Z</time>
      </trkpt>
      <trkpt lat="43.12662" lon="-0.44191">
        <ele>419.023</ele>
        <time>2016-10-04T18:07:59Z</time>
      </trkpt>
      <trkpt lat="43.12654" lon="-0.44231">
        <ele>420.052</ele>
        <time>2016-10-04T18:08:19Z</time>
      </trkpt>
      <trkpt lat="43.12681" lon="-0.443">
        <ele>425.078</ele>
        <time>2016-10-04T18:08:39Z</time>
      </trkpt>
      <trkpt lat="43.12715" lon="-0.44319">
        <ele>424.084</ele>
        <time>2016-10-04T18:08:59Z</time>
      </trkpt>
      <trkpt lat="43.12792" lon="-0.44369">
        <ele>423.035</ele>
        <time>2016-10-04T18:09:19Z</time>
      </trkpt>
      <trkpt lat="43.12898" lon="-0.44377">
        <ele>422.047</ele>
        <time>2016-10-04T18:09:39Z</time>
      </trkpt>
      <trkpt lat="43.12944" lon="-0.44414">
        <ele>419.09</ele>
        <time>2016-10-04T18:09:59Z</time>
      </trkpt>
      <trkpt lat="43.1296" lon="-0.44465">
        <ele>416.062</ele>
        <time>2016-10-04T18:10:19Z</time>
      </trkpt>
      <trkpt lat="43.1296" lon="-0.44555">
        <ele>411.096</ele>
        <time>2016-10-04T18:10:39Z</time>
      </trkpt>
      <trkpt lat="43.12908" lon="-0.44592">
        <ele>412.031</ele>
        <time>2016-10-04T18:10:59Z</time>
      </trkpt>
      <trkpt lat="43.12889" lon="-0.44658">
        <ele>408.024</ele>
        <time>2016-10-04T18:11:19Z</time>
      </trkpt>
      <trkpt lat="43.12848" lon="-0.44641">
        <ele>411.008</ele>
        <time>2016-10-04T18:11:39Z</time>
      </trkpt>
      <trkpt lat="43.12836" lon="-0.44594">
        <ele>417.085</ele>
        <time>2016-10-04T18:11:59Z</time>
      </trkpt>
      <trkpt lat="43.12667" lon="-0.44487">
        <ele>438.094</ele>
        <time>2016-10-04T18:12:19Z</time>
      </trkpt>
      <trkpt lat="43.12621" lon="-0.44463">
        <ele>443.01</ele>
        <time>2016-10-04T18:12:39Z</time>
      </trkpt>
      <trkpt lat="43.12602" lon="-0.44506">
        <ele>440.036</ele>
        <time>2016-10-04T18:12:59Z</time>
      </trkpt>
      <trkpt lat="43.12601" lon="-0.44567">
        <ele>434.797</ele>
        <time>2021-02-06T20:42:31Z</time>
      </trkpt>
      <trkpt lat="43.1262" lon="-0.44678">
        <ele>427.039</ele>
        <time>2016-10-04T18:13:19Z</time>
      </trkpt>
      <trkpt lat="43.12621" lon="-0.44851">
        <ele>429.552</ele>
        <time>2021-02-06T20:43:11Z</time>
      </trkpt>
      <trkpt lat="43.12607" lon="-0.44963">
        <ele>412.014</ele>
        <time>2021-02-06T20:43:31Z</time>
      </trkpt>
      <trkpt lat="43.12619" lon="-0.44995">
        <ele>408.064</ele>
        <time>2021-02-06T20:43:51Z</time>
      </trkpt>
      <trkpt lat="43.12652" lon="-0.45011">
        <ele>405.106</ele>
        <time>2021-02-06T20:44:11Z</time>
      </trkpt>
      <trkpt lat="43.12647" lon="-0.4508">
        <ele>405.916</ele>
        <time>2021-02-06T20:44:31Z</time>
      </trkpt>
      <trkpt lat="43.1275" lon="-0.4533">
        <ele>400.008</ele>
        <time>2016-10-04T18:17:19Z</time>
      </trkpt>
      <trkpt lat="43.12808" lon="-0.45442">
        <ele>393.052</ele>
        <time>2016-10-04T18:17:39Z</time>
      </trkpt>
      <trkpt lat="43.12864" lon="-0.45605">
        <ele>387.071</ele>
        <time>2016-10-04T18:17:59Z</time>
      </trkpt>
      <trkpt lat="43.12936" lon="-0.45645">
        <ele>384.047</ele>
        <time>2016-10-04T18:18:19Z</time>
      </trkpt>
      <trkpt lat="43.12975" lon="-0.45731">
        <ele>381.073</ele>
        <time>2016-10-04T18:18:39Z</time>
      </trkpt>
      <trkpt lat="43.13017" lon="-0.45952">
        <ele>373.014</ele>
        <time>2016-10-04T18:18:59Z</time>
      </trkpt>
      <trkpt lat="43.13025" lon="-0.4609">
        <ele>371.076</ele>
        <time>2016-10-04T18:19:19Z</time>
      </trkpt>
      <trkpt lat="43.13005" lon="-0.46118">
        <ele>371.079</ele>
        <time>2016-10-04T18:19:39Z</time>
      </trkpt>
      <trkpt lat="43.13028" lon="-0.46188">
        <ele>371.081</ele>
        <time>2016-10-04T18:19:59Z</time>
      </trkpt>
      <trkpt lat="43.13052" lon="-0.46221">
        <ele>370.079</ele>
        <time>2016-10-04T18:20:19Z</time>
      </trkpt>
      <trkpt lat="43.13085" lon="-0.46304">
        <ele>368.005</ele>
        <time>2016-10-04T18:20:39Z</time>
      </trkpt>
      <trkpt lat="43.13115" lon="-0.46347">
        <ele>368.025</ele>
        <time>2016-10-04T18:20:59Z</time>
      </trkpt>
      <trkpt lat="43.13191" lon="-0.46422">
        <ele>364.008</ele>
        <time>2016-10-04T18:21:19Z</time>
      </trkpt>
      <trkpt lat="43.13219" lon="-0.46499">
        <ele>363.093</ele>
        <time>2016-10-04T18:21:39Z</time>
      </trkpt>
      <trkpt lat="43.13218" lon="-0.46572">
        <ele>364.042</ele>
        <time>2016-10-04T18:21:59Z</time>
      </trkpt>
      <trkpt lat="43.13235" lon="-0.46652">
        <ele>364.048</ele>
        <time>2016-10-04T18:22:19Z</time>
      </trkpt>
      <trkpt lat="43.13245" lon="-0.46716">
        <ele>366.094</ele>
        <time>2016-10-04T18:22:39Z</time>
      </trkpt>
      <trkpt lat="43.13276" lon="-0.46826">
        <ele>364.035</ele>
        <time>2016-10-04T18:22:59Z</time>
      </trkpt>
      <trkpt lat="43.13332" lon="-0.46972">
        <ele>365.077</ele>
        <time>2016-10-04T18:23:19Z</time>
      </trkpt>
      <trkpt lat="43.13353" lon="-0.47025">
        <ele>365.06</ele>
        <time>2016-10-04T18:23:39Z</time>
      </trkpt>
      <trkpt lat="43.13403" lon="-0.47075">
        <ele>364.092</ele>
        <time>2016-10-04T18:23:59Z</time>
      </trkpt>
      <trkpt lat="43.13501" lon="-0.47261">
        <ele>357.029</ele>
        <time>2016-10-04T18:24:19Z</time>
      </trkpt>
      <trkpt lat="43.13512" lon="-0.47336">
        <ele>356</ele>
        <time>2016-10-04T18:24:39Z</time>
      </trkpt>
      <trkpt lat="43.13531" lon="-0.4739">
        <ele>355.02</ele>
        <time>2016-10-04T18:24:59Z</time>
      </trkpt>
      <trkpt lat="43.13553" lon="-0.4742">
        <ele>353.008</ele>
        <time>2016-10-04T18:25:19Z</time>
      </trkpt>
      <trkpt lat="43.1358" lon="-0.47495">
        <ele>352.028</ele>
        <time>2016-10-04T18:25:39Z</time>
      </trkpt>
      <trkpt lat="43.13578" lon="-0.47673">
        <ele>349.097</ele>
        <time>2016-10-04T18:25:59Z</time>
      </trkpt>
      <trkpt lat="43.1357" lon="-0.47723">
        <ele>348.083</ele>
        <time>2016-10-04T18:26:19Z</time>
      </trkpt>
      <trkpt lat="43.13558" lon="-0.47793">
        <ele>346.049</ele>
        <time>2016-10-04T18:26:39Z</time>
      </trkpt>
      <trkpt lat="43.13531" lon="-0.47864">
        <ele>345.01</ele>
        <time>2016-10-04T18:26:59Z</time>
      </trkpt>
      <trkpt lat="43.13603" lon="-0.48059">
        <ele>345.012</ele>
        <time>2016-10-04T18:27:19Z</time>
      </trkpt>
      <trkpt lat="43.13606" lon="-0.4815">
        <ele>345.055</ele>
        <time>2016-10-04T18:27:39Z</time>
      </trkpt>
      <trkpt lat="43.13589" lon="-0.48272">
        <ele>354.057</ele>
        <time>2016-10-04T18:27:59Z</time>
      </trkpt>
      <trkpt lat="43.13652" lon="-0.48321">
        <ele>356.074</ele>
        <time>2016-10-04T18:28:19Z</time>
      </trkpt>
      <trkpt lat="43.1368" lon="-0.48375">
        <ele>355.056</ele>
        <time>2016-10-04T18:28:39Z</time>
      </trkpt>
      <trkpt lat="43.13694" lon="-0.48463">
        <ele>355.021</ele>
        <time>2016-10-04T18:28:59Z</time>
      </trkpt>
      <trkpt lat="43.13721" lon="-0.48527">
        <ele>351.008</ele>
        <time>2016-10-04T18:29:19Z</time>
      </trkpt>
      <trkpt lat="43.13749" lon="-0.48675">
        <ele>347.043</ele>
        <time>2016-10-04T18:29:39Z</time>
      </trkpt>
      <trkpt lat="43.13819" lon="-0.48647">
        <ele>342.052</ele>
        <time>2016-10-04T18:29:59Z</time>
      </trkpt>
      <trkpt lat="43.13869" lon="-0.4877">
        <ele>338.068</ele>
        <time>2016-10-04T18:30:19Z</time>
      </trkpt>
      <trkpt lat="43.13965" lon="-0.4892">
        <ele>336.074</ele>
        <time>2016-10-04T18:30:39Z</time>
      </trkpt>
      <trkpt lat="43.14031" lon="-0.49072">
        <ele>335.025</ele>
        <time>2016-10-04T18:30:59Z</time>
      </trkpt>
      <trkpt lat="43.14089" lon="-0.49139">
        <ele>334.037</ele>
        <time>2016-10-04T18:31:19Z</time>
      </trkpt>
      <trkpt lat="43.14142" lon="-0.49261">
        <ele>332.08</ele>
        <time>2016-10-04T18:31:39Z</time>
      </trkpt>
      <trkpt lat="43.14231" lon="-0.49373">
        <ele>331.092</ele>
        <time>2016-10-04T18:31:59Z</time>
      </trkpt>
      <trkpt lat="43.14262" lon="-0.49431">
        <ele>330.033</ele>
        <time>2016-10-04T18:32:19Z</time>
      </trkpt>
      <trkpt lat="43.14303" lon="-0.49474">
        <ele>330.023</ele>
        <time>2016-10-04T18:32:39Z</time>
      </trkpt>
      <trkpt lat="43.1437" lon="-0.49615">
        <ele>328.015</ele>
        <time>2016-10-04T18:32:59Z</time>
      </trkpt>
      <trkpt lat="43.14411" lon="-0.49673">
        <ele>328.008</ele>
        <time>2016-10-04T18:33:19Z</time>
      </trkpt>
      <trkpt lat="43.1446" lon="-0.49778">
        <ele>327.059</ele>
        <time>2016-10-04T18:33:39Z</time>
      </trkpt>
      <trkpt lat="43.145" lon="-0.4983">
        <ele>326.058</ele>
        <time>2016-10-04T18:33:59Z</time>
      </trkpt>
      <trkpt lat="43.14524" lon="-0.49928">
        <ele>326.084</ele>
        <time>2016-10-04T18:34:19Z</time>
      </trkpt>
      <trkpt lat="43.14568" lon="-0.50044">
        <ele>325.04</ele>
        <time>2016-10-04T18:34:39Z</time>
      </trkpt>
      <trkpt lat="43.14604" lon="-0.50184">
        <ele>323.091</ele>
        <time>2016-10-04T18:34:59Z</time>
      </trkpt>
      <trkpt lat="43.14647" lon="-0.50285">
        <ele>323.023</ele>
        <time>2016-10-04T18:35:19Z</time>
      </trkpt>
      <trkpt lat="43.14655" lon="-0.50285">
        <ele>323.026</ele>
        <time>2016-10-04T18:35:39Z</time>
      </trkpt>
      <trkpt lat="43.1469" lon="-0.5034">
        <ele>321.088</ele>
        <time>2016-10-04T18:35:59Z</time>
      </trkpt>
      <trkpt lat="43.14721" lon="-0.50458">
        <ele>320.029</ele>
        <time>2016-10-04T18:36:19Z</time>
      </trkpt>
      <trkpt lat="43.14715" lon="-0.50553">
        <ele>319</ele>
        <time>2016-10-04T18:36:39Z</time>
      </trkpt>
      <trkpt lat="43.14674" lon="-0.50576">
        <ele>320.02</ele>
        <time>2016-10-04T18:36:59Z</time>
      </trkpt>
      <trkpt lat="43.14632" lon="-0.50643">
        <ele>321.008</ele>
        <time>2016-10-04T18:37:19Z</time>
      </trkpt>
      <trkpt lat="43.14619" lon="-0.50703">
        <ele>321.078</ele>
        <time>2016-10-04T18:37:39Z</time>
      </trkpt>
      <trkpt lat="43.14561" lon="-0.50752">
        <ele>322.067</ele>
        <time>2016-10-04T18:37:59Z</time>
      </trkpt>
      <trkpt lat="43.14524" lon="-0.50765">
        <ele>323.063</ele>
        <time>2016-10-04T18:38:19Z</time>
      </trkpt>
      <trkpt lat="43.14485" lon="-0.50725">
        <ele>325.059</ele>
        <time>2016-10-04T18:38:39Z</time>
      </trkpt>
      <trkpt lat="43.14436" lon="-0.50712">
        <ele>327.06</ele>
        <time>2016-10-04T18:38:59Z</time>
      </trkpt>
      <trkpt lat="43.14408" lon="-0.50746">
        <ele>333.062</ele>
        <time>2016-10-04T18:39:19Z</time>
      </trkpt>
      <trkpt lat="43.14366" lon="-0.51018">
        <ele>350.085</ele>
        <time>2016-10-04T18:39:39Z</time>
      </trkpt>
      <trkpt lat="43.14272" lon="-0.51192">
        <ele>349.087</ele>
        <time>2016-10-04T18:39:59Z</time>
      </trkpt>
      <trkpt lat="43.14281" lon="-0.51312">
        <ele>348.077</ele>
        <time>2016-10-04T18:40:19Z</time>
      </trkpt>
      <trkpt lat="43.14327" lon="-0.51465">
        <ele>347.061</ele>
        <time>2016-10-04T18:40:39Z</time>
      </trkpt>
      <trkpt lat="43.14364" lon="-0.5154">
        <ele>345.027</ele>
        <time>2016-10-04T18:40:59Z</time>
      </trkpt>
      <trkpt lat="43.14445" lon="-0.51649">
        <ele>343.008</ele>
        <time>2016-10-04T18:41:19Z</time>
      </trkpt>
      <trkpt lat="43.14494" lon="-0.51759">
        <ele>345.053</ele>
        <time>2016-10-04T18:41:39Z</time>
      </trkpt>
      <trkpt lat="43.14525" lon="-0.51834">
        <ele>343.062</ele>
        <time>2016-10-04T18:41:59Z</time>
      </trkpt>
      <trkpt lat="43.14552" lon="-0.51862">
        <ele>342.098</ele>
        <time>2016-10-04T18:42:19Z</time>
      </trkpt>
      <trkpt lat="43.14638" lon="-0.51898">
        <ele>340.034</ele>
        <time>2016-10-04T18:42:39Z</time>
      </trkpt>
      <trkpt lat="43.14721" lon="-0.51997">
        <ele>344.015</ele>
        <time>2016-10-04T18:42:59Z</time>
      </trkpt>
      <trkpt lat="43.14683" lon="-0.52293">
        <ele>340.037</ele>
        <time>2016-10-04T18:43:19Z</time>
      </trkpt>
      <trkpt lat="43.14694" lon="-0.52542">
        <ele>333.09</ele>
        <time>2016-10-04T18:43:39Z</time>
      </trkpt>
      <trkpt lat="43.14774" lon="-0.52812">
        <ele>329.032</ele>
        <time>2016-10-04T18:43:59Z</time>
      </trkpt>
      <trkpt lat="43.1495" lon="-0.53134">
        <ele>329.096</ele>
        <time>2016-10-04T18:44:19Z</time>
      </trkpt>
      <trkpt lat="43.14993" lon="-0.53186">
        <ele>329.031</ele>
        <time>2016-10-04T18:44:39Z</time>
      </trkpt>
      <trkpt lat="43.15023" lon="-0.53201">
        <ele>330.024</ele>
        <time>2016-10-04T18:44:59Z</time>
      </trkpt>
      <trkpt lat="43.15062" lon="-0.53175">
        <ele>329.008</ele>
        <time>2016-10-04T18:45:19Z</time>
      </trkpt>
      <trkpt lat="43.15164" lon="-0.53158">
        <ele>326.025</ele>
        <time>2016-10-04T18:45:39Z</time>
      </trkpt>
      <trkpt lat="43.15227" lon="-0.53098">
        <ele>326.044</ele>
        <time>2016-10-04T18:45:59Z</time>
      </trkpt>
      <trkpt lat="43.15292" lon="-0.53027">
        <ele>329.03</ele>
        <time>2016-10-04T18:46:19Z</time>
      </trkpt>
      <trkpt lat="43.15292" lon="-0.53201">
        <ele>326.096</ele>
        <time>2016-10-04T18:46:39Z</time>
      </trkpt>
      <trkpt lat="43.15358" lon="-0.53297">
        <ele>326.057</ele>
        <time>2016-10-04T18:46:59Z</time>
      </trkpt>
      <trkpt lat="43.15332" lon="-0.53323">
        <ele>325.059</ele>
        <time>2016-10-04T18:47:19Z</time>
      </trkpt>
      <trkpt lat="43.15252" lon="-0.53342">
        <ele>325.062</ele>
        <time>2016-10-04T18:47:39Z</time>
      </trkpt>
      <trkpt lat="43.15155" lon="-0.53443">
        <ele>327.074</ele>
        <time>2016-10-04T18:47:59Z</time>
      </trkpt>
      <trkpt lat="43.15045" lon="-0.53617">
        <ele>328.042</ele>
        <time>2016-10-04T18:48:19Z</time>
      </trkpt>
      <trkpt lat="43.15008" lon="-0.53703">
        <ele>332.022</ele>
        <time>2016-10-04T18:48:39Z</time>
      </trkpt>
      <trkpt lat="43.15006" lon="-0.53881">
        <ele>338.014</ele>
        <time>2016-10-04T18:48:59Z</time>
      </trkpt>
      <trkpt lat="43.14992" lon="-0.5392">
        <ele>340.008</ele>
        <time>2016-10-04T18:49:19Z</time>
      </trkpt>
      <trkpt lat="43.15023" lon="-0.54074">
        <ele>337.05</ele>
        <time>2016-10-04T18:49:39Z</time>
      </trkpt>
      <trkpt lat="43.15009" lon="-0.5413">
        <ele>332.039</ele>
        <time>2016-10-04T18:49:59Z</time>
      </trkpt>
      <trkpt lat="43.14903" lon="-0.54171">
        <ele>320.065</ele>
        <time>2016-10-04T18:50:19Z</time>
      </trkpt>
      <trkpt lat="43.14835" lon="-0.54123">
        <ele>314.051</ele>
        <time>2016-10-04T18:50:39Z</time>
      </trkpt>
      <trkpt lat="43.14788" lon="-0.54117">
        <ele>308.062</ele>
        <time>2016-10-04T18:50:59Z</time>
      </trkpt>
      <trkpt lat="43.14508" lon="-0.54475">
        <ele>300.074</ele>
        <time>2016-10-04T18:51:19Z</time>
      </trkpt>
      <trkpt lat="43.14505" lon="-0.54563">
        <ele>304.047</ele>
        <time>2016-10-04T18:51:39Z</time>
      </trkpt>
      <trkpt lat="43.1448" lon="-0.5463">
        <ele>307.059</ele>
        <time>2016-10-04T18:51:59Z</time>
      </trkpt>
      <trkpt lat="43.14416" lon="-0.54668">
        <ele>308.085</ele>
        <time>2016-10-04T18:52:19Z</time>
      </trkpt>
      <trkpt lat="43.14375" lon="-0.54662">
        <ele>304.089</ele>
        <time>2016-10-04T18:52:39Z</time>
      </trkpt>
      <trkpt lat="43.14392" lon="-0.54823">
        <ele>310.017</ele>
        <time>2016-10-04T18:52:59Z</time>
      </trkpt>
      <trkpt lat="43.14444" lon="-0.54922">
        <ele>307.008</ele>
        <time>2016-10-04T18:53:19Z</time>
      </trkpt>
      <trkpt lat="43.14456" lon="-0.55005">
        <ele>305.064</ele>
        <time>2016-10-04T18:53:39Z</time>
      </trkpt>
      <trkpt lat="43.1455" lon="-0.55104">
        <ele>293.023</ele>
        <time>2016-10-04T18:53:59Z</time>
      </trkpt>
      <trkpt lat="43.1456" lon="-0.55237">
        <ele>279.089</ele>
        <time>2016-10-04T18:54:19Z</time>
      </trkpt>
      <trkpt lat="43.14624" lon="-0.55366">
        <ele>270.095</ele>
        <time>2016-10-04T18:54:39Z</time>
      </trkpt>
      <trkpt lat="43.14622" lon="-0.5548">
        <ele>266.066</ele>
        <time>2016-10-04T18:54:59Z</time>
      </trkpt>
      <trkpt lat="43.14646" lon="-0.55503">
        <ele>269.078</ele>
        <time>2016-10-04T18:55:19Z</time>
      </trkpt>
      <trkpt lat="43.14658" lon="-0.55608">
        <ele>271.031</ele>
        <time>2016-10-04T18:55:39Z</time>
      </trkpt>
      <trkpt lat="43.1464" lon="-0.55728">
        <ele>270.023</ele>
        <time>2016-10-04T18:55:59Z</time>
      </trkpt>
      <trkpt lat="43.14649" lon="-0.55838">
        <ele>268.019</ele>
        <time>2016-10-04T18:56:19Z</time>
      </trkpt>
      <trkpt lat="43.14687" lon="-0.55889">
        <ele>269.009</ele>
        <time>2016-10-04T18:56:39Z</time>
      </trkpt>
      <trkpt lat="43.1473" lon="-0.55879">
        <ele>270.019</ele>
        <time>2016-10-04T18:56:59Z</time>
      </trkpt>
      <trkpt lat="43.14748" lon="-0.55909">
        <ele>270.008</ele>
        <time>2016-10-04T18:57:19Z</time>
      </trkpt>
      <trkpt lat="43.14774" lon="-0.55915">
        <ele>271.087</ele>
        <time>2016-10-04T18:57:39Z</time>
      </trkpt>
      <trkpt lat="43.14842" lon="-0.55934">
        <ele>267.066</ele>
        <time>2016-10-04T18:57:59Z</time>
      </trkpt>
      <trkpt lat="43.15004" lon="-0.55907">
        <ele>262.082</ele>
        <time>2016-10-04T18:58:19Z</time>
      </trkpt>
      <trkpt lat="43.15084" lon="-0.55917">
        <ele>263.068</ele>
        <time>2016-10-04T18:58:39Z</time>
      </trkpt>
      <trkpt lat="43.15137" lon="-0.55949">
        <ele>264.089</ele>
        <time>2016-10-04T18:58:59Z</time>
      </trkpt>
      <trkpt lat="43.15206" lon="-0.56005">
        <ele>262.011</ele>
        <time>2016-10-04T18:59:19Z</time>
      </trkpt>
      <trkpt lat="43.15313" lon="-0.56078">
        <ele>263.064</ele>
        <time>2016-10-04T18:59:39Z</time>
      </trkpt>
      <trkpt lat="43.1538" lon="-0.56166">
        <ele>263.066</ele>
        <time>2016-10-04T18:59:59Z</time>
      </trkpt>
      <trkpt lat="43.15446" lon="-0.5625">
        <ele>263.059</ele>
        <time>2016-10-04T19:00:19Z</time>
      </trkpt>
      <trkpt lat="43.1551" lon="-0.56329">
        <ele>259.003</ele>
        <time>2016-10-04T19:00:39Z</time>
      </trkpt>
      <trkpt lat="43.15551" lon="-0.56385">
        <ele>258.023</ele>
        <time>2016-10-04T19:00:59Z</time>
      </trkpt>
      <trkpt lat="43.15643" lon="-0.56443">
        <ele>256.008</ele>
        <time>2016-10-04T19:01:19Z</time>
      </trkpt>
      <trkpt lat="43.15759" lon="-0.56437">
        <ele>253.061</ele>
        <time>2016-10-04T19:01:39Z</time>
      </trkpt>
      <trkpt lat="43.15817" lon="-0.56413">
        <ele>257.03</ele>
        <time>2016-10-04T19:01:59Z</time>
      </trkpt>
      <trkpt lat="43.15829" lon="-0.56469">
        <ele>254.066</ele>
        <time>2016-10-04T19:02:19Z</time>
      </trkpt>
      <trkpt lat="43.15865" lon="-0.56516">
        <ele>256.012</ele>
        <time>2016-10-04T19:02:39Z</time>
      </trkpt>
      <trkpt lat="43.1589" lon="-0.56636">
        <ele>255.083</ele>
        <time>2016-10-04T19:02:59Z</time>
      </trkpt>
      <trkpt lat="43.15934" lon="-0.56711">
        <ele>260.075</ele>
        <time>2016-10-04T19:03:19Z</time>
      </trkpt>
      <trkpt lat="43.16003" lon="-0.56793">
        <ele>267.058</ele>
        <time>2016-10-04T19:03:39Z</time>
      </trkpt>
      <trkpt lat="43.16014" lon="-0.56896">
        <ele>260.01</ele>
        <time>2016-10-04T19:03:59Z</time>
      </trkpt>
      <trkpt lat="43.16056" lon="-0.56997">
        <ele>258.071</ele>
        <time>2016-10-04T19:04:19Z</time>
      </trkpt>
      <trkpt lat="43.16084" lon="-0.57102">
        <ele>252.041</ele>
        <time>2016-10-04T19:04:39Z</time>
      </trkpt>
      <trkpt lat="43.1612" lon="-0.57117">
        <ele>252.015</ele>
        <time>2016-10-04T19:04:59Z</time>
      </trkpt>
      <trkpt lat="43.16202" lon="-0.57112">
        <ele>254.008</ele>
        <time>2016-10-04T19:05:19Z</time>
      </trkpt>
      <trkpt lat="43.16268" lon="-0.57052">
        <ele>260.073</ele>
        <time>2016-10-04T19:05:39Z</time>
      </trkpt>
      <trkpt lat="43.16335" lon="-0.57059">
        <ele>253.032</ele>
        <time>2016-10-04T19:05:59Z</time>
      </trkpt>
      <trkpt lat="43.16372" lon="-0.57029">
        <ele>255.048</ele>
        <time>2016-10-04T19:06:19Z</time>
      </trkpt>
      <trkpt lat="43.16391" lon="-0.56982">
        <ele>264.024</ele>
        <time>2016-10-04T19:06:39Z</time>
      </trkpt>
      <trkpt lat="43.16463" lon="-0.56994">
        <ele>261.015</ele>
        <time>2016-10-04T19:06:59Z</time>
      </trkpt>
      <trkpt lat="43.16541" lon="-0.57014">
        <ele>251.097</ele>
        <time>2016-10-04T19:07:19Z</time>
      </trkpt>
      <trkpt lat="43.16606" lon="-0.57005">
        <ele>251.08</ele>
        <time>2016-10-04T19:07:39Z</time>
      </trkpt>
      <trkpt lat="43.16624" lon="-0.5696">
        <ele>256.042</ele>
        <time>2016-10-04T19:07:59Z</time>
      </trkpt>
      <trkpt lat="43.16628" lon="-0.56917">
        <ele>258.011</ele>
        <time>2016-10-04T19:08:19Z</time>
      </trkpt>
      <trkpt lat="43.16649" lon="-0.569">
        <ele>261.021</ele>
        <time>2016-10-04T19:08:39Z</time>
      </trkpt>
      <trkpt lat="43.16662" lon="-0.56932">
        <ele>258.003</ele>
        <time>2016-10-04T19:08:59Z</time>
      </trkpt>
      <trkpt lat="43.16665" lon="-0.57018">
        <ele>251.008</ele>
        <time>2016-10-04T19:09:19Z</time>
      </trkpt>
      <trkpt lat="43.16748" lon="-0.57044">
        <ele>253.037</ele>
        <time>2016-10-04T19:09:39Z</time>
      </trkpt>
      <trkpt lat="43.168" lon="-0.57108">
        <ele>254.076</ele>
        <time>2016-10-04T19:09:59Z</time>
      </trkpt>
      <trkpt lat="43.16831" lon="-0.57297">
        <ele>245.052</ele>
        <time>2016-10-04T19:10:19Z</time>
      </trkpt>
      <trkpt lat="43.16765" lon="-0.57282">
        <ele>243.038</ele>
        <time>2016-10-04T19:10:39Z</time>
      </trkpt>
      <trkpt lat="43.16753" lon="-0.57379">
        <ele>242.029</ele>
        <time>2016-10-04T19:10:59Z</time>
      </trkpt>
      <trkpt lat="43.16761" lon="-0.57494">
        <ele>243.061</ele>
        <time>2016-10-04T19:11:19Z</time>
      </trkpt>
      <trkpt lat="43.16793" lon="-0.57617">
        <ele>249.094</ele>
        <time>2016-10-04T19:11:39Z</time>
      </trkpt>
      <trkpt lat="43.16867" lon="-0.57675">
        <ele>249.036</ele>
        <time>2016-10-04T19:11:59Z</time>
      </trkpt>
      <trkpt lat="43.17121" lon="-0.57677">
        <ele>250.023</ele>
        <time>2016-10-04T19:12:19Z</time>
      </trkpt>
      <trkpt lat="43.17185" lon="-0.57703">
        <ele>247.083</ele>
        <time>2016-10-04T19:12:39Z</time>
      </trkpt>
      <trkpt lat="43.1723" lon="-0.57767">
        <ele>251.011</ele>
        <time>2016-10-04T19:12:59Z</time>
      </trkpt>
      <trkpt lat="43.17288" lon="-0.57913">
        <ele>249.008</ele>
        <time>2016-10-04T19:13:19Z</time>
      </trkpt>
      <trkpt lat="43.17327" lon="-0.58121">
        <ele>252.058</ele>
        <time>2016-10-04T19:13:39Z</time>
      </trkpt>
      <trkpt lat="43.17358" lon="-0.58222">
        <ele>247.067</ele>
        <time>2016-10-04T19:13:59Z</time>
      </trkpt>
      <trkpt lat="43.17376" lon="-0.58325">
        <ele>246.053</ele>
        <time>2016-10-04T19:14:19Z</time>
      </trkpt>
      <trkpt lat="43.17427" lon="-0.58503">
        <ele>243.069</ele>
        <time>2016-10-04T19:14:39Z</time>
      </trkpt>
      <trkpt lat="43.17426" lon="-0.58831">
        <ele>246.08</ele>
        <time>2016-10-04T19:14:59Z</time>
      </trkpt>
      <trkpt lat="43.17419" lon="-0.58923">
        <ele>253.072</ele>
        <time>2016-10-04T19:15:19Z</time>
      </trkpt>
      <trkpt lat="43.17443" lon="-0.59003">
        <ele>255.025</ele>
        <time>2016-10-04T19:15:39Z</time>
      </trkpt>
      <trkpt lat="43.17473" lon="-0.59183">
        <ele>259.057</ele>
        <time>2016-10-04T19:15:59Z</time>
      </trkpt>
      <trkpt lat="43.17542" lon="-0.59222">
        <ele>252.099</ele>
        <time>2016-10-04T19:16:19Z</time>
      </trkpt>
      <trkpt lat="43.17577" lon="-0.59282">
        <ele>260.007</ele>
        <time>2016-10-04T19:16:39Z</time>
      </trkpt>
      <trkpt lat="43.17601" lon="-0.59423">
        <ele>270.027</ele>
        <time>2016-10-04T19:16:59Z</time>
      </trkpt>
      <trkpt lat="43.17573" lon="-0.5949">
        <ele>275.008</ele>
        <time>2016-10-04T19:17:19Z</time>
      </trkpt>
      <trkpt lat="43.17646" lon="-0.5955">
        <ele>270.035</ele>
        <time>2016-10-04T19:17:39Z</time>
      </trkpt>
      <trkpt lat="43.1774" lon="-0.59591">
        <ele>268.074</ele>
        <time>2016-10-04T19:17:59Z</time>
      </trkpt>
      <trkpt lat="43.17823" lon="-0.59675">
        <ele>273.02</ele>
        <time>2016-10-04T19:18:19Z</time>
      </trkpt>
      <trkpt lat="43.17876" lon="-0.59715">
        <ele>275.076</ele>
        <time>2016-10-04T19:18:39Z</time>
      </trkpt>
      <trkpt lat="43.17894" lon="-0.5975">
        <ele>276.017</ele>
        <time>2016-10-04T19:18:59Z</time>
      </trkpt>
      <trkpt lat="43.17926" lon="-0.59782">
        <ele>281.029</ele>
        <time>2016-10-04T19:19:19Z</time>
      </trkpt>
      <trkpt lat="43.1795" lon="-0.59857">
        <ele>277.042</ele>
        <time>2016-10-04T19:19:39Z</time>
      </trkpt>
      <trkpt lat="43.17991" lon="-0.59876">
        <ele>279.044</ele>
        <time>2016-10-04T19:19:59Z</time>
      </trkpt>
      <trkpt lat="43.18072" lon="-0.5987">
        <ele>288.091</ele>
        <time>2016-10-04T19:20:19Z</time>
      </trkpt>
      <trkpt lat="43.1816" lon="-0.5985">
        <ele>289.081</ele>
        <time>2016-10-04T19:20:39Z</time>
      </trkpt>
      <trkpt lat="43.18272" lon="-0.59865">
        <ele>278.019</ele>
        <time>2016-10-04T19:20:59Z</time>
      </trkpt>
      <trkpt lat="43.18426" lon="-0.59913">
        <ele>279.008</ele>
        <time>2016-10-04T19:21:19Z</time>
      </trkpt>
      <trkpt lat="43.18529" lon="-0.60016">
        <ele>282.015</ele>
        <time>2016-10-04T19:21:39Z</time>
      </trkpt>
      <trkpt lat="43.18735" lon="-0.6025">
        <ele>268.084</ele>
        <time>2016-10-04T19:21:59Z</time>
      </trkpt>
      <trkpt lat="43.18853" lon="-0.60378">
        <ele>262.08</ele>
        <time>2016-10-04T19:22:19Z</time>
      </trkpt>
      <trkpt lat="43.18889" lon="-0.60498">
        <ele>265.036</ele>
        <time>2016-10-04T19:22:39Z</time>
      </trkpt>
      <trkpt lat="43.18926" lon="-0.60531">
        <ele>267.097</ele>
        <time>2016-10-04T19:22:59Z</time>
      </trkpt>
      <trkpt lat="43.18925" lon="-0.60614">
        <ele>269.069</ele>
        <time>2016-10-04T19:23:19Z</time>
      </trkpt>
      <trkpt lat="43.18893" lon="-0.60752">
        <ele>252.562</ele>
        <time>2021-02-06T21:51:11Z</time>
      </trkpt>
      <trkpt lat="43.18825" lon="-0.60822">
        <ele>232.034</ele>
        <time>2016-10-04T19:24:39Z</time>
      </trkpt>
      <trkpt lat="43.18875" lon="-0.6096">
        <ele>221.037</ele>
        <time>2016-10-04T19:24:59Z</time>
      </trkpt>
      <trkpt lat="43.18861" lon="-0.61025">
        <ele>217.149</ele>
        <time>2021-02-06T21:52:11Z</time>
      </trkpt>
      <trkpt lat="43.18889" lon="-0.61046">
        <ele>217.013</ele>
        <time>2016-10-04T19:25:39Z</time>
      </trkpt>
      <trkpt lat="43.18864" lon="-0.61112">
        <ele>219.008</ele>
        <time>2016-10-04T19:25:59Z</time>
      </trkpt>
      <trkpt lat="43.18837" lon="-0.61179">
        <ele>222.079</ele>
        <time>2016-10-04T19:26:19Z</time>
      </trkpt>
      <trkpt lat="43.18821" lon="-0.61314">
        <ele>226.058</ele>
        <time>2016-10-04T19:26:39Z</time>
      </trkpt>
      <trkpt lat="43.18756" lon="-0.61449">
        <ele>236.014</ele>
        <time>2016-10-04T19:26:59Z</time>
      </trkpt>
      <trkpt lat="43.18727" lon="-0.6151">
        <ele>239.04</ele>
        <time>2021-02-06T21:54:11Z</time>
      </trkpt>
      <trkpt lat="43.1877" lon="-0.61543">
        <ele>237.941</ele>
        <time>2021-02-06T21:54:31Z</time>
      </trkpt>
      <trkpt lat="43.1875" lon="-0.61617">
        <ele>237.453</ele>
        <time>2021-02-06T21:54:51Z</time>
      </trkpt>
      <trkpt lat="43.18799" lon="-0.61642">
        <ele>236.996</ele>
        <time>2021-02-06T21:55:11Z</time>
      </trkpt>
      <trkpt lat="43.1874" lon="-0.61857">
        <ele>238.088</ele>
        <time>2016-10-04T19:28:19Z</time>
      </trkpt>
      <trkpt lat="43.18732" lon="-0.61983">
        <ele>237.023</ele>
        <time>2016-10-04T19:28:39Z</time>
      </trkpt>
      <trkpt lat="43.18676" lon="-0.62191">
        <ele>235.083</ele>
        <time>2016-10-04T19:28:59Z</time>
      </trkpt>
      <trkpt lat="43.18668" lon="-0.6234">
        <ele>236.011</ele>
        <time>2016-10-04T19:29:19Z</time>
      </trkpt>
      <trkpt lat="43.18656" lon="-0.624">
        <ele>236.008</ele>
        <time>2016-10-04T19:29:39Z</time>
      </trkpt>
      <trkpt lat="43.18698" lon="-0.62494">
        <ele>235.038</ele>
        <time>2016-10-04T19:29:59Z</time>
      </trkpt>
      <trkpt lat="43.18734" lon="-0.62552">
        <ele>235.037</ele>
        <time>2016-10-04T19:30:19Z</time>
      </trkpt>
      <trkpt lat="43.18815" lon="-0.62627">
        <ele>234.053</ele>
        <time>2016-10-04T19:30:39Z</time>
      </trkpt>
      <trkpt lat="43.18879" lon="-0.62758">
        <ele>232.059</ele>
        <time>2016-10-04T19:30:59Z</time>
      </trkpt>
      <trkpt lat="43.18962" lon="-0.62867">
        <ele>232.08</ele>
        <time>2016-10-04T19:31:19Z</time>
      </trkpt>
      <trkpt lat="43.19468" lon="-0.63621">
        <ele>227.092</ele>
        <time>2016-10-04T19:31:39Z</time>
      </trkpt>
      <trkpt lat="43.19519" lon="-0.63653">
        <ele>227.085</ele>
        <time>2016-10-04T19:31:59Z</time>
      </trkpt>
      <trkpt lat="43.19743" lon="-0.63925">
        <ele>222.077</ele>
        <time>2016-10-04T19:32:19Z</time>
      </trkpt>
      <trkpt lat="43.19793" lon="-0.64039">
        <ele>222.057</ele>
        <time>2016-10-04T19:32:39Z</time>
      </trkpt>
      <trkpt lat="43.19849" lon="-0.64136">
        <ele>221</ele>
        <time>2016-10-04T19:32:59Z</time>
      </trkpt>
      <trkpt lat="43.19963" lon="-0.64243">
        <ele>222.02</ele>
        <time>2016-10-04T19:33:19Z</time>
      </trkpt>
      <trkpt lat="43.20082" lon="-0.64331">
        <ele>220.008</ele>
        <time>2016-10-04T19:33:39Z</time>
      </trkpt>
      <trkpt lat="43.20395" lon="-0.64668">
        <ele>217.091</ele>
        <time>2016-10-04T19:33:59Z</time>
      </trkpt>
      <trkpt lat="43.20526" lon="-0.64829">
        <ele>216.01</ele>
        <time>2016-10-04T19:34:19Z</time>
      </trkpt>
      <trkpt lat="43.206" lon="-0.64876">
        <ele>215.056</ele>
        <time>2016-10-04T19:34:39Z</time>
      </trkpt>
      <trkpt lat="43.20736" lon="-0.64917">
        <ele>214.062</ele>
        <time>2016-10-04T19:34:59Z</time>
      </trkpt>
      <trkpt lat="43.20828" lon="-0.64998">
        <ele>214.063</ele>
        <time>2016-10-04T19:35:19Z</time>
      </trkpt>
      <trkpt lat="43.20892" lon="-0.65078">
        <ele>215.015</ele>
        <time>2016-10-04T19:35:39Z</time>
      </trkpt>
      <trkpt lat="43.20944" lon="-0.65114">
        <ele>214.058</ele>
        <time>2016-10-04T19:35:59Z</time>
      </trkpt>
      <trkpt lat="43.20955" lon="-0.65133">
        <ele>214.06</ele>
        <time>2016-10-04T19:36:19Z</time>
      </trkpt>
      <trkpt lat="43.21043" lon="-0.65157">
        <ele>214.089</ele>
        <time>2016-10-04T19:36:39Z</time>
      </trkpt>
      <trkpt lat="43.21096" lon="-0.65183">
        <ele>215.006</ele>
        <time>2016-10-04T19:36:59Z</time>
      </trkpt>
      <trkpt lat="43.21269" lon="-0.65472">
        <ele>211.026</ele>
        <time>2016-10-04T19:37:19Z</time>
      </trkpt>
      <trkpt lat="43.21291" lon="-0.65429">
        <ele>211.008</ele>
        <time>2016-10-04T19:37:39Z</time>
      </trkpt>
      <trkpt lat="43.21357" lon="-0.65479">
        <ele>209.024</ele>
        <time>2016-10-04T19:37:59Z</time>
      </trkpt>
      <trkpt lat="43.21374" lon="-0.65599">
        <ele>198.083</ele>
        <time>2016-10-04T19:38:19Z</time>
      </trkpt>
      <trkpt lat="43.21346" lon="-0.65689">
        <ele>193.049</ele>
        <time>2016-10-04T19:38:39Z</time>
      </trkpt>
      <trkpt lat="43.21319" lon="-0.65713">
        <ele>194.055</ele>
        <time>2016-10-04T19:38:59Z</time>
      </trkpt>
      <trkpt lat="43.21274" lon="-0.65811">
        <ele>195.026</ele>
        <time>2016-10-04T19:39:19Z</time>
      </trkpt>
      <trkpt lat="43.21183" lon="-0.65936">
        <ele>198.048</ele>
        <time>2016-10-04T19:39:39Z</time>
      </trkpt>
      <trkpt lat="43.21104" lon="-0.66005">
        <ele>194.071</ele>
        <time>2016-10-04T19:39:59Z</time>
      </trkpt>
      <trkpt lat="43.21127" lon="-0.66103">
        <ele>192.013</ele>
        <time>2016-10-04T19:40:19Z</time>
      </trkpt>
      <trkpt lat="43.21163" lon="-0.66108">
        <ele>192.025</ele>
        <time>2016-10-04T19:40:39Z</time>
      </trkpt>
      <trkpt lat="43.21174" lon="-0.66135">
        <ele>192.026</ele>
        <time>2016-10-04T19:40:59Z</time>
      </trkpt>
      <trkpt lat="43.21165" lon="-0.66228">
        <ele>198.008</ele>
        <time>2016-10-04T19:41:19Z</time>
      </trkpt>
      <trkpt lat="43.21201" lon="-0.6629">
        <ele>207.008</ele>
        <time>2016-10-04T19:41:39Z</time>
      </trkpt>
      <trkpt lat="43.21133" lon="-0.66365">
        <ele>222.088</ele>
        <time>2016-10-04T19:41:59Z</time>
      </trkpt>
      <trkpt lat="43.21152" lon="-0.66365">
        <ele>222.067</ele>
        <time>2016-10-04T19:42:19Z</time>
      </trkpt>
      <trkpt lat="43.21213" lon="-0.66365">
        <ele>225.053</ele>
        <time>2016-10-04T19:42:39Z</time>
      </trkpt>
      <trkpt lat="43.21226" lon="-0.66384">
        <ele>228.029</ele>
        <time>2016-10-04T19:42:59Z</time>
      </trkpt>
      <trkpt lat="43.21313" lon="-0.66408">
        <ele>227.03</ele>
        <time>2016-10-04T19:43:19Z</time>
      </trkpt>
      <trkpt lat="43.21358" lon="-0.66417">
        <ele>227.072</ele>
        <time>2016-10-04T19:43:39Z</time>
      </trkpt>
      <trkpt lat="43.21401" lon="-0.66474">
        <ele>234.015</ele>
        <time>2016-10-04T19:43:59Z</time>
      </trkpt>
      <trkpt lat="43.21455" lon="-0.66406">
        <ele>230.087</ele>
        <time>2016-10-04T19:44:19Z</time>
      </trkpt>
      <trkpt lat="43.21504" lon="-0.66386">
        <ele>234.028</ele>
        <time>2016-10-04T19:44:39Z</time>
      </trkpt>
      <trkpt lat="43.21538" lon="-0.66391">
        <ele>235.089</ele>
        <time>2016-10-04T19:44:59Z</time>
      </trkpt>
      <trkpt lat="43.21595" lon="-0.66305">
        <ele>237.017</ele>
        <time>2016-10-04T19:45:19Z</time>
      </trkpt>
      <trkpt lat="43.21646" lon="-0.66296">
        <ele>237.008</ele>
        <time>2016-10-04T19:45:39Z</time>
      </trkpt>
      <trkpt lat="43.2172" lon="-0.6623">
        <ele>233.038</ele>
        <time>2016-10-04T19:45:59Z</time>
      </trkpt>
      <trkpt lat="43.21793" lon="-0.6612">
        <ele>231.037</ele>
        <time>2016-10-04T19:46:19Z</time>
      </trkpt>
      <trkpt lat="43.21854" lon="-0.66058">
        <ele>231.093</ele>
        <time>2016-10-04T19:46:39Z</time>
      </trkpt>
      <trkpt lat="43.21893" lon="-0.66058">
        <ele>230.079</ele>
        <time>2016-10-04T19:46:59Z</time>
      </trkpt>
      <trkpt lat="43.21911" lon="-0.66043">
        <ele>230.04</ele>
        <time>2016-10-04T19:47:19Z</time>
      </trkpt>
      <trkpt lat="43.21989" lon="-0.66262">
        <ele>223.082</ele>
        <time>2016-10-04T19:47:39Z</time>
      </trkpt>
      <trkpt lat="43.2202" lon="-0.66322">
        <ele>225.095</ele>
        <time>2016-10-04T19:47:59Z</time>
      </trkpt>
      <trkpt lat="43.22103" lon="-0.6658">
        <ele>224.067</ele>
        <time>2016-10-04T19:48:19Z</time>
      </trkpt>
      <trkpt lat="43.22176" lon="-0.6676">
        <ele>216.098</ele>
        <time>2016-10-04T19:48:39Z</time>
      </trkpt>
      <trkpt lat="43.22233" lon="-0.66809">
        <ele>213.015</ele>
        <time>2016-10-04T19:48:59Z</time>
      </trkpt>
      <trkpt lat="43.2225" lon="-0.66852">
        <ele>212.026</ele>
        <time>2016-10-04T19:49:19Z</time>
      </trkpt>
      <trkpt lat="43.22431" lon="-0.66979">
        <ele>203.008</ele>
        <time>2016-10-04T19:49:39Z</time>
      </trkpt>
      <trkpt lat="43.22453" lon="-0.66947">
        <ele>203.075</ele>
        <time>2016-10-04T19:49:59Z</time>
      </trkpt>
      <trkpt lat="43.22462" lon="-0.67">
        <ele>201.014</ele>
        <time>2016-10-04T19:50:19Z</time>
      </trkpt>
      <trkpt lat="43.2245" lon="-0.67052">
        <ele>201.08</ele>
        <time>2016-10-04T19:50:39Z</time>
      </trkpt>
      <trkpt lat="43.22461" lon="-0.67084">
        <ele>200.056</ele>
        <time>2016-10-04T19:50:59Z</time>
      </trkpt>
      <trkpt lat="43.22619" lon="-0.67062">
        <ele>199.097</ele>
        <time>2016-10-04T19:51:19Z</time>
      </trkpt>
      <trkpt lat="43.22659" lon="-0.67088">
        <ele>200.089</ele>
        <time>2016-10-04T19:51:39Z</time>
      </trkpt>
      <trkpt lat="43.22775" lon="-0.6714">
        <ele>198.062</ele>
        <time>2016-10-04T19:51:59Z</time>
      </trkpt>
      <trkpt lat="43.22847" lon="-0.67247">
        <ele>199.094</ele>
        <time>2016-10-04T19:52:19Z</time>
      </trkpt>
      <trkpt lat="43.22886" lon="-0.67279">
        <ele>199.063</ele>
        <time>2016-10-04T19:52:39Z</time>
      </trkpt>
      <trkpt lat="43.22921" lon="-0.67288">
        <ele>197.044</ele>
        <time>2016-10-04T19:52:59Z</time>
      </trkpt>
      <trkpt lat="43.22996" lon="-0.67266">
        <ele>198.018</ele>
        <time>2016-10-04T19:53:19Z</time>
      </trkpt>
      <trkpt lat="43.23074" lon="-0.67204">
        <ele>196.208</ele>
        <time>2021-02-06T22:20:51Z</time>
      </trkpt>
      <trkpt lat="43.23166" lon="-0.6719">
        <ele>193.032</ele>
        <time>2021-02-06T22:21:11Z</time>
      </trkpt>
      <trkpt lat="43.23203" lon="-0.67264">
        <ele>191.651</ele>
        <time>2021-02-06T22:21:31Z</time>
      </trkpt>
      <trkpt lat="43.23202" lon="-0.67296">
        <ele>192.627</ele>
        <time>2021-02-06T22:21:51Z</time>
      </trkpt>
      <trkpt lat="43.2323" lon="-0.67354">
        <ele>193.093</ele>
        <time>2016-10-04T19:54:39Z</time>
      </trkpt>
      <trkpt lat="43.23269" lon="-0.6738">
        <ele>191.024</ele>
        <time>2016-10-04T19:54:59Z</time>
      </trkpt>
      <trkpt lat="43.23288" lon="-0.67404">
        <ele>191.016</ele>
        <time>2016-10-04T19:55:19Z</time>
      </trkpt>
      <trkpt lat="43.23327" lon="-0.67401">
        <ele>189.029</ele>
        <time>2016-10-04T19:55:39Z</time>
      </trkpt>
      <trkpt lat="43.2336" lon="-0.67378">
        <ele>186.091</ele>
        <time>2016-10-04T19:55:59Z</time>
      </trkpt>
      <trkpt lat="43.23402" lon="-0.67397">
        <ele>185.062</ele>
        <time>2016-10-04T19:56:19Z</time>
      </trkpt>
      <trkpt lat="43.2359" lon="-0.67419">
        <ele>179.083</ele>
        <time>2016-10-04T19:56:39Z</time>
      </trkpt>
      <trkpt lat="43.23735" lon="-0.67485">
        <ele>180.011</ele>
        <time>2016-10-04T19:56:59Z</time>
      </trkpt>
      <trkpt lat="43.23823" lon="-0.67496">
        <ele>179.008</ele>
        <time>2016-10-04T19:57:19Z</time>
      </trkpt>
      <trkpt lat="43.23876" lon="-0.67515">
        <ele>180.082</ele>
        <time>2016-10-04T19:57:39Z</time>
      </trkpt>
      <trkpt lat="43.2396" lon="-0.67595">
        <ele>177.051</ele>
        <time>2016-10-04T19:57:59Z</time>
      </trkpt>
      <trkpt lat="43.24059" lon="-0.6765">
        <ele>171.057</ele>
        <time>2016-10-04T19:58:19Z</time>
      </trkpt>
      <trkpt lat="43.2409" lon="-0.67691">
        <ele>170.043</ele>
        <time>2016-10-04T19:58:39Z</time>
      </trkpt>
      <trkpt lat="43.2411" lon="-0.67745">
        <ele>169.034</ele>
        <time>2016-10-04T19:58:59Z</time>
      </trkpt>
      <trkpt lat="43.24156" lon="-0.6779">
        <ele>170.076</ele>
        <time>2016-10-04T19:59:19Z</time>
      </trkpt>
      <trkpt lat="43.24248" lon="-0.67923">
        <ele>166.029</ele>
        <time>2016-10-04T19:59:39Z</time>
      </trkpt>
      <trkpt lat="43.24457" lon="-0.68002">
        <ele>168.051</ele>
        <time>2016-10-04T19:59:59Z</time>
      </trkpt>
      <trkpt lat="43.24457" lon="-0.68144">
        <ele>174.028</ele>
        <time>2016-10-04T20:00:19Z</time>
      </trkpt>
      <trkpt lat="43.2451" lon="-0.68155">
        <ele>173.089</ele>
        <time>2016-10-04T20:00:39Z</time>
      </trkpt>
      <trkpt lat="43.24549" lon="-0.68176">
        <ele>176.017</ele>
        <time>2016-10-04T20:00:59Z</time>
      </trkpt>
      <trkpt lat="43.2457" lon="-0.68135">
        <ele>170.008</ele>
        <time>2016-10-04T20:01:19Z</time>
      </trkpt>
      <trkpt lat="43.24695" lon="-0.68049">
        <ele>168.088</ele>
        <time>2016-10-04T20:01:39Z</time>
      </trkpt>
      <trkpt lat="43.25084" lon="-0.68088">
        <ele>166.037</ele>
        <time>2016-10-04T20:01:59Z</time>
      </trkpt>
      <trkpt lat="43.25254" lon="-0.68189">
        <ele>165.053</ele>
        <time>2016-10-04T20:02:19Z</time>
      </trkpt>
      <trkpt lat="43.25412" lon="-0.68335">
        <ele>164.069</ele>
        <time>2016-10-04T20:02:39Z</time>
      </trkpt>
      <trkpt lat="43.25545" lon="-0.68403">
        <ele>169.08</ele>
        <time>2016-10-04T20:02:59Z</time>
      </trkpt>
      <trkpt lat="43.25615" lon="-0.68408">
        <ele>170.022</ele>
        <time>2016-10-04T20:03:19Z</time>
      </trkpt>
      <trkpt lat="43.25665" lon="-0.68446">
        <ele>173.095</ele>
        <time>2016-10-04T20:03:39Z</time>
      </trkpt>
      <trkpt lat="43.2572" lon="-0.68461">
        <ele>175.027</ele>
        <time>2016-10-04T20:03:59Z</time>
      </trkpt>
      <trkpt lat="43.25784" lon="-0.68528">
        <ele>177.083</ele>
        <time>2016-10-04T20:04:19Z</time>
      </trkpt>
      <trkpt lat="43.25895" lon="-0.68594">
        <ele>177.025</ele>
        <time>2016-10-04T20:04:39Z</time>
      </trkpt>
      <trkpt lat="43.26034" lon="-0.68652">
        <ele>177.017</ele>
        <time>2016-10-04T20:04:59Z</time>
      </trkpt>
      <trkpt lat="43.26108" lon="-0.68736">
        <ele>175.008</ele>
        <time>2016-10-04T20:05:19Z</time>
      </trkpt>
      <trkpt lat="43.26086" lon="-0.6883">
        <ele>176.064</ele>
        <time>2016-10-04T20:05:39Z</time>
      </trkpt>
      <trkpt lat="43.26083" lon="-0.68898">
        <ele>176.063</ele>
        <time>2016-10-04T20:05:59Z</time>
      </trkpt>
      <trkpt lat="43.26103" lon="-0.68959">
        <ele>175.089</ele>
        <time>2016-10-04T20:06:19Z</time>
      </trkpt>
      <trkpt lat="43.26138" lon="-0.6899">
        <ele>175.095</ele>
        <time>2016-10-04T20:06:39Z</time>
      </trkpt>
      <trkpt lat="43.26179" lon="-0.69057">
        <ele>175.036</ele>
        <time>2016-10-04T20:06:59Z</time>
      </trkpt>
      <trkpt lat="43.2619" lon="-0.69093">
        <ele>176.048</ele>
        <time>2016-10-04T20:07:19Z</time>
      </trkpt>
      <trkpt lat="43.26321" lon="-0.69372">
        <ele>172.091</ele>
        <time>2016-10-04T20:07:39Z</time>
      </trkpt>
      <trkpt lat="43.26312" lon="-0.69656">
        <ele>173.023</ele>
        <time>2016-10-04T20:07:59Z</time>
      </trkpt>
      <trkpt lat="43.26277" lon="-0.69958">
        <ele>172.084</ele>
        <time>2016-10-04T20:08:19Z</time>
      </trkpt>
      <trkpt lat="43.26243" lon="-0.70095">
        <ele>170.007</ele>
        <time>2016-10-04T20:08:39Z</time>
      </trkpt>
      <trkpt lat="43.26238" lon="-0.70183">
        <ele>172.017</ele>
        <time>2016-10-04T20:08:59Z</time>
      </trkpt>
      <trkpt lat="43.26246" lon="-0.70308">
        <ele>174.008</ele>
        <time>2016-10-04T20:09:19Z</time>
      </trkpt>
      <trkpt lat="43.26271" lon="-0.70419">
        <ele>173.044</ele>
        <time>2016-10-04T20:09:39Z</time>
      </trkpt>
      <trkpt lat="43.26276" lon="-0.70615">
        <ele>171.013</ele>
        <time>2016-10-04T20:09:59Z</time>
      </trkpt>
      <trkpt lat="43.26332" lon="-0.7084">
        <ele>171.019</ele>
        <time>2016-10-04T20:10:19Z</time>
      </trkpt>
      <trkpt lat="43.26368" lon="-0.71029">
        <ele>172.025</ele>
        <time>2016-10-04T20:10:39Z</time>
      </trkpt>
      <trkpt lat="43.26374" lon="-0.71095">
        <ele>172.056</ele>
        <time>2016-10-04T20:10:59Z</time>
      </trkpt>
      <trkpt lat="43.26416" lon="-0.71119">
        <ele>172.018</ele>
        <time>2016-10-04T20:11:19Z</time>
      </trkpt>
      <trkpt lat="43.2641" lon="-0.71194">
        <ele>172.051</ele>
        <time>2016-10-04T20:11:39Z</time>
      </trkpt>
      <trkpt lat="43.26422" lon="-0.71261">
        <ele>171.013</ele>
        <time>2016-10-04T20:11:59Z</time>
      </trkpt>
      <trkpt lat="43.26422" lon="-0.71297">
        <ele>170.084</ele>
        <time>2016-10-04T20:12:19Z</time>
      </trkpt>
      <trkpt lat="43.2641" lon="-0.71327">
        <ele>170.007</ele>
        <time>2016-10-04T20:12:39Z</time>
      </trkpt>
      <trkpt lat="43.26312" lon="-0.71383">
        <ele>165.017</ele>
        <time>2016-10-04T20:12:59Z</time>
      </trkpt>
      <trkpt lat="43.26254" lon="-0.71486">
        <ele>157.008</ele>
        <time>2016-10-04T20:13:19Z</time>
      </trkpt>
      <trkpt lat="43.26208" lon="-0.71527">
        <ele>159.084</ele>
        <time>2016-10-04T20:13:39Z</time>
      </trkpt>
      <trkpt lat="43.26208" lon="-0.7158">
        <ele>160.063</ele>
        <time>2016-10-04T20:13:59Z</time>
      </trkpt>
      <trkpt lat="43.26091" lon="-0.71625">
        <ele>169.059</ele>
        <time>2016-10-04T20:14:19Z</time>
      </trkpt>
      <trkpt lat="43.25902" lon="-0.71735">
        <ele>171.075</ele>
        <time>2016-10-04T20:14:39Z</time>
      </trkpt>
      <trkpt lat="43.25857" lon="-0.71788">
        <ele>172.096</ele>
        <time>2016-10-04T20:14:59Z</time>
      </trkpt>
      <trkpt lat="43.25868" lon="-0.7184">
        <ele>176.038</ele>
        <time>2016-10-04T20:15:19Z</time>
      </trkpt>
      <trkpt lat="43.25854" lon="-0.71849">
        <ele>176.091</ele>
        <time>2016-10-04T20:15:39Z</time>
      </trkpt>
      <trkpt lat="43.25833" lon="-0.7187">
        <ele>178.073</ele>
        <time>2016-10-04T20:15:59Z</time>
      </trkpt>
      <trkpt lat="43.25871" lon="-0.71971">
        <ele>186.022</ele>
        <time>2016-10-04T20:16:19Z</time>
      </trkpt>
      <trkpt lat="43.25865" lon="-0.72005">
        <ele>194.062</ele>
        <time>2016-10-04T20:16:39Z</time>
      </trkpt>
      <trkpt lat="43.25821" lon="-0.72048">
        <ele>196.008</ele>
        <time>2016-10-04T20:16:59Z</time>
      </trkpt>
      <trkpt lat="43.25796" lon="-0.72151">
        <ele>200.008</ele>
        <time>2016-10-04T20:17:19Z</time>
      </trkpt>
      <trkpt lat="43.2574" lon="-0.72295">
        <ele>196.048</ele>
        <time>2016-10-04T20:17:39Z</time>
      </trkpt>
      <trkpt lat="43.25733" lon="-0.72383">
        <ele>194.077</ele>
        <time>2016-10-04T20:17:59Z</time>
      </trkpt>
      <trkpt lat="43.25655" lon="-0.72542">
        <ele>196.083</ele>
        <time>2016-10-04T20:18:19Z</time>
      </trkpt>
      <trkpt lat="43.25627" lon="-0.72634">
        <ele>195.029</ele>
        <time>2016-10-04T20:18:39Z</time>
      </trkpt>
      <trkpt lat="43.25561" lon="-0.72778">
        <ele>202.09</ele>
        <time>2016-10-04T20:18:59Z</time>
      </trkpt>
      <trkpt lat="43.25583" lon="-0.72818">
        <ele>203.022</ele>
        <time>2016-10-04T20:19:19Z</time>
      </trkpt>
      <trkpt lat="43.25516" lon="-0.72902">
        <ele>204.035</ele>
        <time>2016-10-04T20:19:39Z</time>
      </trkpt>
      <trkpt lat="43.25455" lon="-0.72909">
        <ele>202.077</ele>
        <time>2016-10-04T20:19:59Z</time>
      </trkpt>
      <trkpt lat="43.25413" lon="-0.72979">
        <ele>195.071</ele>
        <time>2016-10-04T20:20:19Z</time>
      </trkpt>
      <trkpt lat="43.25399" lon="-0.73033">
        <ele>191.041</ele>
        <time>2016-10-04T20:20:39Z</time>
      </trkpt>
      <trkpt lat="43.25418" lon="-0.73155">
        <ele>181.015</ele>
        <time>2016-10-04T20:20:59Z</time>
      </trkpt>
      <trkpt lat="43.2536" lon="-0.73198">
        <ele>180.008</ele>
        <time>2016-10-04T20:21:19Z</time>
      </trkpt>
      <trkpt lat="43.2535" lon="-0.73312">
        <ele>183.093</ele>
        <time>2016-10-04T20:21:39Z</time>
      </trkpt>
      <trkpt lat="43.25332" lon="-0.73361">
        <ele>190.012</ele>
        <time>2016-10-04T20:21:59Z</time>
      </trkpt>
      <trkpt lat="43.25296" lon="-0.73393">
        <ele>190.098</ele>
        <time>2016-10-04T20:22:19Z</time>
      </trkpt>
      <trkpt lat="43.251" lon="-0.73737">
        <ele>198.084</ele>
        <time>2016-10-04T20:22:39Z</time>
      </trkpt>
      <trkpt lat="43.25046" lon="-0.73891">
        <ele>203.085</ele>
        <time>2016-10-04T20:22:59Z</time>
      </trkpt>
      <trkpt lat="43.25007" lon="-0.74014">
        <ele>209.047</ele>
        <time>2016-10-04T20:23:19Z</time>
      </trkpt>
      <trkpt lat="43.2498" lon="-0.74136">
        <ele>216.08</ele>
        <time>2016-10-04T20:23:39Z</time>
      </trkpt>
      <trkpt lat="43.24897" lon="-0.74428">
        <ele>230.062</ele>
        <time>2016-10-04T20:23:59Z</time>
      </trkpt>
      <trkpt lat="43.2485" lon="-0.74453">
        <ele>230.048</ele>
        <time>2016-10-04T20:24:19Z</time>
      </trkpt>
      <trkpt lat="43.24708" lon="-0.74578">
        <ele>242.061</ele>
        <time>2016-10-04T20:24:39Z</time>
      </trkpt>
      <trkpt lat="43.24672" lon="-0.74552">
        <ele>241.017</ele>
        <time>2016-10-04T20:24:59Z</time>
      </trkpt>
      <trkpt lat="43.24621" lon="-0.74604">
        <ele>240.008</ele>
        <time>2016-10-04T20:25:19Z</time>
      </trkpt>
      <trkpt lat="43.24605" lon="-0.74666">
        <ele>241.06</ele>
        <time>2016-10-04T20:25:39Z</time>
      </trkpt>
      <trkpt lat="43.24605" lon="-0.74709">
        <ele>241.069</ele>
        <time>2016-10-04T20:25:59Z</time>
      </trkpt>
      <trkpt lat="43.24585" lon="-0.74737">
        <ele>241.075</ele>
        <time>2016-10-04T20:26:19Z</time>
      </trkpt>
      <trkpt lat="43.2453" lon="-0.7476">
        <ele>240.061</ele>
        <time>2016-10-04T20:26:39Z</time>
      </trkpt>
      <trkpt lat="43.24497" lon="-0.74818">
        <ele>244.062</ele>
        <time>2016-10-04T20:26:59Z</time>
      </trkpt>
      <trkpt lat="43.24466" lon="-0.7485">
        <ele>242.044</ele>
        <time>2016-10-04T20:27:19Z</time>
      </trkpt>
      <trkpt lat="43.24425" lon="-0.74833">
        <ele>245.067</ele>
        <time>2016-10-04T20:27:39Z</time>
      </trkpt>
      <trkpt lat="43.24377" lon="-0.74737">
        <ele>248.099</ele>
        <time>2016-10-04T20:27:59Z</time>
      </trkpt>
      <trkpt lat="43.24324" lon="-0.747">
        <ele>252.051</ele>
        <time>2016-10-04T20:28:19Z</time>
      </trkpt>
      <trkpt lat="43.24205" lon="-0.74709">
        <ele>249.001</ele>
        <time>2016-10-04T20:28:39Z</time>
      </trkpt>
      <trkpt lat="43.24199" lon="-0.7473">
        <ele>250.011</ele>
        <time>2016-10-04T20:28:59Z</time>
      </trkpt>
      <trkpt lat="43.24152" lon="-0.74758">
        <ele>249.008</ele>
        <time>2016-10-04T20:29:19Z</time>
      </trkpt>
      <trkpt lat="43.24253" lon="-0.7482">
        <ele>255.011</ele>
        <time>2016-10-04T20:29:39Z</time>
      </trkpt>
      <trkpt lat="43.24256" lon="-0.7487">
        <ele>253.02</ele>
        <time>2016-10-04T20:29:59Z</time>
      </trkpt>
      <trkpt lat="43.24225" lon="-0.74958">
        <ele>242.056</ele>
        <time>2016-10-04T20:30:19Z</time>
      </trkpt>
      <trkpt lat="43.24195" lon="-0.75078">
        <ele>234.072</ele>
        <time>2016-10-04T20:30:39Z</time>
      </trkpt>
      <trkpt lat="43.24095" lon="-0.75187">
        <ele>212.023</ele>
        <time>2016-10-04T20:30:59Z</time>
      </trkpt>
      <trkpt lat="43.24089" lon="-0.75284">
        <ele>203.085</ele>
        <time>2016-10-04T20:31:19Z</time>
      </trkpt>
      <trkpt lat="43.24136" lon="-0.75331">
        <ele>199.028</ele>
        <time>2016-10-04T20:31:39Z</time>
      </trkpt>
      <trkpt lat="43.24064" lon="-0.75378">
        <ele>185.06</ele>
        <time>2016-10-04T20:31:59Z</time>
      </trkpt>
      <trkpt lat="43.24052" lon="-0.75501">
        <ele>168.048</ele>
        <time>2016-10-04T20:32:19Z</time>
      </trkpt>
      <trkpt lat="43.24072" lon="-0.75537">
        <ele>169.061</ele>
        <time>2016-10-04T20:32:39Z</time>
      </trkpt>
      <trkpt lat="43.24108" lon="-0.75556">
        <ele>167.017</ele>
        <time>2016-10-04T20:32:59Z</time>
      </trkpt>
      <trkpt lat="43.24158" lon="-0.75533">
        <ele>164.008</ele>
        <time>2016-10-04T20:33:19Z</time>
      </trkpt>
      <trkpt lat="43.24238" lon="-0.75496">
        <ele>163.05</ele>
        <time>2016-10-04T20:33:39Z</time>
      </trkpt>
      <trkpt lat="43.24294" lon="-0.75509">
        <ele>162.029</ele>
        <time>2016-10-04T20:33:59Z</time>
      </trkpt>
      <trkpt lat="43.24366" lon="-0.75507">
        <ele>169.055</ele>
        <time>2016-10-04T20:34:19Z</time>
      </trkpt>
      <trkpt lat="43.24531" lon="-0.75666">
        <ele>189.031</ele>
        <time>2016-10-04T20:34:39Z</time>
      </trkpt>
      <trkpt lat="43.24566" lon="-0.75722">
        <ele>189.062</ele>
        <time>2016-10-04T20:34:59Z</time>
      </trkpt>
      <trkpt lat="43.24614" lon="-0.7576">
        <ele>191.044</ele>
        <time>2016-10-04T20:35:19Z</time>
      </trkpt>
      <trkpt lat="43.24747" lon="-0.75906">
        <ele>204.087</ele>
        <time>2016-10-04T20:35:39Z</time>
      </trkpt>
      <trkpt lat="43.24783" lon="-0.7599">
        <ele>204.049</ele>
        <time>2016-10-04T20:35:59Z</time>
      </trkpt>
      <trkpt lat="43.24821" lon="-0.76011">
        <ele>200.061</ele>
        <time>2016-10-04T20:36:19Z</time>
      </trkpt>
      <trkpt lat="43.24897" lon="-0.76071">
        <ele>183.021</ele>
        <time>2016-10-04T20:36:39Z</time>
      </trkpt>
      <trkpt lat="43.24907" lon="-0.76179">
        <ele>179.013</ele>
        <time>2016-10-04T20:36:59Z</time>
      </trkpt>
      <trkpt lat="43.24918" lon="-0.76252">
        <ele>172.008</ele>
        <time>2016-10-04T20:37:19Z</time>
      </trkpt>
      <trkpt lat="43.24868" lon="-0.76355">
        <ele>181.082</ele>
        <time>2016-10-04T20:37:39Z</time>
      </trkpt>
      <trkpt lat="43.24882" lon="-0.76365">
        <ele>179.091</ele>
        <time>2016-10-04T20:37:59Z</time>
      </trkpt>
      <trkpt lat="43.24916" lon="-0.76316">
        <ele>175.047</ele>
        <time>2016-10-04T20:38:19Z</time>
      </trkpt>
      <trkpt lat="43.24994" lon="-0.7631">
        <ele>164.063</ele>
        <time>2016-10-04T20:38:39Z</time>
      </trkpt>
      <trkpt lat="43.25025" lon="-0.76374">
        <ele>162.024</ele>
        <time>2016-10-04T20:38:59Z</time>
      </trkpt>
      <trkpt lat="43.25027" lon="-0.76486">
        <ele>166.066</ele>
        <time>2016-10-04T20:39:19Z</time>
      </trkpt>
      <trkpt lat="43.25013" lon="-0.76522">
        <ele>170.089</ele>
        <time>2016-10-04T20:39:39Z</time>
      </trkpt>
      <trkpt lat="43.2503" lon="-0.76646">
        <ele>172.081</ele>
        <time>2016-10-04T20:39:59Z</time>
      </trkpt>
      <trkpt lat="43.25038" lon="-0.76769">
        <ele>175.066</ele>
        <time>2016-10-04T20:40:19Z</time>
      </trkpt>
      <trkpt lat="43.25057" lon="-0.76938">
        <ele>168.029</ele>
        <time>2016-10-04T20:40:39Z</time>
      </trkpt>
      <trkpt lat="43.25171" lon="-0.76992">
        <ele>156.021</ele>
        <time>2016-10-04T20:40:59Z</time>
      </trkpt>
      <trkpt lat="43.25146" lon="-0.77125">
        <ele>161.008</ele>
        <time>2016-10-04T20:41:19Z</time>
      </trkpt>
      <trkpt lat="43.25154" lon="-0.77149">
        <ele>161.032</ele>
        <time>2016-10-04T20:41:39Z</time>
      </trkpt>
      <trkpt lat="43.25118" lon="-0.77187">
        <ele>175.011</ele>
        <time>2016-10-04T20:41:59Z</time>
      </trkpt>
      <trkpt lat="43.25111" lon="-0.77269">
        <ele>186.057</ele>
        <time>2016-10-04T20:42:19Z</time>
      </trkpt>
      <trkpt lat="43.25013" lon="-0.77232">
        <ele>207.083</ele>
        <time>2016-10-04T20:42:39Z</time>
      </trkpt>
      <trkpt lat="43.24996" lon="-0.77196">
        <ele>214.064</ele>
        <time>2016-10-04T20:42:59Z</time>
      </trkpt>
      <trkpt lat="43.24932" lon="-0.77183">
        <ele>219.086</ele>
        <time>2016-10-04T20:43:19Z</time>
      </trkpt>
      <trkpt lat="43.24899" lon="-0.77106">
        <ele>216.019</ele>
        <time>2016-10-04T20:43:39Z</time>
      </trkpt>
      <trkpt lat="43.24894" lon="-0.76975">
        <ele>204.011</ele>
        <time>2016-10-04T20:43:59Z</time>
      </trkpt>
      <trkpt lat="43.24802" lon="-0.76994">
        <ele>198.052</ele>
        <time>2016-10-04T20:44:19Z</time>
      </trkpt>
      <trkpt lat="43.24755" lon="-0.76966">
        <ele>195.053</ele>
        <time>2016-10-04T20:44:39Z</time>
      </trkpt>
      <trkpt lat="43.24667" lon="-0.76951">
        <ele>193.008</ele>
        <time>2016-10-04T20:44:59Z</time>
      </trkpt>
      <trkpt lat="43.24569" lon="-0.77084">
        <ele>201.008</ele>
        <time>2016-10-04T20:45:19Z</time>
      </trkpt>
      <trkpt lat="43.2453" lon="-0.77104">
        <ele>205.091</ele>
        <time>2016-10-04T20:45:39Z</time>
      </trkpt>
      <trkpt lat="43.24442" lon="-0.76996">
        <ele>221.05</ele>
        <time>2016-10-04T20:45:59Z</time>
      </trkpt>
      <trkpt lat="43.24184" lon="-0.77121">
        <ele>238.046</ele>
        <time>2016-10-04T20:46:19Z</time>
      </trkpt>
      <trkpt lat="43.24106" lon="-0.77091">
        <ele>242.072</ele>
        <time>2016-10-04T20:46:39Z</time>
      </trkpt>
      <trkpt lat="43.24078" lon="-0.7717">
        <ele>244.023</ele>
        <time>2016-10-04T20:46:59Z</time>
      </trkpt>
      <trkpt lat="43.24095" lon="-0.77299">
        <ele>243.055</ele>
        <time>2016-10-04T20:47:19Z</time>
      </trkpt>
      <trkpt lat="43.24092" lon="-0.77385">
        <ele>248.018</ele>
        <time>2016-10-04T20:47:39Z</time>
      </trkpt>
      <trkpt lat="43.2412" lon="-0.77477">
        <ele>251.04</ele>
        <time>2016-10-04T20:47:59Z</time>
      </trkpt>
      <trkpt lat="43.24114" lon="-0.77558">
        <ele>248.042</ele>
        <time>2016-10-04T20:48:19Z</time>
      </trkpt>
      <trkpt lat="43.24013" lon="-0.77771">
        <ele>245.022</ele>
        <time>2016-10-04T20:48:39Z</time>
      </trkpt>
      <trkpt lat="43.23911" lon="-0.77885">
        <ele>255.014</ele>
        <time>2016-10-04T20:48:59Z</time>
      </trkpt>
      <trkpt lat="43.23872" lon="-0.7796">
        <ele>258.008</ele>
        <time>2016-10-04T20:49:19Z</time>
      </trkpt>
      <trkpt lat="43.23831" lon="-0.78007">
        <ele>263.02</ele>
        <time>2016-10-04T20:49:39Z</time>
      </trkpt>
      <trkpt lat="43.23809" lon="-0.78097">
        <ele>265.049</ele>
        <time>2016-10-04T20:49:59Z</time>
      </trkpt>
      <trkpt lat="43.23806" lon="-0.78209">
        <ele>268.025</ele>
        <time>2016-10-04T20:50:19Z</time>
      </trkpt>
      <trkpt lat="43.23692" lon="-0.78387">
        <ele>253.011</ele>
        <time>2016-10-04T20:50:39Z</time>
      </trkpt>
      <trkpt lat="43.23683" lon="-0.78457">
        <ele>246.032</ele>
        <time>2016-10-04T20:50:59Z</time>
      </trkpt>
      <trkpt lat="43.23495" lon="-0.78674">
        <ele>238.084</ele>
        <time>2016-10-04T20:51:19Z</time>
      </trkpt>
      <trkpt lat="43.23461" lon="-0.78696">
        <ele>240.037</ele>
        <time>2016-10-04T20:51:39Z</time>
      </trkpt>
      <trkpt lat="43.23429" lon="-0.7873">
        <ele>240.059</ele>
        <time>2016-10-04T20:51:59Z</time>
      </trkpt>
      <trkpt lat="43.23419" lon="-0.78717">
        <ele>240.046</ele>
        <time>2016-10-04T20:52:19Z</time>
      </trkpt>
      <trkpt lat="43.23404" lon="-0.78661">
        <ele>251.088</ele>
        <time>2016-10-04T20:52:39Z</time>
      </trkpt>
      <trkpt lat="43.23298" lon="-0.78601">
        <ele>264.016</ele>
        <time>2016-10-04T20:52:59Z</time>
      </trkpt>
      <trkpt lat="43.2329" lon="-0.78584">
        <ele>265.008</ele>
        <time>2016-10-04T20:53:19Z</time>
      </trkpt>
      <trkpt lat="43.23212" lon="-0.7864">
        <ele>263.05</ele>
        <time>2016-10-04T20:53:39Z</time>
      </trkpt>
      <trkpt lat="43.23206" lon="-0.78745">
        <ele>273.059</ele>
        <time>2016-10-04T20:53:59Z</time>
      </trkpt>
      <trkpt lat="43.23167" lon="-0.78869">
        <ele>283.025</ele>
        <time>2016-10-04T20:54:19Z</time>
      </trkpt>
      <trkpt lat="43.23126" lon="-0.78966">
        <ele>297.041</ele>
        <time>2016-10-04T20:54:39Z</time>
      </trkpt>
      <trkpt lat="43.23093" lon="-0.79075">
        <ele>309.092</ele>
        <time>2016-10-04T20:54:59Z</time>
      </trkpt>
      <trkpt lat="43.23087" lon="-0.79178">
        <ele>307.054</ele>
        <time>2016-10-04T20:55:19Z</time>
      </trkpt>
      <trkpt lat="43.22948" lon="-0.79286">
        <ele>322.037</ele>
        <time>2016-10-04T20:55:39Z</time>
      </trkpt>
      <trkpt lat="43.22849" lon="-0.79329">
        <ele>330.019</ele>
        <time>2016-10-04T20:55:59Z</time>
      </trkpt>
      <trkpt lat="43.22801" lon="-0.79382">
        <ele>331.046</ele>
        <time>2016-10-04T20:56:19Z</time>
      </trkpt>
      <trkpt lat="43.22773" lon="-0.79485">
        <ele>335.088</ele>
        <time>2016-10-04T20:56:39Z</time>
      </trkpt>
      <trkpt lat="43.22737" lon="-0.79556">
        <ele>342.016</ele>
        <time>2016-10-04T20:56:59Z</time>
      </trkpt>
      <trkpt lat="43.22671" lon="-0.79599">
        <ele>341.008</ele>
        <time>2016-10-04T20:57:19Z</time>
      </trkpt>
      <trkpt lat="43.22656" lon="-0.7964">
        <ele>340.03</ele>
        <time>2016-10-04T20:57:39Z</time>
      </trkpt>
      <trkpt lat="43.22616" lon="-0.7967">
        <ele>331.029</ele>
        <time>2016-10-04T20:57:59Z</time>
      </trkpt>
      <trkpt lat="43.22573" lon="-0.79756">
        <ele>324.065</ele>
        <time>2016-10-04T20:58:19Z</time>
      </trkpt>
      <trkpt lat="43.22469" lon="-0.79799">
        <ele>322.081</ele>
        <time>2016-10-04T20:58:39Z</time>
      </trkpt>
      <trkpt lat="43.22335" lon="-0.7979">
        <ele>317.092</ele>
        <time>2016-10-04T20:58:59Z</time>
      </trkpt>
      <trkpt lat="43.22235" lon="-0.7976">
        <ele>312.014</ele>
        <time>2016-10-04T20:59:19Z</time>
      </trkpt>
      <trkpt lat="43.22168" lon="-0.79719">
        <ele>315.057</ele>
        <time>2016-10-04T20:59:39Z</time>
      </trkpt>
      <trkpt lat="43.2214" lon="-0.79775">
        <ele>319.059</ele>
        <time>2016-10-04T20:59:59Z</time>
      </trkpt>
      <trkpt lat="43.22161" lon="-0.80238">
        <ele>364.087</ele>
        <time>2016-10-04T21:00:19Z</time>
      </trkpt>
      <trkpt lat="43.22149" lon="-0.80316">
        <ele>366.042</ele>
        <time>2016-10-04T21:00:39Z</time>
      </trkpt>
      <trkpt lat="43.22107" lon="-0.80367">
        <ele>366.026</ele>
        <time>2016-10-04T21:00:59Z</time>
      </trkpt>
      <trkpt lat="43.22044" lon="-0.80421">
        <ele>388.008</ele>
        <time>2016-10-04T21:01:19Z</time>
      </trkpt>
      <trkpt lat="43.21986" lon="-0.80507">
        <ele>414.074</ele>
        <time>2016-10-04T21:01:39Z</time>
      </trkpt>
      <trkpt lat="43.21963" lon="-0.80539">
        <ele>426.063</ele>
        <time>2016-10-04T21:01:59Z</time>
      </trkpt>
      <trkpt lat="43.2198" lon="-0.80578">
        <ele>421.049</ele>
        <time>2016-10-04T21:02:19Z</time>
      </trkpt>
      <trkpt lat="43.22107" lon="-0.80616">
        <ele>407.045</ele>
        <time>2016-10-04T21:02:39Z</time>
      </trkpt>
      <trkpt lat="43.22201" lon="-0.8068">
        <ele>415.016</ele>
        <time>2016-10-04T21:02:59Z</time>
      </trkpt>
      <trkpt lat="43.22244" lon="-0.80807">
        <ele>433.078</ele>
        <time>2016-10-04T21:03:19Z</time>
      </trkpt>
      <trkpt lat="43.22251" lon="-0.80869">
        <ele>426.031</ele>
        <time>2016-10-04T21:03:39Z</time>
      </trkpt>
      <trkpt lat="43.22308" lon="-0.80949">
        <ele>433.023</ele>
        <time>2016-10-04T21:03:59Z</time>
      </trkpt>
      <trkpt lat="43.22326" lon="-0.81056">
        <ele>441.016</ele>
        <time>2016-10-04T21:04:19Z</time>
      </trkpt>
      <trkpt lat="43.22313" lon="-0.81144">
        <ele>438.076</ele>
        <time>2016-10-04T21:04:39Z</time>
      </trkpt>
      <trkpt lat="43.22285" lon="-0.81172">
        <ele>432.013</ele>
        <time>2016-10-04T21:04:59Z</time>
      </trkpt>
      <trkpt lat="43.22282" lon="-0.81206">
        <ele>430.008</ele>
        <time>2016-10-04T21:05:19Z</time>
      </trkpt>
      <trkpt lat="43.22221" lon="-0.81232">
        <ele>425.087</ele>
        <time>2016-10-04T21:05:39Z</time>
      </trkpt>
      <trkpt lat="43.22104" lon="-0.81215">
        <ele>419.046</ele>
        <time>2016-10-04T21:05:59Z</time>
      </trkpt>
      <trkpt lat="43.22024" lon="-0.81226">
        <ele>411.052</ele>
        <time>2016-10-04T21:06:19Z</time>
      </trkpt>
      <trkpt lat="43.21919" lon="-0.81067">
        <ele>422.058</ele>
        <time>2016-10-04T21:06:39Z</time>
      </trkpt>
      <trkpt lat="43.21836" lon="-0.81071">
        <ele>410.019</ele>
        <time>2016-10-04T21:06:59Z</time>
      </trkpt>
      <trkpt lat="43.21825" lon="-0.81105">
        <ele>395.031</ele>
        <time>2016-10-04T21:07:19Z</time>
      </trkpt>
      <trkpt lat="43.21753" lon="-0.8112">
        <ele>391.034</ele>
        <time>2016-10-04T21:07:39Z</time>
      </trkpt>
      <trkpt lat="43.21691" lon="-0.81168">
        <ele>368.066</ele>
        <time>2016-10-04T21:07:59Z</time>
      </trkpt>
      <trkpt lat="43.2158" lon="-0.81215">
        <ele>340.074</ele>
        <time>2016-10-04T21:08:19Z</time>
      </trkpt>
      <trkpt lat="43.21563" lon="-0.81318">
        <ele>337.056</ele>
        <time>2016-10-04T21:08:39Z</time>
      </trkpt>
      <trkpt lat="43.2157" lon="-0.81367">
        <ele>337.021</ele>
        <time>2016-10-04T21:08:59Z</time>
      </trkpt>
      <trkpt lat="43.21611" lon="-0.8141">
        <ele>332.008</ele>
        <time>2016-10-04T21:09:19Z</time>
      </trkpt>
      <trkpt lat="43.21622" lon="-0.81459">
        <ele>323.083</ele>
        <time>2016-10-04T21:09:39Z</time>
      </trkpt>
      <trkpt lat="43.21595" lon="-0.81504">
        <ele>320.012</ele>
        <time>2016-10-04T21:09:59Z</time>
      </trkpt>
      <trkpt lat="43.21531" lon="-0.81577">
        <ele>315.088</ele>
        <time>2016-10-04T21:10:19Z</time>
      </trkpt>
      <trkpt lat="43.21498" lon="-0.81676">
        <ele>311.034</ele>
        <time>2016-10-04T21:10:39Z</time>
      </trkpt>
      <trkpt lat="43.2147" lon="-0.81719">
        <ele>309.015</ele>
        <time>2016-10-04T21:10:59Z</time>
      </trkpt>
      <trkpt lat="43.21401" lon="-0.81923">
        <ele>296.087</ele>
        <time>2016-10-04T21:11:19Z</time>
      </trkpt>
      <trkpt lat="43.21411" lon="-0.82011">
        <ele>294.06</ele>
        <time>2016-10-04T21:11:39Z</time>
      </trkpt>
      <trkpt lat="43.21406" lon="-0.82095">
        <ele>295.092</ele>
        <time>2016-10-04T21:11:59Z</time>
      </trkpt>
      <trkpt lat="43.21453" lon="-0.82191">
        <ele>291.089</ele>
        <time>2016-10-04T21:12:19Z</time>
      </trkpt>
      <trkpt lat="43.21494" lon="-0.82247">
        <ele>292.006</ele>
        <time>2016-10-04T21:12:39Z</time>
      </trkpt>
      <trkpt lat="43.21508" lon="-0.82361">
        <ele>284.026</ele>
        <time>2016-10-04T21:12:59Z</time>
      </trkpt>
      <trkpt lat="43.21506" lon="-0.82457">
        <ele>279.008</ele>
        <time>2016-10-04T21:13:19Z</time>
      </trkpt>
      <trkpt lat="43.21483" lon="-0.82607">
        <ele>269.034</ele>
        <time>2016-10-04T21:13:39Z</time>
      </trkpt>
      <trkpt lat="43.21491" lon="-0.82693">
        <ele>262.033</ele>
        <time>2016-10-04T21:13:59Z</time>
      </trkpt>
      <trkpt lat="43.21533" lon="-0.82788">
        <ele>245.069</ele>
        <time>2016-10-04T21:14:19Z</time>
      </trkpt>
      <trkpt lat="43.21458" lon="-0.82758">
        <ele>248.035</ele>
        <time>2016-10-04T21:14:39Z</time>
      </trkpt>
      <trkpt lat="43.21376" lon="-0.82777">
        <ele>238.026</ele>
        <time>2016-10-04T21:14:59Z</time>
      </trkpt>
      <trkpt lat="43.21342" lon="-0.82762">
        <ele>239.018</ele>
        <time>2016-10-04T21:15:19Z</time>
      </trkpt>
      <trkpt lat="43.21344" lon="-0.82783">
        <ele>236.061</ele>
        <time>2016-10-04T21:15:39Z</time>
      </trkpt>
      <trkpt lat="43.21389" lon="-0.82837">
        <ele>223.053</ele>
        <time>2016-10-04T21:15:59Z</time>
      </trkpt>
      <trkpt lat="43.21412" lon="-0.82848">
        <ele>226.046</ele>
        <time>2016-10-04T21:16:19Z</time>
      </trkpt>
      <trkpt lat="43.21433" lon="-0.82833">
        <ele>238.088</ele>
        <time>2016-10-04T21:16:39Z</time>
      </trkpt>
      <trkpt lat="43.21437" lon="-0.82882">
        <ele>223.016</ele>
        <time>2016-10-04T21:16:59Z</time>
      </trkpt>
      <trkpt lat="43.21358" lon="-0.8294">
        <ele>203.008</ele>
        <time>2016-10-04T21:17:19Z</time>
      </trkpt>
      <trkpt lat="43.21307" lon="-0.82923">
        <ele>200.02</ele>
        <time>2016-10-04T21:17:39Z</time>
      </trkpt>
      <trkpt lat="43.21296" lon="-0.82936">
        <ele>199.019</ele>
        <time>2016-10-04T21:17:59Z</time>
      </trkpt>
      <trkpt lat="43.21363" lon="-0.82969">
        <ele>201.065</ele>
        <time>2016-10-04T21:18:19Z</time>
      </trkpt>
      <trkpt lat="43.21499" lon="-0.82951">
        <ele>205.051</ele>
        <time>2016-10-04T21:18:39Z</time>
      </trkpt>
      <trkpt lat="43.21579" lon="-0.82989">
        <ele>204.082</ele>
        <time>2016-10-04T21:18:59Z</time>
      </trkpt>
      <trkpt lat="43.21623" lon="-0.83088">
        <ele>189.084</ele>
        <time>2016-10-04T21:19:19Z</time>
      </trkpt>
      <trkpt lat="43.21663" lon="-0.83103">
        <ele>189.087</ele>
        <time>2016-10-04T21:19:39Z</time>
      </trkpt>
      <trkpt lat="43.21692" lon="-0.83092">
        <ele>188.019</ele>
        <time>2016-10-04T21:19:59Z</time>
      </trkpt>
      <trkpt lat="43.21724" lon="-0.83045">
        <ele>192.092</ele>
        <time>2016-10-04T21:20:19Z</time>
      </trkpt>
      <trkpt lat="43.21765" lon="-0.83047">
        <ele>188.073</ele>
        <time>2016-10-04T21:20:39Z</time>
      </trkpt>
      <trkpt lat="43.21956" lon="-0.83234">
        <ele>194.02</ele>
        <time>2016-10-04T21:20:59Z</time>
      </trkpt>
      <trkpt lat="43.22048" lon="-0.83266">
        <ele>197.008</ele>
        <time>2016-10-04T21:21:19Z</time>
      </trkpt>
      <trkpt lat="43.2207" lon="-0.83371">
        <ele>205.055</ele>
        <time>2016-10-04T21:21:39Z</time>
      </trkpt>
      <trkpt lat="43.21954" lon="-0.83408">
        <ele>204.054</ele>
        <time>2016-10-04T21:21:59Z</time>
      </trkpt>
      <trkpt lat="43.21865" lon="-0.83421">
        <ele>204.02</ele>
        <time>2016-10-04T21:22:19Z</time>
      </trkpt>
      <trkpt lat="43.21832" lon="-0.83479">
        <ele>198.066</ele>
        <time>2016-10-04T21:22:39Z</time>
      </trkpt>
      <trkpt lat="43.21829" lon="-0.8365">
        <ele>205.037</ele>
        <time>2016-10-04T21:22:59Z</time>
      </trkpt>
      <trkpt lat="43.21812" lon="-0.83704">
        <ele>203.059</ele>
        <time>2016-10-04T21:23:19Z</time>
      </trkpt>
      <trkpt lat="43.21809" lon="-0.83764">
        <ele>203.052</ele>
        <time>2016-10-04T21:23:39Z</time>
      </trkpt>
      <trkpt lat="43.21757" lon="-0.83764">
        <ele>199.094</ele>
        <time>2016-10-04T21:23:59Z</time>
      </trkpt>
      <trkpt lat="43.21751" lon="-0.8379">
        <ele>200.017</ele>
        <time>2016-10-04T21:24:19Z</time>
      </trkpt>
      <trkpt lat="43.21778" lon="-0.83843">
        <ele>203.087</ele>
        <time>2016-10-04T21:24:39Z</time>
      </trkpt>
      <trkpt lat="43.21746" lon="-0.83884">
        <ele>200.015</ele>
        <time>2016-10-04T21:24:59Z</time>
      </trkpt>
      <trkpt lat="43.21698" lon="-0.84105">
        <ele>216.008</ele>
        <time>2016-10-04T21:25:19Z</time>
      </trkpt>
      <trkpt lat="43.21657" lon="-0.84202">
        <ele>209.037</ele>
        <time>2016-10-04T21:25:39Z</time>
      </trkpt>
      <trkpt lat="43.2166" lon="-0.84275">
        <ele>216.016</ele>
        <time>2016-10-04T21:25:59Z</time>
      </trkpt>
      <trkpt lat="43.21642" lon="-0.84303">
        <ele>219.082</ele>
        <time>2016-10-04T21:26:19Z</time>
      </trkpt>
      <trkpt lat="43.21596" lon="-0.84255">
        <ele>216.018</ele>
        <time>2016-10-04T21:26:39Z</time>
      </trkpt>
      <trkpt lat="43.21435" lon="-0.84281">
        <ele>214.069</ele>
        <time>2016-10-04T21:26:59Z</time>
      </trkpt>
      <trkpt lat="43.21404" lon="-0.84311">
        <ele>210.041</ele>
        <time>2016-10-04T21:27:19Z</time>
      </trkpt>
      <trkpt lat="43.21394" lon="-0.84371">
        <ele>215.034</ele>
        <time>2016-10-04T21:27:39Z</time>
      </trkpt>
      <trkpt lat="43.21355" lon="-0.84485">
        <ele>217.036</ele>
        <time>2016-10-04T21:27:59Z</time>
      </trkpt>
      <trkpt lat="43.21326" lon="-0.845">
        <ele>216.077</ele>
        <time>2016-10-04T21:28:19Z</time>
      </trkpt>
      <trkpt lat="43.21307" lon="-0.84408">
        <ele>213.061</ele>
        <time>2016-10-04T21:28:39Z</time>
      </trkpt>
      <trkpt lat="43.21268" lon="-0.84322">
        <ele>210.027</ele>
        <time>2016-10-04T21:28:59Z</time>
      </trkpt>
      <trkpt lat="43.21141" lon="-0.84425">
        <ele>215.008</ele>
        <time>2016-10-04T21:29:19Z</time>
      </trkpt>
      <trkpt lat="43.2111" lon="-0.84485">
        <ele>216.063</ele>
        <time>2016-10-04T21:29:39Z</time>
      </trkpt>
      <trkpt lat="43.21094" lon="-0.84562">
        <ele>223.082</ele>
        <time>2016-10-04T21:29:59Z</time>
      </trkpt>
      <trkpt lat="43.21043" lon="-0.84635">
        <ele>220.088</ele>
        <time>2016-10-04T21:30:19Z</time>
      </trkpt>
      <trkpt lat="43.21025" lon="-0.84702">
        <ele>222.064</ele>
        <time>2016-10-04T21:30:39Z</time>
      </trkpt>
      <trkpt lat="43.21049" lon="-0.84781">
        <ele>227.055</ele>
        <time>2016-10-04T21:30:59Z</time>
      </trkpt>
      <trkpt lat="43.21199" lon="-0.84925">
        <ele>238.047</ele>
        <time>2016-10-04T21:31:19Z</time>
      </trkpt>
      <trkpt lat="43.21251" lon="-0.84946">
        <ele>245.07</ele>
        <time>2016-10-04T21:31:39Z</time>
      </trkpt>
      <trkpt lat="43.21282" lon="-0.84983">
        <ele>246.082</ele>
        <time>2016-10-04T21:31:59Z</time>
      </trkpt>
      <trkpt lat="43.21302" lon="-0.84972">
        <ele>248.046</ele>
        <time>2016-10-04T21:32:19Z</time>
      </trkpt>
      <trkpt lat="43.21354" lon="-0.85142">
        <ele>258.088</ele>
        <time>2016-10-04T21:32:39Z</time>
      </trkpt>
      <trkpt lat="43.21358" lon="-0.85193">
        <ele>265.016</ele>
        <time>2016-10-04T21:32:59Z</time>
      </trkpt>
      <trkpt lat="43.21374" lon="-0.85257">
        <ele>270.008</ele>
        <time>2016-10-04T21:33:19Z</time>
      </trkpt>
      <trkpt lat="43.21413" lon="-0.8529">
        <ele>273.04</ele>
        <time>2016-10-04T21:33:39Z</time>
      </trkpt>
      <trkpt lat="43.21457" lon="-0.85307">
        <ele>276.039</ele>
        <time>2016-10-04T21:33:59Z</time>
      </trkpt>
      <trkpt lat="43.21543" lon="-0.85418">
        <ele>297.045</ele>
        <time>2016-10-04T21:34:19Z</time>
      </trkpt>
      <trkpt lat="43.21581" lon="-0.85523">
        <ele>298.081</ele>
        <time>2016-10-04T21:34:39Z</time>
      </trkpt>
      <trkpt lat="43.21604" lon="-0.85624">
        <ele>307.052</ele>
        <time>2016-10-04T21:34:59Z</time>
      </trkpt>
      <trkpt lat="43.2167" lon="-0.8574">
        <ele>316.034</ele>
        <time>2016-10-04T21:35:19Z</time>
      </trkpt>
      <trkpt lat="43.21671" lon="-0.85822">
        <ele>313.087</ele>
        <time>2016-10-04T21:35:39Z</time>
      </trkpt>
      <trkpt lat="43.21698" lon="-0.85905">
        <ele>317.019</ele>
        <time>2016-10-04T21:35:59Z</time>
      </trkpt>
      <trkpt lat="43.21693" lon="-0.85991">
        <ele>317.038</ele>
        <time>2016-10-04T21:36:19Z</time>
      </trkpt>
      <trkpt lat="43.21731" lon="-0.86062">
        <ele>318.07</ele>
        <time>2016-10-04T21:36:39Z</time>
      </trkpt>
      <trkpt lat="43.21732" lon="-0.86227">
        <ele>312.017</ele>
        <time>2016-10-04T21:36:59Z</time>
      </trkpt>
      <trkpt lat="43.21706" lon="-0.8629">
        <ele>310.008</ele>
        <time>2016-10-04T21:37:19Z</time>
      </trkpt>
      <trkpt lat="43.21667" lon="-0.86326">
        <ele>318.069</ele>
        <time>2016-10-04T21:37:39Z</time>
      </trkpt>
      <trkpt lat="43.21654" lon="-0.86397">
        <ele>322.088</ele>
        <time>2016-10-04T21:37:59Z</time>
      </trkpt>
      <trkpt lat="43.21673" lon="-0.86478">
        <ele>321.064</ele>
        <time>2016-10-04T21:38:19Z</time>
      </trkpt>
      <trkpt lat="43.21724" lon="-0.865">
        <ele>310.03</ele>
        <time>2016-10-04T21:38:39Z</time>
      </trkpt>
      <trkpt lat="43.21762" lon="-0.86556">
        <ele>299.021</ele>
        <time>2016-10-04T21:38:59Z</time>
      </trkpt>
      <trkpt lat="43.21765" lon="-0.86652">
        <ele>305.043</ele>
        <time>2016-10-04T21:39:19Z</time>
      </trkpt>
      <trkpt lat="43.21767" lon="-0.86796">
        <ele>311.096</ele>
        <time>2016-10-04T21:39:39Z</time>
      </trkpt>
      <trkpt lat="43.21834" lon="-0.86832">
        <ele>296.048</ele>
        <time>2016-10-04T21:39:59Z</time>
      </trkpt>
      <trkpt lat="43.21909" lon="-0.86856">
        <ele>289.017</ele>
        <time>2016-10-04T21:40:19Z</time>
      </trkpt>
      <trkpt lat="43.2194" lon="-0.86897">
        <ele>283.087</ele>
        <time>2016-10-04T21:40:39Z</time>
      </trkpt>
      <trkpt lat="43.22" lon="-0.86929">
        <ele>277.015</ele>
        <time>2016-10-04T21:40:59Z</time>
      </trkpt>
      <trkpt lat="43.22061" lon="-0.87">
        <ele>271.008</ele>
        <time>2016-10-04T21:41:19Z</time>
      </trkpt>
      <trkpt lat="43.2205" lon="-0.87068">
        <ele>261.057</ele>
        <time>2016-10-04T21:41:39Z</time>
      </trkpt>
      <trkpt lat="43.22158" lon="-0.87313">
        <ele>238.076</ele>
        <time>2016-10-04T21:41:59Z</time>
      </trkpt>
      <trkpt lat="43.22189" lon="-0.87354">
        <ele>232.012</ele>
        <time>2016-10-04T21:42:19Z</time>
      </trkpt>
      <trkpt lat="43.22189" lon="-0.87399">
        <ele>232.068</ele>
        <time>2016-10-04T21:42:39Z</time>
      </trkpt>
      <trkpt lat="43.22173" lon="-0.87465">
        <ele>231.049</ele>
        <time>2016-10-04T21:42:59Z</time>
      </trkpt>
      <trkpt lat="43.22219" lon="-0.87521">
        <ele>223.071</ele>
        <time>2016-10-04T21:43:19Z</time>
      </trkpt>
      <trkpt lat="43.22223" lon="-0.87583">
        <ele>213.064</ele>
        <time>2016-10-04T21:43:39Z</time>
      </trkpt>
      <trkpt lat="43.2217" lon="-0.87764">
        <ele>188.096</ele>
        <time>2016-10-04T21:43:59Z</time>
      </trkpt>
      <trkpt lat="43.22131" lon="-0.87882">
        <ele>188.035</ele>
        <time>2016-10-04T21:44:19Z</time>
      </trkpt>
      <trkpt lat="43.22128" lon="-0.8797">
        <ele>180.086</ele>
        <time>2016-10-04T21:44:39Z</time>
      </trkpt>
      <trkpt lat="43.22145" lon="-0.88036">
        <ele>171.014</ele>
        <time>2016-10-04T21:44:59Z</time>
      </trkpt>
      <trkpt lat="43.22143" lon="-0.88077">
        <ele>169.008</ele>
        <time>2016-10-04T21:45:19Z</time>
      </trkpt>
      <trkpt lat="43.22118" lon="-0.88161">
        <ele>158.089</ele>
        <time>2016-10-04T21:45:39Z</time>
      </trkpt>
      <trkpt lat="43.2212" lon="-0.88219">
        <ele>152.018</ele>
        <time>2016-10-04T21:45:59Z</time>
      </trkpt>
      <trkpt lat="43.22101" lon="-0.8827">
        <ele>155.014</ele>
        <time>2016-10-04T21:46:19Z</time>
      </trkpt>
      <trkpt lat="43.22148" lon="-0.88298">
        <ele>155.02</ele>
        <time>2016-10-04T21:46:39Z</time>
      </trkpt>
      <trkpt lat="43.22118" lon="-0.88427">
        <ele>168.041</ele>
        <time>2016-10-04T21:46:59Z</time>
      </trkpt>
      <trkpt lat="43.22093" lon="-0.8851">
        <ele>175.063</ele>
        <time>2016-10-04T21:47:19Z</time>
      </trkpt>
      <trkpt lat="43.22108" lon="-0.88577">
        <ele>170.026</ele>
        <time>2016-10-04T21:47:39Z</time>
      </trkpt>
      <trkpt lat="43.22081" lon="-0.8865">
        <ele>171.068</ele>
        <time>2016-10-04T21:47:59Z</time>
      </trkpt>
      <trkpt lat="43.22043" lon="-0.88714">
        <ele>164.061</ele>
        <time>2016-10-04T21:48:19Z</time>
      </trkpt>
      <trkpt lat="43.21992" lon="-0.88785">
        <ele>160.021</ele>
        <time>2016-10-04T21:48:39Z</time>
      </trkpt>
      <trkpt lat="43.21954" lon="-0.8886">
        <ele>147.013</ele>
        <time>2016-10-04T21:48:59Z</time>
      </trkpt>
      <trkpt lat="43.21992" lon="-0.88985">
        <ele>144.008</ele>
        <time>2016-10-04T21:49:19Z</time>
      </trkpt>
      <trkpt lat="43.22076" lon="-0.89264">
        <ele>144.012</ele>
        <time>2016-10-04T21:49:39Z</time>
      </trkpt>
      <trkpt lat="43.22179" lon="-0.893">
        <ele>146.051</ele>
        <time>2016-10-04T21:49:59Z</time>
      </trkpt>
      <trkpt lat="43.22197" lon="-0.89371">
        <ele>149.077</ele>
        <time>2016-10-04T21:50:19Z</time>
      </trkpt>
      <trkpt lat="43.2212" lon="-0.89422">
        <ele>154.063</ele>
        <time>2016-10-04T21:50:39Z</time>
      </trkpt>
      <trkpt lat="43.2209" lon="-0.89555">
        <ele>158.074</ele>
        <time>2016-10-04T21:50:59Z</time>
      </trkpt>
      <trkpt lat="43.22048" lon="-0.89646">
        <ele>167.066</ele>
        <time>2016-10-04T21:51:19Z</time>
      </trkpt>
      <trkpt lat="43.22047" lon="-0.89716">
        <ele>168.049</ele>
        <time>2016-10-04T21:51:39Z</time>
      </trkpt>
      <trkpt lat="43.21998" lon="-0.89854">
        <ele>177.081</ele>
        <time>2016-10-04T21:51:59Z</time>
      </trkpt>
      <trkpt lat="43.2197" lon="-0.89901">
        <ele>176.049</ele>
        <time>2016-10-04T21:52:19Z</time>
      </trkpt>
      <trkpt lat="43.21954" lon="-0.89997">
        <ele>175.002</ele>
        <time>2016-10-04T21:52:39Z</time>
      </trkpt>
      <trkpt lat="43.21876" lon="-0.90122">
        <ele>184.022</ele>
        <time>2016-10-04T21:52:59Z</time>
      </trkpt>
      <trkpt lat="43.21828" lon="-0.90027">
        <ele>187.008</ele>
        <time>2016-10-04T21:53:19Z</time>
      </trkpt>
      <trkpt lat="43.21743" lon="-0.90055">
        <ele>188.08</ele>
        <time>2016-10-04T21:53:39Z</time>
      </trkpt>
      <trkpt lat="43.21712" lon="-0.90115">
        <ele>188.099</ele>
        <time>2016-10-04T21:53:59Z</time>
      </trkpt>
      <trkpt lat="43.21698" lon="-0.90178">
        <ele>187.095</ele>
        <time>2016-10-04T21:54:19Z</time>
      </trkpt>
      <trkpt lat="43.21637" lon="-0.9027">
        <ele>186.071</ele>
        <time>2016-10-04T21:54:39Z</time>
      </trkpt>
      <trkpt lat="43.21479" lon="-0.90452">
        <ele>178.072</ele>
        <time>2016-10-04T21:54:59Z</time>
      </trkpt>
      <trkpt lat="43.21435" lon="-0.90373">
        <ele>174.054</ele>
        <time>2016-10-04T21:55:19Z</time>
      </trkpt>
      <trkpt lat="43.21462" lon="-0.90538">
        <ele>181.037</ele>
        <time>2016-10-04T21:55:39Z</time>
      </trkpt>
      <trkpt lat="43.21434" lon="-0.90656">
        <ele>186.019</ele>
        <time>2016-10-04T21:55:59Z</time>
      </trkpt>
      <trkpt lat="43.2136" lon="-0.90633">
        <ele>185.042</ele>
        <time>2016-10-04T21:56:19Z</time>
      </trkpt>
      <trkpt lat="43.21333" lon="-0.90667">
        <ele>185.022</ele>
        <time>2016-10-04T21:56:39Z</time>
      </trkpt>
      <trkpt lat="43.21324" lon="-0.90712">
        <ele>186.014</ele>
        <time>2016-10-04T21:56:59Z</time>
      </trkpt>
      <trkpt lat="43.21326" lon="-0.90798">
        <ele>191.008</ele>
        <time>2016-10-04T21:57:19Z</time>
      </trkpt>
      <trkpt lat="43.21294" lon="-0.90804">
        <ele>192.08</ele>
        <time>2016-10-04T21:57:39Z</time>
      </trkpt>
      <trkpt lat="43.21215" lon="-0.90731">
        <ele>186.059</ele>
        <time>2016-10-04T21:57:59Z</time>
      </trkpt>
      <trkpt lat="43.2118" lon="-0.90742">
        <ele>187.035</ele>
        <time>2016-10-04T21:58:19Z</time>
      </trkpt>
      <trkpt lat="43.2116" lon="-0.90768">
        <ele>192.071</ele>
        <time>2016-10-04T21:58:39Z</time>
      </trkpt>
      <trkpt lat="43.21099" lon="-0.90686">
        <ele>184.032</ele>
        <time>2016-10-04T21:58:59Z</time>
      </trkpt>
      <trkpt lat="43.21046" lon="-0.90626">
        <ele>176.084</ele>
        <time>2016-10-04T21:59:19Z</time>
      </trkpt>
      <trkpt lat="43.21022" lon="-0.90585">
        <ele>172.087</ele>
        <time>2016-10-04T21:59:39Z</time>
      </trkpt>
      <trkpt lat="43.20991" lon="-0.90585">
        <ele>167.019</ele>
        <time>2016-10-04T21:59:59Z</time>
      </trkpt>
      <trkpt lat="43.20911" lon="-0.90506">
        <ele>158.013</ele>
        <time>2016-10-04T22:00:19Z</time>
      </trkpt>
      <trkpt lat="43.20863" lon="-0.90572">
        <ele>157.043</ele>
        <time>2016-10-04T22:00:39Z</time>
      </trkpt>
      <trkpt lat="43.20766" lon="-0.90598">
        <ele>160.007</ele>
        <time>2016-10-04T22:00:59Z</time>
      </trkpt>
      <trkpt lat="43.20755" lon="-0.90641">
        <ele>163.008</ele>
        <time>2016-10-04T22:01:19Z</time>
      </trkpt>
      <trkpt lat="43.2072" lon="-0.90686">
        <ele>172.087</ele>
        <time>2016-10-04T22:01:39Z</time>
      </trkpt>
      <trkpt lat="43.20631" lon="-0.90733">
        <ele>171.036</ele>
        <time>2016-10-04T22:01:59Z</time>
      </trkpt>
      <trkpt lat="43.20567" lon="-0.90832">
        <ele>177.092</ele>
        <time>2016-10-04T22:02:19Z</time>
      </trkpt>
      <trkpt lat="43.20608" lon="-0.90989">
        <ele>186.038</ele>
        <time>2016-10-04T22:02:39Z</time>
      </trkpt>
      <trkpt lat="43.20608" lon="-0.91092">
        <ele>195.079</ele>
        <time>2016-10-04T22:02:59Z</time>
      </trkpt>
      <trkpt lat="43.20639" lon="-0.9113">
        <ele>197.081</ele>
        <time>2016-10-04T22:03:19Z</time>
      </trkpt>
      <trkpt lat="43.20678" lon="-0.91169">
        <ele>200.034</ele>
        <time>2016-10-04T22:03:39Z</time>
      </trkpt>
      <trkpt lat="43.20699" lon="-0.91261">
        <ele>202.056</ele>
        <time>2016-10-04T22:03:59Z</time>
      </trkpt>
      <trkpt lat="43.20684" lon="-0.91343">
        <ele>205.077</ele>
        <time>2016-10-04T22:04:19Z</time>
      </trkpt>
      <trkpt lat="43.20706" lon="-0.91463">
        <ele>206.061</ele>
        <time>2016-10-04T22:04:39Z</time>
      </trkpt>
      <trkpt lat="43.20719" lon="-0.91572">
        <ele>216.027</ele>
        <time>2016-10-04T22:04:59Z</time>
      </trkpt>
      <trkpt lat="43.2077" lon="-0.916">
        <ele>226.008</ele>
        <time>2016-10-04T22:05:19Z</time>
      </trkpt>
      <trkpt lat="43.20883" lon="-0.91772">
        <ele>256.063</ele>
        <time>2016-10-04T22:05:39Z</time>
      </trkpt>
      <trkpt lat="43.20905" lon="-0.91864">
        <ele>267.042</ele>
        <time>2016-10-04T22:05:59Z</time>
      </trkpt>
      <trkpt lat="43.20941" lon="-0.91948">
        <ele>275.088</ele>
        <time>2016-10-04T22:06:19Z</time>
      </trkpt>
      <trkpt lat="43.21013" lon="-0.92265">
        <ele>291.094</ele>
        <time>2016-10-04T22:06:39Z</time>
      </trkpt>
      <trkpt lat="43.21011" lon="-0.92379">
        <ele>294.055</ele>
        <time>2016-10-04T22:06:59Z</time>
      </trkpt>
      <trkpt lat="43.21043" lon="-0.92504">
        <ele>294.077</ele>
        <time>2016-10-04T22:07:19Z</time>
      </trkpt>
      <trkpt lat="43.21085" lon="-0.92594">
        <ele>310.04</ele>
        <time>2016-10-04T22:07:39Z</time>
      </trkpt>
      <trkpt lat="43.2118" lon="-0.92733">
        <ele>326.072</ele>
        <time>2016-10-04T22:07:59Z</time>
      </trkpt>
      <trkpt lat="43.21188" lon="-0.9278">
        <ele>327.032</ele>
        <time>2016-10-04T22:08:19Z</time>
      </trkpt>
      <trkpt lat="43.21202" lon="-0.92892">
        <ele>339.092</ele>
        <time>2016-10-04T22:08:39Z</time>
      </trkpt>
      <trkpt lat="43.21185" lon="-0.92935">
        <ele>346.011</ele>
        <time>2016-10-04T22:08:59Z</time>
      </trkpt>
      <trkpt lat="43.21133" lon="-0.92971">
        <ele>331.008</ele>
        <time>2016-10-04T22:09:19Z</time>
      </trkpt>
      <trkpt lat="43.21047" lon="-0.93115">
        <ele>312.049</ele>
        <time>2016-10-04T22:09:39Z</time>
      </trkpt>
      <trkpt lat="43.20997" lon="-0.93122">
        <ele>302.038</ele>
        <time>2016-10-04T22:09:59Z</time>
      </trkpt>
      <trkpt lat="43.2095" lon="-0.93089">
        <ele>301.014</ele>
        <time>2016-10-04T22:10:19Z</time>
      </trkpt>
      <trkpt lat="43.20994" lon="-0.93182">
        <ele>294.01</ele>
        <time>2016-10-04T22:10:39Z</time>
      </trkpt>
      <trkpt lat="43.21032" lon="-0.93231">
        <ele>293.041</ele>
        <time>2016-10-04T22:10:59Z</time>
      </trkpt>
      <trkpt lat="43.211" lon="-0.93278">
        <ele>282.023</ele>
        <time>2016-10-04T22:11:19Z</time>
      </trkpt>
      <trkpt lat="43.21155" lon="-0.93283">
        <ele>282.076</ele>
        <time>2016-10-04T22:11:39Z</time>
      </trkpt>
      <trkpt lat="43.2118" lon="-0.93308">
        <ele>288.058</ele>
        <time>2016-10-04T22:11:59Z</time>
      </trkpt>
      <trkpt lat="43.21155" lon="-0.93334">
        <ele>271.053</ele>
        <time>2016-10-04T22:12:19Z</time>
      </trkpt>
      <trkpt lat="43.21118" lon="-0.93343">
        <ele>266.004</ele>
        <time>2016-10-04T22:12:39Z</time>
      </trkpt>
      <trkpt lat="43.21039" lon="-0.93411">
        <ele>252.014</ele>
        <time>2016-10-04T22:12:59Z</time>
      </trkpt>
      <trkpt lat="43.21061" lon="-0.93474">
        <ele>241.008</ele>
        <time>2016-10-04T22:13:19Z</time>
      </trkpt>
      <trkpt lat="43.21052" lon="-0.93504">
        <ele>235.011</ele>
        <time>2016-10-04T22:13:39Z</time>
      </trkpt>
      <trkpt lat="43.21007" lon="-0.93529">
        <ele>232.04</ele>
        <time>2016-10-04T22:13:59Z</time>
      </trkpt>
      <trkpt lat="43.20982" lon="-0.93604">
        <ele>224.076</ele>
        <time>2016-10-04T22:14:19Z</time>
      </trkpt>
      <trkpt lat="43.20905" lon="-0.93692">
        <ele>214.012</ele>
        <time>2016-10-04T22:14:39Z</time>
      </trkpt>
      <trkpt lat="43.20731" lon="-0.93757">
        <ele>199.073</ele>
        <time>2016-10-04T22:14:59Z</time>
      </trkpt>
      <trkpt lat="43.20672" lon="-0.93896">
        <ele>200.095</ele>
        <time>2016-10-04T22:15:19Z</time>
      </trkpt>
      <trkpt lat="43.20587" lon="-0.93877">
        <ele>201.028</ele>
        <time>2016-10-04T22:15:39Z</time>
      </trkpt>
      <trkpt lat="43.20561" lon="-0.93894">
        <ele>205.09</ele>
        <time>2016-10-04T22:15:59Z</time>
      </trkpt>
      <trkpt lat="43.20531" lon="-0.93894">
        <ele>206.074</ele>
        <time>2016-10-04T22:16:19Z</time>
      </trkpt>
      <trkpt lat="43.20503" lon="-0.93868">
        <ele>205.056</ele>
        <time>2016-10-04T22:16:39Z</time>
      </trkpt>
      <trkpt lat="43.20434" lon="-0.93866">
        <ele>212.021</ele>
        <time>2016-10-04T22:16:59Z</time>
      </trkpt>
      <trkpt lat="43.20376" lon="-0.93847">
        <ele>218.008</ele>
        <time>2016-10-04T22:17:19Z</time>
      </trkpt>
      <trkpt lat="43.20311" lon="-0.93862">
        <ele>221.073</ele>
        <time>2016-10-04T22:17:39Z</time>
      </trkpt>
      <trkpt lat="43.20243" lon="-0.93862">
        <ele>220.022</ele>
        <time>2016-10-04T22:17:59Z</time>
      </trkpt>
      <trkpt lat="43.20203" lon="-0.93901">
        <ele>220.028</ele>
        <time>2016-10-04T22:18:19Z</time>
      </trkpt>
      <trkpt lat="43.20118" lon="-0.93886">
        <ele>215.014</ele>
        <time>2016-10-04T22:18:39Z</time>
      </trkpt>
      <trkpt lat="43.20082" lon="-0.93849">
        <ele>211.075</ele>
        <time>2016-10-04T22:18:59Z</time>
      </trkpt>
      <trkpt lat="43.20037" lon="-0.93907">
        <ele>208.037</ele>
        <time>2016-10-04T22:19:19Z</time>
      </trkpt>
      <trkpt lat="43.19982" lon="-0.94147">
        <ele>189.08</ele>
        <time>2016-10-04T22:19:39Z</time>
      </trkpt>
      <trkpt lat="43.19984" lon="-0.9419">
        <ele>192.052</ele>
        <time>2016-10-04T22:19:59Z</time>
      </trkpt>
      <trkpt lat="43.19962" lon="-0.94237">
        <ele>195.016</ele>
        <time>2016-10-04T22:20:19Z</time>
      </trkpt>
      <trkpt lat="43.19905" lon="-0.9424">
        <ele>201.076</ele>
        <time>2016-10-04T22:20:39Z</time>
      </trkpt>
      <trkpt lat="43.19879" lon="-0.94306">
        <ele>205.013</ele>
        <time>2016-10-04T22:20:59Z</time>
      </trkpt>
      <trkpt lat="43.19771" lon="-0.9427">
        <ele>216.008</ele>
        <time>2016-10-04T22:21:19Z</time>
      </trkpt>
      <trkpt lat="43.19733" lon="-0.94274">
        <ele>220.037</ele>
        <time>2016-10-04T22:21:39Z</time>
      </trkpt>
      <trkpt lat="43.19697" lon="-0.94252">
        <ele>220.046</ele>
        <time>2016-10-04T22:21:59Z</time>
      </trkpt>
      <trkpt lat="43.19621" lon="-0.94225">
        <ele>218.032</ele>
        <time>2016-10-04T22:22:19Z</time>
      </trkpt>
      <trkpt lat="43.1956" lon="-0.94222">
        <ele>214.038</ele>
        <time>2016-10-04T22:22:39Z</time>
      </trkpt>
      <trkpt lat="43.19527" lon="-0.94276">
        <ele>213.079</ele>
        <time>2016-10-04T22:22:59Z</time>
      </trkpt>
      <trkpt lat="43.19447" lon="-0.94289">
        <ele>206.021</ele>
        <time>2016-10-04T22:23:19Z</time>
      </trkpt>
      <trkpt lat="43.19386" lon="-0.94283">
        <ele>199.044</ele>
        <time>2016-10-04T22:23:39Z</time>
      </trkpt>
      <trkpt lat="43.19377" lon="-0.943">
        <ele>198.076</ele>
        <time>2016-10-04T22:23:59Z</time>
      </trkpt>
      <trkpt lat="43.1933" lon="-0.94293">
        <ele>192.039</ele>
        <time>2016-10-04T22:24:19Z</time>
      </trkpt>
      <trkpt lat="43.19344" lon="-0.94362">
        <ele>196.001</ele>
        <time>2016-10-04T22:24:39Z</time>
      </trkpt>
      <trkpt lat="43.19253" lon="-0.94347">
        <ele>194.021</ele>
        <time>2016-10-04T22:24:59Z</time>
      </trkpt>
      <trkpt lat="43.19216" lon="-0.94319">
        <ele>194.008</ele>
        <time>2016-10-04T22:25:19Z</time>
      </trkpt>
      <trkpt lat="43.19145" lon="-0.94325">
        <ele>195.019</ele>
        <time>2016-10-04T22:25:39Z</time>
      </trkpt>
      <trkpt lat="43.19087" lon="-0.9437">
        <ele>196.068</ele>
        <time>2016-10-04T22:25:59Z</time>
      </trkpt>
      <trkpt lat="43.19044" lon="-0.9434">
        <ele>190.064</ele>
        <time>2016-10-04T22:26:19Z</time>
      </trkpt>
      <trkpt lat="43.19014" lon="-0.94272">
        <ele>186.01</ele>
        <time>2016-10-04T22:26:39Z</time>
      </trkpt>
      <trkpt lat="43.18981" lon="-0.9424">
        <ele>180.051</ele>
        <time>2016-10-04T22:26:59Z</time>
      </trkpt>
      <trkpt lat="43.18976" lon="-0.94184">
        <ele>178.043</ele>
        <time>2016-10-04T22:27:19Z</time>
      </trkpt>
      <trkpt lat="43.18931" lon="-0.94201">
        <ele>177.076</ele>
        <time>2016-10-04T22:27:39Z</time>
      </trkpt>
      <trkpt lat="43.1887" lon="-0.94195">
        <ele>177.068</ele>
        <time>2016-10-04T22:27:59Z</time>
      </trkpt>
      <trkpt lat="43.18737" lon="-0.94257">
        <ele>176.075</ele>
        <time>2016-10-04T22:28:19Z</time>
      </trkpt>
      <trkpt lat="43.18632" lon="-0.94446">
        <ele>177.028</ele>
        <time>2016-10-04T22:28:39Z</time>
      </trkpt>
      <trkpt lat="43.18574" lon="-0.94465">
        <ele>182.02</ele>
        <time>2016-10-04T22:28:59Z</time>
      </trkpt>
      <trkpt lat="43.1854" lon="-0.94456">
        <ele>185.008</ele>
        <time>2016-10-04T22:29:19Z</time>
      </trkpt>
      <trkpt lat="43.18526" lon="-0.94525">
        <ele>190.093</ele>
        <time>2016-10-04T22:29:39Z</time>
      </trkpt>
      <trkpt lat="43.18541" lon="-0.94576">
        <ele>189.052</ele>
        <time>2016-10-04T22:29:59Z</time>
      </trkpt>
      <trkpt lat="43.18596" lon="-0.94675">
        <ele>185.088</ele>
        <time>2016-10-04T22:30:19Z</time>
      </trkpt>
      <trkpt lat="43.18607" lon="-0.94798">
        <ele>183.064</ele>
        <time>2016-10-04T22:30:39Z</time>
      </trkpt>
      <trkpt lat="43.18563" lon="-0.94881">
        <ele>181.095</ele>
        <time>2016-10-04T22:30:59Z</time>
      </trkpt>
      <trkpt lat="43.18524" lon="-0.94988">
        <ele>181.027</ele>
        <time>2016-10-04T22:31:19Z</time>
      </trkpt>
      <trkpt lat="43.18471" lon="-0.95016">
        <ele>184.02</ele>
        <time>2016-10-04T22:31:39Z</time>
      </trkpt>
      <trkpt lat="43.18344" lon="-0.95014">
        <ele>187.012</ele>
        <time>2016-10-04T22:31:59Z</time>
      </trkpt>
      <trkpt lat="43.18283" lon="-0.95001">
        <ele>190.021</ele>
        <time>2016-10-04T22:32:19Z</time>
      </trkpt>
      <trkpt lat="43.18131" lon="-0.95068">
        <ele>198.041</ele>
        <time>2016-10-04T22:32:39Z</time>
      </trkpt>
      <trkpt lat="43.18149" lon="-0.95128">
        <ele>202.005</ele>
        <time>2016-10-04T22:32:59Z</time>
      </trkpt>
      <trkpt lat="43.1808" lon="-0.95177">
        <ele>202.008</ele>
        <time>2016-10-04T22:33:19Z</time>
      </trkpt>
      <trkpt lat="43.18083" lon="-0.9525">
        <ele>204.048</ele>
        <time>2016-10-04T22:33:39Z</time>
      </trkpt>
      <trkpt lat="43.18092" lon="-0.95375">
        <ele>207.067</ele>
        <time>2016-10-04T22:33:59Z</time>
      </trkpt>
      <trkpt lat="43.18077" lon="-0.95439">
        <ele>215.013</ele>
        <time>2016-10-04T22:34:19Z</time>
      </trkpt>
      <trkpt lat="43.18039" lon="-0.95506">
        <ele>225.029</ele>
        <time>2016-10-04T22:34:39Z</time>
      </trkpt>
      <trkpt lat="43.18012" lon="-0.95647">
        <ele>240.09</ele>
        <time>2016-10-04T22:34:59Z</time>
      </trkpt>
      <trkpt lat="43.17934" lon="-0.9595">
        <ele>256.042</ele>
        <time>2016-10-04T22:35:19Z</time>
      </trkpt>
      <trkpt lat="43.17977" lon="-0.95965">
        <ele>258.065</ele>
        <time>2016-10-04T22:35:39Z</time>
      </trkpt>
      <trkpt lat="43.181" lon="-0.96072">
        <ele>267.057</ele>
        <time>2016-10-04T22:35:59Z</time>
      </trkpt>
      <trkpt lat="43.18106" lon="-0.96111">
        <ele>278.094</ele>
        <time>2016-10-04T22:36:19Z</time>
      </trkpt>
      <trkpt lat="43.18156" lon="-0.96184">
        <ele>289.057</ele>
        <time>2016-10-04T22:36:39Z</time>
      </trkpt>
      <trkpt lat="43.18202" lon="-0.96214">
        <ele>285.022</ele>
        <time>2016-10-04T22:36:59Z</time>
      </trkpt>
      <trkpt lat="43.18228" lon="-0.96205">
        <ele>283.008</ele>
        <time>2016-10-04T22:37:19Z</time>
      </trkpt>
      <trkpt lat="43.18249" lon="-0.96261">
        <ele>289.065</ele>
        <time>2016-10-04T22:37:39Z</time>
      </trkpt>
      <trkpt lat="43.18227" lon="-0.96364">
        <ele>296.074</ele>
        <time>2016-10-04T22:37:59Z</time>
      </trkpt>
      <trkpt lat="43.18194" lon="-0.96437">
        <ele>299.09</ele>
        <time>2016-10-04T22:38:19Z</time>
      </trkpt>
      <trkpt lat="43.18105" lon="-0.96581">
        <ele>327.026</ele>
        <time>2016-10-04T22:38:39Z</time>
      </trkpt>
      <trkpt lat="43.18106" lon="-0.96694">
        <ele>329.047</ele>
        <time>2016-10-04T22:38:59Z</time>
      </trkpt>
      <trkpt lat="43.18078" lon="-0.96819">
        <ele>345.019</ele>
        <time>2016-10-04T22:39:19Z</time>
      </trkpt>
      <trkpt lat="43.18042" lon="-0.97016">
        <ele>356.052</ele>
        <time>2016-10-04T22:39:39Z</time>
      </trkpt>
      <trkpt lat="43.17984" lon="-0.97093">
        <ele>371.064</ele>
        <time>2016-10-04T22:39:59Z</time>
      </trkpt>
      <trkpt lat="43.17969" lon="-0.97239">
        <ele>370.032</ele>
        <time>2016-10-04T22:40:19Z</time>
      </trkpt>
      <trkpt lat="43.17878" lon="-0.97456">
        <ele>366.092</ele>
        <time>2016-10-04T22:40:39Z</time>
      </trkpt>
      <trkpt lat="43.17876" lon="-0.97585">
        <ele>370.011</ele>
        <time>2016-10-04T22:40:59Z</time>
      </trkpt>
      <trkpt lat="43.17947" lon="-0.97677">
        <ele>377.008</ele>
        <time>2016-10-04T22:41:19Z</time>
      </trkpt>
      <trkpt lat="43.17966" lon="-0.97744">
        <ele>379.049</ele>
        <time>2016-10-04T22:41:39Z</time>
      </trkpt>
      <trkpt lat="43.17947" lon="-0.97847">
        <ele>391.058</ele>
        <time>2016-10-04T22:41:59Z</time>
      </trkpt>
      <trkpt lat="43.17959" lon="-0.97887">
        <ele>392.044</ele>
        <time>2016-10-04T22:42:19Z</time>
      </trkpt>
      <trkpt lat="43.17897" lon="-0.97864">
        <ele>389.06</ele>
        <time>2016-10-04T22:42:39Z</time>
      </trkpt>
      <trkpt lat="43.17937" lon="-0.9792">
        <ele>402.091</ele>
        <time>2016-10-04T22:42:59Z</time>
      </trkpt>
      <trkpt lat="43.17956" lon="-0.97995">
        <ele>407.013</ele>
        <time>2016-10-04T22:43:19Z</time>
      </trkpt>
      <trkpt lat="43.17937" lon="-0.97995">
        <ele>409.086</ele>
        <time>2016-10-04T22:43:39Z</time>
      </trkpt>
      <trkpt lat="43.17905" lon="-0.98057">
        <ele>419.048</ele>
        <time>2016-10-04T22:43:59Z</time>
      </trkpt>
      <trkpt lat="43.17937" lon="-0.98048">
        <ele>423.022</ele>
        <time>2016-10-04T22:44:19Z</time>
      </trkpt>
      <trkpt lat="43.17995" lon="-0.98081">
        <ele>431.062</ele>
        <time>2016-10-04T22:44:39Z</time>
      </trkpt>
      <trkpt lat="43.17959" lon="-0.98093">
        <ele>439.008</ele>
        <time>2016-10-04T22:44:59Z</time>
      </trkpt>
      <trkpt lat="43.17908" lon="-0.98164">
        <ele>452.008</ele>
        <time>2016-10-04T22:45:19Z</time>
      </trkpt>
      <trkpt lat="43.17933" lon="-0.98158">
        <ele>449.068</ele>
        <time>2016-10-04T22:45:39Z</time>
      </trkpt>
      <trkpt lat="43.17975" lon="-0.9819">
        <ele>459.037</ele>
        <time>2016-10-04T22:45:59Z</time>
      </trkpt>
      <trkpt lat="43.17908" lon="-0.98188">
        <ele>466.023</ele>
        <time>2016-10-04T22:46:19Z</time>
      </trkpt>
      <trkpt lat="43.17872" lon="-0.98216">
        <ele>474.079</ele>
        <time>2016-10-04T22:46:39Z</time>
      </trkpt>
      <trkpt lat="43.1782" lon="-0.98229">
        <ele>484.04</ele>
        <time>2016-10-04T22:46:59Z</time>
      </trkpt>
      <trkpt lat="43.17906" lon="-0.98269">
        <ele>493.082</ele>
        <time>2016-10-04T22:47:19Z</time>
      </trkpt>
      <trkpt lat="43.17948" lon="-0.98312">
        <ele>488.075</ele>
        <time>2016-10-04T22:47:39Z</time>
      </trkpt>
      <trkpt lat="43.17967" lon="-0.98469">
        <ele>519.017</ele>
        <time>2016-10-04T22:47:59Z</time>
      </trkpt>
      <trkpt lat="43.18034" lon="-0.98531">
        <ele>517.044</ele>
        <time>2016-10-04T22:48:19Z</time>
      </trkpt>
      <trkpt lat="43.18135" lon="-0.98578">
        <ele>500.005</ele>
        <time>2016-10-04T22:48:39Z</time>
      </trkpt>
      <trkpt lat="43.18158" lon="-0.98615">
        <ele>508.015</ele>
        <time>2016-10-04T22:48:59Z</time>
      </trkpt>
      <trkpt lat="43.18147" lon="-0.98677">
        <ele>511.008</ele>
        <time>2016-10-04T22:49:19Z</time>
      </trkpt>
      <trkpt lat="43.1811" lon="-0.98784">
        <ele>512.04</ele>
        <time>2016-10-04T22:49:39Z</time>
      </trkpt>
      <trkpt lat="43.18025" lon="-0.989">
        <ele>530.079</ele>
        <time>2016-10-04T22:49:59Z</time>
      </trkpt>
      <trkpt lat="43.17978" lon="-0.99018">
        <ele>531.075</ele>
        <time>2016-10-04T22:50:19Z</time>
      </trkpt>
      <trkpt lat="43.17978" lon="-0.99194">
        <ele>512.011</ele>
        <time>2016-10-04T22:50:39Z</time>
      </trkpt>
      <trkpt lat="43.17967" lon="-0.99312">
        <ele>498.072</ele>
        <time>2016-10-04T22:50:59Z</time>
      </trkpt>
      <trkpt lat="43.17948" lon="-0.99342">
        <ele>489.044</ele>
        <time>2016-10-04T22:51:19Z</time>
      </trkpt>
      <trkpt lat="43.17903" lon="-0.99372">
        <ele>517.067</ele>
        <time>2016-10-04T22:51:39Z</time>
      </trkpt>
      <trkpt lat="43.17878" lon="-0.99465">
        <ele>498.069</ele>
        <time>2016-10-04T22:51:59Z</time>
      </trkpt>
      <trkpt lat="43.17844" lon="-0.99492">
        <ele>507.041</ele>
        <time>2016-10-04T22:52:19Z</time>
      </trkpt>
      <trkpt lat="43.17814" lon="-0.9954">
        <ele>529.081</ele>
        <time>2016-10-04T22:52:39Z</time>
      </trkpt>
      <trkpt lat="43.17808" lon="-0.99621">
        <ele>523.009</ele>
        <time>2016-10-04T22:52:59Z</time>
      </trkpt>
      <trkpt lat="43.17815" lon="-0.99675">
        <ele>508.008</ele>
        <time>2016-10-04T22:53:19Z</time>
      </trkpt>
      <trkpt lat="43.17801" lon="-0.99741">
        <ele>508.06</ele>
        <time>2016-10-04T22:53:39Z</time>
      </trkpt>
      <trkpt lat="43.17731" lon="-0.99778">
        <ele>541.059</ele>
        <time>2016-10-04T22:53:59Z</time>
      </trkpt>
      <trkpt lat="43.17734" lon="-0.99915">
        <ele>535.085</ele>
        <time>2016-10-04T22:54:19Z</time>
      </trkpt>
      <trkpt lat="43.17726" lon="-1.001">
        <ele>541.081</ele>
        <time>2016-10-04T22:54:39Z</time>
      </trkpt>
      <trkpt lat="43.17706" lon="-1.0013">
        <ele>543.012</ele>
        <time>2016-10-04T22:54:59Z</time>
      </trkpt>
      <trkpt lat="43.17709" lon="-1.00203">
        <ele>547.014</ele>
        <time>2016-10-04T22:55:19Z</time>
      </trkpt>
      <trkpt lat="43.17731" lon="-1.00273">
        <ele>552.077</ele>
        <time>2016-10-04T22:55:39Z</time>
      </trkpt>
      <trkpt lat="43.17825" lon="-1.00368">
        <ele>560.069</ele>
        <time>2016-10-04T22:55:59Z</time>
      </trkpt>
      <trkpt lat="43.17822" lon="-1.00432">
        <ele>564.025</ele>
        <time>2016-10-04T22:56:19Z</time>
      </trkpt>
      <trkpt lat="43.17778" lon="-1.00563">
        <ele>560.026</ele>
        <time>2016-10-04T22:56:39Z</time>
      </trkpt>
      <trkpt lat="43.17725" lon="-1.00557">
        <ele>554.008</ele>
        <time>2016-10-04T22:56:59Z</time>
      </trkpt>
      <trkpt lat="43.17654" lon="-1.00557">
        <ele>545.008</ele>
        <time>2016-10-04T22:57:19Z</time>
      </trkpt>
      <trkpt lat="43.17643" lon="-1.00621">
        <ele>537.088</ele>
        <time>2016-10-04T22:57:39Z</time>
      </trkpt>
      <trkpt lat="43.17653" lon="-1.00709">
        <ele>528.037</ele>
        <time>2016-10-04T22:57:59Z</time>
      </trkpt>
      <trkpt lat="43.17593" lon="-1.00883">
        <ele>520.073</ele>
        <time>2016-10-04T22:58:19Z</time>
      </trkpt>
      <trkpt lat="43.1751" lon="-1.00932">
        <ele>501.089</ele>
        <time>2016-10-04T22:58:39Z</time>
      </trkpt>
      <trkpt lat="43.17491" lon="-1.01016">
        <ele>481.05</ele>
        <time>2016-10-04T22:58:59Z</time>
      </trkpt>
      <trkpt lat="43.17448" lon="-1.00924">
        <ele>474.082</ele>
        <time>2016-10-04T22:59:19Z</time>
      </trkpt>
      <trkpt lat="43.17434" lon="-1.01012">
        <ele>463.045</ele>
        <time>2016-10-04T22:59:39Z</time>
      </trkpt>
      <trkpt lat="43.17434" lon="-1.01078">
        <ele>455.037</ele>
        <time>2016-10-04T22:59:59Z</time>
      </trkpt>
      <trkpt lat="43.17437" lon="-1.01138">
        <ele>443.041</ele>
        <time>2016-10-04T23:00:19Z</time>
      </trkpt>
      <trkpt lat="43.17379" lon="-1.01087">
        <ele>410.081</ele>
        <time>2016-10-04T23:00:39Z</time>
      </trkpt>
      <trkpt lat="43.17379" lon="-1.01145">
        <ele>403.009</ele>
        <time>2016-10-04T23:00:59Z</time>
      </trkpt>
      <trkpt lat="43.17393" lon="-1.01252">
        <ele>378.008</ele>
        <time>2016-10-04T23:01:19Z</time>
      </trkpt>
      <trkpt lat="43.1739" lon="-1.01295">
        <ele>373.05</ele>
        <time>2016-10-04T23:01:39Z</time>
      </trkpt>
      <trkpt lat="43.17346" lon="-1.01278">
        <ele>363.059</ele>
        <time>2016-10-04T23:01:59Z</time>
      </trkpt>
      <trkpt lat="43.17322" lon="-1.0134">
        <ele>332.085</ele>
        <time>2016-10-04T23:02:19Z</time>
      </trkpt>
      <trkpt lat="43.17272" lon="-1.01379">
        <ele>313.031</ele>
        <time>2016-10-04T23:02:39Z</time>
      </trkpt>
      <trkpt lat="43.17265" lon="-1.01432">
        <ele>304.042</ele>
        <time>2016-10-04T23:02:59Z</time>
      </trkpt>
      <trkpt lat="43.17232" lon="-1.014">
        <ele>296.024</ele>
        <time>2016-10-04T23:03:19Z</time>
      </trkpt>
      <trkpt lat="43.17203" lon="-1.01406">
        <ele>296.047</ele>
        <time>2016-10-04T23:03:39Z</time>
      </trkpt>
      <trkpt lat="43.172" lon="-1.01488">
        <ele>298.059</ele>
        <time>2016-10-04T23:03:59Z</time>
      </trkpt>
      <trkpt lat="43.17213" lon="-1.01582">
        <ele>293.041</ele>
        <time>2016-10-04T23:04:19Z</time>
      </trkpt>
      <trkpt lat="43.17235" lon="-1.01627">
        <ele>290.081</ele>
        <time>2016-10-04T23:04:39Z</time>
      </trkpt>
      <trkpt lat="43.17261" lon="-1.01836">
        <ele>285.009</ele>
        <time>2016-10-04T23:04:59Z</time>
      </trkpt>
      <trkpt lat="43.17349" lon="-1.01956">
        <ele>272.008</ele>
        <time>2016-10-04T23:05:19Z</time>
      </trkpt>
      <trkpt lat="43.17383" lon="-1.02033">
        <ele>264.06</ele>
        <time>2016-10-04T23:05:39Z</time>
      </trkpt>
      <trkpt lat="43.17376" lon="-1.02063">
        <ele>263.029</ele>
        <time>2016-10-04T23:05:59Z</time>
      </trkpt>
      <trkpt lat="43.17362" lon="-1.02127">
        <ele>262.015</ele>
        <time>2016-10-04T23:06:19Z</time>
      </trkpt>
      <trkpt lat="43.17419" lon="-1.0223">
        <ele>262.061</ele>
        <time>2016-10-04T23:06:39Z</time>
      </trkpt>
      <trkpt lat="43.17438" lon="-1.02604">
        <ele>248.042</ele>
        <time>2016-10-04T23:06:59Z</time>
      </trkpt>
      <trkpt lat="43.17465" lon="-1.02698">
        <ele>244.094</ele>
        <time>2016-10-04T23:07:19Z</time>
      </trkpt>
      <trkpt lat="43.1749" lon="-1.02771">
        <ele>242.057</ele>
        <time>2016-10-04T23:07:39Z</time>
      </trkpt>
      <trkpt lat="43.17488" lon="-1.02823">
        <ele>238.039</ele>
        <time>2016-10-04T23:07:59Z</time>
      </trkpt>
      <trkpt lat="43.17507" lon="-1.02868">
        <ele>235.077</ele>
        <time>2016-10-04T23:08:19Z</time>
      </trkpt>
      <trkpt lat="43.17527" lon="-1.02956">
        <ele>233.061</ele>
        <time>2016-10-04T23:08:39Z</time>
      </trkpt>
      <trkpt lat="43.1761" lon="-1.03057">
        <ele>232.027</ele>
        <time>2016-10-04T23:08:59Z</time>
      </trkpt>
      <trkpt lat="43.17621" lon="-1.03108">
        <ele>229.008</ele>
        <time>2016-10-04T23:09:19Z</time>
      </trkpt>
      <trkpt lat="43.17654" lon="-1.03157">
        <ele>228.073</ele>
        <time>2016-10-04T23:09:39Z</time>
      </trkpt>
      <trkpt lat="43.17762" lon="-1.03451">
        <ele>216.092</ele>
        <time>2016-10-04T23:09:59Z</time>
      </trkpt>
      <trkpt lat="43.17814" lon="-1.03531">
        <ele>214.078</ele>
        <time>2016-10-04T23:10:19Z</time>
      </trkpt>
      <trkpt lat="43.17845" lon="-1.03617">
        <ele>213.014</ele>
        <time>2016-10-04T23:10:39Z</time>
      </trkpt>
      <trkpt lat="43.17869" lon="-1.03737">
        <ele>211.025</ele>
        <time>2016-10-04T23:10:59Z</time>
      </trkpt>
      <trkpt lat="43.17878" lon="-1.03797">
        <ele>209.027</ele>
        <time>2016-10-04T23:11:19Z</time>
      </trkpt>
      <trkpt lat="43.17941" lon="-1.03885">
        <ele>207.07</ele>
        <time>2016-10-04T23:11:39Z</time>
      </trkpt>
      <trkpt lat="43.17905" lon="-1.03904">
        <ele>206.052</ele>
        <time>2016-10-04T23:11:59Z</time>
      </trkpt>
      <trkpt lat="43.17898" lon="-1.03951">
        <ele>206.012</ele>
        <time>2016-10-04T23:12:19Z</time>
      </trkpt>
      <trkpt lat="43.17865" lon="-1.03964">
        <ele>206.032</ele>
        <time>2016-10-04T23:12:39Z</time>
      </trkpt>
      <trkpt lat="43.17942" lon="-1.04069">
        <ele>204.005</ele>
        <time>2016-10-04T23:12:59Z</time>
      </trkpt>
      <trkpt lat="43.18044" lon="-1.04179">
        <ele>202.008</ele>
        <time>2016-10-04T23:13:19Z</time>
      </trkpt>
      <trkpt lat="43.18183" lon="-1.04327">
        <ele>196.047</ele>
        <time>2016-10-04T23:13:39Z</time>
      </trkpt>
      <trkpt lat="43.18211" lon="-1.04348">
        <ele>197.066</ele>
        <time>2016-10-04T23:13:59Z</time>
      </trkpt>
      <trkpt lat="43.18208" lon="-1.04374">
        <ele>198.032</ele>
        <time>2016-10-04T23:14:19Z</time>
      </trkpt>
      <trkpt lat="43.18257" lon="-1.04456">
        <ele>199.098</ele>
        <time>2016-10-04T23:14:39Z</time>
      </trkpt>
      <trkpt lat="43.18291" lon="-1.04473">
        <ele>198.019</ele>
        <time>2016-10-04T23:14:59Z</time>
      </trkpt>
      <trkpt lat="43.18354" lon="-1.047">
        <ele>193.051</ele>
        <time>2016-10-04T23:15:19Z</time>
      </trkpt>
      <trkpt lat="43.18371" lon="-1.04831">
        <ele>192.044</ele>
        <time>2016-10-04T23:15:39Z</time>
      </trkpt>
      <trkpt lat="43.18516" lon="-1.05157">
        <ele>187.026</ele>
        <time>2016-10-04T23:15:59Z</time>
      </trkpt>
      <trkpt lat="43.18577" lon="-1.05213">
        <ele>186.039</ele>
        <time>2016-10-04T23:16:19Z</time>
      </trkpt>
      <trkpt lat="43.18629" lon="-1.05243">
        <ele>183.001</ele>
        <time>2016-10-04T23:16:39Z</time>
      </trkpt>
      <trkpt lat="43.18671" lon="-1.05314">
        <ele>180.021</ele>
        <time>2016-10-04T23:16:59Z</time>
      </trkpt>
      <trkpt lat="43.18709" lon="-1.0541">
        <ele>181.008</ele>
        <time>2016-10-04T23:17:19Z</time>
      </trkpt>
      <trkpt lat="43.18765" lon="-1.05475">
        <ele>179.029</ele>
        <time>2016-10-04T23:17:39Z</time>
      </trkpt>
      <trkpt lat="43.18821" lon="-1.05505">
        <ele>180.058</ele>
        <time>2016-10-04T23:17:59Z</time>
      </trkpt>
      <trkpt lat="43.18912" lon="-1.05599">
        <ele>181.044</ele>
        <time>2016-10-04T23:18:19Z</time>
      </trkpt>
      <trkpt lat="43.1905" lon="-1.05653">
        <ele>177.05</ele>
        <time>2016-10-04T23:18:39Z</time>
      </trkpt>
      <trkpt lat="43.19128" lon="-1.05722">
        <ele>175.091</ele>
        <time>2016-10-04T23:18:59Z</time>
      </trkpt>
      <trkpt lat="43.19139" lon="-1.05777">
        <ele>177.013</ele>
        <time>2016-10-04T23:19:19Z</time>
      </trkpt>
      <trkpt lat="43.19266" lon="-1.05805">
        <ele>170.016</ele>
        <time>2016-10-04T23:19:39Z</time>
      </trkpt>
      <trkpt lat="43.19261" lon="-1.05822">
        <ele>170.078</ele>
        <time>2016-10-04T23:19:59Z</time>
      </trkpt>
      <trkpt lat="43.19294" lon="-1.05889">
        <ele>171.099</ele>
        <time>2016-10-04T23:20:19Z</time>
      </trkpt>
      <trkpt lat="43.19352" lon="-1.06063">
        <ele>174.007</ele>
        <time>2016-10-04T23:20:39Z</time>
      </trkpt>
      <trkpt lat="43.19482" lon="-1.06127">
        <ele>174.027</ele>
        <time>2016-10-04T23:20:59Z</time>
      </trkpt>
      <trkpt lat="43.19561" lon="-1.06207">
        <ele>172.008</ele>
        <time>2016-10-04T23:21:19Z</time>
      </trkpt>
      <trkpt lat="43.19627" lon="-1.06256">
        <ele>169.045</ele>
        <time>2016-10-04T23:21:39Z</time>
      </trkpt>
      <trkpt lat="43.19633" lon="-1.06286">
        <ele>169.084</ele>
        <time>2016-10-04T23:21:59Z</time>
      </trkpt>
      <trkpt lat="43.19694" lon="-1.06359">
        <ele>173.06</ele>
        <time>2016-10-04T23:22:19Z</time>
      </trkpt>
      <trkpt lat="43.19832" lon="-1.06434">
        <ele>174.076</ele>
        <time>2016-10-04T23:22:39Z</time>
      </trkpt>
      <trkpt lat="43.19888" lon="-1.06599">
        <ele>180.037</ele>
        <time>2016-10-04T23:22:59Z</time>
      </trkpt>
      <trkpt lat="43.19952" lon="-1.06743">
        <ele>179.099</ele>
        <time>2016-10-04T23:23:19Z</time>
      </trkpt>
      <trkpt lat="43.20037" lon="-1.06747">
        <ele>175.082</ele>
        <time>2016-10-04T23:23:39Z</time>
      </trkpt>
      <trkpt lat="43.20089" lon="-1.06764">
        <ele>174.044</ele>
        <time>2016-10-04T23:23:59Z</time>
      </trkpt>
      <trkpt lat="43.20156" lon="-1.06747">
        <ele>174.022</ele>
        <time>2016-10-04T23:24:19Z</time>
      </trkpt>
      <trkpt lat="43.20167" lon="-1.06842">
        <ele>175.062</ele>
        <time>2016-10-04T23:24:39Z</time>
      </trkpt>
      <trkpt lat="43.20137" lon="-1.06983">
        <ele>170.008</ele>
        <time>2016-10-04T23:24:59Z</time>
      </trkpt>
      <trkpt lat="43.2012" lon="-1.07046">
        <ele>166.008</ele>
        <time>2016-10-04T23:25:19Z</time>
      </trkpt>
      <trkpt lat="43.20057" lon="-1.07084">
        <ele>162.058</ele>
        <time>2016-10-04T23:25:39Z</time>
      </trkpt>
      <trkpt lat="43.20046" lon="-1.07164">
        <ele>161.087</ele>
        <time>2016-10-04T23:25:59Z</time>
      </trkpt>
      <trkpt lat="43.20101" lon="-1.07288">
        <ele>161.013</ele>
        <time>2016-10-04T23:26:19Z</time>
      </trkpt>
      <trkpt lat="43.20126" lon="-1.07391">
        <ele>168.039</ele>
        <time>2016-10-04T23:26:39Z</time>
      </trkpt>
      <trkpt lat="43.20162" lon="-1.07494">
        <ele>174.05</ele>
        <time>2016-10-04T23:26:59Z</time>
      </trkpt>
      <trkpt lat="43.20192" lon="-1.07552">
        <ele>171.032</ele>
        <time>2016-10-04T23:27:19Z</time>
      </trkpt>
      <trkpt lat="43.2016" lon="-1.07784">
        <ele>195.085</ele>
        <time>2016-10-04T23:27:39Z</time>
      </trkpt>
      <trkpt lat="43.20173" lon="-1.0788">
        <ele>176.047</ele>
        <time>2016-10-04T23:27:59Z</time>
      </trkpt>
      <trkpt lat="43.20128" lon="-1.08076">
        <ele>186.033</ele>
        <time>2016-10-04T23:28:19Z</time>
      </trkpt>
      <trkpt lat="43.20076" lon="-1.08209">
        <ele>186.023</ele>
        <time>2016-10-04T23:28:39Z</time>
      </trkpt>
      <trkpt lat="43.20089" lon="-1.08277">
        <ele>174.015</ele>
        <time>2016-10-04T23:28:59Z</time>
      </trkpt>
      <trkpt lat="43.20124" lon="-1.08324">
        <ele>172.008</ele>
        <time>2016-10-04T23:29:19Z</time>
      </trkpt>
      <trkpt lat="43.20109" lon="-1.08462">
        <ele>173.079</ele>
        <time>2016-10-04T23:29:39Z</time>
      </trkpt>
      <trkpt lat="43.20107" lon="-1.08563">
        <ele>171.048</ele>
        <time>2016-10-04T23:29:59Z</time>
      </trkpt>
      <trkpt lat="43.2009" lon="-1.08642">
        <ele>170.064</ele>
        <time>2016-10-04T23:30:19Z</time>
      </trkpt>
      <trkpt lat="43.20084" lon="-1.08859">
        <ele>167.05</ele>
        <time>2016-10-04T23:30:39Z</time>
      </trkpt>
      <trkpt lat="43.20034" lon="-1.0893">
        <ele>168.081</ele>
        <time>2016-10-04T23:30:59Z</time>
      </trkpt>
      <trkpt lat="43.19968" lon="-1.09052">
        <ele>169.013</ele>
        <time>2016-10-04T23:31:19Z</time>
      </trkpt>
      <trkpt lat="43.19949" lon="-1.09108">
        <ele>168.086</ele>
        <time>2016-10-04T23:31:39Z</time>
      </trkpt>
      <trkpt lat="43.19943" lon="-1.09241">
        <ele>171.068</ele>
        <time>2016-10-04T23:31:59Z</time>
      </trkpt>
      <trkpt lat="43.19898" lon="-1.0932">
        <ele>173.042</ele>
        <time>2016-10-04T23:32:19Z</time>
      </trkpt>
      <trkpt lat="43.19896" lon="-1.09445">
        <ele>175.022</ele>
        <time>2016-10-04T23:32:39Z</time>
      </trkpt>
      <trkpt lat="43.19963" lon="-1.09436">
        <ele>174.014</ele>
        <time>2016-10-04T23:32:59Z</time>
      </trkpt>
      <trkpt lat="43.20012" lon="-1.09369">
        <ele>177.008</ele>
        <time>2016-10-04T23:33:19Z</time>
      </trkpt>
      <trkpt lat="43.20051" lon="-1.09417">
        <ele>179.06</ele>
        <time>2016-10-04T23:33:39Z</time>
      </trkpt>
      <trkpt lat="43.20043" lon="-1.09472">
        <ele>177.099</ele>
        <time>2016-10-04T23:33:59Z</time>
      </trkpt>
      <trkpt lat="43.20079" lon="-1.09593">
        <ele>177.025</ele>
        <time>2016-10-04T23:34:19Z</time>
      </trkpt>
      <trkpt lat="43.2011" lon="-1.09661">
        <ele>178.061</ele>
        <time>2016-10-04T23:34:39Z</time>
      </trkpt>
      <trkpt lat="43.2015" lon="-1.09702">
        <ele>180.062</ele>
        <time>2016-10-04T23:34:59Z</time>
      </trkpt>
      <trkpt lat="43.20218" lon="-1.09753">
        <ele>182.014</ele>
        <time>2016-10-04T23:35:19Z</time>
      </trkpt>
      <trkpt lat="43.20234" lon="-1.09919">
        <ele>195.087</ele>
        <time>2016-10-04T23:35:39Z</time>
      </trkpt>
      <trkpt lat="43.20312" lon="-1.09887">
        <ele>190.099</ele>
        <time>2016-10-04T23:35:59Z</time>
      </trkpt>
      <trkpt lat="43.20403" lon="-1.09867">
        <ele>208.039</ele>
        <time>2016-10-04T23:36:19Z</time>
      </trkpt>
      <trkpt lat="43.20472" lon="-1.09715">
        <ele>249.001</ele>
        <time>2016-10-04T23:36:39Z</time>
      </trkpt>
      <trkpt lat="43.20536" lon="-1.09612">
        <ele>280.021</ele>
        <time>2016-10-04T23:36:59Z</time>
      </trkpt>
      <trkpt lat="43.20503" lon="-1.0947">
        <ele>289.008</ele>
        <time>2016-10-04T23:37:19Z</time>
      </trkpt>
      <trkpt lat="43.20567" lon="-1.09569">
        <ele>289.089</ele>
        <time>2016-10-04T23:37:39Z</time>
      </trkpt>
      <trkpt lat="43.20595" lon="-1.09693">
        <ele>308.098</ele>
        <time>2016-10-04T23:37:59Z</time>
      </trkpt>
      <trkpt lat="43.20661" lon="-1.09816">
        <ele>325.024</ele>
        <time>2016-10-04T23:38:19Z</time>
      </trkpt>
      <trkpt lat="43.20741" lon="-1.09887">
        <ele>339.04</ele>
        <time>2016-10-04T23:38:39Z</time>
      </trkpt>
      <trkpt lat="43.20802" lon="-1.10045">
        <ele>360.071</ele>
        <time>2016-10-04T23:38:59Z</time>
      </trkpt>
      <trkpt lat="43.20907" lon="-1.10228">
        <ele>390.033</ele>
        <time>2016-10-04T23:39:19Z</time>
      </trkpt>
      <trkpt lat="43.20946" lon="-1.10329">
        <ele>409.026</ele>
        <time>2016-10-04T23:39:39Z</time>
      </trkpt>
      <trkpt lat="43.20955" lon="-1.10425">
        <ele>433.058</ele>
        <time>2016-10-04T23:39:59Z</time>
      </trkpt>
      <trkpt lat="43.20974" lon="-1.10474">
        <ele>438.046</ele>
        <time>2016-10-04T23:40:19Z</time>
      </trkpt>
      <trkpt lat="43.21091" lon="-1.10661">
        <ele>486.088</ele>
        <time>2016-10-04T23:40:39Z</time>
      </trkpt>
      <trkpt lat="43.21135" lon="-1.10775">
        <ele>504.016</ele>
        <time>2016-10-04T23:40:59Z</time>
      </trkpt>
      <trkpt lat="43.21161" lon="-1.10798">
        <ele>505.008</ele>
        <time>2016-10-04T23:41:19Z</time>
      </trkpt>
      <trkpt lat="43.20989" lon="-1.11185">
        <ele>497.09</ele>
        <time>2016-10-04T23:41:39Z</time>
      </trkpt>
      <trkpt lat="43.20891" lon="-1.11367">
        <ele>505.089</ele>
        <time>2016-10-04T23:41:59Z</time>
      </trkpt>
      <trkpt lat="43.20797" lon="-1.11442">
        <ele>513.045</ele>
        <time>2016-10-04T23:42:19Z</time>
      </trkpt>
      <trkpt lat="43.20745" lon="-1.11468">
        <ele>523.071</ele>
        <time>2016-10-04T23:42:39Z</time>
      </trkpt>
      <trkpt lat="43.20684" lon="-1.11513">
        <ele>531.012</ele>
        <time>2016-10-04T23:42:59Z</time>
      </trkpt>
      <trkpt lat="43.20505" lon="-1.11588">
        <ele>566.064</ele>
        <time>2016-10-04T23:43:19Z</time>
      </trkpt>
      <trkpt lat="43.20193" lon="-1.11412">
        <ele>551.087</ele>
        <time>2016-10-04T23:43:39Z</time>
      </trkpt>
      <trkpt lat="43.2011" lon="-1.11401">
        <ele>549.019</ele>
        <time>2016-10-04T23:43:59Z</time>
      </trkpt>
      <trkpt lat="43.20037" lon="-1.11361">
        <ele>552.028</ele>
        <time>2016-10-04T23:44:19Z</time>
      </trkpt>
      <trkpt lat="43.20017" lon="-1.11283">
        <ele>546.089</ele>
        <time>2016-10-04T23:44:39Z</time>
      </trkpt>
      <trkpt lat="43.20006" lon="-1.11187">
        <ele>541.017</ele>
        <time>2016-10-04T23:44:59Z</time>
      </trkpt>
      <trkpt lat="43.1994" lon="-1.11105">
        <ele>544.008</ele>
        <time>2016-10-04T23:45:19Z</time>
      </trkpt>
      <trkpt lat="43.19868" lon="-1.11065">
        <ele>541.068</ele>
        <time>2016-10-04T23:45:39Z</time>
      </trkpt>
      <trkpt lat="43.19746" lon="-1.11047">
        <ele>540.067</ele>
        <time>2016-10-04T23:45:59Z</time>
      </trkpt>
      <trkpt lat="43.19649" lon="-1.11086">
        <ele>540.053</ele>
        <time>2016-10-04T23:46:19Z</time>
      </trkpt>
      <trkpt lat="43.19557" lon="-1.11198">
        <ele>535.039</ele>
        <time>2016-10-04T23:46:39Z</time>
      </trkpt>
      <trkpt lat="43.194" lon="-1.1144">
        <ele>512.06</ele>
        <time>2016-10-04T23:46:59Z</time>
      </trkpt>
      <trkpt lat="43.19294" lon="-1.11567">
        <ele>496.032</ele>
        <time>2016-10-04T23:47:19Z</time>
      </trkpt>
      <trkpt lat="43.19263" lon="-1.11653">
        <ele>496.025</ele>
        <time>2016-10-04T23:47:39Z</time>
      </trkpt>
      <trkpt lat="43.19234" lon="-1.11831">
        <ele>488.037</ele>
        <time>2016-10-04T23:47:59Z</time>
      </trkpt>
      <trkpt lat="43.19258" lon="-1.11944">
        <ele>461.033</ele>
        <time>2016-10-04T23:48:19Z</time>
      </trkpt>
      <trkpt lat="43.19269" lon="-1.12198">
        <ele>455.023</ele>
        <time>2016-10-04T23:48:39Z</time>
      </trkpt>
      <trkpt lat="43.19191" lon="-1.12206">
        <ele>455.015</ele>
        <time>2016-10-04T23:48:59Z</time>
      </trkpt>
      <trkpt lat="43.1912" lon="-1.12275">
        <ele>450.008</ele>
        <time>2016-10-04T23:49:19Z</time>
      </trkpt>
      <trkpt lat="43.19106" lon="-1.12316">
        <ele>450.089</ele>
        <time>2016-10-04T23:49:39Z</time>
      </trkpt>
      <trkpt lat="43.19105" lon="-1.12444">
        <ele>471.038</ele>
        <time>2016-10-04T23:49:59Z</time>
      </trkpt>
      <trkpt lat="43.19036" lon="-1.12472">
        <ele>474.014</ele>
        <time>2016-10-04T23:50:19Z</time>
      </trkpt>
      <trkpt lat="43.18934" lon="-1.12457">
        <ele>480.01</ele>
        <time>2016-10-04T23:50:39Z</time>
      </trkpt>
      <trkpt lat="43.18854" lon="-1.12427">
        <ele>487.081</ele>
        <time>2016-10-04T23:50:59Z</time>
      </trkpt>
      <trkpt lat="43.18798" lon="-1.1241">
        <ele>476.083</ele>
        <time>2016-10-04T23:51:19Z</time>
      </trkpt>
      <trkpt lat="43.18718" lon="-1.12414">
        <ele>475.026</ele>
        <time>2016-10-04T23:51:39Z</time>
      </trkpt>
      <trkpt lat="43.18499" lon="-1.12502">
        <ele>498.038</ele>
        <time>2016-10-04T23:51:59Z</time>
      </trkpt>
      <trkpt lat="43.1844" lon="-1.12545">
        <ele>501.072</ele>
        <time>2016-10-04T23:52:19Z</time>
      </trkpt>
      <trkpt lat="43.1841" lon="-1.12582">
        <ele>499.013</ele>
        <time>2016-10-04T23:52:39Z</time>
      </trkpt>
      <trkpt lat="43.18374" lon="-1.12695">
        <ele>502.014</ele>
        <time>2016-10-04T23:52:59Z</time>
      </trkpt>
      <trkpt lat="43.1835" lon="-1.12869">
        <ele>510.008</ele>
        <time>2016-10-04T23:53:19Z</time>
      </trkpt>
      <trkpt lat="43.18269" lon="-1.13054">
        <ele>511.063</ele>
        <time>2016-10-04T23:53:39Z</time>
      </trkpt>
      <trkpt lat="43.18238" lon="-1.13092">
        <ele>503.062</ele>
        <time>2016-10-04T23:53:59Z</time>
      </trkpt>
      <trkpt lat="43.1821" lon="-1.1326">
        <ele>514.088</ele>
        <time>2016-10-04T23:54:19Z</time>
      </trkpt>
      <trkpt lat="43.18166" lon="-1.1332">
        <ele>519.014</ele>
        <time>2016-10-04T23:54:39Z</time>
      </trkpt>
      <trkpt lat="43.18124" lon="-1.13354">
        <ele>532.015</ele>
        <time>2016-10-04T23:54:59Z</time>
      </trkpt>
      <trkpt lat="43.18075" lon="-1.13296">
        <ele>530.017</ele>
        <time>2016-10-04T23:55:19Z</time>
      </trkpt>
      <trkpt lat="43.17972" lon="-1.13294">
        <ele>543.09</ele>
        <time>2016-10-04T23:55:39Z</time>
      </trkpt>
      <trkpt lat="43.17936" lon="-1.13305">
        <ele>545.042</ele>
        <time>2016-10-04T23:55:59Z</time>
      </trkpt>
      <trkpt lat="43.179" lon="-1.1327">
        <ele>551.026</ele>
        <time>2016-10-04T23:56:19Z</time>
      </trkpt>
      <trkpt lat="43.17911" lon="-1.1317">
        <ele>547.047</ele>
        <time>2016-10-04T23:56:39Z</time>
      </trkpt>
      <trkpt lat="43.17853" lon="-1.13043">
        <ele>541.011</ele>
        <time>2016-10-04T23:56:59Z</time>
      </trkpt>
      <trkpt lat="43.17823" lon="-1.13024">
        <ele>545.008</ele>
        <time>2016-10-04T23:57:19Z</time>
      </trkpt>
      <trkpt lat="43.17793" lon="-1.13019">
        <ele>544.058</ele>
        <time>2016-10-04T23:57:39Z</time>
      </trkpt>
      <trkpt lat="43.17779" lon="-1.13071">
        <ele>544.027</ele>
        <time>2016-10-04T23:57:59Z</time>
      </trkpt>
      <trkpt lat="43.17762" lon="-1.13165">
        <ele>540.053</ele>
        <time>2016-10-04T23:58:19Z</time>
      </trkpt>
      <trkpt lat="43.17617" lon="-1.13328">
        <ele>516.029</ele>
        <time>2016-10-04T23:58:39Z</time>
      </trkpt>
      <trkpt lat="43.17675" lon="-1.13818">
        <ele>507.02</ele>
        <time>2016-10-04T23:58:59Z</time>
      </trkpt>
      <trkpt lat="43.17737" lon="-1.1391">
        <ele>511.012</ele>
        <time>2016-10-04T23:59:19Z</time>
      </trkpt>
      <trkpt lat="43.17624" lon="-1.13998">
        <ele>490.075</ele>
        <time>2016-10-04T23:59:39Z</time>
      </trkpt>
      <trkpt lat="43.17549" lon="-1.14487">
        <ele>487.097</ele>
        <time>2016-10-04T23:59:59Z</time>
      </trkpt>
      <trkpt lat="43.17615" lon="-1.1462">
        <ele>509.098</ele>
        <time>2016-10-05T00:00:19Z</time>
      </trkpt>
      <trkpt lat="43.17789" lon="-1.15285">
        <ele>492.015</ele>
        <time>2016-10-05T00:00:39Z</time>
      </trkpt>
      <trkpt lat="43.17762" lon="-1.1559">
        <ele>450.026</ele>
        <time>2016-10-05T00:00:59Z</time>
      </trkpt>
      <trkpt lat="43.17837" lon="-1.15764">
        <ele>434.008</ele>
        <time>2016-10-05T00:01:19Z</time>
      </trkpt>
      <trkpt lat="43.17873" lon="-1.15903">
        <ele>410.095</ele>
        <time>2016-10-05T00:01:39Z</time>
      </trkpt>
      <trkpt lat="43.17782" lon="-1.16238">
        <ele>358.014</ele>
        <time>2016-10-05T00:01:59Z</time>
      </trkpt>
      <trkpt lat="43.17878" lon="-1.16401">
        <ele>340.02</ele>
        <time>2016-10-05T00:02:19Z</time>
      </trkpt>
      <trkpt lat="43.17898" lon="-1.16521">
        <ele>332.036</ele>
        <time>2016-10-05T00:02:39Z</time>
      </trkpt>
      <trkpt lat="43.17942" lon="-1.16637">
        <ele>311.077</ele>
        <time>2016-10-05T00:02:59Z</time>
      </trkpt>
      <trkpt lat="43.17961" lon="-1.16785">
        <ele>298.019</ele>
        <time>2016-10-05T00:03:19Z</time>
      </trkpt>
      <trkpt lat="43.17923" lon="-1.16914">
        <ele>288.052</ele>
        <time>2016-10-05T00:03:39Z</time>
      </trkpt>
      <trkpt lat="43.178" lon="-1.1712">
        <ele>277.024</ele>
        <time>2016-10-05T00:03:59Z</time>
      </trkpt>
      <trkpt lat="43.17667" lon="-1.17266">
        <ele>272.087</ele>
        <time>2016-10-05T00:04:19Z</time>
      </trkpt>
    </trkseg>
  </trk>
  <trk>
    <name><![CDATA[GR®653 Voie d'Arles - Via Tolosana (2021)]]></name>
    <desc><![CDATA[Randonnée sur le GR®653, Via Tolosana (Voie d'Arles) vers Saint-Jacques-de-Compostelle, à travers les Bouches-du-Rhône, le Gard, l'Hérault, le Tarn, la Haute-Garonne, le Gers et les Pyrénées-Atlantiques de Arles au Col du Somport. Gîtes d'étapes, Chambres d'hôtes, Maison d'hôtes, Hôtels, Camping, Refuges, Auberges, Commerces.]]></desc>
    <extensions>
      <line xmlns="http://www.topografix.com/GPX/gpx_style/0/2">
        <color>000000</color>
        <width>4</width>
      </line>
    </extensions>
    <trkseg>
      <trkpt lat="43.67158" lon="4.63644">
        <ele>8.891</ele>
        <time>2021-04-16T11:32:30Z</time>
      </trkpt>
      <trkpt lat="43.67245" lon="4.63489">
        <ele>9.819</ele>
        <time>2021-04-16T11:33:10Z</time>
      </trkpt>
      <trkpt lat="43.67267" lon="4.63431">
        <ele>9.508</ele>
        <time>2021-04-16T11:33:30Z</time>
      </trkpt>
      <trkpt lat="43.6732" lon="4.63333">
        <ele>8.876</ele>
        <time>2021-04-16T11:33:50Z</time>
      </trkpt>
      <trkpt lat="43.67317" lon="4.63325">
        <ele>8.849</ele>
        <time>2021-04-16T11:34:10Z</time>
      </trkpt>
      <trkpt lat="43.6737" lon="4.63216">
        <ele>11.325</ele>
        <time>2021-04-16T11:34:30Z</time>
      </trkpt>
      <trkpt lat="43.67504" lon="4.63241">
        <ele>20.964</ele>
        <time>2021-04-16T11:34:50Z</time>
      </trkpt>
      <trkpt lat="43.6757" lon="4.63278">
        <ele>23.061</ele>
        <time>2021-04-16T11:35:10Z</time>
      </trkpt>
      <trkpt lat="43.67576" lon="4.63251">
        <ele>24.612</ele>
        <time>2021-04-16T11:35:30Z</time>
      </trkpt>
      <trkpt lat="43.67602" lon="4.63243">
        <ele>25.141</ele>
        <time>2021-04-16T11:35:50Z</time>
      </trkpt>
      <trkpt lat="43.67613" lon="4.6325">
        <ele>25.022</ele>
        <time>2021-04-16T11:36:10Z</time>
      </trkpt>
      <trkpt lat="43.67614" lon="4.63229">
        <ele>25.589</ele>
        <time>2021-04-16T11:36:30Z</time>
      </trkpt>
      <trkpt lat="43.67636" lon="4.63212">
        <ele>26.306</ele>
        <time>2021-04-16T11:36:50Z</time>
      </trkpt>
      <trkpt lat="43.67626" lon="4.63165">
        <ele>27.526</ele>
        <time>2021-04-16T11:37:10Z</time>
      </trkpt>
      <trkpt lat="43.67619" lon="4.63091">
        <ele>25.108</ele>
        <time>2021-04-16T11:37:30Z</time>
      </trkpt>
      <trkpt lat="43.6763" lon="4.63048">
        <ele>24.565</ele>
        <time>2021-04-16T11:37:50Z</time>
      </trkpt>
      <trkpt lat="43.67643" lon="4.63053">
        <ele>24.828</ele>
        <time>2021-04-16T11:38:10Z</time>
      </trkpt>
      <trkpt lat="43.67667" lon="4.63048">
        <ele>25.114</ele>
        <time>2021-04-16T11:38:30Z</time>
      </trkpt>
      <trkpt lat="43.67688" lon="4.63017">
        <ele>24.643</ele>
        <time>2021-04-16T11:38:50Z</time>
      </trkpt>
      <trkpt lat="43.67698" lon="4.62978">
        <ele>25.13</ele>
        <time>2021-04-16T11:39:10Z</time>
      </trkpt>
      <trkpt lat="43.67697" lon="4.62779">
        <ele>22.571</ele>
        <time>2021-04-16T11:39:30Z</time>
      </trkpt>
      <trkpt lat="43.67606" lon="4.62781">
        <ele>20.77</ele>
        <time>2021-04-16T11:39:50Z</time>
      </trkpt>
      <trkpt lat="43.67616" lon="4.6272">
        <ele>19.091</ele>
        <time>2021-04-16T11:40:10Z</time>
      </trkpt>
      <trkpt lat="43.67641" lon="4.62618">
        <ele>20.096</ele>
        <time>2016-12-26T18:13:31Z</time>
      </trkpt>
      <trkpt lat="43.67669" lon="4.62549">
        <ele>16.824</ele>
        <time>2016-12-26T18:13:51Z</time>
      </trkpt>
      <trkpt lat="43.67722" lon="4.62437">
        <ele>15.708</ele>
        <time>2021-04-16T11:41:30Z</time>
      </trkpt>
      <trkpt lat="43.67699" lon="4.62427">
        <ele>13.216</ele>
        <time>2016-12-26T18:14:31Z</time>
      </trkpt>
      <trkpt lat="43.67685" lon="4.62365">
        <ele>11.459</ele>
        <time>2016-12-26T18:14:51Z</time>
      </trkpt>
      <trkpt lat="43.67583" lon="4.62188">
        <ele>13.065</ele>
        <time>2021-04-16T11:42:30Z</time>
      </trkpt>
      <trkpt lat="43.67622" lon="4.62164">
        <ele>12.534</ele>
        <time>2021-04-16T11:42:50Z</time>
      </trkpt>
      <trkpt lat="43.67676" lon="4.62077">
        <ele>8.681</ele>
        <time>2021-04-16T11:43:10Z</time>
      </trkpt>
      <trkpt lat="43.67753" lon="4.62212">
        <ele>11.862</ele>
        <time>2021-04-16T11:43:30Z</time>
      </trkpt>
      <trkpt lat="43.67827" lon="4.62368">
        <ele>9.941</ele>
        <time>2021-04-16T11:43:50Z</time>
      </trkpt>
      <trkpt lat="43.67957" lon="4.62247">
        <ele>9.032</ele>
        <time>2021-04-16T11:44:10Z</time>
      </trkpt>
      <trkpt lat="43.67902" lon="4.62116">
        <ele>3.021</ele>
        <time>2016-12-26T18:17:11Z</time>
      </trkpt>
      <trkpt lat="43.6798" lon="4.62029">
        <ele>3.041</ele>
        <time>2016-12-26T18:17:31Z</time>
      </trkpt>
      <trkpt lat="43.67956" lon="4.61949">
        <ele>3.005</ele>
        <time>2016-12-26T18:17:51Z</time>
      </trkpt>
      <trkpt lat="43.67957" lon="4.61812">
        <ele>3.008</ele>
        <time>2016-12-26T18:18:11Z</time>
      </trkpt>
      <trkpt lat="43.67933" lon="4.61758">
        <ele>3.099</ele>
        <time>2016-12-26T18:18:31Z</time>
      </trkpt>
      <trkpt lat="43.67866" lon="4.6175">
        <ele>8.042</ele>
        <time>2021-04-16T11:46:10Z</time>
      </trkpt>
      <trkpt lat="43.67816" lon="4.6172">
        <ele>8.078</ele>
        <time>2021-04-16T11:46:30Z</time>
      </trkpt>
      <trkpt lat="43.67767" lon="4.6167">
        <ele>3.067</ele>
        <time>2016-12-26T18:19:11Z</time>
      </trkpt>
      <trkpt lat="43.67712" lon="4.61603">
        <ele>7.584</ele>
        <time>2021-04-16T11:47:10Z</time>
      </trkpt>
      <trkpt lat="43.67652" lon="4.61512">
        <ele>3.085</ele>
        <time>2016-12-26T18:19:31Z</time>
      </trkpt>
      <trkpt lat="43.67542" lon="4.61269">
        <ele>7.194</ele>
        <time>2021-04-16T11:47:50Z</time>
      </trkpt>
      <trkpt lat="43.6744" lon="4.61029">
        <ele>3.035</ele>
        <time>2016-12-26T18:19:51Z</time>
      </trkpt>
      <trkpt lat="43.67378" lon="4.60728">
        <ele>3.097</ele>
        <time>2016-12-26T18:20:11Z</time>
      </trkpt>
      <trkpt lat="43.6735" lon="4.60628">
        <ele>3.523</ele>
        <time>2021-04-16T11:48:50Z</time>
      </trkpt>
      <trkpt lat="43.67358" lon="4.60546">
        <ele>5.325</ele>
        <time>2021-04-16T11:49:10Z</time>
      </trkpt>
      <trkpt lat="43.67352" lon="4.60472">
        <ele>3.008</ele>
        <time>2016-12-26T18:20:31Z</time>
      </trkpt>
      <trkpt lat="43.67293" lon="4.60239">
        <ele>4.976</ele>
        <time>2021-04-16T11:49:50Z</time>
      </trkpt>
      <trkpt lat="43.6725" lon="4.59957">
        <ele>4.159</ele>
        <time>2021-04-16T11:50:10Z</time>
      </trkpt>
      <trkpt lat="43.67207" lon="4.59619">
        <ele>3.995</ele>
        <time>2021-04-16T11:50:30Z</time>
      </trkpt>
      <trkpt lat="43.67068" lon="4.59352">
        <ele>2.064</ele>
        <time>2016-12-26T18:21:51Z</time>
      </trkpt>
      <trkpt lat="43.66998" lon="4.59181">
        <ele>2.081</ele>
        <time>2016-12-26T18:22:11Z</time>
      </trkpt>
      <trkpt lat="43.66842" lon="4.58943">
        <ele>2.072</ele>
        <time>2016-12-26T18:22:31Z</time>
      </trkpt>
      <trkpt lat="43.6682" lon="4.58864">
        <ele>2.061</ele>
        <time>2016-12-26T18:22:51Z</time>
      </trkpt>
      <trkpt lat="43.66759" lon="4.58697">
        <ele>2.052</ele>
        <time>2016-12-26T18:23:11Z</time>
      </trkpt>
      <trkpt lat="43.66682" lon="4.58349">
        <ele>2.084</ele>
        <time>2016-12-26T18:23:31Z</time>
      </trkpt>
      <trkpt lat="43.66598" lon="4.57971">
        <ele>2.007</ele>
        <time>2016-12-26T18:23:51Z</time>
      </trkpt>
      <trkpt lat="43.66578" lon="4.57788">
        <ele>1.017</ele>
        <time>2016-12-26T18:24:11Z</time>
      </trkpt>
      <trkpt lat="43.66586" lon="4.57548">
        <ele>1.008</ele>
        <time>2016-12-26T18:24:31Z</time>
      </trkpt>
      <trkpt lat="43.66571" lon="4.5728">
        <ele>1.065</ele>
        <time>2016-12-26T18:24:51Z</time>
      </trkpt>
      <trkpt lat="43.66517" lon="4.57273">
        <ele>1.098</ele>
        <time>2016-12-26T18:25:11Z</time>
      </trkpt>
      <trkpt lat="43.66508" lon="4.57094">
        <ele>1.094</ele>
        <time>2016-12-26T18:25:31Z</time>
      </trkpt>
      <trkpt lat="43.66459" lon="4.56663">
        <ele>1.083</ele>
        <time>2016-12-26T18:25:51Z</time>
      </trkpt>
      <trkpt lat="43.66443" lon="4.56207">
        <ele>1.03</ele>
        <time>2016-12-26T18:26:11Z</time>
      </trkpt>
      <trkpt lat="43.663" lon="4.55485">
        <ele>1.021</ele>
        <time>2016-12-26T18:26:31Z</time>
      </trkpt>
      <trkpt lat="43.66203" lon="4.54938">
        <ele>1.03</ele>
        <time>2016-12-26T18:26:51Z</time>
      </trkpt>
      <trkpt lat="43.66196" lon="4.54839">
        <ele>1.061</ele>
        <time>2016-12-26T18:27:11Z</time>
      </trkpt>
      <trkpt lat="43.66187" lon="4.54732">
        <ele>1.044</ele>
        <time>2016-12-26T18:27:31Z</time>
      </trkpt>
      <trkpt lat="43.66205" lon="4.54564">
        <ele>1.005</ele>
        <time>2016-12-26T18:27:51Z</time>
      </trkpt>
      <trkpt lat="43.66052" lon="4.54406">
        <ele>1.015</ele>
        <time>2016-12-26T18:28:11Z</time>
      </trkpt>
      <trkpt lat="43.66058" lon="4.54229">
        <ele>1.008</ele>
        <time>2016-12-26T18:28:31Z</time>
      </trkpt>
      <trkpt lat="43.65849" lon="4.53586">
        <ele>1.021</ele>
        <time>2016-12-26T18:28:51Z</time>
      </trkpt>
      <trkpt lat="43.65622" lon="4.52818">
        <ele>1.044</ele>
        <time>2016-12-26T18:29:11Z</time>
      </trkpt>
      <trkpt lat="43.65584" lon="4.52629">
        <ele>1.07</ele>
        <time>2016-12-26T18:29:31Z</time>
      </trkpt>
      <trkpt lat="43.6559" lon="4.52575">
        <ele>1.079</ele>
        <time>2016-12-26T18:29:51Z</time>
      </trkpt>
      <trkpt lat="43.65125" lon="4.511">
        <ele>1.016</ele>
        <time>2016-12-26T18:30:11Z</time>
      </trkpt>
      <trkpt lat="43.64965" lon="4.50595">
        <ele>1.027</ele>
        <time>2016-12-26T18:30:31Z</time>
      </trkpt>
      <trkpt lat="43.64976" lon="4.50311">
        <ele>1.066</ele>
        <time>2016-12-26T18:30:51Z</time>
      </trkpt>
      <trkpt lat="43.65353" lon="4.49671">
        <ele>1.087</ele>
        <time>2016-12-26T18:31:11Z</time>
      </trkpt>
      <trkpt lat="43.65425" lon="4.49478">
        <ele>1.024</ele>
        <time>2016-12-26T18:31:31Z</time>
      </trkpt>
      <trkpt lat="43.65458" lon="4.49354">
        <ele>1.004</ele>
        <time>2016-12-26T18:31:51Z</time>
      </trkpt>
      <trkpt lat="43.6542" lon="4.49205">
        <ele>1.014</ele>
        <time>2016-12-26T18:32:11Z</time>
      </trkpt>
      <trkpt lat="43.65197" lon="4.48906">
        <ele>1.008</ele>
        <time>2016-12-26T18:32:31Z</time>
      </trkpt>
      <trkpt lat="43.65117" lon="4.48709">
        <ele>1.099</ele>
        <time>2016-12-26T18:32:51Z</time>
      </trkpt>
      <trkpt lat="43.65345" lon="4.48556">
        <ele>1.042</ele>
        <time>2016-12-26T18:33:11Z</time>
      </trkpt>
      <trkpt lat="43.65419" lon="4.48476">
        <ele>1.098</ele>
        <time>2016-12-26T18:33:31Z</time>
      </trkpt>
      <trkpt lat="43.65622" lon="4.4821">
        <ele>1.047</ele>
        <time>2016-12-26T18:33:51Z</time>
      </trkpt>
      <trkpt lat="43.65703" lon="4.48182">
        <ele>2.884</ele>
        <time>2021-04-16T12:03:10Z</time>
      </trkpt>
      <trkpt lat="43.65766" lon="4.48139">
        <ele>1.035</ele>
        <time>2016-12-26T18:34:11Z</time>
      </trkpt>
      <trkpt lat="43.65827" lon="4.48079">
        <ele>3.074</ele>
        <time>2021-04-16T12:03:50Z</time>
      </trkpt>
      <trkpt lat="43.65888" lon="4.47995">
        <ele>1.045</ele>
        <time>2016-12-26T18:34:31Z</time>
      </trkpt>
      <trkpt lat="43.65989" lon="4.47776">
        <ele>1.612</ele>
        <time>2020-06-05T19:20:35Z</time>
      </trkpt>
      <trkpt lat="43.65997" lon="4.48051">
        <ele>2.032</ele>
        <time>2020-06-05T19:20:55Z</time>
      </trkpt>
      <trkpt lat="43.66198" lon="4.48042">
        <ele>2.005</ele>
        <time>2020-06-05T19:21:15Z</time>
      </trkpt>
      <trkpt lat="43.66261" lon="4.48059">
        <ele>2.008</ele>
        <time>2020-06-05T19:21:35Z</time>
      </trkpt>
      <trkpt lat="43.66295" lon="4.48045">
        <ele>5.218</ele>
        <time>2021-04-16T12:05:50Z</time>
      </trkpt>
      <trkpt lat="43.66352" lon="4.48031">
        <ele>2.041</ele>
        <time>2020-06-05T19:21:55Z</time>
      </trkpt>
      <trkpt lat="43.66306" lon="4.47252">
        <ele>1.097</ele>
        <time>2020-06-05T19:22:15Z</time>
      </trkpt>
      <trkpt lat="43.66413" lon="4.47085">
        <ele>1.036</ele>
        <time>2016-12-26T18:35:31Z</time>
      </trkpt>
      <trkpt lat="43.66454" lon="4.46972">
        <ele>1.023</ele>
        <time>2016-12-26T18:35:51Z</time>
      </trkpt>
      <trkpt lat="43.66737" lon="4.46084">
        <ele>2.034</ele>
        <time>2016-12-26T18:36:11Z</time>
      </trkpt>
      <trkpt lat="43.66734" lon="4.46013">
        <ele>2.053</ele>
        <time>2016-12-26T18:36:31Z</time>
      </trkpt>
      <trkpt lat="43.66628" lon="4.45714">
        <ele>8.494</ele>
        <time>2021-04-16T12:08:10Z</time>
      </trkpt>
      <trkpt lat="43.666" lon="4.45676">
        <ele>7.413</ele>
        <time>2021-04-16T12:08:30Z</time>
      </trkpt>
      <trkpt lat="43.66538" lon="4.45658">
        <ele>2.043</ele>
        <time>2016-12-26T18:37:11Z</time>
      </trkpt>
      <trkpt lat="43.6651" lon="4.4559">
        <ele>2.007</ele>
        <time>2016-12-26T18:37:31Z</time>
      </trkpt>
      <trkpt lat="43.66509" lon="4.45518">
        <ele>2.008</ele>
        <time>2016-12-26T18:37:51Z</time>
      </trkpt>
      <trkpt lat="43.66487" lon="4.45446">
        <ele>2.018</ele>
        <time>2016-12-26T18:38:11Z</time>
      </trkpt>
      <trkpt lat="43.66462" lon="4.45428">
        <ele>2.021</ele>
        <time>2016-12-26T18:38:31Z</time>
      </trkpt>
      <trkpt lat="43.66665" lon="4.45171">
        <ele>2.077</ele>
        <time>2016-12-26T18:38:51Z</time>
      </trkpt>
      <trkpt lat="43.66664" lon="4.45219">
        <ele>2.086</ele>
        <time>2016-12-26T18:41:51Z</time>
      </trkpt>
      <trkpt lat="43.66743" lon="4.45091">
        <ele>2.083</ele>
        <time>2016-12-26T18:42:11Z</time>
      </trkpt>
      <trkpt lat="43.66861" lon="4.45151">
        <ele>2.024</ele>
        <time>2016-12-26T18:42:31Z</time>
      </trkpt>
      <trkpt lat="43.66932" lon="4.44979">
        <ele>1.063</ele>
        <time>2016-12-26T18:42:51Z</time>
      </trkpt>
      <trkpt lat="43.67048" lon="4.45084">
        <ele>1.094</ele>
        <time>2016-12-26T18:43:11Z</time>
      </trkpt>
      <trkpt lat="43.67137" lon="4.45286">
        <ele>1.028</ele>
        <time>2016-12-26T18:43:31Z</time>
      </trkpt>
      <trkpt lat="43.67374" lon="4.45654">
        <ele>1.089</ele>
        <time>2016-12-26T18:43:51Z</time>
      </trkpt>
      <trkpt lat="43.67399" lon="4.45649">
        <ele>1.017</ele>
        <time>2016-12-26T18:44:11Z</time>
      </trkpt>
      <trkpt lat="43.67368" lon="4.45357">
        <ele>1.008</ele>
        <time>2016-12-26T18:44:31Z</time>
      </trkpt>
      <trkpt lat="43.67537" lon="4.45068">
        <ele>1.019</ele>
        <time>2016-12-26T18:44:51Z</time>
      </trkpt>
      <trkpt lat="43.67635" lon="4.44948">
        <ele>1.062</ele>
        <time>2016-12-26T18:45:11Z</time>
      </trkpt>
      <trkpt lat="43.67784" lon="4.44763">
        <ele>1.028</ele>
        <time>2016-12-26T18:45:31Z</time>
      </trkpt>
      <trkpt lat="43.6787" lon="4.44353">
        <ele>1.067</ele>
        <time>2016-12-26T18:45:51Z</time>
      </trkpt>
      <trkpt lat="43.67861" lon="4.44232">
        <ele>1.074</ele>
        <time>2016-12-26T18:46:11Z</time>
      </trkpt>
      <trkpt lat="43.67819" lon="4.44098">
        <ele>1.065</ele>
        <time>2016-12-26T18:46:31Z</time>
      </trkpt>
      <trkpt lat="43.67813" lon="4.44052">
        <ele>1.034</ele>
        <time>2016-12-26T18:46:51Z</time>
      </trkpt>
      <trkpt lat="43.67823" lon="4.44018">
        <ele>1.065</ele>
        <time>2016-12-26T18:47:11Z</time>
      </trkpt>
      <trkpt lat="43.67796" lon="4.43991">
        <ele>1.048</ele>
        <time>2016-12-26T18:47:31Z</time>
      </trkpt>
      <trkpt lat="43.67822" lon="4.43921">
        <ele>1.061</ele>
        <time>2016-12-26T18:47:51Z</time>
      </trkpt>
      <trkpt lat="43.6781" lon="4.43905">
        <ele>1.017</ele>
        <time>2016-12-26T18:48:11Z</time>
      </trkpt>
      <trkpt lat="43.67834" lon="4.43871">
        <ele>1.008</ele>
        <time>2016-12-26T18:48:31Z</time>
      </trkpt>
      <trkpt lat="43.67839" lon="4.43781">
        <ele>1.951</ele>
        <time>2016-12-26T18:48:51Z</time>
      </trkpt>
      <trkpt lat="43.67922" lon="4.43595">
        <ele>19.924</ele>
        <time>2016-12-26T18:49:11Z</time>
      </trkpt>
      <trkpt lat="43.67858" lon="4.43546">
        <ele>18.97</ele>
        <time>2016-12-26T18:49:31Z</time>
      </trkpt>
      <trkpt lat="43.67778" lon="4.43426">
        <ele>20.039</ele>
        <time>2016-12-26T18:49:51Z</time>
      </trkpt>
      <trkpt lat="43.67752" lon="4.43422">
        <ele>18.776</ele>
        <time>2016-12-26T18:50:11Z</time>
      </trkpt>
      <trkpt lat="43.67712" lon="4.43391">
        <ele>16.337</ele>
        <time>2016-12-26T18:50:31Z</time>
      </trkpt>
      <trkpt lat="43.67731" lon="4.4334">
        <ele>16.636</ele>
        <time>2016-12-26T18:50:51Z</time>
      </trkpt>
      <trkpt lat="43.67701" lon="4.43307">
        <ele>15.257</ele>
        <time>2016-12-26T18:51:11Z</time>
      </trkpt>
      <trkpt lat="43.67714" lon="4.43181">
        <ele>14.663</ele>
        <time>2016-12-26T18:51:31Z</time>
      </trkpt>
      <trkpt lat="43.67683" lon="4.43161">
        <ele>12.444</ele>
        <time>2016-12-26T18:51:51Z</time>
      </trkpt>
      <trkpt lat="43.67657" lon="4.4309">
        <ele>9.718</ele>
        <time>2016-12-26T18:52:11Z</time>
      </trkpt>
      <trkpt lat="43.67707" lon="4.43011">
        <ele>8.408</ele>
        <time>2016-12-26T18:52:31Z</time>
      </trkpt>
      <trkpt lat="43.67716" lon="4.42969">
        <ele>6.973</ele>
        <time>2016-12-26T18:52:51Z</time>
      </trkpt>
      <trkpt lat="43.67701" lon="4.42878">
        <ele>5.026</ele>
        <time>2016-12-26T18:53:11Z</time>
      </trkpt>
      <trkpt lat="43.67675" lon="4.42801">
        <ele>5.072</ele>
        <time>2016-12-26T18:53:31Z</time>
      </trkpt>
      <trkpt lat="43.67544" lon="4.42559">
        <ele>8.341</ele>
        <time>2016-12-26T18:53:51Z</time>
      </trkpt>
      <trkpt lat="43.67495" lon="4.42508">
        <ele>14.838</ele>
        <time>2021-04-16T12:23:10Z</time>
      </trkpt>
      <trkpt lat="43.67367" lon="4.42437">
        <ele>15.059</ele>
        <time>2016-12-26T18:54:51Z</time>
      </trkpt>
      <trkpt lat="43.67223" lon="4.42338">
        <ele>14.338</ele>
        <time>2021-04-16T12:23:50Z</time>
      </trkpt>
      <trkpt lat="43.66974" lon="4.42208">
        <ele>10.599</ele>
        <time>2016-12-26T18:55:31Z</time>
      </trkpt>
      <trkpt lat="43.66938" lon="4.41867">
        <ele>11.095</ele>
        <time>2016-12-26T18:55:51Z</time>
      </trkpt>
      <trkpt lat="43.66885" lon="4.41744">
        <ele>10.949</ele>
        <time>2016-12-26T18:56:11Z</time>
      </trkpt>
      <trkpt lat="43.66853" lon="4.41543">
        <ele>11.023</ele>
        <time>2016-12-26T18:56:31Z</time>
      </trkpt>
      <trkpt lat="43.66781" lon="4.4135">
        <ele>10.008</ele>
        <time>2016-12-26T18:56:51Z</time>
      </trkpt>
      <trkpt lat="43.66681" lon="4.40885">
        <ele>7.546</ele>
        <time>2016-12-26T18:57:11Z</time>
      </trkpt>
      <trkpt lat="43.6664" lon="4.40633">
        <ele>6.899</ele>
        <time>2016-12-26T18:57:31Z</time>
      </trkpt>
      <trkpt lat="43.66586" lon="4.4041">
        <ele>5.025</ele>
        <time>2016-12-26T18:57:51Z</time>
      </trkpt>
      <trkpt lat="43.66542" lon="4.40158">
        <ele>5.044</ele>
        <time>2016-12-26T18:58:11Z</time>
      </trkpt>
      <trkpt lat="43.66528" lon="4.39935">
        <ele>5.061</ele>
        <time>2016-12-26T18:58:31Z</time>
      </trkpt>
      <trkpt lat="43.66468" lon="4.3965">
        <ele>4.052</ele>
        <time>2016-12-26T18:58:51Z</time>
      </trkpt>
      <trkpt lat="43.66441" lon="4.39469">
        <ele>4.041</ele>
        <time>2016-12-26T18:59:11Z</time>
      </trkpt>
      <trkpt lat="43.66636" lon="4.39331">
        <ele>5.252</ele>
        <time>2021-04-16T12:28:10Z</time>
      </trkpt>
      <trkpt lat="43.66642" lon="4.39289">
        <ele>5.037</ele>
        <time>2021-04-16T12:28:30Z</time>
      </trkpt>
      <trkpt lat="43.66594" lon="4.38879">
        <ele>5.049</ele>
        <time>2016-12-26T19:00:11Z</time>
      </trkpt>
      <trkpt lat="43.66814" lon="4.3863">
        <ele>5.013</ele>
        <time>2016-12-26T19:00:31Z</time>
      </trkpt>
      <trkpt lat="43.66858" lon="4.38626">
        <ele>5.008</ele>
        <time>2016-12-26T19:00:51Z</time>
      </trkpt>
      <trkpt lat="43.66869" lon="4.38572">
        <ele>5.04</ele>
        <time>2016-12-26T19:01:11Z</time>
      </trkpt>
      <trkpt lat="43.66998" lon="4.38426">
        <ele>5.053</ele>
        <time>2016-12-26T19:01:31Z</time>
      </trkpt>
      <trkpt lat="43.66981" lon="4.3833">
        <ele>5.059</ele>
        <time>2016-12-26T19:01:51Z</time>
      </trkpt>
      <trkpt lat="43.67057" lon="4.3833">
        <ele>5.028</ele>
        <time>2016-12-26T19:02:11Z</time>
      </trkpt>
      <trkpt lat="43.67109" lon="4.3829">
        <ele>5.035</ele>
        <time>2016-12-26T19:02:31Z</time>
      </trkpt>
      <trkpt lat="43.6725" lon="4.38053">
        <ele>6.096</ele>
        <time>2016-12-26T19:02:51Z</time>
      </trkpt>
      <trkpt lat="43.67292" lon="4.37923">
        <ele>8.035</ele>
        <time>2016-12-26T19:03:11Z</time>
      </trkpt>
      <trkpt lat="43.67338" lon="4.37683">
        <ele>9.266</ele>
        <time>2016-12-26T19:03:31Z</time>
      </trkpt>
      <trkpt lat="43.67416" lon="4.37474">
        <ele>12.025</ele>
        <time>2016-12-26T19:03:51Z</time>
      </trkpt>
      <trkpt lat="43.67497" lon="4.37194">
        <ele>15.026</ele>
        <time>2016-12-26T19:04:11Z</time>
      </trkpt>
      <trkpt lat="43.67554" lon="4.36952">
        <ele>19.008</ele>
        <time>2016-12-26T19:04:31Z</time>
      </trkpt>
      <trkpt lat="43.6748" lon="4.36905">
        <ele>18.408</ele>
        <time>2016-12-26T19:04:51Z</time>
      </trkpt>
      <trkpt lat="43.67433" lon="4.36831">
        <ele>18.689</ele>
        <time>2016-12-26T19:05:11Z</time>
      </trkpt>
      <trkpt lat="43.67313" lon="4.36537">
        <ele>15.782</ele>
        <time>2016-12-26T19:05:31Z</time>
      </trkpt>
      <trkpt lat="43.67247" lon="4.36502">
        <ele>15.938</ele>
        <time>2016-12-26T19:05:51Z</time>
      </trkpt>
      <trkpt lat="43.67231" lon="4.36464">
        <ele>16.057</ele>
        <time>2016-12-26T19:06:11Z</time>
      </trkpt>
      <trkpt lat="43.67226" lon="4.36362">
        <ele>17.064</ele>
        <time>2016-12-26T19:06:31Z</time>
      </trkpt>
      <trkpt lat="43.67128" lon="4.36223">
        <ele>16.665</ele>
        <time>2016-12-26T19:06:51Z</time>
      </trkpt>
      <trkpt lat="43.6609" lon="4.3494">
        <ele>16.394</ele>
        <time>2016-12-26T19:07:11Z</time>
      </trkpt>
      <trkpt lat="43.66058" lon="4.34846">
        <ele>15.635</ele>
        <time>2016-12-26T19:07:31Z</time>
      </trkpt>
      <trkpt lat="43.65955" lon="4.34328">
        <ele>23.183</ele>
        <time>2016-12-26T19:07:51Z</time>
      </trkpt>
      <trkpt lat="43.65911" lon="4.34213">
        <ele>21.825</ele>
        <time>2016-12-26T19:08:11Z</time>
      </trkpt>
      <trkpt lat="43.65794" lon="4.34051">
        <ele>18.617</ele>
        <time>2016-12-26T19:09:31Z</time>
      </trkpt>
      <trkpt lat="43.65751" lon="4.33927">
        <ele>19.008</ele>
        <time>2016-12-26T19:09:51Z</time>
      </trkpt>
      <trkpt lat="43.65737" lon="4.33822">
        <ele>16.785</ele>
        <time>2016-12-26T19:10:11Z</time>
      </trkpt>
      <trkpt lat="43.6573" lon="4.33635">
        <ele>15.028</ele>
        <time>2016-12-26T19:10:31Z</time>
      </trkpt>
      <trkpt lat="43.65719" lon="4.33558">
        <ele>17.274</ele>
        <time>2016-12-26T19:10:51Z</time>
      </trkpt>
      <trkpt lat="43.65763" lon="4.33549">
        <ele>15.323</ele>
        <time>2016-12-26T19:11:11Z</time>
      </trkpt>
      <trkpt lat="43.65775" lon="4.33715">
        <ele>16.62</ele>
        <time>2016-12-26T19:11:31Z</time>
      </trkpt>
      <trkpt lat="43.65951" lon="4.33529">
        <ele>18.311</ele>
        <time>2016-12-26T19:11:51Z</time>
      </trkpt>
      <trkpt lat="43.66256" lon="4.33323">
        <ele>22.82</ele>
        <time>2016-12-26T19:12:11Z</time>
      </trkpt>
      <trkpt lat="43.66259" lon="4.33242">
        <ele>21.481</ele>
        <time>2021-04-16T12:40:10Z</time>
      </trkpt>
      <trkpt lat="43.66232" lon="4.32958">
        <ele>36.849</ele>
        <time>2016-12-26T19:12:31Z</time>
      </trkpt>
      <trkpt lat="43.66305" lon="4.32806">
        <ele>46.002</ele>
        <time>2016-12-26T19:12:51Z</time>
      </trkpt>
      <trkpt lat="43.66324" lon="4.32739">
        <ele>45.722</ele>
        <time>2016-12-26T19:13:11Z</time>
      </trkpt>
      <trkpt lat="43.66339" lon="4.32635">
        <ele>45.008</ele>
        <time>2016-12-26T19:13:31Z</time>
      </trkpt>
      <trkpt lat="43.66332" lon="4.32448">
        <ele>49.891</ele>
        <time>2016-12-26T19:13:51Z</time>
      </trkpt>
      <trkpt lat="43.66319" lon="4.32383">
        <ele>50.084</ele>
        <time>2016-12-26T19:14:11Z</time>
      </trkpt>
      <trkpt lat="43.66318" lon="4.32198">
        <ele>48.35</ele>
        <time>2016-12-26T19:14:31Z</time>
      </trkpt>
      <trkpt lat="43.6631" lon="4.32156">
        <ele>45.349</ele>
        <time>2016-12-26T19:14:51Z</time>
      </trkpt>
      <trkpt lat="43.66332" lon="4.3204">
        <ele>35.046</ele>
        <time>2016-12-26T19:15:11Z</time>
      </trkpt>
      <trkpt lat="43.66352" lon="4.32012">
        <ele>35.087</ele>
        <time>2016-12-26T19:15:31Z</time>
      </trkpt>
      <trkpt lat="43.66337" lon="4.31954">
        <ele>35.266</ele>
        <time>2016-12-26T19:15:51Z</time>
      </trkpt>
      <trkpt lat="43.66658" lon="4.32181">
        <ele>40.047</ele>
        <time>2016-12-26T19:16:11Z</time>
      </trkpt>
      <trkpt lat="43.66799" lon="4.32081">
        <ele>48.473</ele>
        <time>2016-12-26T19:16:31Z</time>
      </trkpt>
      <trkpt lat="43.66876" lon="4.32035">
        <ele>53.685</ele>
        <time>2016-12-26T19:16:51Z</time>
      </trkpt>
      <trkpt lat="43.66943" lon="4.31974">
        <ele>56.113</ele>
        <time>2016-12-26T19:17:11Z</time>
      </trkpt>
      <trkpt lat="43.67031" lon="4.3193">
        <ele>62.808</ele>
        <time>2016-12-26T19:17:31Z</time>
      </trkpt>
      <trkpt lat="43.67209" lon="4.31663">
        <ele>69.024</ele>
        <time>2016-12-26T19:17:51Z</time>
      </trkpt>
      <trkpt lat="43.6727" lon="4.31571">
        <ele>71.847</ele>
        <time>2016-12-26T19:18:11Z</time>
      </trkpt>
      <trkpt lat="43.67327" lon="4.31504">
        <ele>73.723</ele>
        <time>2016-12-26T19:18:31Z</time>
      </trkpt>
      <trkpt lat="43.67431" lon="4.31304">
        <ele>73.532</ele>
        <time>2016-12-26T19:18:51Z</time>
      </trkpt>
      <trkpt lat="43.67587" lon="4.31407">
        <ele>75.049</ele>
        <time>2016-12-26T19:19:11Z</time>
      </trkpt>
      <trkpt lat="43.67634" lon="4.31301">
        <ele>75.04</ele>
        <time>2016-12-26T19:19:31Z</time>
      </trkpt>
      <trkpt lat="43.67655" lon="4.31216">
        <ele>75.039</ele>
        <time>2016-12-26T19:19:51Z</time>
      </trkpt>
      <trkpt lat="43.67739" lon="4.31121">
        <ele>79.39</ele>
        <time>2016-12-26T19:20:11Z</time>
      </trkpt>
      <trkpt lat="43.6778" lon="4.30976">
        <ele>76.389</ele>
        <time>2016-12-26T19:20:31Z</time>
      </trkpt>
      <trkpt lat="43.67834" lon="4.30926">
        <ele>77.406</ele>
        <time>2016-12-26T19:20:51Z</time>
      </trkpt>
      <trkpt lat="43.67934" lon="4.30732">
        <ele>64.426</ele>
        <time>2016-12-26T19:21:11Z</time>
      </trkpt>
      <trkpt lat="43.68006" lon="4.30616">
        <ele>51.708</ele>
        <time>2016-12-26T19:21:31Z</time>
      </trkpt>
      <trkpt lat="43.68046" lon="4.3059">
        <ele>50.585</ele>
        <time>2016-12-26T19:21:51Z</time>
      </trkpt>
      <trkpt lat="43.68139" lon="4.30519">
        <ele>61.338</ele>
        <time>2016-12-26T19:22:11Z</time>
      </trkpt>
      <trkpt lat="43.68144" lon="4.30486">
        <ele>62.754</ele>
        <time>2016-12-26T19:22:31Z</time>
      </trkpt>
      <trkpt lat="43.68207" lon="4.3032">
        <ele>62.453</ele>
        <time>2016-12-26T19:22:51Z</time>
      </trkpt>
      <trkpt lat="43.68286" lon="4.3028">
        <ele>61.73</ele>
        <time>2016-12-26T19:23:11Z</time>
      </trkpt>
      <trkpt lat="43.68289" lon="4.30236">
        <ele>61.291</ele>
        <time>2016-12-26T19:23:31Z</time>
      </trkpt>
      <trkpt lat="43.68244" lon="4.30129">
        <ele>56.45</ele>
        <time>2016-12-26T19:23:51Z</time>
      </trkpt>
      <trkpt lat="43.6828" lon="4.30056">
        <ele>55.261</ele>
        <time>2016-12-26T19:24:11Z</time>
      </trkpt>
      <trkpt lat="43.68302" lon="4.29976">
        <ele>55.085</ele>
        <time>2016-12-26T19:24:31Z</time>
      </trkpt>
      <trkpt lat="43.68348" lon="4.29893">
        <ele>55.989</ele>
        <time>2016-12-26T19:24:51Z</time>
      </trkpt>
      <trkpt lat="43.68389" lon="4.29852">
        <ele>61.017</ele>
        <time>2016-12-26T19:25:11Z</time>
      </trkpt>
      <trkpt lat="43.68453" lon="4.2974">
        <ele>74.608</ele>
        <time>2016-12-26T19:25:31Z</time>
      </trkpt>
      <trkpt lat="43.68476" lon="4.29679">
        <ele>77.285</ele>
        <time>2016-12-26T19:25:51Z</time>
      </trkpt>
      <trkpt lat="43.68515" lon="4.29616">
        <ele>77.158</ele>
        <time>2016-12-26T19:26:11Z</time>
      </trkpt>
      <trkpt lat="43.68544" lon="4.295">
        <ele>77.694</ele>
        <time>2016-12-26T19:26:31Z</time>
      </trkpt>
      <trkpt lat="43.68564" lon="4.29382">
        <ele>76.893</ele>
        <time>2016-12-26T19:26:51Z</time>
      </trkpt>
      <trkpt lat="43.68606" lon="4.29238">
        <ele>77.04</ele>
        <time>2016-12-26T19:27:11Z</time>
      </trkpt>
      <trkpt lat="43.68676" lon="4.29053">
        <ele>77.071</ele>
        <time>2016-12-26T19:27:31Z</time>
      </trkpt>
      <trkpt lat="43.68687" lon="4.28935">
        <ele>77.03</ele>
        <time>2016-12-26T19:27:51Z</time>
      </trkpt>
      <trkpt lat="43.6871" lon="4.28883">
        <ele>77.081</ele>
        <time>2016-12-26T19:28:11Z</time>
      </trkpt>
      <trkpt lat="43.68856" lon="4.28658">
        <ele>77.096</ele>
        <time>2016-12-26T19:28:31Z</time>
      </trkpt>
      <trkpt lat="43.68927" lon="4.28441">
        <ele>75.031</ele>
        <time>2016-12-26T19:28:51Z</time>
      </trkpt>
      <trkpt lat="43.68931" lon="4.28238">
        <ele>69.824</ele>
        <time>2016-12-26T19:29:11Z</time>
      </trkpt>
      <trkpt lat="43.68928" lon="4.28188">
        <ele>65.608</ele>
        <time>2016-12-26T19:29:31Z</time>
      </trkpt>
      <trkpt lat="43.68936" lon="4.28107">
        <ele>57.296</ele>
        <time>2016-12-26T19:29:51Z</time>
      </trkpt>
      <trkpt lat="43.68971" lon="4.27998">
        <ele>53.839</ele>
        <time>2016-12-26T19:30:11Z</time>
      </trkpt>
      <trkpt lat="43.69034" lon="4.2794">
        <ele>52.985</ele>
        <time>2016-12-26T19:30:31Z</time>
      </trkpt>
      <trkpt lat="43.691" lon="4.27923">
        <ele>49.674</ele>
        <time>2016-12-26T19:30:51Z</time>
      </trkpt>
      <trkpt lat="43.69189" lon="4.27921">
        <ele>44.421</ele>
        <time>2016-12-26T19:31:11Z</time>
      </trkpt>
      <trkpt lat="43.69215" lon="4.27763">
        <ele>38.222</ele>
        <time>2016-12-26T19:31:31Z</time>
      </trkpt>
      <trkpt lat="43.69231" lon="4.27731">
        <ele>41.751</ele>
        <time>2021-04-16T12:59:50Z</time>
      </trkpt>
      <trkpt lat="43.69258" lon="4.27381">
        <ele>30.012</ele>
        <time>2021-04-16T13:00:10Z</time>
      </trkpt>
      <trkpt lat="43.69383" lon="4.27034">
        <ele>20.467</ele>
        <time>2021-04-16T13:00:30Z</time>
      </trkpt>
      <trkpt lat="43.69572" lon="4.2712">
        <ele>20.681</ele>
        <time>2021-04-16T13:00:50Z</time>
      </trkpt>
      <trkpt lat="43.69713" lon="4.26855">
        <ele>15.319</ele>
        <time>2016-12-26T19:33:31Z</time>
      </trkpt>
      <trkpt lat="43.69772" lon="4.2677">
        <ele>15.008</ele>
        <time>2016-12-26T19:33:51Z</time>
      </trkpt>
      <trkpt lat="43.69773" lon="4.26766">
        <ele>15.063</ele>
        <time>2016-12-26T19:34:11Z</time>
      </trkpt>
      <trkpt lat="43.69856" lon="4.26573">
        <ele>13.036</ele>
        <time>2016-12-26T19:34:31Z</time>
      </trkpt>
      <trkpt lat="43.69961" lon="4.26299">
        <ele>11.452</ele>
        <time>2021-04-16T13:02:30Z</time>
      </trkpt>
      <trkpt lat="43.69994" lon="4.26166">
        <ele>11.251</ele>
        <time>2016-12-26T19:35:11Z</time>
      </trkpt>
      <trkpt lat="43.70021" lon="4.26126">
        <ele>11.098</ele>
        <time>2016-12-26T19:35:31Z</time>
      </trkpt>
      <trkpt lat="43.70116" lon="4.26019">
        <ele>10.049</ele>
        <time>2016-12-26T19:35:51Z</time>
      </trkpt>
      <trkpt lat="43.70234" lon="4.25823">
        <ele>8.828</ele>
        <time>2016-12-26T19:36:11Z</time>
      </trkpt>
      <trkpt lat="43.70344" lon="4.25691">
        <ele>8.469</ele>
        <time>2016-12-26T19:36:31Z</time>
      </trkpt>
      <trkpt lat="43.70431" lon="4.25623">
        <ele>9.058</ele>
        <time>2016-12-26T19:36:51Z</time>
      </trkpt>
      <trkpt lat="43.70517" lon="4.25613">
        <ele>9.052</ele>
        <time>2016-12-26T19:37:11Z</time>
      </trkpt>
      <trkpt lat="43.70581" lon="4.25558">
        <ele>9.017</ele>
        <time>2016-12-26T19:37:31Z</time>
      </trkpt>
      <trkpt lat="43.70545" lon="4.25427">
        <ele>9.008</ele>
        <time>2016-12-26T19:37:51Z</time>
      </trkpt>
      <trkpt lat="43.70556" lon="4.25413">
        <ele>9.052</ele>
        <time>2016-12-26T19:38:11Z</time>
      </trkpt>
      <trkpt lat="43.70552" lon="4.25383">
        <ele>9.015</ele>
        <time>2016-12-26T19:38:31Z</time>
      </trkpt>
      <trkpt lat="43.70577" lon="4.25334">
        <ele>9.081</ele>
        <time>2016-12-26T19:38:51Z</time>
      </trkpt>
      <trkpt lat="43.70581" lon="4.2531">
        <ele>9.07</ele>
        <time>2016-12-26T19:39:11Z</time>
      </trkpt>
      <trkpt lat="43.70591" lon="4.25293">
        <ele>9.067</ele>
        <time>2016-12-26T19:39:31Z</time>
      </trkpt>
      <trkpt lat="43.70638" lon="4.25281">
        <ele>9.058</ele>
        <time>2016-12-26T19:39:51Z</time>
      </trkpt>
      <trkpt lat="43.70693" lon="4.25235">
        <ele>10.077</ele>
        <time>2016-12-26T19:40:11Z</time>
      </trkpt>
      <trkpt lat="43.70742" lon="4.25227">
        <ele>10.028</ele>
        <time>2016-12-26T19:40:31Z</time>
      </trkpt>
      <trkpt lat="43.70755" lon="4.25212">
        <ele>10.068</ele>
        <time>2016-12-26T19:40:51Z</time>
      </trkpt>
      <trkpt lat="43.70756" lon="4.25125">
        <ele>10.042</ele>
        <time>2016-12-26T19:41:11Z</time>
      </trkpt>
      <trkpt lat="43.70827" lon="4.25023">
        <ele>10.826</ele>
        <time>2016-12-26T19:41:31Z</time>
      </trkpt>
      <trkpt lat="43.70697" lon="4.2489">
        <ele>10.008</ele>
        <time>2016-12-26T19:41:51Z</time>
      </trkpt>
      <trkpt lat="43.70632" lon="4.24851">
        <ele>10.073</ele>
        <time>2016-12-26T19:42:11Z</time>
      </trkpt>
      <trkpt lat="43.70543" lon="4.24816">
        <ele>10.086</ele>
        <time>2016-12-26T19:42:31Z</time>
      </trkpt>
      <trkpt lat="43.70182" lon="4.24558">
        <ele>8.082</ele>
        <time>2016-12-26T19:42:51Z</time>
      </trkpt>
      <trkpt lat="43.70135" lon="4.2451">
        <ele>8.021</ele>
        <time>2016-12-26T19:43:11Z</time>
      </trkpt>
      <trkpt lat="43.70029" lon="4.24444">
        <ele>8.018</ele>
        <time>2016-12-26T19:43:31Z</time>
      </trkpt>
      <trkpt lat="43.69937" lon="4.24429">
        <ele>7.439</ele>
        <time>2016-12-26T19:43:51Z</time>
      </trkpt>
      <trkpt lat="43.69833" lon="4.24385">
        <ele>7.238</ele>
        <time>2016-12-26T19:51:31Z</time>
      </trkpt>
      <trkpt lat="43.69748" lon="4.24321">
        <ele>7.019</ele>
        <time>2016-12-26T19:51:51Z</time>
      </trkpt>
      <trkpt lat="43.69774" lon="4.24192">
        <ele>8.012</ele>
        <time>2016-12-26T19:52:11Z</time>
      </trkpt>
      <trkpt lat="43.69817" lon="4.24063">
        <ele>9.032</ele>
        <time>2016-12-26T19:52:31Z</time>
      </trkpt>
      <trkpt lat="43.69901" lon="4.23904">
        <ele>9.005</ele>
        <time>2016-12-26T19:52:51Z</time>
      </trkpt>
      <trkpt lat="43.69996" lon="4.23753">
        <ele>10.008</ele>
        <time>2016-12-26T19:53:11Z</time>
      </trkpt>
      <trkpt lat="43.7005" lon="4.23644">
        <ele>10.018</ele>
        <time>2016-12-26T19:53:31Z</time>
      </trkpt>
      <trkpt lat="43.70263" lon="4.23365">
        <ele>11.011</ele>
        <time>2016-12-26T19:53:51Z</time>
      </trkpt>
      <trkpt lat="43.70374" lon="4.23228">
        <ele>10.747</ele>
        <time>2021-04-16T13:14:30Z</time>
      </trkpt>
      <trkpt lat="43.70611" lon="4.23107">
        <ele>10.636</ele>
        <time>2021-04-16T13:14:50Z</time>
      </trkpt>
      <trkpt lat="43.70722" lon="4.23027">
        <ele>12.053</ele>
        <time>2016-12-26T19:54:51Z</time>
      </trkpt>
      <trkpt lat="43.70937" lon="4.22948">
        <ele>12.174</ele>
        <time>2021-04-16T13:15:30Z</time>
      </trkpt>
      <trkpt lat="43.7123" lon="4.22821">
        <ele>11.943</ele>
        <time>2021-04-16T13:15:50Z</time>
      </trkpt>
      <trkpt lat="43.71433" lon="4.22756">
        <ele>13.034</ele>
        <time>2016-12-26T19:55:51Z</time>
      </trkpt>
      <trkpt lat="43.7173" lon="4.22655">
        <ele>14.018</ele>
        <time>2016-12-26T19:56:11Z</time>
      </trkpt>
      <trkpt lat="43.71914" lon="4.22601">
        <ele>16.598</ele>
        <time>2021-04-16T13:16:50Z</time>
      </trkpt>
      <trkpt lat="43.72108" lon="4.22522">
        <ele>15.017</ele>
        <time>2016-12-26T19:56:31Z</time>
      </trkpt>
      <trkpt lat="43.72379" lon="4.22399">
        <ele>17.108</ele>
        <time>2021-04-16T13:17:30Z</time>
      </trkpt>
      <trkpt lat="43.72525" lon="4.22348">
        <ele>16.088</ele>
        <time>2016-12-26T19:57:11Z</time>
      </trkpt>
      <trkpt lat="43.72633" lon="4.22287">
        <ele>17.021</ele>
        <time>2021-04-16T13:18:10Z</time>
      </trkpt>
      <trkpt lat="43.72801" lon="4.22094">
        <ele>21.157</ele>
        <time>2021-04-16T13:18:30Z</time>
      </trkpt>
      <trkpt lat="43.72932" lon="4.22026">
        <ele>17.076</ele>
        <time>2016-12-26T19:58:31Z</time>
      </trkpt>
      <trkpt lat="43.72887" lon="4.21795">
        <ele>15.013</ele>
        <time>2016-12-26T19:58:51Z</time>
      </trkpt>
      <trkpt lat="43.72846" lon="4.21713">
        <ele>15.084</ele>
        <time>2016-12-26T19:59:11Z</time>
      </trkpt>
      <trkpt lat="43.72791" lon="4.21524">
        <ele>17.033</ele>
        <time>2016-12-26T19:59:31Z</time>
      </trkpt>
      <trkpt lat="43.72779" lon="4.21282">
        <ele>19.054</ele>
        <time>2016-12-26T19:59:51Z</time>
      </trkpt>
      <trkpt lat="43.72829" lon="4.21192">
        <ele>19.828</ele>
        <time>2016-12-26T20:00:11Z</time>
      </trkpt>
      <trkpt lat="43.72897" lon="4.20932">
        <ele>17.389</ele>
        <time>2016-12-26T20:00:31Z</time>
      </trkpt>
      <trkpt lat="43.72918" lon="4.20803">
        <ele>18.017</ele>
        <time>2016-12-26T20:04:31Z</time>
      </trkpt>
      <trkpt lat="43.72911" lon="4.20698">
        <ele>18.008</ele>
        <time>2016-12-26T20:04:51Z</time>
      </trkpt>
      <trkpt lat="43.72951" lon="4.20619">
        <ele>19.079</ele>
        <time>2016-12-26T20:05:11Z</time>
      </trkpt>
      <trkpt lat="43.72942" lon="4.20593">
        <ele>18.332</ele>
        <time>2016-12-26T20:05:31Z</time>
      </trkpt>
      <trkpt lat="43.72917" lon="4.20494">
        <ele>18.038</ele>
        <time>2016-12-26T20:05:51Z</time>
      </trkpt>
      <trkpt lat="43.72883" lon="4.20374">
        <ele>18.017</ele>
        <time>2016-12-26T20:06:11Z</time>
      </trkpt>
      <trkpt lat="43.72821" lon="4.20114">
        <ele>18.564</ele>
        <time>2016-12-26T20:06:31Z</time>
      </trkpt>
      <trkpt lat="43.72804" lon="4.20005">
        <ele>18.065</ele>
        <time>2016-12-26T20:07:11Z</time>
      </trkpt>
      <trkpt lat="43.72799" lon="4.19902">
        <ele>18.844</ele>
        <time>2016-12-26T20:09:11Z</time>
      </trkpt>
      <trkpt lat="43.72638" lon="4.19327">
        <ele>20.025</ele>
        <time>2016-12-26T20:09:31Z</time>
      </trkpt>
      <trkpt lat="43.72422" lon="4.19428">
        <ele>18.067</ele>
        <time>2016-12-26T20:09:51Z</time>
      </trkpt>
      <trkpt lat="43.72354" lon="4.19477">
        <ele>17.781</ele>
        <time>2016-12-26T20:10:11Z</time>
      </trkpt>
      <trkpt lat="43.72213" lon="4.19537">
        <ele>17.219</ele>
        <time>2016-12-26T20:11:51Z</time>
      </trkpt>
      <trkpt lat="43.72218" lon="4.19326">
        <ele>17.008</ele>
        <time>2016-12-26T20:12:11Z</time>
      </trkpt>
      <trkpt lat="43.7223" lon="4.192">
        <ele>17.386</ele>
        <time>2016-12-26T20:12:51Z</time>
      </trkpt>
      <trkpt lat="43.72192" lon="4.18582">
        <ele>19.092</ele>
        <time>2016-12-26T20:13:11Z</time>
      </trkpt>
      <trkpt lat="43.72126" lon="4.18314">
        <ele>19.061</ele>
        <time>2021-04-16T13:26:50Z</time>
      </trkpt>
      <trkpt lat="43.72108" lon="4.18197">
        <ele>21.698</ele>
        <time>2021-04-16T13:27:10Z</time>
      </trkpt>
      <trkpt lat="43.71937" lon="4.17838">
        <ele>22.879</ele>
        <time>2021-04-16T13:27:30Z</time>
      </trkpt>
      <trkpt lat="43.71896" lon="4.17788">
        <ele>22.468</ele>
        <time>2021-04-16T13:27:50Z</time>
      </trkpt>
      <trkpt lat="43.71936" lon="4.17753">
        <ele>24.989</ele>
        <time>2021-04-16T13:28:10Z</time>
      </trkpt>
      <trkpt lat="43.71919" lon="4.17668">
        <ele>25.211</ele>
        <time>2016-12-26T20:14:51Z</time>
      </trkpt>
      <trkpt lat="43.72164" lon="4.17469">
        <ele>47.221</ele>
        <time>2021-04-16T13:28:50Z</time>
      </trkpt>
      <trkpt lat="43.72171" lon="4.17414">
        <ele>50.303</ele>
        <time>2021-04-16T13:29:10Z</time>
      </trkpt>
      <trkpt lat="43.72202" lon="4.17366">
        <ele>52.708</ele>
        <time>2016-12-26T20:15:51Z</time>
      </trkpt>
      <trkpt lat="43.72201" lon="4.1723">
        <ele>48.528</ele>
        <time>2016-12-26T20:16:11Z</time>
      </trkpt>
      <trkpt lat="43.72149" lon="4.17088">
        <ele>36.921</ele>
        <time>2016-12-26T20:16:31Z</time>
      </trkpt>
      <trkpt lat="43.72091" lon="4.16963">
        <ele>30.947</ele>
        <time>2016-12-26T20:16:51Z</time>
      </trkpt>
      <trkpt lat="43.72012" lon="4.16945">
        <ele>28.556</ele>
        <time>2016-12-26T20:17:11Z</time>
      </trkpt>
      <trkpt lat="43.71967" lon="4.1692">
        <ele>27.123</ele>
        <time>2016-12-26T20:17:31Z</time>
      </trkpt>
      <trkpt lat="43.71874" lon="4.169">
        <ele>25.574</ele>
        <time>2016-12-26T20:17:51Z</time>
      </trkpt>
      <trkpt lat="43.71807" lon="4.16784">
        <ele>21.353</ele>
        <time>2021-04-16T13:31:50Z</time>
      </trkpt>
      <trkpt lat="43.71745" lon="4.16718">
        <ele>19.074</ele>
        <time>2016-12-26T20:18:31Z</time>
      </trkpt>
      <trkpt lat="43.71693" lon="4.16653">
        <ele>14.776</ele>
        <time>2021-04-16T13:32:30Z</time>
      </trkpt>
      <trkpt lat="43.71592" lon="4.16423">
        <ele>13.19</ele>
        <time>2021-04-16T13:32:50Z</time>
      </trkpt>
      <trkpt lat="43.71496" lon="4.16247">
        <ele>15.019</ele>
        <time>2016-12-26T20:48:11Z</time>
      </trkpt>
      <trkpt lat="43.71503" lon="4.16186">
        <ele>15.008</ele>
        <time>2016-12-26T20:48:31Z</time>
      </trkpt>
      <trkpt lat="43.71496" lon="4.1612">
        <ele>15.014</ele>
        <time>2016-12-26T20:48:51Z</time>
      </trkpt>
      <trkpt lat="43.71469" lon="4.1598">
        <ele>15.077</ele>
        <time>2016-12-26T20:49:11Z</time>
      </trkpt>
      <trkpt lat="43.71379" lon="4.15789">
        <ele>12.163</ele>
        <time>2021-04-16T13:34:30Z</time>
      </trkpt>
      <trkpt lat="43.71423" lon="4.15694">
        <ele>12.392</ele>
        <time>2021-04-16T13:34:50Z</time>
      </trkpt>
      <trkpt lat="43.71567" lon="4.1559">
        <ele>15.029</ele>
        <time>2016-12-26T20:50:11Z</time>
      </trkpt>
      <trkpt lat="43.71932" lon="4.15366">
        <ele>12.68</ele>
        <time>2021-04-16T13:35:30Z</time>
      </trkpt>
      <trkpt lat="43.72299" lon="4.15172">
        <ele>14.729</ele>
        <time>2021-04-16T13:35:50Z</time>
      </trkpt>
      <trkpt lat="43.72319" lon="4.15143">
        <ele>15.17</ele>
        <time>2016-12-26T20:50:51Z</time>
      </trkpt>
      <trkpt lat="43.7237" lon="4.15124">
        <ele>15.579</ele>
        <time>2016-12-26T20:51:11Z</time>
      </trkpt>
      <trkpt lat="43.7244" lon="4.15135">
        <ele>17.905</ele>
        <time>2021-04-16T13:36:50Z</time>
      </trkpt>
      <trkpt lat="43.72583" lon="4.15075">
        <ele>19.025</ele>
        <time>2016-12-26T20:52:11Z</time>
      </trkpt>
      <trkpt lat="43.72627" lon="4.15011">
        <ele>19.008</ele>
        <time>2016-12-26T20:52:31Z</time>
      </trkpt>
      <trkpt lat="43.72616" lon="4.14898">
        <ele>16.434</ele>
        <time>2016-12-26T20:52:51Z</time>
      </trkpt>
      <trkpt lat="43.72772" lon="4.1478">
        <ele>17.057</ele>
        <time>2016-12-26T20:53:11Z</time>
      </trkpt>
      <trkpt lat="43.73061" lon="4.14721">
        <ele>16.063</ele>
        <time>2016-12-26T20:53:31Z</time>
      </trkpt>
      <trkpt lat="43.73218" lon="4.14676">
        <ele>16.012</ele>
        <time>2016-12-26T20:53:51Z</time>
      </trkpt>
      <trkpt lat="43.73289" lon="4.14638">
        <ele>16.019</ele>
        <time>2016-12-26T20:54:11Z</time>
      </trkpt>
      <trkpt lat="43.73428" lon="4.1452">
        <ele>15.01</ele>
        <time>2016-12-26T20:54:31Z</time>
      </trkpt>
      <trkpt lat="43.73552" lon="4.14473">
        <ele>15.019</ele>
        <time>2016-12-26T20:54:51Z</time>
      </trkpt>
      <trkpt lat="43.73604" lon="4.14437">
        <ele>15.01</ele>
        <time>2016-12-26T20:55:11Z</time>
      </trkpt>
      <trkpt lat="43.73645" lon="4.14413">
        <ele>15.017</ele>
        <time>2016-12-26T20:55:31Z</time>
      </trkpt>
      <trkpt lat="43.73679" lon="4.14384">
        <ele>15.087</ele>
        <time>2016-12-26T20:55:51Z</time>
      </trkpt>
      <trkpt lat="43.73658" lon="4.14357">
        <ele>15.015</ele>
        <time>2016-12-26T20:56:11Z</time>
      </trkpt>
      <trkpt lat="43.73516" lon="4.14075">
        <ele>18.008</ele>
        <time>2016-12-26T20:56:31Z</time>
      </trkpt>
      <trkpt lat="43.73488" lon="4.14">
        <ele>19.458</ele>
        <time>2016-12-26T20:56:51Z</time>
      </trkpt>
      <trkpt lat="43.73467" lon="4.13986">
        <ele>20.011</ele>
        <time>2016-12-26T20:57:11Z</time>
      </trkpt>
      <trkpt lat="43.73436" lon="4.14003">
        <ele>20.017</ele>
        <time>2016-12-26T20:57:31Z</time>
      </trkpt>
      <trkpt lat="43.73368" lon="4.14017">
        <ele>20.056</ele>
        <time>2016-12-26T20:57:51Z</time>
      </trkpt>
      <trkpt lat="43.73368" lon="4.13944">
        <ele>20.853</ele>
        <time>2016-12-26T20:58:11Z</time>
      </trkpt>
      <trkpt lat="43.73402" lon="4.1389">
        <ele>20.044</ele>
        <time>2016-12-26T20:58:31Z</time>
      </trkpt>
      <trkpt lat="43.73434" lon="4.13808">
        <ele>20.053</ele>
        <time>2016-12-26T20:58:51Z</time>
      </trkpt>
      <trkpt lat="43.73437" lon="4.13722">
        <ele>21.024</ele>
        <time>2016-12-26T20:59:11Z</time>
      </trkpt>
      <trkpt lat="43.73452" lon="4.13608">
        <ele>22.819</ele>
        <time>2016-12-26T20:59:31Z</time>
      </trkpt>
      <trkpt lat="43.73448" lon="4.13502">
        <ele>24.909</ele>
        <time>2016-12-26T20:59:51Z</time>
      </trkpt>
      <trkpt lat="43.73437" lon="4.1341">
        <ele>26.619</ele>
        <time>2016-12-26T21:00:11Z</time>
      </trkpt>
      <trkpt lat="43.7346" lon="4.13384">
        <ele>25.108</ele>
        <time>2016-12-26T21:00:31Z</time>
      </trkpt>
      <trkpt lat="43.73494" lon="4.13311">
        <ele>25.878</ele>
        <time>2016-12-26T21:00:51Z</time>
      </trkpt>
      <trkpt lat="43.73533" lon="4.1325">
        <ele>28.031</ele>
        <time>2016-12-26T21:01:11Z</time>
      </trkpt>
      <trkpt lat="43.73561" lon="4.13229">
        <ele>28.497</ele>
        <time>2016-12-26T21:01:31Z</time>
      </trkpt>
      <trkpt lat="43.736" lon="4.13175">
        <ele>27.236</ele>
        <time>2016-12-26T21:01:51Z</time>
      </trkpt>
      <trkpt lat="43.73689" lon="4.13113">
        <ele>23.493</ele>
        <time>2016-12-26T21:02:11Z</time>
      </trkpt>
      <trkpt lat="43.73704" lon="4.13042">
        <ele>24.444</ele>
        <time>2016-12-26T21:02:31Z</time>
      </trkpt>
      <trkpt lat="43.73734" lon="4.12954">
        <ele>28.743</ele>
        <time>2021-04-16T13:47:50Z</time>
      </trkpt>
      <trkpt lat="43.73729" lon="4.12926">
        <ele>30.334</ele>
        <time>2021-04-16T13:48:10Z</time>
      </trkpt>
      <trkpt lat="43.73691" lon="4.12971">
        <ele>30.214</ele>
        <time>2016-12-26T21:03:31Z</time>
      </trkpt>
      <trkpt lat="43.73615" lon="4.12943">
        <ele>34.954</ele>
        <time>2016-12-26T21:03:51Z</time>
      </trkpt>
      <trkpt lat="43.73591" lon="4.12906">
        <ele>37.309</ele>
        <time>2016-12-26T21:04:11Z</time>
      </trkpt>
      <trkpt lat="43.73458" lon="4.1279">
        <ele>49.108</ele>
        <time>2016-12-26T21:04:31Z</time>
      </trkpt>
      <trkpt lat="43.73446" lon="4.1279">
        <ele>49.558</ele>
        <time>2016-12-26T21:04:51Z</time>
      </trkpt>
      <trkpt lat="43.73421" lon="4.12771">
        <ele>52.821</ele>
        <time>2016-12-26T21:05:11Z</time>
      </trkpt>
      <trkpt lat="43.73419" lon="4.12738">
        <ele>53.957</ele>
        <time>2016-12-26T21:05:31Z</time>
      </trkpt>
      <trkpt lat="43.73646" lon="4.12736">
        <ele>64.976</ele>
        <time>2016-12-26T21:05:51Z</time>
      </trkpt>
      <trkpt lat="43.73672" lon="4.12708">
        <ele>63.943</ele>
        <time>2016-12-26T21:06:11Z</time>
      </trkpt>
      <trkpt lat="43.73704" lon="4.12697">
        <ele>59.364</ele>
        <time>2016-12-26T21:06:31Z</time>
      </trkpt>
      <trkpt lat="43.7371" lon="4.12626">
        <ele>58.393</ele>
        <time>2016-12-26T21:06:51Z</time>
      </trkpt>
      <trkpt lat="43.73693" lon="4.12592">
        <ele>60.464</ele>
        <time>2016-12-26T21:07:11Z</time>
      </trkpt>
      <trkpt lat="43.73714" lon="4.12586">
        <ele>57.932</ele>
        <time>2016-12-26T21:07:31Z</time>
      </trkpt>
      <trkpt lat="43.73714" lon="4.12555">
        <ele>59.392</ele>
        <time>2016-12-26T21:07:51Z</time>
      </trkpt>
      <trkpt lat="43.73743" lon="4.12547">
        <ele>57.011</ele>
        <time>2016-12-26T21:08:11Z</time>
      </trkpt>
      <trkpt lat="43.73764" lon="4.12529">
        <ele>55.008</ele>
        <time>2016-12-26T21:08:31Z</time>
      </trkpt>
      <trkpt lat="43.73776" lon="4.12486">
        <ele>54.62</ele>
        <time>2016-12-26T21:08:51Z</time>
      </trkpt>
      <trkpt lat="43.73773" lon="4.12441">
        <ele>54.233</ele>
        <time>2016-12-26T21:09:11Z</time>
      </trkpt>
      <trkpt lat="43.73785" lon="4.12398">
        <ele>47.269</ele>
        <time>2016-12-26T21:09:31Z</time>
      </trkpt>
      <trkpt lat="43.7378" lon="4.12372">
        <ele>40.978</ele>
        <time>2016-12-26T21:09:51Z</time>
      </trkpt>
      <trkpt lat="43.737" lon="4.12345">
        <ele>50.095</ele>
        <time>2016-12-26T21:10:11Z</time>
      </trkpt>
      <trkpt lat="43.73683" lon="4.12304">
        <ele>42.366</ele>
        <time>2016-12-26T21:10:31Z</time>
      </trkpt>
      <trkpt lat="43.73658" lon="4.12273">
        <ele>38.055</ele>
        <time>2016-12-26T21:10:51Z</time>
      </trkpt>
      <trkpt lat="43.73645" lon="4.12219">
        <ele>29.596</ele>
        <time>2016-12-26T21:11:11Z</time>
      </trkpt>
      <trkpt lat="43.7362" lon="4.12188">
        <ele>27.317</ele>
        <time>2016-12-26T21:11:31Z</time>
      </trkpt>
      <trkpt lat="43.73587" lon="4.12112">
        <ele>21.687</ele>
        <time>2016-12-26T21:11:51Z</time>
      </trkpt>
      <trkpt lat="43.73606" lon="4.12107">
        <ele>18.615</ele>
        <time>2016-12-26T21:12:11Z</time>
      </trkpt>
      <trkpt lat="43.73573" lon="4.1207">
        <ele>18.208</ele>
        <time>2016-12-26T21:12:31Z</time>
      </trkpt>
      <trkpt lat="43.73526" lon="4.1206">
        <ele>18.438</ele>
        <time>2016-12-26T21:12:51Z</time>
      </trkpt>
      <trkpt lat="43.73484" lon="4.12066">
        <ele>18.931</ele>
        <time>2016-12-26T21:13:11Z</time>
      </trkpt>
      <trkpt lat="43.73484" lon="4.12142">
        <ele>21.967</ele>
        <time>2016-12-26T21:13:31Z</time>
      </trkpt>
      <trkpt lat="43.73448" lon="4.1217">
        <ele>19.436</ele>
        <time>2016-12-26T21:13:51Z</time>
      </trkpt>
      <trkpt lat="43.73344" lon="4.12176">
        <ele>19.393</ele>
        <time>2016-12-26T21:14:11Z</time>
      </trkpt>
      <trkpt lat="43.73324" lon="4.12058">
        <ele>19.034</ele>
        <time>2016-12-26T21:14:31Z</time>
      </trkpt>
      <trkpt lat="43.73267" lon="4.11935">
        <ele>20.063</ele>
        <time>2016-12-26T21:14:51Z</time>
      </trkpt>
      <trkpt lat="43.73227" lon="4.11905">
        <ele>20.044</ele>
        <time>2016-12-26T21:15:11Z</time>
      </trkpt>
      <trkpt lat="43.73207" lon="4.11863">
        <ele>20.028</ele>
        <time>2016-12-26T21:15:31Z</time>
      </trkpt>
      <trkpt lat="43.73157" lon="4.11849">
        <ele>20.089</ele>
        <time>2016-12-26T21:15:51Z</time>
      </trkpt>
      <trkpt lat="43.73115" lon="4.11845">
        <ele>20.017</ele>
        <time>2016-12-26T21:16:31Z</time>
      </trkpt>
      <trkpt lat="43.72979" lon="4.11681">
        <ele>20.908</ele>
        <time>2016-12-26T21:16:51Z</time>
      </trkpt>
      <trkpt lat="43.72916" lon="4.11673">
        <ele>21.829</ele>
        <time>2016-12-26T21:17:11Z</time>
      </trkpt>
      <trkpt lat="43.72651" lon="4.11565">
        <ele>24.312</ele>
        <time>2016-12-26T21:17:31Z</time>
      </trkpt>
      <trkpt lat="43.72641" lon="4.11529">
        <ele>25.098</ele>
        <time>2016-12-26T21:17:51Z</time>
      </trkpt>
      <trkpt lat="43.72548" lon="4.11495">
        <ele>27.687</ele>
        <time>2016-12-26T21:18:11Z</time>
      </trkpt>
      <trkpt lat="43.72476" lon="4.11496">
        <ele>26.684</ele>
        <time>2016-12-26T21:18:31Z</time>
      </trkpt>
      <trkpt lat="43.72428" lon="4.11488">
        <ele>27.395</ele>
        <time>2016-12-26T21:18:51Z</time>
      </trkpt>
      <trkpt lat="43.72315" lon="4.11484">
        <ele>28.324</ele>
        <time>2016-12-26T21:19:11Z</time>
      </trkpt>
      <trkpt lat="43.72315" lon="4.11414">
        <ele>30.085</ele>
        <time>2016-12-26T21:19:31Z</time>
      </trkpt>
      <trkpt lat="43.72255" lon="4.11413">
        <ele>29.385</ele>
        <time>2016-12-26T21:19:51Z</time>
      </trkpt>
      <trkpt lat="43.72229" lon="4.11395">
        <ele>29.689</ele>
        <time>2016-12-26T21:20:11Z</time>
      </trkpt>
      <trkpt lat="43.72194" lon="4.11383">
        <ele>29.217</ele>
        <time>2016-12-26T21:20:31Z</time>
      </trkpt>
      <trkpt lat="43.72168" lon="4.11351">
        <ele>30.408</ele>
        <time>2016-12-26T21:20:51Z</time>
      </trkpt>
      <trkpt lat="43.72129" lon="4.11335">
        <ele>31.025</ele>
        <time>2016-12-26T21:21:11Z</time>
      </trkpt>
      <trkpt lat="43.7211" lon="4.11291">
        <ele>32.678</ele>
        <time>2016-12-26T21:21:31Z</time>
      </trkpt>
      <trkpt lat="43.72077" lon="4.11271">
        <ele>34.364</ele>
        <time>2016-12-26T21:21:51Z</time>
      </trkpt>
      <trkpt lat="43.72043" lon="4.11127">
        <ele>35.413</ele>
        <time>2016-12-26T21:22:11Z</time>
      </trkpt>
      <trkpt lat="43.7201" lon="4.11133">
        <ele>36.17</ele>
        <time>2016-12-26T21:22:31Z</time>
      </trkpt>
      <trkpt lat="43.7197" lon="4.10932">
        <ele>42.861</ele>
        <time>2016-12-26T21:22:51Z</time>
      </trkpt>
      <trkpt lat="43.71962" lon="4.1082">
        <ele>47.91</ele>
        <time>2016-12-26T21:23:11Z</time>
      </trkpt>
      <trkpt lat="43.71948" lon="4.10786">
        <ele>52.561</ele>
        <time>2016-12-26T21:23:31Z</time>
      </trkpt>
      <trkpt lat="43.71844" lon="4.10648">
        <ele>55.014</ele>
        <time>2016-12-26T21:23:51Z</time>
      </trkpt>
      <trkpt lat="43.71771" lon="4.10464">
        <ele>58.554</ele>
        <time>2016-12-26T21:24:11Z</time>
      </trkpt>
      <trkpt lat="43.71739" lon="4.10416">
        <ele>59.609</ele>
        <time>2016-12-26T21:24:31Z</time>
      </trkpt>
      <trkpt lat="43.71673" lon="4.1017">
        <ele>50.208</ele>
        <time>2016-12-26T21:24:51Z</time>
      </trkpt>
      <trkpt lat="43.71675" lon="4.10107">
        <ele>50.318</ele>
        <time>2016-12-26T21:25:11Z</time>
      </trkpt>
      <trkpt lat="43.71667" lon="4.10083">
        <ele>50.051</ele>
        <time>2016-12-26T21:25:31Z</time>
      </trkpt>
      <trkpt lat="43.71632" lon="4.10111">
        <ele>48.537</ele>
        <time>2016-12-26T21:25:51Z</time>
      </trkpt>
      <trkpt lat="43.71538" lon="4.10094">
        <ele>43.666</ele>
        <time>2016-12-26T21:26:11Z</time>
      </trkpt>
      <trkpt lat="43.71506" lon="4.10025">
        <ele>39.423</ele>
        <time>2016-12-26T21:26:31Z</time>
      </trkpt>
      <trkpt lat="43.71438" lon="4.09891">
        <ele>33.944</ele>
        <time>2016-12-26T21:26:51Z</time>
      </trkpt>
      <trkpt lat="43.71392" lon="4.09749">
        <ele>31.193</ele>
        <time>2016-12-26T21:27:11Z</time>
      </trkpt>
      <trkpt lat="43.71331" lon="4.09627">
        <ele>30.454</ele>
        <time>2016-12-26T21:27:31Z</time>
      </trkpt>
      <trkpt lat="43.7131" lon="4.09535">
        <ele>33.083</ele>
        <time>2016-12-26T21:27:51Z</time>
      </trkpt>
      <trkpt lat="43.71388" lon="4.09491">
        <ele>35.025</ele>
        <time>2016-12-26T21:28:11Z</time>
      </trkpt>
      <trkpt lat="43.71476" lon="4.09421">
        <ele>35.017</ele>
        <time>2016-12-26T21:28:31Z</time>
      </trkpt>
      <trkpt lat="43.71537" lon="4.09397">
        <ele>35.008</ele>
        <time>2016-12-26T21:28:51Z</time>
      </trkpt>
      <trkpt lat="43.71524" lon="4.09199">
        <ele>35.995</ele>
        <time>2016-12-26T21:29:11Z</time>
      </trkpt>
      <trkpt lat="43.71612" lon="4.09169">
        <ele>37.198</ele>
        <time>2016-12-26T21:29:31Z</time>
      </trkpt>
      <trkpt lat="43.71726" lon="4.09177">
        <ele>39.554</ele>
        <time>2016-12-26T21:30:31Z</time>
      </trkpt>
      <trkpt lat="43.71851" lon="4.09145">
        <ele>40.193</ele>
        <time>2016-12-26T21:30:51Z</time>
      </trkpt>
      <trkpt lat="43.71935" lon="4.09183">
        <ele>44.34</ele>
        <time>2016-12-26T21:31:11Z</time>
      </trkpt>
      <trkpt lat="43.71946" lon="4.09143">
        <ele>44.211</ele>
        <time>2016-12-26T21:31:31Z</time>
      </trkpt>
      <trkpt lat="43.72119" lon="4.08818">
        <ele>39.07</ele>
        <time>2016-12-26T21:31:51Z</time>
      </trkpt>
      <trkpt lat="43.72187" lon="4.08666">
        <ele>40.481</ele>
        <time>2016-12-26T21:32:11Z</time>
      </trkpt>
      <trkpt lat="43.72243" lon="4.08604">
        <ele>42.511</ele>
        <time>2016-12-26T21:33:11Z</time>
      </trkpt>
      <trkpt lat="43.72297" lon="4.086">
        <ele>44.721</ele>
        <time>2016-12-26T21:33:31Z</time>
      </trkpt>
      <trkpt lat="43.72354" lon="4.08518">
        <ele>46.203</ele>
        <time>2016-12-26T21:33:51Z</time>
      </trkpt>
      <trkpt lat="43.72373" lon="4.0847">
        <ele>45.808</ele>
        <time>2016-12-26T21:38:51Z</time>
      </trkpt>
      <trkpt lat="43.72467" lon="4.08326">
        <ele>47.518</ele>
        <time>2016-12-26T21:39:11Z</time>
      </trkpt>
      <trkpt lat="43.72511" lon="4.08244">
        <ele>47.121</ele>
        <time>2016-12-26T21:39:51Z</time>
      </trkpt>
      <trkpt lat="43.72534" lon="4.08298">
        <ele>48.287</ele>
        <time>2016-12-26T21:41:51Z</time>
      </trkpt>
      <trkpt lat="43.72577" lon="4.08236">
        <ele>48.996</ele>
        <time>2016-12-26T21:42:11Z</time>
      </trkpt>
      <trkpt lat="43.72577" lon="4.08196">
        <ele>49.823</ele>
        <time>2016-12-26T21:42:31Z</time>
      </trkpt>
      <trkpt lat="43.72603" lon="4.08196">
        <ele>50.054</ele>
        <time>2016-12-26T21:42:51Z</time>
      </trkpt>
      <trkpt lat="43.72626" lon="4.08105">
        <ele>53.833</ele>
        <time>2016-12-26T21:43:11Z</time>
      </trkpt>
      <trkpt lat="43.72676" lon="4.08091">
        <ele>58.454</ele>
        <time>2016-12-26T21:43:31Z</time>
      </trkpt>
      <trkpt lat="43.72665" lon="4.07993">
        <ele>68.696</ele>
        <time>2021-04-16T14:20:30Z</time>
      </trkpt>
      <trkpt lat="43.72715" lon="4.08021">
        <ele>70.431</ele>
        <time>2021-04-16T14:20:50Z</time>
      </trkpt>
      <trkpt lat="43.72746" lon="4.07953">
        <ele>76.024</ele>
        <time>2021-04-16T14:21:10Z</time>
      </trkpt>
      <trkpt lat="43.72743" lon="4.07932">
        <ele>76.508</ele>
        <time>2021-04-16T14:21:30Z</time>
      </trkpt>
      <trkpt lat="43.72698" lon="4.07914">
        <ele>76.926</ele>
        <time>2021-04-16T14:21:50Z</time>
      </trkpt>
      <trkpt lat="43.72664" lon="4.0794">
        <ele>74.249</ele>
        <time>2021-04-16T14:22:10Z</time>
      </trkpt>
      <trkpt lat="43.72608" lon="4.07883">
        <ele>70.045</ele>
        <time>2016-12-26T21:44:11Z</time>
      </trkpt>
      <trkpt lat="43.72587" lon="4.07871">
        <ele>70.074</ele>
        <time>2016-12-26T21:44:31Z</time>
      </trkpt>
      <trkpt lat="43.72502" lon="4.07763">
        <ele>65.251</ele>
        <time>2016-12-26T21:44:51Z</time>
      </trkpt>
      <trkpt lat="43.72451" lon="4.07665">
        <ele>61.182</ele>
        <time>2016-12-26T21:45:11Z</time>
      </trkpt>
      <trkpt lat="43.72421" lon="4.07593">
        <ele>54.751</ele>
        <time>2021-04-16T14:23:50Z</time>
      </trkpt>
      <trkpt lat="43.72362" lon="4.07479">
        <ele>49.072</ele>
        <time>2016-12-26T21:45:51Z</time>
      </trkpt>
      <trkpt lat="43.72311" lon="4.07447">
        <ele>48.998</ele>
        <time>2016-12-26T21:46:11Z</time>
      </trkpt>
      <trkpt lat="43.72328" lon="4.07387">
        <ele>50.215</ele>
        <time>2016-12-26T21:46:31Z</time>
      </trkpt>
      <trkpt lat="43.7226" lon="4.07359">
        <ele>52.326</ele>
        <time>2016-12-26T21:46:51Z</time>
      </trkpt>
      <trkpt lat="43.72134" lon="4.07287">
        <ele>50.708</ele>
        <time>2016-12-26T21:47:11Z</time>
      </trkpt>
      <trkpt lat="43.72088" lon="4.07186">
        <ele>53.376</ele>
        <time>2016-12-26T21:47:31Z</time>
      </trkpt>
      <trkpt lat="43.72058" lon="4.07116">
        <ele>54.989</ele>
        <time>2016-12-26T21:47:51Z</time>
      </trkpt>
      <trkpt lat="43.71994" lon="4.0701">
        <ele>61.755</ele>
        <time>2016-12-26T21:48:11Z</time>
      </trkpt>
      <trkpt lat="43.71889" lon="4.06882">
        <ele>63.434</ele>
        <time>2016-12-26T21:48:31Z</time>
      </trkpt>
      <trkpt lat="43.71829" lon="4.06744">
        <ele>55.551</ele>
        <time>2016-12-26T21:48:51Z</time>
      </trkpt>
      <trkpt lat="43.71747" lon="4.06694">
        <ele>50.982</ele>
        <time>2016-12-26T21:49:11Z</time>
      </trkpt>
      <trkpt lat="43.71686" lon="4.06674">
        <ele>49.461</ele>
        <time>2016-12-26T21:49:31Z</time>
      </trkpt>
      <trkpt lat="43.71566" lon="4.06602">
        <ele>46.292</ele>
        <time>2016-12-26T21:49:51Z</time>
      </trkpt>
      <trkpt lat="43.71433" lon="4.06812">
        <ele>42.037</ele>
        <time>2016-12-26T21:50:11Z</time>
      </trkpt>
      <trkpt lat="43.70973" lon="4.0668">
        <ele>37.049</ele>
        <time>2016-12-26T21:50:31Z</time>
      </trkpt>
      <trkpt lat="43.70919" lon="4.06662">
        <ele>37.013</ele>
        <time>2016-12-26T21:50:51Z</time>
      </trkpt>
      <trkpt lat="43.70515" lon="4.0658">
        <ele>38.508</ele>
        <time>2016-12-26T21:51:11Z</time>
      </trkpt>
      <trkpt lat="43.70389" lon="4.06562">
        <ele>38.29</ele>
        <time>2016-12-26T21:51:31Z</time>
      </trkpt>
      <trkpt lat="43.70478" lon="4.0641">
        <ele>40.033</ele>
        <time>2016-12-26T21:51:51Z</time>
      </trkpt>
      <trkpt lat="43.70511" lon="4.06375">
        <ele>43.299</ele>
        <time>2021-04-16T14:30:30Z</time>
      </trkpt>
      <trkpt lat="43.70511" lon="4.06356">
        <ele>43.838</ele>
        <time>2021-04-16T14:30:50Z</time>
      </trkpt>
      <trkpt lat="43.7055" lon="4.06306">
        <ele>45.085</ele>
        <time>2021-04-16T14:31:10Z</time>
      </trkpt>
      <trkpt lat="43.7054" lon="4.06192">
        <ele>40.856</ele>
        <time>2021-04-16T14:31:30Z</time>
      </trkpt>
      <trkpt lat="43.70499" lon="4.06071">
        <ele>36.295</ele>
        <time>2016-12-26T21:52:51Z</time>
      </trkpt>
      <trkpt lat="43.7046" lon="4.05981">
        <ele>35.076</ele>
        <time>2016-12-26T21:53:11Z</time>
      </trkpt>
      <trkpt lat="43.70437" lon="4.05967">
        <ele>35.082</ele>
        <time>2016-12-26T21:53:31Z</time>
      </trkpt>
      <trkpt lat="43.70404" lon="4.05875">
        <ele>35.043</ele>
        <time>2016-12-26T21:53:51Z</time>
      </trkpt>
      <trkpt lat="43.70313" lon="4.05754">
        <ele>33.717</ele>
        <time>2021-04-16T14:33:10Z</time>
      </trkpt>
      <trkpt lat="43.70258" lon="4.05663">
        <ele>34.008</ele>
        <time>2016-12-26T21:54:11Z</time>
      </trkpt>
      <trkpt lat="43.70175" lon="4.05595">
        <ele>36.645</ele>
        <time>2016-12-26T21:54:31Z</time>
      </trkpt>
      <trkpt lat="43.70139" lon="4.05513">
        <ele>40.068</ele>
        <time>2016-12-26T21:54:51Z</time>
      </trkpt>
      <trkpt lat="43.70101" lon="4.05489">
        <ele>40.184</ele>
        <time>2016-12-26T21:55:11Z</time>
      </trkpt>
      <trkpt lat="43.70069" lon="4.05501">
        <ele>40.543</ele>
        <time>2016-12-26T21:55:31Z</time>
      </trkpt>
      <trkpt lat="43.7004" lon="4.05469">
        <ele>41.73</ele>
        <time>2016-12-26T21:55:51Z</time>
      </trkpt>
      <trkpt lat="43.70004" lon="4.05447">
        <ele>44.641</ele>
        <time>2016-12-26T21:56:11Z</time>
      </trkpt>
      <trkpt lat="43.69984" lon="4.05399">
        <ele>45.49</ele>
        <time>2016-12-26T21:56:31Z</time>
      </trkpt>
      <trkpt lat="43.6988" lon="4.05275">
        <ele>55.021</ele>
        <time>2016-12-26T21:56:51Z</time>
      </trkpt>
      <trkpt lat="43.69845" lon="4.05234">
        <ele>57.751</ele>
        <time>2016-12-26T21:57:11Z</time>
      </trkpt>
      <trkpt lat="43.69803" lon="4.05164">
        <ele>58.801</ele>
        <time>2016-12-26T21:57:31Z</time>
      </trkpt>
      <trkpt lat="43.69805" lon="4.05136">
        <ele>59.011</ele>
        <time>2016-12-26T21:57:51Z</time>
      </trkpt>
      <trkpt lat="43.69833" lon="4.05088">
        <ele>58.008</ele>
        <time>2016-12-26T21:58:11Z</time>
      </trkpt>
      <trkpt lat="43.69786" lon="4.05014">
        <ele>59.722</ele>
        <time>2016-12-26T21:58:31Z</time>
      </trkpt>
      <trkpt lat="43.69787" lon="4.0498">
        <ele>60.155</ele>
        <time>2016-12-26T21:58:51Z</time>
      </trkpt>
      <trkpt lat="43.69755" lon="4.04908">
        <ele>63.151</ele>
        <time>2016-12-26T21:59:11Z</time>
      </trkpt>
      <trkpt lat="43.69729" lon="4.04876">
        <ele>64.32</ele>
        <time>2016-12-26T21:59:31Z</time>
      </trkpt>
      <trkpt lat="43.69687" lon="4.0475">
        <ele>63.597</ele>
        <time>2016-12-26T21:59:51Z</time>
      </trkpt>
      <trkpt lat="43.69694" lon="4.0462">
        <ele>60.318</ele>
        <time>2016-12-26T22:00:11Z</time>
      </trkpt>
      <trkpt lat="43.69723" lon="4.04506">
        <ele>58.237</ele>
        <time>2016-12-26T22:00:31Z</time>
      </trkpt>
      <trkpt lat="43.69721" lon="4.04396">
        <ele>54.188</ele>
        <time>2016-12-26T22:00:51Z</time>
      </trkpt>
      <trkpt lat="43.69749" lon="4.04291">
        <ele>49.556</ele>
        <time>2016-12-26T22:01:11Z</time>
      </trkpt>
      <trkpt lat="43.69752" lon="4.04157">
        <ele>44.059</ele>
        <time>2016-12-26T22:01:31Z</time>
      </trkpt>
      <trkpt lat="43.69835" lon="4.04141">
        <ele>45.014</ele>
        <time>2016-12-26T22:01:51Z</time>
      </trkpt>
      <trkpt lat="43.69842" lon="4.04109">
        <ele>45.008</ele>
        <time>2016-12-26T22:02:11Z</time>
      </trkpt>
      <trkpt lat="43.6981" lon="4.04074">
        <ele>43.862</ele>
        <time>2021-04-16T14:41:50Z</time>
      </trkpt>
      <trkpt lat="43.69815" lon="4.03935">
        <ele>45.085</ele>
        <time>2016-12-26T22:02:51Z</time>
      </trkpt>
      <trkpt lat="43.69809" lon="4.03891">
        <ele>45.821</ele>
        <time>2016-12-26T22:03:11Z</time>
      </trkpt>
      <trkpt lat="43.69825" lon="4.03859">
        <ele>46.11</ele>
        <time>2016-12-26T22:03:31Z</time>
      </trkpt>
      <trkpt lat="43.69823" lon="4.03755">
        <ele>53.577</ele>
        <time>2016-12-26T22:03:51Z</time>
      </trkpt>
      <trkpt lat="43.69799" lon="4.03667">
        <ele>58.568</ele>
        <time>2016-12-26T22:04:11Z</time>
      </trkpt>
      <trkpt lat="43.69713" lon="4.03571">
        <ele>59.967</ele>
        <time>2016-12-26T22:04:31Z</time>
      </trkpt>
      <trkpt lat="43.69673" lon="4.03504">
        <ele>63.218</ele>
        <time>2021-04-16T14:44:10Z</time>
      </trkpt>
      <trkpt lat="43.69657" lon="4.03419">
        <ele>61.561</ele>
        <time>2021-04-16T14:44:30Z</time>
      </trkpt>
      <trkpt lat="43.6963" lon="4.03427">
        <ele>57.321</ele>
        <time>2021-04-16T14:44:50Z</time>
      </trkpt>
      <trkpt lat="43.69664" lon="4.03577">
        <ele>63.513</ele>
        <time>2021-04-16T14:45:10Z</time>
      </trkpt>
      <trkpt lat="43.69666" lon="4.03613">
        <ele>56.908</ele>
        <time>2016-12-26T22:05:31Z</time>
      </trkpt>
      <trkpt lat="43.6959" lon="4.03634">
        <ele>48.563</ele>
        <time>2016-12-26T22:05:51Z</time>
      </trkpt>
      <trkpt lat="43.69558" lon="4.03855">
        <ele>42.046</ele>
        <time>2016-12-26T22:06:11Z</time>
      </trkpt>
      <trkpt lat="43.6948" lon="4.0374">
        <ele>42.512</ele>
        <time>2016-12-26T22:06:31Z</time>
      </trkpt>
      <trkpt lat="43.69397" lon="4.03755">
        <ele>41.031</ele>
        <time>2016-12-26T22:06:51Z</time>
      </trkpt>
      <trkpt lat="43.6938" lon="4.03713">
        <ele>41.048</ele>
        <time>2016-12-26T22:07:11Z</time>
      </trkpt>
      <trkpt lat="43.69213" lon="4.03778">
        <ele>38.019</ele>
        <time>2016-12-26T22:07:31Z</time>
      </trkpt>
      <trkpt lat="43.69191" lon="4.03824">
        <ele>36.978</ele>
        <time>2016-12-26T22:07:51Z</time>
      </trkpt>
      <trkpt lat="43.69128" lon="4.03824">
        <ele>36.169</ele>
        <time>2016-12-26T22:08:11Z</time>
      </trkpt>
      <trkpt lat="43.691" lon="4.03793">
        <ele>37.276</ele>
        <time>2016-12-26T22:08:31Z</time>
      </trkpt>
      <trkpt lat="43.69074" lon="4.03775">
        <ele>37.89</ele>
        <time>2016-12-26T22:08:51Z</time>
      </trkpt>
      <trkpt lat="43.69047" lon="4.03746">
        <ele>37.819</ele>
        <time>2016-12-26T22:09:11Z</time>
      </trkpt>
      <trkpt lat="43.69036" lon="4.03698">
        <ele>38.308</ele>
        <time>2016-12-26T22:09:31Z</time>
      </trkpt>
      <trkpt lat="43.69062" lon="4.03622">
        <ele>38.374</ele>
        <time>2016-12-26T22:09:51Z</time>
      </trkpt>
      <trkpt lat="43.69033" lon="4.03568">
        <ele>36.257</ele>
        <time>2016-12-26T22:10:31Z</time>
      </trkpt>
      <trkpt lat="43.68885" lon="4.03464">
        <ele>35.023</ele>
        <time>2016-12-26T22:10:51Z</time>
      </trkpt>
      <trkpt lat="43.68824" lon="4.03384">
        <ele>37.592</ele>
        <time>2021-04-16T14:50:50Z</time>
      </trkpt>
      <trkpt lat="43.68829" lon="4.03316">
        <ele>43.369</ele>
        <time>2016-12-26T22:12:51Z</time>
      </trkpt>
      <trkpt lat="43.68852" lon="4.03263">
        <ele>44.77</ele>
        <time>2016-12-26T22:13:11Z</time>
      </trkpt>
      <trkpt lat="43.68832" lon="4.03124">
        <ele>45.069</ele>
        <time>2016-12-26T22:13:31Z</time>
      </trkpt>
      <trkpt lat="43.68878" lon="4.02976">
        <ele>45.06</ele>
        <time>2016-12-26T22:13:51Z</time>
      </trkpt>
      <trkpt lat="43.68876" lon="4.02889">
        <ele>45.065</ele>
        <time>2016-12-26T22:14:11Z</time>
      </trkpt>
      <trkpt lat="43.6886" lon="4.02835">
        <ele>45.068</ele>
        <time>2016-12-26T22:14:31Z</time>
      </trkpt>
      <trkpt lat="43.68833" lon="4.02791">
        <ele>45.014</ele>
        <time>2016-12-26T22:14:51Z</time>
      </trkpt>
      <trkpt lat="43.68826" lon="4.02741">
        <ele>44.908</ele>
        <time>2016-12-26T22:15:11Z</time>
      </trkpt>
      <trkpt lat="43.68801" lon="4.02693">
        <ele>44.013</ele>
        <time>2016-12-26T22:15:31Z</time>
      </trkpt>
      <trkpt lat="43.68695" lon="4.0268">
        <ele>43.556</ele>
        <time>2016-12-26T22:15:51Z</time>
      </trkpt>
      <trkpt lat="43.68529" lon="4.02578">
        <ele>38.222</ele>
        <time>2016-12-26T22:16:11Z</time>
      </trkpt>
      <trkpt lat="43.68234" lon="4.02435">
        <ele>33.161</ele>
        <time>2016-12-26T22:16:31Z</time>
      </trkpt>
      <trkpt lat="43.68012" lon="4.02293">
        <ele>32.038</ele>
        <time>2016-12-26T22:16:51Z</time>
      </trkpt>
      <trkpt lat="43.67813" lon="4.0217">
        <ele>27.459</ele>
        <time>2016-12-26T22:17:11Z</time>
      </trkpt>
      <trkpt lat="43.67807" lon="4.02165">
        <ele>27.028</ele>
        <time>2016-12-26T22:17:31Z</time>
      </trkpt>
      <trkpt lat="43.67771" lon="4.02111">
        <ele>26.839</ele>
        <time>2016-12-26T22:17:51Z</time>
      </trkpt>
      <trkpt lat="43.67716" lon="4.02111">
        <ele>25.856</ele>
        <time>2016-12-26T22:18:11Z</time>
      </trkpt>
      <trkpt lat="43.67682" lon="4.02013">
        <ele>27.559</ele>
        <time>2016-12-26T22:18:31Z</time>
      </trkpt>
      <trkpt lat="43.67641" lon="4.01984">
        <ele>28.014</ele>
        <time>2016-12-26T22:18:51Z</time>
      </trkpt>
      <trkpt lat="43.67584" lon="4.01923">
        <ele>28.008</ele>
        <time>2016-12-26T22:19:11Z</time>
      </trkpt>
      <trkpt lat="43.67493" lon="4.01873">
        <ele>28.022</ele>
        <time>2021-04-16T14:57:50Z</time>
      </trkpt>
      <trkpt lat="43.67498" lon="4.01785">
        <ele>30.135</ele>
        <time>2021-04-16T14:58:10Z</time>
      </trkpt>
      <trkpt lat="43.67434" lon="4.01756">
        <ele>28.671</ele>
        <time>2016-12-26T22:20:11Z</time>
      </trkpt>
      <trkpt lat="43.67396" lon="4.01645">
        <ele>29.63</ele>
        <time>2016-12-26T22:20:31Z</time>
      </trkpt>
      <trkpt lat="43.67394" lon="4.01604">
        <ele>30.297</ele>
        <time>2016-12-26T22:20:51Z</time>
      </trkpt>
      <trkpt lat="43.67361" lon="4.01507">
        <ele>33.788</ele>
        <time>2016-12-26T22:21:11Z</time>
      </trkpt>
      <trkpt lat="43.67359" lon="4.01471">
        <ele>34.067</ele>
        <time>2016-12-26T22:21:31Z</time>
      </trkpt>
      <trkpt lat="43.67287" lon="4.01277">
        <ele>35.358</ele>
        <time>2016-12-26T22:21:51Z</time>
      </trkpt>
      <trkpt lat="43.67284" lon="4.01225">
        <ele>35.056</ele>
        <time>2016-12-26T22:22:11Z</time>
      </trkpt>
      <trkpt lat="43.67223" lon="4.00998">
        <ele>34.059</ele>
        <time>2016-12-26T22:22:31Z</time>
      </trkpt>
      <trkpt lat="43.67207" lon="4.00997">
        <ele>34.514</ele>
        <time>2016-12-26T22:22:51Z</time>
      </trkpt>
      <trkpt lat="43.67187" lon="4.00933">
        <ele>35.408</ele>
        <time>2016-12-26T22:23:11Z</time>
      </trkpt>
      <trkpt lat="43.67185" lon="4.0091">
        <ele>35.762</ele>
        <time>2016-12-26T22:23:31Z</time>
      </trkpt>
      <trkpt lat="43.67165" lon="4.00852">
        <ele>37.125</ele>
        <time>2016-12-26T22:23:51Z</time>
      </trkpt>
      <trkpt lat="43.6715" lon="4.00828">
        <ele>38.351</ele>
        <time>2016-12-26T22:24:11Z</time>
      </trkpt>
      <trkpt lat="43.67108" lon="4.00673">
        <ele>40.12</ele>
        <time>2016-12-26T22:24:31Z</time>
      </trkpt>
      <trkpt lat="43.67055" lon="4.00517">
        <ele>41.087</ele>
        <time>2016-12-26T22:24:51Z</time>
      </trkpt>
      <trkpt lat="43.6698" lon="4.00453">
        <ele>40.088</ele>
        <time>2016-12-26T22:25:11Z</time>
      </trkpt>
      <trkpt lat="43.67043" lon="4.00417">
        <ele>41.537</ele>
        <time>2016-12-26T22:25:31Z</time>
      </trkpt>
      <trkpt lat="43.6703" lon="4.00352">
        <ele>43.348</ele>
        <time>2016-12-26T22:25:51Z</time>
      </trkpt>
      <trkpt lat="43.66985" lon="4.0027">
        <ele>45.015</ele>
        <time>2016-12-26T22:26:11Z</time>
      </trkpt>
      <trkpt lat="43.66935" lon="4.00116">
        <ele>45.065</ele>
        <time>2016-12-26T22:26:31Z</time>
      </trkpt>
      <trkpt lat="43.66929" lon="4.00072">
        <ele>44.411</ele>
        <time>2016-12-26T22:26:51Z</time>
      </trkpt>
      <trkpt lat="43.66904" lon="4.00004">
        <ele>43.608</ele>
        <time>2016-12-26T22:27:11Z</time>
      </trkpt>
      <trkpt lat="43.669" lon="3.99964">
        <ele>43.438</ele>
        <time>2016-12-26T22:27:31Z</time>
      </trkpt>
      <trkpt lat="43.66864" lon="3.99859">
        <ele>43.181</ele>
        <time>2016-12-26T22:27:51Z</time>
      </trkpt>
      <trkpt lat="43.66851" lon="3.99849">
        <ele>42.627</ele>
        <time>2016-12-26T22:28:11Z</time>
      </trkpt>
      <trkpt lat="43.66853" lon="3.99822">
        <ele>43.186</ele>
        <time>2016-12-26T22:28:31Z</time>
      </trkpt>
      <trkpt lat="43.6683" lon="3.99764">
        <ele>43.493</ele>
        <time>2016-12-26T22:28:51Z</time>
      </trkpt>
      <trkpt lat="43.66776" lon="3.99566">
        <ele>47.984</ele>
        <time>2016-12-26T22:29:11Z</time>
      </trkpt>
      <trkpt lat="43.66734" lon="3.99453">
        <ele>47.193</ele>
        <time>2016-12-26T22:29:31Z</time>
      </trkpt>
      <trkpt lat="43.66737" lon="3.99353">
        <ele>50.074</ele>
        <time>2016-12-26T22:29:51Z</time>
      </trkpt>
      <trkpt lat="43.66712" lon="3.9925">
        <ele>50.097</ele>
        <time>2016-12-26T22:30:11Z</time>
      </trkpt>
      <trkpt lat="43.66672" lon="3.99146">
        <ele>46.423</ele>
        <time>2016-12-26T22:30:31Z</time>
      </trkpt>
      <trkpt lat="43.66671" lon="3.99108">
        <ele>46.125</ele>
        <time>2016-12-26T22:30:51Z</time>
      </trkpt>
      <trkpt lat="43.66719" lon="3.99126">
        <ele>47.508</ele>
        <time>2016-12-26T22:31:11Z</time>
      </trkpt>
      <trkpt lat="43.66688" lon="3.99025">
        <ele>45.776</ele>
        <time>2016-12-26T22:31:31Z</time>
      </trkpt>
      <trkpt lat="43.66674" lon="3.98952">
        <ele>44.579</ele>
        <time>2016-12-26T22:31:51Z</time>
      </trkpt>
      <trkpt lat="43.66576" lon="3.98916">
        <ele>41.035</ele>
        <time>2016-12-26T22:32:11Z</time>
      </trkpt>
      <trkpt lat="43.66557" lon="3.98881">
        <ele>40.054</ele>
        <time>2016-12-26T22:32:31Z</time>
      </trkpt>
      <trkpt lat="43.66442" lon="3.98875">
        <ele>39.941</ele>
        <time>2021-04-16T15:11:10Z</time>
      </trkpt>
      <trkpt lat="43.66378" lon="3.98854">
        <ele>38.772</ele>
        <time>2021-04-16T15:11:30Z</time>
      </trkpt>
      <trkpt lat="43.66194" lon="3.98724">
        <ele>38.321</ele>
        <time>2021-04-16T15:11:50Z</time>
      </trkpt>
      <trkpt lat="43.66108" lon="3.98687">
        <ele>37.512</ele>
        <time>2021-04-16T15:12:10Z</time>
      </trkpt>
      <trkpt lat="43.66052" lon="3.98647">
        <ele>37.153</ele>
        <time>2021-04-16T15:12:30Z</time>
      </trkpt>
      <trkpt lat="43.66029" lon="3.98622">
        <ele>37.104</ele>
        <time>2021-04-16T15:12:50Z</time>
      </trkpt>
      <trkpt lat="43.65951" lon="3.98599">
        <ele>38.514</ele>
        <time>2021-04-16T15:13:10Z</time>
      </trkpt>
      <trkpt lat="43.6593" lon="3.98565">
        <ele>38.108</ele>
        <time>2021-04-16T15:13:30Z</time>
      </trkpt>
      <trkpt lat="43.65915" lon="3.9851">
        <ele>36.492</ele>
        <time>2021-04-16T15:13:50Z</time>
      </trkpt>
      <trkpt lat="43.65915" lon="3.98474">
        <ele>36.355</ele>
        <time>2021-04-16T15:14:10Z</time>
      </trkpt>
      <trkpt lat="43.6596" lon="3.98481">
        <ele>36.431</ele>
        <time>2021-04-16T15:14:30Z</time>
      </trkpt>
      <trkpt lat="43.65974" lon="3.98473">
        <ele>36.37</ele>
        <time>2021-04-16T15:14:50Z</time>
      </trkpt>
      <trkpt lat="43.65978" lon="3.98447">
        <ele>36.077</ele>
        <time>2021-04-16T15:15:10Z</time>
      </trkpt>
      <trkpt lat="43.65929" lon="3.98243">
        <ele>37.258</ele>
        <time>2021-04-16T15:15:30Z</time>
      </trkpt>
      <trkpt lat="43.65901" lon="3.98104">
        <ele>37.837</ele>
        <time>2021-04-16T15:15:50Z</time>
      </trkpt>
      <trkpt lat="43.65926" lon="3.9809">
        <ele>38.098</ele>
        <time>2021-04-16T15:16:10Z</time>
      </trkpt>
      <trkpt lat="43.65922" lon="3.98055">
        <ele>38.772</ele>
        <time>2021-04-16T15:16:30Z</time>
      </trkpt>
      <trkpt lat="43.65889" lon="3.98052">
        <ele>38.513</ele>
        <time>2021-04-16T15:16:50Z</time>
      </trkpt>
      <trkpt lat="43.65877" lon="3.97917">
        <ele>39.014</ele>
        <time>2021-04-16T15:17:10Z</time>
      </trkpt>
      <trkpt lat="43.65882" lon="3.97599">
        <ele>40.508</ele>
        <time>2021-04-16T15:17:30Z</time>
      </trkpt>
      <trkpt lat="43.65901" lon="3.97546">
        <ele>41.944</ele>
        <time>2021-04-16T15:17:50Z</time>
      </trkpt>
      <trkpt lat="43.65908" lon="3.97485">
        <ele>43.277</ele>
        <time>2021-04-16T15:18:10Z</time>
      </trkpt>
      <trkpt lat="43.65905" lon="3.97412">
        <ele>43.723</ele>
        <time>2021-04-16T15:18:30Z</time>
      </trkpt>
      <trkpt lat="43.65877" lon="3.97232">
        <ele>46.292</ele>
        <time>2021-04-16T15:18:50Z</time>
      </trkpt>
      <trkpt lat="43.65867" lon="3.97195">
        <ele>46.219</ele>
        <time>2021-04-16T15:19:10Z</time>
      </trkpt>
      <trkpt lat="43.65859" lon="3.97129">
        <ele>45.77</ele>
        <time>2021-04-16T15:19:30Z</time>
      </trkpt>
      <trkpt lat="43.65835" lon="3.97043">
        <ele>45.079</ele>
        <time>2021-04-16T15:19:50Z</time>
      </trkpt>
      <trkpt lat="43.65835" lon="3.9699">
        <ele>43.55</ele>
        <time>2021-04-16T15:20:10Z</time>
      </trkpt>
      <trkpt lat="43.6583" lon="3.96986">
        <ele>43.334</ele>
        <time>2021-04-16T15:20:30Z</time>
      </trkpt>
      <trkpt lat="43.65842" lon="3.96917">
        <ele>40.155</ele>
        <time>2021-04-16T15:20:50Z</time>
      </trkpt>
      <trkpt lat="43.6585" lon="3.96855">
        <ele>39.61</ele>
        <time>2021-04-16T15:21:10Z</time>
      </trkpt>
      <trkpt lat="43.65797" lon="3.96825">
        <ele>39.508</ele>
        <time>2021-04-16T15:21:30Z</time>
      </trkpt>
      <trkpt lat="43.65765" lon="3.96847">
        <ele>40.03</ele>
        <time>2021-04-16T15:21:50Z</time>
      </trkpt>
      <trkpt lat="43.65712" lon="3.96849">
        <ele>40.283</ele>
        <time>2021-04-16T15:22:10Z</time>
      </trkpt>
      <trkpt lat="43.65738" lon="3.96769">
        <ele>40.679</ele>
        <time>2021-04-16T15:22:30Z</time>
      </trkpt>
      <trkpt lat="43.65758" lon="3.96665">
        <ele>42.148</ele>
        <time>2021-04-16T15:22:50Z</time>
      </trkpt>
      <trkpt lat="43.65816" lon="3.96502">
        <ele>43.815</ele>
        <time>2021-04-16T15:23:10Z</time>
      </trkpt>
      <trkpt lat="43.65817" lon="3.96366">
        <ele>43.026</ele>
        <time>2021-04-16T15:23:30Z</time>
      </trkpt>
      <trkpt lat="43.65836" lon="3.96214">
        <ele>44.455</ele>
        <time>2021-04-16T15:23:50Z</time>
      </trkpt>
      <trkpt lat="43.65818" lon="3.95934">
        <ele>49.516</ele>
        <time>2016-12-26T22:38:51Z</time>
      </trkpt>
      <trkpt lat="43.65945" lon="3.95197">
        <ele>55.017</ele>
        <time>2021-04-16T15:24:30Z</time>
      </trkpt>
      <trkpt lat="43.66053" lon="3.94808">
        <ele>55.587</ele>
        <time>2021-04-16T15:24:50Z</time>
      </trkpt>
      <trkpt lat="43.66071" lon="3.94617">
        <ele>56.015</ele>
        <time>2021-04-16T15:25:10Z</time>
      </trkpt>
      <trkpt lat="43.66062" lon="3.94315">
        <ele>52.508</ele>
        <time>2021-04-16T15:25:30Z</time>
      </trkpt>
      <trkpt lat="43.65935" lon="3.93665">
        <ele>46.088</ele>
        <time>2016-12-26T22:40:51Z</time>
      </trkpt>
      <trkpt lat="43.65845" lon="3.93586">
        <ele>44.481</ele>
        <time>2016-12-26T22:41:11Z</time>
      </trkpt>
      <trkpt lat="43.658" lon="3.93599">
        <ele>45.347</ele>
        <time>2021-04-16T15:26:30Z</time>
      </trkpt>
      <trkpt lat="43.6566" lon="3.93557">
        <ele>44.346</ele>
        <time>2021-04-16T15:26:50Z</time>
      </trkpt>
      <trkpt lat="43.65609" lon="3.93507">
        <ele>40.223</ele>
        <time>2016-12-26T22:42:11Z</time>
      </trkpt>
      <trkpt lat="43.65653" lon="3.93344">
        <ele>42.124</ele>
        <time>2016-12-26T22:42:31Z</time>
      </trkpt>
      <trkpt lat="43.65671" lon="3.93104">
        <ele>41.463</ele>
        <time>2016-12-26T22:42:51Z</time>
      </trkpt>
      <trkpt lat="43.65583" lon="3.9285">
        <ele>46.674</ele>
        <time>2016-12-26T22:43:11Z</time>
      </trkpt>
      <trkpt lat="43.65564" lon="3.92734">
        <ele>47.434</ele>
        <time>2016-12-26T22:43:31Z</time>
      </trkpt>
      <trkpt lat="43.65549" lon="3.92526">
        <ele>51.255</ele>
        <time>2016-12-26T22:43:51Z</time>
      </trkpt>
      <trkpt lat="43.65498" lon="3.92318">
        <ele>54.61</ele>
        <time>2016-12-26T22:44:11Z</time>
      </trkpt>
      <trkpt lat="43.65406" lon="3.92046">
        <ele>59.008</ele>
        <time>2016-12-26T22:44:31Z</time>
      </trkpt>
      <trkpt lat="43.65341" lon="3.91902">
        <ele>60.02</ele>
        <time>2016-12-26T22:44:51Z</time>
      </trkpt>
      <trkpt lat="43.65277" lon="3.91724">
        <ele>65.043</ele>
        <time>2016-12-26T22:45:11Z</time>
      </trkpt>
      <trkpt lat="43.65215" lon="3.91589">
        <ele>64.059</ele>
        <time>2016-12-26T22:45:31Z</time>
      </trkpt>
      <trkpt lat="43.65114" lon="3.9134">
        <ele>59.328</ele>
        <time>2016-12-26T22:45:51Z</time>
      </trkpt>
      <trkpt lat="43.65078" lon="3.91212">
        <ele>55.655</ele>
        <time>2021-04-16T15:31:10Z</time>
      </trkpt>
      <trkpt lat="43.65078" lon="3.91154">
        <ele>56.466</ele>
        <time>2016-12-26T22:46:11Z</time>
      </trkpt>
      <trkpt lat="43.65035" lon="3.90963">
        <ele>54.295</ele>
        <time>2021-04-16T15:31:50Z</time>
      </trkpt>
      <trkpt lat="43.64847" lon="3.91061">
        <ele>53.296</ele>
        <time>2016-12-26T22:46:51Z</time>
      </trkpt>
      <trkpt lat="43.64676" lon="3.90996">
        <ele>63.323</ele>
        <time>2016-12-26T22:47:11Z</time>
      </trkpt>
      <trkpt lat="43.64523" lon="3.91009">
        <ele>61.483</ele>
        <time>2016-12-26T22:47:31Z</time>
      </trkpt>
      <trkpt lat="43.64353" lon="3.91044">
        <ele>57.311</ele>
        <time>2016-12-26T22:47:51Z</time>
      </trkpt>
      <trkpt lat="43.64299" lon="3.90853">
        <ele>53.708</ele>
        <time>2016-12-26T22:48:11Z</time>
      </trkpt>
      <trkpt lat="43.64302" lon="3.90709">
        <ele>51.929</ele>
        <time>2019-07-04T14:10:34Z</time>
      </trkpt>
      <trkpt lat="43.64276" lon="3.90606">
        <ele>53.162</ele>
        <time>2019-07-04T14:10:54Z</time>
      </trkpt>
      <trkpt lat="43.64203" lon="3.90511">
        <ele>55.998</ele>
        <time>2019-07-04T14:11:14Z</time>
      </trkpt>
      <trkpt lat="43.64094" lon="3.90533">
        <ele>54.477</ele>
        <time>2019-07-04T14:11:34Z</time>
      </trkpt>
      <trkpt lat="43.63964" lon="3.90496">
        <ele>58.194</ele>
        <time>2019-07-04T14:11:54Z</time>
      </trkpt>
      <trkpt lat="43.63889" lon="3.90413">
        <ele>58.244</ele>
        <time>2019-07-04T14:12:34Z</time>
      </trkpt>
      <trkpt lat="43.63831" lon="3.90386">
        <ele>55.095</ele>
        <time>2019-07-04T14:12:54Z</time>
      </trkpt>
      <trkpt lat="43.63711" lon="3.90369">
        <ele>56.666</ele>
        <time>2019-07-04T14:13:14Z</time>
      </trkpt>
      <trkpt lat="43.63663" lon="3.90312">
        <ele>58.629</ele>
        <time>2019-07-04T14:13:34Z</time>
      </trkpt>
      <trkpt lat="43.63618" lon="3.90278">
        <ele>57.521</ele>
        <time>2019-07-04T14:13:54Z</time>
      </trkpt>
      <trkpt lat="43.63591" lon="3.90221">
        <ele>57.608</ele>
        <time>2019-07-04T14:14:14Z</time>
      </trkpt>
      <trkpt lat="43.63545" lon="3.9019">
        <ele>52.873</ele>
        <time>2019-07-04T14:14:34Z</time>
      </trkpt>
      <trkpt lat="43.6349" lon="3.90108">
        <ele>46.716</ele>
        <time>2019-07-04T14:14:54Z</time>
      </trkpt>
      <trkpt lat="43.63428" lon="3.90045">
        <ele>43.872</ele>
        <time>2019-07-04T14:15:14Z</time>
      </trkpt>
      <trkpt lat="43.6339" lon="3.89964">
        <ele>44.091</ele>
        <time>2019-07-04T14:15:34Z</time>
      </trkpt>
      <trkpt lat="43.63362" lon="3.89951">
        <ele>42.838</ele>
        <time>2019-07-04T14:15:54Z</time>
      </trkpt>
      <trkpt lat="43.63303" lon="3.89753">
        <ele>40.099</ele>
        <time>2019-07-04T14:16:14Z</time>
      </trkpt>
      <trkpt lat="43.63296" lon="3.8961">
        <ele>36.068</ele>
        <time>2019-07-04T14:16:34Z</time>
      </trkpt>
      <trkpt lat="43.63298" lon="3.89526">
        <ele>40.769</ele>
        <time>2021-04-16T15:40:10Z</time>
      </trkpt>
      <trkpt lat="43.63318" lon="3.89504">
        <ele>40.843</ele>
        <time>2021-04-16T15:40:30Z</time>
      </trkpt>
      <trkpt lat="43.63322" lon="3.8947">
        <ele>39.264</ele>
        <time>2021-04-16T15:40:50Z</time>
      </trkpt>
      <trkpt lat="43.63318" lon="3.89396">
        <ele>34.21</ele>
        <time>2021-04-16T15:41:10Z</time>
      </trkpt>
      <trkpt lat="43.633" lon="3.89371">
        <ele>31.208</ele>
        <time>2021-04-16T15:41:30Z</time>
      </trkpt>
      <trkpt lat="43.63278" lon="3.89387">
        <ele>31.061</ele>
        <time>2021-04-16T15:41:50Z</time>
      </trkpt>
      <trkpt lat="43.63257" lon="3.89369">
        <ele>25.024</ele>
        <time>2019-07-04T14:17:34Z</time>
      </trkpt>
      <trkpt lat="43.63223" lon="3.89413">
        <ele>25.02</ele>
        <time>2019-07-04T14:17:54Z</time>
      </trkpt>
      <trkpt lat="43.6317" lon="3.8944">
        <ele>25.039</ele>
        <time>2019-07-04T14:18:14Z</time>
      </trkpt>
      <trkpt lat="43.63156" lon="3.89469">
        <ele>25.516</ele>
        <time>2019-07-04T14:18:34Z</time>
      </trkpt>
      <trkpt lat="43.63151" lon="3.89512">
        <ele>28.317</ele>
        <time>2019-07-04T14:18:54Z</time>
      </trkpt>
      <trkpt lat="43.63004" lon="3.89478">
        <ele>25.086</ele>
        <time>2019-07-04T14:19:14Z</time>
      </trkpt>
      <trkpt lat="43.6295" lon="3.89485">
        <ele>22.897</ele>
        <time>2019-07-04T14:19:34Z</time>
      </trkpt>
      <trkpt lat="43.6293" lon="3.89503">
        <ele>21.091</ele>
        <time>2019-07-04T14:19:54Z</time>
      </trkpt>
      <trkpt lat="43.6291" lon="3.89611">
        <ele>21.881</ele>
        <time>2019-07-04T14:20:14Z</time>
      </trkpt>
      <trkpt lat="43.62936" lon="3.89801">
        <ele>29.019</ele>
        <time>2021-04-16T15:45:10Z</time>
      </trkpt>
      <trkpt lat="43.6288" lon="3.89824">
        <ele>27.908</ele>
        <time>2021-04-16T15:45:30Z</time>
      </trkpt>
      <trkpt lat="43.62827" lon="3.89769">
        <ele>25.266</ele>
        <time>2021-04-16T15:45:50Z</time>
      </trkpt>
      <trkpt lat="43.62821" lon="3.8969">
        <ele>23.799</ele>
        <time>2021-04-16T15:46:10Z</time>
      </trkpt>
      <trkpt lat="43.6289" lon="3.89569">
        <ele>24.275</ele>
        <time>2021-04-16T15:46:30Z</time>
      </trkpt>
      <trkpt lat="43.62899" lon="3.895">
        <ele>20.074</ele>
        <time>2019-07-04T14:20:54Z</time>
      </trkpt>
      <trkpt lat="43.62894" lon="3.89467">
        <ele>20.291</ele>
        <time>2019-07-04T14:21:14Z</time>
      </trkpt>
      <trkpt lat="43.62868" lon="3.89404">
        <ele>21.322</ele>
        <time>2019-07-04T14:21:34Z</time>
      </trkpt>
      <trkpt lat="43.62741" lon="3.8916">
        <ele>31.971</ele>
        <time>2021-04-16T15:47:50Z</time>
      </trkpt>
      <trkpt lat="43.627" lon="3.88959">
        <ele>31.362</ele>
        <time>2021-04-16T15:48:10Z</time>
      </trkpt>
      <trkpt lat="43.62589" lon="3.88965">
        <ele>30.097</ele>
        <time>2019-07-04T14:22:34Z</time>
      </trkpt>
      <trkpt lat="43.62077" lon="3.88732">
        <ele>24.823</ele>
        <time>2019-07-04T14:22:54Z</time>
      </trkpt>
      <trkpt lat="43.61755" lon="3.88586">
        <ele>22.225</ele>
        <time>2019-07-04T14:23:14Z</time>
      </trkpt>
      <trkpt lat="43.61479" lon="3.88318">
        <ele>20.608</ele>
        <time>2019-07-04T14:23:34Z</time>
      </trkpt>
      <trkpt lat="43.61441" lon="3.88167">
        <ele>27.986</ele>
        <time>2021-04-16T15:49:50Z</time>
      </trkpt>
      <trkpt lat="43.61401" lon="3.88159">
        <ele>30.669</ele>
        <time>2021-04-16T15:50:10Z</time>
      </trkpt>
      <trkpt lat="43.61388" lon="3.88105">
        <ele>33.245</ele>
        <time>2021-04-16T15:50:30Z</time>
      </trkpt>
      <trkpt lat="43.614" lon="3.88061">
        <ele>25.294</ele>
        <time>2019-07-04T14:24:34Z</time>
      </trkpt>
      <trkpt lat="43.61355" lon="3.88002">
        <ele>28.471</ele>
        <time>2019-07-04T14:24:54Z</time>
      </trkpt>
      <trkpt lat="43.61304" lon="3.8795">
        <ele>33.082</ele>
        <time>2019-07-04T14:25:14Z</time>
      </trkpt>
      <trkpt lat="43.61262" lon="3.87931">
        <ele>51.241</ele>
        <time>2021-04-16T15:51:50Z</time>
      </trkpt>
      <trkpt lat="43.61218" lon="3.87933">
        <ele>53.452</ele>
        <time>2021-04-16T15:52:10Z</time>
      </trkpt>
      <trkpt lat="43.61036" lon="3.87915">
        <ele>51.958</ele>
        <time>2021-04-16T15:52:30Z</time>
      </trkpt>
      <trkpt lat="43.60981" lon="3.87924">
        <ele>50.152</ele>
        <time>2021-04-16T15:52:50Z</time>
      </trkpt>
      <trkpt lat="43.60947" lon="3.87925">
        <ele>48.917</ele>
        <time>2021-04-16T15:53:10Z</time>
      </trkpt>
      <trkpt lat="43.60899" lon="3.87897">
        <ele>48.008</ele>
        <time>2021-04-16T15:53:30Z</time>
      </trkpt>
      <trkpt lat="43.6105" lon="3.87666">
        <ele>55.092</ele>
        <time>2021-04-16T15:53:50Z</time>
      </trkpt>
      <trkpt lat="43.60959" lon="3.8754">
        <ele>53.535</ele>
        <time>2021-04-16T15:54:10Z</time>
      </trkpt>
      <trkpt lat="43.60857" lon="3.87305">
        <ele>34.051</ele>
        <time>2019-07-04T14:27:54Z</time>
      </trkpt>
      <trkpt lat="43.60961" lon="3.87253">
        <ele>39.17</ele>
        <time>2019-07-04T14:28:14Z</time>
      </trkpt>
      <trkpt lat="43.61053" lon="3.87226">
        <ele>49.367</ele>
        <time>2021-04-16T15:55:10Z</time>
      </trkpt>
      <trkpt lat="43.61114" lon="3.87223">
        <ele>52.558</ele>
        <time>2021-04-16T15:55:30Z</time>
      </trkpt>
      <trkpt lat="43.61135" lon="3.86966">
        <ele>42.167</ele>
        <time>2019-07-04T14:29:14Z</time>
      </trkpt>
      <trkpt lat="43.61188" lon="3.86944">
        <ele>39.278</ele>
        <time>2019-07-04T14:29:34Z</time>
      </trkpt>
      <trkpt lat="43.61188" lon="3.86914">
        <ele>38.962</ele>
        <time>2019-07-04T14:29:54Z</time>
      </trkpt>
      <trkpt lat="43.61144" lon="3.86899">
        <ele>40.183</ele>
        <time>2019-07-04T14:30:14Z</time>
      </trkpt>
      <trkpt lat="43.61207" lon="3.86191">
        <ele>39.711</ele>
        <time>2019-07-04T14:30:34Z</time>
      </trkpt>
      <trkpt lat="43.61174" lon="3.86084">
        <ele>43.008</ele>
        <time>2019-07-04T14:30:54Z</time>
      </trkpt>
      <trkpt lat="43.61137" lon="3.85862">
        <ele>50.193</ele>
        <time>2019-07-04T14:31:14Z</time>
      </trkpt>
      <trkpt lat="43.61124" lon="3.85895">
        <ele>50.386</ele>
        <time>2019-07-04T14:31:34Z</time>
      </trkpt>
      <trkpt lat="43.61073" lon="3.85834">
        <ele>53.862</ele>
        <time>2019-07-04T14:31:54Z</time>
      </trkpt>
      <trkpt lat="43.61072" lon="3.85769">
        <ele>54.211</ele>
        <time>2019-07-04T14:32:14Z</time>
      </trkpt>
      <trkpt lat="43.6105" lon="3.85775">
        <ele>56.628</ele>
        <time>2019-07-04T14:32:34Z</time>
      </trkpt>
      <trkpt lat="43.61037" lon="3.85607">
        <ele>57.699</ele>
        <time>2019-07-04T14:32:54Z</time>
      </trkpt>
      <trkpt lat="43.61041" lon="3.8563">
        <ele>57.128</ele>
        <time>2019-07-04T14:33:14Z</time>
      </trkpt>
      <trkpt lat="43.61036" lon="3.85526">
        <ele>57.249</ele>
        <time>2019-07-04T14:33:34Z</time>
      </trkpt>
      <trkpt lat="43.61021" lon="3.85434">
        <ele>60.889</ele>
        <time>2019-07-04T14:33:54Z</time>
      </trkpt>
      <trkpt lat="43.61027" lon="3.85431">
        <ele>60.106</ele>
        <time>2019-07-04T14:34:14Z</time>
      </trkpt>
      <trkpt lat="43.6105" lon="3.85337">
        <ele>60.126</ele>
        <time>2019-07-04T14:34:34Z</time>
      </trkpt>
      <trkpt lat="43.61103" lon="3.85241">
        <ele>60.308</ele>
        <time>2019-07-04T14:34:54Z</time>
      </trkpt>
      <trkpt lat="43.61246" lon="3.8526">
        <ele>59.825</ele>
        <time>2019-07-04T14:35:14Z</time>
      </trkpt>
      <trkpt lat="43.61291" lon="3.85296">
        <ele>61.538</ele>
        <time>2019-07-04T14:35:34Z</time>
      </trkpt>
      <trkpt lat="43.61302" lon="3.8532">
        <ele>61.454</ele>
        <time>2019-07-04T14:35:54Z</time>
      </trkpt>
      <trkpt lat="43.61346" lon="3.85251">
        <ele>63.523</ele>
        <time>2019-07-04T14:36:14Z</time>
      </trkpt>
      <trkpt lat="43.61417" lon="3.85268">
        <ele>61.33</ele>
        <time>2019-07-04T14:36:34Z</time>
      </trkpt>
      <trkpt lat="43.61456" lon="3.85223">
        <ele>60.621</ele>
        <time>2019-07-04T14:36:54Z</time>
      </trkpt>
      <trkpt lat="43.61506" lon="3.85187">
        <ele>58.71</ele>
        <time>2019-07-04T14:37:14Z</time>
      </trkpt>
      <trkpt lat="43.61495" lon="3.85114">
        <ele>61.551</ele>
        <time>2019-07-04T14:37:34Z</time>
      </trkpt>
      <trkpt lat="43.61535" lon="3.84966">
        <ele>63.314</ele>
        <time>2019-07-04T14:37:54Z</time>
      </trkpt>
      <trkpt lat="43.61577" lon="3.84899">
        <ele>62.154</ele>
        <time>2019-07-04T14:38:14Z</time>
      </trkpt>
      <trkpt lat="43.61656" lon="3.84824">
        <ele>61.709</ele>
        <time>2019-07-04T14:38:34Z</time>
      </trkpt>
      <trkpt lat="43.6174" lon="3.84768">
        <ele>60.408</ele>
        <time>2019-07-04T14:38:54Z</time>
      </trkpt>
      <trkpt lat="43.61757" lon="3.84652">
        <ele>59.558</ele>
        <time>2019-07-04T14:39:14Z</time>
      </trkpt>
      <trkpt lat="43.61715" lon="3.84597">
        <ele>60.861</ele>
        <time>2019-07-04T14:39:34Z</time>
      </trkpt>
      <trkpt lat="43.61722" lon="3.84511">
        <ele>62.657</ele>
        <time>2019-07-04T14:39:54Z</time>
      </trkpt>
      <trkpt lat="43.61807" lon="3.84397">
        <ele>65.346</ele>
        <time>2021-04-16T16:06:50Z</time>
      </trkpt>
      <trkpt lat="43.61824" lon="3.84423">
        <ele>64.013</ele>
        <time>2021-04-16T16:07:10Z</time>
      </trkpt>
      <trkpt lat="43.61906" lon="3.8436">
        <ele>64.024</ele>
        <time>2021-04-16T16:07:30Z</time>
      </trkpt>
      <trkpt lat="43.61948" lon="3.84275">
        <ele>61.883</ele>
        <time>2019-07-04T14:41:14Z</time>
      </trkpt>
      <trkpt lat="43.62113" lon="3.8408">
        <ele>63.064</ele>
        <time>2019-07-04T14:41:34Z</time>
      </trkpt>
      <trkpt lat="43.622" lon="3.84069">
        <ele>60.457</ele>
        <time>2019-07-04T14:41:54Z</time>
      </trkpt>
      <trkpt lat="43.62222" lon="3.84052">
        <ele>61.1</ele>
        <time>2019-07-04T14:42:14Z</time>
      </trkpt>
      <trkpt lat="43.62278" lon="3.84024">
        <ele>61.12</ele>
        <time>2019-07-04T14:42:34Z</time>
      </trkpt>
      <trkpt lat="43.62275" lon="3.83998">
        <ele>62.208</ele>
        <time>2019-07-04T14:42:54Z</time>
      </trkpt>
      <trkpt lat="43.62338" lon="3.8385">
        <ele>73.362</ele>
        <time>2019-07-04T14:43:14Z</time>
      </trkpt>
      <trkpt lat="43.6232" lon="3.83753">
        <ele>75.025</ele>
        <time>2019-07-04T14:43:34Z</time>
      </trkpt>
      <trkpt lat="43.62368" lon="3.83728">
        <ele>75.061</ele>
        <time>2019-07-04T14:43:54Z</time>
      </trkpt>
      <trkpt lat="43.62365" lon="3.83698">
        <ele>75.07</ele>
        <time>2019-07-04T14:44:14Z</time>
      </trkpt>
      <trkpt lat="43.62581" lon="3.83614">
        <ele>71.967</ele>
        <time>2019-07-04T14:44:34Z</time>
      </trkpt>
      <trkpt lat="43.62585" lon="3.83674">
        <ele>70.098</ele>
        <time>2019-07-04T14:44:54Z</time>
      </trkpt>
      <trkpt lat="43.62664" lon="3.83786">
        <ele>67.737</ele>
        <time>2019-07-04T14:45:14Z</time>
      </trkpt>
      <trkpt lat="43.62695" lon="3.83865">
        <ele>63.998</ele>
        <time>2019-07-04T14:45:34Z</time>
      </trkpt>
      <trkpt lat="43.62739" lon="3.83938">
        <ele>62.853</ele>
        <time>2021-04-16T16:12:30Z</time>
      </trkpt>
      <trkpt lat="43.62792" lon="3.84004">
        <ele>60.304</ele>
        <time>2019-07-04T14:45:54Z</time>
      </trkpt>
      <trkpt lat="43.62873" lon="3.84015">
        <ele>60.514</ele>
        <time>2019-07-04T14:46:14Z</time>
      </trkpt>
      <trkpt lat="43.63046" lon="3.83938">
        <ele>60.608</ele>
        <time>2019-07-04T14:46:34Z</time>
      </trkpt>
      <trkpt lat="43.63081" lon="3.83884">
        <ele>60.492</ele>
        <time>2019-07-04T14:46:54Z</time>
      </trkpt>
      <trkpt lat="43.63107" lon="3.8382">
        <ele>61.665</ele>
        <time>2019-07-04T14:47:14Z</time>
      </trkpt>
      <trkpt lat="43.63152" lon="3.83792">
        <ele>61.081</ele>
        <time>2019-07-04T14:47:34Z</time>
      </trkpt>
      <trkpt lat="43.63192" lon="3.83781">
        <ele>60.95</ele>
        <time>2019-07-04T14:47:54Z</time>
      </trkpt>
      <trkpt lat="43.63279" lon="3.8367">
        <ele>60.837</ele>
        <time>2019-07-04T14:48:14Z</time>
      </trkpt>
      <trkpt lat="43.63307" lon="3.83665">
        <ele>59.988</ele>
        <time>2019-07-04T14:48:34Z</time>
      </trkpt>
      <trkpt lat="43.63362" lon="3.83554">
        <ele>62.147</ele>
        <time>2019-07-04T14:48:54Z</time>
      </trkpt>
      <trkpt lat="43.63413" lon="3.83416">
        <ele>65.048</ele>
        <time>2019-07-04T14:49:14Z</time>
      </trkpt>
      <trkpt lat="43.63458" lon="3.83337">
        <ele>68.416</ele>
        <time>2019-07-04T14:49:34Z</time>
      </trkpt>
      <trkpt lat="43.63545" lon="3.83225">
        <ele>70.076</ele>
        <time>2019-07-04T14:49:54Z</time>
      </trkpt>
      <trkpt lat="43.63609" lon="3.8317">
        <ele>71.013</ele>
        <time>2019-07-04T14:50:14Z</time>
      </trkpt>
      <trkpt lat="43.63734" lon="3.83095">
        <ele>74.708</ele>
        <time>2021-04-16T16:17:30Z</time>
      </trkpt>
      <trkpt lat="43.63807" lon="3.83039">
        <ele>75.838</ele>
        <time>2021-04-16T16:17:50Z</time>
      </trkpt>
      <trkpt lat="43.63894" lon="3.82936">
        <ele>77.491</ele>
        <time>2021-04-16T16:18:10Z</time>
      </trkpt>
      <trkpt lat="43.63946" lon="3.82839">
        <ele>79.077</ele>
        <time>2019-07-04T14:51:34Z</time>
      </trkpt>
      <trkpt lat="43.63989" lon="3.82794">
        <ele>80.536</ele>
        <time>2019-07-04T14:51:54Z</time>
      </trkpt>
      <trkpt lat="43.6404" lon="3.82773">
        <ele>81.293</ele>
        <time>2021-04-16T16:19:10Z</time>
      </trkpt>
      <trkpt lat="43.64131" lon="3.82691">
        <ele>87.664</ele>
        <time>2021-04-16T16:19:30Z</time>
      </trkpt>
      <trkpt lat="43.64197" lon="3.82611">
        <ele>92.153</ele>
        <time>2021-04-16T16:19:50Z</time>
      </trkpt>
      <trkpt lat="43.64251" lon="3.82508">
        <ele>95.614</ele>
        <time>2021-04-16T16:20:10Z</time>
      </trkpt>
      <trkpt lat="43.643" lon="3.82402">
        <ele>97.771</ele>
        <time>2021-04-16T16:20:30Z</time>
      </trkpt>
      <trkpt lat="43.6436" lon="3.82334">
        <ele>98.741</ele>
        <time>2021-04-16T16:20:50Z</time>
      </trkpt>
      <trkpt lat="43.64374" lon="3.82279">
        <ele>97.015</ele>
        <time>2019-07-04T14:54:34Z</time>
      </trkpt>
      <trkpt lat="43.64416" lon="3.82256">
        <ele>98.008</ele>
        <time>2019-07-04T14:54:54Z</time>
      </trkpt>
      <trkpt lat="43.64411" lon="3.82223">
        <ele>96.894</ele>
        <time>2019-07-04T14:55:14Z</time>
      </trkpt>
      <trkpt lat="43.64388" lon="3.82198">
        <ele>97.087</ele>
        <time>2019-07-04T14:55:34Z</time>
      </trkpt>
      <trkpt lat="43.64352" lon="3.82185">
        <ele>101.163</ele>
        <time>2019-07-04T14:55:54Z</time>
      </trkpt>
      <trkpt lat="43.64348" lon="3.82135">
        <ele>103.672</ele>
        <time>2019-07-04T14:56:14Z</time>
      </trkpt>
      <trkpt lat="43.64463" lon="3.81929">
        <ele>106.159</ele>
        <time>2019-07-04T14:56:34Z</time>
      </trkpt>
      <trkpt lat="43.64498" lon="3.81738">
        <ele>95.06</ele>
        <time>2019-07-04T14:56:54Z</time>
      </trkpt>
      <trkpt lat="43.64458" lon="3.81548">
        <ele>84.219</ele>
        <time>2019-07-04T14:57:14Z</time>
      </trkpt>
      <trkpt lat="43.64503" lon="3.81451">
        <ele>74.41</ele>
        <time>2019-07-04T14:57:34Z</time>
      </trkpt>
      <trkpt lat="43.64522" lon="3.81352">
        <ele>68.735</ele>
        <time>2019-07-04T14:57:54Z</time>
      </trkpt>
      <trkpt lat="43.64575" lon="3.81191">
        <ele>64.086</ele>
        <time>2019-07-04T14:58:14Z</time>
      </trkpt>
      <trkpt lat="43.64589" lon="3.81188">
        <ele>64.214</ele>
        <time>2021-04-16T16:25:10Z</time>
      </trkpt>
      <trkpt lat="43.64605" lon="3.80963">
        <ele>63.808</ele>
        <time>2021-04-16T16:25:30Z</time>
      </trkpt>
      <trkpt lat="43.64673" lon="3.80717">
        <ele>65.56</ele>
        <time>2021-04-16T16:25:50Z</time>
      </trkpt>
      <trkpt lat="43.64679" lon="3.80615">
        <ele>64.233</ele>
        <time>2021-04-16T16:26:10Z</time>
      </trkpt>
      <trkpt lat="43.64669" lon="3.8043">
        <ele>60.019</ele>
        <time>2019-07-04T15:00:14Z</time>
      </trkpt>
      <trkpt lat="43.64675" lon="3.80297">
        <ele>60.028</ele>
        <time>2019-07-04T15:00:34Z</time>
      </trkpt>
      <trkpt lat="43.64694" lon="3.80159">
        <ele>62.075</ele>
        <time>2019-07-04T15:00:54Z</time>
      </trkpt>
      <trkpt lat="43.64748" lon="3.80015">
        <ele>62.986</ele>
        <time>2019-07-04T15:01:14Z</time>
      </trkpt>
      <trkpt lat="43.64703" lon="3.79942">
        <ele>61.335</ele>
        <time>2019-07-04T15:01:34Z</time>
      </trkpt>
      <trkpt lat="43.64696" lon="3.79827">
        <ele>60.066</ele>
        <time>2019-07-04T15:01:54Z</time>
      </trkpt>
      <trkpt lat="43.64705" lon="3.79719">
        <ele>59.333</ele>
        <time>2019-07-04T15:02:14Z</time>
      </trkpt>
      <trkpt lat="43.64724" lon="3.79659">
        <ele>58.723</ele>
        <time>2019-07-04T15:02:34Z</time>
      </trkpt>
      <trkpt lat="43.64738" lon="3.79648">
        <ele>58.715</ele>
        <time>2019-07-04T15:02:54Z</time>
      </trkpt>
      <trkpt lat="43.64745" lon="3.79603">
        <ele>58.608</ele>
        <time>2019-07-04T15:03:14Z</time>
      </trkpt>
      <trkpt lat="43.64659" lon="3.79404">
        <ele>58.59</ele>
        <time>2021-04-16T16:29:50Z</time>
      </trkpt>
      <trkpt lat="43.64598" lon="3.79473">
        <ele>57.953</ele>
        <time>2021-04-16T16:30:10Z</time>
      </trkpt>
      <trkpt lat="43.64587" lon="3.7945">
        <ele>60.889</ele>
        <time>2021-04-16T16:30:30Z</time>
      </trkpt>
      <trkpt lat="43.64638" lon="3.79382">
        <ele>57.348</ele>
        <time>2019-07-04T15:04:34Z</time>
      </trkpt>
      <trkpt lat="43.64658" lon="3.793">
        <ele>61.815</ele>
        <time>2019-07-04T15:04:54Z</time>
      </trkpt>
      <trkpt lat="43.64751" lon="3.79184">
        <ele>63.566</ele>
        <time>2019-07-04T15:05:14Z</time>
      </trkpt>
      <trkpt lat="43.6481" lon="3.79131">
        <ele>61.245</ele>
        <time>2019-07-04T15:05:34Z</time>
      </trkpt>
      <trkpt lat="43.6489" lon="3.79047">
        <ele>60.666</ele>
        <time>2019-07-04T15:05:54Z</time>
      </trkpt>
      <trkpt lat="43.64961" lon="3.78998">
        <ele>61.061</ele>
        <time>2019-07-04T15:06:14Z</time>
      </trkpt>
      <trkpt lat="43.65003" lon="3.78951">
        <ele>63.121</ele>
        <time>2019-07-04T15:06:34Z</time>
      </trkpt>
      <trkpt lat="43.65074" lon="3.789">
        <ele>61.113</ele>
        <time>2019-07-04T15:06:54Z</time>
      </trkpt>
      <trkpt lat="43.65085" lon="3.78855">
        <ele>63.308</ele>
        <time>2019-07-04T15:07:14Z</time>
      </trkpt>
      <trkpt lat="43.65146" lon="3.78812">
        <ele>63.183</ele>
        <time>2019-07-04T15:07:34Z</time>
      </trkpt>
      <trkpt lat="43.65135" lon="3.78756">
        <ele>66.926</ele>
        <time>2019-07-04T15:07:54Z</time>
      </trkpt>
      <trkpt lat="43.6514" lon="3.78724">
        <ele>67.962</ele>
        <time>2019-07-04T15:08:14Z</time>
      </trkpt>
      <trkpt lat="43.65132" lon="3.78687">
        <ele>69.831</ele>
        <time>2019-07-04T15:08:34Z</time>
      </trkpt>
      <trkpt lat="43.65137" lon="3.78561">
        <ele>71.428</ele>
        <time>2019-07-04T15:08:54Z</time>
      </trkpt>
      <trkpt lat="43.65126" lon="3.78516">
        <ele>72.059</ele>
        <time>2019-07-04T15:09:14Z</time>
      </trkpt>
      <trkpt lat="43.65127" lon="3.78458">
        <ele>72.748</ele>
        <time>2019-07-04T15:09:34Z</time>
      </trkpt>
      <trkpt lat="43.6509" lon="3.78443">
        <ele>74.989</ele>
        <time>2019-07-04T15:09:54Z</time>
      </trkpt>
      <trkpt lat="43.64932" lon="3.78134">
        <ele>97.175</ele>
        <time>2019-07-04T15:10:14Z</time>
      </trkpt>
      <trkpt lat="43.64918" lon="3.78041">
        <ele>94.528</ele>
        <time>2019-07-04T15:10:34Z</time>
      </trkpt>
      <trkpt lat="43.64843" lon="3.77801">
        <ele>110.02</ele>
        <time>2019-07-04T15:10:54Z</time>
      </trkpt>
      <trkpt lat="43.64823" lon="3.77726">
        <ele>109.108</ele>
        <time>2021-04-16T16:37:30Z</time>
      </trkpt>
      <trkpt lat="43.64784" lon="3.7771">
        <ele>109.964</ele>
        <time>2021-04-16T16:37:50Z</time>
      </trkpt>
      <trkpt lat="43.64742" lon="3.77649">
        <ele>108.277</ele>
        <time>2021-04-16T16:38:10Z</time>
      </trkpt>
      <trkpt lat="43.64711" lon="3.77568">
        <ele>110.283</ele>
        <time>2021-04-16T16:38:30Z</time>
      </trkpt>
      <trkpt lat="43.64692" lon="3.7745">
        <ele>116.892</ele>
        <time>2021-04-16T16:38:50Z</time>
      </trkpt>
      <trkpt lat="43.64691" lon="3.77381">
        <ele>121.379</ele>
        <time>2021-04-16T16:39:10Z</time>
      </trkpt>
      <trkpt lat="43.6465" lon="3.77174">
        <ele>133.18</ele>
        <time>2021-04-16T16:39:30Z</time>
      </trkpt>
      <trkpt lat="43.64649" lon="3.77127">
        <ele>134.589</ele>
        <time>2021-04-16T16:39:50Z</time>
      </trkpt>
      <trkpt lat="43.64668" lon="3.77092">
        <ele>136.81</ele>
        <time>2021-04-16T16:40:10Z</time>
      </trkpt>
      <trkpt lat="43.64706" lon="3.77095">
        <ele>140.017</ele>
        <time>2021-04-16T16:40:30Z</time>
      </trkpt>
      <trkpt lat="43.6467" lon="3.76932">
        <ele>135.587</ele>
        <time>2021-04-16T16:40:50Z</time>
      </trkpt>
      <trkpt lat="43.64702" lon="3.76893">
        <ele>138.715</ele>
        <time>2021-04-16T16:41:10Z</time>
      </trkpt>
      <trkpt lat="43.64702" lon="3.76793">
        <ele>137.708</ele>
        <time>2021-04-16T16:41:30Z</time>
      </trkpt>
      <trkpt lat="43.64661" lon="3.768">
        <ele>134.788</ele>
        <time>2021-04-16T16:41:50Z</time>
      </trkpt>
      <trkpt lat="43.6466" lon="3.76784">
        <ele>135.141</ele>
        <time>2021-04-16T16:42:10Z</time>
      </trkpt>
      <trkpt lat="43.64678" lon="3.76652">
        <ele>137.147</ele>
        <time>2021-04-16T16:42:30Z</time>
      </trkpt>
      <trkpt lat="43.646" lon="3.76634">
        <ele>136.096</ele>
        <time>2021-04-16T16:42:50Z</time>
      </trkpt>
      <trkpt lat="43.64585" lon="3.76599">
        <ele>136.013</ele>
        <time>2021-04-16T16:43:10Z</time>
      </trkpt>
      <trkpt lat="43.64626" lon="3.76422">
        <ele>139.094</ele>
        <time>2021-04-16T16:43:30Z</time>
      </trkpt>
      <trkpt lat="43.64588" lon="3.75998">
        <ele>142.173</ele>
        <time>2021-04-16T16:43:50Z</time>
      </trkpt>
      <trkpt lat="43.64569" lon="3.75832">
        <ele>143.824</ele>
        <time>2021-04-16T16:44:10Z</time>
      </trkpt>
      <trkpt lat="43.64531" lon="3.75763">
        <ele>142.667</ele>
        <time>2021-04-16T16:44:30Z</time>
      </trkpt>
      <trkpt lat="43.64522" lon="3.75664">
        <ele>142.381</ele>
        <time>2021-04-16T16:44:50Z</time>
      </trkpt>
      <trkpt lat="43.64484" lon="3.75637">
        <ele>141.319</ele>
        <time>2021-04-16T16:45:10Z</time>
      </trkpt>
      <trkpt lat="43.6444" lon="3.75589">
        <ele>140.708</ele>
        <time>2021-04-16T16:45:30Z</time>
      </trkpt>
      <trkpt lat="43.64347" lon="3.75551">
        <ele>139.653</ele>
        <time>2021-04-16T16:45:50Z</time>
      </trkpt>
      <trkpt lat="43.64281" lon="3.75495">
        <ele>140.436</ele>
        <time>2021-04-16T16:46:10Z</time>
      </trkpt>
      <trkpt lat="43.64254" lon="3.75487">
        <ele>139.932</ele>
        <time>2021-04-16T16:46:30Z</time>
      </trkpt>
      <trkpt lat="43.64238" lon="3.75388">
        <ele>139.931</ele>
        <time>2021-04-16T16:46:50Z</time>
      </trkpt>
      <trkpt lat="43.64212" lon="3.75298">
        <ele>141.678</ele>
        <time>2021-04-16T16:47:10Z</time>
      </trkpt>
      <trkpt lat="43.64155" lon="3.75207">
        <ele>144.779</ele>
        <time>2021-04-16T16:47:30Z</time>
      </trkpt>
      <trkpt lat="43.64105" lon="3.751">
        <ele>148.498</ele>
        <time>2021-04-16T16:47:50Z</time>
      </trkpt>
      <trkpt lat="43.6406" lon="3.75007">
        <ele>148.999</ele>
        <time>2021-04-16T16:48:10Z</time>
      </trkpt>
      <trkpt lat="43.64028" lon="3.74993">
        <ele>150.924</ele>
        <time>2021-04-16T16:48:30Z</time>
      </trkpt>
      <trkpt lat="43.63997" lon="3.74928">
        <ele>153.204</ele>
        <time>2021-04-16T16:48:50Z</time>
      </trkpt>
      <trkpt lat="43.63966" lon="3.74892">
        <ele>154.814</ele>
        <time>2021-04-16T16:49:10Z</time>
      </trkpt>
      <trkpt lat="43.6396" lon="3.7483">
        <ele>150.208</ele>
        <time>2019-07-04T15:21:14Z</time>
      </trkpt>
      <trkpt lat="43.6394" lon="3.74654">
        <ele>150.319</ele>
        <time>2019-07-04T15:21:34Z</time>
      </trkpt>
      <trkpt lat="43.63907" lon="3.74492">
        <ele>153.312</ele>
        <time>2019-07-04T15:21:54Z</time>
      </trkpt>
      <trkpt lat="43.63907" lon="3.74391">
        <ele>151.148</ele>
        <time>2019-07-04T15:22:14Z</time>
      </trkpt>
      <trkpt lat="43.6389" lon="3.74296">
        <ele>147.887</ele>
        <time>2019-07-04T15:22:34Z</time>
      </trkpt>
      <trkpt lat="43.63887" lon="3.74197">
        <ele>145.894</ele>
        <time>2019-07-04T15:22:54Z</time>
      </trkpt>
      <trkpt lat="43.63864" lon="3.73871">
        <ele>143.035</ele>
        <time>2019-07-04T15:23:14Z</time>
      </trkpt>
      <trkpt lat="43.63868" lon="3.7378">
        <ele>139.324</ele>
        <time>2019-07-04T15:23:34Z</time>
      </trkpt>
      <trkpt lat="43.63835" lon="3.73717">
        <ele>138.055</ele>
        <time>2019-07-04T15:23:54Z</time>
      </trkpt>
      <trkpt lat="43.6385" lon="3.73349">
        <ele>133.839</ele>
        <time>2019-07-04T15:24:14Z</time>
      </trkpt>
      <trkpt lat="43.63848" lon="3.7311">
        <ele>131.901</ele>
        <time>2019-07-04T15:24:34Z</time>
      </trkpt>
      <trkpt lat="43.63876" lon="3.72898">
        <ele>130.421</ele>
        <time>2019-07-04T15:24:54Z</time>
      </trkpt>
      <trkpt lat="43.6391" lon="3.72729">
        <ele>129.408</ele>
        <time>2019-07-04T15:25:14Z</time>
      </trkpt>
      <trkpt lat="43.63969" lon="3.72523">
        <ele>129.26</ele>
        <time>2019-07-04T15:25:34Z</time>
      </trkpt>
      <trkpt lat="43.64039" lon="3.72393">
        <ele>129.073</ele>
        <time>2019-07-04T15:25:54Z</time>
      </trkpt>
      <trkpt lat="43.64084" lon="3.72327">
        <ele>128.289</ele>
        <time>2019-07-04T15:26:14Z</time>
      </trkpt>
      <trkpt lat="43.64129" lon="3.72241">
        <ele>128.468</ele>
        <time>2019-07-04T15:26:34Z</time>
      </trkpt>
      <trkpt lat="43.64211" lon="3.72026">
        <ele>128.065</ele>
        <time>2019-07-04T15:26:54Z</time>
      </trkpt>
      <trkpt lat="43.64228" lon="3.71911">
        <ele>129.086</ele>
        <time>2019-07-04T15:27:14Z</time>
      </trkpt>
      <trkpt lat="43.64219" lon="3.71901">
        <ele>129.195</ele>
        <time>2019-07-04T15:27:34Z</time>
      </trkpt>
      <trkpt lat="43.64249" lon="3.71816">
        <ele>132.366</ele>
        <time>2019-07-04T15:27:54Z</time>
      </trkpt>
      <trkpt lat="43.64251" lon="3.71759">
        <ele>135.885</ele>
        <time>2021-04-16T16:56:50Z</time>
      </trkpt>
      <trkpt lat="43.64238" lon="3.71752">
        <ele>136.213</ele>
        <time>2019-07-04T15:29:14Z</time>
      </trkpt>
      <trkpt lat="43.64217" lon="3.71765">
        <ele>137.208</ele>
        <time>2019-07-04T15:29:34Z</time>
      </trkpt>
      <trkpt lat="43.64188" lon="3.71666">
        <ele>143.984</ele>
        <time>2019-07-04T15:29:54Z</time>
      </trkpt>
      <trkpt lat="43.64076" lon="3.71572">
        <ele>152.697</ele>
        <time>2019-07-04T15:30:14Z</time>
      </trkpt>
      <trkpt lat="43.64065" lon="3.71514">
        <ele>150.283</ele>
        <time>2019-07-04T15:30:34Z</time>
      </trkpt>
      <trkpt lat="43.6407" lon="3.71467">
        <ele>147.242</ele>
        <time>2019-07-04T15:30:54Z</time>
      </trkpt>
      <trkpt lat="43.64068" lon="3.71422">
        <ele>143.389</ele>
        <time>2019-07-04T15:31:14Z</time>
      </trkpt>
      <trkpt lat="43.64076" lon="3.71338">
        <ele>140.05</ele>
        <time>2019-07-04T15:31:34Z</time>
      </trkpt>
      <trkpt lat="43.64042" lon="3.71224">
        <ele>129.869</ele>
        <time>2019-07-04T15:31:54Z</time>
      </trkpt>
      <trkpt lat="43.64061" lon="3.71192">
        <ele>126.96</ele>
        <time>2019-07-04T15:32:14Z</time>
      </trkpt>
      <trkpt lat="43.6405" lon="3.71171">
        <ele>126.298</ele>
        <time>2019-07-04T15:32:34Z</time>
      </trkpt>
      <trkpt lat="43.64026" lon="3.71179">
        <ele>126.915</ele>
        <time>2019-07-04T15:32:54Z</time>
      </trkpt>
      <trkpt lat="43.63994" lon="3.71151">
        <ele>126.826</ele>
        <time>2019-07-04T15:33:14Z</time>
      </trkpt>
      <trkpt lat="43.63961" lon="3.7116">
        <ele>130.708</ele>
        <time>2019-07-04T15:33:34Z</time>
      </trkpt>
      <trkpt lat="43.63933" lon="3.71149">
        <ele>136.376</ele>
        <time>2019-07-04T15:33:54Z</time>
      </trkpt>
      <trkpt lat="43.63916" lon="3.71095">
        <ele>140.059</ele>
        <time>2019-07-04T15:34:14Z</time>
      </trkpt>
      <trkpt lat="43.63924" lon="3.7104">
        <ele>139.635</ele>
        <time>2019-07-04T15:34:34Z</time>
      </trkpt>
      <trkpt lat="43.63946" lon="3.71001">
        <ele>140.084</ele>
        <time>2019-07-04T15:34:54Z</time>
      </trkpt>
      <trkpt lat="43.63963" lon="3.70924">
        <ele>141.861</ele>
        <time>2019-07-04T15:35:14Z</time>
      </trkpt>
      <trkpt lat="43.63983" lon="3.70862">
        <ele>142.612</ele>
        <time>2019-07-04T15:35:34Z</time>
      </trkpt>
      <trkpt lat="43.63998" lon="3.70733">
        <ele>144.951</ele>
        <time>2019-07-04T15:35:54Z</time>
      </trkpt>
      <trkpt lat="43.63997" lon="3.70634">
        <ele>143.332</ele>
        <time>2019-07-04T15:36:14Z</time>
      </trkpt>
      <trkpt lat="43.63952" lon="3.70512">
        <ele>135.571</ele>
        <time>2019-07-04T15:36:34Z</time>
      </trkpt>
      <trkpt lat="43.63943" lon="3.70441">
        <ele>130.541</ele>
        <time>2019-07-04T15:36:54Z</time>
      </trkpt>
      <trkpt lat="43.63929" lon="3.70422">
        <ele>127.515</ele>
        <time>2019-07-04T15:37:14Z</time>
      </trkpt>
      <trkpt lat="43.63947" lon="3.70396">
        <ele>127.108</ele>
        <time>2019-07-04T15:37:34Z</time>
      </trkpt>
      <trkpt lat="43.63964" lon="3.70381">
        <ele>128.164</ele>
        <time>2019-07-04T15:37:54Z</time>
      </trkpt>
      <trkpt lat="43.64002" lon="3.70325">
        <ele>126.417</ele>
        <time>2019-07-04T15:38:14Z</time>
      </trkpt>
      <trkpt lat="43.64113" lon="3.70282">
        <ele>113.293</ele>
        <time>2019-07-04T15:38:34Z</time>
      </trkpt>
      <trkpt lat="43.64197" lon="3.70188">
        <ele>110.062</ele>
        <time>2019-07-04T15:38:54Z</time>
      </trkpt>
      <trkpt lat="43.64261" lon="3.7013">
        <ele>110.049</ele>
        <time>2019-07-04T15:39:14Z</time>
      </trkpt>
      <trkpt lat="43.6432" lon="3.70057">
        <ele>111.59</ele>
        <time>2019-07-04T15:39:34Z</time>
      </trkpt>
      <trkpt lat="43.64373" lon="3.70014">
        <ele>112.169</ele>
        <time>2019-07-04T15:39:54Z</time>
      </trkpt>
      <trkpt lat="43.64415" lon="3.6999">
        <ele>110.89</ele>
        <time>2019-07-04T15:40:14Z</time>
      </trkpt>
      <trkpt lat="43.64461" lon="3.69984">
        <ele>109.337</ele>
        <time>2019-07-04T15:40:34Z</time>
      </trkpt>
      <trkpt lat="43.64537" lon="3.69941">
        <ele>110.149</ele>
        <time>2019-07-04T15:40:54Z</time>
      </trkpt>
      <trkpt lat="43.64596" lon="3.69935">
        <ele>110.213</ele>
        <time>2019-07-04T15:41:14Z</time>
      </trkpt>
      <trkpt lat="43.64734" lon="3.6987">
        <ele>119.408</ele>
        <time>2019-07-04T15:41:34Z</time>
      </trkpt>
      <trkpt lat="43.64857" lon="3.69834">
        <ele>123.87</ele>
        <time>2019-07-04T15:41:54Z</time>
      </trkpt>
      <trkpt lat="43.64885" lon="3.69834">
        <ele>124.013</ele>
        <time>2019-07-04T15:42:14Z</time>
      </trkpt>
      <trkpt lat="43.64945" lon="3.6972">
        <ele>134.919</ele>
        <time>2016-12-27T18:07:10Z</time>
      </trkpt>
      <trkpt lat="43.64975" lon="3.69733">
        <ele>126.885</ele>
        <time>2016-12-27T18:07:30Z</time>
      </trkpt>
      <trkpt lat="43.64963" lon="3.69621">
        <ele>128.016</ele>
        <time>2016-12-27T18:07:50Z</time>
      </trkpt>
      <trkpt lat="43.64945" lon="3.69559">
        <ele>142.265</ele>
        <time>2021-04-16T17:11:50Z</time>
      </trkpt>
      <trkpt lat="43.64958" lon="3.69515">
        <ele>140.046</ele>
        <time>2021-04-16T17:12:10Z</time>
      </trkpt>
      <trkpt lat="43.64927" lon="3.69456">
        <ele>139.839</ele>
        <time>2021-04-16T17:12:30Z</time>
      </trkpt>
      <trkpt lat="43.64959" lon="3.69397">
        <ele>134.201</ele>
        <time>2021-04-16T17:12:50Z</time>
      </trkpt>
      <trkpt lat="43.64937" lon="3.69372">
        <ele>134.221</ele>
        <time>2021-04-16T17:13:10Z</time>
      </trkpt>
      <trkpt lat="43.64985" lon="3.6924">
        <ele>135.308</ele>
        <time>2021-04-16T17:13:30Z</time>
      </trkpt>
      <trkpt lat="43.65048" lon="3.6929">
        <ele>135.19</ele>
        <time>2021-04-16T17:13:50Z</time>
      </trkpt>
      <trkpt lat="43.65071" lon="3.69261">
        <ele>134.093</ele>
        <time>2016-12-27T18:09:50Z</time>
      </trkpt>
      <trkpt lat="43.65054" lon="3.69141">
        <ele>138.099</ele>
        <time>2016-12-27T18:10:10Z</time>
      </trkpt>
      <trkpt lat="43.65054" lon="3.69073">
        <ele>142.958</ele>
        <time>2021-04-16T17:14:50Z</time>
      </trkpt>
      <trkpt lat="43.65029" lon="3.68992">
        <ele>145.435</ele>
        <time>2021-04-16T17:15:10Z</time>
      </trkpt>
      <trkpt lat="43.65031" lon="3.68943">
        <ele>144.116</ele>
        <time>2016-12-27T18:11:10Z</time>
      </trkpt>
      <trkpt lat="43.65049" lon="3.68837">
        <ele>145.865</ele>
        <time>2021-04-16T17:15:50Z</time>
      </trkpt>
      <trkpt lat="43.65054" lon="3.68737">
        <ele>150.496</ele>
        <time>2016-12-27T18:11:50Z</time>
      </trkpt>
      <trkpt lat="43.65098" lon="3.68619">
        <ele>157.237</ele>
        <time>2016-12-27T18:12:10Z</time>
      </trkpt>
      <trkpt lat="43.65124" lon="3.68486">
        <ele>162.249</ele>
        <time>2016-12-27T18:12:30Z</time>
      </trkpt>
      <trkpt lat="43.65102" lon="3.68424">
        <ele>168.713</ele>
        <time>2016-12-27T18:12:50Z</time>
      </trkpt>
      <trkpt lat="43.65091" lon="3.6836">
        <ele>178.208</ele>
        <time>2016-12-27T18:13:10Z</time>
      </trkpt>
      <trkpt lat="43.65107" lon="3.68351">
        <ele>176.38</ele>
        <time>2016-12-27T18:13:30Z</time>
      </trkpt>
      <trkpt lat="43.65141" lon="3.68351">
        <ele>176.793</ele>
        <time>2016-12-27T18:13:50Z</time>
      </trkpt>
      <trkpt lat="43.652" lon="3.68304">
        <ele>178.519</ele>
        <time>2016-12-27T18:14:10Z</time>
      </trkpt>
      <trkpt lat="43.65191" lon="3.68278">
        <ele>181.598</ele>
        <time>2016-12-27T18:14:30Z</time>
      </trkpt>
      <trkpt lat="43.65171" lon="3.68279">
        <ele>184.665</ele>
        <time>2021-04-16T17:19:10Z</time>
      </trkpt>
      <trkpt lat="43.6516" lon="3.68259">
        <ele>187.776</ele>
        <time>2021-04-16T17:19:30Z</time>
      </trkpt>
      <trkpt lat="43.65112" lon="3.68235">
        <ele>197.845</ele>
        <time>2021-04-16T17:19:50Z</time>
      </trkpt>
      <trkpt lat="43.65141" lon="3.68209">
        <ele>199.956</ele>
        <time>2016-12-27T18:16:10Z</time>
      </trkpt>
      <trkpt lat="43.65147" lon="3.68194">
        <ele>201.874</ele>
        <time>2016-12-27T18:16:30Z</time>
      </trkpt>
      <trkpt lat="43.65144" lon="3.68175">
        <ele>207.056</ele>
        <time>2016-12-27T18:16:50Z</time>
      </trkpt>
      <trkpt lat="43.65169" lon="3.68145">
        <ele>209.221</ele>
        <time>2016-12-27T18:17:10Z</time>
      </trkpt>
      <trkpt lat="43.65178" lon="3.68083">
        <ele>221.808</ele>
        <time>2016-12-27T18:17:30Z</time>
      </trkpt>
      <trkpt lat="43.65199" lon="3.68048">
        <ele>223.924</ele>
        <time>2016-12-27T18:17:50Z</time>
      </trkpt>
      <trkpt lat="43.65223" lon="3.67986">
        <ele>234.787</ele>
        <time>2016-12-27T18:18:10Z</time>
      </trkpt>
      <trkpt lat="43.65276" lon="3.67928">
        <ele>241.133</ele>
        <time>2016-12-27T18:18:30Z</time>
      </trkpt>
      <trkpt lat="43.65315" lon="3.67898">
        <ele>247.432</ele>
        <time>2016-12-27T18:18:50Z</time>
      </trkpt>
      <trkpt lat="43.65334" lon="3.67875">
        <ele>252.699</ele>
        <time>2016-12-27T18:19:10Z</time>
      </trkpt>
      <trkpt lat="43.6534" lon="3.67835">
        <ele>260.78</ele>
        <time>2021-04-16T17:23:30Z</time>
      </trkpt>
      <trkpt lat="43.65341" lon="3.67778">
        <ele>259.389</ele>
        <time>2016-12-27T18:20:10Z</time>
      </trkpt>
      <trkpt lat="43.65358" lon="3.67654">
        <ele>248.45</ele>
        <time>2016-12-27T18:20:30Z</time>
      </trkpt>
      <trkpt lat="43.65365" lon="3.6748">
        <ele>249.475</ele>
        <time>2016-12-27T18:20:50Z</time>
      </trkpt>
      <trkpt lat="43.65405" lon="3.67338">
        <ele>250.828</ele>
        <time>2016-12-27T18:21:10Z</time>
      </trkpt>
      <trkpt lat="43.65427" lon="3.67218">
        <ele>250.72</ele>
        <time>2016-12-27T18:21:30Z</time>
      </trkpt>
      <trkpt lat="43.65497" lon="3.67132">
        <ele>248.808</ele>
        <time>2016-12-27T18:21:50Z</time>
      </trkpt>
      <trkpt lat="43.65548" lon="3.67046">
        <ele>238.514</ele>
        <time>2016-12-27T18:22:10Z</time>
      </trkpt>
      <trkpt lat="43.65568" lon="3.66976">
        <ele>237.377</ele>
        <time>2016-12-27T18:22:30Z</time>
      </trkpt>
      <trkpt lat="43.65588" lon="3.66855">
        <ele>241.633</ele>
        <time>2016-12-27T18:22:50Z</time>
      </trkpt>
      <trkpt lat="43.65632" lon="3.66716">
        <ele>245.272</ele>
        <time>2016-12-27T18:23:10Z</time>
      </trkpt>
      <trkpt lat="43.65666" lon="3.66673">
        <ele>247.089</ele>
        <time>2016-12-27T18:23:30Z</time>
      </trkpt>
      <trkpt lat="43.657" lon="3.66597">
        <ele>248.13</ele>
        <time>2021-04-16T17:27:30Z</time>
      </trkpt>
      <trkpt lat="43.65713" lon="3.66517">
        <ele>245.479</ele>
        <time>2021-04-16T17:27:50Z</time>
      </trkpt>
      <trkpt lat="43.65767" lon="3.66407">
        <ele>239.83</ele>
        <time>2021-04-16T17:28:10Z</time>
      </trkpt>
      <trkpt lat="43.65789" lon="3.66332">
        <ele>235.699</ele>
        <time>2021-04-16T17:28:30Z</time>
      </trkpt>
      <trkpt lat="43.65807" lon="3.66302">
        <ele>233.107</ele>
        <time>2021-04-16T17:28:50Z</time>
      </trkpt>
      <trkpt lat="43.65815" lon="3.66267">
        <ele>231.227</ele>
        <time>2021-04-16T17:29:10Z</time>
      </trkpt>
      <trkpt lat="43.65835" lon="3.66236">
        <ele>229.408</ele>
        <time>2021-04-16T17:29:30Z</time>
      </trkpt>
      <trkpt lat="43.65847" lon="3.6627">
        <ele>229.766</ele>
        <time>2021-04-16T17:29:50Z</time>
      </trkpt>
      <trkpt lat="43.65881" lon="3.6622">
        <ele>226.339</ele>
        <time>2021-04-16T17:30:10Z</time>
      </trkpt>
      <trkpt lat="43.65913" lon="3.66174">
        <ele>223.365</ele>
        <time>2021-04-16T17:30:30Z</time>
      </trkpt>
      <trkpt lat="43.66023" lon="3.66096">
        <ele>210.374</ele>
        <time>2016-12-27T18:26:10Z</time>
      </trkpt>
      <trkpt lat="43.66052" lon="3.66044">
        <ele>207.771</ele>
        <time>2016-12-27T18:26:30Z</time>
      </trkpt>
      <trkpt lat="43.6606" lon="3.65976">
        <ele>205.052</ele>
        <time>2016-12-27T18:26:50Z</time>
      </trkpt>
      <trkpt lat="43.66028" lon="3.65858">
        <ele>198.671</ele>
        <time>2016-12-27T18:27:10Z</time>
      </trkpt>
      <trkpt lat="43.66021" lon="3.658">
        <ele>193.652</ele>
        <time>2016-12-27T18:27:30Z</time>
      </trkpt>
      <trkpt lat="43.66042" lon="3.65495">
        <ele>192.294</ele>
        <time>2016-12-27T18:27:50Z</time>
      </trkpt>
      <trkpt lat="43.6606" lon="3.65431">
        <ele>195.057</ele>
        <time>2016-12-27T18:28:10Z</time>
      </trkpt>
      <trkpt lat="43.66076" lon="3.65394">
        <ele>195.022</ele>
        <time>2016-12-27T18:28:30Z</time>
      </trkpt>
      <trkpt lat="43.66083" lon="3.64931">
        <ele>175.008</ele>
        <time>2016-12-27T18:28:50Z</time>
      </trkpt>
      <trkpt lat="43.66099" lon="3.64802">
        <ele>175.196</ele>
        <time>2016-12-27T18:29:10Z</time>
      </trkpt>
      <trkpt lat="43.66169" lon="3.64504">
        <ele>197.679</ele>
        <time>2016-12-27T18:29:30Z</time>
      </trkpt>
      <trkpt lat="43.66186" lon="3.64497">
        <ele>198.295</ele>
        <time>2016-12-27T18:29:50Z</time>
      </trkpt>
      <trkpt lat="43.66161" lon="3.64465">
        <ele>201.524</ele>
        <time>2016-12-27T18:30:10Z</time>
      </trkpt>
      <trkpt lat="43.66265" lon="3.64454">
        <ele>207.371</ele>
        <time>2016-12-27T18:30:30Z</time>
      </trkpt>
      <trkpt lat="43.6636" lon="3.64517">
        <ele>210.952</ele>
        <time>2016-12-27T18:30:50Z</time>
      </trkpt>
      <trkpt lat="43.66384" lon="3.64448">
        <ele>211.341</ele>
        <time>2021-04-16T17:35:50Z</time>
      </trkpt>
      <trkpt lat="43.66378" lon="3.64405">
        <ele>209.652</ele>
        <time>2016-12-27T18:31:30Z</time>
      </trkpt>
      <trkpt lat="43.66377" lon="3.64152">
        <ele>199.465</ele>
        <time>2016-12-27T18:31:50Z</time>
      </trkpt>
      <trkpt lat="43.66475" lon="3.64002">
        <ele>196.068</ele>
        <time>2016-12-27T18:32:10Z</time>
      </trkpt>
      <trkpt lat="43.66579" lon="3.63886">
        <ele>193.214</ele>
        <time>2016-12-27T18:32:30Z</time>
      </trkpt>
      <trkpt lat="43.66717" lon="3.63735">
        <ele>189.108</ele>
        <time>2016-12-27T18:32:50Z</time>
      </trkpt>
      <trkpt lat="43.66856" lon="3.63632">
        <ele>184.063</ele>
        <time>2016-12-27T18:33:10Z</time>
      </trkpt>
      <trkpt lat="43.66977" lon="3.63587">
        <ele>185.116</ele>
        <time>2016-12-27T18:33:30Z</time>
      </trkpt>
      <trkpt lat="43.67091" lon="3.6357">
        <ele>184.362</ele>
        <time>2016-12-27T18:33:50Z</time>
      </trkpt>
      <trkpt lat="43.67244" lon="3.63579">
        <ele>174.211</ele>
        <time>2016-12-27T18:34:10Z</time>
      </trkpt>
      <trkpt lat="43.67369" lon="3.63602">
        <ele>170.178</ele>
        <time>2016-12-27T18:34:30Z</time>
      </trkpt>
      <trkpt lat="43.67457" lon="3.63594">
        <ele>169.959</ele>
        <time>2016-12-27T18:34:50Z</time>
      </trkpt>
      <trkpt lat="43.67564" lon="3.63549">
        <ele>165.748</ele>
        <time>2016-12-27T18:35:10Z</time>
      </trkpt>
      <trkpt lat="43.67662" lon="3.63474">
        <ele>165.199</ele>
        <time>2016-12-27T18:35:30Z</time>
      </trkpt>
      <trkpt lat="43.67746" lon="3.63386">
        <ele>163.937</ele>
        <time>2016-12-27T18:35:50Z</time>
      </trkpt>
      <trkpt lat="43.67812" lon="3.63293">
        <ele>160.849</ele>
        <time>2016-12-27T18:36:10Z</time>
      </trkpt>
      <trkpt lat="43.67851" lon="3.63203">
        <ele>161.413</ele>
        <time>2016-12-27T18:36:30Z</time>
      </trkpt>
      <trkpt lat="43.67896" lon="3.63094">
        <ele>157.908</ele>
        <time>2016-12-27T18:36:50Z</time>
      </trkpt>
      <trkpt lat="43.6789" lon="3.63047">
        <ele>153.94</ele>
        <time>2016-12-27T18:37:10Z</time>
      </trkpt>
      <trkpt lat="43.67899" lon="3.63008">
        <ele>150.593</ele>
        <time>2016-12-27T18:37:30Z</time>
      </trkpt>
      <trkpt lat="43.6794" lon="3.62995">
        <ele>152.659</ele>
        <time>2016-12-27T18:37:50Z</time>
      </trkpt>
      <trkpt lat="43.68173" lon="3.62468">
        <ele>144.428</ele>
        <time>2021-04-16T17:42:50Z</time>
      </trkpt>
      <trkpt lat="43.682" lon="3.62373">
        <ele>139.485</ele>
        <time>2016-12-27T18:38:30Z</time>
      </trkpt>
      <trkpt lat="43.683" lon="3.61819">
        <ele>135.016</ele>
        <time>2016-12-27T18:38:50Z</time>
      </trkpt>
      <trkpt lat="43.68266" lon="3.61667">
        <ele>134.155</ele>
        <time>2016-12-27T18:39:10Z</time>
      </trkpt>
      <trkpt lat="43.68186" lon="3.61553">
        <ele>133.556</ele>
        <time>2016-12-27T18:39:30Z</time>
      </trkpt>
      <trkpt lat="43.68165" lon="3.61512">
        <ele>133.517</ele>
        <time>2016-12-27T18:39:50Z</time>
      </trkpt>
      <trkpt lat="43.68114" lon="3.61461">
        <ele>132.587</ele>
        <time>2016-12-27T18:40:10Z</time>
      </trkpt>
      <trkpt lat="43.68103" lon="3.61403">
        <ele>133.315</ele>
        <time>2016-12-27T18:40:30Z</time>
      </trkpt>
      <trkpt lat="43.68082" lon="3.61367">
        <ele>133.708</ele>
        <time>2016-12-27T18:40:50Z</time>
      </trkpt>
      <trkpt lat="43.68065" lon="3.61311">
        <ele>133.698</ele>
        <time>2016-12-27T18:41:10Z</time>
      </trkpt>
      <trkpt lat="43.67999" lon="3.61195">
        <ele>132.861</ele>
        <time>2016-12-27T18:41:30Z</time>
      </trkpt>
      <trkpt lat="43.67909" lon="3.61139">
        <ele>129.147</ele>
        <time>2016-12-27T18:41:50Z</time>
      </trkpt>
      <trkpt lat="43.67819" lon="3.61107">
        <ele>126.936</ele>
        <time>2016-12-27T18:42:10Z</time>
      </trkpt>
      <trkpt lat="43.67788" lon="3.61068">
        <ele>127.593</ele>
        <time>2016-12-27T18:42:30Z</time>
      </trkpt>
      <trkpt lat="43.67749" lon="3.61032">
        <ele>125.814</ele>
        <time>2016-12-27T18:42:50Z</time>
      </trkpt>
      <trkpt lat="43.67735" lon="3.6097">
        <ele>129.613</ele>
        <time>2016-12-27T18:43:10Z</time>
      </trkpt>
      <trkpt lat="43.67676" lon="3.60869">
        <ele>128.414</ele>
        <time>2016-12-27T18:43:30Z</time>
      </trkpt>
      <trkpt lat="43.6762" lon="3.60751">
        <ele>125.471</ele>
        <time>2016-12-27T18:43:50Z</time>
      </trkpt>
      <trkpt lat="43.67563" lon="3.60682">
        <ele>126.241</ele>
        <time>2016-12-27T18:44:10Z</time>
      </trkpt>
      <trkpt lat="43.6751" lon="3.60649">
        <ele>133.215</ele>
        <time>2021-04-16T17:49:10Z</time>
      </trkpt>
      <trkpt lat="43.67496" lon="3.60627">
        <ele>136.808</ele>
        <time>2021-04-16T17:49:30Z</time>
      </trkpt>
      <trkpt lat="43.67437" lon="3.60573">
        <ele>135.824</ele>
        <time>2021-04-16T17:49:50Z</time>
      </trkpt>
      <trkpt lat="43.67431" lon="3.60521">
        <ele>137.097</ele>
        <time>2016-12-27T18:44:50Z</time>
      </trkpt>
      <trkpt lat="43.6746" lon="3.60377">
        <ele>152.463</ele>
        <time>2016-12-27T18:45:10Z</time>
      </trkpt>
      <trkpt lat="43.67417" lon="3.60317">
        <ele>150.712</ele>
        <time>2016-12-27T18:45:30Z</time>
      </trkpt>
      <trkpt lat="43.67286" lon="3.60274">
        <ele>163.229</ele>
        <time>2016-12-27T18:45:50Z</time>
      </trkpt>
      <trkpt lat="43.67199" lon="3.60137">
        <ele>164.15</ele>
        <time>2016-12-27T18:46:10Z</time>
      </trkpt>
      <trkpt lat="43.67226" lon="3.60098">
        <ele>165.689</ele>
        <time>2016-12-27T18:46:30Z</time>
      </trkpt>
      <trkpt lat="43.67266" lon="3.60053">
        <ele>167.44</ele>
        <time>2016-12-27T18:46:50Z</time>
      </trkpt>
      <trkpt lat="43.67212" lon="3.59972">
        <ele>164.787</ele>
        <time>2016-12-27T18:47:10Z</time>
      </trkpt>
      <trkpt lat="43.67215" lon="3.59811">
        <ele>153.942</ele>
        <time>2016-12-27T18:47:30Z</time>
      </trkpt>
      <trkpt lat="43.67227" lon="3.59706">
        <ele>148.426</ele>
        <time>2016-12-27T18:47:50Z</time>
      </trkpt>
      <trkpt lat="43.67305" lon="3.59639">
        <ele>139.708</ele>
        <time>2021-04-16T17:53:30Z</time>
      </trkpt>
      <trkpt lat="43.6721" lon="3.59637">
        <ele>142.575</ele>
        <time>2016-12-27T18:48:30Z</time>
      </trkpt>
      <trkpt lat="43.67201" lon="3.59624">
        <ele>141.638</ele>
        <time>2016-12-27T18:48:50Z</time>
      </trkpt>
      <trkpt lat="43.67175" lon="3.59594">
        <ele>141.844</ele>
        <time>2016-12-27T18:49:10Z</time>
      </trkpt>
      <trkpt lat="43.67223" lon="3.59431">
        <ele>136.543</ele>
        <time>2016-12-27T18:49:30Z</time>
      </trkpt>
      <trkpt lat="43.67243" lon="3.59414">
        <ele>133.82</ele>
        <time>2016-12-27T18:49:50Z</time>
      </trkpt>
      <trkpt lat="43.67271" lon="3.59311">
        <ele>132.051</ele>
        <time>2016-12-27T18:50:10Z</time>
      </trkpt>
      <trkpt lat="43.67317" lon="3.59219">
        <ele>139.68</ele>
        <time>2016-12-27T18:50:30Z</time>
      </trkpt>
      <trkpt lat="43.67364" lon="3.5918">
        <ele>140.811</ele>
        <time>2016-12-27T18:50:50Z</time>
      </trkpt>
      <trkpt lat="43.67424" lon="3.59105">
        <ele>137.566</ele>
        <time>2016-12-27T18:51:10Z</time>
      </trkpt>
      <trkpt lat="43.67553" lon="3.59">
        <ele>122.829</ele>
        <time>2016-12-27T18:51:30Z</time>
      </trkpt>
      <trkpt lat="43.67611" lon="3.58963">
        <ele>124.721</ele>
        <time>2016-12-27T18:51:50Z</time>
      </trkpt>
      <trkpt lat="43.67657" lon="3.58953">
        <ele>119.608</ele>
        <time>2016-12-27T18:52:10Z</time>
      </trkpt>
      <trkpt lat="43.6769" lon="3.58976">
        <ele>117.183</ele>
        <time>2016-12-27T18:52:30Z</time>
      </trkpt>
      <trkpt lat="43.67752" lon="3.58983">
        <ele>111.966</ele>
        <time>2016-12-27T18:52:50Z</time>
      </trkpt>
      <trkpt lat="43.67788" lon="3.58968">
        <ele>107.212</ele>
        <time>2016-12-27T18:53:10Z</time>
      </trkpt>
      <trkpt lat="43.67814" lon="3.58944">
        <ele>103.321</ele>
        <time>2016-12-27T18:53:30Z</time>
      </trkpt>
      <trkpt lat="43.67972" lon="3.58869">
        <ele>87.858</ele>
        <time>2016-12-27T18:53:50Z</time>
      </trkpt>
      <trkpt lat="43.68039" lon="3.58826">
        <ele>82.059</ele>
        <time>2016-12-27T18:54:10Z</time>
      </trkpt>
      <trkpt lat="43.68095" lon="3.58794">
        <ele>78.948</ele>
        <time>2016-12-27T18:54:30Z</time>
      </trkpt>
      <trkpt lat="43.68137" lon="3.58809">
        <ele>71.649</ele>
        <time>2016-12-27T18:54:50Z</time>
      </trkpt>
      <trkpt lat="43.68165" lon="3.58725">
        <ele>67.056</ele>
        <time>2016-12-27T18:55:10Z</time>
      </trkpt>
      <trkpt lat="43.682" lon="3.58682">
        <ele>65.659</ele>
        <time>2016-12-27T18:55:30Z</time>
      </trkpt>
      <trkpt lat="43.68249" lon="3.58654">
        <ele>60.714</ele>
        <time>2016-12-27T18:55:50Z</time>
      </trkpt>
      <trkpt lat="43.68259" lon="3.5862">
        <ele>62.408</ele>
        <time>2016-12-27T18:56:10Z</time>
      </trkpt>
      <trkpt lat="43.68281" lon="3.58605">
        <ele>61.312</ele>
        <time>2016-12-27T18:56:30Z</time>
      </trkpt>
      <trkpt lat="43.68301" lon="3.58633">
        <ele>58.625</ele>
        <time>2016-12-27T18:56:50Z</time>
      </trkpt>
      <trkpt lat="43.68335" lon="3.58607">
        <ele>58.931</ele>
        <time>2016-12-27T18:57:10Z</time>
      </trkpt>
      <trkpt lat="43.68405" lon="3.58614">
        <ele>58.02</ele>
        <time>2016-12-27T18:57:30Z</time>
      </trkpt>
      <trkpt lat="43.68487" lon="3.58646">
        <ele>63.227</ele>
        <time>2016-12-27T18:57:50Z</time>
      </trkpt>
      <trkpt lat="43.68568" lon="3.58615">
        <ele>71.918</ele>
        <time>2021-04-16T18:03:30Z</time>
      </trkpt>
      <trkpt lat="43.68996" lon="3.58382">
        <ele>62.837</ele>
        <time>2016-12-27T18:58:30Z</time>
      </trkpt>
      <trkpt lat="43.6905" lon="3.58344">
        <ele>67.456</ele>
        <time>2021-04-16T18:04:30Z</time>
      </trkpt>
      <trkpt lat="43.69107" lon="3.58286">
        <ele>65.759</ele>
        <time>2021-04-16T18:04:50Z</time>
      </trkpt>
      <trkpt lat="43.69203" lon="3.58228">
        <ele>61.614</ele>
        <time>2021-04-16T18:05:10Z</time>
      </trkpt>
      <trkpt lat="43.69223" lon="3.58234">
        <ele>61.308</ele>
        <time>2021-04-16T18:05:30Z</time>
      </trkpt>
      <trkpt lat="43.69245" lon="3.58305">
        <ele>63.782</ele>
        <time>2021-04-16T18:05:50Z</time>
      </trkpt>
      <trkpt lat="43.69248" lon="3.58446">
        <ele>62.045</ele>
        <time>2016-12-27T19:00:30Z</time>
      </trkpt>
      <trkpt lat="43.69387" lon="3.58474">
        <ele>64.931</ele>
        <time>2016-12-27T19:00:50Z</time>
      </trkpt>
      <trkpt lat="43.69459" lon="3.58406">
        <ele>64.82</ele>
        <time>2016-12-27T19:01:10Z</time>
      </trkpt>
      <trkpt lat="43.69608" lon="3.58307">
        <ele>63.097</ele>
        <time>2016-12-27T19:01:30Z</time>
      </trkpt>
      <trkpt lat="43.69828" lon="3.58316">
        <ele>65.888</ele>
        <time>2016-12-27T19:01:50Z</time>
      </trkpt>
      <trkpt lat="43.69873" lon="3.58276">
        <ele>66.067</ele>
        <time>2016-12-27T19:02:10Z</time>
      </trkpt>
      <trkpt lat="43.69917" lon="3.58258">
        <ele>67.038</ele>
        <time>2016-12-27T19:02:30Z</time>
      </trkpt>
      <trkpt lat="43.69983" lon="3.58275">
        <ele>67.976</ele>
        <time>2016-12-27T19:02:50Z</time>
      </trkpt>
      <trkpt lat="43.70024" lon="3.58241">
        <ele>68.09</ele>
        <time>2016-12-27T19:03:10Z</time>
      </trkpt>
      <trkpt lat="43.70068" lon="3.58152">
        <ele>69.019</ele>
        <time>2016-12-27T19:03:30Z</time>
      </trkpt>
      <trkpt lat="43.70129" lon="3.58118">
        <ele>70.008</ele>
        <time>2016-12-27T19:03:50Z</time>
      </trkpt>
      <trkpt lat="43.70182" lon="3.58023">
        <ele>70.114</ele>
        <time>2016-12-27T19:04:10Z</time>
      </trkpt>
      <trkpt lat="43.70303" lon="3.58005">
        <ele>74.987</ele>
        <time>2016-12-27T19:04:30Z</time>
      </trkpt>
      <trkpt lat="43.70418" lon="3.57959">
        <ele>75.093</ele>
        <time>2016-12-27T19:04:50Z</time>
      </trkpt>
      <trkpt lat="43.70583" lon="3.57859">
        <ele>75.922</ele>
        <time>2016-12-27T19:05:10Z</time>
      </trkpt>
      <trkpt lat="43.70632" lon="3.57847">
        <ele>76.949</ele>
        <time>2016-12-27T19:05:30Z</time>
      </trkpt>
      <trkpt lat="43.70727" lon="3.57779">
        <ele>80.64</ele>
        <time>2016-12-27T19:05:50Z</time>
      </trkpt>
      <trkpt lat="43.70789" lon="3.57778">
        <ele>86.329</ele>
        <time>2016-12-27T19:06:10Z</time>
      </trkpt>
      <trkpt lat="43.7084" lon="3.57755">
        <ele>92.675</ele>
        <time>2016-12-27T19:06:50Z</time>
      </trkpt>
      <trkpt lat="43.70896" lon="3.5771">
        <ele>99.928</ele>
        <time>2016-12-27T19:07:10Z</time>
      </trkpt>
      <trkpt lat="43.7086" lon="3.57599">
        <ele>100.42</ele>
        <time>2016-12-27T19:07:30Z</time>
      </trkpt>
      <trkpt lat="43.70859" lon="3.57541">
        <ele>101.408</ele>
        <time>2016-12-27T19:07:50Z</time>
      </trkpt>
      <trkpt lat="43.70846" lon="3.57493">
        <ele>99.884</ele>
        <time>2016-12-27T19:08:10Z</time>
      </trkpt>
      <trkpt lat="43.70857" lon="3.57431">
        <ele>99.187</ele>
        <time>2016-12-27T19:08:30Z</time>
      </trkpt>
      <trkpt lat="43.70843" lon="3.57395">
        <ele>95.893</ele>
        <time>2016-12-27T19:08:50Z</time>
      </trkpt>
      <trkpt lat="43.7085" lon="3.57311">
        <ele>94.952</ele>
        <time>2016-12-27T19:09:10Z</time>
      </trkpt>
      <trkpt lat="43.70846" lon="3.57272">
        <ele>94.679</ele>
        <time>2016-12-27T19:09:30Z</time>
      </trkpt>
      <trkpt lat="43.70853" lon="3.5721">
        <ele>97.28</ele>
        <time>2016-12-27T19:09:50Z</time>
      </trkpt>
      <trkpt lat="43.70851" lon="3.57064">
        <ele>96.959</ele>
        <time>2016-12-27T19:10:10Z</time>
      </trkpt>
      <trkpt lat="43.70778" lon="3.56897">
        <ele>92.77</ele>
        <time>2016-12-27T19:10:30Z</time>
      </trkpt>
      <trkpt lat="43.70766" lon="3.56837">
        <ele>94.035</ele>
        <time>2016-12-27T19:10:50Z</time>
      </trkpt>
      <trkpt lat="43.70766" lon="3.56766">
        <ele>94.786</ele>
        <time>2016-12-27T19:11:10Z</time>
      </trkpt>
      <trkpt lat="43.70752" lon="3.56723">
        <ele>93.214</ele>
        <time>2016-12-27T19:11:30Z</time>
      </trkpt>
      <trkpt lat="43.70752" lon="3.56669">
        <ele>93.208</ele>
        <time>2016-12-27T19:11:50Z</time>
      </trkpt>
      <trkpt lat="43.70719" lon="3.56586">
        <ele>90.63</ele>
        <time>2016-12-27T19:12:10Z</time>
      </trkpt>
      <trkpt lat="43.7069" lon="3.56446">
        <ele>86.773</ele>
        <time>2016-12-27T19:12:30Z</time>
      </trkpt>
      <trkpt lat="43.70677" lon="3.56363">
        <ele>82.089</ele>
        <time>2016-12-27T19:12:50Z</time>
      </trkpt>
      <trkpt lat="43.70676" lon="3.56288">
        <ele>79.038</ele>
        <time>2016-12-27T19:13:10Z</time>
      </trkpt>
      <trkpt lat="43.7068" lon="3.56232">
        <ele>78.655</ele>
        <time>2016-12-27T19:13:30Z</time>
      </trkpt>
      <trkpt lat="43.70677" lon="3.56172">
        <ele>77.946</ele>
        <time>2016-12-27T19:13:50Z</time>
      </trkpt>
      <trkpt lat="43.70696" lon="3.56127">
        <ele>76.375</ele>
        <time>2016-12-27T19:14:10Z</time>
      </trkpt>
      <trkpt lat="43.70707" lon="3.56051">
        <ele>75.166</ele>
        <time>2016-12-27T19:14:30Z</time>
      </trkpt>
      <trkpt lat="43.7069" lon="3.56028">
        <ele>68.522</ele>
        <time>2016-12-27T19:14:50Z</time>
      </trkpt>
      <trkpt lat="43.70719" lon="3.55957">
        <ele>70.662</ele>
        <time>2016-12-27T19:15:10Z</time>
      </trkpt>
      <trkpt lat="43.70718" lon="3.55914">
        <ele>67.008</ele>
        <time>2021-04-16T18:21:10Z</time>
      </trkpt>
      <trkpt lat="43.70783" lon="3.55814">
        <ele>68.208</ele>
        <time>2016-12-27T19:15:50Z</time>
      </trkpt>
      <trkpt lat="43.70813" lon="3.55791">
        <ele>71.379</ele>
        <time>2016-12-27T19:16:10Z</time>
      </trkpt>
      <trkpt lat="43.70813" lon="3.5576">
        <ele>66.072</ele>
        <time>2016-12-27T19:16:30Z</time>
      </trkpt>
      <trkpt lat="43.70787" lon="3.55682">
        <ele>61.688</ele>
        <time>2016-12-27T19:16:50Z</time>
      </trkpt>
      <trkpt lat="43.70863" lon="3.55604">
        <ele>66.297</ele>
        <time>2016-12-27T19:17:10Z</time>
      </trkpt>
      <trkpt lat="43.709" lon="3.55531">
        <ele>66.994</ele>
        <time>2016-12-27T19:17:30Z</time>
      </trkpt>
      <trkpt lat="43.7093" lon="3.55439">
        <ele>70.495</ele>
        <time>2016-12-27T19:17:50Z</time>
      </trkpt>
      <trkpt lat="43.70987" lon="3.55311">
        <ele>67.074</ele>
        <time>2016-12-27T19:18:10Z</time>
      </trkpt>
      <trkpt lat="43.71149" lon="3.55232">
        <ele>65.685</ele>
        <time>2016-12-27T19:18:30Z</time>
      </trkpt>
      <trkpt lat="43.71279" lon="3.55238">
        <ele>66.247</ele>
        <time>2016-12-27T19:18:50Z</time>
      </trkpt>
      <trkpt lat="43.71331" lon="3.55263">
        <ele>62.629</ele>
        <time>2016-12-27T19:19:10Z</time>
      </trkpt>
      <trkpt lat="43.71483" lon="3.55243">
        <ele>63.621</ele>
        <time>2016-12-27T19:19:30Z</time>
      </trkpt>
      <trkpt lat="43.71623" lon="3.55241">
        <ele>66.308</ele>
        <time>2016-12-27T19:19:50Z</time>
      </trkpt>
      <trkpt lat="43.71709" lon="3.55266">
        <ele>69.541</ele>
        <time>2016-12-27T19:20:10Z</time>
      </trkpt>
      <trkpt lat="43.71771" lon="3.55309">
        <ele>65.474</ele>
        <time>2016-12-27T19:20:30Z</time>
      </trkpt>
      <trkpt lat="43.71864" lon="3.55342">
        <ele>62.79</ele>
        <time>2016-12-27T19:20:50Z</time>
      </trkpt>
      <trkpt lat="43.72059" lon="3.5535">
        <ele>63.989</ele>
        <time>2016-12-27T19:21:10Z</time>
      </trkpt>
      <trkpt lat="43.72189" lon="3.55299">
        <ele>63.956</ele>
        <time>2016-12-27T19:21:30Z</time>
      </trkpt>
      <trkpt lat="43.72253" lon="3.55291">
        <ele>60.917</ele>
        <time>2016-12-27T19:21:50Z</time>
      </trkpt>
      <trkpt lat="43.72308" lon="3.55262">
        <ele>61.626</ele>
        <time>2016-12-27T19:22:10Z</time>
      </trkpt>
      <trkpt lat="43.72367" lon="3.55173">
        <ele>63.357</ele>
        <time>2016-12-27T19:22:30Z</time>
      </trkpt>
      <trkpt lat="43.72413" lon="3.55079">
        <ele>64.917</ele>
        <time>2016-12-27T19:22:50Z</time>
      </trkpt>
      <trkpt lat="43.72454" lon="3.55041">
        <ele>63.487</ele>
        <time>2016-12-27T19:23:10Z</time>
      </trkpt>
      <trkpt lat="43.72645" lon="3.55015">
        <ele>75.215</ele>
        <time>2021-04-16T18:29:10Z</time>
      </trkpt>
      <trkpt lat="43.72735" lon="3.55039">
        <ele>82.508</ele>
        <time>2021-04-16T18:29:30Z</time>
      </trkpt>
      <trkpt lat="43.72741" lon="3.55031">
        <ele>69.628</ele>
        <time>2016-12-27T19:24:10Z</time>
      </trkpt>
      <trkpt lat="43.72836" lon="3.55121">
        <ele>78.931</ele>
        <time>2021-04-16T18:30:10Z</time>
      </trkpt>
      <trkpt lat="43.72958" lon="3.55248">
        <ele>74.057</ele>
        <time>2021-04-16T18:30:30Z</time>
      </trkpt>
      <trkpt lat="43.73104" lon="3.5532">
        <ele>75.946</ele>
        <time>2021-04-16T18:30:50Z</time>
      </trkpt>
      <trkpt lat="43.73167" lon="3.55324">
        <ele>65.443</ele>
        <time>2016-12-27T19:25:30Z</time>
      </trkpt>
      <trkpt lat="43.73239" lon="3.55365">
        <ele>63.514</ele>
        <time>2016-12-27T19:25:50Z</time>
      </trkpt>
      <trkpt lat="43.73316" lon="3.55381">
        <ele>63.393</ele>
        <time>2016-12-27T19:26:10Z</time>
      </trkpt>
      <trkpt lat="43.73377" lon="3.55229">
        <ele>85.214</ele>
        <time>2016-12-27T19:26:30Z</time>
      </trkpt>
      <trkpt lat="43.73382" lon="3.55175">
        <ele>88.619</ele>
        <time>2016-12-27T19:26:50Z</time>
      </trkpt>
      <trkpt lat="43.73381" lon="3.54995">
        <ele>100.209</ele>
        <time>2016-12-27T19:27:10Z</time>
      </trkpt>
      <trkpt lat="43.73414" lon="3.54939">
        <ele>111.919</ele>
        <time>2016-12-27T19:27:30Z</time>
      </trkpt>
      <trkpt lat="43.73438" lon="3.54916">
        <ele>114.008</ele>
        <time>2016-12-27T19:27:50Z</time>
      </trkpt>
      <trkpt lat="43.7345" lon="3.54889">
        <ele>116.378</ele>
        <time>2021-04-16T18:33:50Z</time>
      </trkpt>
      <trkpt lat="43.73423" lon="3.54858">
        <ele>109.931</ele>
        <time>2021-04-16T18:34:10Z</time>
      </trkpt>
      <trkpt lat="43.7348" lon="3.54809">
        <ele>111.177</ele>
        <time>2021-04-16T18:34:30Z</time>
      </trkpt>
      <trkpt lat="43.73648" lon="3.54798">
        <ele>110.556</ele>
        <time>2016-12-27T19:31:10Z</time>
      </trkpt>
      <trkpt lat="43.73678" lon="3.54753">
        <ele>113.083</ele>
        <time>2016-12-27T19:31:30Z</time>
      </trkpt>
      <trkpt lat="43.7367" lon="3.54689">
        <ele>111.614</ele>
        <time>2016-12-27T19:31:50Z</time>
      </trkpt>
      <trkpt lat="43.73681" lon="3.54644">
        <ele>112.513</ele>
        <time>2016-12-27T19:32:10Z</time>
      </trkpt>
      <trkpt lat="43.73658" lon="3.54656">
        <ele>113.574</ele>
        <time>2016-12-27T19:32:30Z</time>
      </trkpt>
      <trkpt lat="43.73636" lon="3.54613">
        <ele>133.185</ele>
        <time>2021-04-16T18:36:30Z</time>
      </trkpt>
      <trkpt lat="43.73635" lon="3.54501">
        <ele>140.889</ele>
        <time>2021-04-16T18:36:50Z</time>
      </trkpt>
      <trkpt lat="43.73647" lon="3.54409">
        <ele>135.817</ele>
        <time>2016-12-27T19:33:30Z</time>
      </trkpt>
      <trkpt lat="43.73618" lon="3.54455">
        <ele>145.608</ele>
        <time>2016-12-27T19:33:50Z</time>
      </trkpt>
      <trkpt lat="43.73612" lon="3.54357">
        <ele>160.565</ele>
        <time>2016-12-27T19:34:10Z</time>
      </trkpt>
      <trkpt lat="43.73646" lon="3.54235">
        <ele>165.138</ele>
        <time>2016-12-27T19:34:30Z</time>
      </trkpt>
      <trkpt lat="43.73632" lon="3.54184">
        <ele>177.254</ele>
        <time>2021-04-16T18:38:30Z</time>
      </trkpt>
      <trkpt lat="43.73612" lon="3.54138">
        <ele>186.833</ele>
        <time>2021-04-16T18:38:50Z</time>
      </trkpt>
      <trkpt lat="43.73602" lon="3.54262">
        <ele>186.63</ele>
        <time>2016-12-27T19:35:10Z</time>
      </trkpt>
      <trkpt lat="43.73561" lon="3.54139">
        <ele>204.571</ele>
        <time>2016-12-27T19:35:30Z</time>
      </trkpt>
      <trkpt lat="43.73538" lon="3.54122">
        <ele>223.14</ele>
        <time>2021-04-16T18:39:50Z</time>
      </trkpt>
      <trkpt lat="43.73525" lon="3.54034">
        <ele>214.451</ele>
        <time>2016-12-27T19:36:10Z</time>
      </trkpt>
      <trkpt lat="43.73502" lon="3.5399">
        <ele>242.213</ele>
        <time>2021-04-16T18:40:30Z</time>
      </trkpt>
      <trkpt lat="43.73557" lon="3.5398">
        <ele>229.943</ele>
        <time>2021-04-16T18:40:50Z</time>
      </trkpt>
      <trkpt lat="43.73579" lon="3.53962">
        <ele>222.407</ele>
        <time>2016-12-27T19:37:10Z</time>
      </trkpt>
      <trkpt lat="43.73554" lon="3.53973">
        <ele>233.408</ele>
        <time>2021-04-16T18:41:30Z</time>
      </trkpt>
      <trkpt lat="43.7351" lon="3.53965">
        <ele>247.398</ele>
        <time>2021-04-16T18:41:50Z</time>
      </trkpt>
      <trkpt lat="43.73475" lon="3.5394">
        <ele>245.451</ele>
        <time>2016-12-27T19:37:50Z</time>
      </trkpt>
      <trkpt lat="43.73489" lon="3.54043">
        <ele>241.027</ele>
        <time>2016-12-27T19:38:10Z</time>
      </trkpt>
      <trkpt lat="43.73478" lon="3.54117">
        <ele>250.776</ele>
        <time>2016-12-27T19:38:30Z</time>
      </trkpt>
      <trkpt lat="43.73477" lon="3.54151">
        <ele>260.053</ele>
        <time>2021-04-16T18:43:10Z</time>
      </trkpt>
      <trkpt lat="43.73483" lon="3.54191">
        <ele>258.654</ele>
        <time>2021-04-16T18:43:30Z</time>
      </trkpt>
      <trkpt lat="43.73457" lon="3.5414">
        <ele>264.413</ele>
        <time>2016-12-27T19:39:10Z</time>
      </trkpt>
      <trkpt lat="43.73419" lon="3.53978">
        <ele>277.784</ele>
        <time>2016-12-27T19:39:30Z</time>
      </trkpt>
      <trkpt lat="43.73414" lon="3.541">
        <ele>286.911</ele>
        <time>2016-12-27T19:39:50Z</time>
      </trkpt>
      <trkpt lat="43.7338" lon="3.53995">
        <ele>305.221</ele>
        <time>2016-12-27T19:40:10Z</time>
      </trkpt>
      <trkpt lat="43.73365" lon="3.53885">
        <ele>318.803</ele>
        <time>2016-12-27T19:40:30Z</time>
      </trkpt>
      <trkpt lat="43.73351" lon="3.53937">
        <ele>324.908</ele>
        <time>2016-12-27T19:40:50Z</time>
      </trkpt>
      <trkpt lat="43.73343" lon="3.53874">
        <ele>333.788</ele>
        <time>2016-12-27T19:41:10Z</time>
      </trkpt>
      <trkpt lat="43.73351" lon="3.53789">
        <ele>339.431</ele>
        <time>2016-12-27T19:41:30Z</time>
      </trkpt>
      <trkpt lat="43.73381" lon="3.53752">
        <ele>365.697</ele>
        <time>2021-04-16T18:46:30Z</time>
      </trkpt>
      <trkpt lat="43.73415" lon="3.53728">
        <ele>353.166</ele>
        <time>2016-12-27T19:42:10Z</time>
      </trkpt>
      <trkpt lat="43.73506" lon="3.53754">
        <ele>364.033</ele>
        <time>2021-04-16T18:47:10Z</time>
      </trkpt>
      <trkpt lat="43.73547" lon="3.53753">
        <ele>356.994</ele>
        <time>2021-04-16T18:47:30Z</time>
      </trkpt>
      <trkpt lat="43.73587" lon="3.53751">
        <ele>345.013</ele>
        <time>2021-04-16T18:47:50Z</time>
      </trkpt>
      <trkpt lat="43.73564" lon="3.53741">
        <ele>353.814</ele>
        <time>2021-04-16T18:48:10Z</time>
      </trkpt>
      <trkpt lat="43.73547" lon="3.53719">
        <ele>360.821</ele>
        <time>2021-04-16T18:48:30Z</time>
      </trkpt>
      <trkpt lat="43.73497" lon="3.53693">
        <ele>390.341</ele>
        <time>2016-12-27T19:43:50Z</time>
      </trkpt>
      <trkpt lat="43.73403" lon="3.53598">
        <ele>418.305</ele>
        <time>2016-12-27T19:44:10Z</time>
      </trkpt>
      <trkpt lat="43.73356" lon="3.53588">
        <ele>422.408</ele>
        <time>2016-12-27T19:44:30Z</time>
      </trkpt>
      <trkpt lat="43.73323" lon="3.53601">
        <ele>430.719</ele>
        <time>2016-12-27T19:44:50Z</time>
      </trkpt>
      <trkpt lat="43.7335" lon="3.5356">
        <ele>436.722</ele>
        <time>2016-12-27T19:45:10Z</time>
      </trkpt>
      <trkpt lat="43.73389" lon="3.53538">
        <ele>443.158</ele>
        <time>2016-12-27T19:45:30Z</time>
      </trkpt>
      <trkpt lat="43.7336" lon="3.53528">
        <ele>450.277</ele>
        <time>2016-12-27T19:45:50Z</time>
      </trkpt>
      <trkpt lat="43.73391" lon="3.53521">
        <ele>452.134</ele>
        <time>2016-12-27T19:46:10Z</time>
      </trkpt>
      <trkpt lat="43.73413" lon="3.53525">
        <ele>456.375</ele>
        <time>2016-12-27T19:46:30Z</time>
      </trkpt>
      <trkpt lat="43.73399" lon="3.53509">
        <ele>461.264</ele>
        <time>2016-12-27T19:46:50Z</time>
      </trkpt>
      <trkpt lat="43.73355" lon="3.53493">
        <ele>467.815</ele>
        <time>2016-12-27T19:47:10Z</time>
      </trkpt>
      <trkpt lat="43.73338" lon="3.53501">
        <ele>467.858</ele>
        <time>2016-12-27T19:47:30Z</time>
      </trkpt>
      <trkpt lat="43.73374" lon="3.53371">
        <ele>478.552</ele>
        <time>2016-12-27T19:47:50Z</time>
      </trkpt>
      <trkpt lat="43.73334" lon="3.53279">
        <ele>479.917</ele>
        <time>2016-12-27T19:48:10Z</time>
      </trkpt>
      <trkpt lat="43.734" lon="3.53186">
        <ele>486.608</ele>
        <time>2016-12-27T19:48:30Z</time>
      </trkpt>
      <trkpt lat="43.73404" lon="3.53144">
        <ele>488.032</ele>
        <time>2016-12-27T19:48:50Z</time>
      </trkpt>
      <trkpt lat="43.73362" lon="3.53067">
        <ele>487.175</ele>
        <time>2016-12-27T19:49:10Z</time>
      </trkpt>
      <trkpt lat="43.73307" lon="3.52992">
        <ele>490.841</ele>
        <time>2016-12-27T19:49:30Z</time>
      </trkpt>
      <trkpt lat="43.7327" lon="3.53016">
        <ele>491.04</ele>
        <time>2016-12-27T19:49:50Z</time>
      </trkpt>
      <trkpt lat="43.7319" lon="3.52998">
        <ele>494.617</ele>
        <time>2016-12-27T19:50:10Z</time>
      </trkpt>
      <trkpt lat="43.73096" lon="3.52988">
        <ele>494.028</ele>
        <time>2016-12-27T19:50:30Z</time>
      </trkpt>
      <trkpt lat="43.73045" lon="3.52952">
        <ele>494.547</ele>
        <time>2016-12-27T19:50:50Z</time>
      </trkpt>
      <trkpt lat="43.73035" lon="3.52893">
        <ele>497.898</ele>
        <time>2016-12-27T19:51:10Z</time>
      </trkpt>
      <trkpt lat="43.73053" lon="3.52831">
        <ele>499.395</ele>
        <time>2016-12-27T19:51:30Z</time>
      </trkpt>
      <trkpt lat="43.73097" lon="3.52756">
        <ele>500.749</ele>
        <time>2016-12-27T19:51:50Z</time>
      </trkpt>
      <trkpt lat="43.73058" lon="3.52701">
        <ele>496.923</ele>
        <time>2016-12-27T19:52:10Z</time>
      </trkpt>
      <trkpt lat="43.73036" lon="3.52634">
        <ele>502.008</ele>
        <time>2016-12-27T19:52:30Z</time>
      </trkpt>
      <trkpt lat="43.73008" lon="3.52619">
        <ele>499.316</ele>
        <time>2016-12-27T19:52:50Z</time>
      </trkpt>
      <trkpt lat="43.72934" lon="3.52629">
        <ele>495.519</ele>
        <time>2016-12-27T19:53:10Z</time>
      </trkpt>
      <trkpt lat="43.72913" lon="3.52605">
        <ele>496.025</ele>
        <time>2016-12-27T19:53:30Z</time>
      </trkpt>
      <trkpt lat="43.72943" lon="3.52441">
        <ele>498.054</ele>
        <time>2016-12-27T19:53:50Z</time>
      </trkpt>
      <trkpt lat="43.72979" lon="3.52392">
        <ele>505.791</ele>
        <time>2016-12-27T19:54:10Z</time>
      </trkpt>
      <trkpt lat="43.72964" lon="3.52377">
        <ele>502.882</ele>
        <time>2016-12-27T19:54:30Z</time>
      </trkpt>
      <trkpt lat="43.7294" lon="3.52378">
        <ele>496.591</ele>
        <time>2016-12-27T19:54:50Z</time>
      </trkpt>
      <trkpt lat="43.72921" lon="3.52368">
        <ele>495.922</ele>
        <time>2016-12-27T19:55:10Z</time>
      </trkpt>
      <trkpt lat="43.72883" lon="3.52376">
        <ele>488.656</ele>
        <time>2016-12-27T19:55:30Z</time>
      </trkpt>
      <trkpt lat="43.72876" lon="3.52344">
        <ele>488.259</ele>
        <time>2016-12-27T19:55:50Z</time>
      </trkpt>
      <trkpt lat="43.72899" lon="3.52252">
        <ele>493.314</ele>
        <time>2016-12-27T19:56:10Z</time>
      </trkpt>
      <trkpt lat="43.72913" lon="3.52231">
        <ele>496.508</ele>
        <time>2016-12-27T19:56:30Z</time>
      </trkpt>
      <trkpt lat="43.72891" lon="3.52225">
        <ele>493.152</ele>
        <time>2016-12-27T19:56:50Z</time>
      </trkpt>
      <trkpt lat="43.72827" lon="3.52277">
        <ele>486.885</ele>
        <time>2016-12-27T19:57:10Z</time>
      </trkpt>
      <trkpt lat="43.72789" lon="3.52335">
        <ele>487.661</ele>
        <time>2016-12-27T19:57:30Z</time>
      </trkpt>
      <trkpt lat="43.72818" lon="3.52256">
        <ele>487.83</ele>
        <time>2016-12-27T19:57:50Z</time>
      </trkpt>
      <trkpt lat="43.72887" lon="3.52185">
        <ele>497.137</ele>
        <time>2016-12-27T19:58:10Z</time>
      </trkpt>
      <trkpt lat="43.72928" lon="3.52169">
        <ele>501.448</ele>
        <time>2016-12-27T19:58:30Z</time>
      </trkpt>
      <trkpt lat="43.72977" lon="3.52129">
        <ele>511.687</ele>
        <time>2016-12-27T19:58:50Z</time>
      </trkpt>
      <trkpt lat="43.72929" lon="3.52127">
        <ele>514.168</ele>
        <time>2016-12-27T19:59:10Z</time>
      </trkpt>
      <trkpt lat="43.72916" lon="3.52099">
        <ele>516.876</ele>
        <time>2016-12-27T19:59:30Z</time>
      </trkpt>
      <trkpt lat="43.72919" lon="3.52056">
        <ele>521.29</ele>
        <time>2016-12-27T19:59:50Z</time>
      </trkpt>
      <trkpt lat="43.72893" lon="3.5205">
        <ele>519.119</ele>
        <time>2016-12-27T20:00:10Z</time>
      </trkpt>
      <trkpt lat="43.72881" lon="3.52021">
        <ele>522.308</ele>
        <time>2016-12-27T20:00:30Z</time>
      </trkpt>
      <trkpt lat="43.72887" lon="3.51979">
        <ele>525.694</ele>
        <time>2016-12-27T20:00:50Z</time>
      </trkpt>
      <trkpt lat="43.72844" lon="3.52015">
        <ele>523.947</ele>
        <time>2016-12-27T20:01:10Z</time>
      </trkpt>
      <trkpt lat="43.72814" lon="3.52">
        <ele>525.023</ele>
        <time>2016-12-27T20:01:30Z</time>
      </trkpt>
      <trkpt lat="43.72755" lon="3.51988">
        <ele>524.572</ele>
        <time>2016-12-27T20:01:50Z</time>
      </trkpt>
      <trkpt lat="43.72745" lon="3.51888">
        <ele>525.099</ele>
        <time>2016-12-27T20:02:10Z</time>
      </trkpt>
      <trkpt lat="43.7272" lon="3.51876">
        <ele>521.47</ele>
        <time>2016-12-27T20:02:30Z</time>
      </trkpt>
      <trkpt lat="43.72635" lon="3.51981">
        <ele>506.939</ele>
        <time>2016-12-27T20:02:50Z</time>
      </trkpt>
      <trkpt lat="43.7259" lon="3.52001">
        <ele>500.22</ele>
        <time>2016-12-27T20:03:10Z</time>
      </trkpt>
      <trkpt lat="43.72546" lon="3.51976">
        <ele>500.593</ele>
        <time>2016-12-27T20:03:30Z</time>
      </trkpt>
      <trkpt lat="43.72475" lon="3.51898">
        <ele>496.665</ele>
        <time>2016-12-27T20:03:50Z</time>
      </trkpt>
      <trkpt lat="43.72439" lon="3.51897">
        <ele>491.821</ele>
        <time>2016-12-27T20:04:10Z</time>
      </trkpt>
      <trkpt lat="43.72426" lon="3.51831">
        <ele>493.308</ele>
        <time>2016-12-27T20:04:30Z</time>
      </trkpt>
      <trkpt lat="43.72482" lon="3.51713">
        <ele>489.586</ele>
        <time>2016-12-27T20:04:50Z</time>
      </trkpt>
      <trkpt lat="43.72495" lon="3.51661">
        <ele>485.789</ele>
        <time>2016-12-27T20:05:10Z</time>
      </trkpt>
      <trkpt lat="43.72517" lon="3.51631">
        <ele>487.155</ele>
        <time>2016-12-27T20:05:30Z</time>
      </trkpt>
      <trkpt lat="43.72515" lon="3.51579">
        <ele>488.314</ele>
        <time>2016-12-27T20:05:50Z</time>
      </trkpt>
      <trkpt lat="43.72455" lon="3.51561">
        <ele>486.281</ele>
        <time>2016-12-27T20:06:10Z</time>
      </trkpt>
      <trkpt lat="43.72402" lon="3.51569">
        <ele>489.972</ele>
        <time>2016-12-27T20:06:30Z</time>
      </trkpt>
      <trkpt lat="43.72347" lon="3.5155">
        <ele>490.651</ele>
        <time>2016-12-27T20:06:50Z</time>
      </trkpt>
      <trkpt lat="43.72314" lon="3.51557">
        <ele>484.252</ele>
        <time>2016-12-27T20:07:10Z</time>
      </trkpt>
      <trkpt lat="43.72292" lon="3.51538">
        <ele>482.533</ele>
        <time>2016-12-27T20:07:30Z</time>
      </trkpt>
      <trkpt lat="43.72295" lon="3.51485">
        <ele>481.723</ele>
        <time>2016-12-27T20:07:50Z</time>
      </trkpt>
      <trkpt lat="43.72305" lon="3.51431">
        <ele>478.315</ele>
        <time>2016-12-27T20:08:10Z</time>
      </trkpt>
      <trkpt lat="43.72286" lon="3.51377">
        <ele>471.208</ele>
        <time>2016-12-27T20:08:30Z</time>
      </trkpt>
      <trkpt lat="43.72237" lon="3.51334">
        <ele>464.73</ele>
        <time>2016-12-27T20:08:50Z</time>
      </trkpt>
      <trkpt lat="43.72201" lon="3.51331">
        <ele>456.933</ele>
        <time>2016-12-27T20:09:10Z</time>
      </trkpt>
      <trkpt lat="43.72174" lon="3.51301">
        <ele>456.769</ele>
        <time>2016-12-27T20:09:30Z</time>
      </trkpt>
      <trkpt lat="43.72172" lon="3.51265">
        <ele>455.918</ele>
        <time>2016-12-27T20:09:50Z</time>
      </trkpt>
      <trkpt lat="43.72123" lon="3.51284">
        <ele>448.995</ele>
        <time>2016-12-27T20:10:10Z</time>
      </trkpt>
      <trkpt lat="43.72054" lon="3.51327">
        <ele>439.946</ele>
        <time>2016-12-27T20:18:30Z</time>
      </trkpt>
      <trkpt lat="43.7202" lon="3.51333">
        <ele>432.495</ele>
        <time>2016-12-27T20:18:50Z</time>
      </trkpt>
      <trkpt lat="43.7195" lon="3.51387">
        <ele>428.436</ele>
        <time>2016-12-27T20:19:10Z</time>
      </trkpt>
      <trkpt lat="43.71864" lon="3.51424">
        <ele>424.421</ele>
        <time>2016-12-27T20:19:30Z</time>
      </trkpt>
      <trkpt lat="43.71832" lon="3.51458">
        <ele>422.141</ele>
        <time>2016-12-27T20:19:50Z</time>
      </trkpt>
      <trkpt lat="43.71728" lon="3.51528">
        <ele>425.805</ele>
        <time>2016-12-27T20:20:10Z</time>
      </trkpt>
      <trkpt lat="43.71701" lon="3.515">
        <ele>425.008</ele>
        <time>2016-12-27T20:20:30Z</time>
      </trkpt>
      <trkpt lat="43.71694" lon="3.5144">
        <ele>429.599</ele>
        <time>2016-12-27T20:20:50Z</time>
      </trkpt>
      <trkpt lat="43.71678" lon="3.51404">
        <ele>434.912</ele>
        <time>2016-12-27T20:21:10Z</time>
      </trkpt>
      <trkpt lat="43.71673" lon="3.51353">
        <ele>435.638</ele>
        <time>2016-12-27T21:28:30Z</time>
      </trkpt>
      <trkpt lat="43.71638" lon="3.51332">
        <ele>440.217</ele>
        <time>2016-12-27T21:28:50Z</time>
      </trkpt>
      <trkpt lat="43.7158" lon="3.51351">
        <ele>444.674</ele>
        <time>2016-12-27T21:29:10Z</time>
      </trkpt>
      <trkpt lat="43.71538" lon="3.51344">
        <ele>439.985</ele>
        <time>2016-12-27T21:29:30Z</time>
      </trkpt>
      <trkpt lat="43.7148" lon="3.51307">
        <ele>434.074</ele>
        <time>2016-12-27T21:29:50Z</time>
      </trkpt>
      <trkpt lat="43.71407" lon="3.51233">
        <ele>421.825</ele>
        <time>2016-12-27T21:30:10Z</time>
      </trkpt>
      <trkpt lat="43.71369" lon="3.51187">
        <ele>410.674</ele>
        <time>2016-12-27T21:30:30Z</time>
      </trkpt>
      <trkpt lat="43.71329" lon="3.51197">
        <ele>404.556</ele>
        <time>2016-12-27T21:30:50Z</time>
      </trkpt>
      <trkpt lat="43.71297" lon="3.51185">
        <ele>397.321</ele>
        <time>2016-12-27T21:31:10Z</time>
      </trkpt>
      <trkpt lat="43.71282" lon="3.51236">
        <ele>394.908</ele>
        <time>2016-12-27T21:31:30Z</time>
      </trkpt>
      <trkpt lat="43.71266" lon="3.51199">
        <ele>389.174</ele>
        <time>2016-12-27T21:32:10Z</time>
      </trkpt>
      <trkpt lat="43.71247" lon="3.5118">
        <ele>384.527</ele>
        <time>2016-12-27T21:32:30Z</time>
      </trkpt>
      <trkpt lat="43.71252" lon="3.51125">
        <ele>381.993</ele>
        <time>2016-12-27T21:32:50Z</time>
      </trkpt>
      <trkpt lat="43.71232" lon="3.51114">
        <ele>377.772</ele>
        <time>2016-12-27T21:33:10Z</time>
      </trkpt>
      <trkpt lat="43.71216" lon="3.5116">
        <ele>378.729</ele>
        <time>2016-12-27T21:33:30Z</time>
      </trkpt>
      <trkpt lat="43.71212" lon="3.51206">
        <ele>378.29</ele>
        <time>2016-12-27T21:33:50Z</time>
      </trkpt>
      <trkpt lat="43.71227" lon="3.51243">
        <ele>380.469</ele>
        <time>2016-12-27T21:34:10Z</time>
      </trkpt>
      <trkpt lat="43.71239" lon="3.51374">
        <ele>378.36</ele>
        <time>2016-12-27T21:34:30Z</time>
      </trkpt>
      <trkpt lat="43.71194" lon="3.51309">
        <ele>374.756</ele>
        <time>2016-12-27T21:34:50Z</time>
      </trkpt>
      <trkpt lat="43.7119" lon="3.51296">
        <ele>374.259</ele>
        <time>2016-12-27T21:35:10Z</time>
      </trkpt>
      <trkpt lat="43.71178" lon="3.51241">
        <ele>370.814</ele>
        <time>2016-12-27T21:35:30Z</time>
      </trkpt>
      <trkpt lat="43.71137" lon="3.51169">
        <ele>364.508</ele>
        <time>2016-12-27T21:35:50Z</time>
      </trkpt>
      <trkpt lat="43.71071" lon="3.51048">
        <ele>346.722</ele>
        <time>2016-12-27T21:36:10Z</time>
      </trkpt>
      <trkpt lat="43.7107" lon="3.50991">
        <ele>343.445</ele>
        <time>2016-12-27T21:37:30Z</time>
      </trkpt>
      <trkpt lat="43.71052" lon="3.50927">
        <ele>338.481</ele>
        <time>2016-12-27T21:37:50Z</time>
      </trkpt>
      <trkpt lat="43.71053" lon="3.50881">
        <ele>336.14</ele>
        <time>2016-12-27T21:38:10Z</time>
      </trkpt>
      <trkpt lat="43.71067" lon="3.50838">
        <ele>329.867</ele>
        <time>2016-12-27T21:38:30Z</time>
      </trkpt>
      <trkpt lat="43.70997" lon="3.50701">
        <ele>322.148</ele>
        <time>2016-12-27T21:39:30Z</time>
      </trkpt>
      <trkpt lat="43.70973" lon="3.50691">
        <ele>321.087</ele>
        <time>2016-12-27T21:39:50Z</time>
      </trkpt>
      <trkpt lat="43.70977" lon="3.50776">
        <ele>322.588</ele>
        <time>2016-12-27T21:40:10Z</time>
      </trkpt>
      <trkpt lat="43.70959" lon="3.50829">
        <ele>318.355</ele>
        <time>2016-12-27T21:40:30Z</time>
      </trkpt>
      <trkpt lat="43.70954" lon="3.50875">
        <ele>312.507</ele>
        <time>2016-12-27T21:40:50Z</time>
      </trkpt>
      <trkpt lat="43.7092" lon="3.50852">
        <ele>304.317</ele>
        <time>2016-12-27T21:41:10Z</time>
      </trkpt>
      <trkpt lat="43.70904" lon="3.50914">
        <ele>303.108</ele>
        <time>2016-12-27T21:41:30Z</time>
      </trkpt>
      <trkpt lat="43.7086" lon="3.50947">
        <ele>298.062</ele>
        <time>2016-12-27T21:41:50Z</time>
      </trkpt>
      <trkpt lat="43.70813" lon="3.50969">
        <ele>292.355</ele>
        <time>2016-12-27T21:42:10Z</time>
      </trkpt>
      <trkpt lat="43.7079" lon="3.50989">
        <ele>288.681</ele>
        <time>2016-12-27T21:42:30Z</time>
      </trkpt>
      <trkpt lat="43.70779" lon="3.50987">
        <ele>285.73</ele>
        <time>2016-12-27T21:42:50Z</time>
      </trkpt>
      <trkpt lat="43.70755" lon="3.50935">
        <ele>281.547</ele>
        <time>2016-12-27T21:43:10Z</time>
      </trkpt>
      <trkpt lat="43.70746" lon="3.50938">
        <ele>279.388</ele>
        <time>2016-12-27T21:43:30Z</time>
      </trkpt>
      <trkpt lat="43.70746" lon="3.50974">
        <ele>279.257</ele>
        <time>2016-12-27T21:52:10Z</time>
      </trkpt>
      <trkpt lat="43.70721" lon="3.51023">
        <ele>268.638</ele>
        <time>2016-12-27T21:52:30Z</time>
      </trkpt>
      <trkpt lat="43.70715" lon="3.51064">
        <ele>265.585</ele>
        <time>2016-12-27T21:52:50Z</time>
      </trkpt>
      <trkpt lat="43.70726" lon="3.51108">
        <ele>268.189</ele>
        <time>2016-12-27T21:53:10Z</time>
      </trkpt>
      <trkpt lat="43.70693" lon="3.51083">
        <ele>255.617</ele>
        <time>2016-12-27T21:53:30Z</time>
      </trkpt>
      <trkpt lat="43.70646" lon="3.51119">
        <ele>241.708</ele>
        <time>2016-12-27T21:53:50Z</time>
      </trkpt>
      <trkpt lat="43.706" lon="3.51106">
        <ele>239.535</ele>
        <time>2016-12-27T21:54:10Z</time>
      </trkpt>
      <trkpt lat="43.70571" lon="3.51116">
        <ele>234.718</ele>
        <time>2016-12-27T21:54:30Z</time>
      </trkpt>
      <trkpt lat="43.70548" lon="3.51096">
        <ele>231.834</ele>
        <time>2016-12-27T21:54:50Z</time>
      </trkpt>
      <trkpt lat="43.7056" lon="3.51147">
        <ele>229.593</ele>
        <time>2016-12-27T21:55:10Z</time>
      </trkpt>
      <trkpt lat="43.70586" lon="3.51155">
        <ele>232.09</ele>
        <time>2016-12-27T21:55:30Z</time>
      </trkpt>
      <trkpt lat="43.70613" lon="3.51194">
        <ele>229.371</ele>
        <time>2016-12-27T21:55:50Z</time>
      </trkpt>
      <trkpt lat="43.70628" lon="3.51236">
        <ele>224.16</ele>
        <time>2016-12-27T21:56:10Z</time>
      </trkpt>
      <trkpt lat="43.706" lon="3.51234">
        <ele>219.941</ele>
        <time>2016-12-27T21:56:30Z</time>
      </trkpt>
      <trkpt lat="43.70582" lon="3.51246">
        <ele>215.111</ele>
        <time>2016-12-27T21:56:50Z</time>
      </trkpt>
      <trkpt lat="43.70554" lon="3.51249">
        <ele>214.221</ele>
        <time>2016-12-27T21:57:10Z</time>
      </trkpt>
      <trkpt lat="43.70531" lon="3.51284">
        <ele>204.003</ele>
        <time>2016-12-27T21:57:30Z</time>
      </trkpt>
      <trkpt lat="43.70508" lon="3.51278">
        <ele>203.808</ele>
        <time>2016-12-27T21:57:50Z</time>
      </trkpt>
      <trkpt lat="43.7049" lon="3.51256">
        <ele>202.658</ele>
        <time>2016-12-27T21:58:10Z</time>
      </trkpt>
      <trkpt lat="43.70485" lon="3.51207">
        <ele>204.181</ele>
        <time>2016-12-27T21:58:30Z</time>
      </trkpt>
      <trkpt lat="43.70455" lon="3.51151">
        <ele>197.327</ele>
        <time>2016-12-27T21:58:50Z</time>
      </trkpt>
      <trkpt lat="43.70438" lon="3.51069">
        <ele>192.546</ele>
        <time>2016-12-27T21:59:10Z</time>
      </trkpt>
      <trkpt lat="43.70435" lon="3.50996">
        <ele>187.473</ele>
        <time>2016-12-27T21:59:30Z</time>
      </trkpt>
      <trkpt lat="43.7044" lon="3.50919">
        <ele>182.554</ele>
        <time>2016-12-27T21:59:50Z</time>
      </trkpt>
      <trkpt lat="43.7042" lon="3.50921">
        <ele>175.493</ele>
        <time>2016-12-27T22:00:10Z</time>
      </trkpt>
      <trkpt lat="43.70417" lon="3.50904">
        <ele>173.344</ele>
        <time>2016-12-27T22:00:30Z</time>
      </trkpt>
      <trkpt lat="43.70422" lon="3.50857">
        <ele>171.365</ele>
        <time>2016-12-27T22:00:50Z</time>
      </trkpt>
      <trkpt lat="43.70409" lon="3.50812">
        <ele>167.368</ele>
        <time>2016-12-27T22:01:10Z</time>
      </trkpt>
      <trkpt lat="43.70372" lon="3.50777">
        <ele>163.214</ele>
        <time>2016-12-27T22:01:30Z</time>
      </trkpt>
      <trkpt lat="43.7026" lon="3.50756">
        <ele>151.908</ele>
        <time>2016-12-27T22:01:50Z</time>
      </trkpt>
      <trkpt lat="43.70263" lon="3.50699">
        <ele>152.983</ele>
        <time>2016-12-27T22:02:10Z</time>
      </trkpt>
      <trkpt lat="43.70239" lon="3.50621">
        <ele>149.756</ele>
        <time>2016-12-27T22:02:30Z</time>
      </trkpt>
      <trkpt lat="43.70264" lon="3.50566">
        <ele>146.952</ele>
        <time>2016-12-27T22:02:50Z</time>
      </trkpt>
      <trkpt lat="43.70295" lon="3.50545">
        <ele>148.381</ele>
        <time>2016-12-27T22:03:10Z</time>
      </trkpt>
      <trkpt lat="43.70279" lon="3.50483">
        <ele>149.398</ele>
        <time>2016-12-27T22:03:30Z</time>
      </trkpt>
      <trkpt lat="43.70235" lon="3.50383">
        <ele>149.499</ele>
        <time>2016-12-27T22:03:50Z</time>
      </trkpt>
      <trkpt lat="43.70226" lon="3.50332">
        <ele>149.438</ele>
        <time>2016-12-27T22:04:10Z</time>
      </trkpt>
      <trkpt lat="43.70214" lon="3.50243">
        <ele>148.259</ele>
        <time>2016-12-27T22:04:30Z</time>
      </trkpt>
      <trkpt lat="43.70217" lon="3.50206">
        <ele>149.475</ele>
        <time>2016-12-27T22:04:50Z</time>
      </trkpt>
      <trkpt lat="43.70225" lon="3.50192">
        <ele>151.328</ele>
        <time>2016-12-27T22:05:10Z</time>
      </trkpt>
      <trkpt lat="43.70184" lon="3.50158">
        <ele>142.72</ele>
        <time>2016-12-27T22:05:30Z</time>
      </trkpt>
      <trkpt lat="43.70183" lon="3.50033">
        <ele>148.908</ele>
        <time>2016-12-27T22:05:50Z</time>
      </trkpt>
      <trkpt lat="43.7016" lon="3.49964">
        <ele>153.424</ele>
        <time>2016-12-27T22:06:10Z</time>
      </trkpt>
      <trkpt lat="43.7016" lon="3.49849">
        <ele>160.777</ele>
        <time>2016-12-27T22:06:30Z</time>
      </trkpt>
      <trkpt lat="43.70141" lon="3.49759">
        <ele>169.943</ele>
        <time>2016-12-27T22:06:50Z</time>
      </trkpt>
      <trkpt lat="43.70418" lon="3.49522">
        <ele>171.742</ele>
        <time>2016-12-27T22:07:10Z</time>
      </trkpt>
      <trkpt lat="43.70473" lon="3.4952">
        <ele>176.329</ele>
        <time>2016-12-27T22:07:30Z</time>
      </trkpt>
      <trkpt lat="43.705" lon="3.49429">
        <ele>180.06</ele>
        <time>2016-12-27T22:07:50Z</time>
      </trkpt>
      <trkpt lat="43.70524" lon="3.49389">
        <ele>181.979</ele>
        <time>2016-12-27T22:08:10Z</time>
      </trkpt>
      <trkpt lat="43.70542" lon="3.49298">
        <ele>187.13</ele>
        <time>2016-12-27T22:08:30Z</time>
      </trkpt>
      <trkpt lat="43.70572" lon="3.49249">
        <ele>190.653</ele>
        <time>2016-12-27T22:08:50Z</time>
      </trkpt>
      <trkpt lat="43.70514" lon="3.49163">
        <ele>192.104</ele>
        <time>2016-12-27T22:09:10Z</time>
      </trkpt>
      <trkpt lat="43.70576" lon="3.49115">
        <ele>194.014</ele>
        <time>2016-12-27T22:09:30Z</time>
      </trkpt>
      <trkpt lat="43.70809" lon="3.49052">
        <ele>189.008</ele>
        <time>2016-12-27T22:09:50Z</time>
      </trkpt>
      <trkpt lat="43.70843" lon="3.49046">
        <ele>184.472</ele>
        <time>2016-12-27T22:10:10Z</time>
      </trkpt>
      <trkpt lat="43.70887" lon="3.48977">
        <ele>185.855</ele>
        <time>2016-12-27T22:10:30Z</time>
      </trkpt>
      <trkpt lat="43.70928" lon="3.48901">
        <ele>198.551</ele>
        <time>2016-12-27T22:10:50Z</time>
      </trkpt>
      <trkpt lat="43.70963" lon="3.48821">
        <ele>205.88</ele>
        <time>2016-12-27T22:11:50Z</time>
      </trkpt>
      <trkpt lat="43.70984" lon="3.48704">
        <ele>213.087</ele>
        <time>2016-12-27T22:12:10Z</time>
      </trkpt>
      <trkpt lat="43.71009" lon="3.48675">
        <ele>217.568</ele>
        <time>2016-12-27T22:13:10Z</time>
      </trkpt>
      <trkpt lat="43.71021" lon="3.48621">
        <ele>221.037</ele>
        <time>2016-12-27T22:13:30Z</time>
      </trkpt>
      <trkpt lat="43.71036" lon="3.48592">
        <ele>224.778</ele>
        <time>2016-12-27T22:13:50Z</time>
      </trkpt>
      <trkpt lat="43.7104" lon="3.48527">
        <ele>226.764</ele>
        <time>2016-12-27T22:15:30Z</time>
      </trkpt>
      <trkpt lat="43.71056" lon="3.48516">
        <ele>230.206</ele>
        <time>2016-12-27T22:15:50Z</time>
      </trkpt>
      <trkpt lat="43.71085" lon="3.48521">
        <ele>241.716</ele>
        <time>2016-12-27T22:16:10Z</time>
      </trkpt>
      <trkpt lat="43.71092" lon="3.48487">
        <ele>244.708</ele>
        <time>2016-12-27T22:16:30Z</time>
      </trkpt>
      <trkpt lat="43.71076" lon="3.48484">
        <ele>238.823</ele>
        <time>2016-12-27T22:16:50Z</time>
      </trkpt>
      <trkpt lat="43.71073" lon="3.48476">
        <ele>237.636</ele>
        <time>2016-12-27T22:17:10Z</time>
      </trkpt>
      <trkpt lat="43.71048" lon="3.48477">
        <ele>229.572</ele>
        <time>2016-12-27T22:17:30Z</time>
      </trkpt>
      <trkpt lat="43.71033" lon="3.48436">
        <ele>227.291</ele>
        <time>2016-12-27T22:17:50Z</time>
      </trkpt>
      <trkpt lat="43.71003" lon="3.48443">
        <ele>219.988</ele>
        <time>2016-12-27T22:18:10Z</time>
      </trkpt>
      <trkpt lat="43.70988" lon="3.48475">
        <ele>215.359</ele>
        <time>2016-12-27T22:18:30Z</time>
      </trkpt>
      <trkpt lat="43.70948" lon="3.48467">
        <ele>207.828</ele>
        <time>2016-12-27T22:18:50Z</time>
      </trkpt>
      <trkpt lat="43.70913" lon="3.4846">
        <ele>202.649</ele>
        <time>2016-12-27T22:19:10Z</time>
      </trkpt>
      <trkpt lat="43.70876" lon="3.48442">
        <ele>199.577</ele>
        <time>2016-12-27T22:19:30Z</time>
      </trkpt>
      <trkpt lat="43.70734" lon="3.48432">
        <ele>190.161</ele>
        <time>2016-12-27T22:19:50Z</time>
      </trkpt>
      <trkpt lat="43.707" lon="3.48414">
        <ele>188.927</ele>
        <time>2016-12-27T22:20:10Z</time>
      </trkpt>
      <trkpt lat="43.70676" lon="3.48426">
        <ele>189.808</ele>
        <time>2016-12-27T22:20:30Z</time>
      </trkpt>
      <trkpt lat="43.7063" lon="3.48362">
        <ele>184.354</ele>
        <time>2016-12-27T22:20:50Z</time>
      </trkpt>
      <trkpt lat="43.70585" lon="3.48332">
        <ele>180.937</ele>
        <time>2016-12-27T22:21:10Z</time>
      </trkpt>
      <trkpt lat="43.70581" lon="3.483">
        <ele>178.173</ele>
        <time>2021-04-16T19:58:30Z</time>
      </trkpt>
      <trkpt lat="43.70499" lon="3.48217">
        <ele>165.372</ele>
        <time>2016-12-27T22:21:50Z</time>
      </trkpt>
      <trkpt lat="43.70543" lon="3.48221">
        <ele>165.419</ele>
        <time>2016-12-27T22:22:10Z</time>
      </trkpt>
      <trkpt lat="43.70535" lon="3.48191">
        <ele>160.65</ele>
        <time>2016-12-27T22:22:30Z</time>
      </trkpt>
      <trkpt lat="43.70483" lon="3.48165">
        <ele>159.969</ele>
        <time>2016-12-27T22:22:50Z</time>
      </trkpt>
      <trkpt lat="43.7046" lon="3.48095">
        <ele>155.18</ele>
        <time>2016-12-27T22:23:10Z</time>
      </trkpt>
      <trkpt lat="43.70423" lon="3.48047">
        <ele>158.682</ele>
        <time>2016-12-27T22:23:30Z</time>
      </trkpt>
      <trkpt lat="43.70395" lon="3.48025">
        <ele>162.143</ele>
        <time>2016-12-27T22:23:50Z</time>
      </trkpt>
      <trkpt lat="43.70346" lon="3.47957">
        <ele>172.517</ele>
        <time>2016-12-27T22:24:10Z</time>
      </trkpt>
      <trkpt lat="43.70378" lon="3.47941">
        <ele>171.208</ele>
        <time>2016-12-27T22:24:30Z</time>
      </trkpt>
      <trkpt lat="43.70447" lon="3.47935">
        <ele>177.935</ele>
        <time>2016-12-27T22:24:50Z</time>
      </trkpt>
      <trkpt lat="43.70466" lon="3.47915">
        <ele>180.138</ele>
        <time>2016-12-27T22:25:10Z</time>
      </trkpt>
      <trkpt lat="43.70459" lon="3.47821">
        <ele>187.184</ele>
        <time>2016-12-27T22:25:30Z</time>
      </trkpt>
      <trkpt lat="43.70504" lon="3.47771">
        <ele>189.643</ele>
        <time>2016-12-27T22:25:50Z</time>
      </trkpt>
      <trkpt lat="43.70534" lon="3.47747">
        <ele>189.81</ele>
        <time>2016-12-27T22:26:10Z</time>
      </trkpt>
      <trkpt lat="43.70544" lon="3.47703">
        <ele>193.311</ele>
        <time>2016-12-27T22:26:30Z</time>
      </trkpt>
      <trkpt lat="43.70582" lon="3.47687">
        <ele>192.55</ele>
        <time>2016-12-27T22:26:50Z</time>
      </trkpt>
      <trkpt lat="43.70653" lon="3.47687">
        <ele>194.471</ele>
        <time>2016-12-27T22:27:10Z</time>
      </trkpt>
      <trkpt lat="43.70768" lon="3.47667">
        <ele>198.683</ele>
        <time>2016-12-27T22:27:30Z</time>
      </trkpt>
      <trkpt lat="43.70823" lon="3.47679">
        <ele>198.925</ele>
        <time>2016-12-27T22:27:50Z</time>
      </trkpt>
      <trkpt lat="43.70876" lon="3.47677">
        <ele>204.717</ele>
        <time>2016-12-27T22:28:10Z</time>
      </trkpt>
      <trkpt lat="43.70902" lon="3.47689">
        <ele>202.108</ele>
        <time>2016-12-27T22:28:30Z</time>
      </trkpt>
      <trkpt lat="43.70955" lon="3.47651">
        <ele>202.665</ele>
        <time>2016-12-27T22:28:50Z</time>
      </trkpt>
      <trkpt lat="43.7097" lon="3.47629">
        <ele>206.338</ele>
        <time>2016-12-27T22:29:10Z</time>
      </trkpt>
      <trkpt lat="43.71004" lon="3.47625">
        <ele>205.764</ele>
        <time>2016-12-27T22:29:30Z</time>
      </trkpt>
      <trkpt lat="43.71037" lon="3.47598">
        <ele>210.773</ele>
        <time>2016-12-27T22:29:50Z</time>
      </trkpt>
      <trkpt lat="43.7107" lon="3.47573">
        <ele>210.97</ele>
        <time>2016-12-27T22:30:10Z</time>
      </trkpt>
      <trkpt lat="43.71106" lon="3.4753">
        <ele>211.851</ele>
        <time>2016-12-27T22:30:30Z</time>
      </trkpt>
      <trkpt lat="43.71138" lon="3.47488">
        <ele>213.41</ele>
        <time>2016-12-27T22:31:30Z</time>
      </trkpt>
      <trkpt lat="43.71164" lon="3.47438">
        <ele>218.561</ele>
        <time>2016-12-27T22:31:50Z</time>
      </trkpt>
      <trkpt lat="43.71192" lon="3.47428">
        <ele>217.663</ele>
        <time>2016-12-27T22:32:10Z</time>
      </trkpt>
      <trkpt lat="43.71209" lon="3.47413">
        <ele>218.944</ele>
        <time>2016-12-27T22:32:30Z</time>
      </trkpt>
      <trkpt lat="43.71203" lon="3.47409">
        <ele>220.318</ele>
        <time>2016-12-27T22:32:50Z</time>
      </trkpt>
      <trkpt lat="43.71185" lon="3.47412">
        <ele>221.108</ele>
        <time>2016-12-27T22:33:10Z</time>
      </trkpt>
      <trkpt lat="43.71148" lon="3.47411">
        <ele>225.053</ele>
        <time>2016-12-27T22:33:30Z</time>
      </trkpt>
      <trkpt lat="43.7113" lon="3.47445">
        <ele>224.716</ele>
        <time>2016-12-27T22:33:50Z</time>
      </trkpt>
      <trkpt lat="43.71122" lon="3.4745">
        <ele>227.142</ele>
        <time>2016-12-27T22:47:50Z</time>
      </trkpt>
      <trkpt lat="43.71122" lon="3.4743">
        <ele>229.651</ele>
        <time>2016-12-27T22:48:10Z</time>
      </trkpt>
      <trkpt lat="43.71136" lon="3.47382">
        <ele>232.758</ele>
        <time>2016-12-27T22:48:30Z</time>
      </trkpt>
      <trkpt lat="43.71162" lon="3.47355">
        <ele>237.039</ele>
        <time>2016-12-27T22:48:50Z</time>
      </trkpt>
      <trkpt lat="43.71203" lon="3.47333">
        <ele>241.688</ele>
        <time>2016-12-27T22:49:10Z</time>
      </trkpt>
      <trkpt lat="43.71238" lon="3.47309">
        <ele>244.849</ele>
        <time>2016-12-27T22:49:30Z</time>
      </trkpt>
      <trkpt lat="43.71258" lon="3.4731">
        <ele>242.841</ele>
        <time>2016-12-27T22:49:50Z</time>
      </trkpt>
      <trkpt lat="43.71277" lon="3.47295">
        <ele>245.681</ele>
        <time>2016-12-27T22:50:10Z</time>
      </trkpt>
      <trkpt lat="43.71293" lon="3.4727">
        <ele>251.809</ele>
        <time>2016-12-27T22:50:30Z</time>
      </trkpt>
      <trkpt lat="43.71324" lon="3.47259">
        <ele>249.108</ele>
        <time>2016-12-27T22:50:50Z</time>
      </trkpt>
      <trkpt lat="43.71382" lon="3.47162">
        <ele>256.131</ele>
        <time>2016-12-27T22:51:10Z</time>
      </trkpt>
      <trkpt lat="43.71425" lon="3.47083">
        <ele>261.554</ele>
        <time>2016-12-27T22:51:30Z</time>
      </trkpt>
      <trkpt lat="43.71427" lon="3.47029">
        <ele>268.94</ele>
        <time>2016-12-27T22:51:50Z</time>
      </trkpt>
      <trkpt lat="43.71442" lon="3.47007">
        <ele>267.169</ele>
        <time>2016-12-27T22:52:10Z</time>
      </trkpt>
      <trkpt lat="43.71448" lon="3.46941">
        <ele>273.586</ele>
        <time>2016-12-27T22:52:30Z</time>
      </trkpt>
      <trkpt lat="43.71431" lon="3.46994">
        <ele>272.197</ele>
        <time>2016-12-27T22:52:50Z</time>
      </trkpt>
      <trkpt lat="43.714" lon="3.47014">
        <ele>281.456</ele>
        <time>2016-12-27T22:53:10Z</time>
      </trkpt>
      <trkpt lat="43.71388" lon="3.47072">
        <ele>278.447</ele>
        <time>2016-12-27T22:53:30Z</time>
      </trkpt>
      <trkpt lat="43.71343" lon="3.47143">
        <ele>276.764</ele>
        <time>2016-12-27T22:53:50Z</time>
      </trkpt>
      <trkpt lat="43.71296" lon="3.47188">
        <ele>281.006</ele>
        <time>2016-12-27T22:54:10Z</time>
      </trkpt>
      <trkpt lat="43.71254" lon="3.47203">
        <ele>282.616</ele>
        <time>2016-12-27T22:54:30Z</time>
      </trkpt>
      <trkpt lat="43.71215" lon="3.47203">
        <ele>286.408</ele>
        <time>2016-12-27T22:54:50Z</time>
      </trkpt>
      <trkpt lat="43.71176" lon="3.47216">
        <ele>286.823</ele>
        <time>2016-12-27T22:55:10Z</time>
      </trkpt>
      <trkpt lat="43.71131" lon="3.47223">
        <ele>289.126</ele>
        <time>2016-12-27T22:55:30Z</time>
      </trkpt>
      <trkpt lat="43.70964" lon="3.47287">
        <ele>293.712</ele>
        <time>2021-04-16T20:18:30Z</time>
      </trkpt>
      <trkpt lat="43.71024" lon="3.47178">
        <ele>310.771</ele>
        <time>2016-12-27T22:56:30Z</time>
      </trkpt>
      <trkpt lat="43.71073" lon="3.47143">
        <ele>320.258</ele>
        <time>2016-12-27T22:56:50Z</time>
      </trkpt>
      <trkpt lat="43.71254" lon="3.46992">
        <ele>350.729</ele>
        <time>2016-12-27T22:57:10Z</time>
      </trkpt>
      <trkpt lat="43.71274" lon="3.46921">
        <ele>355.798</ele>
        <time>2016-12-27T22:57:30Z</time>
      </trkpt>
      <trkpt lat="43.71312" lon="3.46855">
        <ele>356.349</ele>
        <time>2016-12-27T22:57:50Z</time>
      </trkpt>
      <trkpt lat="43.71311" lon="3.4681">
        <ele>363.234</ele>
        <time>2016-12-27T22:58:10Z</time>
      </trkpt>
      <trkpt lat="43.71284" lon="3.46659">
        <ele>368.055</ele>
        <time>2016-12-27T22:58:30Z</time>
      </trkpt>
      <trkpt lat="43.71249" lon="3.4664">
        <ele>371.31</ele>
        <time>2016-12-27T22:58:50Z</time>
      </trkpt>
      <trkpt lat="43.71239" lon="3.46609">
        <ele>369.108</ele>
        <time>2016-12-27T22:59:10Z</time>
      </trkpt>
      <trkpt lat="43.71245" lon="3.46571">
        <ele>370.73</ele>
        <time>2016-12-27T22:59:30Z</time>
      </trkpt>
      <trkpt lat="43.71272" lon="3.46545">
        <ele>375.163</ele>
        <time>2016-12-27T22:59:50Z</time>
      </trkpt>
      <trkpt lat="43.71366" lon="3.46525">
        <ele>380.279</ele>
        <time>2016-12-27T23:00:10Z</time>
      </trkpt>
      <trkpt lat="43.71419" lon="3.4648">
        <ele>387.368</ele>
        <time>2016-12-27T23:00:30Z</time>
      </trkpt>
      <trkpt lat="43.71434" lon="3.46432">
        <ele>395.235</ele>
        <time>2016-12-27T23:00:50Z</time>
      </trkpt>
      <trkpt lat="43.71453" lon="3.46409">
        <ele>397.646</ele>
        <time>2016-12-27T23:01:10Z</time>
      </trkpt>
      <trkpt lat="43.71459" lon="3.46387">
        <ele>401.585</ele>
        <time>2016-12-27T23:01:30Z</time>
      </trkpt>
      <trkpt lat="43.71481" lon="3.46367">
        <ele>403.676</ele>
        <time>2016-12-27T23:01:50Z</time>
      </trkpt>
      <trkpt lat="43.71478" lon="3.46353">
        <ele>408.288</ele>
        <time>2016-12-27T23:02:10Z</time>
      </trkpt>
      <trkpt lat="43.71519" lon="3.46314">
        <ele>415.824</ele>
        <time>2016-12-27T23:02:30Z</time>
      </trkpt>
      <trkpt lat="43.71544" lon="3.46299">
        <ele>415.226</ele>
        <time>2016-12-27T23:02:50Z</time>
      </trkpt>
      <trkpt lat="43.71555" lon="3.46267">
        <ele>421.308</ele>
        <time>2016-12-27T23:03:10Z</time>
      </trkpt>
      <trkpt lat="43.71556" lon="3.46234">
        <ele>430.065</ele>
        <time>2016-12-27T23:03:30Z</time>
      </trkpt>
      <trkpt lat="43.7157" lon="3.46187">
        <ele>430.578</ele>
        <time>2016-12-27T23:03:50Z</time>
      </trkpt>
      <trkpt lat="43.71607" lon="3.46019">
        <ele>442.684</ele>
        <time>2016-12-27T23:04:10Z</time>
      </trkpt>
      <trkpt lat="43.71607" lon="3.45963">
        <ele>449.143</ele>
        <time>2016-12-27T23:04:30Z</time>
      </trkpt>
      <trkpt lat="43.71611" lon="3.45913">
        <ele>450.06</ele>
        <time>2016-12-27T23:04:50Z</time>
      </trkpt>
      <trkpt lat="43.71591" lon="3.4587">
        <ele>449.151</ele>
        <time>2016-12-27T23:05:10Z</time>
      </trkpt>
      <trkpt lat="43.71609" lon="3.45823">
        <ele>439.92</ele>
        <time>2016-12-27T23:05:30Z</time>
      </trkpt>
      <trkpt lat="43.71651" lon="3.45796">
        <ele>433.651</ele>
        <time>2016-12-27T23:05:50Z</time>
      </trkpt>
      <trkpt lat="43.71648" lon="3.45774">
        <ele>429.767</ele>
        <time>2016-12-27T23:06:10Z</time>
      </trkpt>
      <trkpt lat="43.71654" lon="3.45752">
        <ele>427.081</ele>
        <time>2016-12-27T23:06:30Z</time>
      </trkpt>
      <trkpt lat="43.71648" lon="3.45738">
        <ele>423.619</ele>
        <time>2016-12-27T23:06:50Z</time>
      </trkpt>
      <trkpt lat="43.71656" lon="3.4571">
        <ele>421.908</ele>
        <time>2016-12-27T23:07:10Z</time>
      </trkpt>
      <trkpt lat="43.71653" lon="3.45674">
        <ele>416.143</ele>
        <time>2016-12-27T23:07:30Z</time>
      </trkpt>
      <trkpt lat="43.71648" lon="3.45663">
        <ele>412.886</ele>
        <time>2016-12-27T23:07:50Z</time>
      </trkpt>
      <trkpt lat="43.71648" lon="3.45627">
        <ele>405.812</ele>
        <time>2016-12-27T23:08:10Z</time>
      </trkpt>
      <trkpt lat="43.7166" lon="3.45599">
        <ele>405.281</ele>
        <time>2016-12-27T23:08:30Z</time>
      </trkpt>
      <trkpt lat="43.71659" lon="3.45549">
        <ele>400.168</ele>
        <time>2016-12-27T23:08:50Z</time>
      </trkpt>
      <trkpt lat="43.71694" lon="3.45508">
        <ele>407.419</ele>
        <time>2016-12-27T23:09:10Z</time>
      </trkpt>
      <trkpt lat="43.71696" lon="3.45477">
        <ele>404.918</ele>
        <time>2016-12-27T23:09:30Z</time>
      </trkpt>
      <trkpt lat="43.71692" lon="3.45455">
        <ele>402.239</ele>
        <time>2016-12-27T23:09:50Z</time>
      </trkpt>
      <trkpt lat="43.71696" lon="3.4541">
        <ele>398.969</ele>
        <time>2016-12-27T23:10:10Z</time>
      </trkpt>
      <trkpt lat="43.71666" lon="3.45417">
        <ele>392.804</ele>
        <time>2016-12-27T23:10:30Z</time>
      </trkpt>
      <trkpt lat="43.71663" lon="3.45399">
        <ele>386.924</ele>
        <time>2016-12-27T23:10:50Z</time>
      </trkpt>
      <trkpt lat="43.71686" lon="3.45388">
        <ele>391.108</ele>
        <time>2016-12-27T23:11:10Z</time>
      </trkpt>
      <trkpt lat="43.71688" lon="3.45356">
        <ele>385.583</ele>
        <time>2016-12-27T23:11:30Z</time>
      </trkpt>
      <trkpt lat="43.71663" lon="3.45317">
        <ele>375.726</ele>
        <time>2016-12-27T23:11:50Z</time>
      </trkpt>
      <trkpt lat="43.71659" lon="3.45291">
        <ele>373.692</ele>
        <time>2016-12-27T23:12:10Z</time>
      </trkpt>
      <trkpt lat="43.71662" lon="3.45269">
        <ele>376.181</ele>
        <time>2016-12-27T23:12:30Z</time>
      </trkpt>
      <trkpt lat="43.71649" lon="3.45224">
        <ele>368.738</ele>
        <time>2016-12-27T23:12:50Z</time>
      </trkpt>
      <trkpt lat="43.71653" lon="3.45212">
        <ele>370.589</ele>
        <time>2016-12-27T23:13:10Z</time>
      </trkpt>
      <trkpt lat="43.71647" lon="3.45173">
        <ele>365.258</ele>
        <time>2016-12-27T23:13:30Z</time>
      </trkpt>
      <trkpt lat="43.71637" lon="3.45164">
        <ele>361.129</ele>
        <time>2016-12-27T23:13:50Z</time>
      </trkpt>
      <trkpt lat="43.71617" lon="3.45175">
        <ele>355.653</ele>
        <time>2016-12-27T23:14:10Z</time>
      </trkpt>
      <trkpt lat="43.71601" lon="3.45159">
        <ele>350.704</ele>
        <time>2016-12-27T23:14:30Z</time>
      </trkpt>
      <trkpt lat="43.71583" lon="3.45171">
        <ele>345.214</ele>
        <time>2016-12-27T23:14:50Z</time>
      </trkpt>
      <trkpt lat="43.71556" lon="3.45094">
        <ele>334.608</ele>
        <time>2016-12-27T23:15:10Z</time>
      </trkpt>
      <trkpt lat="43.71587" lon="3.4498">
        <ele>325.332</ele>
        <time>2016-12-27T23:15:30Z</time>
      </trkpt>
      <trkpt lat="43.71583" lon="3.44934">
        <ele>321.265</ele>
        <time>2016-12-27T23:15:50Z</time>
      </trkpt>
      <trkpt lat="43.71598" lon="3.4483">
        <ele>318.041</ele>
        <time>2016-12-27T23:16:10Z</time>
      </trkpt>
      <trkpt lat="43.71593" lon="3.44745">
        <ele>313.87</ele>
        <time>2016-12-27T23:16:30Z</time>
      </trkpt>
      <trkpt lat="43.71611" lon="3.44661">
        <ele>309.027</ele>
        <time>2016-12-27T23:16:50Z</time>
      </trkpt>
      <trkpt lat="43.71639" lon="3.44618">
        <ele>308.278</ele>
        <time>2016-12-27T23:17:10Z</time>
      </trkpt>
      <trkpt lat="43.71652" lon="3.44571">
        <ele>307.257</ele>
        <time>2016-12-27T23:17:30Z</time>
      </trkpt>
      <trkpt lat="43.7164" lon="3.44487">
        <ele>298.398</ele>
        <time>2016-12-27T23:17:50Z</time>
      </trkpt>
      <trkpt lat="43.71665" lon="3.44467">
        <ele>298.114</ele>
        <time>2016-12-27T23:18:10Z</time>
      </trkpt>
      <trkpt lat="43.71686" lon="3.44424">
        <ele>295.954</ele>
        <time>2016-12-27T23:18:30Z</time>
      </trkpt>
      <trkpt lat="43.71686" lon="3.44412">
        <ele>294.009</ele>
        <time>2016-12-27T23:18:50Z</time>
      </trkpt>
      <trkpt lat="43.71704" lon="3.44389">
        <ele>293.508</ele>
        <time>2016-12-27T23:19:10Z</time>
      </trkpt>
      <trkpt lat="43.71715" lon="3.44347">
        <ele>290.448</ele>
        <time>2016-12-27T23:19:30Z</time>
      </trkpt>
      <trkpt lat="43.71732" lon="3.44312">
        <ele>288.621</ele>
        <time>2016-12-27T23:19:50Z</time>
      </trkpt>
      <trkpt lat="43.71742" lon="3.4424">
        <ele>280.397</ele>
        <time>2016-12-27T23:20:10Z</time>
      </trkpt>
      <trkpt lat="43.71701" lon="3.44233">
        <ele>273.266</ele>
        <time>2016-12-27T23:20:30Z</time>
      </trkpt>
      <trkpt lat="43.717" lon="3.44206">
        <ele>269.143</ele>
        <time>2016-12-27T23:20:50Z</time>
      </trkpt>
      <trkpt lat="43.71758" lon="3.4418">
        <ele>271.614</ele>
        <time>2016-12-27T23:21:10Z</time>
      </trkpt>
      <trkpt lat="43.71747" lon="3.44163">
        <ele>267.173</ele>
        <time>2016-12-27T23:21:30Z</time>
      </trkpt>
      <trkpt lat="43.71703" lon="3.44142">
        <ele>256.954</ele>
        <time>2016-12-27T23:21:50Z</time>
      </trkpt>
      <trkpt lat="43.71648" lon="3.44148">
        <ele>252.097</ele>
        <time>2016-12-27T23:22:10Z</time>
      </trkpt>
      <trkpt lat="43.71645" lon="3.44136">
        <ele>250.523</ele>
        <time>2016-12-27T23:22:30Z</time>
      </trkpt>
      <trkpt lat="43.71674" lon="3.44128">
        <ele>252.225</ele>
        <time>2016-12-27T23:22:50Z</time>
      </trkpt>
      <trkpt lat="43.71698" lon="3.44108">
        <ele>250.008</ele>
        <time>2016-12-27T23:23:10Z</time>
      </trkpt>
      <trkpt lat="43.71731" lon="3.44098">
        <ele>248.276</ele>
        <time>2016-12-27T23:23:30Z</time>
      </trkpt>
      <trkpt lat="43.71754" lon="3.44083">
        <ele>245.259</ele>
        <time>2016-12-27T23:23:50Z</time>
      </trkpt>
      <trkpt lat="43.71785" lon="3.44076">
        <ele>245.755</ele>
        <time>2016-12-27T23:24:10Z</time>
      </trkpt>
      <trkpt lat="43.71788" lon="3.4406">
        <ele>242.654</ele>
        <time>2016-12-27T23:24:30Z</time>
      </trkpt>
      <trkpt lat="43.71762" lon="3.44054">
        <ele>240.381</ele>
        <time>2016-12-27T23:24:50Z</time>
      </trkpt>
      <trkpt lat="43.71728" lon="3.44012">
        <ele>233.582</ele>
        <time>2021-04-16T20:47:30Z</time>
      </trkpt>
      <trkpt lat="43.71768" lon="3.44033">
        <ele>239.751</ele>
        <time>2021-04-16T20:47:50Z</time>
      </trkpt>
      <trkpt lat="43.71776" lon="3.44025">
        <ele>239.462</ele>
        <time>2021-04-16T20:48:10Z</time>
      </trkpt>
      <trkpt lat="43.71769" lon="3.43996">
        <ele>234.855</ele>
        <time>2021-04-16T20:48:30Z</time>
      </trkpt>
      <trkpt lat="43.71773" lon="3.4397">
        <ele>234.107</ele>
        <time>2021-04-16T20:48:50Z</time>
      </trkpt>
      <trkpt lat="43.71789" lon="3.43957">
        <ele>235.417</ele>
        <time>2021-04-16T20:49:10Z</time>
      </trkpt>
      <trkpt lat="43.71776" lon="3.43939">
        <ele>233.008</ele>
        <time>2021-04-16T20:49:30Z</time>
      </trkpt>
      <trkpt lat="43.71762" lon="3.43937">
        <ele>231.432</ele>
        <time>2021-04-16T20:49:50Z</time>
      </trkpt>
      <trkpt lat="43.71748" lon="3.43902">
        <ele>228.175</ele>
        <time>2021-04-16T20:50:10Z</time>
      </trkpt>
      <trkpt lat="43.71745" lon="3.43863">
        <ele>228.351</ele>
        <time>2016-12-27T23:26:30Z</time>
      </trkpt>
      <trkpt lat="43.71755" lon="3.43827">
        <ele>223.63</ele>
        <time>2016-12-27T23:26:50Z</time>
      </trkpt>
      <trkpt lat="43.71755" lon="3.43799">
        <ele>219.287</ele>
        <time>2016-12-27T23:27:10Z</time>
      </trkpt>
      <trkpt lat="43.71764" lon="3.43773">
        <ele>217.828</ele>
        <time>2016-12-27T23:27:30Z</time>
      </trkpt>
      <trkpt lat="43.71763" lon="3.43747">
        <ele>216.097</ele>
        <time>2021-04-16T20:51:50Z</time>
      </trkpt>
      <trkpt lat="43.7175" lon="3.43701">
        <ele>210.258</ele>
        <time>2016-12-27T23:28:10Z</time>
      </trkpt>
      <trkpt lat="43.71748" lon="3.43655">
        <ele>204.565</ele>
        <time>2016-12-27T23:28:30Z</time>
      </trkpt>
      <trkpt lat="43.71711" lon="3.43611">
        <ele>201.668</ele>
        <time>2016-12-27T23:28:50Z</time>
      </trkpt>
      <trkpt lat="43.71693" lon="3.43563">
        <ele>201.014</ele>
        <time>2016-12-27T23:29:10Z</time>
      </trkpt>
      <trkpt lat="43.71682" lon="3.43513">
        <ele>200.008</ele>
        <time>2016-12-27T23:29:30Z</time>
      </trkpt>
      <trkpt lat="43.71686" lon="3.43455">
        <ele>199.633</ele>
        <time>2016-12-27T23:29:50Z</time>
      </trkpt>
      <trkpt lat="43.71612" lon="3.43386">
        <ele>195.956</ele>
        <time>2016-12-27T23:30:10Z</time>
      </trkpt>
      <trkpt lat="43.71622" lon="3.4335">
        <ele>194.262</ele>
        <time>2016-12-27T23:30:30Z</time>
      </trkpt>
      <trkpt lat="43.71588" lon="3.43312">
        <ele>192.291</ele>
        <time>2016-12-27T23:30:50Z</time>
      </trkpt>
      <trkpt lat="43.71593" lon="3.43247">
        <ele>188.258</ele>
        <time>2021-04-16T20:55:10Z</time>
      </trkpt>
      <trkpt lat="43.71647" lon="3.4317">
        <ele>187.019</ele>
        <time>2016-12-27T23:31:30Z</time>
      </trkpt>
      <trkpt lat="43.71708" lon="3.43112">
        <ele>181.138</ele>
        <time>2016-12-27T23:31:50Z</time>
      </trkpt>
      <trkpt lat="43.7167" lon="3.42976">
        <ele>181.069</ele>
        <time>2016-12-27T23:32:10Z</time>
      </trkpt>
      <trkpt lat="43.71619" lon="3.42946">
        <ele>182.562</ele>
        <time>2016-12-27T23:32:30Z</time>
      </trkpt>
      <trkpt lat="43.71627" lon="3.429">
        <ele>180.583</ele>
        <time>2016-12-27T23:32:50Z</time>
      </trkpt>
      <trkpt lat="43.71559" lon="3.42828">
        <ele>179.411</ele>
        <time>2016-12-27T23:33:10Z</time>
      </trkpt>
      <trkpt lat="43.71521" lon="3.42685">
        <ele>161.708</ele>
        <time>2016-12-27T23:33:30Z</time>
      </trkpt>
      <trkpt lat="43.71504" lon="3.42634">
        <ele>156.713</ele>
        <time>2016-12-27T23:33:50Z</time>
      </trkpt>
      <trkpt lat="43.71467" lon="3.42595">
        <ele>153.156</ele>
        <time>2016-12-27T23:34:10Z</time>
      </trkpt>
      <trkpt lat="43.71475" lon="3.42541">
        <ele>152.352</ele>
        <time>2016-12-27T23:34:30Z</time>
      </trkpt>
      <trkpt lat="43.71471" lon="3.42417">
        <ele>155.071</ele>
        <time>2016-12-27T23:34:50Z</time>
      </trkpt>
      <trkpt lat="43.71471" lon="3.42313">
        <ele>162.518</ele>
        <time>2016-12-27T23:35:10Z</time>
      </trkpt>
      <trkpt lat="43.71445" lon="3.4213">
        <ele>170.899</ele>
        <time>2021-04-16T20:59:30Z</time>
      </trkpt>
      <trkpt lat="43.71304" lon="3.4187">
        <ele>167.078</ele>
        <time>2021-04-16T20:59:50Z</time>
      </trkpt>
      <trkpt lat="43.71329" lon="3.41845">
        <ele>167.059</ele>
        <time>2021-04-16T21:00:10Z</time>
      </trkpt>
      <trkpt lat="43.71331" lon="3.41831">
        <ele>166.927</ele>
        <time>2021-04-16T21:00:30Z</time>
      </trkpt>
      <trkpt lat="43.71253" lon="3.41685">
        <ele>160.368</ele>
        <time>2021-04-16T21:00:50Z</time>
      </trkpt>
      <trkpt lat="43.71257" lon="3.4155">
        <ele>159.214</ele>
        <time>2021-04-16T21:01:10Z</time>
      </trkpt>
      <trkpt lat="43.71186" lon="3.41472">
        <ele>152.708</ele>
        <time>2021-04-16T21:01:30Z</time>
      </trkpt>
      <trkpt lat="43.71166" lon="3.41464">
        <ele>152.069</ele>
        <time>2021-04-16T21:01:50Z</time>
      </trkpt>
      <trkpt lat="43.71119" lon="3.41357">
        <ele>154.992</ele>
        <time>2021-04-16T21:02:10Z</time>
      </trkpt>
      <trkpt lat="43.71115" lon="3.41322">
        <ele>157.328</ele>
        <time>2021-04-16T21:02:30Z</time>
      </trkpt>
      <trkpt lat="43.71148" lon="3.41324">
        <ele>158.347</ele>
        <time>2021-04-16T21:02:50Z</time>
      </trkpt>
      <trkpt lat="43.71177" lon="3.41316">
        <ele>160.164</ele>
        <time>2021-04-16T21:03:10Z</time>
      </trkpt>
      <trkpt lat="43.71222" lon="3.41292">
        <ele>164.125</ele>
        <time>2021-04-16T21:03:30Z</time>
      </trkpt>
      <trkpt lat="43.71254" lon="3.41299">
        <ele>164.154</ele>
        <time>2021-04-16T21:03:50Z</time>
      </trkpt>
      <trkpt lat="43.71298" lon="3.41278">
        <ele>165.345</ele>
        <time>2021-04-16T21:04:10Z</time>
      </trkpt>
      <trkpt lat="43.71364" lon="3.41221">
        <ele>170.083</ele>
        <time>2021-04-16T21:04:30Z</time>
      </trkpt>
      <trkpt lat="43.71382" lon="3.41194">
        <ele>172.125</ele>
        <time>2021-04-16T21:04:50Z</time>
      </trkpt>
      <trkpt lat="43.71396" lon="3.41195">
        <ele>171.217</ele>
        <time>2021-04-16T21:05:10Z</time>
      </trkpt>
      <trkpt lat="43.71393" lon="3.41234">
        <ele>167.708</ele>
        <time>2021-04-16T21:05:30Z</time>
      </trkpt>
      <trkpt lat="43.71397" lon="3.41261">
        <ele>165.415</ele>
        <time>2021-04-16T21:05:50Z</time>
      </trkpt>
      <trkpt lat="43.71413" lon="3.41275">
        <ele>164.258</ele>
        <time>2021-04-16T21:06:10Z</time>
      </trkpt>
      <trkpt lat="43.71501" lon="3.41282">
        <ele>170.254</ele>
        <time>2021-04-16T21:06:30Z</time>
      </trkpt>
      <trkpt lat="43.71532" lon="3.41303">
        <ele>168.713</ele>
        <time>2021-04-16T21:06:50Z</time>
      </trkpt>
      <trkpt lat="43.71583" lon="3.41301">
        <ele>170.47</ele>
        <time>2021-04-16T21:07:10Z</time>
      </trkpt>
      <trkpt lat="43.71635" lon="3.41305">
        <ele>170.161</ele>
        <time>2021-04-16T21:07:30Z</time>
      </trkpt>
      <trkpt lat="43.71703" lon="3.41289">
        <ele>170.99</ele>
        <time>2021-04-16T21:07:50Z</time>
      </trkpt>
      <trkpt lat="43.71725" lon="3.4129">
        <ele>170.271</ele>
        <time>2021-04-16T21:08:10Z</time>
      </trkpt>
      <trkpt lat="43.71761" lon="3.41275">
        <ele>170.512</ele>
        <time>2021-04-16T21:08:30Z</time>
      </trkpt>
      <trkpt lat="43.71796" lon="3.41253">
        <ele>170.632</ele>
        <time>2021-04-16T21:08:50Z</time>
      </trkpt>
      <trkpt lat="43.71819" lon="3.41249">
        <ele>169.905</ele>
        <time>2021-04-16T21:09:10Z</time>
      </trkpt>
      <trkpt lat="43.71853" lon="3.41223">
        <ele>173.908</ele>
        <time>2021-04-16T21:09:30Z</time>
      </trkpt>
      <trkpt lat="43.71883" lon="3.41224">
        <ele>173.928</ele>
        <time>2021-04-16T21:09:50Z</time>
      </trkpt>
      <trkpt lat="43.71913" lon="3.41205">
        <ele>177.081</ele>
        <time>2021-04-16T21:10:10Z</time>
      </trkpt>
      <trkpt lat="43.71914" lon="3.4119">
        <ele>179.317</ele>
        <time>2021-04-16T21:10:30Z</time>
      </trkpt>
      <trkpt lat="43.71965" lon="3.41104">
        <ele>183.966</ele>
        <time>2016-12-27T23:39:50Z</time>
      </trkpt>
      <trkpt lat="43.71969" lon="3.41061">
        <ele>189.943</ele>
        <time>2016-12-27T23:40:10Z</time>
      </trkpt>
      <trkpt lat="43.71972" lon="3.4099">
        <ele>201.854</ele>
        <time>2016-12-27T23:40:30Z</time>
      </trkpt>
      <trkpt lat="43.72048" lon="3.40871">
        <ele>217.973</ele>
        <time>2016-12-27T23:40:50Z</time>
      </trkpt>
      <trkpt lat="43.72131" lon="3.40775">
        <ele>226.034</ele>
        <time>2016-12-27T23:41:10Z</time>
      </trkpt>
      <trkpt lat="43.72152" lon="3.4071">
        <ele>230.039</ele>
        <time>2016-12-27T23:41:30Z</time>
      </trkpt>
      <trkpt lat="43.72144" lon="3.40642">
        <ele>230.001</ele>
        <time>2016-12-27T23:41:50Z</time>
      </trkpt>
      <trkpt lat="43.72181" lon="3.40621">
        <ele>226.821</ele>
        <time>2016-12-27T23:42:10Z</time>
      </trkpt>
      <trkpt lat="43.72194" lon="3.40585">
        <ele>217.408</ele>
        <time>2016-12-27T23:42:30Z</time>
      </trkpt>
      <trkpt lat="43.72229" lon="3.40567">
        <ele>210.66</ele>
        <time>2016-12-27T23:42:50Z</time>
      </trkpt>
      <trkpt lat="43.72279" lon="3.40578">
        <ele>200.823</ele>
        <time>2016-12-27T23:43:10Z</time>
      </trkpt>
      <trkpt lat="43.72298" lon="3.40591">
        <ele>201.099</ele>
        <time>2016-12-27T23:43:30Z</time>
      </trkpt>
      <trkpt lat="43.72389" lon="3.40499">
        <ele>212.358</ele>
        <time>2016-12-27T23:43:50Z</time>
      </trkpt>
      <trkpt lat="43.72374" lon="3.40485">
        <ele>212.085</ele>
        <time>2021-04-16T21:15:10Z</time>
      </trkpt>
      <trkpt lat="43.72361" lon="3.40449">
        <ele>222.696</ele>
        <time>2016-12-27T23:44:10Z</time>
      </trkpt>
      <trkpt lat="43.72309" lon="3.4039">
        <ele>234.615</ele>
        <time>2016-12-27T23:44:30Z</time>
      </trkpt>
      <trkpt lat="43.72301" lon="3.40353">
        <ele>240.056</ele>
        <time>2016-12-27T23:44:50Z</time>
      </trkpt>
      <trkpt lat="43.72284" lon="3.4035">
        <ele>240.079</ele>
        <time>2016-12-27T23:45:10Z</time>
      </trkpt>
      <trkpt lat="43.72291" lon="3.40298">
        <ele>240.205</ele>
        <time>2016-12-27T23:45:30Z</time>
      </trkpt>
      <trkpt lat="43.72329" lon="3.40261">
        <ele>241.825</ele>
        <time>2016-12-27T23:45:50Z</time>
      </trkpt>
      <trkpt lat="43.72343" lon="3.40229">
        <ele>243.608</ele>
        <time>2021-04-16T21:17:30Z</time>
      </trkpt>
      <trkpt lat="43.72382" lon="3.40141">
        <ele>252.814</ele>
        <time>2016-12-27T23:46:30Z</time>
      </trkpt>
      <trkpt lat="43.72417" lon="3.40114">
        <ele>259.257</ele>
        <time>2016-12-27T23:46:50Z</time>
      </trkpt>
      <trkpt lat="43.72469" lon="3.4009">
        <ele>265.723</ele>
        <time>2016-12-27T23:47:10Z</time>
      </trkpt>
      <trkpt lat="43.72532" lon="3.40011">
        <ele>270.142</ele>
        <time>2016-12-27T23:47:30Z</time>
      </trkpt>
      <trkpt lat="43.72569" lon="3.39969">
        <ele>276.379</ele>
        <time>2016-12-27T23:47:50Z</time>
      </trkpt>
      <trkpt lat="43.72593" lon="3.39906">
        <ele>286.06</ele>
        <time>2016-12-27T23:48:10Z</time>
      </trkpt>
      <trkpt lat="43.72594" lon="3.3986">
        <ele>285.889</ele>
        <time>2016-12-27T23:48:30Z</time>
      </trkpt>
      <trkpt lat="43.72696" lon="3.39769">
        <ele>306.21</ele>
        <time>2016-12-27T23:48:50Z</time>
      </trkpt>
      <trkpt lat="43.72735" lon="3.3977">
        <ele>311.381</ele>
        <time>2016-12-27T23:49:10Z</time>
      </trkpt>
      <trkpt lat="43.72777" lon="3.39753">
        <ele>318.661</ele>
        <time>2021-04-16T21:20:50Z</time>
      </trkpt>
      <trkpt lat="43.72848" lon="3.39693">
        <ele>327.917</ele>
        <time>2016-12-27T23:49:50Z</time>
      </trkpt>
      <trkpt lat="43.73004" lon="3.39635">
        <ele>340.208</ele>
        <time>2016-12-27T23:50:10Z</time>
      </trkpt>
      <trkpt lat="43.73047" lon="3.39544">
        <ele>347.155</ele>
        <time>2016-12-27T23:50:30Z</time>
      </trkpt>
      <trkpt lat="43.7306" lon="3.39437">
        <ele>358.328</ele>
        <time>2016-12-27T23:50:50Z</time>
      </trkpt>
      <trkpt lat="43.73075" lon="3.39424">
        <ele>362.524</ele>
        <time>2016-12-27T23:51:10Z</time>
      </trkpt>
      <trkpt lat="43.73101" lon="3.3943">
        <ele>367.863</ele>
        <time>2016-12-27T23:51:30Z</time>
      </trkpt>
      <trkpt lat="43.73132" lon="3.39446">
        <ele>364.09</ele>
        <time>2021-04-16T21:23:10Z</time>
      </trkpt>
      <trkpt lat="43.73178" lon="3.39426">
        <ele>374.331</ele>
        <time>2016-12-27T23:52:10Z</time>
      </trkpt>
      <trkpt lat="43.73214" lon="3.3938">
        <ele>381.39</ele>
        <time>2016-12-27T23:52:30Z</time>
      </trkpt>
      <trkpt lat="43.73268" lon="3.39274">
        <ele>402.621</ele>
        <time>2016-12-27T23:52:50Z</time>
      </trkpt>
      <trkpt lat="43.73303" lon="3.3919">
        <ele>414.227</ele>
        <time>2016-12-27T23:53:10Z</time>
      </trkpt>
      <trkpt lat="43.73346" lon="3.39139">
        <ele>421.068</ele>
        <time>2016-12-27T23:53:30Z</time>
      </trkpt>
      <trkpt lat="43.7337" lon="3.39091">
        <ele>424.614</ele>
        <time>2016-12-27T23:53:50Z</time>
      </trkpt>
      <trkpt lat="43.734" lon="3.39087">
        <ele>426.308</ele>
        <time>2016-12-27T23:54:10Z</time>
      </trkpt>
      <trkpt lat="43.73386" lon="3.39077">
        <ele>426.999</ele>
        <time>2016-12-27T23:54:30Z</time>
      </trkpt>
      <trkpt lat="43.73337" lon="3.39077">
        <ele>424.382</ele>
        <time>2016-12-27T23:54:50Z</time>
      </trkpt>
      <trkpt lat="43.73307" lon="3.39049">
        <ele>424.368</ele>
        <time>2016-12-27T23:55:10Z</time>
      </trkpt>
      <trkpt lat="43.73525" lon="3.3861">
        <ele>440.077</ele>
        <time>2016-12-27T23:55:30Z</time>
      </trkpt>
      <trkpt lat="43.73581" lon="3.38475">
        <ele>438.174</ele>
        <time>2016-12-27T23:55:50Z</time>
      </trkpt>
      <trkpt lat="43.73638" lon="3.3839">
        <ele>432.135</ele>
        <time>2016-12-27T23:56:10Z</time>
      </trkpt>
      <trkpt lat="43.73688" lon="3.38296">
        <ele>430.044</ele>
        <time>2016-12-27T23:56:30Z</time>
      </trkpt>
      <trkpt lat="43.73761" lon="3.38231">
        <ele>424.335</ele>
        <time>2016-12-27T23:56:50Z</time>
      </trkpt>
      <trkpt lat="43.73778" lon="3.38156">
        <ele>420.749</ele>
        <time>2016-12-27T23:57:10Z</time>
      </trkpt>
      <trkpt lat="43.73828" lon="3.37946">
        <ele>424.402</ele>
        <time>2021-04-16T21:28:50Z</time>
      </trkpt>
      <trkpt lat="43.73849" lon="3.37909">
        <ele>419.422</ele>
        <time>2016-12-27T23:57:50Z</time>
      </trkpt>
      <trkpt lat="43.73849" lon="3.37855">
        <ele>421.608</ele>
        <time>2016-12-27T23:58:10Z</time>
      </trkpt>
      <trkpt lat="43.73839" lon="3.37849">
        <ele>421.411</ele>
        <time>2016-12-27T23:58:30Z</time>
      </trkpt>
      <trkpt lat="43.73834" lon="3.37849">
        <ele>420.934</ele>
        <time>2016-12-27T23:58:50Z</time>
      </trkpt>
      <trkpt lat="43.73803" lon="3.37884">
        <ele>418.05</ele>
        <time>2016-12-27T23:59:10Z</time>
      </trkpt>
      <trkpt lat="43.73733" lon="3.37914">
        <ele>418.999</ele>
        <time>2016-12-27T23:59:30Z</time>
      </trkpt>
      <trkpt lat="43.73662" lon="3.37913">
        <ele>412.586</ele>
        <time>2016-12-28T00:00:10Z</time>
      </trkpt>
      <trkpt lat="43.73637" lon="3.37885">
        <ele>417.397</ele>
        <time>2016-12-28T00:00:30Z</time>
      </trkpt>
      <trkpt lat="43.736" lon="3.37866">
        <ele>415.046</ele>
        <time>2016-12-28T00:00:50Z</time>
      </trkpt>
      <trkpt lat="43.73575" lon="3.37816">
        <ele>413.587</ele>
        <time>2016-12-28T00:01:10Z</time>
      </trkpt>
      <trkpt lat="43.73603" lon="3.37724">
        <ele>413.052</ele>
        <time>2016-12-28T00:01:30Z</time>
      </trkpt>
      <trkpt lat="43.73606" lon="3.37662">
        <ele>412.953</ele>
        <time>2016-12-28T00:01:50Z</time>
      </trkpt>
      <trkpt lat="43.73524" lon="3.37538">
        <ele>418.808</ele>
        <time>2016-12-28T00:02:10Z</time>
      </trkpt>
      <trkpt lat="43.73516" lon="3.37501">
        <ele>422.908</ele>
        <time>2016-12-28T00:02:30Z</time>
      </trkpt>
      <trkpt lat="43.73472" lon="3.37448">
        <ele>426.742</ele>
        <time>2016-12-28T00:02:50Z</time>
      </trkpt>
      <trkpt lat="43.73483" lon="3.37405">
        <ele>430.045</ele>
        <time>2016-12-28T00:04:10Z</time>
      </trkpt>
      <trkpt lat="43.73481" lon="3.37381">
        <ele>430.081</ele>
        <time>2016-12-28T00:04:30Z</time>
      </trkpt>
      <trkpt lat="43.73513" lon="3.3736">
        <ele>430.09</ele>
        <time>2016-12-28T00:04:50Z</time>
      </trkpt>
      <trkpt lat="43.73534" lon="3.37296">
        <ele>429.017</ele>
        <time>2016-12-28T00:05:10Z</time>
      </trkpt>
      <trkpt lat="43.73437" lon="3.37071">
        <ele>425.088</ele>
        <time>2016-12-28T00:05:30Z</time>
      </trkpt>
      <trkpt lat="43.73507" lon="3.37125">
        <ele>422.227</ele>
        <time>2016-12-28T00:05:50Z</time>
      </trkpt>
      <trkpt lat="43.73637" lon="3.37208">
        <ele>410.328</ele>
        <time>2016-12-28T00:06:10Z</time>
      </trkpt>
      <trkpt lat="43.73674" lon="3.37164">
        <ele>403.987</ele>
        <time>2016-12-28T00:06:30Z</time>
      </trkpt>
      <trkpt lat="43.73793" lon="3.37122">
        <ele>397.142</ele>
        <time>2016-12-28T00:06:50Z</time>
      </trkpt>
      <trkpt lat="43.73838" lon="3.37094">
        <ele>400.326</ele>
        <time>2016-12-28T00:07:10Z</time>
      </trkpt>
      <trkpt lat="43.73834" lon="3.37079">
        <ele>401.408</ele>
        <time>2016-12-28T00:07:30Z</time>
      </trkpt>
      <trkpt lat="43.73784" lon="3.37064">
        <ele>400.215</ele>
        <time>2016-12-28T00:07:50Z</time>
      </trkpt>
      <trkpt lat="43.73723" lon="3.37008">
        <ele>402.798</ele>
        <time>2016-12-28T00:08:10Z</time>
      </trkpt>
      <trkpt lat="43.73705" lon="3.36887">
        <ele>411.544</ele>
        <time>2016-12-28T00:08:30Z</time>
      </trkpt>
      <trkpt lat="43.73679" lon="3.36834">
        <ele>409.163</ele>
        <time>2016-12-28T00:08:50Z</time>
      </trkpt>
      <trkpt lat="43.73683" lon="3.36807">
        <ele>409.43</ele>
        <time>2016-12-28T00:09:10Z</time>
      </trkpt>
      <trkpt lat="43.73769" lon="3.36736">
        <ele>408.531</ele>
        <time>2016-12-28T00:09:30Z</time>
      </trkpt>
      <trkpt lat="43.73735" lon="3.36662">
        <ele>407.72</ele>
        <time>2016-12-28T00:09:50Z</time>
      </trkpt>
      <trkpt lat="43.73719" lon="3.36573">
        <ele>411.711</ele>
        <time>2016-12-28T00:10:10Z</time>
      </trkpt>
      <trkpt lat="43.73668" lon="3.36418">
        <ele>410.091</ele>
        <time>2016-12-28T00:10:30Z</time>
      </trkpt>
      <trkpt lat="43.73718" lon="3.36336">
        <ele>405.781</ele>
        <time>2016-12-28T00:10:50Z</time>
      </trkpt>
      <trkpt lat="43.73802" lon="3.36253">
        <ele>399.919</ele>
        <time>2016-12-28T00:11:10Z</time>
      </trkpt>
      <trkpt lat="43.73846" lon="3.36262">
        <ele>402.308</ele>
        <time>2016-12-28T00:11:30Z</time>
      </trkpt>
      <trkpt lat="43.73849" lon="3.36239">
        <ele>404.146</ele>
        <time>2016-12-28T00:11:50Z</time>
      </trkpt>
      <trkpt lat="43.73745" lon="3.36096">
        <ele>408.049</ele>
        <time>2016-12-28T00:12:10Z</time>
      </trkpt>
      <trkpt lat="43.73713" lon="3.35984">
        <ele>404.135</ele>
        <time>2016-12-28T00:12:30Z</time>
      </trkpt>
      <trkpt lat="43.73686" lon="3.35949">
        <ele>400.064</ele>
        <time>2021-04-16T21:42:50Z</time>
      </trkpt>
      <trkpt lat="43.73689" lon="3.35856">
        <ele>399.771</ele>
        <time>2016-12-28T00:13:10Z</time>
      </trkpt>
      <trkpt lat="43.73666" lon="3.35836">
        <ele>400.622</ele>
        <time>2016-12-28T00:13:30Z</time>
      </trkpt>
      <trkpt lat="43.73624" lon="3.35871">
        <ele>402.571</ele>
        <time>2016-12-28T00:13:50Z</time>
      </trkpt>
      <trkpt lat="43.73593" lon="3.35848">
        <ele>409.412</ele>
        <time>2016-12-28T00:14:10Z</time>
      </trkpt>
      <trkpt lat="43.73546" lon="3.35845">
        <ele>414.344</ele>
        <time>2016-12-28T00:14:30Z</time>
      </trkpt>
      <trkpt lat="43.73519" lon="3.35813">
        <ele>415.705</ele>
        <time>2016-12-28T00:14:50Z</time>
      </trkpt>
      <trkpt lat="43.73479" lon="3.35716">
        <ele>417.115</ele>
        <time>2016-12-28T00:15:10Z</time>
      </trkpt>
      <trkpt lat="43.73428" lon="3.35644">
        <ele>418.408</ele>
        <time>2016-12-28T00:15:30Z</time>
      </trkpt>
      <trkpt lat="43.73401" lon="3.35558">
        <ele>421.341</ele>
        <time>2016-12-28T00:15:50Z</time>
      </trkpt>
      <trkpt lat="43.73342" lon="3.35534">
        <ele>419.494</ele>
        <time>2016-12-28T00:16:10Z</time>
      </trkpt>
      <trkpt lat="43.73299" lon="3.35503">
        <ele>419.25</ele>
        <time>2016-12-28T00:16:30Z</time>
      </trkpt>
      <trkpt lat="43.73226" lon="3.35536">
        <ele>425.569</ele>
        <time>2016-12-28T00:16:50Z</time>
      </trkpt>
      <trkpt lat="43.73172" lon="3.35515">
        <ele>424.346</ele>
        <time>2016-12-28T00:53:10Z</time>
      </trkpt>
      <trkpt lat="43.73021" lon="3.35421">
        <ele>420.857</ele>
        <time>2016-12-28T00:53:30Z</time>
      </trkpt>
      <trkpt lat="43.73004" lon="3.35425">
        <ele>420.736</ele>
        <time>2016-12-28T00:53:50Z</time>
      </trkpt>
      <trkpt lat="43.72962" lon="3.35367">
        <ele>422.377</ele>
        <time>2021-04-16T21:48:10Z</time>
      </trkpt>
      <trkpt lat="43.72955" lon="3.35265">
        <ele>427.511</ele>
        <time>2021-04-16T21:48:30Z</time>
      </trkpt>
      <trkpt lat="43.7294" lon="3.35242">
        <ele>430.021</ele>
        <time>2016-12-28T00:55:10Z</time>
      </trkpt>
      <trkpt lat="43.729" lon="3.35241">
        <ele>429.403</ele>
        <time>2016-12-28T00:55:30Z</time>
      </trkpt>
      <trkpt lat="43.72834" lon="3.35264">
        <ele>421.108</ele>
        <time>2016-12-28T00:55:50Z</time>
      </trkpt>
      <trkpt lat="43.72813" lon="3.35221">
        <ele>413.378</ele>
        <time>2016-12-28T00:56:10Z</time>
      </trkpt>
      <trkpt lat="43.72777" lon="3.35244">
        <ele>405.571</ele>
        <time>2016-12-28T00:56:30Z</time>
      </trkpt>
      <trkpt lat="43.7279" lon="3.35175">
        <ele>405.077</ele>
        <time>2016-12-28T00:56:50Z</time>
      </trkpt>
      <trkpt lat="43.72888" lon="3.35117">
        <ele>406.796</ele>
        <time>2016-12-28T00:57:10Z</time>
      </trkpt>
      <trkpt lat="43.72932" lon="3.3503">
        <ele>407.413</ele>
        <time>2016-12-28T00:57:30Z</time>
      </trkpt>
      <trkpt lat="43.72949" lon="3.34973">
        <ele>406.664</ele>
        <time>2016-12-28T00:57:50Z</time>
      </trkpt>
      <trkpt lat="43.73" lon="3.34866">
        <ele>411.433</ele>
        <time>2016-12-28T00:58:10Z</time>
      </trkpt>
      <trkpt lat="43.73045" lon="3.34811">
        <ele>414.754</ele>
        <time>2021-04-16T21:52:10Z</time>
      </trkpt>
      <trkpt lat="43.73065" lon="3.34745">
        <ele>415.642</ele>
        <time>2021-04-16T21:52:30Z</time>
      </trkpt>
      <trkpt lat="43.73068" lon="3.34659">
        <ele>413.822</ele>
        <time>2021-04-16T21:52:50Z</time>
      </trkpt>
      <trkpt lat="43.73113" lon="3.3454">
        <ele>418.514</ele>
        <time>2021-04-16T21:53:10Z</time>
      </trkpt>
      <trkpt lat="43.73125" lon="3.34413">
        <ele>422.108</ele>
        <time>2016-12-28T00:59:50Z</time>
      </trkpt>
      <trkpt lat="43.73094" lon="3.34374">
        <ele>421.511</ele>
        <time>2016-12-28T01:00:10Z</time>
      </trkpt>
      <trkpt lat="43.73046" lon="3.34253">
        <ele>421.264</ele>
        <time>2016-12-28T01:00:30Z</time>
      </trkpt>
      <trkpt lat="43.73021" lon="3.34129">
        <ele>420.74</ele>
        <time>2016-12-28T01:00:50Z</time>
      </trkpt>
      <trkpt lat="43.7301" lon="3.34021">
        <ele>420.019</ele>
        <time>2016-12-28T01:01:10Z</time>
      </trkpt>
      <trkpt lat="43.72944" lon="3.33919">
        <ele>420.076</ele>
        <time>2016-12-28T01:01:30Z</time>
      </trkpt>
      <trkpt lat="43.72846" lon="3.33791">
        <ele>419.787</ele>
        <time>2016-12-28T01:01:50Z</time>
      </trkpt>
      <trkpt lat="43.72809" lon="3.33776">
        <ele>415.636</ele>
        <time>2016-12-28T01:02:10Z</time>
      </trkpt>
      <trkpt lat="43.72757" lon="3.33709">
        <ele>412.047</ele>
        <time>2016-12-28T01:02:30Z</time>
      </trkpt>
      <trkpt lat="43.72703" lon="3.33701">
        <ele>411.382</ele>
        <time>2016-12-28T01:02:50Z</time>
      </trkpt>
      <trkpt lat="43.72563" lon="3.33636">
        <ele>420.043</ele>
        <time>2016-12-28T01:03:10Z</time>
      </trkpt>
      <trkpt lat="43.72494" lon="3.33609">
        <ele>414.117</ele>
        <time>2016-12-28T01:03:30Z</time>
      </trkpt>
      <trkpt lat="43.72404" lon="3.33545">
        <ele>398.308</ele>
        <time>2016-12-28T01:03:50Z</time>
      </trkpt>
      <trkpt lat="43.72334" lon="3.33457">
        <ele>379.945</ele>
        <time>2016-12-28T01:04:10Z</time>
      </trkpt>
      <trkpt lat="43.72214" lon="3.33404">
        <ele>375.738</ele>
        <time>2016-12-28T01:04:30Z</time>
      </trkpt>
      <trkpt lat="43.72154" lon="3.33384">
        <ele>374.314</ele>
        <time>2016-12-28T01:04:50Z</time>
      </trkpt>
      <trkpt lat="43.72094" lon="3.33316">
        <ele>370.863</ele>
        <time>2016-12-28T01:05:10Z</time>
      </trkpt>
      <trkpt lat="43.72068" lon="3.33265">
        <ele>369.56</ele>
        <time>2016-12-28T01:05:30Z</time>
      </trkpt>
      <trkpt lat="43.72025" lon="3.33213">
        <ele>365.951</ele>
        <time>2016-12-28T01:05:50Z</time>
      </trkpt>
      <trkpt lat="43.72057" lon="3.33173">
        <ele>365.24</ele>
        <time>2016-12-28T01:06:10Z</time>
      </trkpt>
      <trkpt lat="43.72052" lon="3.33134">
        <ele>361.591</ele>
        <time>2021-04-16T22:00:10Z</time>
      </trkpt>
      <trkpt lat="43.7207" lon="3.33079">
        <ele>356.567</ele>
        <time>2021-04-16T22:00:30Z</time>
      </trkpt>
      <trkpt lat="43.721" lon="3.33024">
        <ele>341.581</ele>
        <time>2021-04-16T22:00:50Z</time>
      </trkpt>
      <trkpt lat="43.72137" lon="3.33026">
        <ele>337.219</ele>
        <time>2016-12-28T01:07:30Z</time>
      </trkpt>
      <trkpt lat="43.72166" lon="3.33042">
        <ele>333.808</ele>
        <time>2016-12-28T01:07:50Z</time>
      </trkpt>
      <trkpt lat="43.72186" lon="3.33035">
        <ele>324.843</ele>
        <time>2016-12-28T01:08:10Z</time>
      </trkpt>
      <trkpt lat="43.72223" lon="3.33079">
        <ele>317.826</ele>
        <time>2021-04-16T22:02:10Z</time>
      </trkpt>
      <trkpt lat="43.72233" lon="3.33045">
        <ele>305.932</ele>
        <time>2016-12-28T01:08:50Z</time>
      </trkpt>
      <trkpt lat="43.72306" lon="3.33107">
        <ele>288.761</ele>
        <time>2016-12-28T01:09:10Z</time>
      </trkpt>
      <trkpt lat="43.72331" lon="3.33103">
        <ele>281.358</ele>
        <time>2016-12-28T01:09:30Z</time>
      </trkpt>
      <trkpt lat="43.72352" lon="3.33052">
        <ele>273.369</ele>
        <time>2016-12-28T01:09:50Z</time>
      </trkpt>
      <trkpt lat="43.72345" lon="3.32988">
        <ele>261.448</ele>
        <time>2016-12-28T01:10:10Z</time>
      </trkpt>
      <trkpt lat="43.72363" lon="3.32781">
        <ele>247.179</ele>
        <time>2016-12-28T01:10:30Z</time>
      </trkpt>
      <trkpt lat="43.72354" lon="3.32678">
        <ele>239.791</ele>
        <time>2016-12-28T01:10:50Z</time>
      </trkpt>
      <trkpt lat="43.72341" lon="3.32651">
        <ele>231.981</ele>
        <time>2016-12-28T01:11:10Z</time>
      </trkpt>
      <trkpt lat="43.7237" lon="3.32625">
        <ele>229.319</ele>
        <time>2016-12-28T01:11:30Z</time>
      </trkpt>
      <trkpt lat="43.72458" lon="3.32589">
        <ele>222.908</ele>
        <time>2016-12-28T01:11:50Z</time>
      </trkpt>
      <trkpt lat="43.72524" lon="3.32594">
        <ele>227.396</ele>
        <time>2016-12-28T01:12:10Z</time>
      </trkpt>
      <trkpt lat="43.72545" lon="3.32555">
        <ele>212.179</ele>
        <time>2016-12-28T01:12:30Z</time>
      </trkpt>
      <trkpt lat="43.72578" lon="3.32556">
        <ele>208.135</ele>
        <time>2016-12-28T01:12:50Z</time>
      </trkpt>
      <trkpt lat="43.72618" lon="3.3252">
        <ele>196.034</ele>
        <time>2016-12-28T01:13:10Z</time>
      </trkpt>
      <trkpt lat="43.72651" lon="3.32505">
        <ele>195.241</ele>
        <time>2016-12-28T01:13:30Z</time>
      </trkpt>
      <trkpt lat="43.7267" lon="3.32473">
        <ele>185.682</ele>
        <time>2016-12-28T01:13:50Z</time>
      </trkpt>
      <trkpt lat="43.72698" lon="3.32458">
        <ele>180.341</ele>
        <time>2016-12-28T01:14:10Z</time>
      </trkpt>
      <trkpt lat="43.72688" lon="3.32446">
        <ele>175.182</ele>
        <time>2016-12-28T01:14:30Z</time>
      </trkpt>
      <trkpt lat="43.72736" lon="3.32449">
        <ele>170.926</ele>
        <time>2016-12-28T01:14:50Z</time>
      </trkpt>
      <trkpt lat="43.72802" lon="3.32481">
        <ele>171.247</ele>
        <time>2016-12-28T01:15:10Z</time>
      </trkpt>
      <trkpt lat="43.72909" lon="3.32507">
        <ele>173.111</ele>
        <time>2021-04-16T22:09:10Z</time>
      </trkpt>
      <trkpt lat="43.72939" lon="3.3249">
        <ele>167.908</ele>
        <time>2021-04-16T22:09:30Z</time>
      </trkpt>
      <trkpt lat="43.72947" lon="3.32464">
        <ele>157.239</ele>
        <time>2016-12-28T01:16:10Z</time>
      </trkpt>
      <trkpt lat="43.73002" lon="3.32423">
        <ele>156.672</ele>
        <time>2016-12-28T01:16:30Z</time>
      </trkpt>
      <trkpt lat="43.73109" lon="3.32402">
        <ele>157.878</ele>
        <time>2016-12-28T01:16:50Z</time>
      </trkpt>
      <trkpt lat="43.73092" lon="3.32133">
        <ele>162.387</ele>
        <time>2016-12-28T01:17:10Z</time>
      </trkpt>
      <trkpt lat="43.731" lon="3.32089">
        <ele>163.194</ele>
        <time>2016-12-28T01:17:30Z</time>
      </trkpt>
      <trkpt lat="43.73097" lon="3.32043">
        <ele>171.425</ele>
        <time>2021-04-16T22:11:30Z</time>
      </trkpt>
      <trkpt lat="43.7313" lon="3.31927">
        <ele>168.254</ele>
        <time>2016-12-28T01:18:10Z</time>
      </trkpt>
      <trkpt lat="43.7301" lon="3.31853">
        <ele>160.725</ele>
        <time>2016-12-28T01:18:30Z</time>
      </trkpt>
      <trkpt lat="43.73003" lon="3.31791">
        <ele>161.029</ele>
        <time>2016-12-28T01:18:50Z</time>
      </trkpt>
      <trkpt lat="43.7296" lon="3.31734">
        <ele>169.1</ele>
        <time>2016-12-28T01:19:10Z</time>
      </trkpt>
      <trkpt lat="43.72944" lon="3.31611">
        <ele>169.02</ele>
        <time>2016-12-28T01:19:30Z</time>
      </trkpt>
      <trkpt lat="43.72955" lon="3.31465">
        <ele>172.408</ele>
        <time>2016-12-28T01:19:50Z</time>
      </trkpt>
      <trkpt lat="43.72986" lon="3.31347">
        <ele>173.379</ele>
        <time>2016-12-28T01:20:10Z</time>
      </trkpt>
      <trkpt lat="43.73016" lon="3.31239">
        <ele>174.652</ele>
        <time>2016-12-28T01:20:30Z</time>
      </trkpt>
      <trkpt lat="43.73018" lon="3.31148">
        <ele>186.418</ele>
        <time>2021-04-16T22:14:30Z</time>
      </trkpt>
      <trkpt lat="43.73011" lon="3.31048">
        <ele>187.687</ele>
        <time>2021-04-16T22:14:50Z</time>
      </trkpt>
      <trkpt lat="43.72984" lon="3.30948">
        <ele>194.054</ele>
        <time>2021-04-16T22:15:10Z</time>
      </trkpt>
      <trkpt lat="43.73" lon="3.30828">
        <ele>191.525</ele>
        <time>2021-04-16T22:15:30Z</time>
      </trkpt>
      <trkpt lat="43.72986" lon="3.30731">
        <ele>196.834</ele>
        <time>2016-12-28T01:22:10Z</time>
      </trkpt>
      <trkpt lat="43.73002" lon="3.30557">
        <ele>188.655</ele>
        <time>2016-12-28T01:22:30Z</time>
      </trkpt>
      <trkpt lat="43.72966" lon="3.30508">
        <ele>194.428</ele>
        <time>2016-12-28T01:22:50Z</time>
      </trkpt>
      <trkpt lat="43.72925" lon="3.3048">
        <ele>198.989</ele>
        <time>2016-12-28T01:23:10Z</time>
      </trkpt>
      <trkpt lat="43.72912" lon="3.30456">
        <ele>199.217</ele>
        <time>2016-12-28T01:23:30Z</time>
      </trkpt>
      <trkpt lat="43.72865" lon="3.30447">
        <ele>203.408</ele>
        <time>2016-12-28T01:23:50Z</time>
      </trkpt>
      <trkpt lat="43.72854" lon="3.30363">
        <ele>207.599</ele>
        <time>2016-12-28T01:24:10Z</time>
      </trkpt>
      <trkpt lat="43.72865" lon="3.30223">
        <ele>217.972</ele>
        <time>2016-12-28T01:24:30Z</time>
      </trkpt>
      <trkpt lat="43.72854" lon="3.30135">
        <ele>228.838</ele>
        <time>2016-12-28T01:24:50Z</time>
      </trkpt>
      <trkpt lat="43.72869" lon="3.30092">
        <ele>227.667</ele>
        <time>2016-12-28T01:25:10Z</time>
      </trkpt>
      <trkpt lat="43.72854" lon="3.30056">
        <ele>237.674</ele>
        <time>2016-12-28T01:25:30Z</time>
      </trkpt>
      <trkpt lat="43.72852" lon="3.30016">
        <ele>242.665</ele>
        <time>2016-12-28T01:25:50Z</time>
      </trkpt>
      <trkpt lat="43.72821" lon="3.30005">
        <ele>249.134</ele>
        <time>2016-12-28T01:26:10Z</time>
      </trkpt>
      <trkpt lat="43.72786" lon="3.30002">
        <ele>258.925</ele>
        <time>2016-12-28T01:26:30Z</time>
      </trkpt>
      <trkpt lat="43.72743" lon="3.29967">
        <ele>258.163</ele>
        <time>2016-12-28T01:26:50Z</time>
      </trkpt>
      <trkpt lat="43.72749" lon="3.29937">
        <ele>252.944</ele>
        <time>2016-12-28T01:27:10Z</time>
      </trkpt>
      <trkpt lat="43.72731" lon="3.29923">
        <ele>264.418</ele>
        <time>2016-12-28T01:27:30Z</time>
      </trkpt>
      <trkpt lat="43.72733" lon="3.29872">
        <ele>273.608</ele>
        <time>2016-12-28T01:27:50Z</time>
      </trkpt>
      <trkpt lat="43.72687" lon="3.29824">
        <ele>286.043</ele>
        <time>2016-12-28T01:28:10Z</time>
      </trkpt>
      <trkpt lat="43.72658" lon="3.29815">
        <ele>294.336</ele>
        <time>2016-12-28T01:28:30Z</time>
      </trkpt>
      <trkpt lat="43.72596" lon="3.29766">
        <ele>294.892</ele>
        <time>2016-12-28T01:28:50Z</time>
      </trkpt>
      <trkpt lat="43.72553" lon="3.29764">
        <ele>299.261</ele>
        <time>2016-12-28T01:29:10Z</time>
      </trkpt>
      <trkpt lat="43.72508" lon="3.29782">
        <ele>303.378</ele>
        <time>2016-12-28T01:29:30Z</time>
      </trkpt>
      <trkpt lat="43.72493" lon="3.29798">
        <ele>304.759</ele>
        <time>2016-12-28T01:29:50Z</time>
      </trkpt>
      <trkpt lat="43.72465" lon="3.29792">
        <ele>305.278</ele>
        <time>2016-12-28T01:30:10Z</time>
      </trkpt>
      <trkpt lat="43.72447" lon="3.29774">
        <ele>303.439</ele>
        <time>2016-12-28T01:30:30Z</time>
      </trkpt>
      <trkpt lat="43.7242" lon="3.29776">
        <ele>305.491</ele>
        <time>2016-12-28T01:30:50Z</time>
      </trkpt>
      <trkpt lat="43.72393" lon="3.29719">
        <ele>299.981</ele>
        <time>2016-12-28T01:31:10Z</time>
      </trkpt>
      <trkpt lat="43.72365" lon="3.29708">
        <ele>310.719</ele>
        <time>2016-12-28T01:31:30Z</time>
      </trkpt>
      <trkpt lat="43.72355" lon="3.29658">
        <ele>312.008</ele>
        <time>2016-12-28T01:31:50Z</time>
      </trkpt>
      <trkpt lat="43.72329" lon="3.29647">
        <ele>315.066</ele>
        <time>2016-12-28T01:32:10Z</time>
      </trkpt>
      <trkpt lat="43.72269" lon="3.29666">
        <ele>324.119</ele>
        <time>2016-12-28T01:32:30Z</time>
      </trkpt>
      <trkpt lat="43.72229" lon="3.29652">
        <ele>332.235</ele>
        <time>2016-12-28T01:32:50Z</time>
      </trkpt>
      <trkpt lat="43.72219" lon="3.29628">
        <ele>329.674</ele>
        <time>2016-12-28T01:33:10Z</time>
      </trkpt>
      <trkpt lat="43.72184" lon="3.29615">
        <ele>333.461</ele>
        <time>2016-12-28T01:33:30Z</time>
      </trkpt>
      <trkpt lat="43.72172" lon="3.29627">
        <ele>337.892</ele>
        <time>2016-12-28T01:33:50Z</time>
      </trkpt>
      <trkpt lat="43.72113" lon="3.29663">
        <ele>334.351</ele>
        <time>2016-12-28T01:34:10Z</time>
      </trkpt>
      <trkpt lat="43.72082" lon="3.29688">
        <ele>329.912</ele>
        <time>2016-12-28T01:34:30Z</time>
      </trkpt>
      <trkpt lat="43.72077" lon="3.29688">
        <ele>329.611</ele>
        <time>2016-12-28T01:34:50Z</time>
      </trkpt>
      <trkpt lat="43.72054" lon="3.29686">
        <ele>327.821</ele>
        <time>2016-12-28T01:35:10Z</time>
      </trkpt>
      <trkpt lat="43.72014" lon="3.29711">
        <ele>325.903</ele>
        <time>2016-12-28T01:35:30Z</time>
      </trkpt>
      <trkpt lat="43.71997" lon="3.29737">
        <ele>326.608</ele>
        <time>2016-12-28T01:35:50Z</time>
      </trkpt>
      <trkpt lat="43.71978" lon="3.29709">
        <ele>323.358</ele>
        <time>2016-12-28T01:36:10Z</time>
      </trkpt>
      <trkpt lat="43.71936" lon="3.29716">
        <ele>328.351</ele>
        <time>2016-12-28T01:36:30Z</time>
      </trkpt>
      <trkpt lat="43.71931" lon="3.29703">
        <ele>330.587</ele>
        <time>2016-12-28T01:36:50Z</time>
      </trkpt>
      <trkpt lat="43.7196" lon="3.2966">
        <ele>329.686</ele>
        <time>2016-12-28T01:37:10Z</time>
      </trkpt>
      <trkpt lat="43.7195" lon="3.29605">
        <ele>333.223</ele>
        <time>2016-12-28T01:37:30Z</time>
      </trkpt>
      <trkpt lat="43.71909" lon="3.29566">
        <ele>341.634</ele>
        <time>2016-12-28T01:37:50Z</time>
      </trkpt>
      <trkpt lat="43.71868" lon="3.29439">
        <ele>348.783</ele>
        <time>2016-12-28T01:38:10Z</time>
      </trkpt>
      <trkpt lat="43.71813" lon="3.29348">
        <ele>348.274</ele>
        <time>2016-12-28T01:38:30Z</time>
      </trkpt>
      <trkpt lat="43.71779" lon="3.29328">
        <ele>354.246</ele>
        <time>2016-12-28T01:38:50Z</time>
      </trkpt>
      <trkpt lat="43.71775" lon="3.29267">
        <ele>353.888</ele>
        <time>2016-12-28T01:39:10Z</time>
      </trkpt>
      <trkpt lat="43.71758" lon="3.29299">
        <ele>357.816</ele>
        <time>2016-12-28T01:39:30Z</time>
      </trkpt>
      <trkpt lat="43.71693" lon="3.29303">
        <ele>367.908</ele>
        <time>2016-12-28T01:39:50Z</time>
      </trkpt>
      <trkpt lat="43.71665" lon="3.2928">
        <ele>365.671</ele>
        <time>2016-12-28T01:40:10Z</time>
      </trkpt>
      <trkpt lat="43.7167" lon="3.29251">
        <ele>369.014</ele>
        <time>2016-12-28T01:40:30Z</time>
      </trkpt>
      <trkpt lat="43.71735" lon="3.29235">
        <ele>364.48</ele>
        <time>2016-12-28T01:40:50Z</time>
      </trkpt>
      <trkpt lat="43.71758" lon="3.29177">
        <ele>371.019</ele>
        <time>2016-12-28T01:41:10Z</time>
      </trkpt>
      <trkpt lat="43.71862" lon="3.29184">
        <ele>375.446</ele>
        <time>2016-12-28T01:41:30Z</time>
      </trkpt>
      <trkpt lat="43.7192" lon="3.29144">
        <ele>373.627</ele>
        <time>2016-12-28T01:41:50Z</time>
      </trkpt>
      <trkpt lat="43.71948" lon="3.29094">
        <ele>377.836</ele>
        <time>2016-12-28T01:42:10Z</time>
      </trkpt>
      <trkpt lat="43.71938" lon="3.29088">
        <ele>381.897</ele>
        <time>2016-12-28T01:42:30Z</time>
      </trkpt>
      <trkpt lat="43.71911" lon="3.29129">
        <ele>380.287</ele>
        <time>2016-12-28T01:42:50Z</time>
      </trkpt>
      <trkpt lat="43.71875" lon="3.29147">
        <ele>383.142</ele>
        <time>2016-12-28T01:43:10Z</time>
      </trkpt>
      <trkpt lat="43.7182" lon="3.29124">
        <ele>386.426</ele>
        <time>2016-12-28T01:43:30Z</time>
      </trkpt>
      <trkpt lat="43.718" lon="3.2905">
        <ele>393.408</ele>
        <time>2016-12-28T01:43:50Z</time>
      </trkpt>
      <trkpt lat="43.71772" lon="3.2904">
        <ele>395.185</ele>
        <time>2016-12-28T01:44:10Z</time>
      </trkpt>
      <trkpt lat="43.71689" lon="3.29086">
        <ele>401.658</ele>
        <time>2016-12-28T01:44:30Z</time>
      </trkpt>
      <trkpt lat="43.71656" lon="3.29043">
        <ele>405.744</ele>
        <time>2016-12-28T01:44:50Z</time>
      </trkpt>
      <trkpt lat="43.71652" lon="3.29">
        <ele>410.523</ele>
        <time>2016-12-28T01:45:10Z</time>
      </trkpt>
      <trkpt lat="43.71633" lon="3.2893">
        <ele>415.74</ele>
        <time>2016-12-28T01:45:30Z</time>
      </trkpt>
      <trkpt lat="43.71613" lon="3.28891">
        <ele>419.121</ele>
        <time>2016-12-28T01:45:50Z</time>
      </trkpt>
      <trkpt lat="43.71535" lon="3.28723">
        <ele>428.86</ele>
        <time>2016-12-28T01:46:10Z</time>
      </trkpt>
      <trkpt lat="43.71445" lon="3.28723">
        <ele>433.791</ele>
        <time>2016-12-28T01:46:30Z</time>
      </trkpt>
      <trkpt lat="43.71352" lon="3.28665">
        <ele>437.868</ele>
        <time>2016-12-28T01:46:50Z</time>
      </trkpt>
      <trkpt lat="43.71286" lon="3.28596">
        <ele>446.342</ele>
        <time>2016-12-28T01:47:10Z</time>
      </trkpt>
      <trkpt lat="43.71244" lon="3.28538">
        <ele>451.426</ele>
        <time>2016-12-28T01:47:30Z</time>
      </trkpt>
      <trkpt lat="43.71154" lon="3.28469">
        <ele>455.808</ele>
        <time>2016-12-28T01:47:50Z</time>
      </trkpt>
      <trkpt lat="43.71145" lon="3.28385">
        <ele>463.973</ele>
        <time>2016-12-28T01:48:10Z</time>
      </trkpt>
      <trkpt lat="43.71115" lon="3.28343">
        <ele>466.376</ele>
        <time>2016-12-28T01:48:30Z</time>
      </trkpt>
      <trkpt lat="43.71126" lon="3.28313">
        <ele>472.482</ele>
        <time>2016-12-28T01:48:50Z</time>
      </trkpt>
      <trkpt lat="43.71167" lon="3.28351">
        <ele>474.341</ele>
        <time>2016-12-28T01:49:10Z</time>
      </trkpt>
      <trkpt lat="43.71189" lon="3.28412">
        <ele>474.168</ele>
        <time>2016-12-28T01:49:30Z</time>
      </trkpt>
      <trkpt lat="43.71352" lon="3.2843">
        <ele>488.479</ele>
        <time>2016-12-28T01:49:50Z</time>
      </trkpt>
      <trkpt lat="43.7143" lon="3.28423">
        <ele>494.528</ele>
        <time>2016-12-28T01:50:10Z</time>
      </trkpt>
      <trkpt lat="43.71535" lon="3.28394">
        <ele>504.149</ele>
        <time>2016-12-28T01:50:30Z</time>
      </trkpt>
      <trkpt lat="43.71578" lon="3.28395">
        <ele>509.877</ele>
        <time>2016-12-28T01:50:50Z</time>
      </trkpt>
      <trkpt lat="43.71639" lon="3.28458">
        <ele>511.661</ele>
        <time>2016-12-28T01:51:10Z</time>
      </trkpt>
      <trkpt lat="43.71682" lon="3.28533">
        <ele>516.027</ele>
        <time>2016-12-28T01:59:50Z</time>
      </trkpt>
      <trkpt lat="43.7171" lon="3.28599">
        <ele>512.308</ele>
        <time>2016-12-28T02:00:10Z</time>
      </trkpt>
      <trkpt lat="43.71674" lon="3.28441">
        <ele>531.414</ele>
        <time>2016-12-28T02:00:30Z</time>
      </trkpt>
      <trkpt lat="43.71608" lon="3.28322">
        <ele>539.667</ele>
        <time>2016-12-28T02:00:50Z</time>
      </trkpt>
      <trkpt lat="43.71447" lon="3.28255">
        <ele>555.243</ele>
        <time>2016-12-28T02:01:10Z</time>
      </trkpt>
      <trkpt lat="43.71398" lon="3.28268">
        <ele>553.692</ele>
        <time>2016-12-28T02:01:30Z</time>
      </trkpt>
      <trkpt lat="43.71246" lon="3.28219">
        <ele>560.039</ele>
        <time>2016-12-28T02:01:50Z</time>
      </trkpt>
      <trkpt lat="43.71246" lon="3.28192">
        <ele>560.14</ele>
        <time>2016-12-28T02:02:10Z</time>
      </trkpt>
      <trkpt lat="43.71296" lon="3.28157">
        <ele>568.219</ele>
        <time>2016-12-28T02:02:30Z</time>
      </trkpt>
      <trkpt lat="43.71268" lon="3.28056">
        <ele>570.33</ele>
        <time>2016-12-28T02:02:50Z</time>
      </trkpt>
      <trkpt lat="43.71203" lon="3.27973">
        <ele>570.935</ele>
        <time>2016-12-28T02:03:10Z</time>
      </trkpt>
      <trkpt lat="43.7119" lon="3.27835">
        <ele>578.286</ele>
        <time>2016-12-28T02:03:30Z</time>
      </trkpt>
      <trkpt lat="43.71175" lon="3.27806">
        <ele>578.414</ele>
        <time>2016-12-28T02:03:50Z</time>
      </trkpt>
      <trkpt lat="43.71074" lon="3.27718">
        <ele>581.808</ele>
        <time>2016-12-28T02:04:10Z</time>
      </trkpt>
      <trkpt lat="43.71035" lon="3.27702">
        <ele>580.09</ele>
        <time>2016-12-28T02:04:30Z</time>
      </trkpt>
      <trkpt lat="43.71" lon="3.27644">
        <ele>582.373</ele>
        <time>2016-12-28T02:04:50Z</time>
      </trkpt>
      <trkpt lat="43.7087" lon="3.27551">
        <ele>585.149</ele>
        <time>2016-12-28T02:05:10Z</time>
      </trkpt>
      <trkpt lat="43.70902" lon="3.27381">
        <ele>591.278</ele>
        <time>2016-12-28T02:05:30Z</time>
      </trkpt>
      <trkpt lat="43.70891" lon="3.27261">
        <ele>590.075</ele>
        <time>2016-12-28T02:05:50Z</time>
      </trkpt>
      <trkpt lat="43.7095" lon="3.27109">
        <ele>594.266</ele>
        <time>2016-12-28T02:06:10Z</time>
      </trkpt>
      <trkpt lat="43.70956" lon="3.26939">
        <ele>597.795</ele>
        <time>2016-12-28T02:06:30Z</time>
      </trkpt>
      <trkpt lat="43.70969" lon="3.2684">
        <ele>599.936</ele>
        <time>2016-12-28T02:06:50Z</time>
      </trkpt>
      <trkpt lat="43.70945" lon="3.26801">
        <ele>599.791</ele>
        <time>2016-12-28T02:07:10Z</time>
      </trkpt>
      <trkpt lat="43.70777" lon="3.2682">
        <ele>608.081</ele>
        <time>2016-12-28T02:07:30Z</time>
      </trkpt>
      <trkpt lat="43.70742" lon="3.26789">
        <ele>609.519</ele>
        <time>2016-12-28T02:07:50Z</time>
      </trkpt>
      <trkpt lat="43.7071" lon="3.26725">
        <ele>612.208</ele>
        <time>2016-12-28T02:08:10Z</time>
      </trkpt>
      <trkpt lat="43.70659" lon="3.26671">
        <ele>610.426</ele>
        <time>2016-12-28T02:08:30Z</time>
      </trkpt>
      <trkpt lat="43.7065" lon="3.26619">
        <ele>615.689</ele>
        <time>2016-12-28T02:08:50Z</time>
      </trkpt>
      <trkpt lat="43.70618" lon="3.26574">
        <ele>621.715</ele>
        <time>2016-12-28T02:09:10Z</time>
      </trkpt>
      <trkpt lat="43.70538" lon="3.26557">
        <ele>622.544</ele>
        <time>2016-12-28T02:09:30Z</time>
      </trkpt>
      <trkpt lat="43.70502" lon="3.26483">
        <ele>626.381</ele>
        <time>2016-12-28T02:09:50Z</time>
      </trkpt>
      <trkpt lat="43.70407" lon="3.26136">
        <ele>634.562</ele>
        <time>2016-12-28T02:10:10Z</time>
      </trkpt>
      <trkpt lat="43.70523" lon="3.26217">
        <ele>643.121</ele>
        <time>2016-12-28T02:10:30Z</time>
      </trkpt>
      <trkpt lat="43.70562" lon="3.26268">
        <ele>650.712</ele>
        <time>2016-12-28T02:10:50Z</time>
      </trkpt>
      <trkpt lat="43.70593" lon="3.26262">
        <ele>655.739</ele>
        <time>2016-12-28T02:11:10Z</time>
      </trkpt>
      <trkpt lat="43.70685" lon="3.26284">
        <ele>664.701</ele>
        <time>2016-12-28T02:11:30Z</time>
      </trkpt>
      <trkpt lat="43.70755" lon="3.26288">
        <ele>669.521</ele>
        <time>2016-12-28T02:11:50Z</time>
      </trkpt>
      <trkpt lat="43.70874" lon="3.26195">
        <ele>669.508</ele>
        <time>2016-12-28T02:12:10Z</time>
      </trkpt>
      <trkpt lat="43.70984" lon="3.26152">
        <ele>668.15</ele>
        <time>2016-12-28T02:12:30Z</time>
      </trkpt>
      <trkpt lat="43.71066" lon="3.26156">
        <ele>668.093</ele>
        <time>2016-12-28T02:12:50Z</time>
      </trkpt>
      <trkpt lat="43.71095" lon="3.26143">
        <ele>669.939</ele>
        <time>2016-12-28T02:13:10Z</time>
      </trkpt>
      <trkpt lat="43.71127" lon="3.26102">
        <ele>673.038</ele>
        <time>2016-12-28T02:13:30Z</time>
      </trkpt>
      <trkpt lat="43.7119" lon="3.26061">
        <ele>679.495</ele>
        <time>2016-12-28T02:13:50Z</time>
      </trkpt>
      <trkpt lat="43.7123" lon="3.25972">
        <ele>679.466</ele>
        <time>2016-12-28T02:14:10Z</time>
      </trkpt>
      <trkpt lat="43.71252" lon="3.25936">
        <ele>678.665</ele>
        <time>2016-12-28T02:14:30Z</time>
      </trkpt>
      <trkpt lat="43.71307" lon="3.25824">
        <ele>672.746</ele>
        <time>2016-12-28T02:14:50Z</time>
      </trkpt>
      <trkpt lat="43.71383" lon="3.25768">
        <ele>657.894</ele>
        <time>2016-12-28T02:15:10Z</time>
      </trkpt>
      <trkpt lat="43.71376" lon="3.25705">
        <ele>655.657</ele>
        <time>2016-12-28T02:15:30Z</time>
      </trkpt>
      <trkpt lat="43.71386" lon="3.25645">
        <ele>649.322</ele>
        <time>2016-12-28T02:15:50Z</time>
      </trkpt>
      <trkpt lat="43.71445" lon="3.25503">
        <ele>642.408</ele>
        <time>2016-12-28T02:16:10Z</time>
      </trkpt>
      <trkpt lat="43.71502" lon="3.25474">
        <ele>631.616</ele>
        <time>2016-12-28T02:16:30Z</time>
      </trkpt>
      <trkpt lat="43.71535" lon="3.2542">
        <ele>628.929</ele>
        <time>2016-12-28T02:16:50Z</time>
      </trkpt>
      <trkpt lat="43.7155" lon="3.25332">
        <ele>627.365</ele>
        <time>2016-12-28T02:17:10Z</time>
      </trkpt>
      <trkpt lat="43.71581" lon="3.25258">
        <ele>628.864</ele>
        <time>2016-12-28T02:17:30Z</time>
      </trkpt>
      <trkpt lat="43.71632" lon="3.2522">
        <ele>631.011</ele>
        <time>2016-12-28T02:17:50Z</time>
      </trkpt>
      <trkpt lat="43.71692" lon="3.25234">
        <ele>634.282</ele>
        <time>2016-12-28T02:18:10Z</time>
      </trkpt>
      <trkpt lat="43.71747" lon="3.25276">
        <ele>635.931</ele>
        <time>2016-12-28T02:18:30Z</time>
      </trkpt>
      <trkpt lat="43.7181" lon="3.2529">
        <ele>633.962</ele>
        <time>2016-12-28T02:18:50Z</time>
      </trkpt>
      <trkpt lat="43.71841" lon="3.25316">
        <ele>629.684</ele>
        <time>2016-12-28T02:19:10Z</time>
      </trkpt>
      <trkpt lat="43.71864" lon="3.25317">
        <ele>624.707</ele>
        <time>2016-12-28T02:19:30Z</time>
      </trkpt>
      <trkpt lat="43.71911" lon="3.25377">
        <ele>619.217</ele>
        <time>2016-12-28T02:19:50Z</time>
      </trkpt>
      <trkpt lat="43.71948" lon="3.25358">
        <ele>614.308</ele>
        <time>2016-12-28T02:20:10Z</time>
      </trkpt>
      <trkpt lat="43.71956" lon="3.25319">
        <ele>609.115</ele>
        <time>2016-12-28T02:20:30Z</time>
      </trkpt>
      <trkpt lat="43.71945" lon="3.25282">
        <ele>607.348</ele>
        <time>2016-12-28T02:20:50Z</time>
      </trkpt>
      <trkpt lat="43.71956" lon="3.25278">
        <ele>605.054</ele>
        <time>2016-12-28T02:21:10Z</time>
      </trkpt>
      <trkpt lat="43.71981" lon="3.25277">
        <ele>601.213</ele>
        <time>2016-12-28T02:21:30Z</time>
      </trkpt>
      <trkpt lat="43.72026" lon="3.25247">
        <ele>595.34</ele>
        <time>2016-12-28T02:21:50Z</time>
      </trkpt>
      <trkpt lat="43.72075" lon="3.25185">
        <ele>586.341</ele>
        <time>2016-12-28T02:22:10Z</time>
      </trkpt>
      <trkpt lat="43.72116" lon="3.25177">
        <ele>583.41</ele>
        <time>2016-12-28T02:22:30Z</time>
      </trkpt>
      <trkpt lat="43.72165" lon="3.25225">
        <ele>581.221</ele>
        <time>2016-12-28T02:22:50Z</time>
      </trkpt>
      <trkpt lat="43.72237" lon="3.25259">
        <ele>574.377</ele>
        <time>2016-12-28T02:23:10Z</time>
      </trkpt>
      <trkpt lat="43.723" lon="3.25296">
        <ele>572.061</ele>
        <time>2016-12-28T02:23:30Z</time>
      </trkpt>
      <trkpt lat="43.72361" lon="3.25338">
        <ele>577.527</ele>
        <time>2016-12-28T02:23:50Z</time>
      </trkpt>
      <trkpt lat="43.72458" lon="3.25366">
        <ele>585.708</ele>
        <time>2016-12-28T02:24:10Z</time>
      </trkpt>
      <trkpt lat="43.72562" lon="3.25363">
        <ele>597.974</ele>
        <time>2016-12-28T02:24:30Z</time>
      </trkpt>
      <trkpt lat="43.72674" lon="3.25323">
        <ele>602.597</ele>
        <time>2016-12-28T02:24:50Z</time>
      </trkpt>
      <trkpt lat="43.72719" lon="3.25354">
        <ele>609.743</ele>
        <time>2016-12-28T02:25:10Z</time>
      </trkpt>
      <trkpt lat="43.72942" lon="3.25187">
        <ele>628.072</ele>
        <time>2016-12-28T02:25:30Z</time>
      </trkpt>
      <trkpt lat="43.73034" lon="3.25148">
        <ele>638.299</ele>
        <time>2016-12-28T02:25:50Z</time>
      </trkpt>
      <trkpt lat="43.73104" lon="3.25069">
        <ele>642.93</ele>
        <time>2016-12-28T02:26:10Z</time>
      </trkpt>
      <trkpt lat="43.73226" lon="3.25032">
        <ele>652.169</ele>
        <time>2016-12-28T02:40:50Z</time>
      </trkpt>
      <trkpt lat="43.73297" lon="3.24969">
        <ele>655.92</ele>
        <time>2016-12-28T02:41:10Z</time>
      </trkpt>
      <trkpt lat="43.73356" lon="3.24966">
        <ele>658.966</ele>
        <time>2016-12-28T02:41:30Z</time>
      </trkpt>
      <trkpt lat="43.73449" lon="3.25007">
        <ele>673.529</ele>
        <time>2016-12-28T02:41:50Z</time>
      </trkpt>
      <trkpt lat="43.73586" lon="3.24984">
        <ele>681.021</ele>
        <time>2016-12-28T02:42:10Z</time>
      </trkpt>
      <trkpt lat="43.73721" lon="3.24993">
        <ele>688.108</ele>
        <time>2016-12-28T02:42:30Z</time>
      </trkpt>
      <trkpt lat="43.73884" lon="3.24854">
        <ele>686.793</ele>
        <time>2016-12-28T02:42:50Z</time>
      </trkpt>
      <trkpt lat="43.73897" lon="3.24788">
        <ele>686.056</ele>
        <time>2016-12-28T02:43:10Z</time>
      </trkpt>
      <trkpt lat="43.73918" lon="3.24641">
        <ele>681.392</ele>
        <time>2016-12-28T02:43:30Z</time>
      </trkpt>
      <trkpt lat="43.7395" lon="3.24601">
        <ele>678.081</ele>
        <time>2016-12-28T02:43:50Z</time>
      </trkpt>
      <trkpt lat="43.7399" lon="3.24584">
        <ele>678.748</ele>
        <time>2016-12-28T02:44:10Z</time>
      </trkpt>
      <trkpt lat="43.74111" lon="3.24574">
        <ele>682.769</ele>
        <time>2016-12-28T02:44:30Z</time>
      </trkpt>
      <trkpt lat="43.74118" lon="3.24551">
        <ele>680.118</ele>
        <time>2016-12-28T02:44:50Z</time>
      </trkpt>
      <trkpt lat="43.73949" lon="3.24375">
        <ele>691.999</ele>
        <time>2016-12-28T02:45:10Z</time>
      </trkpt>
      <trkpt lat="43.73874" lon="3.24369">
        <ele>699.098</ele>
        <time>2016-12-28T02:45:30Z</time>
      </trkpt>
      <trkpt lat="43.73706" lon="3.24335">
        <ele>701.915</ele>
        <time>2016-12-28T02:45:50Z</time>
      </trkpt>
      <trkpt lat="43.73691" lon="3.243">
        <ele>702.326</ele>
        <time>2016-12-28T02:46:10Z</time>
      </trkpt>
      <trkpt lat="43.73739" lon="3.24119">
        <ele>696.108</ele>
        <time>2016-12-28T02:46:30Z</time>
      </trkpt>
      <trkpt lat="43.73766" lon="3.24094">
        <ele>699.036</ele>
        <time>2016-12-28T02:46:50Z</time>
      </trkpt>
      <trkpt lat="43.7376" lon="3.24071">
        <ele>698.439</ele>
        <time>2016-12-28T02:47:10Z</time>
      </trkpt>
      <trkpt lat="43.7371" lon="3.24029">
        <ele>685.925</ele>
        <time>2016-12-28T02:47:30Z</time>
      </trkpt>
      <trkpt lat="43.73669" lon="3.23861">
        <ele>679.614</ele>
        <time>2016-12-28T02:47:50Z</time>
      </trkpt>
      <trkpt lat="43.73624" lon="3.23802">
        <ele>667.941</ele>
        <time>2016-12-28T02:48:10Z</time>
      </trkpt>
      <trkpt lat="43.73636" lon="3.23686">
        <ele>663.992</ele>
        <time>2016-12-28T02:48:30Z</time>
      </trkpt>
      <trkpt lat="43.73666" lon="3.23572">
        <ele>663.671</ele>
        <time>2016-12-28T02:48:50Z</time>
      </trkpt>
      <trkpt lat="43.73665" lon="3.23476">
        <ele>658.062</ele>
        <time>2016-12-28T02:49:10Z</time>
      </trkpt>
      <trkpt lat="43.73642" lon="3.23426">
        <ele>648.677</ele>
        <time>2016-12-28T02:49:30Z</time>
      </trkpt>
      <trkpt lat="43.73656" lon="3.23382">
        <ele>651.261</ele>
        <time>2016-12-28T02:49:50Z</time>
      </trkpt>
      <trkpt lat="43.73644" lon="3.23249">
        <ele>643.027</ele>
        <time>2016-12-28T02:50:10Z</time>
      </trkpt>
      <trkpt lat="43.73611" lon="3.2316">
        <ele>632.808</ele>
        <time>2016-12-28T02:50:30Z</time>
      </trkpt>
      <trkpt lat="43.73618" lon="3.23091">
        <ele>633.334</ele>
        <time>2016-12-28T02:52:10Z</time>
      </trkpt>
      <trkpt lat="43.73607" lon="3.23101">
        <ele>629.187</ele>
        <time>2016-12-28T02:52:30Z</time>
      </trkpt>
      <trkpt lat="43.73585" lon="3.23169">
        <ele>624.563</ele>
        <time>2016-12-28T02:52:50Z</time>
      </trkpt>
      <trkpt lat="43.73555" lon="3.23215">
        <ele>618.022</ele>
        <time>2016-12-28T02:53:10Z</time>
      </trkpt>
      <trkpt lat="43.73484" lon="3.23126">
        <ele>608.529</ele>
        <time>2016-12-28T02:53:30Z</time>
      </trkpt>
      <trkpt lat="43.73462" lon="3.23073">
        <ele>606.98</ele>
        <time>2016-12-28T02:53:50Z</time>
      </trkpt>
      <trkpt lat="43.73457" lon="3.23027">
        <ele>603.959</ele>
        <time>2016-12-28T02:54:10Z</time>
      </trkpt>
      <trkpt lat="43.73507" lon="3.22963">
        <ele>600.85</ele>
        <time>2016-12-28T02:54:30Z</time>
      </trkpt>
      <trkpt lat="43.73556" lon="3.22832">
        <ele>594.981</ele>
        <time>2016-12-28T02:54:50Z</time>
      </trkpt>
      <trkpt lat="43.73626" lon="3.22771">
        <ele>596.061</ele>
        <time>2016-12-28T02:55:10Z</time>
      </trkpt>
      <trkpt lat="43.7364" lon="3.2266">
        <ele>589.917</ele>
        <time>2016-12-28T02:55:30Z</time>
      </trkpt>
      <trkpt lat="43.73649" lon="3.22587">
        <ele>578.808</ele>
        <time>2016-12-28T02:55:50Z</time>
      </trkpt>
      <trkpt lat="43.73777" lon="3.22606">
        <ele>570.715</ele>
        <time>2016-12-28T02:56:10Z</time>
      </trkpt>
      <trkpt lat="43.7394" lon="3.22893">
        <ele>546.578</ele>
        <time>2016-12-28T02:56:30Z</time>
      </trkpt>
      <trkpt lat="43.73957" lon="3.2298">
        <ele>546.384</ele>
        <time>2016-12-28T02:56:50Z</time>
      </trkpt>
      <trkpt lat="43.7399" lon="3.23045">
        <ele>536.423</ele>
        <time>2016-12-28T02:57:10Z</time>
      </trkpt>
      <trkpt lat="43.73975" lon="3.22982">
        <ele>535.77</ele>
        <time>2016-12-28T02:57:30Z</time>
      </trkpt>
      <trkpt lat="43.73972" lon="3.22881">
        <ele>521.121</ele>
        <time>2016-12-28T02:57:50Z</time>
      </trkpt>
      <trkpt lat="43.73958" lon="3.2283">
        <ele>518.28</ele>
        <time>2016-12-28T02:58:10Z</time>
      </trkpt>
      <trkpt lat="43.73939" lon="3.2279">
        <ele>515.561</ele>
        <time>2016-12-28T02:58:30Z</time>
      </trkpt>
      <trkpt lat="43.73908" lon="3.22683">
        <ele>506.362</ele>
        <time>2016-12-28T02:58:50Z</time>
      </trkpt>
      <trkpt lat="43.73851" lon="3.22462">
        <ele>490.783</ele>
        <time>2016-12-28T02:59:10Z</time>
      </trkpt>
      <trkpt lat="43.73793" lon="3.22418">
        <ele>486.211</ele>
        <time>2016-12-28T02:59:30Z</time>
      </trkpt>
      <trkpt lat="43.73741" lon="3.22421">
        <ele>492.508</ele>
        <time>2016-12-28T03:01:50Z</time>
      </trkpt>
      <trkpt lat="43.73665" lon="3.22383">
        <ele>479.113</ele>
        <time>2019-12-05T16:22:58Z</time>
      </trkpt>
      <trkpt lat="43.73699" lon="3.22376">
        <ele>470.896</ele>
        <time>2019-12-05T16:23:18Z</time>
      </trkpt>
      <trkpt lat="43.73742" lon="3.22392">
        <ele>474.882</ele>
        <time>2019-12-05T16:23:38Z</time>
      </trkpt>
      <trkpt lat="43.73793" lon="3.22377">
        <ele>462.281</ele>
        <time>2019-12-05T16:23:58Z</time>
      </trkpt>
      <trkpt lat="43.73879" lon="3.22393">
        <ele>451.628</ele>
        <time>2019-12-05T16:24:18Z</time>
      </trkpt>
      <trkpt lat="43.73944" lon="3.22502">
        <ele>441.119</ele>
        <time>2019-12-05T16:24:38Z</time>
      </trkpt>
      <trkpt lat="43.74003" lon="3.22631">
        <ele>439.218</ele>
        <time>2019-12-05T16:24:58Z</time>
      </trkpt>
      <trkpt lat="43.74124" lon="3.22805">
        <ele>425.379</ele>
        <time>2019-12-05T16:25:18Z</time>
      </trkpt>
      <trkpt lat="43.74128" lon="3.22829">
        <ele>429.018</ele>
        <time>2019-12-05T16:25:38Z</time>
      </trkpt>
      <trkpt lat="43.74151" lon="3.22828">
        <ele>421.898</ele>
        <time>2019-12-05T16:25:58Z</time>
      </trkpt>
      <trkpt lat="43.74225" lon="3.2288">
        <ele>416.417</ele>
        <time>2019-12-05T16:26:18Z</time>
      </trkpt>
      <trkpt lat="43.74268" lon="3.2289">
        <ele>413.108</ele>
        <time>2019-12-05T16:26:38Z</time>
      </trkpt>
      <trkpt lat="43.743" lon="3.2288">
        <ele>417.998</ele>
        <time>2019-12-05T16:26:58Z</time>
      </trkpt>
      <trkpt lat="43.74243" lon="3.22768">
        <ele>418.851</ele>
        <time>2019-12-05T16:27:18Z</time>
      </trkpt>
      <trkpt lat="43.74198" lon="3.22706">
        <ele>413.947</ele>
        <time>2019-12-05T16:27:38Z</time>
      </trkpt>
      <trkpt lat="43.74161" lon="3.22535">
        <ele>419.416</ele>
        <time>2019-12-05T16:27:58Z</time>
      </trkpt>
      <trkpt lat="43.74114" lon="3.22403">
        <ele>414.973</ele>
        <time>2019-12-05T16:28:18Z</time>
      </trkpt>
      <trkpt lat="43.74115" lon="3.22323">
        <ele>421.494</ele>
        <time>2019-12-05T16:28:38Z</time>
      </trkpt>
      <trkpt lat="43.74069" lon="3.2227">
        <ele>410.743</ele>
        <time>2019-12-05T16:28:58Z</time>
      </trkpt>
      <trkpt lat="43.74005" lon="3.22065">
        <ele>398.744</ele>
        <time>2019-12-05T16:29:18Z</time>
      </trkpt>
      <trkpt lat="43.73965" lon="3.21952">
        <ele>393.745</ele>
        <time>2019-12-05T16:29:38Z</time>
      </trkpt>
      <trkpt lat="43.73948" lon="3.21811">
        <ele>401.547</ele>
        <time>2019-12-05T16:29:58Z</time>
      </trkpt>
      <trkpt lat="43.73914" lon="3.21674">
        <ele>413.111</ele>
        <time>2019-12-05T16:30:18Z</time>
      </trkpt>
      <trkpt lat="43.73825" lon="3.21513">
        <ele>423.308</ele>
        <time>2021-04-16T23:37:30Z</time>
      </trkpt>
      <trkpt lat="43.73747" lon="3.21343">
        <ele>436.121</ele>
        <time>2019-12-05T16:30:38Z</time>
      </trkpt>
      <trkpt lat="43.73723" lon="3.21274">
        <ele>426.444</ele>
        <time>2019-12-05T16:30:58Z</time>
      </trkpt>
      <trkpt lat="43.7365" lon="3.21216">
        <ele>414.96</ele>
        <time>2019-12-05T16:31:18Z</time>
      </trkpt>
      <trkpt lat="43.73537" lon="3.2106">
        <ele>397.799</ele>
        <time>2019-12-05T16:31:38Z</time>
      </trkpt>
      <trkpt lat="43.73459" lon="3.20802">
        <ele>376.596</ele>
        <time>2019-12-05T16:31:58Z</time>
      </trkpt>
      <trkpt lat="43.73452" lon="3.20741">
        <ele>368.657</ele>
        <time>2019-12-05T16:32:18Z</time>
      </trkpt>
      <trkpt lat="43.73423" lon="3.20682">
        <ele>364.926</ele>
        <time>2019-12-05T16:32:38Z</time>
      </trkpt>
      <trkpt lat="43.73408" lon="3.20611">
        <ele>353.357</ele>
        <time>2019-12-05T16:32:58Z</time>
      </trkpt>
      <trkpt lat="43.7342" lon="3.20486">
        <ele>338.466</ele>
        <time>2019-12-05T16:33:18Z</time>
      </trkpt>
      <trkpt lat="43.73434" lon="3.20435">
        <ele>339.229</ele>
        <time>2019-12-05T16:33:38Z</time>
      </trkpt>
      <trkpt lat="43.73421" lon="3.20374">
        <ele>337.021</ele>
        <time>2019-12-05T16:33:58Z</time>
      </trkpt>
      <trkpt lat="43.73436" lon="3.20364">
        <ele>338.808</ele>
        <time>2019-12-05T16:34:18Z</time>
      </trkpt>
      <trkpt lat="43.73441" lon="3.20314">
        <ele>340.893</ele>
        <time>2019-12-05T16:34:38Z</time>
      </trkpt>
      <trkpt lat="43.7344" lon="3.2025">
        <ele>343.166</ele>
        <time>2019-12-05T16:34:58Z</time>
      </trkpt>
      <trkpt lat="43.73407" lon="3.20146">
        <ele>341.282</ele>
        <time>2019-12-05T16:35:18Z</time>
      </trkpt>
      <trkpt lat="43.73432" lon="3.20096">
        <ele>333.811</ele>
        <time>2019-12-05T16:35:38Z</time>
      </trkpt>
      <trkpt lat="43.73462" lon="3.20088">
        <ele>333.358</ele>
        <time>2019-12-05T16:35:58Z</time>
      </trkpt>
      <trkpt lat="43.7348" lon="3.19985">
        <ele>330.089</ele>
        <time>2019-12-05T16:36:18Z</time>
      </trkpt>
      <trkpt lat="43.73471" lon="3.19947">
        <ele>330.098</ele>
        <time>2019-12-05T16:36:38Z</time>
      </trkpt>
      <trkpt lat="43.73488" lon="3.19897">
        <ele>330.029</ele>
        <time>2019-12-05T16:36:58Z</time>
      </trkpt>
      <trkpt lat="43.73489" lon="3.19838">
        <ele>334.021</ele>
        <time>2019-12-05T16:37:18Z</time>
      </trkpt>
      <trkpt lat="43.73536" lon="3.19768">
        <ele>338.441</ele>
        <time>2019-12-05T16:37:38Z</time>
      </trkpt>
      <trkpt lat="43.73543" lon="3.19676">
        <ele>348.105</ele>
        <time>2019-12-05T16:37:58Z</time>
      </trkpt>
      <trkpt lat="43.73583" lon="3.19682">
        <ele>353.008</ele>
        <time>2019-12-05T16:38:18Z</time>
      </trkpt>
      <trkpt lat="43.73646" lon="3.19623">
        <ele>370.389</ele>
        <time>2019-12-05T16:38:38Z</time>
      </trkpt>
      <trkpt lat="43.73681" lon="3.19628">
        <ele>368.912</ele>
        <time>2019-12-05T16:38:58Z</time>
      </trkpt>
      <trkpt lat="43.73722" lon="3.19588">
        <ele>375.158</ele>
        <time>2019-12-05T16:39:18Z</time>
      </trkpt>
      <trkpt lat="43.73719" lon="3.19554">
        <ele>382.037</ele>
        <time>2019-12-05T16:39:38Z</time>
      </trkpt>
      <trkpt lat="43.73752" lon="3.19547">
        <ele>377.234</ele>
        <time>2021-04-16T23:47:10Z</time>
      </trkpt>
      <trkpt lat="43.73754" lon="3.19521">
        <ele>380.965</ele>
        <time>2021-04-16T23:47:30Z</time>
      </trkpt>
      <trkpt lat="43.73768" lon="3.19521">
        <ele>380.964</ele>
        <time>2021-04-16T23:47:50Z</time>
      </trkpt>
      <trkpt lat="43.73766" lon="3.19391">
        <ele>399.075</ele>
        <time>2021-04-16T23:48:10Z</time>
      </trkpt>
      <trkpt lat="43.73745" lon="3.19393">
        <ele>397.945</ele>
        <time>2021-04-16T23:48:30Z</time>
      </trkpt>
      <trkpt lat="43.73736" lon="3.19438">
        <ele>390.847</ele>
        <time>2021-04-16T23:48:50Z</time>
      </trkpt>
      <trkpt lat="43.73711" lon="3.19428">
        <ele>392.311</ele>
        <time>2021-04-16T23:49:10Z</time>
      </trkpt>
      <trkpt lat="43.73678" lon="3.19441">
        <ele>391.208</ele>
        <time>2021-04-16T23:49:30Z</time>
      </trkpt>
      <trkpt lat="43.73667" lon="3.19433">
        <ele>392.281</ele>
        <time>2021-04-16T23:49:50Z</time>
      </trkpt>
      <trkpt lat="43.73623" lon="3.19416">
        <ele>393.644</ele>
        <time>2021-04-16T23:50:10Z</time>
      </trkpt>
      <trkpt lat="43.73624" lon="3.19384">
        <ele>394.78</ele>
        <time>2019-12-05T16:40:58Z</time>
      </trkpt>
      <trkpt lat="43.73612" lon="3.19367">
        <ele>404.529</ele>
        <time>2021-04-16T23:50:50Z</time>
      </trkpt>
      <trkpt lat="43.73597" lon="3.1936">
        <ele>400.546</ele>
        <time>2019-12-05T16:41:18Z</time>
      </trkpt>
      <trkpt lat="43.73552" lon="3.19388">
        <ele>400.227</ele>
        <time>2021-04-16T23:51:30Z</time>
      </trkpt>
      <trkpt lat="43.73517" lon="3.19373">
        <ele>404.296</ele>
        <time>2021-04-16T23:51:50Z</time>
      </trkpt>
      <trkpt lat="43.73478" lon="3.19369">
        <ele>408.877</ele>
        <time>2021-04-16T23:52:10Z</time>
      </trkpt>
      <trkpt lat="43.73432" lon="3.19433">
        <ele>406.744</ele>
        <time>2019-12-05T16:42:18Z</time>
      </trkpt>
      <trkpt lat="43.73389" lon="3.19437">
        <ele>411.605</ele>
        <time>2021-04-16T23:52:50Z</time>
      </trkpt>
      <trkpt lat="43.73225" lon="3.19473">
        <ele>427.215</ele>
        <time>2019-12-05T16:42:38Z</time>
      </trkpt>
      <trkpt lat="43.73174" lon="3.19495">
        <ele>432.508</ele>
        <time>2019-12-05T16:42:58Z</time>
      </trkpt>
      <trkpt lat="43.73142" lon="3.19539">
        <ele>424.281</ele>
        <time>2019-12-05T16:43:18Z</time>
      </trkpt>
      <trkpt lat="43.73121" lon="3.19519">
        <ele>426.884</ele>
        <time>2019-12-05T16:43:38Z</time>
      </trkpt>
      <trkpt lat="43.73115" lon="3.19473">
        <ele>432.08</ele>
        <time>2019-12-05T16:43:58Z</time>
      </trkpt>
      <trkpt lat="43.73055" lon="3.19405">
        <ele>425.439</ele>
        <time>2019-12-05T16:44:18Z</time>
      </trkpt>
      <trkpt lat="43.73009" lon="3.1931">
        <ele>424.516</ele>
        <time>2019-12-05T16:44:38Z</time>
      </trkpt>
      <trkpt lat="43.72961" lon="3.19188">
        <ele>428.437</ele>
        <time>2019-12-05T16:44:58Z</time>
      </trkpt>
      <trkpt lat="43.72898" lon="3.19269">
        <ele>417.226</ele>
        <time>2019-12-05T16:45:18Z</time>
      </trkpt>
      <trkpt lat="43.72837" lon="3.19307">
        <ele>417.927</ele>
        <time>2019-12-05T16:45:38Z</time>
      </trkpt>
      <trkpt lat="43.7279" lon="3.1932">
        <ele>418.413</ele>
        <time>2019-12-05T16:45:58Z</time>
      </trkpt>
      <trkpt lat="43.72755" lon="3.19314">
        <ele>419.743</ele>
        <time>2019-12-05T16:46:18Z</time>
      </trkpt>
      <trkpt lat="43.72686" lon="3.1935">
        <ele>417.707</ele>
        <time>2019-12-05T16:46:38Z</time>
      </trkpt>
      <trkpt lat="43.7263" lon="3.19359">
        <ele>423.708</ele>
        <time>2019-12-05T16:46:58Z</time>
      </trkpt>
      <trkpt lat="43.72595" lon="3.19444">
        <ele>418.798</ele>
        <time>2019-12-05T16:47:18Z</time>
      </trkpt>
      <trkpt lat="43.7255" lon="3.19507">
        <ele>422.381</ele>
        <time>2019-12-05T16:47:38Z</time>
      </trkpt>
      <trkpt lat="43.72479" lon="3.19366">
        <ele>437.847</ele>
        <time>2019-12-05T16:47:58Z</time>
      </trkpt>
      <trkpt lat="43.72439" lon="3.19332">
        <ele>433.636</ele>
        <time>2019-12-05T16:48:18Z</time>
      </trkpt>
      <trkpt lat="43.72356" lon="3.19285">
        <ele>427.043</ele>
        <time>2019-12-05T16:48:38Z</time>
      </trkpt>
      <trkpt lat="43.72304" lon="3.19197">
        <ele>432.344</ele>
        <time>2019-12-05T16:48:58Z</time>
      </trkpt>
      <trkpt lat="43.72213" lon="3.19107">
        <ele>427.683</ele>
        <time>2019-12-05T16:49:18Z</time>
      </trkpt>
      <trkpt lat="43.72137" lon="3.19174">
        <ele>420.814</ele>
        <time>2019-12-05T16:49:38Z</time>
      </trkpt>
      <trkpt lat="43.72136" lon="3.19202">
        <ele>414.333</ele>
        <time>2019-12-05T16:49:58Z</time>
      </trkpt>
      <trkpt lat="43.72064" lon="3.19296">
        <ele>417.723</ele>
        <time>2021-04-17T00:00:50Z</time>
      </trkpt>
      <trkpt lat="43.71993" lon="3.19371">
        <ele>412.215</ele>
        <time>2019-12-05T16:50:18Z</time>
      </trkpt>
      <trkpt lat="43.71965" lon="3.19384">
        <ele>412.108</ele>
        <time>2019-12-05T16:50:38Z</time>
      </trkpt>
      <trkpt lat="43.71899" lon="3.19373">
        <ele>409.07</ele>
        <time>2019-12-05T16:50:58Z</time>
      </trkpt>
      <trkpt lat="43.71766" lon="3.19393">
        <ele>404.693</ele>
        <time>2019-12-05T16:51:18Z</time>
      </trkpt>
      <trkpt lat="43.71764" lon="3.19316">
        <ele>413.359</ele>
        <time>2019-12-05T16:51:38Z</time>
      </trkpt>
      <trkpt lat="43.71748" lon="3.19235">
        <ele>412.538</ele>
        <time>2019-12-05T16:51:58Z</time>
      </trkpt>
      <trkpt lat="43.71719" lon="3.19155">
        <ele>409.545</ele>
        <time>2019-12-05T16:52:18Z</time>
      </trkpt>
      <trkpt lat="43.71713" lon="3.19093">
        <ele>411.776</ele>
        <time>2019-12-05T16:52:38Z</time>
      </trkpt>
      <trkpt lat="43.71693" lon="3.19053">
        <ele>409.465</ele>
        <time>2019-12-05T16:52:58Z</time>
      </trkpt>
      <trkpt lat="43.71671" lon="3.19059">
        <ele>408.126</ele>
        <time>2019-12-05T16:53:18Z</time>
      </trkpt>
      <trkpt lat="43.71615" lon="3.19045">
        <ele>410.096</ele>
        <time>2019-12-05T16:53:38Z</time>
      </trkpt>
      <trkpt lat="43.7157" lon="3.19067">
        <ele>403.831</ele>
        <time>2019-12-05T16:53:58Z</time>
      </trkpt>
      <trkpt lat="43.71521" lon="3.19069">
        <ele>401.424</ele>
        <time>2019-12-05T16:54:18Z</time>
      </trkpt>
      <trkpt lat="43.71436" lon="3.19101">
        <ele>389.108</ele>
        <time>2019-12-05T16:54:38Z</time>
      </trkpt>
      <trkpt lat="43.71375" lon="3.19087">
        <ele>391.856</ele>
        <time>2019-12-05T16:54:58Z</time>
      </trkpt>
      <trkpt lat="43.71329" lon="3.19087">
        <ele>387.769</ele>
        <time>2019-12-05T16:55:18Z</time>
      </trkpt>
      <trkpt lat="43.7131" lon="3.19045">
        <ele>392.115</ele>
        <time>2019-12-05T16:55:38Z</time>
      </trkpt>
      <trkpt lat="43.7125" lon="3.19103">
        <ele>374.624</ele>
        <time>2019-12-05T16:55:58Z</time>
      </trkpt>
      <trkpt lat="43.71152" lon="3.19197">
        <ele>364.461</ele>
        <time>2019-12-05T16:56:18Z</time>
      </trkpt>
      <trkpt lat="43.71123" lon="3.19199">
        <ele>358.722</ele>
        <time>2019-12-05T16:56:38Z</time>
      </trkpt>
      <trkpt lat="43.71051" lon="3.19254">
        <ele>349.891</ele>
        <time>2019-12-05T16:56:58Z</time>
      </trkpt>
      <trkpt lat="43.70999" lon="3.19233">
        <ele>339.022</ele>
        <time>2019-12-05T16:57:18Z</time>
      </trkpt>
      <trkpt lat="43.70933" lon="3.19167">
        <ele>318.456</ele>
        <time>2019-12-05T16:57:38Z</time>
      </trkpt>
      <trkpt lat="43.70852" lon="3.19147">
        <ele>306.159</ele>
        <time>2019-12-05T16:57:58Z</time>
      </trkpt>
      <trkpt lat="43.70798" lon="3.19168">
        <ele>291.414</ele>
        <time>2021-04-17T00:09:10Z</time>
      </trkpt>
      <trkpt lat="43.70763" lon="3.19205">
        <ele>285.008</ele>
        <time>2021-04-17T00:09:30Z</time>
      </trkpt>
      <trkpt lat="43.70757" lon="3.19202">
        <ele>283.132</ele>
        <time>2021-04-17T00:09:50Z</time>
      </trkpt>
      <trkpt lat="43.70759" lon="3.19176">
        <ele>281.825</ele>
        <time>2021-04-17T00:10:10Z</time>
      </trkpt>
      <trkpt lat="43.70748" lon="3.19185">
        <ele>279.821</ele>
        <time>2021-04-17T00:10:30Z</time>
      </trkpt>
      <trkpt lat="43.7072" lon="3.19187">
        <ele>278.09</ele>
        <time>2021-04-17T00:10:50Z</time>
      </trkpt>
      <trkpt lat="43.70737" lon="3.1933">
        <ele>279.857</ele>
        <time>2019-12-05T16:58:58Z</time>
      </trkpt>
      <trkpt lat="43.70695" lon="3.1934">
        <ele>273.278</ele>
        <time>2019-12-05T16:59:18Z</time>
      </trkpt>
      <trkpt lat="43.70643" lon="3.19181">
        <ele>272.817</ele>
        <time>2019-12-05T16:59:38Z</time>
      </trkpt>
      <trkpt lat="43.70533" lon="3.18963">
        <ele>269.778</ele>
        <time>2019-12-05T16:59:58Z</time>
      </trkpt>
      <trkpt lat="43.7047" lon="3.18883">
        <ele>270.031</ele>
        <time>2019-12-05T17:00:18Z</time>
      </trkpt>
      <trkpt lat="43.70434" lon="3.18779">
        <ele>267.861</ele>
        <time>2019-12-05T17:00:38Z</time>
      </trkpt>
      <trkpt lat="43.70434" lon="3.18679">
        <ele>269.907</ele>
        <time>2019-12-05T17:00:58Z</time>
      </trkpt>
      <trkpt lat="43.70385" lon="3.18595">
        <ele>271.308</ele>
        <time>2019-12-05T17:01:18Z</time>
      </trkpt>
      <trkpt lat="43.70355" lon="3.18409">
        <ele>271.06</ele>
        <time>2019-12-05T17:01:38Z</time>
      </trkpt>
      <trkpt lat="43.70272" lon="3.18212">
        <ele>270.843</ele>
        <time>2019-12-05T17:01:58Z</time>
      </trkpt>
      <trkpt lat="43.70246" lon="3.17956">
        <ele>263.179</ele>
        <time>2019-12-05T17:02:18Z</time>
      </trkpt>
      <trkpt lat="43.70205" lon="3.17906">
        <ele>269.588</ele>
        <time>2019-12-05T17:02:38Z</time>
      </trkpt>
      <trkpt lat="43.70149" lon="3.17866">
        <ele>270.835</ele>
        <time>2019-12-05T17:02:58Z</time>
      </trkpt>
      <trkpt lat="43.70088" lon="3.17846">
        <ele>272.416</ele>
        <time>2019-12-05T17:03:18Z</time>
      </trkpt>
      <trkpt lat="43.70033" lon="3.17742">
        <ele>269.755</ele>
        <time>2019-12-05T17:03:38Z</time>
      </trkpt>
      <trkpt lat="43.69888" lon="3.1756">
        <ele>262.686</ele>
        <time>2019-12-05T17:03:58Z</time>
      </trkpt>
      <trkpt lat="43.69806" lon="3.17434">
        <ele>266.027</ele>
        <time>2019-12-05T17:04:18Z</time>
      </trkpt>
      <trkpt lat="43.69752" lon="3.17303">
        <ele>258.868</ele>
        <time>2019-12-05T17:04:38Z</time>
      </trkpt>
      <trkpt lat="43.69697" lon="3.17239">
        <ele>259.014</ele>
        <time>2019-12-05T17:04:58Z</time>
      </trkpt>
      <trkpt lat="43.69525" lon="3.17181">
        <ele>252.308</ele>
        <time>2021-04-17T00:17:30Z</time>
      </trkpt>
      <trkpt lat="43.69852" lon="3.16967">
        <ele>250.069</ele>
        <time>2019-12-05T17:05:38Z</time>
      </trkpt>
      <trkpt lat="43.69901" lon="3.16945">
        <ele>250.032</ele>
        <time>2019-12-05T17:05:58Z</time>
      </trkpt>
      <trkpt lat="43.6997" lon="3.16967">
        <ele>254.558</ele>
        <time>2019-12-05T17:06:18Z</time>
      </trkpt>
      <trkpt lat="43.69994" lon="3.16547">
        <ele>264.167</ele>
        <time>2019-12-05T17:06:38Z</time>
      </trkpt>
      <trkpt lat="43.70042" lon="3.16417">
        <ele>272.594</ele>
        <time>2021-04-17T00:19:10Z</time>
      </trkpt>
      <trkpt lat="43.70017" lon="3.16387">
        <ele>276.265</ele>
        <time>2019-12-05T17:07:18Z</time>
      </trkpt>
      <trkpt lat="43.69945" lon="3.16351">
        <ele>292.154</ele>
        <time>2019-12-05T17:07:38Z</time>
      </trkpt>
      <trkpt lat="43.69896" lon="3.1634">
        <ele>291.625</ele>
        <time>2019-12-05T17:07:58Z</time>
      </trkpt>
      <trkpt lat="43.69881" lon="3.16325">
        <ele>291.742</ele>
        <time>2019-12-05T17:08:18Z</time>
      </trkpt>
      <trkpt lat="43.69903" lon="3.16306">
        <ele>298.022</ele>
        <time>2019-12-05T17:08:38Z</time>
      </trkpt>
      <trkpt lat="43.69919" lon="3.16278">
        <ele>300.014</ele>
        <time>2019-12-05T17:08:58Z</time>
      </trkpt>
      <trkpt lat="43.69922" lon="3.16252">
        <ele>300.008</ele>
        <time>2019-12-05T17:09:18Z</time>
      </trkpt>
      <trkpt lat="43.69957" lon="3.1622">
        <ele>299.141</ele>
        <time>2019-12-05T17:09:38Z</time>
      </trkpt>
      <trkpt lat="43.69975" lon="3.16132">
        <ele>299.544</ele>
        <time>2019-12-05T17:09:58Z</time>
      </trkpt>
      <trkpt lat="43.70017" lon="3.1599">
        <ele>302.68</ele>
        <time>2019-12-05T17:10:18Z</time>
      </trkpt>
      <trkpt lat="43.70039" lon="3.15904">
        <ele>308.429</ele>
        <time>2019-12-05T17:10:38Z</time>
      </trkpt>
      <trkpt lat="43.70051" lon="3.15832">
        <ele>316.486</ele>
        <time>2019-12-05T17:10:58Z</time>
      </trkpt>
      <trkpt lat="43.70107" lon="3.15696">
        <ele>330.787</ele>
        <time>2019-12-05T17:11:18Z</time>
      </trkpt>
      <trkpt lat="43.70159" lon="3.15588">
        <ele>341.356</ele>
        <time>2019-12-05T17:11:38Z</time>
      </trkpt>
      <trkpt lat="43.70226" lon="3.15622">
        <ele>343.697</ele>
        <time>2019-12-05T17:11:58Z</time>
      </trkpt>
      <trkpt lat="43.70259" lon="3.15608">
        <ele>347.926</ele>
        <time>2019-12-05T17:12:18Z</time>
      </trkpt>
      <trkpt lat="43.70301" lon="3.1554">
        <ele>360.847</ele>
        <time>2019-12-05T17:12:38Z</time>
      </trkpt>
      <trkpt lat="43.70302" lon="3.1549">
        <ele>368.511</ele>
        <time>2019-12-05T17:12:58Z</time>
      </trkpt>
      <trkpt lat="43.70273" lon="3.15422">
        <ele>376.308</ele>
        <time>2019-12-05T17:13:18Z</time>
      </trkpt>
      <trkpt lat="43.70264" lon="3.15362">
        <ele>386.019</ele>
        <time>2019-12-05T17:13:38Z</time>
      </trkpt>
      <trkpt lat="43.70245" lon="3.15355">
        <ele>383.362</ele>
        <time>2019-12-05T17:13:58Z</time>
      </trkpt>
      <trkpt lat="43.70227" lon="3.15358">
        <ele>379.528</ele>
        <time>2019-12-05T17:14:18Z</time>
      </trkpt>
      <trkpt lat="43.70217" lon="3.15305">
        <ele>390.237</ele>
        <time>2021-04-17T00:26:50Z</time>
      </trkpt>
      <trkpt lat="43.70191" lon="3.15257">
        <ele>392.194</ele>
        <time>2019-12-05T17:14:58Z</time>
      </trkpt>
      <trkpt lat="43.702" lon="3.15225">
        <ele>404.165</ele>
        <time>2021-04-17T00:27:30Z</time>
      </trkpt>
      <trkpt lat="43.70201" lon="3.15175">
        <ele>409.834</ele>
        <time>2019-12-05T17:15:18Z</time>
      </trkpt>
      <trkpt lat="43.7017" lon="3.15137">
        <ele>417.895</ele>
        <time>2021-04-17T00:28:10Z</time>
      </trkpt>
      <trkpt lat="43.70156" lon="3.15135">
        <ele>416.791</ele>
        <time>2021-04-17T00:28:30Z</time>
      </trkpt>
      <trkpt lat="43.70124" lon="3.1509">
        <ele>423.481</ele>
        <time>2021-04-17T00:28:50Z</time>
      </trkpt>
      <trkpt lat="43.70107" lon="3.15072">
        <ele>425.219</ele>
        <time>2021-04-17T00:29:10Z</time>
      </trkpt>
      <trkpt lat="43.70067" lon="3.14969">
        <ele>435.308</ele>
        <time>2019-12-05T17:16:38Z</time>
      </trkpt>
      <trkpt lat="43.7003" lon="3.14955">
        <ele>436.566</ele>
        <time>2019-12-05T17:16:58Z</time>
      </trkpt>
      <trkpt lat="43.70022" lon="3.14942">
        <ele>439.359</ele>
        <time>2019-12-05T17:17:18Z</time>
      </trkpt>
      <trkpt lat="43.69993" lon="3.14931">
        <ele>439.825</ele>
        <time>2019-12-05T17:17:38Z</time>
      </trkpt>
      <trkpt lat="43.69966" lon="3.14897">
        <ele>447.044</ele>
        <time>2019-12-05T17:17:58Z</time>
      </trkpt>
      <trkpt lat="43.69936" lon="3.14897">
        <ele>452.991</ele>
        <time>2019-12-05T17:18:18Z</time>
      </trkpt>
      <trkpt lat="43.69926" lon="3.14882">
        <ele>457.892</ele>
        <time>2019-12-05T17:18:38Z</time>
      </trkpt>
      <trkpt lat="43.69918" lon="3.14886">
        <ele>459.271</ele>
        <time>2019-12-05T17:18:58Z</time>
      </trkpt>
      <trkpt lat="43.69888" lon="3.14705">
        <ele>496.362</ele>
        <time>2019-12-05T17:19:18Z</time>
      </trkpt>
      <trkpt lat="43.69843" lon="3.14656">
        <ele>511.129</ele>
        <time>2019-12-05T17:19:38Z</time>
      </trkpt>
      <trkpt lat="43.69795" lon="3.1463">
        <ele>520.2</ele>
        <time>2019-12-05T17:19:58Z</time>
      </trkpt>
      <trkpt lat="43.69816" lon="3.1443">
        <ele>550.82</ele>
        <time>2019-12-05T17:20:18Z</time>
      </trkpt>
      <trkpt lat="43.6983" lon="3.14233">
        <ele>577.608</ele>
        <time>2019-12-05T17:20:38Z</time>
      </trkpt>
      <trkpt lat="43.69819" lon="3.14159">
        <ele>581.569</ele>
        <time>2019-12-05T17:20:58Z</time>
      </trkpt>
      <trkpt lat="43.69716" lon="3.14149">
        <ele>595.932</ele>
        <time>2019-12-05T17:21:18Z</time>
      </trkpt>
      <trkpt lat="43.69695" lon="3.14126">
        <ele>600.788</ele>
        <time>2019-12-05T17:21:38Z</time>
      </trkpt>
      <trkpt lat="43.69684" lon="3.14035">
        <ele>611.467</ele>
        <time>2019-12-05T17:21:58Z</time>
      </trkpt>
      <trkpt lat="43.69692" lon="3.13999">
        <ele>622.084</ele>
        <time>2019-12-05T17:22:18Z</time>
      </trkpt>
      <trkpt lat="43.69677" lon="3.13965">
        <ele>626.155</ele>
        <time>2019-12-05T17:22:38Z</time>
      </trkpt>
      <trkpt lat="43.69619" lon="3.13982">
        <ele>619.544</ele>
        <time>2019-12-05T17:22:58Z</time>
      </trkpt>
      <trkpt lat="43.69567" lon="3.13973">
        <ele>616.515</ele>
        <time>2019-12-05T17:23:18Z</time>
      </trkpt>
      <trkpt lat="43.69521" lon="3.1391">
        <ele>613.938</ele>
        <time>2019-12-05T17:23:38Z</time>
      </trkpt>
      <trkpt lat="43.69417" lon="3.13897">
        <ele>622.07</ele>
        <time>2019-12-05T17:23:58Z</time>
      </trkpt>
      <trkpt lat="43.69415" lon="3.1387">
        <ele>627.017</ele>
        <time>2019-12-05T17:24:18Z</time>
      </trkpt>
      <trkpt lat="43.69401" lon="3.13849">
        <ele>625.108</ele>
        <time>2019-12-05T17:24:38Z</time>
      </trkpt>
      <trkpt lat="43.69442" lon="3.13753">
        <ele>634.86</ele>
        <time>2019-12-05T17:24:58Z</time>
      </trkpt>
      <trkpt lat="43.69457" lon="3.13664">
        <ele>641.973</ele>
        <time>2019-12-05T17:25:18Z</time>
      </trkpt>
      <trkpt lat="43.69455" lon="3.13449">
        <ele>653.159</ele>
        <time>2019-12-05T17:25:38Z</time>
      </trkpt>
      <trkpt lat="43.69373" lon="3.13337">
        <ele>657.758</ele>
        <time>2019-12-05T17:25:58Z</time>
      </trkpt>
      <trkpt lat="43.69473" lon="3.13197">
        <ele>667.845</ele>
        <time>2019-12-05T17:26:18Z</time>
      </trkpt>
      <trkpt lat="43.69525" lon="3.13157">
        <ele>673.776</ele>
        <time>2019-12-05T17:26:38Z</time>
      </trkpt>
      <trkpt lat="43.6964" lon="3.13265">
        <ele>674.665</ele>
        <time>2019-12-05T17:26:58Z</time>
      </trkpt>
      <trkpt lat="43.69764" lon="3.13319">
        <ele>666.196</ele>
        <time>2019-12-05T17:27:18Z</time>
      </trkpt>
      <trkpt lat="43.69856" lon="3.13453">
        <ele>663.466</ele>
        <time>2019-12-05T17:27:38Z</time>
      </trkpt>
      <trkpt lat="43.69913" lon="3.13408">
        <ele>648.029</ele>
        <time>2019-12-05T17:27:58Z</time>
      </trkpt>
      <trkpt lat="43.69953" lon="3.13415">
        <ele>655.321</ele>
        <time>2019-12-05T17:28:18Z</time>
      </trkpt>
      <trkpt lat="43.6996" lon="3.13361">
        <ele>650.608</ele>
        <time>2019-12-05T17:28:38Z</time>
      </trkpt>
      <trkpt lat="43.6996" lon="3.13298">
        <ele>645.323</ele>
        <time>2019-12-05T17:28:58Z</time>
      </trkpt>
      <trkpt lat="43.69981" lon="3.1324">
        <ele>643.526</ele>
        <time>2019-12-05T17:29:18Z</time>
      </trkpt>
      <trkpt lat="43.70058" lon="3.13217">
        <ele>638.492</ele>
        <time>2021-04-17T00:42:30Z</time>
      </trkpt>
      <trkpt lat="43.70141" lon="3.13236">
        <ele>637.271</ele>
        <time>2019-12-05T17:29:58Z</time>
      </trkpt>
      <trkpt lat="43.70193" lon="3.13198">
        <ele>636.428</ele>
        <time>2019-12-05T17:30:18Z</time>
      </trkpt>
      <trkpt lat="43.70198" lon="3.13109">
        <ele>633.519</ele>
        <time>2019-12-05T17:30:38Z</time>
      </trkpt>
      <trkpt lat="43.70168" lon="3.1308">
        <ele>629.948</ele>
        <time>2019-12-05T17:30:58Z</time>
      </trkpt>
      <trkpt lat="43.70116" lon="3.12997">
        <ele>629.949</ele>
        <time>2019-12-05T17:31:18Z</time>
      </trkpt>
      <trkpt lat="43.7002" lon="3.12933">
        <ele>620.842</ele>
        <time>2019-12-05T17:31:38Z</time>
      </trkpt>
      <trkpt lat="43.70008" lon="3.12901">
        <ele>617.422</ele>
        <time>2021-04-17T00:44:50Z</time>
      </trkpt>
      <trkpt lat="43.70015" lon="3.1279">
        <ele>616.314</ele>
        <time>2021-04-17T00:45:10Z</time>
      </trkpt>
      <trkpt lat="43.70029" lon="3.12724">
        <ele>614.508</ele>
        <time>2019-12-05T17:32:18Z</time>
      </trkpt>
      <trkpt lat="43.69969" lon="3.12629">
        <ele>607.441</ele>
        <time>2019-12-05T17:32:38Z</time>
      </trkpt>
      <trkpt lat="43.69975" lon="3.12587">
        <ele>606.144</ele>
        <time>2019-12-05T17:32:58Z</time>
      </trkpt>
      <trkpt lat="43.70016" lon="3.12539">
        <ele>606.71</ele>
        <time>2021-04-17T00:46:30Z</time>
      </trkpt>
      <trkpt lat="43.70108" lon="3.12486">
        <ele>598.649</ele>
        <time>2019-12-05T17:33:38Z</time>
      </trkpt>
      <trkpt lat="43.70159" lon="3.12496">
        <ele>603.466</ele>
        <time>2019-12-05T17:33:58Z</time>
      </trkpt>
      <trkpt lat="43.70203" lon="3.12395">
        <ele>596.177</ele>
        <time>2019-12-05T17:34:18Z</time>
      </trkpt>
      <trkpt lat="43.70308" lon="3.12207">
        <ele>596.676</ele>
        <time>2019-12-05T17:34:38Z</time>
      </trkpt>
      <trkpt lat="43.70336" lon="3.12142">
        <ele>598.897</ele>
        <time>2019-12-05T17:34:58Z</time>
      </trkpt>
      <trkpt lat="43.70382" lon="3.12117">
        <ele>595.957</ele>
        <time>2019-12-05T17:35:18Z</time>
      </trkpt>
      <trkpt lat="43.70396" lon="3.12056">
        <ele>603.7</ele>
        <time>2019-12-05T17:35:38Z</time>
      </trkpt>
      <trkpt lat="43.70454" lon="3.11985">
        <ele>605.52</ele>
        <time>2019-12-05T17:35:58Z</time>
      </trkpt>
      <trkpt lat="43.70503" lon="3.11977">
        <ele>604.508</ele>
        <time>2019-12-05T17:36:18Z</time>
      </trkpt>
      <trkpt lat="43.706" lon="3.11886">
        <ele>608.592</ele>
        <time>2019-12-05T17:36:38Z</time>
      </trkpt>
      <trkpt lat="43.70615" lon="3.11834">
        <ele>631.395</ele>
        <time>2021-04-17T00:50:10Z</time>
      </trkpt>
      <trkpt lat="43.70668" lon="3.11828">
        <ele>627.531</ele>
        <time>2021-04-17T00:50:30Z</time>
      </trkpt>
      <trkpt lat="43.70749" lon="3.11877">
        <ele>613.03</ele>
        <time>2021-04-17T00:50:50Z</time>
      </trkpt>
      <trkpt lat="43.7077" lon="3.11872">
        <ele>609.177</ele>
        <time>2021-04-17T00:51:10Z</time>
      </trkpt>
      <trkpt lat="43.70783" lon="3.11765">
        <ele>616.268</ele>
        <time>2019-12-05T17:38:18Z</time>
      </trkpt>
      <trkpt lat="43.70737" lon="3.11718">
        <ele>617.287</ele>
        <time>2019-12-05T17:38:38Z</time>
      </trkpt>
      <trkpt lat="43.70689" lon="3.11696">
        <ele>620.298</ele>
        <time>2019-12-05T17:38:58Z</time>
      </trkpt>
      <trkpt lat="43.70651" lon="3.11617">
        <ele>620.544</ele>
        <time>2019-12-05T17:39:18Z</time>
      </trkpt>
      <trkpt lat="43.70677" lon="3.11519">
        <ele>615.005</ele>
        <time>2019-12-05T17:39:38Z</time>
      </trkpt>
      <trkpt lat="43.70604" lon="3.11467">
        <ele>622.015</ele>
        <time>2019-12-05T17:39:58Z</time>
      </trkpt>
      <trkpt lat="43.70554" lon="3.11418">
        <ele>625.508</ele>
        <time>2019-12-05T17:40:18Z</time>
      </trkpt>
      <trkpt lat="43.70502" lon="3.11397">
        <ele>627.891</ele>
        <time>2019-12-05T17:40:38Z</time>
      </trkpt>
      <trkpt lat="43.70501" lon="3.11356">
        <ele>629.314</ele>
        <time>2019-12-05T17:40:58Z</time>
      </trkpt>
      <trkpt lat="43.70581" lon="3.11249">
        <ele>629.74</ele>
        <time>2019-12-05T17:41:18Z</time>
      </trkpt>
      <trkpt lat="43.70601" lon="3.11119">
        <ele>638.219</ele>
        <time>2019-12-05T17:41:38Z</time>
      </trkpt>
      <trkpt lat="43.70631" lon="3.1102">
        <ele>642.186</ele>
        <time>2019-12-05T17:41:58Z</time>
      </trkpt>
      <trkpt lat="43.7067" lon="3.10984">
        <ele>640.617</ele>
        <time>2019-12-05T17:42:18Z</time>
      </trkpt>
      <trkpt lat="43.70682" lon="3.10951">
        <ele>648.586</ele>
        <time>2019-12-05T17:42:38Z</time>
      </trkpt>
      <trkpt lat="43.70742" lon="3.10944">
        <ele>647.117</ele>
        <time>2019-12-05T17:42:58Z</time>
      </trkpt>
      <trkpt lat="43.7081" lon="3.10921">
        <ele>649.223</ele>
        <time>2021-04-17T00:56:30Z</time>
      </trkpt>
      <trkpt lat="43.70817" lon="3.1087">
        <ele>650.583</ele>
        <time>2019-12-05T17:43:38Z</time>
      </trkpt>
      <trkpt lat="43.70793" lon="3.10796">
        <ele>655.211</ele>
        <time>2019-12-05T17:43:58Z</time>
      </trkpt>
      <trkpt lat="43.70745" lon="3.10758">
        <ele>667.908</ele>
        <time>2019-12-05T17:44:18Z</time>
      </trkpt>
      <trkpt lat="43.70757" lon="3.10658">
        <ele>665.659</ele>
        <time>2019-12-05T17:44:38Z</time>
      </trkpt>
      <trkpt lat="43.7076" lon="3.10591">
        <ele>668.932</ele>
        <time>2019-12-05T17:44:58Z</time>
      </trkpt>
      <trkpt lat="43.70808" lon="3.10511">
        <ele>663.918</ele>
        <time>2019-12-05T17:45:18Z</time>
      </trkpt>
      <trkpt lat="43.70872" lon="3.10475">
        <ele>660.927</ele>
        <time>2019-12-05T17:45:38Z</time>
      </trkpt>
      <trkpt lat="43.70882" lon="3.10383">
        <ele>653.714</ele>
        <time>2019-12-05T17:45:58Z</time>
      </trkpt>
      <trkpt lat="43.70923" lon="3.10292">
        <ele>653.335</ele>
        <time>2019-12-05T17:46:18Z</time>
      </trkpt>
      <trkpt lat="43.7092" lon="3.10228">
        <ele>654.854</ele>
        <time>2019-12-05T17:46:38Z</time>
      </trkpt>
      <trkpt lat="43.7089" lon="3.10192">
        <ele>642.255</ele>
        <time>2019-12-05T17:46:58Z</time>
      </trkpt>
      <trkpt lat="43.70845" lon="3.1008">
        <ele>636.821</ele>
        <time>2019-12-05T17:47:18Z</time>
      </trkpt>
      <trkpt lat="43.70824" lon="3.0998">
        <ele>641.041</ele>
        <time>2019-12-05T17:47:38Z</time>
      </trkpt>
      <trkpt lat="43.70908" lon="3.09874">
        <ele>656.205</ele>
        <time>2019-12-05T17:47:58Z</time>
      </trkpt>
      <trkpt lat="43.70977" lon="3.09675">
        <ele>657.908</ele>
        <time>2019-12-05T17:48:18Z</time>
      </trkpt>
      <trkpt lat="43.71008" lon="3.09628">
        <ele>664.339</ele>
        <time>2019-12-05T17:48:38Z</time>
      </trkpt>
      <trkpt lat="43.71008" lon="3.09593">
        <ele>664.152</ele>
        <time>2019-12-05T17:48:58Z</time>
      </trkpt>
      <trkpt lat="43.70969" lon="3.09561">
        <ele>655.968</ele>
        <time>2019-12-05T17:49:18Z</time>
      </trkpt>
      <trkpt lat="43.7092" lon="3.09487">
        <ele>663.167</ele>
        <time>2019-12-05T17:49:38Z</time>
      </trkpt>
      <trkpt lat="43.70803" lon="3.09411">
        <ele>668.114</ele>
        <time>2019-12-05T17:49:58Z</time>
      </trkpt>
      <trkpt lat="43.70806" lon="3.0939">
        <ele>672.965</ele>
        <time>2019-12-05T17:50:18Z</time>
      </trkpt>
      <trkpt lat="43.70886" lon="3.09322">
        <ele>682.114</ele>
        <time>2019-12-05T17:50:38Z</time>
      </trkpt>
      <trkpt lat="43.70939" lon="3.09327">
        <ele>689.345</ele>
        <time>2019-12-05T17:50:58Z</time>
      </trkpt>
      <trkpt lat="43.71012" lon="3.09276">
        <ele>692.571</ele>
        <time>2019-12-05T17:51:18Z</time>
      </trkpt>
      <trkpt lat="43.71062" lon="3.0922">
        <ele>697.141</ele>
        <time>2019-12-05T17:51:38Z</time>
      </trkpt>
      <trkpt lat="43.71159" lon="3.09139">
        <ele>700.015</ele>
        <time>2019-12-05T17:51:58Z</time>
      </trkpt>
      <trkpt lat="43.7118" lon="3.09092">
        <ele>703.508</ele>
        <time>2019-12-05T17:52:18Z</time>
      </trkpt>
      <trkpt lat="43.71195" lon="3.09032">
        <ele>712.894</ele>
        <time>2019-12-05T17:52:38Z</time>
      </trkpt>
      <trkpt lat="43.7126" lon="3.08944">
        <ele>716.457</ele>
        <time>2019-12-05T17:52:58Z</time>
      </trkpt>
      <trkpt lat="43.71261" lon="3.08901">
        <ele>721.143</ele>
        <time>2019-12-05T17:53:18Z</time>
      </trkpt>
      <trkpt lat="43.71192" lon="3.08701">
        <ele>750.492</ele>
        <time>2019-12-05T17:53:38Z</time>
      </trkpt>
      <trkpt lat="43.71176" lon="3.08538">
        <ele>757.019</ele>
        <time>2019-12-05T17:53:58Z</time>
      </trkpt>
      <trkpt lat="43.71153" lon="3.08429">
        <ele>771.09</ele>
        <time>2019-12-05T17:54:18Z</time>
      </trkpt>
      <trkpt lat="43.71156" lon="3.083">
        <ele>781.869</ele>
        <time>2019-12-05T17:54:38Z</time>
      </trkpt>
      <trkpt lat="43.71145" lon="3.08209">
        <ele>787.01</ele>
        <time>2019-12-05T17:54:58Z</time>
      </trkpt>
      <trkpt lat="43.71158" lon="3.08167">
        <ele>788.225</ele>
        <time>2019-12-05T17:55:18Z</time>
      </trkpt>
      <trkpt lat="43.71164" lon="3.08125">
        <ele>803.426</ele>
        <time>2019-12-05T17:55:38Z</time>
      </trkpt>
      <trkpt lat="43.7124" lon="3.08026">
        <ele>811.208</ele>
        <time>2019-12-05T17:55:58Z</time>
      </trkpt>
      <trkpt lat="43.71226" lon="3.08021">
        <ele>816.208</ele>
        <time>2019-12-05T17:56:18Z</time>
      </trkpt>
      <trkpt lat="43.71152" lon="3.08091">
        <ele>816.879</ele>
        <time>2019-12-05T17:56:38Z</time>
      </trkpt>
      <trkpt lat="43.71097" lon="3.08204">
        <ele>822.052</ele>
        <time>2019-12-05T17:56:58Z</time>
      </trkpt>
      <trkpt lat="43.71079" lon="3.08345">
        <ele>818.948</ele>
        <time>2019-12-05T17:57:18Z</time>
      </trkpt>
      <trkpt lat="43.7104" lon="3.08399">
        <ele>820.687</ele>
        <time>2019-12-05T17:57:38Z</time>
      </trkpt>
      <trkpt lat="43.71032" lon="3.0839">
        <ele>823.314</ele>
        <time>2019-12-05T17:57:58Z</time>
      </trkpt>
      <trkpt lat="43.71064" lon="3.0835">
        <ele>824.485</ele>
        <time>2019-12-05T17:58:18Z</time>
      </trkpt>
      <trkpt lat="43.71064" lon="3.08184">
        <ele>841.324</ele>
        <time>2019-12-05T17:58:38Z</time>
      </trkpt>
      <trkpt lat="43.71094" lon="3.07996">
        <ele>861.765</ele>
        <time>2019-12-05T17:58:58Z</time>
      </trkpt>
      <trkpt lat="43.71154" lon="3.07935">
        <ele>859.654</ele>
        <time>2019-12-05T17:59:18Z</time>
      </trkpt>
      <trkpt lat="43.71092" lon="3.07924">
        <ele>860.356</ele>
        <time>2019-12-05T17:59:38Z</time>
      </trkpt>
      <trkpt lat="43.7104" lon="3.07896">
        <ele>858.011</ele>
        <time>2019-12-05T17:59:58Z</time>
      </trkpt>
      <trkpt lat="43.71004" lon="3.07844">
        <ele>852.908</ele>
        <time>2019-12-05T18:00:18Z</time>
      </trkpt>
      <trkpt lat="43.71004" lon="3.07773">
        <ele>843.972</ele>
        <time>2019-12-05T18:00:38Z</time>
      </trkpt>
      <trkpt lat="43.70945" lon="3.0775">
        <ele>845.045</ele>
        <time>2019-12-05T18:00:58Z</time>
      </trkpt>
      <trkpt lat="43.70895" lon="3.07771">
        <ele>841.031</ele>
        <time>2019-12-05T18:01:18Z</time>
      </trkpt>
      <trkpt lat="43.70846" lon="3.07744">
        <ele>833.57</ele>
        <time>2019-12-05T18:01:38Z</time>
      </trkpt>
      <trkpt lat="43.70802" lon="3.07746">
        <ele>837.347</ele>
        <time>2019-12-05T18:01:58Z</time>
      </trkpt>
      <trkpt lat="43.70751" lon="3.07723">
        <ele>839.888</ele>
        <time>2019-12-05T18:02:18Z</time>
      </trkpt>
      <trkpt lat="43.70731" lon="3.07631">
        <ele>844.347</ele>
        <time>2019-12-05T18:02:38Z</time>
      </trkpt>
      <trkpt lat="43.7073" lon="3.07498">
        <ele>850.328</ele>
        <time>2019-12-05T18:02:58Z</time>
      </trkpt>
      <trkpt lat="43.70726" lon="3.07387">
        <ele>858.365</ele>
        <time>2019-12-05T18:03:18Z</time>
      </trkpt>
      <trkpt lat="43.70707" lon="3.07316">
        <ele>864.568</ele>
        <time>2019-12-05T18:03:38Z</time>
      </trkpt>
      <trkpt lat="43.70683" lon="3.07256">
        <ele>871.914</ele>
        <time>2019-12-05T18:03:58Z</time>
      </trkpt>
      <trkpt lat="43.70691" lon="3.07211">
        <ele>875.808</ele>
        <time>2019-12-05T18:04:18Z</time>
      </trkpt>
      <trkpt lat="43.70765" lon="3.07117">
        <ele>885.833</ele>
        <time>2019-12-05T18:04:38Z</time>
      </trkpt>
      <trkpt lat="43.70852" lon="3.07081">
        <ele>894.536</ele>
        <time>2019-12-05T18:04:58Z</time>
      </trkpt>
      <trkpt lat="43.70875" lon="3.07039">
        <ele>897.262</ele>
        <time>2019-12-05T18:05:18Z</time>
      </trkpt>
      <trkpt lat="43.70915" lon="3.0692">
        <ele>908.531</ele>
        <time>2019-12-05T18:05:38Z</time>
      </trkpt>
      <trkpt lat="43.70994" lon="3.06832">
        <ele>917.528</ele>
        <time>2019-12-05T18:05:58Z</time>
      </trkpt>
      <trkpt lat="43.71026" lon="3.06731">
        <ele>926.859</ele>
        <time>2019-12-05T18:06:18Z</time>
      </trkpt>
      <trkpt lat="43.7107" lon="3.06646">
        <ele>930.898</ele>
        <time>2019-12-05T18:06:38Z</time>
      </trkpt>
      <trkpt lat="43.71089" lon="3.06528">
        <ele>947.219</ele>
        <time>2019-12-05T18:06:58Z</time>
      </trkpt>
      <trkpt lat="43.70993" lon="3.06503">
        <ele>942.921</ele>
        <time>2019-12-05T18:07:18Z</time>
      </trkpt>
      <trkpt lat="43.70963" lon="3.06529">
        <ele>944.541</ele>
        <time>2019-12-05T18:07:38Z</time>
      </trkpt>
      <trkpt lat="43.70912" lon="3.06683">
        <ele>943.805</ele>
        <time>2019-12-05T18:07:58Z</time>
      </trkpt>
      <trkpt lat="43.70842" lon="3.06796">
        <ele>939.508</ele>
        <time>2019-12-05T18:08:18Z</time>
      </trkpt>
      <trkpt lat="43.70786" lon="3.06827">
        <ele>937.269</ele>
        <time>2019-12-05T18:08:38Z</time>
      </trkpt>
      <trkpt lat="43.70676" lon="3.06808">
        <ele>928.822</ele>
        <time>2021-04-17T01:22:10Z</time>
      </trkpt>
      <trkpt lat="43.70603" lon="3.06746">
        <ele>919.028</ele>
        <time>2019-12-05T18:09:18Z</time>
      </trkpt>
      <trkpt lat="43.70592" lon="3.06702">
        <ele>917.367</ele>
        <time>2019-12-05T18:09:38Z</time>
      </trkpt>
      <trkpt lat="43.70524" lon="3.06589">
        <ele>918.874</ele>
        <time>2019-12-05T18:09:58Z</time>
      </trkpt>
      <trkpt lat="43.7048" lon="3.06584">
        <ele>919.965</ele>
        <time>2019-12-05T18:10:18Z</time>
      </trkpt>
      <trkpt lat="43.7043" lon="3.06507">
        <ele>924.974</ele>
        <time>2019-12-05T18:10:38Z</time>
      </trkpt>
      <trkpt lat="43.70435" lon="3.0644">
        <ele>925.845</ele>
        <time>2019-12-05T18:10:58Z</time>
      </trkpt>
      <trkpt lat="43.70425" lon="3.06354">
        <ele>928.953</ele>
        <time>2019-12-05T18:11:18Z</time>
      </trkpt>
      <trkpt lat="43.70412" lon="3.0629">
        <ele>938.604</ele>
        <time>2019-12-05T18:11:38Z</time>
      </trkpt>
      <trkpt lat="43.70435" lon="3.06265">
        <ele>930.614</ele>
        <time>2019-12-05T18:11:58Z</time>
      </trkpt>
      <trkpt lat="43.70461" lon="3.06215">
        <ele>935.508</ele>
        <time>2019-12-05T18:12:18Z</time>
      </trkpt>
      <trkpt lat="43.70498" lon="3.06189">
        <ele>930.082</ele>
        <time>2019-12-05T18:12:38Z</time>
      </trkpt>
      <trkpt lat="43.70509" lon="3.06115">
        <ele>932.575</ele>
        <time>2019-12-05T18:12:58Z</time>
      </trkpt>
      <trkpt lat="43.70497" lon="3.05911">
        <ele>924.191</ele>
        <time>2019-12-05T18:13:18Z</time>
      </trkpt>
      <trkpt lat="43.70475" lon="3.05862">
        <ele>920.75</ele>
        <time>2019-12-05T18:13:38Z</time>
      </trkpt>
      <trkpt lat="43.70417" lon="3.05869">
        <ele>922.447</ele>
        <time>2021-04-17T01:27:10Z</time>
      </trkpt>
      <trkpt lat="43.70366" lon="3.05859">
        <ele>921.368</ele>
        <time>2021-04-17T01:27:30Z</time>
      </trkpt>
      <trkpt lat="43.70232" lon="3.0576">
        <ele>903.077</ele>
        <time>2019-12-05T18:14:18Z</time>
      </trkpt>
      <trkpt lat="43.70115" lon="3.0605">
        <ele>928.088</ele>
        <time>2019-12-05T18:14:38Z</time>
      </trkpt>
      <trkpt lat="43.70001" lon="3.06027">
        <ele>926.732</ele>
        <time>2019-12-05T18:14:58Z</time>
      </trkpt>
      <trkpt lat="43.69921" lon="3.05985">
        <ele>932.292</ele>
        <time>2019-12-05T18:15:18Z</time>
      </trkpt>
      <trkpt lat="43.6986" lon="3.05925">
        <ele>927.711</ele>
        <time>2019-12-05T18:15:38Z</time>
      </trkpt>
      <trkpt lat="43.69794" lon="3.05903">
        <ele>916.608</ele>
        <time>2019-12-05T18:15:58Z</time>
      </trkpt>
      <trkpt lat="43.69723" lon="3.05969">
        <ele>910.58</ele>
        <time>2019-12-05T18:16:18Z</time>
      </trkpt>
      <trkpt lat="43.69672" lon="3.06058">
        <ele>909.183</ele>
        <time>2019-12-05T18:16:38Z</time>
      </trkpt>
      <trkpt lat="43.69587" lon="3.06089">
        <ele>905.239</ele>
        <time>2019-12-05T18:16:58Z</time>
      </trkpt>
      <trkpt lat="43.69472" lon="3.06046">
        <ele>906.388</ele>
        <time>2019-12-05T18:17:18Z</time>
      </trkpt>
      <trkpt lat="43.6937" lon="3.05988">
        <ele>916.075</ele>
        <time>2019-12-05T18:17:38Z</time>
      </trkpt>
      <trkpt lat="43.69369" lon="3.05952">
        <ele>913.996</ele>
        <time>2019-12-05T18:17:58Z</time>
      </trkpt>
      <trkpt lat="43.69409" lon="3.05842">
        <ele>915.765</ele>
        <time>2019-12-05T18:18:18Z</time>
      </trkpt>
      <trkpt lat="43.6945" lon="3.05818">
        <ele>909.936</ele>
        <time>2019-12-05T18:18:38Z</time>
      </trkpt>
      <trkpt lat="43.69511" lon="3.0572">
        <ele>902.039</ele>
        <time>2019-12-05T18:18:58Z</time>
      </trkpt>
      <trkpt lat="43.69532" lon="3.05617">
        <ele>896.501</ele>
        <time>2019-12-05T18:19:18Z</time>
      </trkpt>
      <trkpt lat="43.69518" lon="3.05465">
        <ele>892.921</ele>
        <time>2019-12-05T18:19:38Z</time>
      </trkpt>
      <trkpt lat="43.69521" lon="3.05409">
        <ele>889.608</ele>
        <time>2019-12-05T18:19:58Z</time>
      </trkpt>
      <trkpt lat="43.69541" lon="3.05317">
        <ele>889.84</ele>
        <time>2019-12-05T18:20:18Z</time>
      </trkpt>
      <trkpt lat="43.6957" lon="3.05215">
        <ele>881.083</ele>
        <time>2019-12-05T18:20:38Z</time>
      </trkpt>
      <trkpt lat="43.69571" lon="3.05159">
        <ele>871.989</ele>
        <time>2019-12-05T18:20:58Z</time>
      </trkpt>
      <trkpt lat="43.69648" lon="3.05015">
        <ele>858.188</ele>
        <time>2019-12-05T18:21:18Z</time>
      </trkpt>
      <trkpt lat="43.69632" lon="3.04905">
        <ele>853.045</ele>
        <time>2019-12-05T18:21:38Z</time>
      </trkpt>
      <trkpt lat="43.69663" lon="3.04883">
        <ele>855.166</ele>
        <time>2019-12-05T18:21:58Z</time>
      </trkpt>
      <trkpt lat="43.69703" lon="3.04748">
        <ele>844.665</ele>
        <time>2019-12-05T18:22:18Z</time>
      </trkpt>
      <trkpt lat="43.69725" lon="3.04574">
        <ele>838.746</ele>
        <time>2019-12-05T18:22:38Z</time>
      </trkpt>
      <trkpt lat="43.69713" lon="3.04478">
        <ele>835.343</ele>
        <time>2019-12-05T18:22:58Z</time>
      </trkpt>
      <trkpt lat="43.69654" lon="3.04378">
        <ele>831.664</ele>
        <time>2019-12-05T18:23:18Z</time>
      </trkpt>
      <trkpt lat="43.69589" lon="3.04372">
        <ele>829.91</ele>
        <time>2019-12-05T18:23:38Z</time>
      </trkpt>
      <trkpt lat="43.69508" lon="3.044">
        <ele>828.708</ele>
        <time>2019-12-05T18:23:58Z</time>
      </trkpt>
      <trkpt lat="43.69514" lon="3.04372">
        <ele>829.251</ele>
        <time>2019-12-05T18:24:18Z</time>
      </trkpt>
      <trkpt lat="43.69628" lon="3.0431">
        <ele>816.144</ele>
        <time>2019-12-05T18:24:38Z</time>
      </trkpt>
      <trkpt lat="43.69531" lon="3.0432">
        <ele>816.05</ele>
        <time>2019-12-05T18:24:58Z</time>
      </trkpt>
      <trkpt lat="43.69515" lon="3.0429">
        <ele>813.079</ele>
        <time>2019-12-05T18:25:18Z</time>
      </trkpt>
      <trkpt lat="43.69512" lon="3.0421">
        <ele>804.966</ele>
        <time>2019-12-05T18:25:38Z</time>
      </trkpt>
      <trkpt lat="43.69474" lon="3.04088">
        <ele>787.737</ele>
        <time>2019-12-05T18:25:58Z</time>
      </trkpt>
      <trkpt lat="43.69424" lon="3.04006">
        <ele>775.366</ele>
        <time>2019-12-05T18:26:18Z</time>
      </trkpt>
      <trkpt lat="43.69385" lon="3.0396">
        <ele>772.877</ele>
        <time>2019-12-05T18:26:38Z</time>
      </trkpt>
      <trkpt lat="43.69372" lon="3.03882">
        <ele>765.076</ele>
        <time>2019-12-05T18:26:58Z</time>
      </trkpt>
      <trkpt lat="43.69308" lon="3.03906">
        <ele>761.99</ele>
        <time>2019-12-05T18:27:18Z</time>
      </trkpt>
      <trkpt lat="43.693" lon="3.03903">
        <ele>759.019</ele>
        <time>2019-12-05T18:27:38Z</time>
      </trkpt>
      <trkpt lat="43.69217" lon="3.04025">
        <ele>743.708</ele>
        <time>2019-12-05T18:27:58Z</time>
      </trkpt>
      <trkpt lat="43.69217" lon="3.04056">
        <ele>744.574</ele>
        <time>2019-12-05T18:28:18Z</time>
      </trkpt>
      <trkpt lat="43.69233" lon="3.04111">
        <ele>751.227</ele>
        <time>2019-12-05T18:28:38Z</time>
      </trkpt>
      <trkpt lat="43.69159" lon="3.04163">
        <ele>742.733</ele>
        <time>2019-12-05T18:28:58Z</time>
      </trkpt>
      <trkpt lat="43.69068" lon="3.04161">
        <ele>727.232</ele>
        <time>2019-12-05T18:29:18Z</time>
      </trkpt>
      <trkpt lat="43.68994" lon="3.04141">
        <ele>714.949</ele>
        <time>2019-12-05T18:29:38Z</time>
      </trkpt>
      <trkpt lat="43.68867" lon="3.04181">
        <ele>713.46</ele>
        <time>2019-12-05T18:29:58Z</time>
      </trkpt>
      <trkpt lat="43.68824" lon="3.04224">
        <ele>710.059</ele>
        <time>2019-12-05T18:30:18Z</time>
      </trkpt>
      <trkpt lat="43.68819" lon="3.04279">
        <ele>707.49</ele>
        <time>2019-12-05T18:30:38Z</time>
      </trkpt>
      <trkpt lat="43.68826" lon="3.04344">
        <ele>702.359</ele>
        <time>2019-12-05T18:30:58Z</time>
      </trkpt>
      <trkpt lat="43.68787" lon="3.04231">
        <ele>694.303</ele>
        <time>2019-12-05T18:31:18Z</time>
      </trkpt>
      <trkpt lat="43.68802" lon="3.04158">
        <ele>688.123</ele>
        <time>2019-12-05T18:31:38Z</time>
      </trkpt>
      <trkpt lat="43.68871" lon="3.04106">
        <ele>682.308</ele>
        <time>2019-12-05T18:31:58Z</time>
      </trkpt>
      <trkpt lat="43.68903" lon="3.04093">
        <ele>681.692</ele>
        <time>2019-12-05T18:32:18Z</time>
      </trkpt>
      <trkpt lat="43.68865" lon="3.04092">
        <ele>675.925</ele>
        <time>2019-12-05T18:32:38Z</time>
      </trkpt>
      <trkpt lat="43.6878" lon="3.04112">
        <ele>666.861</ele>
        <time>2019-12-05T18:32:58Z</time>
      </trkpt>
      <trkpt lat="43.68733" lon="3.04154">
        <ele>657.64</ele>
        <time>2019-12-05T18:33:18Z</time>
      </trkpt>
      <trkpt lat="43.68707" lon="3.04234">
        <ele>651.237</ele>
        <time>2019-12-05T18:33:38Z</time>
      </trkpt>
      <trkpt lat="43.68713" lon="3.04146">
        <ele>645.918</ele>
        <time>2019-12-05T18:33:58Z</time>
      </trkpt>
      <trkpt lat="43.68729" lon="3.04102">
        <ele>642.547</ele>
        <time>2019-12-05T18:34:18Z</time>
      </trkpt>
      <trkpt lat="43.68698" lon="3.04137">
        <ele>636.298</ele>
        <time>2019-12-05T18:34:38Z</time>
      </trkpt>
      <trkpt lat="43.68681" lon="3.04188">
        <ele>635.665</ele>
        <time>2019-12-05T18:34:58Z</time>
      </trkpt>
      <trkpt lat="43.68657" lon="3.04217">
        <ele>630.468</ele>
        <time>2019-12-05T18:35:18Z</time>
      </trkpt>
      <trkpt lat="43.68618" lon="3.04217">
        <ele>622.914</ele>
        <time>2019-12-05T18:35:38Z</time>
      </trkpt>
      <trkpt lat="43.68615" lon="3.04237">
        <ele>623.408</ele>
        <time>2019-12-05T18:35:58Z</time>
      </trkpt>
      <trkpt lat="43.68641" lon="3.04275">
        <ele>625.043</ele>
        <time>2019-12-05T18:36:18Z</time>
      </trkpt>
      <trkpt lat="43.68613" lon="3.04264">
        <ele>618.096</ele>
        <time>2019-12-05T18:36:38Z</time>
      </trkpt>
      <trkpt lat="43.6858" lon="3.04228">
        <ele>612.532</ele>
        <time>2019-12-05T18:36:58Z</time>
      </trkpt>
      <trkpt lat="43.68515" lon="3.04216">
        <ele>600.981</ele>
        <time>2019-12-05T18:37:18Z</time>
      </trkpt>
      <trkpt lat="43.6847" lon="3.04146">
        <ele>596.468</ele>
        <time>2019-12-05T18:37:38Z</time>
      </trkpt>
      <trkpt lat="43.68425" lon="3.04036">
        <ele>583.499</ele>
        <time>2019-12-05T18:37:58Z</time>
      </trkpt>
      <trkpt lat="43.68366" lon="3.03983">
        <ele>575.248</ele>
        <time>2019-12-05T18:38:18Z</time>
      </trkpt>
      <trkpt lat="43.68328" lon="3.03963">
        <ele>571.859</ele>
        <time>2019-12-05T18:38:38Z</time>
      </trkpt>
      <trkpt lat="43.68291" lon="3.03844">
        <ele>559.924</ele>
        <time>2019-12-05T18:38:58Z</time>
      </trkpt>
      <trkpt lat="43.68227" lon="3.03757">
        <ele>554.804</ele>
        <time>2019-12-05T18:39:18Z</time>
      </trkpt>
      <trkpt lat="43.68195" lon="3.03674">
        <ele>544.214</ele>
        <time>2019-12-05T18:39:38Z</time>
      </trkpt>
      <trkpt lat="43.6816" lon="3.03622">
        <ele>535.308</ele>
        <time>2019-12-05T18:39:58Z</time>
      </trkpt>
      <trkpt lat="43.68114" lon="3.03628">
        <ele>530.049</ele>
        <time>2019-12-05T18:40:18Z</time>
      </trkpt>
      <trkpt lat="43.68002" lon="3.03565">
        <ele>504.532</ele>
        <time>2019-12-05T18:40:38Z</time>
      </trkpt>
      <trkpt lat="43.67984" lon="3.03531">
        <ele>500.958</ele>
        <time>2019-12-05T18:40:58Z</time>
      </trkpt>
      <trkpt lat="43.67953" lon="3.03488">
        <ele>488.587</ele>
        <time>2019-12-05T18:41:18Z</time>
      </trkpt>
      <trkpt lat="43.67952" lon="3.0342">
        <ele>481.364</ele>
        <time>2019-12-05T18:41:38Z</time>
      </trkpt>
      <trkpt lat="43.67965" lon="3.03369">
        <ele>469.865</ele>
        <time>2019-12-05T18:41:58Z</time>
      </trkpt>
      <trkpt lat="43.67888" lon="3.03441">
        <ele>452.434</ele>
        <time>2019-12-05T18:42:18Z</time>
      </trkpt>
      <trkpt lat="43.67888" lon="3.03395">
        <ele>443.115</ele>
        <time>2019-12-05T18:42:38Z</time>
      </trkpt>
      <trkpt lat="43.67927" lon="3.03293">
        <ele>431.699</ele>
        <time>2021-04-17T01:56:30Z</time>
      </trkpt>
      <trkpt lat="43.67983" lon="3.03278">
        <ele>431.207</ele>
        <time>2021-04-17T01:56:50Z</time>
      </trkpt>
      <trkpt lat="43.67945" lon="3.03268">
        <ele>426.627</ele>
        <time>2021-04-17T01:57:10Z</time>
      </trkpt>
      <trkpt lat="43.67906" lon="3.03278">
        <ele>425.708</ele>
        <time>2021-04-17T01:57:30Z</time>
      </trkpt>
      <trkpt lat="43.67888" lon="3.03288">
        <ele>423.596</ele>
        <time>2021-04-17T01:57:50Z</time>
      </trkpt>
      <trkpt lat="43.6787" lon="3.03281">
        <ele>418.719</ele>
        <time>2021-04-17T01:58:10Z</time>
      </trkpt>
      <trkpt lat="43.67848" lon="3.03312">
        <ele>413.045</ele>
        <time>2019-12-05T18:44:38Z</time>
      </trkpt>
      <trkpt lat="43.67819" lon="3.03335">
        <ele>409.584</ele>
        <time>2019-12-05T18:44:58Z</time>
      </trkpt>
      <trkpt lat="43.67789" lon="3.03331">
        <ele>403.961</ele>
        <time>2019-12-05T18:45:18Z</time>
      </trkpt>
      <trkpt lat="43.67754" lon="3.03339">
        <ele>401.892</ele>
        <time>2019-12-05T18:45:38Z</time>
      </trkpt>
      <trkpt lat="43.67711" lon="3.03326">
        <ele>401.021</ele>
        <time>2019-12-05T18:45:58Z</time>
      </trkpt>
      <trkpt lat="43.67645" lon="3.03359">
        <ele>405.332</ele>
        <time>2019-12-05T18:46:18Z</time>
      </trkpt>
      <trkpt lat="43.67577" lon="3.03389">
        <ele>406.556</ele>
        <time>2019-12-05T18:46:38Z</time>
      </trkpt>
      <trkpt lat="43.67448" lon="3.03413">
        <ele>419.859</ele>
        <time>2019-12-05T18:46:58Z</time>
      </trkpt>
      <trkpt lat="43.67352" lon="3.03448">
        <ele>420.014</ele>
        <time>2019-12-05T18:47:18Z</time>
      </trkpt>
      <trkpt lat="43.67302" lon="3.03404">
        <ele>420.808</ele>
        <time>2019-12-05T18:47:38Z</time>
      </trkpt>
      <trkpt lat="43.67234" lon="3.03409">
        <ele>410.142</ele>
        <time>2019-12-05T18:47:58Z</time>
      </trkpt>
      <trkpt lat="43.67212" lon="3.03361">
        <ele>412.565</ele>
        <time>2019-12-05T18:48:18Z</time>
      </trkpt>
      <trkpt lat="43.67135" lon="3.0329">
        <ele>407.891</ele>
        <time>2019-12-05T18:48:38Z</time>
      </trkpt>
      <trkpt lat="43.67068" lon="3.03332">
        <ele>414.49</ele>
        <time>2019-12-05T18:48:58Z</time>
      </trkpt>
      <trkpt lat="43.67041" lon="3.0339">
        <ele>418.197</ele>
        <time>2019-12-05T18:49:18Z</time>
      </trkpt>
      <trkpt lat="43.66995" lon="3.03434">
        <ele>427.288</ele>
        <time>2019-12-05T18:49:38Z</time>
      </trkpt>
      <trkpt lat="43.66949" lon="3.03404">
        <ele>430.467</ele>
        <time>2019-12-05T18:49:58Z</time>
      </trkpt>
      <trkpt lat="43.66909" lon="3.03428">
        <ele>428.918</ele>
        <time>2019-12-05T18:50:18Z</time>
      </trkpt>
      <trkpt lat="43.66876" lon="3.03425">
        <ele>435.623</ele>
        <time>2019-12-05T18:50:38Z</time>
      </trkpt>
      <trkpt lat="43.66823" lon="3.035">
        <ele>434.483</ele>
        <time>2019-12-05T18:50:58Z</time>
      </trkpt>
      <trkpt lat="43.66793" lon="3.0358">
        <ele>436.811</ele>
        <time>2019-12-05T18:51:18Z</time>
      </trkpt>
      <trkpt lat="43.66743" lon="3.03639">
        <ele>441.008</ele>
        <time>2019-12-05T18:51:38Z</time>
      </trkpt>
      <trkpt lat="43.66692" lon="3.03659">
        <ele>436.399</ele>
        <time>2019-12-05T18:51:58Z</time>
      </trkpt>
      <trkpt lat="43.66621" lon="3.03566">
        <ele>433.192</ele>
        <time>2019-12-05T18:52:18Z</time>
      </trkpt>
      <trkpt lat="43.66579" lon="3.03585">
        <ele>430.228</ele>
        <time>2019-12-05T18:52:38Z</time>
      </trkpt>
      <trkpt lat="43.66526" lon="3.03631">
        <ele>431.027</ele>
        <time>2019-12-05T18:52:58Z</time>
      </trkpt>
      <trkpt lat="43.66478" lon="3.03626">
        <ele>431.464</ele>
        <time>2019-12-05T18:53:18Z</time>
      </trkpt>
      <trkpt lat="43.6637" lon="3.0369">
        <ele>429.535</ele>
        <time>2019-12-05T18:53:38Z</time>
      </trkpt>
      <trkpt lat="43.66321" lon="3.03743">
        <ele>426.214</ele>
        <time>2019-12-05T18:53:58Z</time>
      </trkpt>
      <trkpt lat="43.66289" lon="3.03792">
        <ele>424.575</ele>
        <time>2019-12-05T18:54:18Z</time>
      </trkpt>
      <trkpt lat="43.66228" lon="3.03826">
        <ele>420.035</ele>
        <time>2019-12-05T18:54:38Z</time>
      </trkpt>
      <trkpt lat="43.66179" lon="3.03866">
        <ele>419.986</ele>
        <time>2019-12-05T18:54:58Z</time>
      </trkpt>
      <trkpt lat="43.66138" lon="3.03852">
        <ele>413.114</ele>
        <time>2019-12-05T18:55:18Z</time>
      </trkpt>
      <trkpt lat="43.66091" lon="3.03898">
        <ele>415.008</ele>
        <time>2019-12-05T18:55:38Z</time>
      </trkpt>
      <trkpt lat="43.66057" lon="3.03914">
        <ele>410.23</ele>
        <time>2019-12-05T18:55:58Z</time>
      </trkpt>
      <trkpt lat="43.66025" lon="3.0394">
        <ele>407.173</ele>
        <time>2019-12-05T18:56:18Z</time>
      </trkpt>
      <trkpt lat="43.65979" lon="3.03958">
        <ele>393.999</ele>
        <time>2019-12-05T18:56:38Z</time>
      </trkpt>
      <trkpt lat="43.65949" lon="3.03958">
        <ele>378.968</ele>
        <time>2019-12-05T18:56:58Z</time>
      </trkpt>
      <trkpt lat="43.6596" lon="3.03916">
        <ele>371.465</ele>
        <time>2019-12-05T18:57:18Z</time>
      </trkpt>
      <trkpt lat="43.6592" lon="3.03944">
        <ele>360.326</ele>
        <time>2019-12-05T18:57:38Z</time>
      </trkpt>
      <trkpt lat="43.65902" lon="3.0392">
        <ele>347.165</ele>
        <time>2019-12-05T18:57:58Z</time>
      </trkpt>
      <trkpt lat="43.65885" lon="3.0394">
        <ele>347.086</ele>
        <time>2019-12-05T18:58:18Z</time>
      </trkpt>
      <trkpt lat="43.65863" lon="3.03942">
        <ele>342.727</ele>
        <time>2019-12-05T18:58:38Z</time>
      </trkpt>
      <trkpt lat="43.65831" lon="3.03934">
        <ele>330.968</ele>
        <time>2019-12-05T18:58:58Z</time>
      </trkpt>
      <trkpt lat="43.65811" lon="3.03949">
        <ele>325.914</ele>
        <time>2019-12-05T18:59:18Z</time>
      </trkpt>
      <trkpt lat="43.65777" lon="3.03993">
        <ele>321.108</ele>
        <time>2019-12-05T18:59:38Z</time>
      </trkpt>
      <trkpt lat="43.65753" lon="3.04005">
        <ele>316.989</ele>
        <time>2019-12-05T18:59:58Z</time>
      </trkpt>
      <trkpt lat="43.65733" lon="3.0403">
        <ele>316.252</ele>
        <time>2019-12-05T19:00:18Z</time>
      </trkpt>
      <trkpt lat="43.65681" lon="3.03987">
        <ele>316.068</ele>
        <time>2019-12-05T19:00:38Z</time>
      </trkpt>
      <trkpt lat="43.65615" lon="3.0405">
        <ele>316.977</ele>
        <time>2019-12-05T19:00:58Z</time>
      </trkpt>
      <trkpt lat="43.65575" lon="3.04066">
        <ele>319.854</ele>
        <time>2019-12-05T19:01:18Z</time>
      </trkpt>
      <trkpt lat="43.65543" lon="3.04146">
        <ele>324.455</ele>
        <time>2019-12-05T19:01:38Z</time>
      </trkpt>
      <trkpt lat="43.65505" lon="3.0416">
        <ele>330.124</ele>
        <time>2019-12-05T19:01:58Z</time>
      </trkpt>
      <trkpt lat="43.6544" lon="3.04146">
        <ele>331.465</ele>
        <time>2019-12-05T19:02:18Z</time>
      </trkpt>
      <trkpt lat="43.6532" lon="3.04084">
        <ele>327.524</ele>
        <time>2019-12-05T19:02:38Z</time>
      </trkpt>
      <trkpt lat="43.65253" lon="3.0402">
        <ele>321.104</ele>
        <time>2019-12-05T19:02:58Z</time>
      </trkpt>
      <trkpt lat="43.65203" lon="3.03924">
        <ele>324.114</ele>
        <time>2019-12-05T19:03:18Z</time>
      </trkpt>
      <trkpt lat="43.65197" lon="3.03884">
        <ele>331.108</ele>
        <time>2019-12-05T19:03:38Z</time>
      </trkpt>
      <trkpt lat="43.65158" lon="3.03844">
        <ele>332.179</ele>
        <time>2019-12-05T19:03:58Z</time>
      </trkpt>
      <trkpt lat="43.65152" lon="3.03788">
        <ele>336.972</ele>
        <time>2019-12-05T19:04:18Z</time>
      </trkpt>
      <trkpt lat="43.65129" lon="3.03757">
        <ele>338.788</ele>
        <time>2019-12-05T19:04:38Z</time>
      </trkpt>
      <trkpt lat="43.651" lon="3.03741">
        <ele>339.277</ele>
        <time>2019-12-05T19:04:58Z</time>
      </trkpt>
      <trkpt lat="43.65051" lon="3.03697">
        <ele>343.364</ele>
        <time>2019-12-05T19:05:18Z</time>
      </trkpt>
      <trkpt lat="43.6504" lon="3.03673">
        <ele>344.835</ele>
        <time>2019-12-05T19:05:38Z</time>
      </trkpt>
      <trkpt lat="43.65004" lon="3.03511">
        <ele>358.694</ele>
        <time>2019-12-05T19:05:58Z</time>
      </trkpt>
      <trkpt lat="43.64985" lon="3.03475">
        <ele>366.085</ele>
        <time>2019-12-05T19:06:18Z</time>
      </trkpt>
      <trkpt lat="43.64977" lon="3.03375">
        <ele>381.755</ele>
        <time>2019-12-05T19:06:38Z</time>
      </trkpt>
      <trkpt lat="43.64962" lon="3.03331">
        <ele>386.507</ele>
        <time>2019-12-05T19:06:58Z</time>
      </trkpt>
      <trkpt lat="43.64975" lon="3.03289">
        <ele>391.917</ele>
        <time>2019-12-05T19:07:18Z</time>
      </trkpt>
      <trkpt lat="43.6498" lon="3.03263">
        <ele>395.308</ele>
        <time>2019-12-05T19:07:38Z</time>
      </trkpt>
      <trkpt lat="43.65007" lon="3.03267">
        <ele>398.352</ele>
        <time>2019-12-05T19:07:58Z</time>
      </trkpt>
      <trkpt lat="43.65101" lon="3.03209">
        <ele>409.175</ele>
        <time>2019-12-05T19:08:18Z</time>
      </trkpt>
      <trkpt lat="43.6513" lon="3.03179">
        <ele>413.841</ele>
        <time>2019-12-05T19:08:38Z</time>
      </trkpt>
      <trkpt lat="43.65171" lon="3.03093">
        <ele>425.94</ele>
        <time>2019-12-05T19:08:58Z</time>
      </trkpt>
      <trkpt lat="43.65179" lon="3.03097">
        <ele>426.057</ele>
        <time>2019-12-05T19:09:18Z</time>
      </trkpt>
      <trkpt lat="43.65191" lon="3.03147">
        <ele>423.758</ele>
        <time>2019-12-05T19:09:38Z</time>
      </trkpt>
      <trkpt lat="43.65191" lon="3.03201">
        <ele>425.257</ele>
        <time>2019-12-05T19:09:58Z</time>
      </trkpt>
      <trkpt lat="43.65207" lon="3.03269">
        <ele>427.588</ele>
        <time>2019-12-05T19:10:18Z</time>
      </trkpt>
      <trkpt lat="43.65224" lon="3.03267">
        <ele>429.579</ele>
        <time>2019-12-05T19:10:38Z</time>
      </trkpt>
      <trkpt lat="43.65266" lon="3.03239">
        <ele>432.305</ele>
        <time>2019-12-05T19:10:58Z</time>
      </trkpt>
      <trkpt lat="43.65313" lon="3.03175">
        <ele>437.525</ele>
        <time>2019-12-05T19:11:18Z</time>
      </trkpt>
      <trkpt lat="43.65382" lon="3.03039">
        <ele>443.708</ele>
        <time>2019-12-05T19:11:38Z</time>
      </trkpt>
      <trkpt lat="43.65397" lon="3.03001">
        <ele>447.354</ele>
        <time>2019-12-05T19:11:58Z</time>
      </trkpt>
      <trkpt lat="43.6544" lon="3.02929">
        <ele>450.047</ele>
        <time>2019-12-05T19:12:18Z</time>
      </trkpt>
      <trkpt lat="43.65462" lon="3.02903">
        <ele>452.633</ele>
        <time>2019-12-05T19:12:38Z</time>
      </trkpt>
      <trkpt lat="43.65474" lon="3.02881">
        <ele>457.362</ele>
        <time>2019-12-05T19:12:58Z</time>
      </trkpt>
      <trkpt lat="43.65519" lon="3.02865">
        <ele>466.139</ele>
        <time>2019-12-05T19:13:18Z</time>
      </trkpt>
      <trkpt lat="43.65534" lon="3.02842">
        <ele>468.87</ele>
        <time>2019-12-05T19:13:38Z</time>
      </trkpt>
      <trkpt lat="43.65562" lon="3.02827">
        <ele>467.739</ele>
        <time>2019-12-05T19:13:58Z</time>
      </trkpt>
      <trkpt lat="43.65611" lon="3.02739">
        <ele>469.41</ele>
        <time>2019-12-05T19:14:18Z</time>
      </trkpt>
      <trkpt lat="43.6565" lon="3.02688">
        <ele>474.634</ele>
        <time>2019-12-05T19:14:38Z</time>
      </trkpt>
      <trkpt lat="43.65716" lon="3.02654">
        <ele>481.555</ele>
        <time>2019-12-05T19:14:58Z</time>
      </trkpt>
      <trkpt lat="43.65736" lon="3.02635">
        <ele>486.01</ele>
        <time>2019-12-05T19:15:18Z</time>
      </trkpt>
      <trkpt lat="43.6578" lon="3.02608">
        <ele>491.408</ele>
        <time>2019-12-05T19:15:38Z</time>
      </trkpt>
      <trkpt lat="43.65826" lon="3.02589">
        <ele>490.24</ele>
        <time>2019-12-05T19:15:58Z</time>
      </trkpt>
      <trkpt lat="43.65871" lon="3.02537">
        <ele>485.063</ele>
        <time>2019-12-05T19:16:18Z</time>
      </trkpt>
      <trkpt lat="43.65905" lon="3.02468">
        <ele>479.499</ele>
        <time>2019-12-05T19:16:38Z</time>
      </trkpt>
      <trkpt lat="43.65947" lon="3.02394">
        <ele>474.098</ele>
        <time>2019-12-05T19:16:58Z</time>
      </trkpt>
      <trkpt lat="43.6598" lon="3.02294">
        <ele>472.835</ele>
        <time>2019-12-05T19:17:18Z</time>
      </trkpt>
      <trkpt lat="43.6601" lon="3.02197">
        <ele>469.376</ele>
        <time>2019-12-05T19:17:38Z</time>
      </trkpt>
      <trkpt lat="43.66016" lon="3.02164">
        <ele>468.185</ele>
        <time>2019-12-05T19:17:58Z</time>
      </trkpt>
      <trkpt lat="43.66073" lon="3.02055">
        <ele>459.746</ele>
        <time>2019-12-05T19:18:18Z</time>
      </trkpt>
      <trkpt lat="43.66082" lon="3.0202">
        <ele>462.679</ele>
        <time>2019-12-05T19:18:38Z</time>
      </trkpt>
      <trkpt lat="43.66118" lon="3.01963">
        <ele>457.905</ele>
        <time>2019-12-05T19:18:58Z</time>
      </trkpt>
      <trkpt lat="43.66134" lon="3.01915">
        <ele>456.925</ele>
        <time>2019-12-05T19:19:18Z</time>
      </trkpt>
      <trkpt lat="43.6614" lon="3.01847">
        <ele>451.608</ele>
        <time>2019-12-05T19:19:38Z</time>
      </trkpt>
      <trkpt lat="43.66198" lon="3.01737">
        <ele>446.194</ele>
        <time>2019-12-05T19:19:58Z</time>
      </trkpt>
      <trkpt lat="43.66214" lon="3.01667">
        <ele>447.087</ele>
        <time>2019-12-05T19:20:18Z</time>
      </trkpt>
      <trkpt lat="43.66217" lon="3.01613">
        <ele>446.483</ele>
        <time>2019-12-05T19:20:38Z</time>
      </trkpt>
      <trkpt lat="43.6628" lon="3.01598">
        <ele>446.592</ele>
        <time>2019-12-05T19:20:58Z</time>
      </trkpt>
      <trkpt lat="43.66352" lon="3.01543">
        <ele>441.769</ele>
        <time>2019-12-05T19:21:18Z</time>
      </trkpt>
      <trkpt lat="43.66353" lon="3.0147">
        <ele>433.65</ele>
        <time>2019-12-05T19:21:38Z</time>
      </trkpt>
      <trkpt lat="43.66367" lon="3.01427">
        <ele>428.989</ele>
        <time>2019-12-05T19:21:58Z</time>
      </trkpt>
      <trkpt lat="43.66394" lon="3.01418">
        <ele>420.95</ele>
        <time>2019-12-05T19:22:18Z</time>
      </trkpt>
      <trkpt lat="43.66503" lon="3.01319">
        <ele>421.844</ele>
        <time>2019-12-05T19:22:38Z</time>
      </trkpt>
      <trkpt lat="43.66547" lon="3.01253">
        <ele>422.305</ele>
        <time>2019-12-05T19:22:58Z</time>
      </trkpt>
      <trkpt lat="43.66553" lon="3.01217">
        <ele>423.115</ele>
        <time>2019-12-05T19:23:18Z</time>
      </trkpt>
      <trkpt lat="43.66538" lon="3.01152">
        <ele>421.608</ele>
        <time>2019-12-05T19:23:38Z</time>
      </trkpt>
      <trkpt lat="43.66527" lon="3.00999">
        <ele>415.941</ele>
        <time>2019-12-05T19:23:58Z</time>
      </trkpt>
      <trkpt lat="43.6651" lon="3.00965">
        <ele>417.244</ele>
        <time>2019-12-05T19:24:18Z</time>
      </trkpt>
      <trkpt lat="43.66525" lon="3.00818">
        <ele>409.88</ele>
        <time>2019-12-05T19:24:38Z</time>
      </trkpt>
      <trkpt lat="43.66494" lon="3.00564">
        <ele>384.999</ele>
        <time>2019-12-05T19:24:58Z</time>
      </trkpt>
      <trkpt lat="43.66524" lon="3.00484">
        <ele>369.656</ele>
        <time>2019-12-05T19:25:18Z</time>
      </trkpt>
      <trkpt lat="43.66586" lon="3.00488">
        <ele>362.527</ele>
        <time>2019-12-05T19:25:38Z</time>
      </trkpt>
      <trkpt lat="43.66573" lon="3.00353">
        <ele>368.256</ele>
        <time>2019-12-05T19:25:58Z</time>
      </trkpt>
      <trkpt lat="43.66577" lon="3.00244">
        <ele>369.327</ele>
        <time>2019-12-05T19:26:18Z</time>
      </trkpt>
      <trkpt lat="43.66535" lon="3.00106">
        <ele>378.173</ele>
        <time>2019-12-05T19:26:38Z</time>
      </trkpt>
      <trkpt lat="43.66521" lon="2.999">
        <ele>377.785</ele>
        <time>2019-12-05T19:26:58Z</time>
      </trkpt>
      <trkpt lat="43.66508" lon="2.99875">
        <ele>382.313</ele>
        <time>2019-12-05T19:27:18Z</time>
      </trkpt>
      <trkpt lat="43.66515" lon="2.99778">
        <ele>387.808</ele>
        <time>2019-12-05T19:27:38Z</time>
      </trkpt>
      <trkpt lat="43.66543" lon="2.99727">
        <ele>386.494</ele>
        <time>2019-12-05T19:27:58Z</time>
      </trkpt>
      <trkpt lat="43.66567" lon="2.99578">
        <ele>392.317</ele>
        <time>2019-12-05T19:28:18Z</time>
      </trkpt>
      <trkpt lat="43.66568" lon="2.99499">
        <ele>397.783</ele>
        <time>2019-12-05T19:28:38Z</time>
      </trkpt>
      <trkpt lat="43.66597" lon="2.99355">
        <ele>401.422</ele>
        <time>2019-12-05T19:28:58Z</time>
      </trkpt>
      <trkpt lat="43.66588" lon="2.99294">
        <ele>397.219</ele>
        <time>2019-12-05T19:29:18Z</time>
      </trkpt>
      <trkpt lat="43.66521" lon="2.99269">
        <ele>403.18</ele>
        <time>2019-12-05T19:29:38Z</time>
      </trkpt>
      <trkpt lat="43.66525" lon="2.99248">
        <ele>404.769</ele>
        <time>2019-12-05T19:29:58Z</time>
      </trkpt>
      <trkpt lat="43.66551" lon="2.9925">
        <ele>402.33</ele>
        <time>2019-12-05T19:30:18Z</time>
      </trkpt>
      <trkpt lat="43.66554" lon="2.99232">
        <ele>404.217</ele>
        <time>2019-12-05T19:30:38Z</time>
      </trkpt>
      <trkpt lat="43.66513" lon="2.99148">
        <ele>414.687</ele>
        <time>2019-12-05T19:30:58Z</time>
      </trkpt>
      <trkpt lat="43.66515" lon="2.99056">
        <ele>415.415</ele>
        <time>2019-12-05T19:31:18Z</time>
      </trkpt>
      <trkpt lat="43.66523" lon="2.9895">
        <ele>421.808</ele>
        <time>2019-12-05T19:31:38Z</time>
      </trkpt>
      <trkpt lat="43.66499" lon="2.98858">
        <ele>425.428</ele>
        <time>2019-12-05T19:31:58Z</time>
      </trkpt>
      <trkpt lat="43.66515" lon="2.98828">
        <ele>424.591</ele>
        <time>2019-12-05T19:32:18Z</time>
      </trkpt>
      <trkpt lat="43.66526" lon="2.98739">
        <ele>423.097</ele>
        <time>2019-12-05T19:32:38Z</time>
      </trkpt>
      <trkpt lat="43.66535" lon="2.98534">
        <ele>420.696</ele>
        <time>2019-12-05T19:32:58Z</time>
      </trkpt>
      <trkpt lat="43.66556" lon="2.98453">
        <ele>419.433</ele>
        <time>2019-12-05T19:33:18Z</time>
      </trkpt>
      <trkpt lat="43.66588" lon="2.98442">
        <ele>408.364</ele>
        <time>2019-12-05T19:33:38Z</time>
      </trkpt>
      <trkpt lat="43.66608" lon="2.98403">
        <ele>412.513</ele>
        <time>2019-12-05T19:33:58Z</time>
      </trkpt>
      <trkpt lat="43.66671" lon="2.98323">
        <ele>416.924</ele>
        <time>2019-12-05T19:34:18Z</time>
      </trkpt>
      <trkpt lat="43.66695" lon="2.98136">
        <ele>415.149</ele>
        <time>2019-12-05T19:34:38Z</time>
      </trkpt>
      <trkpt lat="43.66684" lon="2.9804">
        <ele>425.102</ele>
        <time>2019-12-05T19:34:58Z</time>
      </trkpt>
      <trkpt lat="43.66682" lon="2.97798">
        <ele>422.922</ele>
        <time>2019-12-05T19:35:18Z</time>
      </trkpt>
      <trkpt lat="43.66732" lon="2.97532">
        <ele>438.808</ele>
        <time>2021-04-17T02:49:30Z</time>
      </trkpt>
      <trkpt lat="43.66713" lon="2.97461">
        <ele>450.131</ele>
        <time>2021-04-17T02:49:50Z</time>
      </trkpt>
      <trkpt lat="43.66722" lon="2.9734">
        <ele>433.774</ele>
        <time>2019-12-05T19:36:18Z</time>
      </trkpt>
      <trkpt lat="43.66774" lon="2.97332">
        <ele>438.89</ele>
        <time>2021-04-17T02:50:30Z</time>
      </trkpt>
      <trkpt lat="43.66795" lon="2.97349">
        <ele>442.839</ele>
        <time>2021-04-17T02:50:50Z</time>
      </trkpt>
      <trkpt lat="43.6679" lon="2.97276">
        <ele>436.036</ele>
        <time>2016-12-29T20:10:23Z</time>
      </trkpt>
      <trkpt lat="43.66803" lon="2.97185">
        <ele>441.937</ele>
        <time>2016-12-29T20:10:43Z</time>
      </trkpt>
      <trkpt lat="43.66782" lon="2.9716">
        <ele>445.176</ele>
        <time>2016-12-29T20:11:03Z</time>
      </trkpt>
      <trkpt lat="43.66802" lon="2.9702">
        <ele>462.657</ele>
        <time>2016-12-29T20:11:23Z</time>
      </trkpt>
      <trkpt lat="43.66787" lon="2.96873">
        <ele>457.893</ele>
        <time>2016-12-29T20:11:43Z</time>
      </trkpt>
      <trkpt lat="43.66759" lon="2.9682">
        <ele>450.365</ele>
        <time>2016-12-29T20:12:03Z</time>
      </trkpt>
      <trkpt lat="43.66818" lon="2.96711">
        <ele>454.821</ele>
        <time>2016-12-29T20:12:23Z</time>
      </trkpt>
      <trkpt lat="43.66824" lon="2.96624">
        <ele>461.408</ele>
        <time>2016-12-29T20:12:43Z</time>
      </trkpt>
      <trkpt lat="43.66782" lon="2.96488">
        <ele>465.246</ele>
        <time>2016-12-29T20:13:03Z</time>
      </trkpt>
      <trkpt lat="43.66787" lon="2.96427">
        <ele>475.229</ele>
        <time>2016-12-29T20:13:23Z</time>
      </trkpt>
      <trkpt lat="43.66849" lon="2.96291">
        <ele>478.585</ele>
        <time>2016-12-29T20:13:43Z</time>
      </trkpt>
      <trkpt lat="43.66908" lon="2.96187">
        <ele>485.614</ele>
        <time>2016-12-29T20:14:03Z</time>
      </trkpt>
      <trkpt lat="43.66953" lon="2.96074">
        <ele>486.911</ele>
        <time>2016-12-29T20:14:23Z</time>
      </trkpt>
      <trkpt lat="43.66946" lon="2.96025">
        <ele>496.182</ele>
        <time>2016-12-29T20:14:43Z</time>
      </trkpt>
      <trkpt lat="43.67003" lon="2.95862">
        <ele>496.371</ele>
        <time>2016-12-29T20:15:03Z</time>
      </trkpt>
      <trkpt lat="43.66979" lon="2.95788">
        <ele>500.263</ele>
        <time>2016-12-29T20:15:43Z</time>
      </trkpt>
      <trkpt lat="43.66957" lon="2.95751">
        <ele>501.044</ele>
        <time>2016-12-29T20:16:03Z</time>
      </trkpt>
      <trkpt lat="43.66911" lon="2.95732">
        <ele>511.218</ele>
        <time>2016-12-29T20:16:23Z</time>
      </trkpt>
      <trkpt lat="43.66928" lon="2.95687">
        <ele>509.808</ele>
        <time>2016-12-29T20:16:43Z</time>
      </trkpt>
      <trkpt lat="43.66918" lon="2.95655">
        <ele>518.933</ele>
        <time>2016-12-29T20:17:03Z</time>
      </trkpt>
      <trkpt lat="43.66923" lon="2.95616">
        <ele>525.876</ele>
        <time>2016-12-29T20:17:23Z</time>
      </trkpt>
      <trkpt lat="43.66946" lon="2.95558">
        <ele>522.052</ele>
        <time>2016-12-29T20:17:43Z</time>
      </trkpt>
      <trkpt lat="43.66915" lon="2.95571">
        <ele>537.621</ele>
        <time>2016-12-29T20:18:03Z</time>
      </trkpt>
      <trkpt lat="43.66923" lon="2.95489">
        <ele>544.438</ele>
        <time>2016-12-29T20:18:23Z</time>
      </trkpt>
      <trkpt lat="43.66877" lon="2.95556">
        <ele>558.789</ele>
        <time>2016-12-29T20:18:43Z</time>
      </trkpt>
      <trkpt lat="43.66856" lon="2.95539">
        <ele>564.978</ele>
        <time>2016-12-29T20:19:03Z</time>
      </trkpt>
      <trkpt lat="43.66844" lon="2.95498">
        <ele>574.279</ele>
        <time>2016-12-29T20:19:23Z</time>
      </trkpt>
      <trkpt lat="43.66842" lon="2.95459">
        <ele>584.943</ele>
        <time>2016-12-29T20:19:43Z</time>
      </trkpt>
      <trkpt lat="43.6683" lon="2.95397">
        <ele>607.664</ele>
        <time>2016-12-29T20:20:03Z</time>
      </trkpt>
      <trkpt lat="43.66878" lon="2.95324">
        <ele>620.91</ele>
        <time>2016-12-29T20:20:23Z</time>
      </trkpt>
      <trkpt lat="43.66953" lon="2.95289">
        <ele>621.608</ele>
        <time>2016-12-29T20:20:43Z</time>
      </trkpt>
      <trkpt lat="43.6696" lon="2.95245">
        <ele>627.461</ele>
        <time>2016-12-29T20:21:03Z</time>
      </trkpt>
      <trkpt lat="43.66946" lon="2.95134">
        <ele>635.274</ele>
        <time>2016-12-29T20:21:23Z</time>
      </trkpt>
      <trkpt lat="43.66936" lon="2.95152">
        <ele>641.36</ele>
        <time>2016-12-29T20:21:43Z</time>
      </trkpt>
      <trkpt lat="43.66937" lon="2.95219">
        <ele>641.349</ele>
        <time>2016-12-29T20:22:03Z</time>
      </trkpt>
      <trkpt lat="43.66906" lon="2.95251">
        <ele>644.616</ele>
        <time>2016-12-29T20:22:23Z</time>
      </trkpt>
      <trkpt lat="43.66842" lon="2.95274">
        <ele>648.997</ele>
        <time>2016-12-29T20:22:43Z</time>
      </trkpt>
      <trkpt lat="43.66819" lon="2.95273">
        <ele>650.136</ele>
        <time>2016-12-29T20:23:03Z</time>
      </trkpt>
      <trkpt lat="43.66848" lon="2.95253">
        <ele>656.447</ele>
        <time>2016-12-29T20:23:23Z</time>
      </trkpt>
      <trkpt lat="43.6688" lon="2.95203">
        <ele>659.699</ele>
        <time>2016-12-29T20:23:43Z</time>
      </trkpt>
      <trkpt lat="43.66884" lon="2.95163">
        <ele>661.907</ele>
        <time>2016-12-29T20:24:03Z</time>
      </trkpt>
      <trkpt lat="43.66883" lon="2.95131">
        <ele>666.627</ele>
        <time>2016-12-29T20:24:23Z</time>
      </trkpt>
      <trkpt lat="43.66896" lon="2.95055">
        <ele>674.208</ele>
        <time>2016-12-29T20:24:43Z</time>
      </trkpt>
      <trkpt lat="43.66922" lon="2.95019">
        <ele>672.696</ele>
        <time>2016-12-29T20:25:03Z</time>
      </trkpt>
      <trkpt lat="43.66967" lon="2.94929">
        <ele>678.519</ele>
        <time>2016-12-29T20:25:23Z</time>
      </trkpt>
      <trkpt lat="43.6698" lon="2.94864">
        <ele>686.495</ele>
        <time>2016-12-29T20:25:43Z</time>
      </trkpt>
      <trkpt lat="43.6698" lon="2.9479">
        <ele>694.714</ele>
        <time>2016-12-29T20:26:03Z</time>
      </trkpt>
      <trkpt lat="43.66973" lon="2.94743">
        <ele>702.171</ele>
        <time>2016-12-29T20:26:23Z</time>
      </trkpt>
      <trkpt lat="43.67002" lon="2.94681">
        <ele>704.792</ele>
        <time>2016-12-29T20:26:43Z</time>
      </trkpt>
      <trkpt lat="43.67008" lon="2.94637">
        <ele>708.671</ele>
        <time>2016-12-29T20:27:03Z</time>
      </trkpt>
      <trkpt lat="43.66978" lon="2.94672">
        <ele>712.942</ele>
        <time>2016-12-29T20:27:23Z</time>
      </trkpt>
      <trkpt lat="43.66951" lon="2.94689">
        <ele>722.768</ele>
        <time>2016-12-29T20:27:43Z</time>
      </trkpt>
      <trkpt lat="43.6694" lon="2.94724">
        <ele>721.442</ele>
        <time>2016-12-29T20:28:03Z</time>
      </trkpt>
      <trkpt lat="43.66933" lon="2.94778">
        <ele>717.526</ele>
        <time>2016-12-29T20:28:23Z</time>
      </trkpt>
      <trkpt lat="43.66866" lon="2.94849">
        <ele>727.908</ele>
        <time>2016-12-29T20:28:43Z</time>
      </trkpt>
      <trkpt lat="43.66785" lon="2.94892">
        <ele>735.353</ele>
        <time>2016-12-29T20:29:03Z</time>
      </trkpt>
      <trkpt lat="43.66761" lon="2.94936">
        <ele>742.716</ele>
        <time>2016-12-29T20:29:23Z</time>
      </trkpt>
      <trkpt lat="43.66748" lon="2.94874">
        <ele>750.952</ele>
        <time>2016-12-29T20:29:43Z</time>
      </trkpt>
      <trkpt lat="43.66841" lon="2.94725">
        <ele>750.431</ele>
        <time>2016-12-29T20:30:03Z</time>
      </trkpt>
      <trkpt lat="43.66844" lon="2.94648">
        <ele>756.728</ele>
        <time>2016-12-29T20:30:23Z</time>
      </trkpt>
      <trkpt lat="43.66908" lon="2.94487">
        <ele>761.249</ele>
        <time>2016-12-29T20:30:43Z</time>
      </trkpt>
      <trkpt lat="43.66832" lon="2.94351">
        <ele>769.918</ele>
        <time>2016-12-29T20:31:03Z</time>
      </trkpt>
      <trkpt lat="43.6679" lon="2.9433">
        <ele>784.449</ele>
        <time>2016-12-29T20:31:23Z</time>
      </trkpt>
      <trkpt lat="43.66868" lon="2.9426">
        <ele>786.389</ele>
        <time>2016-12-29T20:31:43Z</time>
      </trkpt>
      <trkpt lat="43.66925" lon="2.94259">
        <ele>784.706</ele>
        <time>2016-12-29T20:32:03Z</time>
      </trkpt>
      <trkpt lat="43.67014" lon="2.94242">
        <ele>789.826</ele>
        <time>2016-12-29T20:32:23Z</time>
      </trkpt>
      <trkpt lat="43.67041" lon="2.94188">
        <ele>793.708</ele>
        <time>2016-12-29T20:32:43Z</time>
      </trkpt>
      <trkpt lat="43.67046" lon="2.94074">
        <ele>800.725</ele>
        <time>2016-12-29T20:33:03Z</time>
      </trkpt>
      <trkpt lat="43.67068" lon="2.94032">
        <ele>797.838</ele>
        <time>2016-12-29T20:33:23Z</time>
      </trkpt>
      <trkpt lat="43.67093" lon="2.939">
        <ele>813.194</ele>
        <time>2016-12-29T20:33:43Z</time>
      </trkpt>
      <trkpt lat="43.6712" lon="2.93883">
        <ele>815.733</ele>
        <time>2016-12-29T20:34:03Z</time>
      </trkpt>
      <trkpt lat="43.67155" lon="2.93971">
        <ele>820.13</ele>
        <time>2016-12-29T20:34:23Z</time>
      </trkpt>
      <trkpt lat="43.6718" lon="2.93998">
        <ele>828.091</ele>
        <time>2016-12-29T20:34:43Z</time>
      </trkpt>
      <trkpt lat="43.67199" lon="2.9404">
        <ele>831.97</ele>
        <time>2016-12-29T20:35:03Z</time>
      </trkpt>
      <trkpt lat="43.67187" lon="2.93981">
        <ele>833.931</ele>
        <time>2016-12-29T20:35:23Z</time>
      </trkpt>
      <trkpt lat="43.67167" lon="2.93943">
        <ele>829.575</ele>
        <time>2016-12-29T20:35:43Z</time>
      </trkpt>
      <trkpt lat="43.67164" lon="2.93907">
        <ele>832.828</ele>
        <time>2016-12-29T20:36:03Z</time>
      </trkpt>
      <trkpt lat="43.67144" lon="2.93836">
        <ele>828.72</ele>
        <time>2016-12-29T20:37:23Z</time>
      </trkpt>
      <trkpt lat="43.67156" lon="2.93757">
        <ele>840.608</ele>
        <time>2016-12-29T20:37:43Z</time>
      </trkpt>
      <trkpt lat="43.67152" lon="2.93733">
        <ele>843.484</ele>
        <time>2016-12-29T20:38:03Z</time>
      </trkpt>
      <trkpt lat="43.6713" lon="2.93742">
        <ele>838.997</ele>
        <time>2016-12-29T20:38:23Z</time>
      </trkpt>
      <trkpt lat="43.67076" lon="2.93744">
        <ele>845.993</ele>
        <time>2016-12-29T20:38:43Z</time>
      </trkpt>
      <trkpt lat="43.67053" lon="2.93756">
        <ele>847.432</ele>
        <time>2016-12-29T20:39:03Z</time>
      </trkpt>
      <trkpt lat="43.67025" lon="2.9376">
        <ele>853.539</ele>
        <time>2016-12-29T20:39:23Z</time>
      </trkpt>
      <trkpt lat="43.66959" lon="2.93861">
        <ele>857.06</ele>
        <time>2016-12-29T20:39:43Z</time>
      </trkpt>
      <trkpt lat="43.66992" lon="2.9373">
        <ele>873.339</ele>
        <time>2016-12-29T20:40:03Z</time>
      </trkpt>
      <trkpt lat="43.6703" lon="2.93676">
        <ele>874.58</ele>
        <time>2016-12-29T20:40:23Z</time>
      </trkpt>
      <trkpt lat="43.67079" lon="2.93568">
        <ele>878.737</ele>
        <time>2016-12-29T20:40:43Z</time>
      </trkpt>
      <trkpt lat="43.67119" lon="2.93538">
        <ele>877.149</ele>
        <time>2016-12-29T20:41:03Z</time>
      </trkpt>
      <trkpt lat="43.67135" lon="2.935">
        <ele>879.413</ele>
        <time>2016-12-29T20:41:23Z</time>
      </trkpt>
      <trkpt lat="43.6718" lon="2.93471">
        <ele>881.108</ele>
        <time>2016-12-29T20:41:43Z</time>
      </trkpt>
      <trkpt lat="43.67285" lon="2.93104">
        <ele>885.22</ele>
        <time>2016-12-29T20:42:03Z</time>
      </trkpt>
      <trkpt lat="43.67284" lon="2.93023">
        <ele>888.863</ele>
        <time>2016-12-29T20:42:23Z</time>
      </trkpt>
      <trkpt lat="43.67246" lon="2.92952">
        <ele>890.449</ele>
        <time>2016-12-29T20:42:43Z</time>
      </trkpt>
      <trkpt lat="43.67164" lon="2.92852">
        <ele>881.158</ele>
        <time>2016-12-29T20:43:03Z</time>
      </trkpt>
      <trkpt lat="43.6716" lon="2.92814">
        <ele>876.645</ele>
        <time>2016-12-29T20:43:23Z</time>
      </trkpt>
      <trkpt lat="43.67125" lon="2.92774">
        <ele>879.826</ele>
        <time>2016-12-29T20:43:43Z</time>
      </trkpt>
      <trkpt lat="43.67098" lon="2.92763">
        <ele>881.135</ele>
        <time>2016-12-29T20:44:03Z</time>
      </trkpt>
      <trkpt lat="43.67078" lon="2.92687">
        <ele>881.796</ele>
        <time>2016-12-29T20:44:23Z</time>
      </trkpt>
      <trkpt lat="43.67075" lon="2.92643">
        <ele>881.185</ele>
        <time>2016-12-29T20:44:43Z</time>
      </trkpt>
      <trkpt lat="43.67057" lon="2.9261">
        <ele>880.089</ele>
        <time>2016-12-29T20:45:03Z</time>
      </trkpt>
      <trkpt lat="43.67021" lon="2.92598">
        <ele>881.717</ele>
        <time>2016-12-29T20:45:23Z</time>
      </trkpt>
      <trkpt lat="43.67003" lon="2.92574">
        <ele>880.108</ele>
        <time>2016-12-29T20:45:43Z</time>
      </trkpt>
      <trkpt lat="43.6699" lon="2.92531">
        <ele>870.165</ele>
        <time>2016-12-29T20:46:03Z</time>
      </trkpt>
      <trkpt lat="43.66962" lon="2.92519">
        <ele>866.148</ele>
        <time>2016-12-29T20:46:23Z</time>
      </trkpt>
      <trkpt lat="43.66927" lon="2.92526">
        <ele>866.364</ele>
        <time>2016-12-29T20:46:43Z</time>
      </trkpt>
      <trkpt lat="43.66863" lon="2.92505">
        <ele>868.463</ele>
        <time>2016-12-29T20:47:03Z</time>
      </trkpt>
      <trkpt lat="43.66863" lon="2.92481">
        <ele>868.32</ele>
        <time>2016-12-29T20:47:23Z</time>
      </trkpt>
      <trkpt lat="43.66916" lon="2.92427">
        <ele>870.121</ele>
        <time>2016-12-29T20:47:43Z</time>
      </trkpt>
      <trkpt lat="43.66963" lon="2.92422">
        <ele>867.48</ele>
        <time>2016-12-29T20:48:03Z</time>
      </trkpt>
      <trkpt lat="43.67011" lon="2.92376">
        <ele>873.711</ele>
        <time>2016-12-29T20:48:23Z</time>
      </trkpt>
      <trkpt lat="43.6702" lon="2.92327">
        <ele>883.518</ele>
        <time>2016-12-29T20:48:43Z</time>
      </trkpt>
      <trkpt lat="43.67085" lon="2.92255">
        <ele>883.698</ele>
        <time>2016-12-29T20:49:03Z</time>
      </trkpt>
      <trkpt lat="43.6711" lon="2.92245">
        <ele>883.417</ele>
        <time>2016-12-29T20:49:23Z</time>
      </trkpt>
      <trkpt lat="43.67147" lon="2.92208">
        <ele>882.508</ele>
        <time>2016-12-29T20:49:43Z</time>
      </trkpt>
      <trkpt lat="43.67182" lon="2.92141">
        <ele>881.728</ele>
        <time>2016-12-29T20:50:03Z</time>
      </trkpt>
      <trkpt lat="43.67199" lon="2.92041">
        <ele>886.271</ele>
        <time>2016-12-29T20:50:23Z</time>
      </trkpt>
      <trkpt lat="43.67178" lon="2.91991">
        <ele>892.197</ele>
        <time>2016-12-29T20:50:43Z</time>
      </trkpt>
      <trkpt lat="43.67118" lon="2.91928">
        <ele>898.856</ele>
        <time>2016-12-29T20:51:03Z</time>
      </trkpt>
      <trkpt lat="43.67083" lon="2.91922">
        <ele>903.493</ele>
        <time>2016-12-29T20:51:23Z</time>
      </trkpt>
      <trkpt lat="43.67057" lon="2.91927">
        <ele>907.644</ele>
        <time>2016-12-29T20:51:43Z</time>
      </trkpt>
      <trkpt lat="43.67005" lon="2.91869">
        <ele>910.484</ele>
        <time>2016-12-29T20:52:23Z</time>
      </trkpt>
      <trkpt lat="43.66967" lon="2.91872">
        <ele>914.019</ele>
        <time>2016-12-29T20:52:43Z</time>
      </trkpt>
      <trkpt lat="43.66925" lon="2.91897">
        <ele>921.509</ele>
        <time>2016-12-29T20:53:03Z</time>
      </trkpt>
      <trkpt lat="43.66891" lon="2.91878">
        <ele>924.819</ele>
        <time>2016-12-29T20:53:23Z</time>
      </trkpt>
      <trkpt lat="43.66863" lon="2.91824">
        <ele>924.908</ele>
        <time>2016-12-29T20:53:43Z</time>
      </trkpt>
      <trkpt lat="43.66811" lon="2.91839">
        <ele>933.468</ele>
        <time>2016-12-29T20:54:03Z</time>
      </trkpt>
      <trkpt lat="43.66777" lon="2.91839">
        <ele>931.731</ele>
        <time>2016-12-29T20:54:23Z</time>
      </trkpt>
      <trkpt lat="43.66684" lon="2.91895">
        <ele>936.477</ele>
        <time>2016-12-29T20:54:43Z</time>
      </trkpt>
      <trkpt lat="43.66628" lon="2.91917">
        <ele>937.426</ele>
        <time>2016-12-29T20:55:03Z</time>
      </trkpt>
      <trkpt lat="43.66589" lon="2.91945">
        <ele>942.523</ele>
        <time>2016-12-29T20:55:23Z</time>
      </trkpt>
      <trkpt lat="43.6652" lon="2.91945">
        <ele>941.314</ele>
        <time>2016-12-29T20:55:43Z</time>
      </trkpt>
      <trkpt lat="43.66496" lon="2.91938">
        <ele>940.863</ele>
        <time>2016-12-29T20:56:03Z</time>
      </trkpt>
      <trkpt lat="43.66476" lon="2.91949">
        <ele>944.484</ele>
        <time>2016-12-29T20:56:23Z</time>
      </trkpt>
      <trkpt lat="43.66454" lon="2.91933">
        <ele>963.189</ele>
        <time>2021-04-17T03:36:30Z</time>
      </trkpt>
      <trkpt lat="43.66422" lon="2.91947">
        <ele>945.506</ele>
        <time>2016-12-29T20:57:03Z</time>
      </trkpt>
      <trkpt lat="43.66386" lon="2.91921">
        <ele>947.326</ele>
        <time>2016-12-29T20:57:23Z</time>
      </trkpt>
      <trkpt lat="43.66431" lon="2.91906">
        <ele>945.108</ele>
        <time>2016-12-29T20:57:43Z</time>
      </trkpt>
      <trkpt lat="43.66481" lon="2.91842">
        <ele>959.655</ele>
        <time>2016-12-29T20:58:03Z</time>
      </trkpt>
      <trkpt lat="43.66506" lon="2.91779">
        <ele>966.418</ele>
        <time>2016-12-29T20:58:23Z</time>
      </trkpt>
      <trkpt lat="43.66515" lon="2.91715">
        <ele>974.634</ele>
        <time>2016-12-29T20:58:43Z</time>
      </trkpt>
      <trkpt lat="43.66481" lon="2.91719">
        <ele>984.773</ele>
        <time>2016-12-29T20:59:03Z</time>
      </trkpt>
      <trkpt lat="43.66481" lon="2.91661">
        <ele>992.71</ele>
        <time>2016-12-29T20:59:23Z</time>
      </trkpt>
      <trkpt lat="43.66493" lon="2.9159">
        <ele>999.081</ele>
        <time>2016-12-29T20:59:43Z</time>
      </trkpt>
      <trkpt lat="43.66481" lon="2.9158">
        <ele>1005.01</ele>
        <time>2016-12-29T21:00:03Z</time>
      </trkpt>
      <trkpt lat="43.66428" lon="2.91629">
        <ele>1013.851</ele>
        <time>2016-12-29T21:00:23Z</time>
      </trkpt>
      <trkpt lat="43.66461" lon="2.91571">
        <ele>1012.651</ele>
        <time>2016-12-29T21:00:43Z</time>
      </trkpt>
      <trkpt lat="43.66467" lon="2.91526">
        <ele>1017.601</ele>
        <time>2016-12-29T21:01:03Z</time>
      </trkpt>
      <trkpt lat="43.6649" lon="2.91466">
        <ele>1016.411</ele>
        <time>2016-12-29T21:01:23Z</time>
      </trkpt>
      <trkpt lat="43.66498" lon="2.91373">
        <ele>1007.508</ele>
        <time>2016-12-29T21:01:43Z</time>
      </trkpt>
      <trkpt lat="43.66477" lon="2.91379">
        <ele>1007.282</ele>
        <time>2016-12-29T21:02:03Z</time>
      </trkpt>
      <trkpt lat="43.6644" lon="2.91337">
        <ele>995.431</ele>
        <time>2016-12-29T21:02:43Z</time>
      </trkpt>
      <trkpt lat="43.66417" lon="2.91337">
        <ele>996.75</ele>
        <time>2016-12-29T21:03:03Z</time>
      </trkpt>
      <trkpt lat="43.6643" lon="2.91275">
        <ele>992.327</ele>
        <time>2016-12-29T21:03:23Z</time>
      </trkpt>
      <trkpt lat="43.66451" lon="2.91236">
        <ele>987.188</ele>
        <time>2016-12-29T21:03:43Z</time>
      </trkpt>
      <trkpt lat="43.66462" lon="2.91183">
        <ele>984.657</ele>
        <time>2016-12-29T21:04:03Z</time>
      </trkpt>
      <trkpt lat="43.66459" lon="2.91112">
        <ele>987.478</ele>
        <time>2016-12-29T21:04:23Z</time>
      </trkpt>
      <trkpt lat="43.66467" lon="2.91054">
        <ele>984.244</ele>
        <time>2016-12-29T21:04:43Z</time>
      </trkpt>
      <trkpt lat="43.66481" lon="2.90994">
        <ele>983.805</ele>
        <time>2016-12-29T21:05:03Z</time>
      </trkpt>
      <trkpt lat="43.66516" lon="2.90951">
        <ele>978.615</ele>
        <time>2016-12-29T21:05:23Z</time>
      </trkpt>
      <trkpt lat="43.66588" lon="2.90908">
        <ele>970.808</ele>
        <time>2016-12-29T21:05:43Z</time>
      </trkpt>
      <trkpt lat="43.6663" lon="2.9088">
        <ele>972.271</ele>
        <time>2016-12-29T21:06:03Z</time>
      </trkpt>
      <trkpt lat="43.66689" lon="2.90874">
        <ele>962.524</ele>
        <time>2016-12-29T21:06:23Z</time>
      </trkpt>
      <trkpt lat="43.66734" lon="2.90833">
        <ele>957.54</ele>
        <time>2016-12-29T21:06:43Z</time>
      </trkpt>
      <trkpt lat="43.66757" lon="2.90777">
        <ele>954.439</ele>
        <time>2016-12-29T21:07:03Z</time>
      </trkpt>
      <trkpt lat="43.66746" lon="2.9067">
        <ele>938.886</ele>
        <time>2016-12-29T21:07:23Z</time>
      </trkpt>
      <trkpt lat="43.66726" lon="2.90623">
        <ele>934.437</ele>
        <time>2016-12-29T21:07:43Z</time>
      </trkpt>
      <trkpt lat="43.66722" lon="2.90576">
        <ele>928.876</ele>
        <time>2016-12-29T21:08:03Z</time>
      </trkpt>
      <trkpt lat="43.66731" lon="2.90542">
        <ele>928.667</ele>
        <time>2016-12-29T21:08:23Z</time>
      </trkpt>
      <trkpt lat="43.66756" lon="2.90559">
        <ele>926.458</ele>
        <time>2016-12-29T21:08:43Z</time>
      </trkpt>
      <trkpt lat="43.66869" lon="2.90622">
        <ele>933.952</ele>
        <time>2016-12-29T21:09:03Z</time>
      </trkpt>
      <trkpt lat="43.66911" lon="2.90612">
        <ele>937.717</ele>
        <time>2016-12-29T21:09:23Z</time>
      </trkpt>
      <trkpt lat="43.66972" lon="2.90623">
        <ele>933.308</ele>
        <time>2016-12-29T21:09:43Z</time>
      </trkpt>
      <trkpt lat="43.67011" lon="2.90598">
        <ele>932.662</ele>
        <time>2016-12-29T21:10:03Z</time>
      </trkpt>
      <trkpt lat="43.67036" lon="2.90515">
        <ele>932.725</ele>
        <time>2016-12-29T21:10:23Z</time>
      </trkpt>
      <trkpt lat="43.67032" lon="2.90438">
        <ele>932.971</ele>
        <time>2016-12-29T21:10:43Z</time>
      </trkpt>
      <trkpt lat="43.67016" lon="2.90399">
        <ele>930.34</ele>
        <time>2016-12-29T21:11:03Z</time>
      </trkpt>
      <trkpt lat="43.66956" lon="2.90349">
        <ele>935.827</ele>
        <time>2016-12-29T21:11:23Z</time>
      </trkpt>
      <trkpt lat="43.66957" lon="2.9033">
        <ele>936.938</ele>
        <time>2016-12-29T21:11:43Z</time>
      </trkpt>
      <trkpt lat="43.67001" lon="2.90289">
        <ele>937.857</ele>
        <time>2016-12-29T21:12:03Z</time>
      </trkpt>
      <trkpt lat="43.67052" lon="2.90279">
        <ele>934.298</ele>
        <time>2016-12-29T21:12:23Z</time>
      </trkpt>
      <trkpt lat="43.67096" lon="2.90274">
        <ele>931.341</ele>
        <time>2016-12-29T21:12:43Z</time>
      </trkpt>
      <trkpt lat="43.67124" lon="2.90195">
        <ele>932.681</ele>
        <time>2016-12-29T21:13:03Z</time>
      </trkpt>
      <trkpt lat="43.67122" lon="2.90043">
        <ele>923.809</ele>
        <time>2016-12-29T21:13:23Z</time>
      </trkpt>
      <trkpt lat="43.67061" lon="2.89906">
        <ele>911.508</ele>
        <time>2016-12-29T21:13:43Z</time>
      </trkpt>
      <trkpt lat="43.67001" lon="2.89835">
        <ele>904.151</ele>
        <time>2016-12-29T21:14:03Z</time>
      </trkpt>
      <trkpt lat="43.66994" lon="2.89768">
        <ele>900.754</ele>
        <time>2016-12-29T21:14:23Z</time>
      </trkpt>
      <trkpt lat="43.67035" lon="2.89713">
        <ele>887.88</ele>
        <time>2016-12-29T21:14:43Z</time>
      </trkpt>
      <trkpt lat="43.67077" lon="2.89587">
        <ele>872.389</ele>
        <time>2016-12-29T21:15:03Z</time>
      </trkpt>
      <trkpt lat="43.67073" lon="2.89536">
        <ele>870.116</ele>
        <time>2016-12-29T21:15:23Z</time>
      </trkpt>
      <trkpt lat="43.6709" lon="2.89478">
        <ele>873.947</ele>
        <time>2016-12-29T21:15:43Z</time>
      </trkpt>
      <trkpt lat="43.6711" lon="2.89477">
        <ele>875.476</ele>
        <time>2016-12-29T21:16:03Z</time>
      </trkpt>
      <trkpt lat="43.67129" lon="2.89458">
        <ele>880.757</ele>
        <time>2016-12-29T21:16:23Z</time>
      </trkpt>
      <trkpt lat="43.67175" lon="2.89464">
        <ele>885.598</ele>
        <time>2016-12-29T21:16:43Z</time>
      </trkpt>
      <trkpt lat="43.67383" lon="2.89062">
        <ele>891.415</ele>
        <time>2016-12-29T21:17:03Z</time>
      </trkpt>
      <trkpt lat="43.67409" lon="2.88954">
        <ele>893.226</ele>
        <time>2016-12-29T21:17:23Z</time>
      </trkpt>
      <trkpt lat="43.67427" lon="2.88803">
        <ele>895.808</ele>
        <time>2016-12-29T21:17:43Z</time>
      </trkpt>
      <trkpt lat="43.67479" lon="2.88679">
        <ele>888.086</ele>
        <time>2016-12-29T21:18:03Z</time>
      </trkpt>
      <trkpt lat="43.67482" lon="2.88647">
        <ele>887.389</ele>
        <time>2016-12-29T21:18:23Z</time>
      </trkpt>
      <trkpt lat="43.67518" lon="2.88588">
        <ele>888.245</ele>
        <time>2016-12-29T21:18:43Z</time>
      </trkpt>
      <trkpt lat="43.67565" lon="2.88549">
        <ele>889.244</ele>
        <time>2016-12-29T21:19:03Z</time>
      </trkpt>
      <trkpt lat="43.6759" lon="2.88498">
        <ele>892.681</ele>
        <time>2016-12-29T21:19:23Z</time>
      </trkpt>
      <trkpt lat="43.67601" lon="2.88434">
        <ele>896.522</ele>
        <time>2016-12-29T21:19:43Z</time>
      </trkpt>
      <trkpt lat="43.67673" lon="2.88305">
        <ele>899.661</ele>
        <time>2016-12-29T21:20:03Z</time>
      </trkpt>
      <trkpt lat="43.67773" lon="2.88185">
        <ele>901.552</ele>
        <time>2016-12-29T21:20:23Z</time>
      </trkpt>
      <trkpt lat="43.67929" lon="2.87953">
        <ele>901.833</ele>
        <time>2016-12-29T21:20:43Z</time>
      </trkpt>
      <trkpt lat="43.68047" lon="2.87883">
        <ele>892.423</ele>
        <time>2016-12-29T21:21:03Z</time>
      </trkpt>
      <trkpt lat="43.68153" lon="2.87834">
        <ele>880.515</ele>
        <time>2016-12-29T21:21:23Z</time>
      </trkpt>
      <trkpt lat="43.68165" lon="2.87798">
        <ele>878.808</ele>
        <time>2016-12-29T21:21:43Z</time>
      </trkpt>
      <trkpt lat="43.68155" lon="2.87676">
        <ele>877.49</ele>
        <time>2016-12-29T21:22:03Z</time>
      </trkpt>
      <trkpt lat="43.6817" lon="2.87658">
        <ele>875.163</ele>
        <time>2016-12-29T21:22:23Z</time>
      </trkpt>
      <trkpt lat="43.68227" lon="2.87681">
        <ele>867.049</ele>
        <time>2016-12-29T21:22:43Z</time>
      </trkpt>
      <trkpt lat="43.6824" lon="2.87661">
        <ele>864.968</ele>
        <time>2016-12-29T21:23:03Z</time>
      </trkpt>
      <trkpt lat="43.68276" lon="2.87596">
        <ele>859.795</ele>
        <time>2016-12-29T21:23:23Z</time>
      </trkpt>
      <trkpt lat="43.68339" lon="2.87533">
        <ele>854.866</ele>
        <time>2016-12-29T21:23:43Z</time>
      </trkpt>
      <trkpt lat="43.68297" lon="2.87361">
        <ele>851.945</ele>
        <time>2016-12-29T21:24:03Z</time>
      </trkpt>
      <trkpt lat="43.6827" lon="2.87202">
        <ele>847.956</ele>
        <time>2016-12-29T21:24:23Z</time>
      </trkpt>
      <trkpt lat="43.68229" lon="2.87041">
        <ele>846.545</ele>
        <time>2016-12-29T21:24:43Z</time>
      </trkpt>
      <trkpt lat="43.68221" lon="2.86897">
        <ele>845.147</ele>
        <time>2016-12-29T21:25:03Z</time>
      </trkpt>
      <trkpt lat="43.6823" lon="2.86754">
        <ele>845.711</ele>
        <time>2016-12-29T21:25:23Z</time>
      </trkpt>
      <trkpt lat="43.68211" lon="2.86618">
        <ele>849.508</ele>
        <time>2021-04-17T04:05:30Z</time>
      </trkpt>
      <trkpt lat="43.68214" lon="2.8645">
        <ele>848.411</ele>
        <time>2016-12-29T21:26:03Z</time>
      </trkpt>
      <trkpt lat="43.682" lon="2.86215">
        <ele>846.864</ele>
        <time>2016-12-29T21:26:23Z</time>
      </trkpt>
      <trkpt lat="43.6817" lon="2.86066">
        <ele>846.89</ele>
        <time>2016-12-29T21:26:43Z</time>
      </trkpt>
      <trkpt lat="43.68125" lon="2.85945">
        <ele>846.049</ele>
        <time>2016-12-29T21:27:03Z</time>
      </trkpt>
      <trkpt lat="43.68137" lon="2.85931">
        <ele>845.546</ele>
        <time>2016-12-29T21:27:23Z</time>
      </trkpt>
      <trkpt lat="43.68124" lon="2.85883">
        <ele>844.497</ele>
        <time>2016-12-29T21:27:43Z</time>
      </trkpt>
      <trkpt lat="43.68057" lon="2.85736">
        <ele>842.496</ele>
        <time>2016-12-29T21:28:03Z</time>
      </trkpt>
      <trkpt lat="43.67973" lon="2.85597">
        <ele>840.577</ele>
        <time>2016-12-29T21:28:23Z</time>
      </trkpt>
      <trkpt lat="43.67912" lon="2.85476">
        <ele>837.375</ele>
        <time>2016-12-29T21:28:43Z</time>
      </trkpt>
      <trkpt lat="43.67858" lon="2.85327">
        <ele>835.928</ele>
        <time>2016-12-29T21:29:03Z</time>
      </trkpt>
      <trkpt lat="43.67846" lon="2.85253">
        <ele>834.72</ele>
        <time>2016-12-29T21:29:23Z</time>
      </trkpt>
      <trkpt lat="43.67804" lon="2.85136">
        <ele>833.808</ele>
        <time>2016-12-29T21:29:43Z</time>
      </trkpt>
      <trkpt lat="43.67707" lon="2.85021">
        <ele>830.374</ele>
        <time>2016-12-29T21:30:03Z</time>
      </trkpt>
      <trkpt lat="43.6765" lon="2.84988">
        <ele>832.027</ele>
        <time>2016-12-29T21:30:23Z</time>
      </trkpt>
      <trkpt lat="43.67623" lon="2.84916">
        <ele>831.323</ele>
        <time>2016-12-29T21:30:43Z</time>
      </trkpt>
      <trkpt lat="43.67604" lon="2.84824">
        <ele>832.772</ele>
        <time>2016-12-29T21:31:03Z</time>
      </trkpt>
      <trkpt lat="43.67623" lon="2.84733">
        <ele>834.179</ele>
        <time>2016-12-29T21:31:23Z</time>
      </trkpt>
      <trkpt lat="43.67648" lon="2.84693">
        <ele>832.46</ele>
        <time>2016-12-29T21:31:43Z</time>
      </trkpt>
      <trkpt lat="43.677" lon="2.84446">
        <ele>831.479</ele>
        <time>2016-12-29T21:32:03Z</time>
      </trkpt>
      <trkpt lat="43.67659" lon="2.84268">
        <ele>843.44</ele>
        <time>2016-12-29T21:32:23Z</time>
      </trkpt>
      <trkpt lat="43.67659" lon="2.84153">
        <ele>844.251</ele>
        <time>2016-12-29T21:32:43Z</time>
      </trkpt>
      <trkpt lat="43.67632" lon="2.84085">
        <ele>844.801</ele>
        <time>2016-12-29T21:33:03Z</time>
      </trkpt>
      <trkpt lat="43.67584" lon="2.8397">
        <ele>845.811</ele>
        <time>2016-12-29T21:33:23Z</time>
      </trkpt>
      <trkpt lat="43.67555" lon="2.83927">
        <ele>847.408</ele>
        <time>2016-12-29T21:33:43Z</time>
      </trkpt>
      <trkpt lat="43.67545" lon="2.83881">
        <ele>846.152</ele>
        <time>2016-12-29T21:34:03Z</time>
      </trkpt>
      <trkpt lat="43.67572" lon="2.83734">
        <ele>840.825</ele>
        <time>2016-12-29T21:34:43Z</time>
      </trkpt>
      <trkpt lat="43.67547" lon="2.83706">
        <ele>845.521</ele>
        <time>2021-04-17T04:14:30Z</time>
      </trkpt>
      <trkpt lat="43.67541" lon="2.83663">
        <ele>844.95</ele>
        <time>2021-04-17T04:14:50Z</time>
      </trkpt>
      <trkpt lat="43.67517" lon="2.83629">
        <ele>844.757</ele>
        <time>2021-04-17T04:15:10Z</time>
      </trkpt>
      <trkpt lat="43.67536" lon="2.83589">
        <ele>839.048</ele>
        <time>2016-12-29T21:35:43Z</time>
      </trkpt>
      <trkpt lat="43.67518" lon="2.83522">
        <ele>841.467</ele>
        <time>2016-12-29T21:36:03Z</time>
      </trkpt>
      <trkpt lat="43.67487" lon="2.83467">
        <ele>850.718</ele>
        <time>2016-12-29T21:36:23Z</time>
      </trkpt>
      <trkpt lat="43.67515" lon="2.83426">
        <ele>851.092</ele>
        <time>2016-12-29T21:36:43Z</time>
      </trkpt>
      <trkpt lat="43.67567" lon="2.83396">
        <ele>847.673</ele>
        <time>2016-12-29T21:37:03Z</time>
      </trkpt>
      <trkpt lat="43.67612" lon="2.83315">
        <ele>851.22</ele>
        <time>2016-12-29T21:37:23Z</time>
      </trkpt>
      <trkpt lat="43.67625" lon="2.83235">
        <ele>853.608</ele>
        <time>2016-12-29T21:37:43Z</time>
      </trkpt>
      <trkpt lat="43.67624" lon="2.83148">
        <ele>849.646</ele>
        <time>2016-12-29T21:38:03Z</time>
      </trkpt>
      <trkpt lat="43.67583" lon="2.83041">
        <ele>843.959</ele>
        <time>2016-12-29T21:38:23Z</time>
      </trkpt>
      <trkpt lat="43.6753" lon="2.82999">
        <ele>840.795</ele>
        <time>2016-12-29T21:38:43Z</time>
      </trkpt>
      <trkpt lat="43.67409" lon="2.82939">
        <ele>843.094</ele>
        <time>2016-12-29T21:39:03Z</time>
      </trkpt>
      <trkpt lat="43.67376" lon="2.82859">
        <ele>833.651</ele>
        <time>2016-12-29T21:39:23Z</time>
      </trkpt>
      <trkpt lat="43.67327" lon="2.82797">
        <ele>830.232</ele>
        <time>2016-12-29T21:39:43Z</time>
      </trkpt>
      <trkpt lat="43.67266" lon="2.8277">
        <ele>828.551</ele>
        <time>2016-12-29T21:40:03Z</time>
      </trkpt>
      <trkpt lat="43.67263" lon="2.82746">
        <ele>824.352</ele>
        <time>2016-12-29T21:40:23Z</time>
      </trkpt>
      <trkpt lat="43.67247" lon="2.8272">
        <ele>820.837</ele>
        <time>2016-12-29T21:40:43Z</time>
      </trkpt>
      <trkpt lat="43.67244" lon="2.82648">
        <ele>809.449</ele>
        <time>2016-12-29T21:41:03Z</time>
      </trkpt>
      <trkpt lat="43.67166" lon="2.82638">
        <ele>809.913</ele>
        <time>2016-12-29T21:41:23Z</time>
      </trkpt>
      <trkpt lat="43.67087" lon="2.82593">
        <ele>807.608</ele>
        <time>2016-12-29T21:41:43Z</time>
      </trkpt>
      <trkpt lat="43.66997" lon="2.82503">
        <ele>811.79</ele>
        <time>2016-12-29T21:42:03Z</time>
      </trkpt>
      <trkpt lat="43.66943" lon="2.82444">
        <ele>808.153</ele>
        <time>2016-12-29T21:42:23Z</time>
      </trkpt>
      <trkpt lat="43.66891" lon="2.82409">
        <ele>809.269</ele>
        <time>2016-12-29T21:42:43Z</time>
      </trkpt>
      <trkpt lat="43.66835" lon="2.82357">
        <ele>809.078</ele>
        <time>2016-12-29T21:43:03Z</time>
      </trkpt>
      <trkpt lat="43.66724" lon="2.82324">
        <ele>809.325</ele>
        <time>2016-12-29T21:43:23Z</time>
      </trkpt>
      <trkpt lat="43.66634" lon="2.82299">
        <ele>812.596</ele>
        <time>2016-12-29T21:43:43Z</time>
      </trkpt>
      <trkpt lat="43.66622" lon="2.82274">
        <ele>810.035</ele>
        <time>2016-12-29T21:44:23Z</time>
      </trkpt>
      <trkpt lat="43.6658" lon="2.82224">
        <ele>807.646</ele>
        <time>2016-12-29T21:44:43Z</time>
      </trkpt>
      <trkpt lat="43.66512" lon="2.82182">
        <ele>809.422</ele>
        <time>2016-12-29T21:45:03Z</time>
      </trkpt>
      <trkpt lat="43.66488" lon="2.8215">
        <ele>808.462</ele>
        <time>2016-12-29T21:45:23Z</time>
      </trkpt>
      <trkpt lat="43.66412" lon="2.82077">
        <ele>809.108</ele>
        <time>2016-12-29T21:45:43Z</time>
      </trkpt>
      <trkpt lat="43.66401" lon="2.81995">
        <ele>803.808</ele>
        <time>2016-12-29T21:46:03Z</time>
      </trkpt>
      <trkpt lat="43.66407" lon="2.81966">
        <ele>801.469</ele>
        <time>2016-12-29T21:46:23Z</time>
      </trkpt>
      <trkpt lat="43.66389" lon="2.81905">
        <ele>800.062</ele>
        <time>2016-12-29T21:46:43Z</time>
      </trkpt>
      <trkpt lat="43.6633" lon="2.81836">
        <ele>800.058</ele>
        <time>2016-12-29T21:47:03Z</time>
      </trkpt>
      <trkpt lat="43.66305" lon="2.81786">
        <ele>800.027</ele>
        <time>2016-12-29T21:47:23Z</time>
      </trkpt>
      <trkpt lat="43.66295" lon="2.81747">
        <ele>800.024</ele>
        <time>2016-12-29T21:47:43Z</time>
      </trkpt>
      <trkpt lat="43.66272" lon="2.81774">
        <ele>800.035</ele>
        <time>2016-12-29T21:48:03Z</time>
      </trkpt>
      <trkpt lat="43.66233" lon="2.81782">
        <ele>802.184</ele>
        <time>2016-12-29T21:48:23Z</time>
      </trkpt>
      <trkpt lat="43.66184" lon="2.81758">
        <ele>805.075</ele>
        <time>2016-12-29T21:48:43Z</time>
      </trkpt>
      <trkpt lat="43.66151" lon="2.81706">
        <ele>807.943</ele>
        <time>2016-12-29T21:49:03Z</time>
      </trkpt>
      <trkpt lat="43.66141" lon="2.81648">
        <ele>808.964</ele>
        <time>2016-12-29T21:49:23Z</time>
      </trkpt>
      <trkpt lat="43.66164" lon="2.81585">
        <ele>804.51</ele>
        <time>2016-12-29T21:49:43Z</time>
      </trkpt>
      <trkpt lat="43.66184" lon="2.81502">
        <ele>806.408</ele>
        <time>2016-12-29T21:50:03Z</time>
      </trkpt>
      <trkpt lat="43.66208" lon="2.8146">
        <ele>807.871</ele>
        <time>2016-12-29T21:50:23Z</time>
      </trkpt>
      <trkpt lat="43.66289" lon="2.81405">
        <ele>805.934</ele>
        <time>2016-12-29T21:50:43Z</time>
      </trkpt>
      <trkpt lat="43.66343" lon="2.81388">
        <ele>803.86</ele>
        <time>2016-12-29T21:51:03Z</time>
      </trkpt>
      <trkpt lat="43.66412" lon="2.81397">
        <ele>799.459</ele>
        <time>2016-12-29T21:51:23Z</time>
      </trkpt>
      <trkpt lat="43.66456" lon="2.81401">
        <ele>799.316</ele>
        <time>2016-12-29T21:51:43Z</time>
      </trkpt>
      <trkpt lat="43.6652" lon="2.8138">
        <ele>799.287</ele>
        <time>2016-12-29T21:52:23Z</time>
      </trkpt>
      <trkpt lat="43.66583" lon="2.81333">
        <ele>798.376</ele>
        <time>2016-12-29T21:52:43Z</time>
      </trkpt>
      <trkpt lat="43.66563" lon="2.81327">
        <ele>802.587</ele>
        <time>2016-12-29T21:53:03Z</time>
      </trkpt>
      <trkpt lat="43.6648" lon="2.81355">
        <ele>811.213</ele>
        <time>2016-12-29T21:53:23Z</time>
      </trkpt>
      <trkpt lat="43.66448" lon="2.81339">
        <ele>821.843</ele>
        <time>2021-04-17T04:32:50Z</time>
      </trkpt>
      <trkpt lat="43.66402" lon="2.81292">
        <ele>828.307</ele>
        <time>2016-12-29T21:53:43Z</time>
      </trkpt>
      <trkpt lat="43.66267" lon="2.81305">
        <ele>841.508</ele>
        <time>2016-12-29T21:54:03Z</time>
      </trkpt>
      <trkpt lat="43.66259" lon="2.81294">
        <ele>842.868</ele>
        <time>2016-12-29T21:54:23Z</time>
      </trkpt>
      <trkpt lat="43.66164" lon="2.81315">
        <ele>852.461</ele>
        <time>2016-12-29T21:54:43Z</time>
      </trkpt>
      <trkpt lat="43.66149" lon="2.81191">
        <ele>852.057</ele>
        <time>2016-12-29T21:55:03Z</time>
      </trkpt>
      <trkpt lat="43.66113" lon="2.81085">
        <ele>850.926</ele>
        <time>2016-12-29T21:55:23Z</time>
      </trkpt>
      <trkpt lat="43.66011" lon="2.80966">
        <ele>856.593</ele>
        <time>2016-12-29T21:55:43Z</time>
      </trkpt>
      <trkpt lat="43.6604" lon="2.80945">
        <ele>848.524</ele>
        <time>2016-12-29T21:56:03Z</time>
      </trkpt>
      <trkpt lat="43.66028" lon="2.8088">
        <ele>845.433</ele>
        <time>2016-12-29T21:56:23Z</time>
      </trkpt>
      <trkpt lat="43.65983" lon="2.80792">
        <ele>843.564</ele>
        <time>2016-12-29T21:56:43Z</time>
      </trkpt>
      <trkpt lat="43.65973" lon="2.80729">
        <ele>839.577</ele>
        <time>2016-12-29T21:57:03Z</time>
      </trkpt>
      <trkpt lat="43.6595" lon="2.80644">
        <ele>836.661</ele>
        <time>2016-12-29T21:57:23Z</time>
      </trkpt>
      <trkpt lat="43.65905" lon="2.8053">
        <ele>831.527</ele>
        <time>2016-12-29T21:57:43Z</time>
      </trkpt>
      <trkpt lat="43.65869" lon="2.80496">
        <ele>829.008</ele>
        <time>2016-12-29T21:58:03Z</time>
      </trkpt>
      <trkpt lat="43.65818" lon="2.80489">
        <ele>823.694</ele>
        <time>2016-12-29T21:58:23Z</time>
      </trkpt>
      <trkpt lat="43.6577" lon="2.80516">
        <ele>823.777</ele>
        <time>2016-12-29T21:58:43Z</time>
      </trkpt>
      <trkpt lat="43.65739" lon="2.80505">
        <ele>818.583</ele>
        <time>2016-12-29T21:59:03Z</time>
      </trkpt>
      <trkpt lat="43.65699" lon="2.80513">
        <ele>819.362</ele>
        <time>2016-12-29T21:59:23Z</time>
      </trkpt>
      <trkpt lat="43.6559" lon="2.80502">
        <ele>809.669</ele>
        <time>2016-12-29T21:59:43Z</time>
      </trkpt>
      <trkpt lat="43.65481" lon="2.80459">
        <ele>799.32</ele>
        <time>2016-12-29T22:00:03Z</time>
      </trkpt>
      <trkpt lat="43.65437" lon="2.80501">
        <ele>802.299</ele>
        <time>2016-12-29T22:00:23Z</time>
      </trkpt>
      <trkpt lat="43.6542" lon="2.80464">
        <ele>800.07</ele>
        <time>2016-12-29T22:00:43Z</time>
      </trkpt>
      <trkpt lat="43.6542" lon="2.80419">
        <ele>792.478</ele>
        <time>2016-12-29T22:01:03Z</time>
      </trkpt>
      <trkpt lat="43.65409" lon="2.8039">
        <ele>788.733</ele>
        <time>2016-12-29T22:01:23Z</time>
      </trkpt>
      <trkpt lat="43.65313" lon="2.8031">
        <ele>788.726</ele>
        <time>2016-12-29T22:01:43Z</time>
      </trkpt>
      <trkpt lat="43.65276" lon="2.803">
        <ele>791.408</ele>
        <time>2016-12-29T22:02:03Z</time>
      </trkpt>
      <trkpt lat="43.65229" lon="2.8026">
        <ele>790.544</ele>
        <time>2016-12-29T22:02:23Z</time>
      </trkpt>
      <trkpt lat="43.65251" lon="2.80214">
        <ele>781.093</ele>
        <time>2016-12-29T22:03:03Z</time>
      </trkpt>
      <trkpt lat="43.65254" lon="2.80156">
        <ele>777.042</ele>
        <time>2016-12-29T22:03:23Z</time>
      </trkpt>
      <trkpt lat="43.65192" lon="2.80048">
        <ele>777.119</ele>
        <time>2016-12-29T22:03:43Z</time>
      </trkpt>
      <trkpt lat="43.65144" lon="2.79997">
        <ele>777.04</ele>
        <time>2016-12-29T22:04:03Z</time>
      </trkpt>
      <trkpt lat="43.65096" lon="2.79967">
        <ele>777.089</ele>
        <time>2016-12-29T22:04:23Z</time>
      </trkpt>
      <trkpt lat="43.65043" lon="2.79896">
        <ele>777.69</ele>
        <time>2016-12-29T22:04:43Z</time>
      </trkpt>
      <trkpt lat="43.65009" lon="2.79802">
        <ele>777.858</ele>
        <time>2016-12-29T22:05:03Z</time>
      </trkpt>
      <trkpt lat="43.65003" lon="2.79703">
        <ele>781.952</ele>
        <time>2016-12-29T22:05:23Z</time>
      </trkpt>
      <trkpt lat="43.65014" lon="2.79647">
        <ele>782.117</ele>
        <time>2016-12-29T22:05:43Z</time>
      </trkpt>
      <trkpt lat="43.65014" lon="2.79576">
        <ele>784.108</ele>
        <time>2016-12-29T22:06:03Z</time>
      </trkpt>
      <trkpt lat="43.65023" lon="2.7951">
        <ele>779.912</ele>
        <time>2016-12-29T22:06:23Z</time>
      </trkpt>
      <trkpt lat="43.65017" lon="2.79452">
        <ele>778.355</ele>
        <time>2016-12-29T22:06:43Z</time>
      </trkpt>
      <trkpt lat="43.64995" lon="2.79433">
        <ele>778.031</ele>
        <time>2016-12-29T22:07:03Z</time>
      </trkpt>
      <trkpt lat="43.64952" lon="2.7942">
        <ele>777.01</ele>
        <time>2016-12-29T22:07:23Z</time>
      </trkpt>
      <trkpt lat="43.64903" lon="2.79491">
        <ele>777.087</ele>
        <time>2016-12-29T22:07:43Z</time>
      </trkpt>
      <trkpt lat="43.6488" lon="2.79463">
        <ele>777.128</ele>
        <time>2016-12-29T22:08:03Z</time>
      </trkpt>
      <trkpt lat="43.64835" lon="2.79347">
        <ele>779.337</ele>
        <time>2016-12-29T22:08:23Z</time>
      </trkpt>
      <trkpt lat="43.64841" lon="2.79263">
        <ele>777.328</ele>
        <time>2016-12-29T22:08:43Z</time>
      </trkpt>
      <trkpt lat="43.64829" lon="2.79207">
        <ele>777.398</ele>
        <time>2016-12-29T22:09:03Z</time>
      </trkpt>
      <trkpt lat="43.64809" lon="2.79175">
        <ele>777.915</ele>
        <time>2016-12-29T22:09:23Z</time>
      </trkpt>
      <trkpt lat="43.64804" lon="2.79139">
        <ele>779.226</ele>
        <time>2016-12-29T22:09:43Z</time>
      </trkpt>
      <trkpt lat="43.64844" lon="2.7904">
        <ele>779.508</ele>
        <time>2016-12-29T22:10:03Z</time>
      </trkpt>
      <trkpt lat="43.64823" lon="2.78911">
        <ele>778.726</ele>
        <time>2016-12-29T22:10:23Z</time>
      </trkpt>
      <trkpt lat="43.64795" lon="2.78832">
        <ele>779.639</ele>
        <time>2016-12-29T22:10:43Z</time>
      </trkpt>
      <trkpt lat="43.64776" lon="2.78763">
        <ele>777.745</ele>
        <time>2016-12-29T22:11:03Z</time>
      </trkpt>
      <trkpt lat="43.64733" lon="2.78716">
        <ele>778.054</ele>
        <time>2016-12-29T22:11:23Z</time>
      </trkpt>
      <trkpt lat="43.64702" lon="2.78664">
        <ele>777.071</ele>
        <time>2016-12-29T22:11:43Z</time>
      </trkpt>
      <trkpt lat="43.6465" lon="2.78611">
        <ele>778.792</ele>
        <time>2016-12-29T22:12:03Z</time>
      </trkpt>
      <trkpt lat="43.64618" lon="2.78626">
        <ele>786.141</ele>
        <time>2016-12-29T22:12:23Z</time>
      </trkpt>
      <trkpt lat="43.6459" lon="2.78572">
        <ele>786.782</ele>
        <time>2016-12-29T22:12:43Z</time>
      </trkpt>
      <trkpt lat="43.64501" lon="2.78267">
        <ele>788.741</ele>
        <time>2016-12-29T22:13:03Z</time>
      </trkpt>
      <trkpt lat="43.64456" lon="2.78216">
        <ele>791.181</ele>
        <time>2016-12-29T22:13:23Z</time>
      </trkpt>
      <trkpt lat="43.64433" lon="2.7822">
        <ele>794.009</ele>
        <time>2016-12-29T22:13:43Z</time>
      </trkpt>
      <trkpt lat="43.64404" lon="2.78263">
        <ele>804.108</ele>
        <time>2016-12-29T22:14:03Z</time>
      </trkpt>
      <trkpt lat="43.64352" lon="2.78049">
        <ele>788.231</ele>
        <time>2016-12-29T22:14:23Z</time>
      </trkpt>
      <trkpt lat="43.64324" lon="2.77993">
        <ele>788.794</ele>
        <time>2016-12-29T22:14:43Z</time>
      </trkpt>
      <trkpt lat="43.6431" lon="2.77988">
        <ele>791.26</ele>
        <time>2016-12-29T22:15:03Z</time>
      </trkpt>
      <trkpt lat="43.64332" lon="2.77933">
        <ele>781.889</ele>
        <time>2016-12-29T22:15:23Z</time>
      </trkpt>
      <trkpt lat="43.64334" lon="2.7784">
        <ele>778.276</ele>
        <time>2016-12-29T22:15:43Z</time>
      </trkpt>
      <trkpt lat="43.64326" lon="2.77808">
        <ele>777.127</ele>
        <time>2016-12-29T22:16:03Z</time>
      </trkpt>
      <trkpt lat="43.64293" lon="2.77832">
        <ele>777.586</ele>
        <time>2016-12-29T22:16:23Z</time>
      </trkpt>
      <trkpt lat="43.64244" lon="2.77894">
        <ele>778.287</ele>
        <time>2016-12-29T22:16:43Z</time>
      </trkpt>
      <trkpt lat="43.64203" lon="2.7786">
        <ele>777.049</ele>
        <time>2016-12-29T22:17:03Z</time>
      </trkpt>
      <trkpt lat="43.64119" lon="2.77855">
        <ele>777.002</ele>
        <time>2016-12-29T22:17:23Z</time>
      </trkpt>
      <trkpt lat="43.64039" lon="2.77868">
        <ele>777.722</ele>
        <time>2016-12-29T22:17:43Z</time>
      </trkpt>
      <trkpt lat="43.64012" lon="2.77821">
        <ele>777.008</ele>
        <time>2016-12-29T22:18:03Z</time>
      </trkpt>
      <trkpt lat="43.63976" lon="2.77823">
        <ele>777.021</ele>
        <time>2016-12-29T22:18:23Z</time>
      </trkpt>
      <trkpt lat="43.63941" lon="2.77858">
        <ele>777.894</ele>
        <time>2016-12-29T22:18:43Z</time>
      </trkpt>
      <trkpt lat="43.6388" lon="2.77797">
        <ele>777.05</ele>
        <time>2016-12-29T22:19:03Z</time>
      </trkpt>
      <trkpt lat="43.63809" lon="2.77757">
        <ele>777.089</ele>
        <time>2016-12-29T22:19:23Z</time>
      </trkpt>
      <trkpt lat="43.63768" lon="2.7777">
        <ele>777.016</ele>
        <time>2016-12-29T22:19:43Z</time>
      </trkpt>
      <trkpt lat="43.63694" lon="2.77727">
        <ele>777.027</ele>
        <time>2016-12-29T22:20:03Z</time>
      </trkpt>
      <trkpt lat="43.63591" lon="2.77583">
        <ele>777.026</ele>
        <time>2016-12-29T22:20:23Z</time>
      </trkpt>
      <trkpt lat="43.63514" lon="2.77542">
        <ele>777.377</ele>
        <time>2016-12-29T22:20:43Z</time>
      </trkpt>
      <trkpt lat="43.63484" lon="2.77544">
        <ele>777.939</ele>
        <time>2016-12-29T22:21:03Z</time>
      </trkpt>
      <trkpt lat="43.63459" lon="2.77514">
        <ele>777.201</ele>
        <time>2016-12-29T22:21:23Z</time>
      </trkpt>
      <trkpt lat="43.63436" lon="2.77473">
        <ele>777.321</ele>
        <time>2016-12-29T22:21:43Z</time>
      </trkpt>
      <trkpt lat="43.63421" lon="2.77407">
        <ele>777.008</ele>
        <time>2016-12-29T22:22:03Z</time>
      </trkpt>
      <trkpt lat="43.63368" lon="2.77435">
        <ele>781.97</ele>
        <time>2016-12-29T22:22:23Z</time>
      </trkpt>
      <trkpt lat="43.63344" lon="2.77284">
        <ele>778.763</ele>
        <time>2016-12-29T22:22:43Z</time>
      </trkpt>
      <trkpt lat="43.63326" lon="2.77122">
        <ele>778.839</ele>
        <time>2016-12-29T22:23:03Z</time>
      </trkpt>
      <trkpt lat="43.63298" lon="2.77039">
        <ele>781.558</ele>
        <time>2016-12-29T22:23:23Z</time>
      </trkpt>
      <trkpt lat="43.63317" lon="2.76995">
        <ele>782.685</ele>
        <time>2016-12-29T22:23:43Z</time>
      </trkpt>
      <trkpt lat="43.63391" lon="2.76938">
        <ele>780.596</ele>
        <time>2016-12-29T22:24:03Z</time>
      </trkpt>
      <trkpt lat="43.63462" lon="2.7686">
        <ele>780.665</ele>
        <time>2016-12-29T22:24:23Z</time>
      </trkpt>
      <trkpt lat="43.63457" lon="2.76833">
        <ele>784.356</ele>
        <time>2016-12-29T22:24:43Z</time>
      </trkpt>
      <trkpt lat="43.6346" lon="2.76801">
        <ele>787.831</ele>
        <time>2016-12-29T22:25:03Z</time>
      </trkpt>
      <trkpt lat="43.63445" lon="2.76794">
        <ele>791.661</ele>
        <time>2016-12-29T22:25:23Z</time>
      </trkpt>
      <trkpt lat="43.63427" lon="2.76817">
        <ele>791.207</ele>
        <time>2016-12-29T22:25:43Z</time>
      </trkpt>
      <trkpt lat="43.63334" lon="2.76817">
        <ele>807.008</ele>
        <time>2016-12-29T22:26:03Z</time>
      </trkpt>
      <trkpt lat="43.63281" lon="2.76854">
        <ele>817.69</ele>
        <time>2021-04-17T05:05:50Z</time>
      </trkpt>
      <trkpt lat="43.63226" lon="2.76854">
        <ele>823.073</ele>
        <time>2021-04-17T05:06:10Z</time>
      </trkpt>
      <trkpt lat="43.63209" lon="2.76837">
        <ele>828.119</ele>
        <time>2021-04-17T05:06:30Z</time>
      </trkpt>
      <trkpt lat="43.63166" lon="2.76832">
        <ele>825.278</ele>
        <time>2016-12-29T22:26:43Z</time>
      </trkpt>
      <trkpt lat="43.63109" lon="2.76712">
        <ele>840.465</ele>
        <time>2016-12-29T22:27:03Z</time>
      </trkpt>
      <trkpt lat="43.63073" lon="2.76572">
        <ele>845.386</ele>
        <time>2016-12-29T22:27:23Z</time>
      </trkpt>
      <trkpt lat="43.62972" lon="2.76532">
        <ele>850.145</ele>
        <time>2016-12-29T22:27:43Z</time>
      </trkpt>
      <trkpt lat="43.62885" lon="2.76466">
        <ele>849.476</ele>
        <time>2016-12-29T22:28:03Z</time>
      </trkpt>
      <trkpt lat="43.62807" lon="2.76447">
        <ele>844.263</ele>
        <time>2016-12-29T22:28:23Z</time>
      </trkpt>
      <trkpt lat="43.62781" lon="2.76386">
        <ele>843.344</ele>
        <time>2016-12-29T22:28:43Z</time>
      </trkpt>
      <trkpt lat="43.62748" lon="2.76339">
        <ele>845.618</ele>
        <time>2016-12-29T22:29:03Z</time>
      </trkpt>
      <trkpt lat="43.6275" lon="2.76218">
        <ele>843.808</ele>
        <time>2016-12-29T22:29:23Z</time>
      </trkpt>
      <trkpt lat="43.62697" lon="2.76121">
        <ele>859.893</ele>
        <time>2021-04-17T05:09:50Z</time>
      </trkpt>
      <trkpt lat="43.62651" lon="2.76091">
        <ele>857.546</ele>
        <time>2016-12-29T22:30:03Z</time>
      </trkpt>
      <trkpt lat="43.62592" lon="2.76084">
        <ele>863.792</ele>
        <time>2016-12-29T22:30:23Z</time>
      </trkpt>
      <trkpt lat="43.62507" lon="2.76111">
        <ele>864.241</ele>
        <time>2016-12-29T22:30:43Z</time>
      </trkpt>
      <trkpt lat="43.62471" lon="2.76126">
        <ele>864.198</ele>
        <time>2016-12-29T22:31:03Z</time>
      </trkpt>
      <trkpt lat="43.62447" lon="2.76152">
        <ele>866.949</ele>
        <time>2016-12-29T22:31:23Z</time>
      </trkpt>
      <trkpt lat="43.62381" lon="2.7617">
        <ele>871.588</ele>
        <time>2016-12-29T22:31:43Z</time>
      </trkpt>
      <trkpt lat="43.6233" lon="2.76235">
        <ele>875.419</ele>
        <time>2016-12-29T22:32:03Z</time>
      </trkpt>
      <trkpt lat="43.62253" lon="2.76228">
        <ele>873.517</ele>
        <time>2016-12-29T22:32:23Z</time>
      </trkpt>
      <trkpt lat="43.62186" lon="2.76234">
        <ele>877.687</ele>
        <time>2016-12-29T22:32:43Z</time>
      </trkpt>
      <trkpt lat="43.62116" lon="2.76227">
        <ele>883.815</ele>
        <time>2016-12-29T22:33:03Z</time>
      </trkpt>
      <trkpt lat="43.62055" lon="2.76265">
        <ele>890.708</ele>
        <time>2016-12-29T22:33:23Z</time>
      </trkpt>
      <trkpt lat="43.61981" lon="2.76276">
        <ele>893.498</ele>
        <time>2016-12-29T22:33:43Z</time>
      </trkpt>
      <trkpt lat="43.61897" lon="2.76227">
        <ele>895.621</ele>
        <time>2016-12-29T22:34:03Z</time>
      </trkpt>
      <trkpt lat="43.61831" lon="2.76235">
        <ele>904.527</ele>
        <time>2016-12-29T22:34:23Z</time>
      </trkpt>
      <trkpt lat="43.61707" lon="2.7628">
        <ele>918.556</ele>
        <time>2016-12-29T22:34:43Z</time>
      </trkpt>
      <trkpt lat="43.61647" lon="2.76283">
        <ele>920.563</ele>
        <time>2016-12-29T22:35:03Z</time>
      </trkpt>
      <trkpt lat="43.61615" lon="2.7626">
        <ele>920.444</ele>
        <time>2016-12-29T22:35:23Z</time>
      </trkpt>
      <trkpt lat="43.61597" lon="2.7622">
        <ele>915.793</ele>
        <time>2016-12-29T22:35:43Z</time>
      </trkpt>
      <trkpt lat="43.61573" lon="2.76145">
        <ele>907.354</ele>
        <time>2016-12-29T22:36:03Z</time>
      </trkpt>
      <trkpt lat="43.61549" lon="2.76125">
        <ele>907.149</ele>
        <time>2016-12-29T22:36:23Z</time>
      </trkpt>
      <trkpt lat="43.615" lon="2.76023">
        <ele>910.702</ele>
        <time>2016-12-29T22:36:43Z</time>
      </trkpt>
      <trkpt lat="43.61465" lon="2.75992">
        <ele>917.122</ele>
        <time>2016-12-29T22:37:03Z</time>
      </trkpt>
      <trkpt lat="43.6147" lon="2.75964">
        <ele>920.508</ele>
        <time>2016-12-29T22:37:23Z</time>
      </trkpt>
      <trkpt lat="43.6142" lon="2.75903">
        <ele>927.941</ele>
        <time>2016-12-29T22:37:43Z</time>
      </trkpt>
      <trkpt lat="43.61494" lon="2.75837">
        <ele>934.934</ele>
        <time>2016-12-29T22:38:03Z</time>
      </trkpt>
      <trkpt lat="43.61544" lon="2.75737">
        <ele>937.62</ele>
        <time>2016-12-29T22:38:23Z</time>
      </trkpt>
      <trkpt lat="43.61576" lon="2.7571">
        <ele>943.239</ele>
        <time>2016-12-29T22:38:43Z</time>
      </trkpt>
      <trkpt lat="43.616" lon="2.75711">
        <ele>948.336</ele>
        <time>2016-12-29T22:39:03Z</time>
      </trkpt>
      <trkpt lat="43.61614" lon="2.75681">
        <ele>952.957</ele>
        <time>2016-12-29T22:39:23Z</time>
      </trkpt>
      <trkpt lat="43.61609" lon="2.75654">
        <ele>954.016</ele>
        <time>2016-12-29T22:39:43Z</time>
      </trkpt>
      <trkpt lat="43.61573" lon="2.75628">
        <ele>950.397</ele>
        <time>2016-12-29T22:40:03Z</time>
      </trkpt>
      <trkpt lat="43.61569" lon="2.75578">
        <ele>953.138</ele>
        <time>2016-12-29T22:40:23Z</time>
      </trkpt>
      <trkpt lat="43.61588" lon="2.75498">
        <ele>955.87</ele>
        <time>2016-12-29T22:40:43Z</time>
      </trkpt>
      <trkpt lat="43.61623" lon="2.75396">
        <ele>952.217</ele>
        <time>2016-12-29T22:41:03Z</time>
      </trkpt>
      <trkpt lat="43.61644" lon="2.75373">
        <ele>952.408</ele>
        <time>2016-12-29T22:41:23Z</time>
      </trkpt>
      <trkpt lat="43.61673" lon="2.75311">
        <ele>950.09</ele>
        <time>2016-12-29T22:41:43Z</time>
      </trkpt>
      <trkpt lat="43.61594" lon="2.75311">
        <ele>952.013</ele>
        <time>2016-12-29T22:42:03Z</time>
      </trkpt>
      <trkpt lat="43.61524" lon="2.75292">
        <ele>944.229</ele>
        <time>2016-12-29T22:42:23Z</time>
      </trkpt>
      <trkpt lat="43.61406" lon="2.75144">
        <ele>932.598</ele>
        <time>2016-12-29T22:42:43Z</time>
      </trkpt>
      <trkpt lat="43.61324" lon="2.75169">
        <ele>921.235</ele>
        <time>2016-12-29T22:43:03Z</time>
      </trkpt>
      <trkpt lat="43.6124" lon="2.75153">
        <ele>918.716</ele>
        <time>2016-12-29T22:43:23Z</time>
      </trkpt>
      <trkpt lat="43.61204" lon="2.751">
        <ele>916.655</ele>
        <time>2016-12-29T22:43:43Z</time>
      </trkpt>
      <trkpt lat="43.61209" lon="2.75041">
        <ele>914.046</ele>
        <time>2016-12-29T22:44:03Z</time>
      </trkpt>
      <trkpt lat="43.6124" lon="2.74978">
        <ele>911.686</ele>
        <time>2016-12-29T22:44:23Z</time>
      </trkpt>
      <trkpt lat="43.6127" lon="2.74935">
        <ele>910.06</ele>
        <time>2016-12-29T22:44:43Z</time>
      </trkpt>
      <trkpt lat="43.613" lon="2.74848">
        <ele>907.526</ele>
        <time>2016-12-29T22:45:03Z</time>
      </trkpt>
      <trkpt lat="43.61269" lon="2.74764">
        <ele>906.608</ele>
        <time>2016-12-29T22:45:23Z</time>
      </trkpt>
      <trkpt lat="43.61233" lon="2.74748">
        <ele>900.885</ele>
        <time>2016-12-29T22:45:43Z</time>
      </trkpt>
      <trkpt lat="43.61216" lon="2.74709">
        <ele>900.328</ele>
        <time>2016-12-29T22:46:03Z</time>
      </trkpt>
      <trkpt lat="43.61222" lon="2.74531">
        <ele>895.154</ele>
        <time>2016-12-29T22:46:23Z</time>
      </trkpt>
      <trkpt lat="43.6118" lon="2.74404">
        <ele>893.723</ele>
        <time>2016-12-29T22:46:43Z</time>
      </trkpt>
      <trkpt lat="43.61149" lon="2.74385">
        <ele>892.69</ele>
        <time>2016-12-29T22:47:03Z</time>
      </trkpt>
      <trkpt lat="43.61091" lon="2.74461">
        <ele>887.671</ele>
        <time>2016-12-29T22:47:23Z</time>
      </trkpt>
      <trkpt lat="43.61066" lon="2.74454">
        <ele>885.57</ele>
        <time>2016-12-29T22:47:43Z</time>
      </trkpt>
      <trkpt lat="43.61028" lon="2.7433">
        <ele>884.351</ele>
        <time>2016-12-29T22:48:03Z</time>
      </trkpt>
      <trkpt lat="43.60994" lon="2.74249">
        <ele>881.162</ele>
        <time>2016-12-29T22:48:23Z</time>
      </trkpt>
      <trkpt lat="43.60997" lon="2.74174">
        <ele>877.083</ele>
        <time>2016-12-29T22:48:43Z</time>
      </trkpt>
      <trkpt lat="43.61048" lon="2.74042">
        <ele>879.411</ele>
        <time>2016-12-29T22:49:03Z</time>
      </trkpt>
      <trkpt lat="43.61045" lon="2.73989">
        <ele>875.408</ele>
        <time>2016-12-29T22:49:23Z</time>
      </trkpt>
      <trkpt lat="43.61019" lon="2.7383">
        <ele>869.923</ele>
        <time>2016-12-29T22:49:43Z</time>
      </trkpt>
      <trkpt lat="43.61004" lon="2.7377">
        <ele>868.096</ele>
        <time>2016-12-29T22:50:03Z</time>
      </trkpt>
      <trkpt lat="43.61021" lon="2.7367">
        <ele>871.632</ele>
        <time>2016-12-29T22:50:23Z</time>
      </trkpt>
      <trkpt lat="43.61006" lon="2.73621">
        <ele>871.231</ele>
        <time>2016-12-29T22:50:43Z</time>
      </trkpt>
      <trkpt lat="43.60962" lon="2.73598">
        <ele>866.728</ele>
        <time>2016-12-29T22:51:03Z</time>
      </trkpt>
      <trkpt lat="43.60882" lon="2.73618">
        <ele>855.779</ele>
        <time>2016-12-29T22:51:23Z</time>
      </trkpt>
      <trkpt lat="43.60846" lon="2.73564">
        <ele>858.078</ele>
        <time>2016-12-29T22:51:43Z</time>
      </trkpt>
      <trkpt lat="43.60805" lon="2.73536">
        <ele>853.699</ele>
        <time>2016-12-29T22:52:03Z</time>
      </trkpt>
      <trkpt lat="43.6078" lon="2.73458">
        <ele>844.927</ele>
        <time>2016-12-29T22:52:23Z</time>
      </trkpt>
      <trkpt lat="43.60797" lon="2.73347">
        <ele>838.768</ele>
        <time>2016-12-29T22:52:43Z</time>
      </trkpt>
      <trkpt lat="43.60833" lon="2.73216">
        <ele>827.614</ele>
        <time>2016-12-29T22:53:03Z</time>
      </trkpt>
      <trkpt lat="43.60833" lon="2.7306">
        <ele>818.108</ele>
        <time>2016-12-29T22:53:23Z</time>
      </trkpt>
      <trkpt lat="43.60813" lon="2.72965">
        <ele>818.279</ele>
        <time>2016-12-29T22:53:43Z</time>
      </trkpt>
      <trkpt lat="43.60851" lon="2.72884">
        <ele>819.922</ele>
        <time>2016-12-29T22:54:03Z</time>
      </trkpt>
      <trkpt lat="43.60878" lon="2.72776">
        <ele>821.568</ele>
        <time>2016-12-29T22:54:23Z</time>
      </trkpt>
      <trkpt lat="43.60879" lon="2.72766">
        <ele>822.087</ele>
        <time>2016-12-29T22:54:43Z</time>
      </trkpt>
      <trkpt lat="43.60853" lon="2.72649">
        <ele>829.524</ele>
        <time>2016-12-29T22:55:03Z</time>
      </trkpt>
      <trkpt lat="43.60875" lon="2.72619">
        <ele>826.575</ele>
        <time>2016-12-29T22:55:23Z</time>
      </trkpt>
      <trkpt lat="43.60958" lon="2.72414">
        <ele>818.954</ele>
        <time>2016-12-29T22:55:43Z</time>
      </trkpt>
      <trkpt lat="43.60984" lon="2.72249">
        <ele>811.155</ele>
        <time>2016-12-29T22:59:43Z</time>
      </trkpt>
      <trkpt lat="43.60959" lon="2.72164">
        <ele>807.795</ele>
        <time>2016-12-29T23:00:43Z</time>
      </trkpt>
      <trkpt lat="43.60896" lon="2.72048">
        <ele>799.749</ele>
        <time>2016-12-29T23:02:23Z</time>
      </trkpt>
      <trkpt lat="43.6083" lon="2.71833">
        <ele>789.923</ele>
        <time>2016-12-29T23:02:43Z</time>
      </trkpt>
      <trkpt lat="43.60788" lon="2.71661">
        <ele>780.608</ele>
        <time>2016-12-29T23:03:03Z</time>
      </trkpt>
      <trkpt lat="43.60729" lon="2.71515">
        <ele>771.366</ele>
        <time>2016-12-29T23:04:03Z</time>
      </trkpt>
      <trkpt lat="43.60704" lon="2.71358">
        <ele>768.749</ele>
        <time>2016-12-29T23:04:23Z</time>
      </trkpt>
      <trkpt lat="43.60662" lon="2.71253">
        <ele>766.285</ele>
        <time>2016-12-29T23:04:43Z</time>
      </trkpt>
      <trkpt lat="43.60546" lon="2.71075">
        <ele>748.374</ele>
        <time>2016-12-29T23:05:03Z</time>
      </trkpt>
      <trkpt lat="43.6044" lon="2.70936">
        <ele>728.351</ele>
        <time>2016-12-29T23:05:23Z</time>
      </trkpt>
      <trkpt lat="43.60342" lon="2.70697">
        <ele>705.162</ele>
        <time>2016-12-29T23:05:43Z</time>
      </trkpt>
      <trkpt lat="43.60295" lon="2.7055">
        <ele>688.671</ele>
        <time>2016-12-29T23:06:03Z</time>
      </trkpt>
      <trkpt lat="43.60265" lon="2.70546">
        <ele>690.922</ele>
        <time>2016-12-29T23:06:23Z</time>
      </trkpt>
      <trkpt lat="43.60252" lon="2.70486">
        <ele>692.247</ele>
        <time>2016-12-29T23:06:43Z</time>
      </trkpt>
      <trkpt lat="43.60226" lon="2.70441">
        <ele>693.629</ele>
        <time>2021-04-17T05:40:50Z</time>
      </trkpt>
      <trkpt lat="43.60214" lon="2.70435">
        <ele>693.621</ele>
        <time>2021-04-17T05:41:10Z</time>
      </trkpt>
      <trkpt lat="43.60211" lon="2.70317">
        <ele>687.608</ele>
        <time>2021-04-17T05:41:30Z</time>
      </trkpt>
      <trkpt lat="43.60219" lon="2.70293">
        <ele>685.221</ele>
        <time>2021-04-17T05:41:50Z</time>
      </trkpt>
      <trkpt lat="43.60202" lon="2.70265">
        <ele>685.214</ele>
        <time>2021-04-17T05:42:10Z</time>
      </trkpt>
      <trkpt lat="43.60188" lon="2.70303">
        <ele>689.33</ele>
        <time>2021-04-17T05:42:30Z</time>
      </trkpt>
      <trkpt lat="43.60172" lon="2.70292">
        <ele>690.439</ele>
        <time>2021-04-17T05:42:50Z</time>
      </trkpt>
      <trkpt lat="43.60164" lon="2.70269">
        <ele>689.946</ele>
        <time>2021-04-17T05:43:10Z</time>
      </trkpt>
      <trkpt lat="43.60147" lon="2.70262">
        <ele>694.287</ele>
        <time>2021-04-17T05:43:30Z</time>
      </trkpt>
      <trkpt lat="43.60118" lon="2.70228">
        <ele>698.326</ele>
        <time>2021-04-17T05:43:50Z</time>
      </trkpt>
      <trkpt lat="43.60101" lon="2.70232">
        <ele>703.377</ele>
        <time>2021-04-17T05:44:10Z</time>
      </trkpt>
      <trkpt lat="43.60094" lon="2.70249">
        <ele>681.693</ele>
        <time>2016-12-29T23:11:03Z</time>
      </trkpt>
      <trkpt lat="43.60078" lon="2.70244">
        <ele>682.065</ele>
        <time>2016-12-29T23:11:23Z</time>
      </trkpt>
      <trkpt lat="43.60051" lon="2.70208">
        <ele>681.721</ele>
        <time>2016-12-29T23:11:43Z</time>
      </trkpt>
      <trkpt lat="43.60007" lon="2.70184">
        <ele>682.408</ele>
        <time>2016-12-29T23:12:03Z</time>
      </trkpt>
      <trkpt lat="43.59994" lon="2.70174">
        <ele>682.246</ele>
        <time>2016-12-29T23:12:23Z</time>
      </trkpt>
      <trkpt lat="43.59982" lon="2.70178">
        <ele>682.479</ele>
        <time>2016-12-29T23:12:43Z</time>
      </trkpt>
      <trkpt lat="43.59964" lon="2.7019">
        <ele>683.115</ele>
        <time>2016-12-29T23:13:03Z</time>
      </trkpt>
      <trkpt lat="43.59951" lon="2.70208">
        <ele>684.344</ele>
        <time>2016-12-29T23:13:23Z</time>
      </trkpt>
      <trkpt lat="43.59945" lon="2.70198">
        <ele>684.161</ele>
        <time>2016-12-29T23:13:43Z</time>
      </trkpt>
      <trkpt lat="43.59955" lon="2.70161">
        <ele>681.882</ele>
        <time>2016-12-29T23:14:03Z</time>
      </trkpt>
      <trkpt lat="43.5995" lon="2.70156">
        <ele>681.671</ele>
        <time>2016-12-29T23:14:23Z</time>
      </trkpt>
      <trkpt lat="43.59936" lon="2.70165">
        <ele>681.962</ele>
        <time>2016-12-29T23:14:43Z</time>
      </trkpt>
      <trkpt lat="43.59855" lon="2.70103">
        <ele>709.028</ele>
        <time>2016-12-29T23:15:03Z</time>
      </trkpt>
      <trkpt lat="43.59897" lon="2.70004">
        <ele>707.189</ele>
        <time>2016-12-29T23:15:23Z</time>
      </trkpt>
      <trkpt lat="43.59956" lon="2.6994">
        <ele>698.317</ele>
        <time>2016-12-29T23:15:43Z</time>
      </trkpt>
      <trkpt lat="43.59972" lon="2.69892">
        <ele>695.108</ele>
        <time>2016-12-29T23:16:03Z</time>
      </trkpt>
      <trkpt lat="43.59959" lon="2.69713">
        <ele>690.569</ele>
        <time>2016-12-29T23:16:23Z</time>
      </trkpt>
      <trkpt lat="43.59926" lon="2.6958">
        <ele>690.932</ele>
        <time>2016-12-29T23:16:43Z</time>
      </trkpt>
      <trkpt lat="43.59819" lon="2.69448">
        <ele>692.688</ele>
        <time>2016-12-29T23:17:03Z</time>
      </trkpt>
      <trkpt lat="43.59753" lon="2.69415">
        <ele>697.617</ele>
        <time>2016-12-29T23:17:23Z</time>
      </trkpt>
      <trkpt lat="43.59749" lon="2.69373">
        <ele>698.994</ele>
        <time>2016-12-29T23:17:43Z</time>
      </trkpt>
      <trkpt lat="43.59824" lon="2.69179">
        <ele>707.355</ele>
        <time>2016-12-29T23:18:03Z</time>
      </trkpt>
      <trkpt lat="43.59821" lon="2.69035">
        <ele>712.374</ele>
        <time>2016-12-29T23:18:23Z</time>
      </trkpt>
      <trkpt lat="43.59764" lon="2.68945">
        <ele>719.965</ele>
        <time>2016-12-29T23:18:43Z</time>
      </trkpt>
      <trkpt lat="43.59794" lon="2.68661">
        <ele>708.662</ele>
        <time>2016-12-29T23:19:03Z</time>
      </trkpt>
      <trkpt lat="43.59718" lon="2.6813">
        <ele>693.883</ele>
        <time>2016-12-29T23:19:23Z</time>
      </trkpt>
      <trkpt lat="43.5969" lon="2.68034">
        <ele>695.311</ele>
        <time>2016-12-29T23:19:43Z</time>
      </trkpt>
      <trkpt lat="43.59651" lon="2.6799">
        <ele>697.108</ele>
        <time>2016-12-29T23:20:03Z</time>
      </trkpt>
      <trkpt lat="43.59553" lon="2.67937">
        <ele>701.383</ele>
        <time>2016-12-29T23:20:23Z</time>
      </trkpt>
      <trkpt lat="43.59535" lon="2.67882">
        <ele>705.666</ele>
        <time>2016-12-29T23:20:43Z</time>
      </trkpt>
      <trkpt lat="43.59551" lon="2.67797">
        <ele>708.042</ele>
        <time>2016-12-29T23:21:03Z</time>
      </trkpt>
      <trkpt lat="43.59559" lon="2.67617">
        <ele>714.871</ele>
        <time>2016-12-29T23:21:23Z</time>
      </trkpt>
      <trkpt lat="43.59609" lon="2.67532">
        <ele>712.268</ele>
        <time>2016-12-29T23:21:43Z</time>
      </trkpt>
      <trkpt lat="43.59611" lon="2.67484">
        <ele>714.439</ele>
        <time>2016-12-29T23:22:03Z</time>
      </trkpt>
      <trkpt lat="43.59572" lon="2.67365">
        <ele>720.068</ele>
        <time>2016-12-29T23:22:23Z</time>
      </trkpt>
      <trkpt lat="43.59557" lon="2.67351">
        <ele>723.869</ele>
        <time>2016-12-29T23:22:43Z</time>
      </trkpt>
      <trkpt lat="43.59515" lon="2.67256">
        <ele>724.697</ele>
        <time>2016-12-29T23:23:03Z</time>
      </trkpt>
      <trkpt lat="43.59445" lon="2.67188">
        <ele>737.423</ele>
        <time>2016-12-29T23:23:23Z</time>
      </trkpt>
      <trkpt lat="43.59484" lon="2.67094">
        <ele>739.925</ele>
        <time>2016-12-29T23:23:43Z</time>
      </trkpt>
      <trkpt lat="43.59473" lon="2.66988">
        <ele>743.608</ele>
        <time>2016-12-29T23:24:03Z</time>
      </trkpt>
      <trkpt lat="43.59504" lon="2.66817">
        <ele>735.876</ele>
        <time>2016-12-29T23:24:23Z</time>
      </trkpt>
      <trkpt lat="43.59547" lon="2.66686">
        <ele>730.469</ele>
        <time>2016-12-29T23:24:43Z</time>
      </trkpt>
      <trkpt lat="43.59592" lon="2.66606">
        <ele>730.585</ele>
        <time>2016-12-29T23:25:03Z</time>
      </trkpt>
      <trkpt lat="43.59614" lon="2.66456">
        <ele>728.664</ele>
        <time>2016-12-29T23:25:23Z</time>
      </trkpt>
      <trkpt lat="43.596" lon="2.66406">
        <ele>724.131</ele>
        <time>2016-12-29T23:25:43Z</time>
      </trkpt>
      <trkpt lat="43.59599" lon="2.66302">
        <ele>725.172</ele>
        <time>2016-12-29T23:26:03Z</time>
      </trkpt>
      <trkpt lat="43.59588" lon="2.6629">
        <ele>722.081</ele>
        <time>2016-12-29T23:26:23Z</time>
      </trkpt>
      <trkpt lat="43.59581" lon="2.66337">
        <ele>719.752</ele>
        <time>2016-12-29T23:26:43Z</time>
      </trkpt>
      <trkpt lat="43.5953" lon="2.66368">
        <ele>715.487</ele>
        <time>2016-12-29T23:27:03Z</time>
      </trkpt>
      <trkpt lat="43.5948" lon="2.66361">
        <ele>714.742</ele>
        <time>2016-12-29T23:27:23Z</time>
      </trkpt>
      <trkpt lat="43.59359" lon="2.66323">
        <ele>715.526</ele>
        <time>2016-12-29T23:27:43Z</time>
      </trkpt>
      <trkpt lat="43.59311" lon="2.66351">
        <ele>718.108</ele>
        <time>2016-12-29T23:28:03Z</time>
      </trkpt>
      <trkpt lat="43.59234" lon="2.6634">
        <ele>723.855</ele>
        <time>2016-12-29T23:28:23Z</time>
      </trkpt>
      <trkpt lat="43.5922" lon="2.66278">
        <ele>723.338</ele>
        <time>2016-12-29T23:28:43Z</time>
      </trkpt>
      <trkpt lat="43.59167" lon="2.66148">
        <ele>726.354</ele>
        <time>2016-12-29T23:29:03Z</time>
      </trkpt>
      <trkpt lat="43.59143" lon="2.66114">
        <ele>729.443</ele>
        <time>2016-12-29T23:29:23Z</time>
      </trkpt>
      <trkpt lat="43.59117" lon="2.65986">
        <ele>731.29</ele>
        <time>2016-12-29T23:29:43Z</time>
      </trkpt>
      <trkpt lat="43.59094" lon="2.65932">
        <ele>735.261</ele>
        <time>2016-12-29T23:30:03Z</time>
      </trkpt>
      <trkpt lat="43.59099" lon="2.65919">
        <ele>736.56</ele>
        <time>2016-12-29T23:30:23Z</time>
      </trkpt>
      <trkpt lat="43.59123" lon="2.65908">
        <ele>734.881</ele>
        <time>2016-12-29T23:30:43Z</time>
      </trkpt>
      <trkpt lat="43.59138" lon="2.65848">
        <ele>736.696</ele>
        <time>2016-12-29T23:31:03Z</time>
      </trkpt>
      <trkpt lat="43.59094" lon="2.65802">
        <ele>737.931</ele>
        <time>2016-12-29T23:31:23Z</time>
      </trkpt>
      <trkpt lat="43.59058" lon="2.65745">
        <ele>739.524</ele>
        <time>2016-12-29T23:31:43Z</time>
      </trkpt>
      <trkpt lat="43.59038" lon="2.65651">
        <ele>745.108</ele>
        <time>2016-12-29T23:32:03Z</time>
      </trkpt>
      <trkpt lat="43.59032" lon="2.65511">
        <ele>739.036</ele>
        <time>2016-12-29T23:32:23Z</time>
      </trkpt>
      <trkpt lat="43.59067" lon="2.65399">
        <ele>740.299</ele>
        <time>2016-12-29T23:32:43Z</time>
      </trkpt>
      <trkpt lat="43.59088" lon="2.65392">
        <ele>740.955</ele>
        <time>2016-12-29T23:33:03Z</time>
      </trkpt>
      <trkpt lat="43.59155" lon="2.65454">
        <ele>743.954</ele>
        <time>2016-12-29T23:33:23Z</time>
      </trkpt>
      <trkpt lat="43.59182" lon="2.65472">
        <ele>745.711</ele>
        <time>2016-12-29T23:33:43Z</time>
      </trkpt>
      <trkpt lat="43.59213" lon="2.65553">
        <ele>746.292</ele>
        <time>2016-12-29T23:34:03Z</time>
      </trkpt>
      <trkpt lat="43.59233" lon="2.65564">
        <ele>748.591</ele>
        <time>2016-12-29T23:34:23Z</time>
      </trkpt>
      <trkpt lat="43.59275" lon="2.65524">
        <ele>758.922</ele>
        <time>2016-12-29T23:34:43Z</time>
      </trkpt>
      <trkpt lat="43.59245" lon="2.65515">
        <ele>757.976</ele>
        <time>2016-12-29T23:35:03Z</time>
      </trkpt>
      <trkpt lat="43.59225" lon="2.65472">
        <ele>759.49</ele>
        <time>2016-12-29T23:35:23Z</time>
      </trkpt>
      <trkpt lat="43.59219" lon="2.65409">
        <ele>760.219</ele>
        <time>2016-12-29T23:35:43Z</time>
      </trkpt>
      <trkpt lat="43.59146" lon="2.65186">
        <ele>768.708</ele>
        <time>2016-12-29T23:36:03Z</time>
      </trkpt>
      <trkpt lat="43.59092" lon="2.6507">
        <ele>769.624</ele>
        <time>2016-12-29T23:36:23Z</time>
      </trkpt>
      <trkpt lat="43.59036" lon="2.64986">
        <ele>768.797</ele>
        <time>2016-12-29T23:36:43Z</time>
      </trkpt>
      <trkpt lat="43.58991" lon="2.64958">
        <ele>771.893</ele>
        <time>2016-12-29T23:37:03Z</time>
      </trkpt>
      <trkpt lat="43.58907" lon="2.6492">
        <ele>780.022</ele>
        <time>2016-12-29T23:37:23Z</time>
      </trkpt>
      <trkpt lat="43.58888" lon="2.64925">
        <ele>780.039</ele>
        <time>2016-12-29T23:37:43Z</time>
      </trkpt>
      <trkpt lat="43.58882" lon="2.64899">
        <ele>780.16</ele>
        <time>2016-12-29T23:38:03Z</time>
      </trkpt>
      <trkpt lat="43.58805" lon="2.64891">
        <ele>771.449</ele>
        <time>2016-12-29T23:38:23Z</time>
      </trkpt>
      <trkpt lat="43.58773" lon="2.64869">
        <ele>768.79</ele>
        <time>2016-12-29T23:38:43Z</time>
      </trkpt>
      <trkpt lat="43.58732" lon="2.64856">
        <ele>772.081</ele>
        <time>2016-12-29T23:39:03Z</time>
      </trkpt>
      <trkpt lat="43.58737" lon="2.6481">
        <ele>769.561</ele>
        <time>2016-12-29T23:39:23Z</time>
      </trkpt>
      <trkpt lat="43.58728" lon="2.64777">
        <ele>768.517</ele>
        <time>2016-12-29T23:39:43Z</time>
      </trkpt>
      <trkpt lat="43.5868" lon="2.64732">
        <ele>770.008</ele>
        <time>2016-12-29T23:40:03Z</time>
      </trkpt>
      <trkpt lat="43.58669" lon="2.64649">
        <ele>774.015</ele>
        <time>2016-12-29T23:40:23Z</time>
      </trkpt>
      <trkpt lat="43.58644" lon="2.64567">
        <ele>782.978</ele>
        <time>2016-12-29T23:40:43Z</time>
      </trkpt>
      <trkpt lat="43.58651" lon="2.64531">
        <ele>781.554</ele>
        <time>2016-12-29T23:41:03Z</time>
      </trkpt>
      <trkpt lat="43.58587" lon="2.64484">
        <ele>788.523</ele>
        <time>2016-12-29T23:41:23Z</time>
      </trkpt>
      <trkpt lat="43.58523" lon="2.64486">
        <ele>789.73</ele>
        <time>2016-12-29T23:41:43Z</time>
      </trkpt>
      <trkpt lat="43.58468" lon="2.64515">
        <ele>789.341</ele>
        <time>2016-12-29T23:42:03Z</time>
      </trkpt>
      <trkpt lat="43.58408" lon="2.64568">
        <ele>786.43</ele>
        <time>2016-12-29T23:42:23Z</time>
      </trkpt>
      <trkpt lat="43.58369" lon="2.64572">
        <ele>785.091</ele>
        <time>2016-12-29T23:42:43Z</time>
      </trkpt>
      <trkpt lat="43.58331" lon="2.64516">
        <ele>781.692</ele>
        <time>2016-12-29T23:43:03Z</time>
      </trkpt>
      <trkpt lat="43.58278" lon="2.64487">
        <ele>780.973</ele>
        <time>2016-12-29T23:43:23Z</time>
      </trkpt>
      <trkpt lat="43.58208" lon="2.64498">
        <ele>772.92</ele>
        <time>2016-12-29T23:43:43Z</time>
      </trkpt>
      <trkpt lat="43.58038" lon="2.64625">
        <ele>762.208</ele>
        <time>2016-12-29T23:44:03Z</time>
      </trkpt>
      <trkpt lat="43.58009" lon="2.64612">
        <ele>759.486</ele>
        <time>2016-12-29T23:44:23Z</time>
      </trkpt>
      <trkpt lat="43.58002" lon="2.64547">
        <ele>752.749</ele>
        <time>2016-12-29T23:44:43Z</time>
      </trkpt>
      <trkpt lat="43.57973" lon="2.64522">
        <ele>751.235</ele>
        <time>2016-12-29T23:45:03Z</time>
      </trkpt>
      <trkpt lat="43.57898" lon="2.64522">
        <ele>745.624</ele>
        <time>2016-12-29T23:45:23Z</time>
      </trkpt>
      <trkpt lat="43.57872" lon="2.64489">
        <ele>741.351</ele>
        <time>2016-12-29T23:45:43Z</time>
      </trkpt>
      <trkpt lat="43.57874" lon="2.64457">
        <ele>742.312</ele>
        <time>2016-12-29T23:46:03Z</time>
      </trkpt>
      <trkpt lat="43.57915" lon="2.64403">
        <ele>741.891</ele>
        <time>2016-12-29T23:46:23Z</time>
      </trkpt>
      <trkpt lat="43.57977" lon="2.64389">
        <ele>740.752</ele>
        <time>2016-12-29T23:46:43Z</time>
      </trkpt>
      <trkpt lat="43.5803" lon="2.6434">
        <ele>747.581</ele>
        <time>2016-12-29T23:47:03Z</time>
      </trkpt>
      <trkpt lat="43.58032" lon="2.64294">
        <ele>754.461</ele>
        <time>2016-12-29T23:47:23Z</time>
      </trkpt>
      <trkpt lat="43.57992" lon="2.64234">
        <ele>762.317</ele>
        <time>2016-12-29T23:47:43Z</time>
      </trkpt>
      <trkpt lat="43.5799" lon="2.64174">
        <ele>770.708</ele>
        <time>2016-12-29T23:48:03Z</time>
      </trkpt>
      <trkpt lat="43.58009" lon="2.64116">
        <ele>773.455</ele>
        <time>2016-12-29T23:48:23Z</time>
      </trkpt>
      <trkpt lat="43.57956" lon="2.64127">
        <ele>780.048</ele>
        <time>2016-12-29T23:48:43Z</time>
      </trkpt>
      <trkpt lat="43.57901" lon="2.64158">
        <ele>784.444</ele>
        <time>2016-12-29T23:49:03Z</time>
      </trkpt>
      <trkpt lat="43.57858" lon="2.64158">
        <ele>787.163</ele>
        <time>2016-12-29T23:49:23Z</time>
      </trkpt>
      <trkpt lat="43.57834" lon="2.64134">
        <ele>789.24</ele>
        <time>2016-12-29T23:49:43Z</time>
      </trkpt>
      <trkpt lat="43.57852" lon="2.64084">
        <ele>792.051</ele>
        <time>2016-12-29T23:50:03Z</time>
      </trkpt>
      <trkpt lat="43.57856" lon="2.6401">
        <ele>796.41</ele>
        <time>2016-12-29T23:50:23Z</time>
      </trkpt>
      <trkpt lat="43.57835" lon="2.63942">
        <ele>801.011</ele>
        <time>2016-12-29T23:50:43Z</time>
      </trkpt>
      <trkpt lat="43.57799" lon="2.63915">
        <ele>803.316</ele>
        <time>2016-12-29T23:51:03Z</time>
      </trkpt>
      <trkpt lat="43.57833" lon="2.63855">
        <ele>800.876</ele>
        <time>2016-12-29T23:51:23Z</time>
      </trkpt>
      <trkpt lat="43.57814" lon="2.63797">
        <ele>798.713</ele>
        <time>2016-12-29T23:51:43Z</time>
      </trkpt>
      <trkpt lat="43.57761" lon="2.63688">
        <ele>796.608</ele>
        <time>2016-12-29T23:52:03Z</time>
      </trkpt>
      <trkpt lat="43.5774" lon="2.63653">
        <ele>798.558</ele>
        <time>2016-12-29T23:52:23Z</time>
      </trkpt>
      <trkpt lat="43.57722" lon="2.63573">
        <ele>794.921</ele>
        <time>2016-12-29T23:52:43Z</time>
      </trkpt>
      <trkpt lat="43.57692" lon="2.63527">
        <ele>793.857</ele>
        <time>2016-12-29T23:53:03Z</time>
      </trkpt>
      <trkpt lat="43.57646" lon="2.63487">
        <ele>801.946</ele>
        <time>2016-12-29T23:53:23Z</time>
      </trkpt>
      <trkpt lat="43.57599" lon="2.63344">
        <ele>809.183</ele>
        <time>2016-12-29T23:53:43Z</time>
      </trkpt>
      <trkpt lat="43.57605" lon="2.63264">
        <ele>802.444</ele>
        <time>2016-12-29T23:54:03Z</time>
      </trkpt>
      <trkpt lat="43.57617" lon="2.63203">
        <ele>794.863</ele>
        <time>2016-12-29T23:54:23Z</time>
      </trkpt>
      <trkpt lat="43.57599" lon="2.63147">
        <ele>792.674</ele>
        <time>2016-12-29T23:54:43Z</time>
      </trkpt>
      <trkpt lat="43.57558" lon="2.63149">
        <ele>790.814</ele>
        <time>2016-12-29T23:55:03Z</time>
      </trkpt>
      <trkpt lat="43.57521" lon="2.63114">
        <ele>789.354</ele>
        <time>2016-12-29T23:55:23Z</time>
      </trkpt>
      <trkpt lat="43.57486" lon="2.63095">
        <ele>794.409</ele>
        <time>2016-12-29T23:55:43Z</time>
      </trkpt>
      <trkpt lat="43.57501" lon="2.62947">
        <ele>806.808</ele>
        <time>2016-12-29T23:56:03Z</time>
      </trkpt>
      <trkpt lat="43.57483" lon="2.6292">
        <ele>809.298</ele>
        <time>2016-12-29T23:56:23Z</time>
      </trkpt>
      <trkpt lat="43.57449" lon="2.62904">
        <ele>825.871</ele>
        <time>2021-04-17T06:30:10Z</time>
      </trkpt>
      <trkpt lat="43.57387" lon="2.62836">
        <ele>815.517</ele>
        <time>2016-12-29T23:56:43Z</time>
      </trkpt>
      <trkpt lat="43.57326" lon="2.62764">
        <ele>821.366</ele>
        <time>2016-12-29T23:57:03Z</time>
      </trkpt>
      <trkpt lat="43.57267" lon="2.62731">
        <ele>827.143</ele>
        <time>2016-12-29T23:57:23Z</time>
      </trkpt>
      <trkpt lat="43.57233" lon="2.627">
        <ele>830.844</ele>
        <time>2016-12-29T23:57:43Z</time>
      </trkpt>
      <trkpt lat="43.57176" lon="2.6268">
        <ele>826.953</ele>
        <time>2016-12-29T23:58:03Z</time>
      </trkpt>
      <trkpt lat="43.57132" lon="2.62687">
        <ele>826.634</ele>
        <time>2016-12-29T23:58:23Z</time>
      </trkpt>
      <trkpt lat="43.571" lon="2.62701">
        <ele>826.075</ele>
        <time>2016-12-29T23:58:43Z</time>
      </trkpt>
      <trkpt lat="43.56995" lon="2.62652">
        <ele>828.428</ele>
        <time>2016-12-29T23:59:03Z</time>
      </trkpt>
      <trkpt lat="43.56916" lon="2.62579">
        <ele>840.92</ele>
        <time>2016-12-29T23:59:23Z</time>
      </trkpt>
      <trkpt lat="43.56904" lon="2.62541">
        <ele>840.908</ele>
        <time>2016-12-29T23:59:43Z</time>
      </trkpt>
      <trkpt lat="43.56971" lon="2.62481">
        <ele>837.734</ele>
        <time>2016-12-30T00:00:03Z</time>
      </trkpt>
      <trkpt lat="43.5705" lon="2.62482">
        <ele>830.487</ele>
        <time>2016-12-30T00:00:23Z</time>
      </trkpt>
      <trkpt lat="43.57119" lon="2.62441">
        <ele>829.653</ele>
        <time>2016-12-30T00:00:43Z</time>
      </trkpt>
      <trkpt lat="43.57162" lon="2.62434">
        <ele>826.842</ele>
        <time>2016-12-30T00:01:03Z</time>
      </trkpt>
      <trkpt lat="43.57195" lon="2.62386">
        <ele>821.659</ele>
        <time>2016-12-30T00:01:23Z</time>
      </trkpt>
      <trkpt lat="43.57208" lon="2.62321">
        <ele>812.05</ele>
        <time>2016-12-30T00:01:43Z</time>
      </trkpt>
      <trkpt lat="43.57232" lon="2.62306">
        <ele>809.039</ele>
        <time>2016-12-30T00:02:03Z</time>
      </trkpt>
      <trkpt lat="43.57321" lon="2.62302">
        <ele>795.15</ele>
        <time>2016-12-30T00:02:23Z</time>
      </trkpt>
      <trkpt lat="43.57366" lon="2.62255">
        <ele>789.194</ele>
        <time>2016-12-30T00:02:43Z</time>
      </trkpt>
      <trkpt lat="43.57376" lon="2.6221">
        <ele>793.657</ele>
        <time>2016-12-30T00:03:03Z</time>
      </trkpt>
      <trkpt lat="43.57369" lon="2.62124">
        <ele>810.722</ele>
        <time>2016-12-30T00:03:23Z</time>
      </trkpt>
      <trkpt lat="43.57354" lon="2.6211">
        <ele>812.708</ele>
        <time>2016-12-30T00:03:43Z</time>
      </trkpt>
      <trkpt lat="43.57396" lon="2.62093">
        <ele>813.746</ele>
        <time>2016-12-30T00:04:03Z</time>
      </trkpt>
      <trkpt lat="43.57428" lon="2.62057">
        <ele>817.139</ele>
        <time>2016-12-30T00:04:23Z</time>
      </trkpt>
      <trkpt lat="43.57455" lon="2.62084">
        <ele>814.375</ele>
        <time>2016-12-30T00:04:43Z</time>
      </trkpt>
      <trkpt lat="43.57507" lon="2.62072">
        <ele>820.194</ele>
        <time>2016-12-30T00:05:03Z</time>
      </trkpt>
      <trkpt lat="43.57529" lon="2.62125">
        <ele>815.621</ele>
        <time>2016-12-30T00:05:23Z</time>
      </trkpt>
      <trkpt lat="43.57568" lon="2.62119">
        <ele>820.562</ele>
        <time>2016-12-30T00:05:43Z</time>
      </trkpt>
      <trkpt lat="43.57652" lon="2.62219">
        <ele>821.011</ele>
        <time>2016-12-30T00:06:03Z</time>
      </trkpt>
      <trkpt lat="43.57689" lon="2.62213">
        <ele>824.682</ele>
        <time>2016-12-30T00:06:23Z</time>
      </trkpt>
      <trkpt lat="43.57741" lon="2.62136">
        <ele>827.225</ele>
        <time>2016-12-30T00:06:43Z</time>
      </trkpt>
      <trkpt lat="43.57752" lon="2.62086">
        <ele>829.426</ele>
        <time>2016-12-30T00:07:03Z</time>
      </trkpt>
      <trkpt lat="43.57784" lon="2.61954">
        <ele>834.808</ele>
        <time>2016-12-30T00:07:23Z</time>
      </trkpt>
      <trkpt lat="43.57829" lon="2.61945">
        <ele>833.308</ele>
        <time>2016-12-30T00:07:43Z</time>
      </trkpt>
      <trkpt lat="43.57896" lon="2.61859">
        <ele>828.599</ele>
        <time>2016-12-30T00:08:03Z</time>
      </trkpt>
      <trkpt lat="43.57924" lon="2.61792">
        <ele>823.442</ele>
        <time>2016-12-30T00:08:23Z</time>
      </trkpt>
      <trkpt lat="43.57968" lon="2.61825">
        <ele>819.138</ele>
        <time>2016-12-30T00:08:43Z</time>
      </trkpt>
      <trkpt lat="43.57975" lon="2.61794">
        <ele>815.847</ele>
        <time>2016-12-30T00:09:03Z</time>
      </trkpt>
      <trkpt lat="43.5801" lon="2.6175">
        <ele>809.264</ele>
        <time>2016-12-30T00:09:23Z</time>
      </trkpt>
      <trkpt lat="43.58027" lon="2.61716">
        <ele>807.445</ele>
        <time>2016-12-30T00:09:43Z</time>
      </trkpt>
      <trkpt lat="43.5807" lon="2.61698">
        <ele>800.834</ele>
        <time>2016-12-30T00:10:03Z</time>
      </trkpt>
      <trkpt lat="43.58089" lon="2.61639">
        <ele>798.265</ele>
        <time>2016-12-30T00:10:23Z</time>
      </trkpt>
      <trkpt lat="43.58086" lon="2.61493">
        <ele>793.486</ele>
        <time>2016-12-30T00:10:43Z</time>
      </trkpt>
      <trkpt lat="43.58068" lon="2.61429">
        <ele>793.76</ele>
        <time>2016-12-30T00:11:03Z</time>
      </trkpt>
      <trkpt lat="43.58025" lon="2.61377">
        <ele>790.726</ele>
        <time>2016-12-30T00:11:23Z</time>
      </trkpt>
      <trkpt lat="43.57972" lon="2.61385">
        <ele>786.608</ele>
        <time>2016-12-30T00:11:43Z</time>
      </trkpt>
      <trkpt lat="43.57935" lon="2.61331">
        <ele>786.065</ele>
        <time>2016-12-30T00:12:03Z</time>
      </trkpt>
      <trkpt lat="43.57765" lon="2.61203">
        <ele>786.898</ele>
        <time>2016-12-30T00:12:23Z</time>
      </trkpt>
      <trkpt lat="43.57741" lon="2.61169">
        <ele>785.964</ele>
        <time>2016-12-30T00:12:43Z</time>
      </trkpt>
      <trkpt lat="43.57733" lon="2.61132">
        <ele>784.133</ele>
        <time>2016-12-30T00:13:03Z</time>
      </trkpt>
      <trkpt lat="43.57703" lon="2.61084">
        <ele>783.99</ele>
        <time>2016-12-30T00:13:23Z</time>
      </trkpt>
      <trkpt lat="43.57677" lon="2.60884">
        <ele>794.831</ele>
        <time>2016-12-30T00:13:43Z</time>
      </trkpt>
      <trkpt lat="43.57658" lon="2.60835">
        <ele>794.89</ele>
        <time>2016-12-30T00:14:03Z</time>
      </trkpt>
      <trkpt lat="43.57605" lon="2.60774">
        <ele>802.671</ele>
        <time>2016-12-30T00:14:23Z</time>
      </trkpt>
      <trkpt lat="43.57575" lon="2.60716">
        <ele>805.135</ele>
        <time>2016-12-30T00:14:43Z</time>
      </trkpt>
      <trkpt lat="43.57513" lon="2.60661">
        <ele>807.886</ele>
        <time>2016-12-30T00:15:03Z</time>
      </trkpt>
      <trkpt lat="43.57478" lon="2.60625">
        <ele>808.114</ele>
        <time>2016-12-30T00:15:23Z</time>
      </trkpt>
      <trkpt lat="43.57406" lon="2.60595">
        <ele>814.708</ele>
        <time>2016-12-30T00:15:43Z</time>
      </trkpt>
      <trkpt lat="43.57371" lon="2.60558">
        <ele>815.06</ele>
        <time>2016-12-30T00:16:03Z</time>
      </trkpt>
      <trkpt lat="43.57319" lon="2.60407">
        <ele>816.753</ele>
        <time>2016-12-30T00:16:23Z</time>
      </trkpt>
      <trkpt lat="43.57314" lon="2.60343">
        <ele>818.349</ele>
        <time>2016-12-30T00:16:43Z</time>
      </trkpt>
      <trkpt lat="43.57326" lon="2.60278">
        <ele>818.548</ele>
        <time>2016-12-30T00:17:03Z</time>
      </trkpt>
      <trkpt lat="43.57475" lon="2.60132">
        <ele>824.695</ele>
        <time>2016-12-30T00:17:23Z</time>
      </trkpt>
      <trkpt lat="43.57496" lon="2.60077">
        <ele>829.986</ele>
        <time>2016-12-30T00:17:43Z</time>
      </trkpt>
      <trkpt lat="43.57517" lon="2.6002">
        <ele>837.125</ele>
        <time>2016-12-30T00:18:03Z</time>
      </trkpt>
      <trkpt lat="43.57565" lon="2.60018">
        <ele>838.496</ele>
        <time>2016-12-30T00:18:23Z</time>
      </trkpt>
      <trkpt lat="43.57594" lon="2.59991">
        <ele>843.357</ele>
        <time>2016-12-30T00:18:43Z</time>
      </trkpt>
      <trkpt lat="43.57622" lon="2.5998">
        <ele>845.4</ele>
        <time>2016-12-30T00:19:03Z</time>
      </trkpt>
      <trkpt lat="43.57747" lon="2.59908">
        <ele>852.82</ele>
        <time>2016-12-30T00:19:23Z</time>
      </trkpt>
      <trkpt lat="43.57844" lon="2.59887">
        <ele>850.008</ele>
        <time>2016-12-30T00:19:43Z</time>
      </trkpt>
      <trkpt lat="43.57917" lon="2.5985">
        <ele>850.032</ele>
        <time>2016-12-30T00:20:03Z</time>
      </trkpt>
      <trkpt lat="43.57951" lon="2.59804">
        <ele>850.015</ele>
        <time>2016-12-30T00:20:23Z</time>
      </trkpt>
      <trkpt lat="43.58005" lon="2.59705">
        <ele>844.891</ele>
        <time>2016-12-30T00:20:43Z</time>
      </trkpt>
      <trkpt lat="43.58043" lon="2.59584">
        <ele>839.23</ele>
        <time>2016-12-30T00:21:03Z</time>
      </trkpt>
      <trkpt lat="43.58057" lon="2.5946">
        <ele>836.367</ele>
        <time>2016-12-30T00:21:23Z</time>
      </trkpt>
      <trkpt lat="43.58044" lon="2.59381">
        <ele>832.958</ele>
        <time>2016-12-30T00:21:43Z</time>
      </trkpt>
      <trkpt lat="43.58045" lon="2.59346">
        <ele>831.937</ele>
        <time>2016-12-30T00:22:03Z</time>
      </trkpt>
      <trkpt lat="43.58081" lon="2.59277">
        <ele>836.718</ele>
        <time>2016-12-30T00:22:23Z</time>
      </trkpt>
      <trkpt lat="43.58084" lon="2.59224">
        <ele>840.514</ele>
        <time>2021-04-17T06:56:30Z</time>
      </trkpt>
      <trkpt lat="43.5805" lon="2.59157">
        <ele>845.654</ele>
        <time>2021-04-17T06:56:50Z</time>
      </trkpt>
      <trkpt lat="43.58034" lon="2.59153">
        <ele>845.109</ele>
        <time>2021-04-17T06:57:10Z</time>
      </trkpt>
      <trkpt lat="43.58006" lon="2.59163">
        <ele>843.408</ele>
        <time>2021-04-17T06:57:30Z</time>
      </trkpt>
      <trkpt lat="43.57995" lon="2.59142">
        <ele>843.738</ele>
        <time>2021-04-17T06:57:50Z</time>
      </trkpt>
      <trkpt lat="43.58059" lon="2.58968">
        <ele>848.171</ele>
        <time>2016-12-30T00:23:23Z</time>
      </trkpt>
      <trkpt lat="43.58107" lon="2.58917">
        <ele>848.257</ele>
        <time>2016-12-30T00:23:43Z</time>
      </trkpt>
      <trkpt lat="43.58108" lon="2.58888">
        <ele>847.286</ele>
        <time>2016-12-30T00:24:03Z</time>
      </trkpt>
      <trkpt lat="43.58068" lon="2.58785">
        <ele>851.593</ele>
        <time>2016-12-30T00:24:23Z</time>
      </trkpt>
      <trkpt lat="43.5804" lon="2.58664">
        <ele>850.334</ele>
        <time>2016-12-30T00:24:43Z</time>
      </trkpt>
      <trkpt lat="43.58014" lon="2.58495">
        <ele>846.993</ele>
        <time>2016-12-30T00:25:03Z</time>
      </trkpt>
      <trkpt lat="43.57982" lon="2.58468">
        <ele>849.044</ele>
        <time>2016-12-30T00:25:23Z</time>
      </trkpt>
      <trkpt lat="43.5792" lon="2.5847">
        <ele>852.619</ele>
        <time>2016-12-30T00:25:43Z</time>
      </trkpt>
      <trkpt lat="43.57838" lon="2.58392">
        <ele>859.609</ele>
        <time>2016-12-30T00:26:03Z</time>
      </trkpt>
      <trkpt lat="43.57771" lon="2.58292">
        <ele>852.319</ele>
        <time>2016-12-30T00:26:23Z</time>
      </trkpt>
      <trkpt lat="43.57716" lon="2.58126">
        <ele>844.508</ele>
        <time>2016-12-30T00:26:43Z</time>
      </trkpt>
      <trkpt lat="43.57703" lon="2.5804">
        <ele>841.798</ele>
        <time>2016-12-30T00:27:03Z</time>
      </trkpt>
      <trkpt lat="43.57703" lon="2.57946">
        <ele>839.941</ele>
        <time>2016-12-30T00:27:23Z</time>
      </trkpt>
      <trkpt lat="43.57716" lon="2.57771">
        <ele>837.467</ele>
        <time>2016-12-30T00:27:43Z</time>
      </trkpt>
      <trkpt lat="43.57676" lon="2.57691">
        <ele>829.236</ele>
        <time>2016-12-30T00:28:03Z</time>
      </trkpt>
      <trkpt lat="43.57619" lon="2.5744">
        <ele>811.853</ele>
        <time>2016-12-30T00:28:23Z</time>
      </trkpt>
      <trkpt lat="43.57552" lon="2.57269">
        <ele>810.044</ele>
        <time>2016-12-30T00:28:43Z</time>
      </trkpt>
      <trkpt lat="43.5745" lon="2.57243">
        <ele>810.013</ele>
        <time>2016-12-30T00:29:03Z</time>
      </trkpt>
      <trkpt lat="43.57387" lon="2.57215">
        <ele>808.644</ele>
        <time>2016-12-30T00:29:23Z</time>
      </trkpt>
      <trkpt lat="43.57333" lon="2.57177">
        <ele>802.057</ele>
        <time>2016-12-30T00:29:43Z</time>
      </trkpt>
      <trkpt lat="43.57284" lon="2.57131">
        <ele>799.8</ele>
        <time>2016-12-30T00:30:03Z</time>
      </trkpt>
      <trkpt lat="43.5725" lon="2.57133">
        <ele>799.52</ele>
        <time>2016-12-30T00:30:23Z</time>
      </trkpt>
      <trkpt lat="43.57078" lon="2.57272">
        <ele>794.208</ele>
        <time>2016-12-30T00:30:43Z</time>
      </trkpt>
      <trkpt lat="43.57044" lon="2.5727">
        <ele>792.222</ele>
        <time>2016-12-30T00:31:03Z</time>
      </trkpt>
      <trkpt lat="43.57016" lon="2.57239">
        <ele>789.655</ele>
        <time>2016-12-30T00:31:23Z</time>
      </trkpt>
      <trkpt lat="43.56994" lon="2.57177">
        <ele>789.361</ele>
        <time>2016-12-30T00:31:43Z</time>
      </trkpt>
      <trkpt lat="43.5683" lon="2.56999">
        <ele>780.26</ele>
        <time>2016-12-30T00:32:03Z</time>
      </trkpt>
      <trkpt lat="43.56712" lon="2.56809">
        <ele>773.767</ele>
        <time>2016-12-30T00:32:23Z</time>
      </trkpt>
      <trkpt lat="43.56712" lon="2.56768">
        <ele>772.328</ele>
        <time>2016-12-30T00:32:43Z</time>
      </trkpt>
      <trkpt lat="43.56767" lon="2.56654">
        <ele>767.277</ele>
        <time>2016-12-30T00:33:03Z</time>
      </trkpt>
      <trkpt lat="43.56758" lon="2.56605">
        <ele>764.748</ele>
        <time>2016-12-30T00:33:23Z</time>
      </trkpt>
      <trkpt lat="43.56722" lon="2.56581">
        <ele>764.828</ele>
        <time>2016-12-30T00:33:43Z</time>
      </trkpt>
      <trkpt lat="43.56605" lon="2.56543">
        <ele>758.689</ele>
        <time>2016-12-30T00:34:03Z</time>
      </trkpt>
      <trkpt lat="43.56492" lon="2.56426">
        <ele>750.017</ele>
        <time>2016-12-30T00:34:23Z</time>
      </trkpt>
      <trkpt lat="43.56376" lon="2.56316">
        <ele>750.008</ele>
        <time>2016-12-30T00:34:43Z</time>
      </trkpt>
      <trkpt lat="43.56342" lon="2.56224">
        <ele>750.049</ele>
        <time>2016-12-30T00:35:03Z</time>
      </trkpt>
      <trkpt lat="43.56327" lon="2.56151">
        <ele>750.022</ele>
        <time>2016-12-30T00:35:23Z</time>
      </trkpt>
      <trkpt lat="43.56345" lon="2.56039">
        <ele>750.088</ele>
        <time>2016-12-30T00:35:43Z</time>
      </trkpt>
      <trkpt lat="43.56337" lon="2.559">
        <ele>745.177</ele>
        <time>2016-12-30T00:36:03Z</time>
      </trkpt>
      <trkpt lat="43.5637" lon="2.55818">
        <ele>743.094</ele>
        <time>2016-12-30T00:36:23Z</time>
      </trkpt>
      <trkpt lat="43.56331" lon="2.55807">
        <ele>738.915</ele>
        <time>2016-12-30T00:36:43Z</time>
      </trkpt>
      <trkpt lat="43.563" lon="2.55766">
        <ele>734.974</ele>
        <time>2016-12-30T00:37:03Z</time>
      </trkpt>
      <trkpt lat="43.56321" lon="2.55649">
        <ele>730.435</ele>
        <time>2016-12-30T00:37:23Z</time>
      </trkpt>
      <trkpt lat="43.56317" lon="2.55567">
        <ele>729.864</ele>
        <time>2016-12-30T00:37:43Z</time>
      </trkpt>
      <trkpt lat="43.56233" lon="2.55385">
        <ele>720.006</ele>
        <time>2016-12-30T00:38:23Z</time>
      </trkpt>
      <trkpt lat="43.56238" lon="2.55339">
        <ele>720.316</ele>
        <time>2016-12-30T00:39:03Z</time>
      </trkpt>
      <trkpt lat="43.56232" lon="2.55258">
        <ele>723.408</ele>
        <time>2016-12-30T00:39:23Z</time>
      </trkpt>
      <trkpt lat="43.56203" lon="2.55152">
        <ele>726.213</ele>
        <time>2016-12-30T00:39:43Z</time>
      </trkpt>
      <trkpt lat="43.56149" lon="2.55033">
        <ele>734.976</ele>
        <time>2016-12-30T00:40:03Z</time>
      </trkpt>
      <trkpt lat="43.56133" lon="2.54968">
        <ele>746.742</ele>
        <time>2021-04-17T07:14:30Z</time>
      </trkpt>
      <trkpt lat="43.56176" lon="2.54559">
        <ele>767.331</ele>
        <time>2016-12-30T00:40:43Z</time>
      </trkpt>
      <trkpt lat="43.56175" lon="2.54488">
        <ele>765.458</ele>
        <time>2016-12-30T00:41:03Z</time>
      </trkpt>
      <trkpt lat="43.56222" lon="2.54301">
        <ele>759.869</ele>
        <time>2016-12-30T00:41:23Z</time>
      </trkpt>
      <trkpt lat="43.56093" lon="2.54261">
        <ele>759.638</ele>
        <time>2016-12-30T00:41:43Z</time>
      </trkpt>
      <trkpt lat="43.56072" lon="2.54216">
        <ele>759.899</ele>
        <time>2016-12-30T00:42:03Z</time>
      </trkpt>
      <trkpt lat="43.56015" lon="2.54151">
        <ele>759.633</ele>
        <time>2016-12-30T00:42:23Z</time>
      </trkpt>
      <trkpt lat="43.55964" lon="2.54149">
        <ele>758.923</ele>
        <time>2016-12-30T00:42:43Z</time>
      </trkpt>
      <trkpt lat="43.55933" lon="2.54032">
        <ele>758.915</ele>
        <time>2021-04-17T07:17:10Z</time>
      </trkpt>
      <trkpt lat="43.55906" lon="2.53972">
        <ele>754.308</ele>
        <time>2016-12-30T00:43:23Z</time>
      </trkpt>
      <trkpt lat="43.55904" lon="2.53928">
        <ele>753.54</ele>
        <time>2016-12-30T00:45:03Z</time>
      </trkpt>
      <trkpt lat="43.55883" lon="2.53883">
        <ele>752.983</ele>
        <time>2016-12-30T00:45:43Z</time>
      </trkpt>
      <trkpt lat="43.55834" lon="2.53883">
        <ele>753.299</ele>
        <time>2016-12-30T00:46:03Z</time>
      </trkpt>
      <trkpt lat="43.55796" lon="2.5386">
        <ele>749.338</ele>
        <time>2016-12-30T00:47:23Z</time>
      </trkpt>
      <trkpt lat="43.55744" lon="2.53784">
        <ele>747.815</ele>
        <time>2016-12-30T00:47:43Z</time>
      </trkpt>
      <trkpt lat="43.55712" lon="2.5376">
        <ele>747.356</ele>
        <time>2016-12-30T00:48:03Z</time>
      </trkpt>
      <trkpt lat="43.55693" lon="2.53731">
        <ele>746.255</ele>
        <time>2016-12-30T00:48:23Z</time>
      </trkpt>
      <trkpt lat="43.55665" lon="2.53731">
        <ele>745.136</ele>
        <time>2016-12-30T00:48:43Z</time>
      </trkpt>
      <trkpt lat="43.55611" lon="2.53767">
        <ele>741.039</ele>
        <time>2016-12-30T00:49:03Z</time>
      </trkpt>
      <trkpt lat="43.55551" lon="2.53769">
        <ele>747.301</ele>
        <time>2021-04-17T07:20:50Z</time>
      </trkpt>
      <trkpt lat="43.5546" lon="2.53738">
        <ele>737.221</ele>
        <time>2021-04-17T07:21:10Z</time>
      </trkpt>
      <trkpt lat="43.55429" lon="2.53693">
        <ele>733.408</ele>
        <time>2021-04-17T07:21:30Z</time>
      </trkpt>
      <trkpt lat="43.55419" lon="2.53629">
        <ele>726.26</ele>
        <time>2016-12-30T00:50:03Z</time>
      </trkpt>
      <trkpt lat="43.55481" lon="2.53516">
        <ele>720.683</ele>
        <time>2016-12-30T00:50:23Z</time>
      </trkpt>
      <trkpt lat="43.55516" lon="2.53483">
        <ele>716.169</ele>
        <time>2016-12-30T00:50:43Z</time>
      </trkpt>
      <trkpt lat="43.55608" lon="2.53418">
        <ele>719.798</ele>
        <time>2016-12-30T00:51:03Z</time>
      </trkpt>
      <trkpt lat="43.55591" lon="2.53356">
        <ele>720.015</ele>
        <time>2016-12-30T00:51:43Z</time>
      </trkpt>
      <trkpt lat="43.55605" lon="2.53281">
        <ele>720.786</ele>
        <time>2016-12-30T00:53:03Z</time>
      </trkpt>
      <trkpt lat="43.55599" lon="2.5324">
        <ele>720.815</ele>
        <time>2016-12-30T00:53:23Z</time>
      </trkpt>
      <trkpt lat="43.55568" lon="2.53171">
        <ele>719.426</ele>
        <time>2016-12-30T00:53:43Z</time>
      </trkpt>
      <trkpt lat="43.55561" lon="2.53119">
        <ele>720.068</ele>
        <time>2016-12-30T00:54:03Z</time>
      </trkpt>
      <trkpt lat="43.55576" lon="2.53106">
        <ele>720.042</ele>
        <time>2016-12-30T00:54:23Z</time>
      </trkpt>
      <trkpt lat="43.55637" lon="2.53116">
        <ele>720.926</ele>
        <time>2016-12-30T00:54:43Z</time>
      </trkpt>
      <trkpt lat="43.55749" lon="2.53164">
        <ele>727.808</ele>
        <time>2016-12-30T00:55:03Z</time>
      </trkpt>
      <trkpt lat="43.55835" lon="2.53178">
        <ele>730.013</ele>
        <time>2016-12-30T00:55:23Z</time>
      </trkpt>
      <trkpt lat="43.55887" lon="2.53149">
        <ele>731.866</ele>
        <time>2016-12-30T00:55:43Z</time>
      </trkpt>
      <trkpt lat="43.55963" lon="2.53206">
        <ele>738.322</ele>
        <time>2016-12-30T00:56:03Z</time>
      </trkpt>
      <trkpt lat="43.56183" lon="2.53289">
        <ele>746.621</ele>
        <time>2016-12-30T00:56:23Z</time>
      </trkpt>
      <trkpt lat="43.56228" lon="2.53261">
        <ele>748.038</ele>
        <time>2016-12-30T00:56:43Z</time>
      </trkpt>
      <trkpt lat="43.56289" lon="2.53261">
        <ele>750.469</ele>
        <time>2016-12-30T00:57:03Z</time>
      </trkpt>
      <trkpt lat="43.56358" lon="2.53268">
        <ele>758.188</ele>
        <time>2016-12-30T00:57:23Z</time>
      </trkpt>
      <trkpt lat="43.56386" lon="2.53228">
        <ele>773.929</ele>
        <time>2021-04-17T07:28:10Z</time>
      </trkpt>
      <trkpt lat="43.56564" lon="2.53179">
        <ele>776.285</ele>
        <time>2016-12-30T00:58:03Z</time>
      </trkpt>
      <trkpt lat="43.56646" lon="2.5314">
        <ele>781.389</ele>
        <time>2016-12-30T00:58:23Z</time>
      </trkpt>
      <trkpt lat="43.56723" lon="2.53117">
        <ele>798.017</ele>
        <time>2021-04-17T07:29:10Z</time>
      </trkpt>
      <trkpt lat="43.56834" lon="2.53103">
        <ele>793.608</ele>
        <time>2016-12-30T00:59:03Z</time>
      </trkpt>
      <trkpt lat="43.56849" lon="2.53079">
        <ele>809.235</ele>
        <time>2021-04-17T07:29:50Z</time>
      </trkpt>
      <trkpt lat="43.5685" lon="2.53042">
        <ele>792.878</ele>
        <time>2016-12-30T00:59:23Z</time>
      </trkpt>
      <trkpt lat="43.56813" lon="2.52896">
        <ele>792.424</ele>
        <time>2016-12-30T00:59:43Z</time>
      </trkpt>
      <trkpt lat="43.56786" lon="2.52852">
        <ele>790.753</ele>
        <time>2016-12-30T01:00:03Z</time>
      </trkpt>
      <trkpt lat="43.56788" lon="2.52835">
        <ele>792.85</ele>
        <time>2016-12-30T01:00:23Z</time>
      </trkpt>
      <trkpt lat="43.56772" lon="2.52817">
        <ele>790.591</ele>
        <time>2016-12-30T01:00:43Z</time>
      </trkpt>
      <trkpt lat="43.56751" lon="2.52821">
        <ele>786.26</ele>
        <time>2016-12-30T01:01:03Z</time>
      </trkpt>
      <trkpt lat="43.56774" lon="2.52678">
        <ele>790.381</ele>
        <time>2016-12-30T01:01:23Z</time>
      </trkpt>
      <trkpt lat="43.56767" lon="2.5263">
        <ele>787.124</ele>
        <time>2016-12-30T01:01:43Z</time>
      </trkpt>
      <trkpt lat="43.56774" lon="2.52545">
        <ele>785.604</ele>
        <time>2016-12-30T01:02:03Z</time>
      </trkpt>
      <trkpt lat="43.56788" lon="2.52543">
        <ele>787.414</ele>
        <time>2016-12-30T01:02:23Z</time>
      </trkpt>
      <trkpt lat="43.56772" lon="2.52513">
        <ele>783.608</ele>
        <time>2016-12-30T01:02:43Z</time>
      </trkpt>
      <trkpt lat="43.5676" lon="2.52456">
        <ele>779.519</ele>
        <time>2016-12-30T01:03:03Z</time>
      </trkpt>
      <trkpt lat="43.56763" lon="2.52413">
        <ele>777.672</ele>
        <time>2016-12-30T01:03:23Z</time>
      </trkpt>
      <trkpt lat="43.56786" lon="2.52238">
        <ele>768.058</ele>
        <time>2016-12-30T01:03:43Z</time>
      </trkpt>
      <trkpt lat="43.56789" lon="2.51948">
        <ele>736.757</ele>
        <time>2016-12-30T01:04:03Z</time>
      </trkpt>
      <trkpt lat="43.56879" lon="2.51938">
        <ele>735.134</ele>
        <time>2016-12-30T01:04:23Z</time>
      </trkpt>
      <trkpt lat="43.5693" lon="2.519">
        <ele>736.445</ele>
        <time>2016-12-30T01:04:43Z</time>
      </trkpt>
      <trkpt lat="43.56959" lon="2.51844">
        <ele>733.664</ele>
        <time>2016-12-30T01:05:03Z</time>
      </trkpt>
      <trkpt lat="43.57023" lon="2.51796">
        <ele>736.995</ele>
        <time>2016-12-30T01:05:23Z</time>
      </trkpt>
      <trkpt lat="43.57031" lon="2.51656">
        <ele>740.351</ele>
        <time>2016-12-30T01:05:43Z</time>
      </trkpt>
      <trkpt lat="43.57026" lon="2.51488">
        <ele>734.901</ele>
        <time>2016-12-30T01:06:03Z</time>
      </trkpt>
      <trkpt lat="43.5705" lon="2.51373">
        <ele>732.911</ele>
        <time>2016-12-30T01:06:23Z</time>
      </trkpt>
      <trkpt lat="43.57051" lon="2.51281">
        <ele>727.608</ele>
        <time>2016-12-30T01:06:43Z</time>
      </trkpt>
      <trkpt lat="43.57073" lon="2.51246">
        <ele>727.382</ele>
        <time>2016-12-30T01:07:03Z</time>
      </trkpt>
      <trkpt lat="43.57129" lon="2.51233">
        <ele>730.495</ele>
        <time>2016-12-30T01:07:23Z</time>
      </trkpt>
      <trkpt lat="43.5717" lon="2.51234">
        <ele>734.621</ele>
        <time>2016-12-30T01:07:43Z</time>
      </trkpt>
      <trkpt lat="43.57197" lon="2.51202">
        <ele>738.68</ele>
        <time>2016-12-30T01:08:03Z</time>
      </trkpt>
      <trkpt lat="43.57245" lon="2.51062">
        <ele>735.657</ele>
        <time>2016-12-30T01:08:23Z</time>
      </trkpt>
      <trkpt lat="43.57244" lon="2.51018">
        <ele>731.698</ele>
        <time>2016-12-30T01:08:43Z</time>
      </trkpt>
      <trkpt lat="43.57254" lon="2.50974">
        <ele>730.017</ele>
        <time>2016-12-30T01:09:03Z</time>
      </trkpt>
      <trkpt lat="43.57255" lon="2.50941">
        <ele>727.538</ele>
        <time>2016-12-30T01:09:23Z</time>
      </trkpt>
      <trkpt lat="43.57267" lon="2.50902">
        <ele>723.814</ele>
        <time>2016-12-30T01:09:43Z</time>
      </trkpt>
      <trkpt lat="43.57231" lon="2.50801">
        <ele>720.754</ele>
        <time>2016-12-30T01:10:03Z</time>
      </trkpt>
      <trkpt lat="43.57226" lon="2.50735">
        <ele>722.709</ele>
        <time>2016-12-30T01:10:23Z</time>
      </trkpt>
      <trkpt lat="43.57209" lon="2.50671">
        <ele>729.108</ele>
        <time>2016-12-30T01:10:43Z</time>
      </trkpt>
      <trkpt lat="43.57193" lon="2.50647">
        <ele>733.928</ele>
        <time>2016-12-30T01:11:03Z</time>
      </trkpt>
      <trkpt lat="43.57187" lon="2.50588">
        <ele>739.011</ele>
        <time>2016-12-30T01:11:23Z</time>
      </trkpt>
      <trkpt lat="43.57194" lon="2.50537">
        <ele>740.587</ele>
        <time>2016-12-30T01:11:43Z</time>
      </trkpt>
      <trkpt lat="43.5722" lon="2.50483">
        <ele>736.016</ele>
        <time>2016-12-30T01:12:03Z</time>
      </trkpt>
      <trkpt lat="43.57221" lon="2.50336">
        <ele>741.313</ele>
        <time>2016-12-30T01:12:23Z</time>
      </trkpt>
      <trkpt lat="43.57241" lon="2.50164">
        <ele>740.434</ele>
        <time>2016-12-30T01:12:43Z</time>
      </trkpt>
      <trkpt lat="43.57268" lon="2.4985">
        <ele>746.243</ele>
        <time>2016-12-30T01:13:03Z</time>
      </trkpt>
      <trkpt lat="43.57271" lon="2.49613">
        <ele>760.954</ele>
        <time>2016-12-30T01:13:23Z</time>
      </trkpt>
      <trkpt lat="43.57262" lon="2.49389">
        <ele>769.618</ele>
        <time>2016-12-30T01:13:43Z</time>
      </trkpt>
      <trkpt lat="43.57246" lon="2.49351">
        <ele>770.898</ele>
        <time>2016-12-30T01:14:03Z</time>
      </trkpt>
      <trkpt lat="43.57243" lon="2.49217">
        <ele>775.017</ele>
        <time>2016-12-30T01:14:23Z</time>
      </trkpt>
      <trkpt lat="43.57264" lon="2.49198">
        <ele>775.908</ele>
        <time>2016-12-30T01:14:43Z</time>
      </trkpt>
      <trkpt lat="43.57269" lon="2.48776">
        <ele>784.718</ele>
        <time>2016-12-30T01:15:03Z</time>
      </trkpt>
      <trkpt lat="43.5713" lon="2.48171">
        <ele>797.761</ele>
        <time>2021-04-17T07:46:10Z</time>
      </trkpt>
      <trkpt lat="43.57075" lon="2.48029">
        <ele>779.747</ele>
        <time>2016-12-30T01:15:43Z</time>
      </trkpt>
      <trkpt lat="43.57037" lon="2.47981">
        <ele>778.236</ele>
        <time>2016-12-30T01:16:03Z</time>
      </trkpt>
      <trkpt lat="43.56894" lon="2.47889">
        <ele>770.043</ele>
        <time>2016-12-30T01:16:23Z</time>
      </trkpt>
      <trkpt lat="43.56815" lon="2.47901">
        <ele>768.234</ele>
        <time>2016-12-30T01:16:43Z</time>
      </trkpt>
      <trkpt lat="43.56767" lon="2.4788">
        <ele>763.923</ele>
        <time>2016-12-30T01:17:03Z</time>
      </trkpt>
      <trkpt lat="43.56614" lon="2.47728">
        <ele>758.824</ele>
        <time>2016-12-30T01:17:23Z</time>
      </trkpt>
      <trkpt lat="43.56466" lon="2.47625">
        <ele>764.383</ele>
        <time>2016-12-30T01:17:43Z</time>
      </trkpt>
      <trkpt lat="43.56438" lon="2.47344">
        <ele>758.125</ele>
        <time>2016-12-30T01:18:03Z</time>
      </trkpt>
      <trkpt lat="43.56465" lon="2.47226">
        <ele>753.717</ele>
        <time>2016-12-30T01:18:23Z</time>
      </trkpt>
      <trkpt lat="43.56454" lon="2.47157">
        <ele>750.308</ele>
        <time>2016-12-30T01:18:43Z</time>
      </trkpt>
      <trkpt lat="43.56513" lon="2.47075">
        <ele>751.715</ele>
        <time>2016-12-30T01:19:03Z</time>
      </trkpt>
      <trkpt lat="43.56538" lon="2.47">
        <ele>754.518</ele>
        <time>2016-12-30T01:19:23Z</time>
      </trkpt>
      <trkpt lat="43.56527" lon="2.46968">
        <ele>756.524</ele>
        <time>2016-12-30T01:19:43Z</time>
      </trkpt>
      <trkpt lat="43.56504" lon="2.46922">
        <ele>757.023</ele>
        <time>2016-12-30T01:20:03Z</time>
      </trkpt>
      <trkpt lat="43.56537" lon="2.46804">
        <ele>760.06</ele>
        <time>2016-12-30T01:20:23Z</time>
      </trkpt>
      <trkpt lat="43.56587" lon="2.46713">
        <ele>758.341</ele>
        <time>2016-12-30T01:20:43Z</time>
      </trkpt>
      <trkpt lat="43.56644" lon="2.46552">
        <ele>754.84</ele>
        <time>2016-12-30T01:21:03Z</time>
      </trkpt>
      <trkpt lat="43.56649" lon="2.46482">
        <ele>754.031</ele>
        <time>2016-12-30T01:21:23Z</time>
      </trkpt>
      <trkpt lat="43.56676" lon="2.46412">
        <ele>749.835</ele>
        <time>2016-12-30T01:21:43Z</time>
      </trkpt>
      <trkpt lat="43.56733" lon="2.46332">
        <ele>741.986</ele>
        <time>2016-12-30T01:22:03Z</time>
      </trkpt>
      <trkpt lat="43.56764" lon="2.46293">
        <ele>740.614</ele>
        <time>2016-12-30T01:22:23Z</time>
      </trkpt>
      <trkpt lat="43.56769" lon="2.46231">
        <ele>738.208</ele>
        <time>2016-12-30T01:22:43Z</time>
      </trkpt>
      <trkpt lat="43.56734" lon="2.46122">
        <ele>735.06</ele>
        <time>2016-12-30T01:23:03Z</time>
      </trkpt>
      <trkpt lat="43.5672" lon="2.45998">
        <ele>735.023</ele>
        <time>2016-12-30T01:23:23Z</time>
      </trkpt>
      <trkpt lat="43.56701" lon="2.45924">
        <ele>735.019</ele>
        <time>2016-12-30T01:23:43Z</time>
      </trkpt>
      <trkpt lat="43.56668" lon="2.45813">
        <ele>730.418</ele>
        <time>2016-12-30T01:24:03Z</time>
      </trkpt>
      <trkpt lat="43.56612" lon="2.45679">
        <ele>722.745</ele>
        <time>2016-12-30T01:24:23Z</time>
      </trkpt>
      <trkpt lat="43.56576" lon="2.45641">
        <ele>720.546</ele>
        <time>2016-12-30T01:24:43Z</time>
      </trkpt>
      <trkpt lat="43.56535" lon="2.45555">
        <ele>714.875</ele>
        <time>2016-12-30T01:25:03Z</time>
      </trkpt>
      <trkpt lat="43.565" lon="2.45532">
        <ele>712.046</ele>
        <time>2016-12-30T01:25:23Z</time>
      </trkpt>
      <trkpt lat="43.56551" lon="2.45488">
        <ele>715.048</ele>
        <time>2016-12-30T01:25:43Z</time>
      </trkpt>
      <trkpt lat="43.56599" lon="2.45381">
        <ele>718.061</ele>
        <time>2016-12-30T01:26:03Z</time>
      </trkpt>
      <trkpt lat="43.5675" lon="2.45232">
        <ele>708.117</ele>
        <time>2016-12-30T01:26:23Z</time>
      </trkpt>
      <trkpt lat="43.56847" lon="2.45166">
        <ele>695.908</ele>
        <time>2016-12-30T01:26:43Z</time>
      </trkpt>
      <trkpt lat="43.56897" lon="2.45145">
        <ele>685.691</ele>
        <time>2016-12-30T01:27:03Z</time>
      </trkpt>
      <trkpt lat="43.56897" lon="2.4508">
        <ele>680.184</ele>
        <time>2016-12-30T01:27:23Z</time>
      </trkpt>
      <trkpt lat="43.56871" lon="2.45028">
        <ele>674.43</ele>
        <time>2016-12-30T01:27:43Z</time>
      </trkpt>
      <trkpt lat="43.56815" lon="2.45001">
        <ele>669.469</ele>
        <time>2016-12-30T01:28:03Z</time>
      </trkpt>
      <trkpt lat="43.56904" lon="2.44972">
        <ele>661.336</ele>
        <time>2016-12-30T01:28:23Z</time>
      </trkpt>
      <trkpt lat="43.56934" lon="2.44984">
        <ele>660.317</ele>
        <time>2016-12-30T01:29:03Z</time>
      </trkpt>
      <trkpt lat="43.56973" lon="2.45029">
        <ele>656.896</ele>
        <time>2016-12-30T01:29:23Z</time>
      </trkpt>
      <trkpt lat="43.56998" lon="2.45102">
        <ele>666.987</ele>
        <time>2021-04-17T08:00:10Z</time>
      </trkpt>
      <trkpt lat="43.5701" lon="2.45148">
        <ele>648.841</ele>
        <time>2016-12-30T01:29:43Z</time>
      </trkpt>
      <trkpt lat="43.57015" lon="2.45042">
        <ele>643.681</ele>
        <time>2016-12-30T01:30:23Z</time>
      </trkpt>
      <trkpt lat="43.56994" lon="2.44963">
        <ele>640.809</ele>
        <time>2016-12-30T01:30:43Z</time>
      </trkpt>
      <trkpt lat="43.56885" lon="2.44845">
        <ele>632.508</ele>
        <time>2016-12-30T01:31:03Z</time>
      </trkpt>
      <trkpt lat="43.56892" lon="2.44725">
        <ele>626.721</ele>
        <time>2016-12-30T01:31:23Z</time>
      </trkpt>
      <trkpt lat="43.56888" lon="2.44681">
        <ele>628.844</ele>
        <time>2016-12-30T01:31:43Z</time>
      </trkpt>
      <trkpt lat="43.56894" lon="2.4462">
        <ele>630.05</ele>
        <time>2016-12-30T01:32:03Z</time>
      </trkpt>
      <trkpt lat="43.56867" lon="2.44542">
        <ele>631.589</ele>
        <time>2016-12-30T01:32:43Z</time>
      </trkpt>
      <trkpt lat="43.56801" lon="2.44474">
        <ele>636.146</ele>
        <time>2016-12-30T01:33:03Z</time>
      </trkpt>
      <trkpt lat="43.56819" lon="2.44324">
        <ele>637.117</ele>
        <time>2016-12-30T01:33:23Z</time>
      </trkpt>
      <trkpt lat="43.56809" lon="2.44292">
        <ele>638.246</ele>
        <time>2016-12-30T01:33:43Z</time>
      </trkpt>
      <trkpt lat="43.56876" lon="2.44228">
        <ele>641.257</ele>
        <time>2016-12-30T01:34:03Z</time>
      </trkpt>
      <trkpt lat="43.56891" lon="2.44151">
        <ele>646.825</ele>
        <time>2016-12-30T01:34:23Z</time>
      </trkpt>
      <trkpt lat="43.56889" lon="2.44109">
        <ele>647.026</ele>
        <time>2016-12-30T01:34:43Z</time>
      </trkpt>
      <trkpt lat="43.56917" lon="2.43947">
        <ele>649.008</ele>
        <time>2016-12-30T01:35:03Z</time>
      </trkpt>
      <trkpt lat="43.56905" lon="2.43795">
        <ele>647.108</ele>
        <time>2016-12-30T01:35:23Z</time>
      </trkpt>
      <trkpt lat="43.56871" lon="2.43697">
        <ele>647.689</ele>
        <time>2016-12-30T01:35:43Z</time>
      </trkpt>
      <trkpt lat="43.56856" lon="2.43606">
        <ele>647.842</ele>
        <time>2016-12-30T01:36:03Z</time>
      </trkpt>
      <trkpt lat="43.56873" lon="2.4347">
        <ele>647.658</ele>
        <time>2016-12-30T01:36:23Z</time>
      </trkpt>
      <trkpt lat="43.56817" lon="2.43253">
        <ele>640.967</ele>
        <time>2016-12-30T01:36:43Z</time>
      </trkpt>
      <trkpt lat="43.56704" lon="2.43121">
        <ele>629.144</ele>
        <time>2016-12-30T01:37:03Z</time>
      </trkpt>
      <trkpt lat="43.56608" lon="2.42973">
        <ele>615.745</ele>
        <time>2016-12-30T01:37:23Z</time>
      </trkpt>
      <trkpt lat="43.56603" lon="2.42928">
        <ele>620.724</ele>
        <time>2021-04-17T08:07:50Z</time>
      </trkpt>
      <trkpt lat="43.56594" lon="2.42361">
        <ele>620.015</ele>
        <time>2016-12-30T01:37:43Z</time>
      </trkpt>
      <trkpt lat="43.5657" lon="2.42274">
        <ele>616.363</ele>
        <time>2016-12-30T01:38:03Z</time>
      </trkpt>
      <trkpt lat="43.56514" lon="2.42149">
        <ele>614.344</ele>
        <time>2016-12-30T01:38:23Z</time>
      </trkpt>
      <trkpt lat="43.56521" lon="2.42053">
        <ele>617.618</ele>
        <time>2016-12-30T01:38:43Z</time>
      </trkpt>
      <trkpt lat="43.56567" lon="2.41917">
        <ele>620.008</ele>
        <time>2016-12-30T01:39:03Z</time>
      </trkpt>
      <trkpt lat="43.56659" lon="2.41802">
        <ele>611.283</ele>
        <time>2016-12-30T01:39:23Z</time>
      </trkpt>
      <trkpt lat="43.56753" lon="2.41713">
        <ele>599.046</ele>
        <time>2016-12-30T01:39:43Z</time>
      </trkpt>
      <trkpt lat="43.56882" lon="2.41449">
        <ele>586.022</ele>
        <time>2016-12-30T01:40:03Z</time>
      </trkpt>
      <trkpt lat="43.56915" lon="2.41291">
        <ele>565.461</ele>
        <time>2016-12-30T01:40:23Z</time>
      </trkpt>
      <trkpt lat="43.56955" lon="2.41199">
        <ele>552.038</ele>
        <time>2016-12-30T01:40:43Z</time>
      </trkpt>
      <trkpt lat="43.57035" lon="2.41093">
        <ele>537.279</ele>
        <time>2016-12-30T01:41:03Z</time>
      </trkpt>
      <trkpt lat="43.57047" lon="2.4103">
        <ele>529.758</ele>
        <time>2016-12-30T01:41:23Z</time>
      </trkpt>
      <trkpt lat="43.57006" lon="2.41007">
        <ele>528.299</ele>
        <time>2016-12-30T01:41:43Z</time>
      </trkpt>
      <trkpt lat="43.57014" lon="2.40992">
        <ele>524.146</ele>
        <time>2016-12-30T01:42:03Z</time>
      </trkpt>
      <trkpt lat="43.57049" lon="2.40974">
        <ele>517.688</ele>
        <time>2016-12-30T01:42:23Z</time>
      </trkpt>
      <trkpt lat="43.57097" lon="2.40943">
        <ele>505.316</ele>
        <time>2016-12-30T01:42:43Z</time>
      </trkpt>
      <trkpt lat="43.57137" lon="2.40976">
        <ele>499.108</ele>
        <time>2016-12-30T01:43:03Z</time>
      </trkpt>
      <trkpt lat="43.57202" lon="2.4094">
        <ele>491.561</ele>
        <time>2016-12-30T01:43:23Z</time>
      </trkpt>
      <trkpt lat="43.57241" lon="2.40879">
        <ele>494.224</ele>
        <time>2016-12-30T01:43:43Z</time>
      </trkpt>
      <trkpt lat="43.57274" lon="2.40768">
        <ele>489.93</ele>
        <time>2016-12-30T01:44:03Z</time>
      </trkpt>
      <trkpt lat="43.57438" lon="2.40647">
        <ele>490.229</ele>
        <time>2016-12-30T01:44:23Z</time>
      </trkpt>
      <trkpt lat="43.57478" lon="2.4048">
        <ele>472.046</ele>
        <time>2016-12-30T01:44:43Z</time>
      </trkpt>
      <trkpt lat="43.57485" lon="2.40398">
        <ele>468.127</ele>
        <time>2016-12-30T01:45:03Z</time>
      </trkpt>
      <trkpt lat="43.57474" lon="2.40249">
        <ele>467.816</ele>
        <time>2016-12-30T01:45:23Z</time>
      </trkpt>
      <trkpt lat="43.57458" lon="2.40205">
        <ele>468.737</ele>
        <time>2016-12-30T01:45:43Z</time>
      </trkpt>
      <trkpt lat="43.5748" lon="2.40051">
        <ele>469.637</ele>
        <time>2016-12-30T01:46:03Z</time>
      </trkpt>
      <trkpt lat="43.57462" lon="2.39894">
        <ele>474.149</ele>
        <time>2016-12-30T01:46:23Z</time>
      </trkpt>
      <trkpt lat="43.57475" lon="2.39728">
        <ele>473.813</ele>
        <time>2016-12-30T01:46:43Z</time>
      </trkpt>
      <trkpt lat="43.57462" lon="2.39531">
        <ele>463.708</ele>
        <time>2016-12-30T01:47:03Z</time>
      </trkpt>
      <trkpt lat="43.57431" lon="2.39257">
        <ele>435.78</ele>
        <time>2016-12-30T01:47:23Z</time>
      </trkpt>
      <trkpt lat="43.57431" lon="2.39252">
        <ele>435.273</ele>
        <time>2016-12-30T01:47:43Z</time>
      </trkpt>
      <trkpt lat="43.57471" lon="2.39107">
        <ele>421.619</ele>
        <time>2016-12-30T01:48:03Z</time>
      </trkpt>
      <trkpt lat="43.57518" lon="2.39132">
        <ele>419.828</ele>
        <time>2016-12-30T01:48:23Z</time>
      </trkpt>
      <trkpt lat="43.57538" lon="2.39133">
        <ele>419.455</ele>
        <time>2016-12-30T01:49:03Z</time>
      </trkpt>
      <trkpt lat="43.57518" lon="2.39116">
        <ele>417.946</ele>
        <time>2016-12-30T01:49:23Z</time>
      </trkpt>
      <trkpt lat="43.57523" lon="2.39067">
        <ele>412.135</ele>
        <time>2016-12-30T01:49:43Z</time>
      </trkpt>
      <trkpt lat="43.57514" lon="2.38995">
        <ele>408.636</ele>
        <time>2016-12-30T01:50:03Z</time>
      </trkpt>
      <trkpt lat="43.57518" lon="2.38968">
        <ele>405.523</ele>
        <time>2016-12-30T01:50:23Z</time>
      </trkpt>
      <trkpt lat="43.57484" lon="2.38981">
        <ele>405.883</ele>
        <time>2016-12-30T01:50:43Z</time>
      </trkpt>
      <trkpt lat="43.57448" lon="2.39022">
        <ele>404.311</ele>
        <time>2016-12-30T01:51:03Z</time>
      </trkpt>
      <trkpt lat="43.57428" lon="2.39059">
        <ele>403.608</ele>
        <time>2016-12-30T01:51:23Z</time>
      </trkpt>
      <trkpt lat="43.57332" lon="2.3912">
        <ele>388.029</ele>
        <time>2016-12-30T01:51:43Z</time>
      </trkpt>
      <trkpt lat="43.57335" lon="2.39069">
        <ele>380.922</ele>
        <time>2016-12-30T01:52:03Z</time>
      </trkpt>
      <trkpt lat="43.57356" lon="2.38981">
        <ele>373.978</ele>
        <time>2016-12-30T01:52:23Z</time>
      </trkpt>
      <trkpt lat="43.57361" lon="2.3893">
        <ele>367.667</ele>
        <time>2016-12-30T01:52:43Z</time>
      </trkpt>
      <trkpt lat="43.57418" lon="2.38856">
        <ele>351.834</ele>
        <time>2016-12-30T01:53:03Z</time>
      </trkpt>
      <trkpt lat="43.57486" lon="2.38699">
        <ele>332.675</ele>
        <time>2016-12-30T01:53:23Z</time>
      </trkpt>
      <trkpt lat="43.57496" lon="2.38658">
        <ele>324.274</ele>
        <time>2016-12-30T01:53:43Z</time>
      </trkpt>
      <trkpt lat="43.57515" lon="2.38617">
        <ele>320.635</ele>
        <time>2016-12-30T01:54:03Z</time>
      </trkpt>
      <trkpt lat="43.57549" lon="2.38566">
        <ele>316.437</ele>
        <time>2016-12-30T01:54:23Z</time>
      </trkpt>
      <trkpt lat="43.57563" lon="2.38505">
        <ele>314.949</ele>
        <time>2016-12-30T01:54:43Z</time>
      </trkpt>
      <trkpt lat="43.57583" lon="2.38453">
        <ele>311.813</ele>
        <time>2016-12-30T01:55:03Z</time>
      </trkpt>
      <trkpt lat="43.57575" lon="2.38383">
        <ele>310.808</ele>
        <time>2016-12-30T01:55:23Z</time>
      </trkpt>
      <trkpt lat="43.57549" lon="2.38362">
        <ele>316.55</ele>
        <time>2016-12-30T01:55:43Z</time>
      </trkpt>
      <trkpt lat="43.57515" lon="2.38283">
        <ele>306.223</ele>
        <time>2016-12-30T01:56:03Z</time>
      </trkpt>
      <trkpt lat="43.57494" lon="2.38259">
        <ele>304.889</ele>
        <time>2016-12-30T01:56:23Z</time>
      </trkpt>
      <trkpt lat="43.57463" lon="2.38241">
        <ele>310.798</ele>
        <time>2016-12-30T01:56:43Z</time>
      </trkpt>
      <trkpt lat="43.57458" lon="2.38185">
        <ele>299.435</ele>
        <time>2016-12-30T01:57:03Z</time>
      </trkpt>
      <trkpt lat="43.5741" lon="2.38103">
        <ele>300.886</ele>
        <time>2016-12-30T01:57:23Z</time>
      </trkpt>
      <trkpt lat="43.5742" lon="2.38059">
        <ele>296.685</ele>
        <time>2016-12-30T01:57:43Z</time>
      </trkpt>
      <trkpt lat="43.57459" lon="2.38004">
        <ele>289.446</ele>
        <time>2016-12-30T01:58:03Z</time>
      </trkpt>
      <trkpt lat="43.5748" lon="2.37951">
        <ele>288.533</ele>
        <time>2016-12-30T01:58:23Z</time>
      </trkpt>
      <trkpt lat="43.57557" lon="2.37919">
        <ele>272.723</ele>
        <time>2016-12-30T01:58:43Z</time>
      </trkpt>
      <trkpt lat="43.57573" lon="2.37892">
        <ele>269.215</ele>
        <time>2016-12-30T01:59:03Z</time>
      </trkpt>
      <trkpt lat="43.57611" lon="2.37867">
        <ele>266.208</ele>
        <time>2016-12-30T01:59:23Z</time>
      </trkpt>
      <trkpt lat="43.57637" lon="2.37838">
        <ele>262.59</ele>
        <time>2016-12-30T01:59:43Z</time>
      </trkpt>
      <trkpt lat="43.57632" lon="2.37815">
        <ele>263.693</ele>
        <time>2016-12-30T02:00:03Z</time>
      </trkpt>
      <trkpt lat="43.57754" lon="2.37725">
        <ele>272.519</ele>
        <time>2016-12-30T02:00:23Z</time>
      </trkpt>
      <trkpt lat="43.57796" lon="2.37723">
        <ele>272.518</ele>
        <time>2016-12-30T02:00:43Z</time>
      </trkpt>
      <trkpt lat="43.57817" lon="2.37704">
        <ele>276.555</ele>
        <time>2016-12-30T02:01:03Z</time>
      </trkpt>
      <trkpt lat="43.57972" lon="2.37674">
        <ele>294.836</ele>
        <time>2016-12-30T02:02:43Z</time>
      </trkpt>
      <trkpt lat="43.58029" lon="2.37635">
        <ele>304.985</ele>
        <time>2016-12-30T02:03:03Z</time>
      </trkpt>
      <trkpt lat="43.58065" lon="2.37468">
        <ele>311.856</ele>
        <time>2016-12-30T02:03:23Z</time>
      </trkpt>
      <trkpt lat="43.5806" lon="2.37353">
        <ele>314.063</ele>
        <time>2016-12-30T02:03:43Z</time>
      </trkpt>
      <trkpt lat="43.58038" lon="2.37236">
        <ele>325.844</ele>
        <time>2016-12-30T02:04:03Z</time>
      </trkpt>
      <trkpt lat="43.58072" lon="2.37117">
        <ele>333.918</ele>
        <time>2016-12-30T02:04:23Z</time>
      </trkpt>
      <trkpt lat="43.5808" lon="2.37033">
        <ele>339.608</ele>
        <time>2016-12-30T02:04:43Z</time>
      </trkpt>
      <trkpt lat="43.58069" lon="2.37024">
        <ele>339.543</ele>
        <time>2016-12-30T02:05:23Z</time>
      </trkpt>
      <trkpt lat="43.58077" lon="2.37002">
        <ele>340.216</ele>
        <time>2016-12-30T02:05:43Z</time>
      </trkpt>
      <trkpt lat="43.58093" lon="2.37009">
        <ele>341.352</ele>
        <time>2016-12-30T02:06:03Z</time>
      </trkpt>
      <trkpt lat="43.58136" lon="2.36884">
        <ele>346.061</ele>
        <time>2016-12-30T02:06:23Z</time>
      </trkpt>
      <trkpt lat="43.58167" lon="2.36745">
        <ele>347.228</ele>
        <time>2016-12-30T02:06:43Z</time>
      </trkpt>
      <trkpt lat="43.58211" lon="2.36688">
        <ele>347.569</ele>
        <time>2016-12-30T02:09:03Z</time>
      </trkpt>
      <trkpt lat="43.58219" lon="2.36587">
        <ele>345.778</ele>
        <time>2016-12-30T02:10:03Z</time>
      </trkpt>
      <trkpt lat="43.5827" lon="2.36469">
        <ele>343.219</ele>
        <time>2021-04-17T08:36:10Z</time>
      </trkpt>
      <trkpt lat="43.58286" lon="2.36402">
        <ele>340.871</ele>
        <time>2021-04-17T08:36:30Z</time>
      </trkpt>
      <trkpt lat="43.58293" lon="2.36326">
        <ele>339.041</ele>
        <time>2021-04-17T08:36:50Z</time>
      </trkpt>
      <trkpt lat="43.58265" lon="2.36271">
        <ele>333.815</ele>
        <time>2021-04-17T08:37:10Z</time>
      </trkpt>
      <trkpt lat="43.58194" lon="2.36166">
        <ele>325.008</ele>
        <time>2016-12-30T02:11:43Z</time>
      </trkpt>
      <trkpt lat="43.58148" lon="2.36108">
        <ele>319.794</ele>
        <time>2016-12-30T02:14:43Z</time>
      </trkpt>
      <trkpt lat="43.58127" lon="2.36058">
        <ele>318.697</ele>
        <time>2016-12-30T02:15:03Z</time>
      </trkpt>
      <trkpt lat="43.58101" lon="2.35949">
        <ele>312.433</ele>
        <time>2016-12-30T02:15:23Z</time>
      </trkpt>
      <trkpt lat="43.58056" lon="2.35963">
        <ele>310.072</ele>
        <time>2016-12-30T02:15:43Z</time>
      </trkpt>
      <trkpt lat="43.58017" lon="2.35942">
        <ele>305.039</ele>
        <time>2016-12-30T02:16:03Z</time>
      </trkpt>
      <trkpt lat="43.57983" lon="2.35902">
        <ele>298.92</ele>
        <time>2016-12-30T02:16:23Z</time>
      </trkpt>
      <trkpt lat="43.57945" lon="2.35879">
        <ele>292.639</ele>
        <time>2016-12-30T02:16:43Z</time>
      </trkpt>
      <trkpt lat="43.57904" lon="2.35798">
        <ele>280.83</ele>
        <time>2016-12-30T02:17:03Z</time>
      </trkpt>
      <trkpt lat="43.57883" lon="2.35713">
        <ele>270.482</ele>
        <time>2016-12-30T02:17:23Z</time>
      </trkpt>
      <trkpt lat="43.57836" lon="2.35593">
        <ele>252.243</ele>
        <time>2016-12-30T02:17:43Z</time>
      </trkpt>
      <trkpt lat="43.57832" lon="2.35516">
        <ele>245.517</ele>
        <time>2016-12-30T02:18:03Z</time>
      </trkpt>
      <trkpt lat="43.57805" lon="2.3542">
        <ele>243.608</ele>
        <time>2016-12-30T02:18:23Z</time>
      </trkpt>
      <trkpt lat="43.57773" lon="2.35365">
        <ele>245.215</ele>
        <time>2016-12-30T02:18:43Z</time>
      </trkpt>
      <trkpt lat="43.57724" lon="2.35327">
        <ele>247.078</ele>
        <time>2016-12-30T02:19:03Z</time>
      </trkpt>
      <trkpt lat="43.57667" lon="2.35275">
        <ele>246.554</ele>
        <time>2016-12-30T02:19:23Z</time>
      </trkpt>
      <trkpt lat="43.57618" lon="2.35225">
        <ele>244.643</ele>
        <time>2016-12-30T02:19:43Z</time>
      </trkpt>
      <trkpt lat="43.57542" lon="2.35188">
        <ele>239.09</ele>
        <time>2016-12-30T02:20:03Z</time>
      </trkpt>
      <trkpt lat="43.57515" lon="2.35146">
        <ele>238.161</ele>
        <time>2016-12-30T02:22:43Z</time>
      </trkpt>
      <trkpt lat="43.57438" lon="2.35112">
        <ele>233.56</ele>
        <time>2016-12-30T02:23:03Z</time>
      </trkpt>
      <trkpt lat="43.57453" lon="2.35007">
        <ele>234.111</ele>
        <time>2016-12-30T02:23:23Z</time>
      </trkpt>
      <trkpt lat="43.57491" lon="2.34624">
        <ele>237.582</ele>
        <time>2016-12-30T02:23:43Z</time>
      </trkpt>
      <trkpt lat="43.57476" lon="2.345">
        <ele>237.243</ele>
        <time>2016-12-30T02:24:03Z</time>
      </trkpt>
      <trkpt lat="43.5751" lon="2.34482">
        <ele>239.317</ele>
        <time>2016-12-30T02:24:23Z</time>
      </trkpt>
      <trkpt lat="43.57569" lon="2.34483">
        <ele>244.008</ele>
        <time>2016-12-30T02:24:43Z</time>
      </trkpt>
      <trkpt lat="43.57643" lon="2.34464">
        <ele>251.575</ele>
        <time>2016-12-30T02:25:03Z</time>
      </trkpt>
      <trkpt lat="43.57724" lon="2.34484">
        <ele>255.428</ele>
        <time>2016-12-30T02:25:23Z</time>
      </trkpt>
      <trkpt lat="43.57681" lon="2.34502">
        <ele>258.974</ele>
        <time>2021-04-17T08:46:30Z</time>
      </trkpt>
      <trkpt lat="43.57662" lon="2.34529">
        <ele>259.843</ele>
        <time>2021-04-17T08:46:50Z</time>
      </trkpt>
      <trkpt lat="43.57711" lon="2.34781">
        <ele>282.97</ele>
        <time>2021-04-17T08:47:10Z</time>
      </trkpt>
      <trkpt lat="43.5786" lon="2.35063">
        <ele>311.031</ele>
        <time>2016-12-30T02:26:23Z</time>
      </trkpt>
      <trkpt lat="43.57954" lon="2.35079">
        <ele>317.06</ele>
        <time>2016-12-30T02:26:43Z</time>
      </trkpt>
      <trkpt lat="43.58165" lon="2.34992">
        <ele>318.281</ele>
        <time>2016-12-30T02:27:03Z</time>
      </trkpt>
      <trkpt lat="43.582" lon="2.3501">
        <ele>314.215</ele>
        <time>2016-12-30T02:27:23Z</time>
      </trkpt>
      <trkpt lat="43.58238" lon="2.34941">
        <ele>309.965</ele>
        <time>2016-12-30T02:27:43Z</time>
      </trkpt>
      <trkpt lat="43.58255" lon="2.3493">
        <ele>309.811</ele>
        <time>2016-12-30T02:28:03Z</time>
      </trkpt>
      <trkpt lat="43.58261" lon="2.34895">
        <ele>310.008</ele>
        <time>2016-12-30T02:28:23Z</time>
      </trkpt>
      <trkpt lat="43.58328" lon="2.34802">
        <ele>310.068</ele>
        <time>2016-12-30T02:28:43Z</time>
      </trkpt>
      <trkpt lat="43.58353" lon="2.34788">
        <ele>310.041</ele>
        <time>2016-12-30T02:29:03Z</time>
      </trkpt>
      <trkpt lat="43.58458" lon="2.34653">
        <ele>317.397</ele>
        <time>2016-12-30T02:29:23Z</time>
      </trkpt>
      <trkpt lat="43.58473" lon="2.34544">
        <ele>321.186</ele>
        <time>2016-12-30T02:29:43Z</time>
      </trkpt>
      <trkpt lat="43.58505" lon="2.34483">
        <ele>326.123</ele>
        <time>2016-12-30T02:30:03Z</time>
      </trkpt>
      <trkpt lat="43.58586" lon="2.34451">
        <ele>330.044</ele>
        <time>2016-12-30T02:30:23Z</time>
      </trkpt>
      <trkpt lat="43.58654" lon="2.34434">
        <ele>330.043</ele>
        <time>2016-12-30T02:30:43Z</time>
      </trkpt>
      <trkpt lat="43.58706" lon="2.34444">
        <ele>335.144</ele>
        <time>2016-12-30T02:31:23Z</time>
      </trkpt>
      <trkpt lat="43.58728" lon="2.34464">
        <ele>339.726</ele>
        <time>2016-12-30T02:31:43Z</time>
      </trkpt>
      <trkpt lat="43.5877" lon="2.34423">
        <ele>342.847</ele>
        <time>2016-12-30T02:32:03Z</time>
      </trkpt>
      <trkpt lat="43.58804" lon="2.34414">
        <ele>344.511</ele>
        <time>2016-12-30T02:32:23Z</time>
      </trkpt>
      <trkpt lat="43.58849" lon="2.34442">
        <ele>350.808</ele>
        <time>2016-12-30T02:32:43Z</time>
      </trkpt>
      <trkpt lat="43.58886" lon="2.34432">
        <ele>352.879</ele>
        <time>2016-12-30T02:33:03Z</time>
      </trkpt>
      <trkpt lat="43.58934" lon="2.34392">
        <ele>354.182</ele>
        <time>2016-12-30T02:33:23Z</time>
      </trkpt>
      <trkpt lat="43.59032" lon="2.34231">
        <ele>358.768</ele>
        <time>2016-12-30T02:33:43Z</time>
      </trkpt>
      <trkpt lat="43.59155" lon="2.33966">
        <ele>332.347</ele>
        <time>2016-12-30T02:34:03Z</time>
      </trkpt>
      <trkpt lat="43.59192" lon="2.33844">
        <ele>335.494</ele>
        <time>2016-12-30T02:34:23Z</time>
      </trkpt>
      <trkpt lat="43.5923" lon="2.33633">
        <ele>348.875</ele>
        <time>2016-12-30T02:35:03Z</time>
      </trkpt>
      <trkpt lat="43.59236" lon="2.33498">
        <ele>350.054</ele>
        <time>2016-12-30T02:35:23Z</time>
      </trkpt>
      <trkpt lat="43.59223" lon="2.33359">
        <ele>350.035</ele>
        <time>2016-12-30T02:35:43Z</time>
      </trkpt>
      <trkpt lat="43.59233" lon="2.33166">
        <ele>344.319</ele>
        <time>2016-12-30T02:36:03Z</time>
      </trkpt>
      <trkpt lat="43.59229" lon="2.33088">
        <ele>339.409</ele>
        <time>2016-12-30T02:36:23Z</time>
      </trkpt>
      <trkpt lat="43.59255" lon="2.32941">
        <ele>331.419</ele>
        <time>2016-12-30T02:36:43Z</time>
      </trkpt>
      <trkpt lat="43.59266" lon="2.32787">
        <ele>319.908</ele>
        <time>2016-12-30T02:38:03Z</time>
      </trkpt>
      <trkpt lat="43.59278" lon="2.32716">
        <ele>314.698</ele>
        <time>2016-12-30T02:38:23Z</time>
      </trkpt>
      <trkpt lat="43.59248" lon="2.32707">
        <ele>315.551</ele>
        <time>2016-12-30T02:38:43Z</time>
      </trkpt>
      <trkpt lat="43.59191" lon="2.32597">
        <ele>311.547</ele>
        <time>2016-12-30T02:39:03Z</time>
      </trkpt>
      <trkpt lat="43.59064" lon="2.32504">
        <ele>298.036</ele>
        <time>2016-12-30T02:39:23Z</time>
      </trkpt>
      <trkpt lat="43.58939" lon="2.32274">
        <ele>277.693</ele>
        <time>2016-12-30T02:39:43Z</time>
      </trkpt>
      <trkpt lat="43.58908" lon="2.32259">
        <ele>275.214</ele>
        <time>2016-12-30T02:40:03Z</time>
      </trkpt>
      <trkpt lat="43.58975" lon="2.32092">
        <ele>267.613</ele>
        <time>2016-12-30T02:40:43Z</time>
      </trkpt>
      <trkpt lat="43.58983" lon="2.32024">
        <ele>262.134</ele>
        <time>2016-12-30T02:41:03Z</time>
      </trkpt>
      <trkpt lat="43.59014" lon="2.31897">
        <ele>264.091</ele>
        <time>2016-12-30T02:41:23Z</time>
      </trkpt>
      <trkpt lat="43.59085" lon="2.31828">
        <ele>281.681</ele>
        <time>2021-04-17T09:00:50Z</time>
      </trkpt>
      <trkpt lat="43.59132" lon="2.31756">
        <ele>279.019</ele>
        <time>2016-12-30T02:42:23Z</time>
      </trkpt>
      <trkpt lat="43.59093" lon="2.31694">
        <ele>286.008</ele>
        <time>2016-12-30T02:42:43Z</time>
      </trkpt>
      <trkpt lat="43.59098" lon="2.31642">
        <ele>288.776</ele>
        <time>2016-12-30T02:43:03Z</time>
      </trkpt>
      <trkpt lat="43.59154" lon="2.3146">
        <ele>299.669</ele>
        <time>2016-12-30T02:43:23Z</time>
      </trkpt>
      <trkpt lat="43.59183" lon="2.31431">
        <ele>313.165</ele>
        <time>2021-04-17T09:02:30Z</time>
      </trkpt>
      <trkpt lat="43.59231" lon="2.31473">
        <ele>296.354</ele>
        <time>2016-12-30T02:44:03Z</time>
      </trkpt>
      <trkpt lat="43.5932" lon="2.31376">
        <ele>301.661</ele>
        <time>2016-12-30T02:44:23Z</time>
      </trkpt>
      <trkpt lat="43.5934" lon="2.31318">
        <ele>302.782</ele>
        <time>2016-12-30T02:44:43Z</time>
      </trkpt>
      <trkpt lat="43.5935" lon="2.31217">
        <ele>303.581</ele>
        <time>2016-12-30T02:45:03Z</time>
      </trkpt>
      <trkpt lat="43.59343" lon="2.31159">
        <ele>307.172</ele>
        <time>2016-12-30T02:45:23Z</time>
      </trkpt>
      <trkpt lat="43.59366" lon="2.31064">
        <ele>304.641</ele>
        <time>2016-12-30T02:45:43Z</time>
      </trkpt>
      <trkpt lat="43.59407" lon="2.30981">
        <ele>306.681</ele>
        <time>2021-04-17T09:04:50Z</time>
      </trkpt>
      <trkpt lat="43.59506" lon="2.30844">
        <ele>310.409</ele>
        <time>2016-12-30T02:46:23Z</time>
      </trkpt>
      <trkpt lat="43.59549" lon="2.30835">
        <ele>309.508</ele>
        <time>2016-12-30T02:46:43Z</time>
      </trkpt>
      <trkpt lat="43.59589" lon="2.30862">
        <ele>305.981</ele>
        <time>2016-12-30T02:47:03Z</time>
      </trkpt>
      <trkpt lat="43.59626" lon="2.30982">
        <ele>292.044</ele>
        <time>2016-12-30T02:47:23Z</time>
      </trkpt>
      <trkpt lat="43.59727" lon="2.30947">
        <ele>280.98</ele>
        <time>2016-12-30T02:47:43Z</time>
      </trkpt>
      <trkpt lat="43.59707" lon="2.30771">
        <ele>292.369</ele>
        <time>2016-12-30T02:48:03Z</time>
      </trkpt>
      <trkpt lat="43.5975" lon="2.30661">
        <ele>294.736</ele>
        <time>2016-12-30T02:48:23Z</time>
      </trkpt>
      <trkpt lat="43.5977" lon="2.30569">
        <ele>299.647</ele>
        <time>2016-12-30T02:48:43Z</time>
      </trkpt>
      <trkpt lat="43.59767" lon="2.30496">
        <ele>297.826</ele>
        <time>2016-12-30T02:49:03Z</time>
      </trkpt>
      <trkpt lat="43.59774" lon="2.30449">
        <ele>295.357</ele>
        <time>2016-12-30T02:49:23Z</time>
      </trkpt>
      <trkpt lat="43.59811" lon="2.30398">
        <ele>292.513</ele>
        <time>2016-12-30T02:49:43Z</time>
      </trkpt>
      <trkpt lat="43.59836" lon="2.30318">
        <ele>298.943</ele>
        <time>2016-12-30T02:50:03Z</time>
      </trkpt>
      <trkpt lat="43.59881" lon="2.30236">
        <ele>306.807</ele>
        <time>2016-12-30T02:50:23Z</time>
      </trkpt>
      <trkpt lat="43.59933" lon="2.30154">
        <ele>310.708</ele>
        <time>2016-12-30T02:50:43Z</time>
      </trkpt>
      <trkpt lat="43.59945" lon="2.30114">
        <ele>313.968</ele>
        <time>2016-12-30T02:51:03Z</time>
      </trkpt>
      <trkpt lat="43.59968" lon="2.30025">
        <ele>316.541</ele>
        <time>2016-12-30T02:51:23Z</time>
      </trkpt>
      <trkpt lat="43.59966" lon="2.29984">
        <ele>313.377</ele>
        <time>2016-12-30T02:51:43Z</time>
      </trkpt>
      <trkpt lat="43.59948" lon="2.29895">
        <ele>305.146</ele>
        <time>2016-12-30T02:52:03Z</time>
      </trkpt>
      <trkpt lat="43.59966" lon="2.29786">
        <ele>301.073</ele>
        <time>2016-12-30T02:52:23Z</time>
      </trkpt>
      <trkpt lat="43.59934" lon="2.29542">
        <ele>291.594</ele>
        <time>2016-12-30T02:52:43Z</time>
      </trkpt>
      <trkpt lat="43.59933" lon="2.29445">
        <ele>289.913</ele>
        <time>2016-12-30T02:53:03Z</time>
      </trkpt>
      <trkpt lat="43.59862" lon="2.29312">
        <ele>298.554</ele>
        <time>2016-12-30T02:53:23Z</time>
      </trkpt>
      <trkpt lat="43.59835" lon="2.29206">
        <ele>295.782</ele>
        <time>2021-04-17T09:12:30Z</time>
      </trkpt>
      <trkpt lat="43.59809" lon="2.29067">
        <ele>292.643</ele>
        <time>2016-12-30T02:53:43Z</time>
      </trkpt>
      <trkpt lat="43.5978" lon="2.28838">
        <ele>279.117</ele>
        <time>2016-12-30T02:54:03Z</time>
      </trkpt>
      <trkpt lat="43.5973" lon="2.28736">
        <ele>270.708</ele>
        <time>2016-12-30T02:54:23Z</time>
      </trkpt>
      <trkpt lat="43.59697" lon="2.28574">
        <ele>270.065</ele>
        <time>2016-12-30T02:54:43Z</time>
      </trkpt>
      <trkpt lat="43.59551" lon="2.28247">
        <ele>269.968</ele>
        <time>2016-12-30T02:55:03Z</time>
      </trkpt>
      <trkpt lat="43.59526" lon="2.28142">
        <ele>265.154</ele>
        <time>2016-12-30T02:55:23Z</time>
      </trkpt>
      <trkpt lat="43.59564" lon="2.28015">
        <ele>258.653</ele>
        <time>2016-12-30T02:55:43Z</time>
      </trkpt>
      <trkpt lat="43.59619" lon="2.27908">
        <ele>250.02</ele>
        <time>2016-12-30T02:56:23Z</time>
      </trkpt>
      <trkpt lat="43.59703" lon="2.27825">
        <ele>249.041</ele>
        <time>2016-12-30T02:56:43Z</time>
      </trkpt>
      <trkpt lat="43.59726" lon="2.27787">
        <ele>249.27</ele>
        <time>2016-12-30T02:57:03Z</time>
      </trkpt>
      <trkpt lat="43.59894" lon="2.27643">
        <ele>239.141</ele>
        <time>2016-12-30T02:57:23Z</time>
      </trkpt>
      <trkpt lat="43.59926" lon="2.27416">
        <ele>238.363</ele>
        <time>2016-12-30T02:57:43Z</time>
      </trkpt>
      <trkpt lat="43.59794" lon="2.2706">
        <ele>205.744</ele>
        <time>2016-12-30T02:58:03Z</time>
      </trkpt>
      <trkpt lat="43.59726" lon="2.2691">
        <ele>198.318</ele>
        <time>2016-12-30T02:58:23Z</time>
      </trkpt>
      <trkpt lat="43.59848" lon="2.26548">
        <ele>193.308</ele>
        <time>2016-12-30T02:58:43Z</time>
      </trkpt>
      <trkpt lat="43.59914" lon="2.26395">
        <ele>191.983</ele>
        <time>2016-12-30T02:59:03Z</time>
      </trkpt>
      <trkpt lat="43.5993" lon="2.26322">
        <ele>190.636</ele>
        <time>2016-12-30T03:00:23Z</time>
      </trkpt>
      <trkpt lat="43.60021" lon="2.26185">
        <ele>190.882</ele>
        <time>2016-12-30T03:00:43Z</time>
      </trkpt>
      <trkpt lat="43.60152" lon="2.26015">
        <ele>191.511</ele>
        <time>2016-12-30T03:01:03Z</time>
      </trkpt>
      <trkpt lat="43.60222" lon="2.25904">
        <ele>190.028</ele>
        <time>2016-12-30T03:01:23Z</time>
      </trkpt>
      <trkpt lat="43.60247" lon="2.25638">
        <ele>185.769</ele>
        <time>2016-12-30T03:01:43Z</time>
      </trkpt>
      <trkpt lat="43.60276" lon="2.25499">
        <ele>184.898</ele>
        <time>2016-12-30T03:02:03Z</time>
      </trkpt>
      <trkpt lat="43.60365" lon="2.25279">
        <ele>183.269</ele>
        <time>2016-12-30T03:02:23Z</time>
      </trkpt>
      <trkpt lat="43.60379" lon="2.25217">
        <ele>182.512</ele>
        <time>2016-12-30T03:04:23Z</time>
      </trkpt>
      <trkpt lat="43.60418" lon="2.25131">
        <ele>182.032</ele>
        <time>2016-12-30T03:04:43Z</time>
      </trkpt>
      <trkpt lat="43.60538" lon="2.24747">
        <ele>176.905</ele>
        <time>2016-12-30T03:05:03Z</time>
      </trkpt>
      <trkpt lat="43.60573" lon="2.24694">
        <ele>176.608</ele>
        <time>2016-12-30T03:05:23Z</time>
      </trkpt>
      <trkpt lat="43.60602" lon="2.2467">
        <ele>176.228</ele>
        <time>2016-12-30T03:05:43Z</time>
      </trkpt>
      <trkpt lat="43.60517" lon="2.24622">
        <ele>174.021</ele>
        <time>2016-12-30T03:06:03Z</time>
      </trkpt>
      <trkpt lat="43.60627" lon="2.24392">
        <ele>169.267</ele>
        <time>2016-12-30T03:06:23Z</time>
      </trkpt>
      <trkpt lat="43.60528" lon="2.2436">
        <ele>166.066</ele>
        <time>2016-12-30T03:06:43Z</time>
      </trkpt>
      <trkpt lat="43.60524" lon="2.24315">
        <ele>165.493</ele>
        <time>2016-12-30T03:07:03Z</time>
      </trkpt>
      <trkpt lat="43.60475" lon="2.24312">
        <ele>165.234</ele>
        <time>2016-12-30T03:07:23Z</time>
      </trkpt>
      <trkpt lat="43.60481" lon="2.24238">
        <ele>168.583</ele>
        <time>2016-12-30T03:07:43Z</time>
      </trkpt>
      <trkpt lat="43.60405" lon="2.24226">
        <ele>169.474</ele>
        <time>2016-12-30T03:08:03Z</time>
      </trkpt>
      <trkpt lat="43.60403" lon="2.24145">
        <ele>178.184</ele>
        <time>2021-04-17T09:24:30Z</time>
      </trkpt>
      <trkpt lat="43.60296" lon="2.24135">
        <ele>177.507</ele>
        <time>2021-04-17T09:24:50Z</time>
      </trkpt>
      <trkpt lat="43.60286" lon="2.24204">
        <ele>173.517</ele>
        <time>2021-04-17T09:25:10Z</time>
      </trkpt>
      <trkpt lat="43.60227" lon="2.24193">
        <ele>174.808</ele>
        <time>2021-04-17T09:25:30Z</time>
      </trkpt>
      <trkpt lat="43.60215" lon="2.24214">
        <ele>173.565</ele>
        <time>2021-04-17T09:25:50Z</time>
      </trkpt>
      <trkpt lat="43.59966" lon="2.24129">
        <ele>165.588</ele>
        <time>2016-12-30T03:10:03Z</time>
      </trkpt>
      <trkpt lat="43.59793" lon="2.24042">
        <ele>167.314</ele>
        <time>2016-12-30T03:10:23Z</time>
      </trkpt>
      <trkpt lat="43.59654" lon="2.23966">
        <ele>167.893</ele>
        <time>2016-12-30T03:10:43Z</time>
      </trkpt>
      <trkpt lat="43.5962" lon="2.24075">
        <ele>166.84</ele>
        <time>2016-12-30T03:11:03Z</time>
      </trkpt>
      <trkpt lat="43.59632" lon="2.24106">
        <ele>168.591</ele>
        <time>2016-12-30T03:11:23Z</time>
      </trkpt>
      <trkpt lat="43.59627" lon="2.24191">
        <ele>172.78</ele>
        <time>2016-12-30T03:11:43Z</time>
      </trkpt>
      <trkpt lat="43.59537" lon="2.24181">
        <ele>176.781</ele>
        <time>2016-12-30T03:12:03Z</time>
      </trkpt>
      <trkpt lat="43.59533" lon="2.24163">
        <ele>176.633</ele>
        <time>2016-12-30T03:12:23Z</time>
      </trkpt>
      <trkpt lat="43.59457" lon="2.24104">
        <ele>176.523</ele>
        <time>2016-12-30T03:12:43Z</time>
      </trkpt>
      <trkpt lat="43.59418" lon="2.24095">
        <ele>178.815</ele>
        <time>2016-12-30T03:13:03Z</time>
      </trkpt>
      <trkpt lat="43.59344" lon="2.24051">
        <ele>180.208</ele>
        <time>2016-12-30T03:13:23Z</time>
      </trkpt>
      <trkpt lat="43.59268" lon="2.23957">
        <ele>180.54</ele>
        <time>2016-12-30T03:13:43Z</time>
      </trkpt>
      <trkpt lat="43.59195" lon="2.23841">
        <ele>182.653</ele>
        <time>2016-12-30T03:14:03Z</time>
      </trkpt>
      <trkpt lat="43.591" lon="2.23717">
        <ele>181.729</ele>
        <time>2016-12-30T03:14:23Z</time>
      </trkpt>
      <trkpt lat="43.59028" lon="2.23711">
        <ele>181.848</ele>
        <time>2016-12-30T03:14:43Z</time>
      </trkpt>
      <trkpt lat="43.58907" lon="2.23604">
        <ele>182.225</ele>
        <time>2016-12-30T03:15:03Z</time>
      </trkpt>
      <trkpt lat="43.58879" lon="2.23592">
        <ele>183.766</ele>
        <time>2016-12-30T03:15:23Z</time>
      </trkpt>
      <trkpt lat="43.58665" lon="2.23069">
        <ele>174.065</ele>
        <time>2016-12-30T03:15:43Z</time>
      </trkpt>
      <trkpt lat="43.58599" lon="2.22947">
        <ele>179.566</ele>
        <time>2016-12-30T03:16:03Z</time>
      </trkpt>
      <trkpt lat="43.5852" lon="2.22861">
        <ele>179.387</ele>
        <time>2016-12-30T03:17:03Z</time>
      </trkpt>
      <trkpt lat="43.58448" lon="2.22844">
        <ele>179.542</ele>
        <time>2021-04-17T09:32:50Z</time>
      </trkpt>
      <trkpt lat="43.58363" lon="2.22674">
        <ele>176.026</ele>
        <time>2016-12-30T03:17:43Z</time>
      </trkpt>
      <trkpt lat="43.58388" lon="2.22563">
        <ele>170.608</ele>
        <time>2016-12-30T03:18:03Z</time>
      </trkpt>
      <trkpt lat="43.58465" lon="2.22501">
        <ele>170.015</ele>
        <time>2016-12-30T03:18:23Z</time>
      </trkpt>
      <trkpt lat="43.58322" lon="2.22285">
        <ele>163.958</ele>
        <time>2016-12-30T03:18:43Z</time>
      </trkpt>
      <trkpt lat="43.58252" lon="2.22209">
        <ele>160.594</ele>
        <time>2016-12-30T03:19:03Z</time>
      </trkpt>
      <trkpt lat="43.58218" lon="2.22221">
        <ele>161.013</ele>
        <time>2016-12-30T03:19:23Z</time>
      </trkpt>
      <trkpt lat="43.58171" lon="2.22166">
        <ele>160.06</ele>
        <time>2016-12-30T03:19:43Z</time>
      </trkpt>
      <trkpt lat="43.58096" lon="2.22147">
        <ele>160.031</ele>
        <time>2016-12-30T03:20:03Z</time>
      </trkpt>
      <trkpt lat="43.58052" lon="2.22143">
        <ele>160.02</ele>
        <time>2016-12-30T03:20:23Z</time>
      </trkpt>
      <trkpt lat="43.58008" lon="2.22139">
        <ele>160.091</ele>
        <time>2016-12-30T03:20:43Z</time>
      </trkpt>
      <trkpt lat="43.58002" lon="2.22198">
        <ele>160.056</ele>
        <time>2016-12-30T03:21:03Z</time>
      </trkpt>
      <trkpt lat="43.57981" lon="2.22279">
        <ele>159.359</ele>
        <time>2016-12-30T03:21:23Z</time>
      </trkpt>
      <trkpt lat="43.5802" lon="2.22317">
        <ele>161.114</ele>
        <time>2016-12-30T03:21:43Z</time>
      </trkpt>
      <trkpt lat="43.58017" lon="2.22329">
        <ele>166.208</ele>
        <time>2021-04-17T09:37:30Z</time>
      </trkpt>
      <trkpt lat="43.57873" lon="2.22279">
        <ele>168.242</ele>
        <time>2021-04-17T09:37:50Z</time>
      </trkpt>
      <trkpt lat="43.57763" lon="2.22305">
        <ele>171.575</ele>
        <time>2016-12-30T03:22:43Z</time>
      </trkpt>
      <trkpt lat="43.57722" lon="2.22278">
        <ele>173.081</ele>
        <time>2016-12-30T03:23:03Z</time>
      </trkpt>
      <trkpt lat="43.57743" lon="2.22246">
        <ele>172.44</ele>
        <time>2016-12-30T03:23:23Z</time>
      </trkpt>
      <trkpt lat="43.57828" lon="2.22238">
        <ele>170.227</ele>
        <time>2016-12-30T03:23:43Z</time>
      </trkpt>
      <trkpt lat="43.57888" lon="2.22199">
        <ele>168.168</ele>
        <time>2016-12-30T03:24:03Z</time>
      </trkpt>
      <trkpt lat="43.57921" lon="2.2212">
        <ele>165.567</ele>
        <time>2016-12-30T03:24:23Z</time>
      </trkpt>
      <trkpt lat="43.57951" lon="2.21905">
        <ele>172.178</ele>
        <time>2016-12-30T03:24:43Z</time>
      </trkpt>
      <trkpt lat="43.58014" lon="2.2174">
        <ele>173.711</ele>
        <time>2016-12-30T03:25:03Z</time>
      </trkpt>
      <trkpt lat="43.5802" lon="2.21678">
        <ele>173.021</ele>
        <time>2016-12-30T03:25:23Z</time>
      </trkpt>
      <trkpt lat="43.57864" lon="2.21564">
        <ele>184.803</ele>
        <time>2016-12-30T03:25:43Z</time>
      </trkpt>
      <trkpt lat="43.57802" lon="2.21534">
        <ele>190.408</ele>
        <time>2016-12-30T03:26:03Z</time>
      </trkpt>
      <trkpt lat="43.57665" lon="2.21437">
        <ele>207.828</ele>
        <time>2016-12-30T03:26:23Z</time>
      </trkpt>
      <trkpt lat="43.57704" lon="2.21276">
        <ele>208.061</ele>
        <time>2016-12-30T03:26:43Z</time>
      </trkpt>
      <trkpt lat="43.57703" lon="2.21183">
        <ele>205.397</ele>
        <time>2016-12-30T03:27:03Z</time>
      </trkpt>
      <trkpt lat="43.57747" lon="2.21096">
        <ele>202.316</ele>
        <time>2016-12-30T03:27:23Z</time>
      </trkpt>
      <trkpt lat="43.57744" lon="2.20983">
        <ele>191.813</ele>
        <time>2016-12-30T03:27:43Z</time>
      </trkpt>
      <trkpt lat="43.57728" lon="2.20949">
        <ele>190.284</ele>
        <time>2016-12-30T03:28:03Z</time>
      </trkpt>
      <trkpt lat="43.57688" lon="2.20906">
        <ele>192.353</ele>
        <time>2016-12-30T03:28:23Z</time>
      </trkpt>
      <trkpt lat="43.57839" lon="2.20665">
        <ele>187.824</ele>
        <time>2016-12-30T03:28:43Z</time>
      </trkpt>
      <trkpt lat="43.57732" lon="2.20481">
        <ele>202.199</ele>
        <time>2016-12-30T03:29:03Z</time>
      </trkpt>
      <trkpt lat="43.57724" lon="2.20345">
        <ele>215.907</ele>
        <time>2016-12-30T03:29:23Z</time>
      </trkpt>
      <trkpt lat="43.57696" lon="2.202">
        <ele>222.527</ele>
        <time>2016-12-30T03:29:43Z</time>
      </trkpt>
      <trkpt lat="43.57653" lon="2.20101">
        <ele>225.208</ele>
        <time>2019-12-05T18:42:56Z</time>
      </trkpt>
      <trkpt lat="43.57581" lon="2.19875">
        <ele>233.696</ele>
        <time>2019-12-05T18:43:16Z</time>
      </trkpt>
      <trkpt lat="43.5761" lon="2.19809">
        <ele>237.719</ele>
        <time>2019-12-05T18:43:36Z</time>
      </trkpt>
      <trkpt lat="43.57607" lon="2.1977">
        <ele>238.435</ele>
        <time>2019-12-05T18:43:56Z</time>
      </trkpt>
      <trkpt lat="43.57573" lon="2.19711">
        <ele>239.474</ele>
        <time>2019-12-05T18:44:16Z</time>
      </trkpt>
      <trkpt lat="43.5756" lon="2.19661">
        <ele>241.221</ele>
        <time>2019-12-05T18:44:36Z</time>
      </trkpt>
      <trkpt lat="43.5749" lon="2.19603">
        <ele>249.782</ele>
        <time>2019-12-05T18:44:56Z</time>
      </trkpt>
      <trkpt lat="43.57457" lon="2.19503">
        <ele>259.081</ele>
        <time>2019-12-05T18:45:16Z</time>
      </trkpt>
      <trkpt lat="43.57355" lon="2.1947">
        <ele>257.172</ele>
        <time>2019-12-05T18:45:36Z</time>
      </trkpt>
      <trkpt lat="43.57285" lon="2.19461">
        <ele>248.694</ele>
        <time>2019-12-05T18:45:56Z</time>
      </trkpt>
      <trkpt lat="43.57115" lon="2.19363">
        <ele>228.057</ele>
        <time>2021-04-17T09:48:50Z</time>
      </trkpt>
      <trkpt lat="43.56938" lon="2.19249">
        <ele>239.322</ele>
        <time>2019-12-05T18:46:16Z</time>
      </trkpt>
      <trkpt lat="43.56854" lon="2.19346">
        <ele>245.608</ele>
        <time>2019-12-05T18:46:36Z</time>
      </trkpt>
      <trkpt lat="43.56765" lon="2.19404">
        <ele>250.086</ele>
        <time>2019-12-05T18:46:56Z</time>
      </trkpt>
      <trkpt lat="43.56671" lon="2.19442">
        <ele>248.329</ele>
        <time>2019-12-05T18:47:16Z</time>
      </trkpt>
      <trkpt lat="43.56496" lon="2.19628">
        <ele>253.715</ele>
        <time>2019-12-05T18:47:36Z</time>
      </trkpt>
      <trkpt lat="43.56495" lon="2.19211">
        <ele>235.364</ele>
        <time>2019-12-05T18:47:56Z</time>
      </trkpt>
      <trkpt lat="43.56451" lon="2.19135">
        <ele>242.471</ele>
        <time>2019-12-05T18:48:16Z</time>
      </trkpt>
      <trkpt lat="43.56442" lon="2.1907">
        <ele>244.312</ele>
        <time>2019-12-05T18:48:36Z</time>
      </trkpt>
      <trkpt lat="43.56415" lon="2.19058">
        <ele>242.831</ele>
        <time>2019-12-05T18:48:56Z</time>
      </trkpt>
      <trkpt lat="43.56388" lon="2.19084">
        <ele>241.942</ele>
        <time>2021-04-17T09:52:10Z</time>
      </trkpt>
      <trkpt lat="43.56369" lon="2.19172">
        <ele>233.524</ele>
        <time>2019-12-05T18:49:36Z</time>
      </trkpt>
      <trkpt lat="43.56342" lon="2.19207">
        <ele>230.504</ele>
        <time>2019-12-05T18:49:56Z</time>
      </trkpt>
      <trkpt lat="43.56265" lon="2.19248">
        <ele>229.214</ele>
        <time>2019-12-05T18:50:16Z</time>
      </trkpt>
      <trkpt lat="43.56247" lon="2.19246">
        <ele>229.708</ele>
        <time>2019-12-05T18:50:36Z</time>
      </trkpt>
      <trkpt lat="43.56248" lon="2.19321">
        <ele>221.489</ele>
        <time>2019-12-05T18:50:56Z</time>
      </trkpt>
      <trkpt lat="43.56177" lon="2.19345">
        <ele>216.812</ele>
        <time>2019-12-05T18:51:16Z</time>
      </trkpt>
      <trkpt lat="43.56114" lon="2.19355">
        <ele>210.428</ele>
        <time>2019-12-05T18:51:36Z</time>
      </trkpt>
      <trkpt lat="43.56054" lon="2.19243">
        <ele>211.457</ele>
        <time>2019-12-05T18:51:56Z</time>
      </trkpt>
      <trkpt lat="43.56022" lon="2.19213">
        <ele>210.384</ele>
        <time>2019-12-05T18:52:16Z</time>
      </trkpt>
      <trkpt lat="43.55993" lon="2.19147">
        <ele>210.085</ele>
        <time>2019-12-05T18:52:36Z</time>
      </trkpt>
      <trkpt lat="43.55933" lon="2.19091">
        <ele>210.034</ele>
        <time>2019-12-05T18:52:56Z</time>
      </trkpt>
      <trkpt lat="43.55873" lon="2.19061">
        <ele>210.845</ele>
        <time>2019-12-05T18:53:16Z</time>
      </trkpt>
      <trkpt lat="43.55824" lon="2.19069">
        <ele>210.397</ele>
        <time>2019-12-05T18:53:36Z</time>
      </trkpt>
      <trkpt lat="43.55747" lon="2.1906">
        <ele>200.723</ele>
        <time>2019-12-05T18:53:56Z</time>
      </trkpt>
      <trkpt lat="43.55712" lon="2.19046">
        <ele>200.225</ele>
        <time>2019-12-05T18:54:16Z</time>
      </trkpt>
      <trkpt lat="43.55678" lon="2.19049">
        <ele>198.208</ele>
        <time>2019-12-05T18:54:36Z</time>
      </trkpt>
      <trkpt lat="43.55627" lon="2.19017">
        <ele>196.786</ele>
        <time>2019-12-05T18:54:56Z</time>
      </trkpt>
      <trkpt lat="43.55618" lon="2.18933">
        <ele>199.589</ele>
        <time>2019-12-05T18:55:16Z</time>
      </trkpt>
      <trkpt lat="43.55575" lon="2.18873">
        <ele>196.765</ele>
        <time>2019-12-05T18:55:36Z</time>
      </trkpt>
      <trkpt lat="43.55552" lon="2.18727">
        <ele>197.314</ele>
        <time>2019-12-05T18:55:56Z</time>
      </trkpt>
      <trkpt lat="43.55502" lon="2.18643">
        <ele>190.321</ele>
        <time>2019-12-05T18:56:16Z</time>
      </trkpt>
      <trkpt lat="43.55452" lon="2.18632">
        <ele>183.952</ele>
        <time>2019-12-05T18:56:36Z</time>
      </trkpt>
      <trkpt lat="43.55458" lon="2.18582">
        <ele>184.581</ele>
        <time>2019-12-05T18:56:56Z</time>
      </trkpt>
      <trkpt lat="43.55504" lon="2.18334">
        <ele>187.092</ele>
        <time>2019-12-05T18:57:16Z</time>
      </trkpt>
      <trkpt lat="43.55499" lon="2.1825">
        <ele>188.533</ele>
        <time>2019-12-05T18:57:36Z</time>
      </trkpt>
      <trkpt lat="43.55442" lon="2.18098">
        <ele>186.823</ele>
        <time>2019-12-05T18:57:56Z</time>
      </trkpt>
      <trkpt lat="43.55421" lon="2.17981">
        <ele>191.015</ele>
        <time>2019-12-05T18:58:16Z</time>
      </trkpt>
      <trkpt lat="43.55391" lon="2.17864">
        <ele>197.408</ele>
        <time>2021-04-17T10:01:30Z</time>
      </trkpt>
      <trkpt lat="43.55454" lon="2.17947">
        <ele>204.85</ele>
        <time>2021-04-17T10:01:50Z</time>
      </trkpt>
      <trkpt lat="43.55471" lon="2.17938">
        <ele>207.973</ele>
        <time>2021-04-17T10:02:10Z</time>
      </trkpt>
      <trkpt lat="43.55509" lon="2.17837">
        <ele>204.069</ele>
        <time>2021-04-17T10:02:30Z</time>
      </trkpt>
      <trkpt lat="43.55435" lon="2.17767">
        <ele>199.378</ele>
        <time>2021-04-17T10:02:50Z</time>
      </trkpt>
      <trkpt lat="43.554" lon="2.17761">
        <ele>195.015</ele>
        <time>2019-12-05T18:58:56Z</time>
      </trkpt>
      <trkpt lat="43.55392" lon="2.17657">
        <ele>186.586</ele>
        <time>2019-12-05T18:59:16Z</time>
      </trkpt>
      <trkpt lat="43.55383" lon="2.17604">
        <ele>178.895</ele>
        <time>2019-12-05T18:59:36Z</time>
      </trkpt>
      <trkpt lat="43.55405" lon="2.17557">
        <ele>177.676</ele>
        <time>2019-12-05T18:59:56Z</time>
      </trkpt>
      <trkpt lat="43.55351" lon="2.1748">
        <ele>175.387</ele>
        <time>2019-12-05T19:00:16Z</time>
      </trkpt>
      <trkpt lat="43.55314" lon="2.17356">
        <ele>175.042</ele>
        <time>2019-12-05T19:00:36Z</time>
      </trkpt>
      <trkpt lat="43.55283" lon="2.17344">
        <ele>175.026</ele>
        <time>2019-12-05T19:00:56Z</time>
      </trkpt>
      <trkpt lat="43.55216" lon="2.17282">
        <ele>175.008</ele>
        <time>2019-12-05T19:01:16Z</time>
      </trkpt>
      <trkpt lat="43.54878" lon="2.17142">
        <ele>176.085</ele>
        <time>2019-12-05T19:01:36Z</time>
      </trkpt>
      <trkpt lat="43.54762" lon="2.17018">
        <ele>176.848</ele>
        <time>2019-12-05T19:01:56Z</time>
      </trkpt>
      <trkpt lat="43.54715" lon="2.1694">
        <ele>179.464</ele>
        <time>2019-12-05T19:02:16Z</time>
      </trkpt>
      <trkpt lat="43.54694" lon="2.16872">
        <ele>180.623</ele>
        <time>2019-12-05T19:02:36Z</time>
      </trkpt>
      <trkpt lat="43.54448" lon="2.16605">
        <ele>185.29</ele>
        <time>2019-12-05T19:02:56Z</time>
      </trkpt>
      <trkpt lat="43.5432" lon="2.16504">
        <ele>188.081</ele>
        <time>2019-12-05T19:03:16Z</time>
      </trkpt>
      <trkpt lat="43.5421" lon="2.1647">
        <ele>190.01</ele>
        <time>2019-12-05T19:03:36Z</time>
      </trkpt>
      <trkpt lat="43.54" lon="2.16158">
        <ele>199.311</ele>
        <time>2019-12-05T19:03:56Z</time>
      </trkpt>
      <trkpt lat="43.53883" lon="2.16091">
        <ele>205.921</ele>
        <time>2019-12-05T19:04:16Z</time>
      </trkpt>
      <trkpt lat="43.53832" lon="2.16031">
        <ele>210.041</ele>
        <time>2019-12-05T19:04:36Z</time>
      </trkpt>
      <trkpt lat="43.53802" lon="2.15947">
        <ele>211.105</ele>
        <time>2019-12-05T19:04:56Z</time>
      </trkpt>
      <trkpt lat="43.53778" lon="2.15869">
        <ele>213.008</ele>
        <time>2019-12-05T19:05:16Z</time>
      </trkpt>
      <trkpt lat="43.53713" lon="2.158">
        <ele>218.929</ele>
        <time>2019-12-05T19:05:36Z</time>
      </trkpt>
      <trkpt lat="43.53486" lon="2.15683">
        <ele>225.882</ele>
        <time>2019-12-05T19:05:56Z</time>
      </trkpt>
      <trkpt lat="43.53379" lon="2.15638">
        <ele>224.038</ele>
        <time>2019-12-05T19:06:16Z</time>
      </trkpt>
      <trkpt lat="43.53315" lon="2.15561">
        <ele>223.017</ele>
        <time>2019-12-05T19:06:36Z</time>
      </trkpt>
      <trkpt lat="43.53309" lon="2.15505">
        <ele>223.584</ele>
        <time>2019-12-05T19:06:56Z</time>
      </trkpt>
      <trkpt lat="43.5334" lon="2.15415">
        <ele>219.255</ele>
        <time>2019-12-05T19:07:16Z</time>
      </trkpt>
      <trkpt lat="43.53334" lon="2.15385">
        <ele>218.724</ele>
        <time>2019-12-05T19:07:36Z</time>
      </trkpt>
      <trkpt lat="43.53303" lon="2.15342">
        <ele>214.455</ele>
        <time>2019-12-05T19:07:56Z</time>
      </trkpt>
      <trkpt lat="43.53223" lon="2.15333">
        <ele>208.088</ele>
        <time>2019-12-05T19:08:16Z</time>
      </trkpt>
      <trkpt lat="43.53124" lon="2.15169">
        <ele>203.624</ele>
        <time>2019-12-05T19:08:36Z</time>
      </trkpt>
      <trkpt lat="43.53107" lon="2.15089">
        <ele>203.026</ele>
        <time>2019-12-05T19:08:56Z</time>
      </trkpt>
      <trkpt lat="43.52975" lon="2.15212">
        <ele>205.008</ele>
        <time>2019-12-05T19:09:16Z</time>
      </trkpt>
      <trkpt lat="43.52977" lon="2.15256">
        <ele>205.955</ele>
        <time>2019-12-05T19:09:36Z</time>
      </trkpt>
      <trkpt lat="43.5292" lon="2.15315">
        <ele>207.078</ele>
        <time>2019-12-05T19:09:56Z</time>
      </trkpt>
      <trkpt lat="43.52933" lon="2.15334">
        <ele>207.084</ele>
        <time>2019-12-05T19:10:16Z</time>
      </trkpt>
      <trkpt lat="43.52902" lon="2.15389">
        <ele>208.093</ele>
        <time>2019-12-05T19:10:36Z</time>
      </trkpt>
      <trkpt lat="43.52766" lon="2.15554">
        <ele>209.01</ele>
        <time>2019-12-05T19:10:56Z</time>
      </trkpt>
      <trkpt lat="43.52659" lon="2.15543">
        <ele>209.061</ele>
        <time>2019-12-05T19:11:16Z</time>
      </trkpt>
      <trkpt lat="43.52483" lon="2.15621">
        <ele>213.38</ele>
        <time>2019-12-05T19:11:36Z</time>
      </trkpt>
      <trkpt lat="43.52404" lon="2.15611">
        <ele>214.091</ele>
        <time>2019-12-05T19:11:56Z</time>
      </trkpt>
      <trkpt lat="43.52351" lon="2.15622">
        <ele>214.062</ele>
        <time>2019-12-05T19:12:16Z</time>
      </trkpt>
      <trkpt lat="43.52329" lon="2.15624">
        <ele>214.083</ele>
        <time>2019-12-05T19:12:36Z</time>
      </trkpt>
      <trkpt lat="43.52074" lon="2.15711">
        <ele>218.911</ele>
        <time>2019-12-05T19:12:56Z</time>
      </trkpt>
      <trkpt lat="43.51986" lon="2.15536">
        <ele>218.008</ele>
        <time>2019-12-05T19:13:16Z</time>
      </trkpt>
      <trkpt lat="43.51959" lon="2.15329">
        <ele>218.593</ele>
        <time>2019-12-05T19:13:36Z</time>
      </trkpt>
      <trkpt lat="43.51908" lon="2.15221">
        <ele>219.056</ele>
        <time>2019-12-05T19:13:56Z</time>
      </trkpt>
      <trkpt lat="43.5178" lon="2.15337">
        <ele>221.922</ele>
        <time>2019-12-05T19:14:16Z</time>
      </trkpt>
      <trkpt lat="43.51766" lon="2.15298">
        <ele>222.411</ele>
        <time>2019-12-05T19:14:36Z</time>
      </trkpt>
      <trkpt lat="43.51764" lon="2.1527">
        <ele>222.518</ele>
        <time>2019-12-05T19:14:56Z</time>
      </trkpt>
      <trkpt lat="43.51621" lon="2.151">
        <ele>229.639</ele>
        <time>2019-12-05T19:15:16Z</time>
      </trkpt>
      <trkpt lat="43.5156" lon="2.15315">
        <ele>228.478</ele>
        <time>2019-12-05T19:15:36Z</time>
      </trkpt>
      <trkpt lat="43.51197" lon="2.1536">
        <ele>237.089</ele>
        <time>2019-12-05T19:15:56Z</time>
      </trkpt>
      <trkpt lat="43.51168" lon="2.15304">
        <ele>238.033</ele>
        <time>2019-12-05T19:16:16Z</time>
      </trkpt>
      <trkpt lat="43.51087" lon="2.15269">
        <ele>239.623</ele>
        <time>2019-12-05T19:16:36Z</time>
      </trkpt>
      <trkpt lat="43.50839" lon="2.15403">
        <ele>243.815</ele>
        <time>2019-12-05T19:16:56Z</time>
      </trkpt>
      <trkpt lat="43.5071" lon="2.15188">
        <ele>245.508</ele>
        <time>2019-12-05T19:17:16Z</time>
      </trkpt>
      <trkpt lat="43.50666" lon="2.15052">
        <ele>247.05</ele>
        <time>2019-12-05T19:17:36Z</time>
      </trkpt>
      <trkpt lat="43.50468" lon="2.14796">
        <ele>251.013</ele>
        <time>2019-12-05T19:17:56Z</time>
      </trkpt>
      <trkpt lat="43.5061" lon="2.14664">
        <ele>250.039</ele>
        <time>2019-12-05T19:18:16Z</time>
      </trkpt>
      <trkpt lat="43.50525" lon="2.14504">
        <ele>235.188</ele>
        <time>2019-12-05T19:18:36Z</time>
      </trkpt>
      <trkpt lat="43.50522" lon="2.14469">
        <ele>233.365</ele>
        <time>2019-12-05T19:18:56Z</time>
      </trkpt>
      <trkpt lat="43.50416" lon="2.14415">
        <ele>221.926</ele>
        <time>2019-12-05T19:19:16Z</time>
      </trkpt>
      <trkpt lat="43.504" lon="2.14384">
        <ele>219.015</ele>
        <time>2019-12-05T19:19:36Z</time>
      </trkpt>
      <trkpt lat="43.50379" lon="2.14372">
        <ele>217.426</ele>
        <time>2019-12-05T19:19:56Z</time>
      </trkpt>
      <trkpt lat="43.50271" lon="2.141">
        <ele>209.045</ele>
        <time>2019-12-05T19:20:16Z</time>
      </trkpt>
      <trkpt lat="43.5027" lon="2.1401">
        <ele>210.047</ele>
        <time>2019-12-05T19:20:36Z</time>
      </trkpt>
      <trkpt lat="43.50187" lon="2.13873">
        <ele>212.011</ele>
        <time>2019-12-05T19:20:56Z</time>
      </trkpt>
      <trkpt lat="43.50089" lon="2.13898">
        <ele>214.608</ele>
        <time>2019-12-05T19:21:16Z</time>
      </trkpt>
      <trkpt lat="43.49935" lon="2.13994">
        <ele>216.021</ele>
        <time>2019-12-05T19:21:36Z</time>
      </trkpt>
      <trkpt lat="43.49755" lon="2.1407">
        <ele>219.944</ele>
        <time>2019-12-05T19:21:56Z</time>
      </trkpt>
      <trkpt lat="43.49621" lon="2.14141">
        <ele>222.64</ele>
        <time>2019-12-05T19:22:16Z</time>
      </trkpt>
      <trkpt lat="43.49537" lon="2.14168">
        <ele>223.789</ele>
        <time>2019-12-05T19:22:36Z</time>
      </trkpt>
      <trkpt lat="43.49453" lon="2.14171">
        <ele>225.736</ele>
        <time>2019-12-05T19:22:56Z</time>
      </trkpt>
      <trkpt lat="43.49392" lon="2.14186">
        <ele>226.917</ele>
        <time>2019-12-05T19:23:16Z</time>
      </trkpt>
      <trkpt lat="43.49311" lon="2.14196">
        <ele>229.846</ele>
        <time>2019-12-05T19:23:36Z</time>
      </trkpt>
      <trkpt lat="43.49147" lon="2.14166">
        <ele>233.797</ele>
        <time>2019-12-05T19:23:56Z</time>
      </trkpt>
      <trkpt lat="43.48987" lon="2.14175">
        <ele>237.516</ele>
        <time>2019-12-05T19:24:16Z</time>
      </trkpt>
      <trkpt lat="43.48752" lon="2.14173">
        <ele>245.076</ele>
        <time>2019-12-05T19:24:36Z</time>
      </trkpt>
      <trkpt lat="43.48697" lon="2.14199">
        <ele>246.913</ele>
        <time>2019-12-05T19:24:56Z</time>
      </trkpt>
      <trkpt lat="43.48634" lon="2.14074">
        <ele>246.708</ele>
        <time>2019-12-05T19:25:16Z</time>
      </trkpt>
      <trkpt lat="43.48569" lon="2.13983">
        <ele>248.648</ele>
        <time>2019-12-05T19:25:36Z</time>
      </trkpt>
      <trkpt lat="43.48571" lon="2.13946">
        <ele>257.061</ele>
        <time>2021-04-17T10:30:10Z</time>
      </trkpt>
      <trkpt lat="43.48507" lon="2.13964">
        <ele>263.597</ele>
        <time>2021-04-17T10:30:30Z</time>
      </trkpt>
      <trkpt lat="43.48475" lon="2.13911">
        <ele>270.246</ele>
        <time>2021-04-17T10:30:50Z</time>
      </trkpt>
      <trkpt lat="43.48561" lon="2.13787">
        <ele>259.723</ele>
        <time>2016-12-30T08:26:22Z</time>
      </trkpt>
      <trkpt lat="43.48463" lon="2.13435">
        <ele>258.433</ele>
        <time>2016-12-30T08:26:42Z</time>
      </trkpt>
      <trkpt lat="43.48618" lon="2.13152">
        <ele>251.554</ele>
        <time>2016-12-30T08:27:02Z</time>
      </trkpt>
      <trkpt lat="43.48535" lon="2.12966">
        <ele>245.829</ele>
        <time>2016-12-30T08:27:22Z</time>
      </trkpt>
      <trkpt lat="43.4855" lon="2.12937">
        <ele>244.3</ele>
        <time>2016-12-30T08:27:42Z</time>
      </trkpt>
      <trkpt lat="43.48551" lon="2.12885">
        <ele>241.02</ele>
        <time>2016-12-30T08:28:02Z</time>
      </trkpt>
      <trkpt lat="43.486" lon="2.12833">
        <ele>239.008</ele>
        <time>2016-12-30T08:28:22Z</time>
      </trkpt>
      <trkpt lat="43.48691" lon="2.12756">
        <ele>238.219</ele>
        <time>2016-12-30T08:28:42Z</time>
      </trkpt>
      <trkpt lat="43.48738" lon="2.12708">
        <ele>236.242</ele>
        <time>2016-12-30T08:29:02Z</time>
      </trkpt>
      <trkpt lat="43.4879" lon="2.12626">
        <ele>234.818</ele>
        <time>2016-12-30T08:29:22Z</time>
      </trkpt>
      <trkpt lat="43.4864" lon="2.12223">
        <ele>235.057</ele>
        <time>2016-12-30T08:29:42Z</time>
      </trkpt>
      <trkpt lat="43.48488" lon="2.12072">
        <ele>236.874</ele>
        <time>2016-12-30T08:30:02Z</time>
      </trkpt>
      <trkpt lat="43.48381" lon="2.11988">
        <ele>238.255</ele>
        <time>2016-12-30T08:30:22Z</time>
      </trkpt>
      <trkpt lat="43.48282" lon="2.11716">
        <ele>239.024</ele>
        <time>2016-12-30T08:30:42Z</time>
      </trkpt>
      <trkpt lat="43.48227" lon="2.1165">
        <ele>246.195</ele>
        <time>2016-12-30T08:31:02Z</time>
      </trkpt>
      <trkpt lat="43.48217" lon="2.11618">
        <ele>248.495</ele>
        <time>2016-12-30T08:31:22Z</time>
      </trkpt>
      <trkpt lat="43.48188" lon="2.11615">
        <ele>251.749</ele>
        <time>2016-12-30T08:31:42Z</time>
      </trkpt>
      <trkpt lat="43.48159" lon="2.11588">
        <ele>256.923</ele>
        <time>2016-12-30T08:32:02Z</time>
      </trkpt>
      <trkpt lat="43.4813" lon="2.11337">
        <ele>248.908</ele>
        <time>2016-12-30T08:32:22Z</time>
      </trkpt>
      <trkpt lat="43.48135" lon="2.11323">
        <ele>246.976</ele>
        <time>2016-12-30T08:32:42Z</time>
      </trkpt>
      <trkpt lat="43.47958" lon="2.10998">
        <ele>242.049</ele>
        <time>2016-12-30T08:33:02Z</time>
      </trkpt>
      <trkpt lat="43.47865" lon="2.10912">
        <ele>240.855</ele>
        <time>2016-12-30T08:33:22Z</time>
      </trkpt>
      <trkpt lat="43.47627" lon="2.10891">
        <ele>235.154</ele>
        <time>2016-12-30T08:33:42Z</time>
      </trkpt>
      <trkpt lat="43.47587" lon="2.10869">
        <ele>235.051</ele>
        <time>2016-12-30T08:34:02Z</time>
      </trkpt>
      <trkpt lat="43.47516" lon="2.10766">
        <ele>240.622</ele>
        <time>2016-12-30T08:34:22Z</time>
      </trkpt>
      <trkpt lat="43.47441" lon="2.1054">
        <ele>244.921</ele>
        <time>2016-12-30T08:34:42Z</time>
      </trkpt>
      <trkpt lat="43.47371" lon="2.1036">
        <ele>253.922</ele>
        <time>2016-12-30T08:35:02Z</time>
      </trkpt>
      <trkpt lat="43.47288" lon="2.10258">
        <ele>253.968</ele>
        <time>2016-12-30T08:35:22Z</time>
      </trkpt>
      <trkpt lat="43.47125" lon="2.10094">
        <ele>256.942</ele>
        <time>2016-12-30T08:35:42Z</time>
      </trkpt>
      <trkpt lat="43.47454" lon="2.09841">
        <ele>244.726</ele>
        <time>2016-12-30T08:36:02Z</time>
      </trkpt>
      <trkpt lat="43.47528" lon="2.09796">
        <ele>241.008</ele>
        <time>2016-12-30T08:36:22Z</time>
      </trkpt>
      <trkpt lat="43.47669" lon="2.09678">
        <ele>236.353</ele>
        <time>2016-12-30T08:36:42Z</time>
      </trkpt>
      <trkpt lat="43.47756" lon="2.09621">
        <ele>233.626</ele>
        <time>2016-12-30T08:37:02Z</time>
      </trkpt>
      <trkpt lat="43.47813" lon="2.09564">
        <ele>229.052</ele>
        <time>2016-12-30T08:37:22Z</time>
      </trkpt>
      <trkpt lat="43.47761" lon="2.09518">
        <ele>226.331</ele>
        <time>2016-12-30T08:37:42Z</time>
      </trkpt>
      <trkpt lat="43.47743" lon="2.09473">
        <ele>224.078</ele>
        <time>2016-12-30T08:38:02Z</time>
      </trkpt>
      <trkpt lat="43.47744" lon="2.09374">
        <ele>231.299</ele>
        <time>2016-12-30T08:38:22Z</time>
      </trkpt>
      <trkpt lat="43.47724" lon="2.09214">
        <ele>241.238</ele>
        <time>2021-04-17T10:43:50Z</time>
      </trkpt>
      <trkpt lat="43.47688" lon="2.09019">
        <ele>240.259</ele>
        <time>2016-12-30T08:39:02Z</time>
      </trkpt>
      <trkpt lat="43.47746" lon="2.08764">
        <ele>236.556</ele>
        <time>2016-12-30T08:39:22Z</time>
      </trkpt>
      <trkpt lat="43.47595" lon="2.08527">
        <ele>237.959</ele>
        <time>2016-12-30T08:39:42Z</time>
      </trkpt>
      <trkpt lat="43.47284" lon="2.08461">
        <ele>239.714</ele>
        <time>2016-12-30T08:40:02Z</time>
      </trkpt>
      <trkpt lat="43.47244" lon="2.08496">
        <ele>239.608</ele>
        <time>2016-12-30T08:40:22Z</time>
      </trkpt>
      <trkpt lat="43.47189" lon="2.08472">
        <ele>236.032</ele>
        <time>2016-12-30T08:40:42Z</time>
      </trkpt>
      <trkpt lat="43.47138" lon="2.08388">
        <ele>235.165</ele>
        <time>2016-12-30T08:41:02Z</time>
      </trkpt>
      <trkpt lat="43.47064" lon="2.08373">
        <ele>239.151</ele>
        <time>2016-12-30T08:41:22Z</time>
      </trkpt>
      <trkpt lat="43.4699" lon="2.08257">
        <ele>245.05</ele>
        <time>2016-12-30T08:41:42Z</time>
      </trkpt>
      <trkpt lat="43.46945" lon="2.08135">
        <ele>260.287</ele>
        <time>2021-04-17T10:47:10Z</time>
      </trkpt>
      <trkpt lat="43.46993" lon="2.08001">
        <ele>262.638</ele>
        <time>2016-12-30T08:42:22Z</time>
      </trkpt>
      <trkpt lat="43.47075" lon="2.07876">
        <ele>263.637</ele>
        <time>2016-12-30T08:42:42Z</time>
      </trkpt>
      <trkpt lat="43.47144" lon="2.07791">
        <ele>260.678</ele>
        <time>2016-12-30T08:43:02Z</time>
      </trkpt>
      <trkpt lat="43.471" lon="2.07779">
        <ele>264.474</ele>
        <time>2016-12-30T08:43:22Z</time>
      </trkpt>
      <trkpt lat="43.4706" lon="2.07724">
        <ele>257.856</ele>
        <time>2016-12-30T08:43:42Z</time>
      </trkpt>
      <trkpt lat="43.46996" lon="2.07721">
        <ele>250.221</ele>
        <time>2016-12-30T08:44:02Z</time>
      </trkpt>
      <trkpt lat="43.46958" lon="2.07692">
        <ele>253.708</ele>
        <time>2016-12-30T08:44:22Z</time>
      </trkpt>
      <trkpt lat="43.4699" lon="2.07573">
        <ele>255.474</ele>
        <time>2016-12-30T08:44:42Z</time>
      </trkpt>
      <trkpt lat="43.46998" lon="2.07486">
        <ele>256.877</ele>
        <time>2016-12-30T08:45:02Z</time>
      </trkpt>
      <trkpt lat="43.46988" lon="2.07358">
        <ele>258.913</ele>
        <time>2016-12-30T08:45:22Z</time>
      </trkpt>
      <trkpt lat="43.46698" lon="2.06843">
        <ele>256.522</ele>
        <time>2016-12-30T08:45:42Z</time>
      </trkpt>
      <trkpt lat="43.46652" lon="2.06784">
        <ele>252.669</ele>
        <time>2016-12-30T08:46:02Z</time>
      </trkpt>
      <trkpt lat="43.46626" lon="2.06776">
        <ele>251.97</ele>
        <time>2016-12-30T08:46:22Z</time>
      </trkpt>
      <trkpt lat="43.46504" lon="2.06648">
        <ele>251.559</ele>
        <time>2016-12-30T08:46:42Z</time>
      </trkpt>
      <trkpt lat="43.46277" lon="2.06393">
        <ele>260.06</ele>
        <time>2016-12-30T08:47:02Z</time>
      </trkpt>
      <trkpt lat="43.46167" lon="2.06541">
        <ele>260.459</ele>
        <time>2016-12-30T08:47:22Z</time>
      </trkpt>
      <trkpt lat="43.46126" lon="2.06622">
        <ele>264.203</ele>
        <time>2016-12-30T08:47:42Z</time>
      </trkpt>
      <trkpt lat="43.46117" lon="2.06659">
        <ele>265.023</ele>
        <time>2016-12-30T08:48:02Z</time>
      </trkpt>
      <trkpt lat="43.46023" lon="2.06789">
        <ele>265.008</ele>
        <time>2016-12-30T08:48:22Z</time>
      </trkpt>
      <trkpt lat="43.45847" lon="2.06985">
        <ele>273.462</ele>
        <time>2016-12-30T08:48:42Z</time>
      </trkpt>
      <trkpt lat="43.45692" lon="2.07151">
        <ele>281.475</ele>
        <time>2016-12-30T08:49:02Z</time>
      </trkpt>
      <trkpt lat="43.45631" lon="2.07078">
        <ele>276.661</ele>
        <time>2016-12-30T08:49:22Z</time>
      </trkpt>
      <trkpt lat="43.45599" lon="2.07074">
        <ele>276.27</ele>
        <time>2016-12-30T08:49:42Z</time>
      </trkpt>
      <trkpt lat="43.45566" lon="2.07027">
        <ele>274.037</ele>
        <time>2016-12-30T08:50:02Z</time>
      </trkpt>
      <trkpt lat="43.45517" lon="2.06998">
        <ele>275.728</ele>
        <time>2016-12-30T08:50:22Z</time>
      </trkpt>
      <trkpt lat="43.45491" lon="2.06951">
        <ele>275.617</ele>
        <time>2016-12-30T08:50:42Z</time>
      </trkpt>
      <trkpt lat="43.45482" lon="2.06898">
        <ele>274.748</ele>
        <time>2016-12-30T08:51:02Z</time>
      </trkpt>
      <trkpt lat="43.45444" lon="2.06839">
        <ele>274.289</ele>
        <time>2016-12-30T08:51:22Z</time>
      </trkpt>
      <trkpt lat="43.45388" lon="2.06801">
        <ele>275.906</ele>
        <time>2016-12-30T08:51:42Z</time>
      </trkpt>
      <trkpt lat="43.4537" lon="2.06773">
        <ele>278.026</ele>
        <time>2021-04-17T10:57:10Z</time>
      </trkpt>
      <trkpt lat="43.4532" lon="2.06861">
        <ele>281.408</ele>
        <time>2021-04-17T10:57:30Z</time>
      </trkpt>
      <trkpt lat="43.4525" lon="2.06777">
        <ele>283.625</ele>
        <time>2021-04-17T10:57:50Z</time>
      </trkpt>
      <trkpt lat="43.45252" lon="2.06738">
        <ele>282.568</ele>
        <time>2021-04-17T10:58:10Z</time>
      </trkpt>
      <trkpt lat="43.45086" lon="2.06646">
        <ele>271.694</ele>
        <time>2016-12-30T08:53:02Z</time>
      </trkpt>
      <trkpt lat="43.45139" lon="2.06504">
        <ele>269.053</ele>
        <time>2016-12-30T08:53:22Z</time>
      </trkpt>
      <trkpt lat="43.45106" lon="2.06457">
        <ele>267.88</ele>
        <time>2016-12-30T08:53:42Z</time>
      </trkpt>
      <trkpt lat="43.45056" lon="2.06338">
        <ele>266.221</ele>
        <time>2016-12-30T08:54:02Z</time>
      </trkpt>
      <trkpt lat="43.44999" lon="2.06143">
        <ele>261.24</ele>
        <time>2016-12-30T08:54:22Z</time>
      </trkpt>
      <trkpt lat="43.45006" lon="2.06">
        <ele>258.861</ele>
        <time>2016-12-30T08:54:42Z</time>
      </trkpt>
      <trkpt lat="43.44822" lon="2.05802">
        <ele>258.348</ele>
        <time>2016-12-30T08:55:02Z</time>
      </trkpt>
      <trkpt lat="43.44804" lon="2.05669">
        <ele>257.061</ele>
        <time>2016-12-30T08:55:22Z</time>
      </trkpt>
      <trkpt lat="43.4473" lon="2.05525">
        <ele>256.017</ele>
        <time>2016-12-30T08:55:42Z</time>
      </trkpt>
      <trkpt lat="43.44685" lon="2.05414">
        <ele>255.008</ele>
        <time>2016-12-30T08:56:02Z</time>
      </trkpt>
      <trkpt lat="43.44651" lon="2.05297">
        <ele>254.051</ele>
        <time>2016-12-30T08:56:22Z</time>
      </trkpt>
      <trkpt lat="43.44596" lon="2.05212">
        <ele>262.994</ele>
        <time>2021-04-17T11:02:10Z</time>
      </trkpt>
      <trkpt lat="43.44641" lon="2.05094">
        <ele>260.43</ele>
        <time>2016-12-30T08:57:02Z</time>
      </trkpt>
      <trkpt lat="43.4466" lon="2.05009">
        <ele>260.929</ele>
        <time>2016-12-30T08:57:22Z</time>
      </trkpt>
      <trkpt lat="43.4468" lon="2.04884">
        <ele>262.596</ele>
        <time>2016-12-30T08:57:42Z</time>
      </trkpt>
      <trkpt lat="43.44725" lon="2.04744">
        <ele>257.967</ele>
        <time>2016-12-30T08:58:02Z</time>
      </trkpt>
      <trkpt lat="43.44778" lon="2.04518">
        <ele>257.636</ele>
        <time>2016-12-30T08:58:22Z</time>
      </trkpt>
      <trkpt lat="43.45083" lon="2.0463">
        <ele>244.447</ele>
        <time>2016-12-30T08:58:42Z</time>
      </trkpt>
      <trkpt lat="43.44962" lon="2.03544">
        <ele>243.413</ele>
        <time>2016-12-30T08:59:02Z</time>
      </trkpt>
      <trkpt lat="43.44943" lon="2.03461">
        <ele>244.643</ele>
        <time>2016-12-30T08:59:22Z</time>
      </trkpt>
      <trkpt lat="43.4505" lon="2.0307">
        <ele>240.207</ele>
        <time>2016-12-30T08:59:42Z</time>
      </trkpt>
      <trkpt lat="43.45068" lon="2.0293">
        <ele>239.508</ele>
        <time>2016-12-30T09:00:02Z</time>
      </trkpt>
      <trkpt lat="43.45132" lon="2.02691">
        <ele>237.238</ele>
        <time>2016-12-30T09:00:22Z</time>
      </trkpt>
      <trkpt lat="43.45097" lon="2.02657">
        <ele>238.131</ele>
        <time>2016-12-30T09:00:42Z</time>
      </trkpt>
      <trkpt lat="43.44799" lon="2.02194">
        <ele>253.227</ele>
        <time>2016-12-30T09:01:02Z</time>
      </trkpt>
      <trkpt lat="43.44786" lon="2.02124">
        <ele>252.916</ele>
        <time>2016-12-30T09:01:22Z</time>
      </trkpt>
      <trkpt lat="43.44915" lon="2.02011">
        <ele>244.133</ele>
        <time>2016-12-30T09:01:42Z</time>
      </trkpt>
      <trkpt lat="43.45016" lon="2.01902">
        <ele>239.494</ele>
        <time>2016-12-30T09:02:02Z</time>
      </trkpt>
      <trkpt lat="43.45283" lon="2.01798">
        <ele>230.843</ele>
        <time>2016-12-30T09:02:22Z</time>
      </trkpt>
      <trkpt lat="43.45346" lon="2.01753">
        <ele>228.644</ele>
        <time>2016-12-30T09:02:42Z</time>
      </trkpt>
      <trkpt lat="43.45406" lon="2.01596">
        <ele>226.416</ele>
        <time>2016-12-30T09:03:02Z</time>
      </trkpt>
      <trkpt lat="43.45496" lon="2.01452">
        <ele>223.176</ele>
        <time>2016-12-30T09:03:22Z</time>
      </trkpt>
      <trkpt lat="43.45473" lon="2.0142">
        <ele>223.113</ele>
        <time>2016-12-30T09:03:42Z</time>
      </trkpt>
      <trkpt lat="43.45842" lon="2.00383">
        <ele>211.008</ele>
        <time>2016-12-30T09:04:02Z</time>
      </trkpt>
      <trkpt lat="43.45458" lon="2.00118">
        <ele>212.478</ele>
        <time>2016-12-30T09:04:22Z</time>
      </trkpt>
      <trkpt lat="43.45359" lon="2.00102">
        <ele>217.181</ele>
        <time>2016-12-30T09:04:42Z</time>
      </trkpt>
      <trkpt lat="43.45132" lon="1.99948">
        <ele>223.387</ele>
        <time>2016-12-30T09:05:02Z</time>
      </trkpt>
      <trkpt lat="43.45142" lon="1.99902">
        <ele>222.976</ele>
        <time>2016-12-30T09:05:22Z</time>
      </trkpt>
      <trkpt lat="43.45139" lon="1.99833">
        <ele>224.043</ele>
        <time>2016-12-30T09:05:42Z</time>
      </trkpt>
      <trkpt lat="43.4517" lon="1.99716">
        <ele>222.914</ele>
        <time>2016-12-30T09:06:02Z</time>
      </trkpt>
      <trkpt lat="43.45169" lon="1.99669">
        <ele>222.913</ele>
        <time>2016-12-30T09:06:22Z</time>
      </trkpt>
      <trkpt lat="43.45157" lon="1.996">
        <ele>223.074</ele>
        <time>2016-12-30T09:06:42Z</time>
      </trkpt>
      <trkpt lat="43.45111" lon="1.99549">
        <ele>224.039</ele>
        <time>2016-12-30T09:07:02Z</time>
      </trkpt>
      <trkpt lat="43.451" lon="1.99481">
        <ele>223.601</ele>
        <time>2016-12-30T09:07:22Z</time>
      </trkpt>
      <trkpt lat="43.45029" lon="1.99239">
        <ele>223.521</ele>
        <time>2016-12-30T09:07:42Z</time>
      </trkpt>
      <trkpt lat="43.45035" lon="1.9901">
        <ele>223.208</ele>
        <time>2016-12-30T09:08:02Z</time>
      </trkpt>
      <trkpt lat="43.45021" lon="1.98888">
        <ele>222.26</ele>
        <time>2016-12-30T09:08:22Z</time>
      </trkpt>
      <trkpt lat="43.45011" lon="1.98856">
        <ele>221.533</ele>
        <time>2016-12-30T09:08:42Z</time>
      </trkpt>
      <trkpt lat="43.44943" lon="1.98727">
        <ele>224.179</ele>
        <time>2016-12-30T09:09:02Z</time>
      </trkpt>
      <trkpt lat="43.4494" lon="1.98662">
        <ele>224.038</ele>
        <time>2016-12-30T09:09:22Z</time>
      </trkpt>
      <trkpt lat="43.44902" lon="1.98394">
        <ele>221.665</ele>
        <time>2016-12-30T09:09:42Z</time>
      </trkpt>
      <trkpt lat="43.44873" lon="1.98373">
        <ele>222.626</ele>
        <time>2016-12-30T09:10:02Z</time>
      </trkpt>
      <trkpt lat="43.44831" lon="1.98397">
        <ele>224.015</ele>
        <time>2016-12-30T09:10:22Z</time>
      </trkpt>
      <trkpt lat="43.44822" lon="1.98334">
        <ele>223.476</ele>
        <time>2016-12-30T09:10:42Z</time>
      </trkpt>
      <trkpt lat="43.44833" lon="1.98259">
        <ele>222.453</ele>
        <time>2016-12-30T09:11:02Z</time>
      </trkpt>
      <trkpt lat="43.44818" lon="1.98198">
        <ele>223.504</ele>
        <time>2016-12-30T09:11:22Z</time>
      </trkpt>
      <trkpt lat="43.44864" lon="1.98131">
        <ele>221.914</ele>
        <time>2016-12-30T09:11:42Z</time>
      </trkpt>
      <trkpt lat="43.4487" lon="1.98084">
        <ele>221.708</ele>
        <time>2016-12-30T09:12:02Z</time>
      </trkpt>
      <trkpt lat="43.4485" lon="1.98034">
        <ele>221.182</ele>
        <time>2016-12-30T09:12:22Z</time>
      </trkpt>
      <trkpt lat="43.44817" lon="1.98026">
        <ele>221.635</ele>
        <time>2016-12-30T09:12:42Z</time>
      </trkpt>
      <trkpt lat="43.44763" lon="1.97976">
        <ele>223.131</ele>
        <time>2016-12-30T09:13:02Z</time>
      </trkpt>
      <trkpt lat="43.44703" lon="1.97907">
        <ele>223.09</ele>
        <time>2016-12-30T09:13:22Z</time>
      </trkpt>
      <trkpt lat="43.44692" lon="1.97845">
        <ele>223.027</ele>
        <time>2016-12-30T09:13:42Z</time>
      </trkpt>
      <trkpt lat="43.44659" lon="1.97745">
        <ele>222.948</ele>
        <time>2016-12-30T09:14:02Z</time>
      </trkpt>
      <trkpt lat="43.44635" lon="1.97705">
        <ele>223.077</ele>
        <time>2016-12-30T09:14:22Z</time>
      </trkpt>
      <trkpt lat="43.44615" lon="1.97618">
        <ele>222.958</ele>
        <time>2016-12-30T09:14:42Z</time>
      </trkpt>
      <trkpt lat="43.44572" lon="1.97579">
        <ele>223.476</ele>
        <time>2016-12-30T09:15:02Z</time>
      </trkpt>
      <trkpt lat="43.44543" lon="1.97506">
        <ele>223.69</ele>
        <time>2016-12-30T09:15:22Z</time>
      </trkpt>
      <trkpt lat="43.44559" lon="1.97463">
        <ele>223.919</ele>
        <time>2016-12-30T09:15:42Z</time>
      </trkpt>
      <trkpt lat="43.44586" lon="1.97377">
        <ele>223.908</ele>
        <time>2016-12-30T09:16:02Z</time>
      </trkpt>
      <trkpt lat="43.44624" lon="1.97323">
        <ele>223.624</ele>
        <time>2016-12-30T09:16:22Z</time>
      </trkpt>
      <trkpt lat="43.44636" lon="1.97249">
        <ele>223.037</ele>
        <time>2016-12-30T09:16:42Z</time>
      </trkpt>
      <trkpt lat="43.44583" lon="1.97186">
        <ele>223.043</ele>
        <time>2016-12-30T09:17:02Z</time>
      </trkpt>
      <trkpt lat="43.44569" lon="1.97152">
        <ele>223.272</ele>
        <time>2016-12-30T09:17:22Z</time>
      </trkpt>
      <trkpt lat="43.4457" lon="1.97058">
        <ele>222.099</ele>
        <time>2016-12-30T09:17:42Z</time>
      </trkpt>
      <trkpt lat="43.44484" lon="1.96846">
        <ele>224.62</ele>
        <time>2016-12-30T09:18:02Z</time>
      </trkpt>
      <trkpt lat="43.44517" lon="1.96782">
        <ele>222.819</ele>
        <time>2016-12-30T09:18:22Z</time>
      </trkpt>
      <trkpt lat="43.44555" lon="1.96637">
        <ele>222.05</ele>
        <time>2016-12-30T09:18:42Z</time>
      </trkpt>
      <trkpt lat="43.44544" lon="1.96574">
        <ele>223.142</ele>
        <time>2016-12-30T09:19:02Z</time>
      </trkpt>
      <trkpt lat="43.44542" lon="1.96517">
        <ele>222.822</ele>
        <time>2016-12-30T09:19:22Z</time>
      </trkpt>
      <trkpt lat="43.445" lon="1.96435">
        <ele>220.714</ele>
        <time>2016-12-30T09:19:42Z</time>
      </trkpt>
      <trkpt lat="43.44423" lon="1.96446">
        <ele>222.908</ele>
        <time>2016-12-30T09:20:02Z</time>
      </trkpt>
      <trkpt lat="43.44402" lon="1.96426">
        <ele>222.731</ele>
        <time>2016-12-30T09:20:22Z</time>
      </trkpt>
      <trkpt lat="43.44402" lon="1.96326">
        <ele>221.824</ele>
        <time>2016-12-30T09:20:42Z</time>
      </trkpt>
      <trkpt lat="43.44466" lon="1.96229">
        <ele>221.27</ele>
        <time>2016-12-30T09:21:02Z</time>
      </trkpt>
      <trkpt lat="43.44472" lon="1.96174">
        <ele>221.879</ele>
        <time>2016-12-30T09:21:22Z</time>
      </trkpt>
      <trkpt lat="43.4449" lon="1.96101">
        <ele>220.686</ele>
        <time>2016-12-30T09:21:42Z</time>
      </trkpt>
      <trkpt lat="43.44472" lon="1.96027">
        <ele>220.047</ele>
        <time>2016-12-30T09:22:02Z</time>
      </trkpt>
      <trkpt lat="43.44423" lon="1.95985">
        <ele>221.256</ele>
        <time>2016-12-30T09:22:22Z</time>
      </trkpt>
      <trkpt lat="43.44375" lon="1.95886">
        <ele>221.977</ele>
        <time>2016-12-30T09:22:42Z</time>
      </trkpt>
      <trkpt lat="43.4435" lon="1.95645">
        <ele>222.254</ele>
        <time>2016-12-30T09:23:02Z</time>
      </trkpt>
      <trkpt lat="43.44436" lon="1.955">
        <ele>220.256</ele>
        <time>2016-12-30T09:23:22Z</time>
      </trkpt>
      <trkpt lat="43.44488" lon="1.95388">
        <ele>220.211</ele>
        <time>2016-12-30T09:23:42Z</time>
      </trkpt>
      <trkpt lat="43.44497" lon="1.95328">
        <ele>220.308</ele>
        <time>2016-12-30T09:24:02Z</time>
      </trkpt>
      <trkpt lat="43.44475" lon="1.95299">
        <ele>221.642</ele>
        <time>2016-12-30T09:24:22Z</time>
      </trkpt>
      <trkpt lat="43.44444" lon="1.95308">
        <ele>222.285</ele>
        <time>2016-12-30T09:24:42Z</time>
      </trkpt>
      <trkpt lat="43.44415" lon="1.95327">
        <ele>222.391</ele>
        <time>2016-12-30T09:25:02Z</time>
      </trkpt>
      <trkpt lat="43.44377" lon="1.95301">
        <ele>221.09</ele>
        <time>2016-12-30T09:25:22Z</time>
      </trkpt>
      <trkpt lat="43.44282" lon="1.95275">
        <ele>220.927</ele>
        <time>2016-12-30T09:25:42Z</time>
      </trkpt>
      <trkpt lat="43.44256" lon="1.95297">
        <ele>220.368</ele>
        <time>2016-12-30T09:26:02Z</time>
      </trkpt>
      <trkpt lat="43.44253" lon="1.95388">
        <ele>221.427</ele>
        <time>2016-12-30T09:26:22Z</time>
      </trkpt>
      <trkpt lat="43.44222" lon="1.95468">
        <ele>221.888</ele>
        <time>2016-12-30T09:26:42Z</time>
      </trkpt>
      <trkpt lat="43.44117" lon="1.95571">
        <ele>222.032</ele>
        <time>2016-12-30T09:27:02Z</time>
      </trkpt>
      <trkpt lat="43.4401" lon="1.95724">
        <ele>222.492</ele>
        <time>2016-12-30T09:27:22Z</time>
      </trkpt>
      <trkpt lat="43.4394" lon="1.95782">
        <ele>222.311</ele>
        <time>2016-12-30T09:27:42Z</time>
      </trkpt>
      <trkpt lat="43.43922" lon="1.95761">
        <ele>222.708</ele>
        <time>2016-12-30T09:28:02Z</time>
      </trkpt>
      <trkpt lat="43.43934" lon="1.95713">
        <ele>221.19</ele>
        <time>2016-12-30T09:28:22Z</time>
      </trkpt>
      <trkpt lat="43.43972" lon="1.9561">
        <ele>220.073</ele>
        <time>2016-12-30T09:28:42Z</time>
      </trkpt>
      <trkpt lat="43.43969" lon="1.95538">
        <ele>219.789</ele>
        <time>2016-12-30T09:29:02Z</time>
      </trkpt>
      <trkpt lat="43.43919" lon="1.95461">
        <ele>222.278</ele>
        <time>2016-12-30T09:29:22Z</time>
      </trkpt>
      <trkpt lat="43.4392" lon="1.95397">
        <ele>221.035</ele>
        <time>2016-12-30T09:29:42Z</time>
      </trkpt>
      <trkpt lat="43.43926" lon="1.95358">
        <ele>219.986</ele>
        <time>2016-12-30T09:30:02Z</time>
      </trkpt>
      <trkpt lat="43.43906" lon="1.95335">
        <ele>220.495</ele>
        <time>2016-12-30T09:30:22Z</time>
      </trkpt>
      <trkpt lat="43.43873" lon="1.95344">
        <ele>221.276</ele>
        <time>2016-12-30T09:30:42Z</time>
      </trkpt>
      <trkpt lat="43.43697" lon="1.955">
        <ele>222.158</ele>
        <time>2016-12-30T09:31:02Z</time>
      </trkpt>
      <trkpt lat="43.43541" lon="1.95529">
        <ele>220.552</ele>
        <time>2016-12-30T09:31:22Z</time>
      </trkpt>
      <trkpt lat="43.43509" lon="1.9557">
        <ele>220.817</ele>
        <time>2016-12-30T09:31:42Z</time>
      </trkpt>
      <trkpt lat="43.43477" lon="1.95575">
        <ele>220.708</ele>
        <time>2016-12-30T09:32:02Z</time>
      </trkpt>
      <trkpt lat="43.43416" lon="1.95527">
        <ele>219.012</ele>
        <time>2016-12-30T09:32:22Z</time>
      </trkpt>
      <trkpt lat="43.4333" lon="1.95512">
        <ele>219.045</ele>
        <time>2016-12-30T09:32:42Z</time>
      </trkpt>
      <trkpt lat="43.4325" lon="1.9552">
        <ele>219.011</ele>
        <time>2016-12-30T09:33:02Z</time>
      </trkpt>
      <trkpt lat="43.43203" lon="1.95499">
        <ele>218.03</ele>
        <time>2016-12-30T09:33:22Z</time>
      </trkpt>
      <trkpt lat="43.43058" lon="1.95578">
        <ele>219.027</ele>
        <time>2016-12-30T09:33:42Z</time>
      </trkpt>
      <trkpt lat="43.42996" lon="1.95519">
        <ele>218.798</ele>
        <time>2016-12-30T09:34:02Z</time>
      </trkpt>
      <trkpt lat="43.43003" lon="1.95425">
        <ele>217.957</ele>
        <time>2016-12-30T09:34:22Z</time>
      </trkpt>
      <trkpt lat="43.42987" lon="1.95369">
        <ele>217.568</ele>
        <time>2016-12-30T09:34:42Z</time>
      </trkpt>
      <trkpt lat="43.42868" lon="1.95173">
        <ele>218.295</ele>
        <time>2016-12-30T09:35:02Z</time>
      </trkpt>
      <trkpt lat="43.42851" lon="1.95064">
        <ele>218.449</ele>
        <time>2016-12-30T09:35:22Z</time>
      </trkpt>
      <trkpt lat="43.42827" lon="1.94926">
        <ele>219.023</ele>
        <time>2016-12-30T09:35:42Z</time>
      </trkpt>
      <trkpt lat="43.4283" lon="1.94834">
        <ele>219.008</ele>
        <time>2016-12-30T09:36:02Z</time>
      </trkpt>
      <trkpt lat="43.42856" lon="1.94762">
        <ele>219.036</ele>
        <time>2016-12-30T09:36:22Z</time>
      </trkpt>
      <trkpt lat="43.42928" lon="1.94724">
        <ele>218.059</ele>
        <time>2016-12-30T09:36:42Z</time>
      </trkpt>
      <trkpt lat="43.42975" lon="1.94681">
        <ele>218.095</ele>
        <time>2016-12-30T09:37:02Z</time>
      </trkpt>
      <trkpt lat="43.43041" lon="1.94544">
        <ele>218.074</ele>
        <time>2016-12-30T09:37:22Z</time>
      </trkpt>
      <trkpt lat="43.43082" lon="1.94247">
        <ele>217.011</ele>
        <time>2016-12-30T09:37:42Z</time>
      </trkpt>
      <trkpt lat="43.43077" lon="1.94091">
        <ele>216.052</ele>
        <time>2016-12-30T09:38:02Z</time>
      </trkpt>
      <trkpt lat="43.43061" lon="1.94057">
        <ele>216.021</ele>
        <time>2016-12-30T09:38:22Z</time>
      </trkpt>
      <trkpt lat="43.43024" lon="1.94042">
        <ele>216.072</ele>
        <time>2016-12-30T09:38:42Z</time>
      </trkpt>
      <trkpt lat="43.43007" lon="1.94012">
        <ele>216.067</ele>
        <time>2016-12-30T09:39:02Z</time>
      </trkpt>
      <trkpt lat="43.42986" lon="1.93864">
        <ele>215.581</ele>
        <time>2016-12-30T09:39:22Z</time>
      </trkpt>
      <trkpt lat="43.42945" lon="1.93721">
        <ele>215.019</ele>
        <time>2016-12-30T09:39:42Z</time>
      </trkpt>
      <trkpt lat="43.42869" lon="1.93592">
        <ele>215.008</ele>
        <time>2016-12-30T09:40:02Z</time>
      </trkpt>
      <trkpt lat="43.42868" lon="1.93551">
        <ele>214.743</ele>
        <time>2016-12-30T09:40:22Z</time>
      </trkpt>
      <trkpt lat="43.42902" lon="1.93431">
        <ele>214.566</ele>
        <time>2016-12-30T09:40:42Z</time>
      </trkpt>
      <trkpt lat="43.42887" lon="1.93337">
        <ele>214.222</ele>
        <time>2016-12-30T09:41:02Z</time>
      </trkpt>
      <trkpt lat="43.42865" lon="1.93267">
        <ele>214.971</ele>
        <time>2016-12-30T09:41:22Z</time>
      </trkpt>
      <trkpt lat="43.42886" lon="1.93193">
        <ele>215.198</ele>
        <time>2016-12-30T09:41:42Z</time>
      </trkpt>
      <trkpt lat="43.42887" lon="1.93123">
        <ele>215.759</ele>
        <time>2016-12-30T09:42:02Z</time>
      </trkpt>
      <trkpt lat="43.43053" lon="1.92835">
        <ele>215.088</ele>
        <time>2016-12-30T09:42:22Z</time>
      </trkpt>
      <trkpt lat="43.43061" lon="1.9277">
        <ele>214.849</ele>
        <time>2016-12-30T09:42:42Z</time>
      </trkpt>
      <trkpt lat="43.43054" lon="1.92703">
        <ele>215.078</ele>
        <time>2016-12-30T09:43:02Z</time>
      </trkpt>
      <trkpt lat="43.43055" lon="1.92631">
        <ele>214.733</ele>
        <time>2016-12-30T09:43:22Z</time>
      </trkpt>
      <trkpt lat="43.43031" lon="1.92616">
        <ele>214.926</ele>
        <time>2016-12-30T09:43:42Z</time>
      </trkpt>
      <trkpt lat="43.4296" lon="1.92665">
        <ele>215.008</ele>
        <time>2016-12-30T09:44:02Z</time>
      </trkpt>
      <trkpt lat="43.42887" lon="1.92751">
        <ele>216.184</ele>
        <time>2016-12-30T09:44:22Z</time>
      </trkpt>
      <trkpt lat="43.42865" lon="1.92727">
        <ele>216.077</ele>
        <time>2016-12-30T09:44:42Z</time>
      </trkpt>
      <trkpt lat="43.42864" lon="1.92674">
        <ele>215.823</ele>
        <time>2016-12-30T09:45:02Z</time>
      </trkpt>
      <trkpt lat="43.42936" lon="1.92375">
        <ele>216.142</ele>
        <time>2016-12-30T09:45:22Z</time>
      </trkpt>
      <trkpt lat="43.42978" lon="1.92268">
        <ele>216.869</ele>
        <time>2016-12-30T09:45:42Z</time>
      </trkpt>
      <trkpt lat="43.43102" lon="1.92094">
        <ele>214.24</ele>
        <time>2016-12-30T09:46:02Z</time>
      </trkpt>
      <trkpt lat="43.43119" lon="1.92027">
        <ele>213.839</ele>
        <time>2016-12-30T09:46:22Z</time>
      </trkpt>
      <trkpt lat="43.4315" lon="1.91959">
        <ele>214.12</ele>
        <time>2016-12-30T09:46:42Z</time>
      </trkpt>
      <trkpt lat="43.43173" lon="1.91931">
        <ele>213.952</ele>
        <time>2016-12-30T09:47:02Z</time>
      </trkpt>
      <trkpt lat="43.43196" lon="1.91872">
        <ele>214.553</ele>
        <time>2016-12-30T09:47:22Z</time>
      </trkpt>
      <trkpt lat="43.43239" lon="1.91816">
        <ele>213.408</ele>
        <time>2016-12-30T09:47:42Z</time>
      </trkpt>
      <trkpt lat="43.43244" lon="1.9177">
        <ele>214.208</ele>
        <time>2016-12-30T09:48:02Z</time>
      </trkpt>
      <trkpt lat="43.43207" lon="1.91742">
        <ele>214.972</ele>
        <time>2016-12-30T09:48:22Z</time>
      </trkpt>
      <trkpt lat="43.43206" lon="1.91702">
        <ele>214.645</ele>
        <time>2016-12-30T09:48:42Z</time>
      </trkpt>
      <trkpt lat="43.43235" lon="1.91566">
        <ele>213.611</ele>
        <time>2016-12-30T09:49:02Z</time>
      </trkpt>
      <trkpt lat="43.43207" lon="1.91501">
        <ele>213.67</ele>
        <time>2016-12-30T09:49:22Z</time>
      </trkpt>
      <trkpt lat="43.43224" lon="1.91427">
        <ele>212.977</ele>
        <time>2016-12-30T09:49:42Z</time>
      </trkpt>
      <trkpt lat="43.43211" lon="1.91386">
        <ele>213.378</ele>
        <time>2016-12-30T09:50:02Z</time>
      </trkpt>
      <trkpt lat="43.43182" lon="1.91353">
        <ele>213.377</ele>
        <time>2016-12-30T09:50:22Z</time>
      </trkpt>
      <trkpt lat="43.43133" lon="1.91343">
        <ele>213.468</ele>
        <time>2016-12-30T09:50:42Z</time>
      </trkpt>
      <trkpt lat="43.43091" lon="1.91369">
        <ele>213.617</ele>
        <time>2016-12-30T09:51:02Z</time>
      </trkpt>
      <trkpt lat="43.43055" lon="1.91408">
        <ele>213.787</ele>
        <time>2016-12-30T09:51:22Z</time>
      </trkpt>
      <trkpt lat="43.43029" lon="1.91415">
        <ele>214.015</ele>
        <time>2016-12-30T09:51:42Z</time>
      </trkpt>
      <trkpt lat="43.43016" lon="1.91401">
        <ele>213.908</ele>
        <time>2016-12-30T09:52:02Z</time>
      </trkpt>
      <trkpt lat="43.43018" lon="1.91299">
        <ele>212.148</ele>
        <time>2016-12-30T09:52:22Z</time>
      </trkpt>
      <trkpt lat="43.42909" lon="1.91189">
        <ele>213.951</ele>
        <time>2016-12-30T09:52:42Z</time>
      </trkpt>
      <trkpt lat="43.42844" lon="1.91012">
        <ele>213.627</ele>
        <time>2016-12-30T09:53:02Z</time>
      </trkpt>
      <trkpt lat="43.42817" lon="1.90987">
        <ele>213.876</ele>
        <time>2016-12-30T09:53:22Z</time>
      </trkpt>
      <trkpt lat="43.42815" lon="1.90957">
        <ele>213.143</ele>
        <time>2016-12-30T09:53:42Z</time>
      </trkpt>
      <trkpt lat="43.42798" lon="1.90954">
        <ele>213.674</ele>
        <time>2016-12-30T09:54:02Z</time>
      </trkpt>
      <trkpt lat="43.42793" lon="1.90915">
        <ele>212.443</ele>
        <time>2016-12-30T09:54:22Z</time>
      </trkpt>
      <trkpt lat="43.42763" lon="1.90879">
        <ele>212.514</ele>
        <time>2016-12-30T09:54:42Z</time>
      </trkpt>
      <trkpt lat="43.42626" lon="1.90875">
        <ele>214.769</ele>
        <time>2016-12-30T09:55:02Z</time>
      </trkpt>
      <trkpt lat="43.42604" lon="1.90832">
        <ele>214.204</ele>
        <time>2016-12-30T09:55:22Z</time>
      </trkpt>
      <trkpt lat="43.4261" lon="1.90736">
        <ele>214.024</ele>
        <time>2016-12-30T09:55:42Z</time>
      </trkpt>
      <trkpt lat="43.42592" lon="1.90659">
        <ele>214.008</ele>
        <time>2016-12-30T09:56:02Z</time>
      </trkpt>
      <trkpt lat="43.42558" lon="1.90596">
        <ele>215.063</ele>
        <time>2016-12-30T09:56:22Z</time>
      </trkpt>
      <trkpt lat="43.42547" lon="1.90554">
        <ele>215.056</ele>
        <time>2016-12-30T09:56:42Z</time>
      </trkpt>
      <trkpt lat="43.42477" lon="1.90454">
        <ele>214.082</ele>
        <time>2016-12-30T09:57:02Z</time>
      </trkpt>
      <trkpt lat="43.42461" lon="1.90376">
        <ele>212.641</ele>
        <time>2016-12-30T09:57:22Z</time>
      </trkpt>
      <trkpt lat="43.42481" lon="1.90321">
        <ele>212.258</ele>
        <time>2016-12-30T09:57:42Z</time>
      </trkpt>
      <trkpt lat="43.42556" lon="1.90256">
        <ele>212.259</ele>
        <time>2016-12-30T09:58:02Z</time>
      </trkpt>
      <trkpt lat="43.4263" lon="1.90167">
        <ele>212.478</ele>
        <time>2016-12-30T09:58:22Z</time>
      </trkpt>
      <trkpt lat="43.42682" lon="1.90052">
        <ele>212.459</ele>
        <time>2016-12-30T09:58:42Z</time>
      </trkpt>
      <trkpt lat="43.42656" lon="1.89992">
        <ele>210.852</ele>
        <time>2016-12-30T09:59:02Z</time>
      </trkpt>
      <trkpt lat="43.42676" lon="1.89891">
        <ele>212.053</ele>
        <time>2016-12-30T09:59:22Z</time>
      </trkpt>
      <trkpt lat="43.4267" lon="1.89835">
        <ele>211.208</ele>
        <time>2016-12-30T09:59:42Z</time>
      </trkpt>
      <trkpt lat="43.42688" lon="1.8973">
        <ele>209.808</ele>
        <time>2016-12-30T10:00:02Z</time>
      </trkpt>
      <trkpt lat="43.42713" lon="1.8969">
        <ele>210.152</ele>
        <time>2016-12-30T10:00:22Z</time>
      </trkpt>
      <trkpt lat="43.42777" lon="1.89675">
        <ele>212.045</ele>
        <time>2016-12-30T10:00:42Z</time>
      </trkpt>
      <trkpt lat="43.42848" lon="1.89786">
        <ele>214.211</ele>
        <time>2021-04-17T12:06:30Z</time>
      </trkpt>
      <trkpt lat="43.4289" lon="1.89803">
        <ele>214.08</ele>
        <time>2016-12-30T10:01:42Z</time>
      </trkpt>
      <trkpt lat="43.42925" lon="1.89804">
        <ele>214.097</ele>
        <time>2016-12-30T10:02:02Z</time>
      </trkpt>
      <trkpt lat="43.42932" lon="1.89746">
        <ele>214.128</ele>
        <time>2016-12-30T10:02:22Z</time>
      </trkpt>
      <trkpt lat="43.42878" lon="1.89707">
        <ele>214.027</ele>
        <time>2016-12-30T10:02:42Z</time>
      </trkpt>
      <trkpt lat="43.42854" lon="1.8966">
        <ele>214.058</ele>
        <time>2016-12-30T10:03:02Z</time>
      </trkpt>
      <trkpt lat="43.42781" lon="1.89611">
        <ele>212.191</ele>
        <time>2016-12-30T10:03:22Z</time>
      </trkpt>
      <trkpt lat="43.42773" lon="1.89573">
        <ele>211.981</ele>
        <time>2016-12-30T10:03:42Z</time>
      </trkpt>
      <trkpt lat="43.42811" lon="1.8951">
        <ele>212.519</ele>
        <time>2016-12-30T10:04:02Z</time>
      </trkpt>
      <trkpt lat="43.42821" lon="1.89423">
        <ele>212.908</ele>
        <time>2016-12-30T10:04:22Z</time>
      </trkpt>
      <trkpt lat="43.42813" lon="1.89417">
        <ele>213.046</ele>
        <time>2016-12-30T10:04:42Z</time>
      </trkpt>
      <trkpt lat="43.42753" lon="1.89433">
        <ele>210.549</ele>
        <time>2016-12-30T10:05:02Z</time>
      </trkpt>
      <trkpt lat="43.42729" lon="1.89417">
        <ele>210.295</ele>
        <time>2016-12-30T10:05:22Z</time>
      </trkpt>
      <trkpt lat="43.42666" lon="1.89244">
        <ele>211.014</ele>
        <time>2016-12-30T10:05:42Z</time>
      </trkpt>
      <trkpt lat="43.42685" lon="1.89129">
        <ele>212.231</ele>
        <time>2016-12-30T10:06:02Z</time>
      </trkpt>
      <trkpt lat="43.42676" lon="1.89111">
        <ele>212.342</ele>
        <time>2016-12-30T10:06:22Z</time>
      </trkpt>
      <trkpt lat="43.42603" lon="1.89105">
        <ele>210.071</ele>
        <time>2016-12-30T10:06:42Z</time>
      </trkpt>
      <trkpt lat="43.4258" lon="1.89041">
        <ele>211.862</ele>
        <time>2016-12-30T10:07:02Z</time>
      </trkpt>
      <trkpt lat="43.42511" lon="1.88923">
        <ele>211.458</ele>
        <time>2016-12-30T10:07:22Z</time>
      </trkpt>
      <trkpt lat="43.42437" lon="1.88913">
        <ele>210.852</ele>
        <time>2016-12-30T10:07:42Z</time>
      </trkpt>
      <trkpt lat="43.4237" lon="1.88852">
        <ele>210.017</ele>
        <time>2016-12-30T10:08:02Z</time>
      </trkpt>
      <trkpt lat="43.42368" lon="1.88802">
        <ele>209.208</ele>
        <time>2016-12-30T10:08:22Z</time>
      </trkpt>
      <trkpt lat="43.42389" lon="1.88729">
        <ele>210.072</ele>
        <time>2016-12-30T10:08:42Z</time>
      </trkpt>
      <trkpt lat="43.42391" lon="1.88661">
        <ele>211.335</ele>
        <time>2016-12-30T10:09:02Z</time>
      </trkpt>
      <trkpt lat="43.4236" lon="1.886">
        <ele>209.881</ele>
        <time>2016-12-30T10:09:22Z</time>
      </trkpt>
      <trkpt lat="43.42366" lon="1.8855">
        <ele>210.47</ele>
        <time>2016-12-30T10:09:42Z</time>
      </trkpt>
      <trkpt lat="43.42397" lon="1.88464">
        <ele>211.937</ele>
        <time>2016-12-30T10:10:02Z</time>
      </trkpt>
      <trkpt lat="43.42353" lon="1.88436">
        <ele>210.068</ele>
        <time>2016-12-30T10:10:22Z</time>
      </trkpt>
      <trkpt lat="43.42297" lon="1.8835">
        <ele>210.427</ele>
        <time>2016-12-30T10:10:42Z</time>
      </trkpt>
      <trkpt lat="43.4223" lon="1.88305">
        <ele>213.098</ele>
        <time>2016-12-30T10:11:02Z</time>
      </trkpt>
      <trkpt lat="43.42181" lon="1.88242">
        <ele>211.738</ele>
        <time>2016-12-30T10:11:22Z</time>
      </trkpt>
      <trkpt lat="43.42165" lon="1.88176">
        <ele>211.57</ele>
        <time>2016-12-30T10:11:42Z</time>
      </trkpt>
      <trkpt lat="43.42167" lon="1.88125">
        <ele>212.017</ele>
        <time>2016-12-30T10:12:02Z</time>
      </trkpt>
      <trkpt lat="43.42162" lon="1.88116">
        <ele>211.808</ele>
        <time>2016-12-30T10:12:22Z</time>
      </trkpt>
      <trkpt lat="43.42135" lon="1.88116">
        <ele>210.74</ele>
        <time>2016-12-30T10:12:42Z</time>
      </trkpt>
      <trkpt lat="43.42113" lon="1.88092">
        <ele>210.883</ele>
        <time>2016-12-30T10:13:02Z</time>
      </trkpt>
      <trkpt lat="43.42085" lon="1.88041">
        <ele>210.689</ele>
        <time>2016-12-30T10:13:22Z</time>
      </trkpt>
      <trkpt lat="43.42042" lon="1.88012">
        <ele>210.668</ele>
        <time>2016-12-30T10:13:42Z</time>
      </trkpt>
      <trkpt lat="43.41884" lon="1.88016">
        <ele>208.945</ele>
        <time>2016-12-30T10:14:02Z</time>
      </trkpt>
      <trkpt lat="43.41736" lon="1.87957">
        <ele>209.046</ele>
        <time>2016-12-30T10:14:22Z</time>
      </trkpt>
      <trkpt lat="43.41707" lon="1.87964">
        <ele>209.295</ele>
        <time>2016-12-30T10:14:42Z</time>
      </trkpt>
      <trkpt lat="43.41476" lon="1.88115">
        <ele>208.926</ele>
        <time>2016-12-30T10:15:02Z</time>
      </trkpt>
      <trkpt lat="43.41372" lon="1.88137">
        <ele>207.516</ele>
        <time>2016-12-30T10:15:22Z</time>
      </trkpt>
      <trkpt lat="43.41355" lon="1.88122">
        <ele>207.176</ele>
        <time>2016-12-30T10:15:42Z</time>
      </trkpt>
      <trkpt lat="43.41348" lon="1.88069">
        <ele>208.313</ele>
        <time>2016-12-30T10:16:02Z</time>
      </trkpt>
      <trkpt lat="43.41332" lon="1.88064">
        <ele>207.808</ele>
        <time>2016-12-30T10:16:22Z</time>
      </trkpt>
      <trkpt lat="43.4124" lon="1.88121">
        <ele>207.378</ele>
        <time>2016-12-30T10:16:42Z</time>
      </trkpt>
      <trkpt lat="43.41224" lon="1.88098">
        <ele>207.541</ele>
        <time>2016-12-30T10:17:02Z</time>
      </trkpt>
      <trkpt lat="43.41215" lon="1.88009">
        <ele>207.917</ele>
        <time>2016-12-30T10:17:22Z</time>
      </trkpt>
      <trkpt lat="43.41163" lon="1.88018">
        <ele>204.996</ele>
        <time>2016-12-30T10:17:42Z</time>
      </trkpt>
      <trkpt lat="43.41141" lon="1.88015">
        <ele>205.853</ele>
        <time>2016-12-30T10:18:02Z</time>
      </trkpt>
      <trkpt lat="43.41075" lon="1.88057">
        <ele>206.954</ele>
        <time>2016-12-30T10:18:22Z</time>
      </trkpt>
      <trkpt lat="43.41006" lon="1.88083">
        <ele>207.843</ele>
        <time>2016-12-30T10:18:42Z</time>
      </trkpt>
      <trkpt lat="43.40947" lon="1.88162">
        <ele>205.284</ele>
        <time>2016-12-30T10:19:02Z</time>
      </trkpt>
      <trkpt lat="43.40914" lon="1.88176">
        <ele>205.385</ele>
        <time>2016-12-30T10:19:22Z</time>
      </trkpt>
      <trkpt lat="43.40874" lon="1.8818">
        <ele>206.989</ele>
        <time>2016-12-30T10:19:42Z</time>
      </trkpt>
      <trkpt lat="43.40835" lon="1.88269">
        <ele>205.217</ele>
        <time>2016-12-30T10:20:02Z</time>
      </trkpt>
      <trkpt lat="43.40791" lon="1.88322">
        <ele>205.308</ele>
        <time>2016-12-30T10:20:22Z</time>
      </trkpt>
      <trkpt lat="43.40752" lon="1.8832">
        <ele>206.945</ele>
        <time>2016-12-30T10:20:42Z</time>
      </trkpt>
      <trkpt lat="43.40702" lon="1.88294">
        <ele>207.788</ele>
        <time>2016-12-30T10:21:02Z</time>
      </trkpt>
      <trkpt lat="43.40615" lon="1.88355">
        <ele>207.974</ele>
        <time>2016-12-30T10:21:22Z</time>
      </trkpt>
      <trkpt lat="43.40548" lon="1.88375">
        <ele>208.123</ele>
        <time>2016-12-30T10:21:42Z</time>
      </trkpt>
      <trkpt lat="43.40495" lon="1.88357">
        <ele>209.07</ele>
        <time>2016-12-30T10:22:02Z</time>
      </trkpt>
      <trkpt lat="43.40461" lon="1.88338">
        <ele>209.091</ele>
        <time>2016-12-30T10:22:22Z</time>
      </trkpt>
      <trkpt lat="43.40308" lon="1.88452">
        <ele>205.72</ele>
        <time>2016-12-30T10:22:42Z</time>
      </trkpt>
      <trkpt lat="43.40286" lon="1.88437">
        <ele>205.561</ele>
        <time>2016-12-30T10:23:02Z</time>
      </trkpt>
      <trkpt lat="43.40284" lon="1.8839">
        <ele>206.224</ele>
        <time>2016-12-30T10:23:22Z</time>
      </trkpt>
      <trkpt lat="43.40333" lon="1.8817">
        <ele>209.004</ele>
        <time>2016-12-30T10:23:42Z</time>
      </trkpt>
      <trkpt lat="43.40314" lon="1.88112">
        <ele>207.614</ele>
        <time>2016-12-30T10:24:02Z</time>
      </trkpt>
      <trkpt lat="43.40278" lon="1.88062">
        <ele>206.808</ele>
        <time>2016-12-30T10:24:22Z</time>
      </trkpt>
      <trkpt lat="43.40276" lon="1.88015">
        <ele>206.839</ele>
        <time>2016-12-30T10:24:42Z</time>
      </trkpt>
      <trkpt lat="43.40344" lon="1.87841">
        <ele>208.142</ele>
        <time>2016-12-30T10:25:02Z</time>
      </trkpt>
      <trkpt lat="43.40336" lon="1.87806">
        <ele>207.378</ele>
        <time>2016-12-30T10:25:22Z</time>
      </trkpt>
      <trkpt lat="43.40289" lon="1.87803">
        <ele>207.287</ele>
        <time>2016-12-30T10:25:42Z</time>
      </trkpt>
      <trkpt lat="43.40246" lon="1.87754">
        <ele>208.674</ele>
        <time>2016-12-30T10:26:02Z</time>
      </trkpt>
      <trkpt lat="43.4017" lon="1.87757">
        <ele>205.885</ele>
        <time>2016-12-30T10:26:22Z</time>
      </trkpt>
      <trkpt lat="43.4011" lon="1.87778">
        <ele>204.074</ele>
        <time>2016-12-30T10:26:42Z</time>
      </trkpt>
      <trkpt lat="43.40081" lon="1.87774">
        <ele>205.175</ele>
        <time>2016-12-30T10:27:02Z</time>
      </trkpt>
      <trkpt lat="43.40046" lon="1.87728">
        <ele>206.429</ele>
        <time>2016-12-30T10:27:22Z</time>
      </trkpt>
      <trkpt lat="43.40038" lon="1.8769">
        <ele>206.5</ele>
        <time>2016-12-30T10:27:42Z</time>
      </trkpt>
      <trkpt lat="43.39979" lon="1.8764">
        <ele>205.42</ele>
        <time>2016-12-30T10:28:02Z</time>
      </trkpt>
      <trkpt lat="43.39964" lon="1.87534">
        <ele>206.808</ele>
        <time>2016-12-30T10:28:22Z</time>
      </trkpt>
      <trkpt lat="43.39946" lon="1.87513">
        <ele>206.229</ele>
        <time>2016-12-30T10:28:42Z</time>
      </trkpt>
      <trkpt lat="43.39861" lon="1.87512">
        <ele>205.112</ele>
        <time>2016-12-30T10:29:02Z</time>
      </trkpt>
      <trkpt lat="43.39819" lon="1.87459">
        <ele>207.058</ele>
        <time>2016-12-30T10:29:22Z</time>
      </trkpt>
      <trkpt lat="43.39779" lon="1.8744">
        <ele>206.257</ele>
        <time>2016-12-30T10:29:42Z</time>
      </trkpt>
      <trkpt lat="43.39739" lon="1.87392">
        <ele>207.114</ele>
        <time>2016-12-30T10:30:02Z</time>
      </trkpt>
      <trkpt lat="43.3971" lon="1.87374">
        <ele>206.365</ele>
        <time>2016-12-30T10:30:22Z</time>
      </trkpt>
      <trkpt lat="43.39645" lon="1.87485">
        <ele>206.514</ele>
        <time>2016-12-30T10:30:42Z</time>
      </trkpt>
      <trkpt lat="43.39623" lon="1.8757">
        <ele>204.795</ele>
        <time>2016-12-30T10:31:02Z</time>
      </trkpt>
      <trkpt lat="43.39601" lon="1.87584">
        <ele>205.651</ele>
        <time>2016-12-30T10:31:22Z</time>
      </trkpt>
      <trkpt lat="43.39577" lon="1.87542">
        <ele>207.401</ele>
        <time>2016-12-30T10:31:42Z</time>
      </trkpt>
      <trkpt lat="43.39548" lon="1.87528">
        <ele>206.911</ele>
        <time>2016-12-30T10:32:02Z</time>
      </trkpt>
      <trkpt lat="43.39474" lon="1.87578">
        <ele>205.208</ele>
        <time>2016-12-30T10:32:22Z</time>
      </trkpt>
      <trkpt lat="43.39428" lon="1.8754">
        <ele>207.732</ele>
        <time>2016-12-30T10:32:42Z</time>
      </trkpt>
      <trkpt lat="43.39396" lon="1.87542">
        <ele>207.095</ele>
        <time>2016-12-30T10:33:02Z</time>
      </trkpt>
      <trkpt lat="43.39349" lon="1.87577">
        <ele>204.881</ele>
        <time>2016-12-30T10:33:22Z</time>
      </trkpt>
      <trkpt lat="43.39326" lon="1.87563">
        <ele>205.33</ele>
        <time>2016-12-30T10:33:42Z</time>
      </trkpt>
      <trkpt lat="43.39314" lon="1.87526">
        <ele>204.957</ele>
        <time>2016-12-30T10:34:02Z</time>
      </trkpt>
      <trkpt lat="43.39316" lon="1.87433">
        <ele>204.788</ele>
        <time>2016-12-30T10:34:22Z</time>
      </trkpt>
      <trkpt lat="43.39359" lon="1.87309">
        <ele>205.857</ele>
        <time>2016-12-30T10:34:42Z</time>
      </trkpt>
      <trkpt lat="43.39372" lon="1.87242">
        <ele>205.688</ele>
        <time>2016-12-30T10:35:02Z</time>
      </trkpt>
      <trkpt lat="43.39364" lon="1.8719">
        <ele>205.237</ele>
        <time>2016-12-30T10:35:22Z</time>
      </trkpt>
      <trkpt lat="43.39348" lon="1.87173">
        <ele>204.449</ele>
        <time>2016-12-30T10:35:42Z</time>
      </trkpt>
      <trkpt lat="43.39325" lon="1.87187">
        <ele>203.313</ele>
        <time>2016-12-30T10:36:02Z</time>
      </trkpt>
      <trkpt lat="43.393" lon="1.87221">
        <ele>202.008</ele>
        <time>2016-12-30T10:36:22Z</time>
      </trkpt>
      <trkpt lat="43.3927" lon="1.87213">
        <ele>202.24</ele>
        <time>2016-12-30T10:36:42Z</time>
      </trkpt>
      <trkpt lat="43.39243" lon="1.8716">
        <ele>202.423</ele>
        <time>2016-12-30T10:37:02Z</time>
      </trkpt>
      <trkpt lat="43.39237" lon="1.87095">
        <ele>202.669</ele>
        <time>2016-12-30T10:37:22Z</time>
      </trkpt>
      <trkpt lat="43.39243" lon="1.87073">
        <ele>203.678</ele>
        <time>2016-12-30T10:37:42Z</time>
      </trkpt>
      <trkpt lat="43.39235" lon="1.87056">
        <ele>203.455</ele>
        <time>2016-12-30T10:38:02Z</time>
      </trkpt>
      <trkpt lat="43.39179" lon="1.87076">
        <ele>203.746</ele>
        <time>2016-12-30T10:38:22Z</time>
      </trkpt>
      <trkpt lat="43.3914" lon="1.87059">
        <ele>202.135</ele>
        <time>2016-12-30T10:38:42Z</time>
      </trkpt>
      <trkpt lat="43.39136" lon="1.87003">
        <ele>202.736</ele>
        <time>2016-12-30T10:39:02Z</time>
      </trkpt>
      <trkpt lat="43.39158" lon="1.86873">
        <ele>203.195</ele>
        <time>2016-12-30T10:39:22Z</time>
      </trkpt>
      <trkpt lat="43.39145" lon="1.8686">
        <ele>202.549</ele>
        <time>2016-12-30T10:39:42Z</time>
      </trkpt>
      <trkpt lat="43.39077" lon="1.86946">
        <ele>203.123</ele>
        <time>2016-12-30T10:40:02Z</time>
      </trkpt>
      <trkpt lat="43.3901" lon="1.87103">
        <ele>201.708</ele>
        <time>2016-12-30T10:40:22Z</time>
      </trkpt>
      <trkpt lat="43.38989" lon="1.87107">
        <ele>202.786</ele>
        <time>2016-12-30T10:40:42Z</time>
      </trkpt>
      <trkpt lat="43.38921" lon="1.87067">
        <ele>204.639</ele>
        <time>2016-12-30T10:41:02Z</time>
      </trkpt>
      <trkpt lat="43.38861" lon="1.871">
        <ele>204.025</ele>
        <time>2016-12-30T10:41:22Z</time>
      </trkpt>
      <trkpt lat="43.38821" lon="1.87081">
        <ele>203.254</ele>
        <time>2016-12-30T10:41:42Z</time>
      </trkpt>
      <trkpt lat="43.38799" lon="1.8702">
        <ele>202.011</ele>
        <time>2016-12-30T10:42:02Z</time>
      </trkpt>
      <trkpt lat="43.38805" lon="1.86981">
        <ele>201.272</ele>
        <time>2016-12-30T10:42:22Z</time>
      </trkpt>
      <trkpt lat="43.38873" lon="1.8692">
        <ele>203.051</ele>
        <time>2016-12-30T10:42:42Z</time>
      </trkpt>
      <trkpt lat="43.38965" lon="1.86772">
        <ele>202.792</ele>
        <time>2016-12-30T10:43:02Z</time>
      </trkpt>
      <trkpt lat="43.38956" lon="1.86744">
        <ele>203.158</ele>
        <time>2016-12-30T10:43:22Z</time>
      </trkpt>
      <trkpt lat="43.38912" lon="1.86745">
        <ele>202.752</ele>
        <time>2016-12-30T10:43:42Z</time>
      </trkpt>
      <trkpt lat="43.38834" lon="1.86806">
        <ele>201.917</ele>
        <time>2016-12-30T10:44:02Z</time>
      </trkpt>
      <trkpt lat="43.38802" lon="1.86802">
        <ele>202.908</ele>
        <time>2016-12-30T10:44:22Z</time>
      </trkpt>
      <trkpt lat="43.38765" lon="1.86762">
        <ele>203.932</ele>
        <time>2016-12-30T10:44:42Z</time>
      </trkpt>
      <trkpt lat="43.38625" lon="1.86877">
        <ele>203.025</ele>
        <time>2016-12-30T10:45:02Z</time>
      </trkpt>
      <trkpt lat="43.38568" lon="1.86958">
        <ele>203.061</ele>
        <time>2016-12-30T10:45:22Z</time>
      </trkpt>
      <trkpt lat="43.38481" lon="1.87117">
        <ele>201.91</ele>
        <time>2016-12-30T10:45:42Z</time>
      </trkpt>
      <trkpt lat="43.38461" lon="1.87218">
        <ele>200.297</ele>
        <time>2016-12-30T10:46:02Z</time>
      </trkpt>
      <trkpt lat="43.38425" lon="1.87326">
        <ele>199.368</ele>
        <time>2016-12-30T10:46:22Z</time>
      </trkpt>
      <trkpt lat="43.38393" lon="1.87351">
        <ele>200.857</ele>
        <time>2016-12-30T10:46:42Z</time>
      </trkpt>
      <trkpt lat="43.38341" lon="1.87349">
        <ele>204.738</ele>
        <time>2016-12-30T10:47:02Z</time>
      </trkpt>
      <trkpt lat="43.38319" lon="1.87291">
        <ele>204.596</ele>
        <time>2016-12-30T10:47:22Z</time>
      </trkpt>
      <trkpt lat="43.38348" lon="1.87153">
        <ele>203.331</ele>
        <time>2016-12-30T10:47:42Z</time>
      </trkpt>
      <trkpt lat="43.38378" lon="1.86943">
        <ele>202.424</ele>
        <time>2016-12-30T10:48:02Z</time>
      </trkpt>
      <trkpt lat="43.38379" lon="1.86842">
        <ele>201.908</ele>
        <time>2016-12-30T10:48:22Z</time>
      </trkpt>
      <trkpt lat="43.3838" lon="1.86838">
        <ele>202.066</ele>
        <time>2016-12-30T10:48:42Z</time>
      </trkpt>
      <trkpt lat="43.38405" lon="1.86767">
        <ele>203.259</ele>
        <time>2016-12-30T10:49:02Z</time>
      </trkpt>
      <trkpt lat="43.38367" lon="1.86689">
        <ele>202.475</ele>
        <time>2016-12-30T10:49:22Z</time>
      </trkpt>
      <trkpt lat="43.38319" lon="1.86688">
        <ele>201.434</ele>
        <time>2016-12-30T10:49:42Z</time>
      </trkpt>
      <trkpt lat="43.38287" lon="1.866">
        <ele>203.741</ele>
        <time>2016-12-30T10:50:02Z</time>
      </trkpt>
      <trkpt lat="43.38284" lon="1.86506">
        <ele>203.462</ele>
        <time>2016-12-30T10:50:22Z</time>
      </trkpt>
      <trkpt lat="43.38302" lon="1.8642">
        <ele>204.011</ele>
        <time>2016-12-30T10:50:42Z</time>
      </trkpt>
      <trkpt lat="43.38287" lon="1.86395">
        <ele>204.382</ele>
        <time>2016-12-30T10:51:02Z</time>
      </trkpt>
      <trkpt lat="43.38182" lon="1.86432">
        <ele>202.979</ele>
        <time>2016-12-30T10:51:22Z</time>
      </trkpt>
      <trkpt lat="43.38079" lon="1.86523">
        <ele>203.305</ele>
        <time>2016-12-30T10:51:42Z</time>
      </trkpt>
      <trkpt lat="43.3802" lon="1.86623">
        <ele>203.425</ele>
        <time>2016-12-30T10:52:02Z</time>
      </trkpt>
      <trkpt lat="43.37975" lon="1.86693">
        <ele>203.908</ele>
        <time>2016-12-30T10:52:22Z</time>
      </trkpt>
      <trkpt lat="43.37927" lon="1.86818">
        <ele>201.534</ele>
        <time>2016-12-30T10:52:42Z</time>
      </trkpt>
      <trkpt lat="43.37877" lon="1.86853">
        <ele>203.287</ele>
        <time>2016-12-30T10:53:02Z</time>
      </trkpt>
      <trkpt lat="43.37731" lon="1.87124">
        <ele>201.393</ele>
        <time>2016-12-30T10:53:22Z</time>
      </trkpt>
      <trkpt lat="43.37658" lon="1.87219">
        <ele>201.172</ele>
        <time>2016-12-30T10:53:42Z</time>
      </trkpt>
      <trkpt lat="43.37625" lon="1.87289">
        <ele>202.589</ele>
        <time>2016-12-30T10:54:02Z</time>
      </trkpt>
      <trkpt lat="43.37573" lon="1.87349">
        <ele>208.27</ele>
        <time>2021-04-17T12:59:30Z</time>
      </trkpt>
      <trkpt lat="43.37549" lon="1.87424">
        <ele>204.889</ele>
        <time>2021-04-17T12:59:50Z</time>
      </trkpt>
      <trkpt lat="43.37508" lon="1.87478">
        <ele>206.44</ele>
        <time>2021-04-17T13:00:10Z</time>
      </trkpt>
      <trkpt lat="43.3747" lon="1.87508">
        <ele>205.792</ele>
        <time>2021-04-17T13:00:30Z</time>
      </trkpt>
      <trkpt lat="43.37437" lon="1.87505">
        <ele>205.373</ele>
        <time>2016-12-30T10:55:22Z</time>
      </trkpt>
      <trkpt lat="43.37386" lon="1.87448">
        <ele>202.62</ele>
        <time>2021-04-17T13:01:10Z</time>
      </trkpt>
      <trkpt lat="43.3737" lon="1.87347">
        <ele>203.808</ele>
        <time>2021-04-17T13:01:30Z</time>
      </trkpt>
      <trkpt lat="43.37371" lon="1.87191">
        <ele>203.326</ele>
        <time>2021-04-17T13:01:50Z</time>
      </trkpt>
      <trkpt lat="43.37359" lon="1.87085">
        <ele>205.779</ele>
        <time>2016-12-30T10:56:42Z</time>
      </trkpt>
      <trkpt lat="43.37382" lon="1.86967">
        <ele>205.785</ele>
        <time>2016-12-30T10:57:02Z</time>
      </trkpt>
      <trkpt lat="43.37422" lon="1.86816">
        <ele>205.024</ele>
        <time>2016-12-30T10:57:22Z</time>
      </trkpt>
      <trkpt lat="43.37475" lon="1.867">
        <ele>207.261</ele>
        <time>2016-12-30T10:57:42Z</time>
      </trkpt>
      <trkpt lat="43.37487" lon="1.86623">
        <ele>206.322</ele>
        <time>2016-12-30T10:58:02Z</time>
      </trkpt>
      <trkpt lat="43.37437" lon="1.86539">
        <ele>206.861</ele>
        <time>2016-12-30T10:58:22Z</time>
      </trkpt>
      <trkpt lat="43.37343" lon="1.86529">
        <ele>204.552</ele>
        <time>2016-12-30T10:58:42Z</time>
      </trkpt>
      <trkpt lat="43.37307" lon="1.86477">
        <ele>203.914</ele>
        <time>2016-12-30T10:59:02Z</time>
      </trkpt>
      <trkpt lat="43.37305" lon="1.86413">
        <ele>201.854</ele>
        <time>2016-12-30T10:59:22Z</time>
      </trkpt>
      <trkpt lat="43.37483" lon="1.85969">
        <ele>202.809</ele>
        <time>2016-12-30T10:59:42Z</time>
      </trkpt>
      <trkpt lat="43.37502" lon="1.85855">
        <ele>205.008</ele>
        <time>2016-12-30T11:00:02Z</time>
      </trkpt>
      <trkpt lat="43.37509" lon="1.85625">
        <ele>205.798</ele>
        <time>2016-12-30T11:00:22Z</time>
      </trkpt>
      <trkpt lat="43.37486" lon="1.85576">
        <ele>205.511</ele>
        <time>2016-12-30T11:00:42Z</time>
      </trkpt>
      <trkpt lat="43.37451" lon="1.85558">
        <ele>205.097</ele>
        <time>2016-12-30T11:01:02Z</time>
      </trkpt>
      <trkpt lat="43.37339" lon="1.85535">
        <ele>205.016</ele>
        <time>2016-12-30T11:01:22Z</time>
      </trkpt>
      <trkpt lat="43.37271" lon="1.85576">
        <ele>205.043</ele>
        <time>2016-12-30T11:01:42Z</time>
      </trkpt>
      <trkpt lat="43.37172" lon="1.85699">
        <ele>202.344</ele>
        <time>2016-12-30T11:02:02Z</time>
      </trkpt>
      <trkpt lat="43.37136" lon="1.85705">
        <ele>200.513</ele>
        <time>2016-12-30T11:02:22Z</time>
      </trkpt>
      <trkpt lat="43.37106" lon="1.8567">
        <ele>200.534</ele>
        <time>2016-12-30T11:02:42Z</time>
      </trkpt>
      <trkpt lat="43.37111" lon="1.85593">
        <ele>201.055</ele>
        <time>2016-12-30T11:03:02Z</time>
      </trkpt>
      <trkpt lat="43.37145" lon="1.85452">
        <ele>203.207</ele>
        <time>2016-12-30T11:03:22Z</time>
      </trkpt>
      <trkpt lat="43.37146" lon="1.85407">
        <ele>203.517</ele>
        <time>2016-12-30T11:03:42Z</time>
      </trkpt>
      <trkpt lat="43.3704" lon="1.8546">
        <ele>203.008</ele>
        <time>2016-12-30T11:04:02Z</time>
      </trkpt>
      <trkpt lat="43.36925" lon="1.85607">
        <ele>200.362</ele>
        <time>2016-12-30T11:04:22Z</time>
      </trkpt>
      <trkpt lat="43.36868" lon="1.85631">
        <ele>201.925</ele>
        <time>2016-12-30T11:04:42Z</time>
      </trkpt>
      <trkpt lat="43.36824" lon="1.85595">
        <ele>203.031</ele>
        <time>2016-12-30T11:05:02Z</time>
      </trkpt>
      <trkpt lat="43.36799" lon="1.85491">
        <ele>202.79</ele>
        <time>2016-12-30T11:05:22Z</time>
      </trkpt>
      <trkpt lat="43.36807" lon="1.85386">
        <ele>202.087</ele>
        <time>2016-12-30T11:05:42Z</time>
      </trkpt>
      <trkpt lat="43.36824" lon="1.85289">
        <ele>201.458</ele>
        <time>2016-12-30T11:06:02Z</time>
      </trkpt>
      <trkpt lat="43.36815" lon="1.85147">
        <ele>200.647</ele>
        <time>2016-12-30T11:06:22Z</time>
      </trkpt>
      <trkpt lat="43.36781" lon="1.85101">
        <ele>200.358</ele>
        <time>2016-12-30T11:06:42Z</time>
      </trkpt>
      <trkpt lat="43.36688" lon="1.85046">
        <ele>202.881</ele>
        <time>2016-12-30T11:07:02Z</time>
      </trkpt>
      <trkpt lat="43.36669" lon="1.85002">
        <ele>201.261</ele>
        <time>2016-12-30T11:07:22Z</time>
      </trkpt>
      <trkpt lat="43.36675" lon="1.84929">
        <ele>200.717</ele>
        <time>2016-12-30T11:07:42Z</time>
      </trkpt>
      <trkpt lat="43.36662" lon="1.84908">
        <ele>200.308</ele>
        <time>2016-12-30T11:08:02Z</time>
      </trkpt>
      <trkpt lat="43.36396" lon="1.85251">
        <ele>198.985</ele>
        <time>2016-12-30T11:08:22Z</time>
      </trkpt>
      <trkpt lat="43.36335" lon="1.85255">
        <ele>199.728</ele>
        <time>2016-12-30T11:08:42Z</time>
      </trkpt>
      <trkpt lat="43.36234" lon="1.85165">
        <ele>201.854</ele>
        <time>2016-12-30T11:09:02Z</time>
      </trkpt>
      <trkpt lat="43.36229" lon="1.85099">
        <ele>202.113</ele>
        <time>2016-12-30T11:09:22Z</time>
      </trkpt>
      <trkpt lat="43.36261" lon="1.84978">
        <ele>200.07</ele>
        <time>2016-12-30T11:09:42Z</time>
      </trkpt>
      <trkpt lat="43.36296" lon="1.84887">
        <ele>200.221</ele>
        <time>2016-12-30T11:10:02Z</time>
      </trkpt>
      <trkpt lat="43.36342" lon="1.8463">
        <ele>201.68</ele>
        <time>2016-12-30T11:10:22Z</time>
      </trkpt>
      <trkpt lat="43.3631" lon="1.84562">
        <ele>201.191</ele>
        <time>2016-12-30T11:10:42Z</time>
      </trkpt>
      <trkpt lat="43.36254" lon="1.84503">
        <ele>200.347</ele>
        <time>2016-12-30T11:11:02Z</time>
      </trkpt>
      <trkpt lat="43.36173" lon="1.84497">
        <ele>200.129</ele>
        <time>2016-12-30T11:11:22Z</time>
      </trkpt>
      <trkpt lat="43.36095" lon="1.84497">
        <ele>200.721</ele>
        <time>2016-12-30T11:11:42Z</time>
      </trkpt>
      <trkpt lat="43.36031" lon="1.84451">
        <ele>201.008</ele>
        <time>2016-12-30T11:12:02Z</time>
      </trkpt>
      <trkpt lat="43.36001" lon="1.84388">
        <ele>200.121</ele>
        <time>2016-12-30T11:12:22Z</time>
      </trkpt>
      <trkpt lat="43.36025" lon="1.84117">
        <ele>201.124</ele>
        <time>2016-12-30T11:12:42Z</time>
      </trkpt>
      <trkpt lat="43.36055" lon="1.84004">
        <ele>202.09</ele>
        <time>2016-12-30T11:13:02Z</time>
      </trkpt>
      <trkpt lat="43.36041" lon="1.8399">
        <ele>201.889</ele>
        <time>2016-12-30T11:13:22Z</time>
      </trkpt>
      <trkpt lat="43.35936" lon="1.84086">
        <ele>200.816</ele>
        <time>2016-12-30T11:13:42Z</time>
      </trkpt>
      <trkpt lat="43.35887" lon="1.84212">
        <ele>200.637</ele>
        <time>2016-12-30T11:14:02Z</time>
      </trkpt>
      <trkpt lat="43.35858" lon="1.84341">
        <ele>197.626</ele>
        <time>2016-12-30T11:14:22Z</time>
      </trkpt>
      <trkpt lat="43.35821" lon="1.84431">
        <ele>196.217</ele>
        <time>2016-12-30T11:14:42Z</time>
      </trkpt>
      <trkpt lat="43.35779" lon="1.84458">
        <ele>200.423</ele>
        <time>2016-12-30T11:15:02Z</time>
      </trkpt>
      <trkpt lat="43.35749" lon="1.84449">
        <ele>200.883</ele>
        <time>2016-12-30T11:15:22Z</time>
      </trkpt>
      <trkpt lat="43.3563" lon="1.843">
        <ele>198.711</ele>
        <time>2016-12-30T11:15:42Z</time>
      </trkpt>
      <trkpt lat="43.35611" lon="1.84152">
        <ele>199.008</ele>
        <time>2016-12-30T11:16:02Z</time>
      </trkpt>
      <trkpt lat="43.35483" lon="1.84048">
        <ele>198.439</ele>
        <time>2016-12-30T11:16:22Z</time>
      </trkpt>
      <trkpt lat="43.35447" lon="1.83911">
        <ele>198.172</ele>
        <time>2016-12-30T11:16:42Z</time>
      </trkpt>
      <trkpt lat="43.35439" lon="1.8379">
        <ele>198.868</ele>
        <time>2016-12-30T11:17:02Z</time>
      </trkpt>
      <trkpt lat="43.35458" lon="1.83676">
        <ele>199.597</ele>
        <time>2016-12-30T11:17:22Z</time>
      </trkpt>
      <trkpt lat="43.35438" lon="1.83664">
        <ele>199.064</ele>
        <time>2016-12-30T11:17:42Z</time>
      </trkpt>
      <trkpt lat="43.35297" lon="1.83702">
        <ele>198.055</ele>
        <time>2016-12-30T11:18:02Z</time>
      </trkpt>
      <trkpt lat="43.35232" lon="1.8377">
        <ele>196.364</ele>
        <time>2016-12-30T11:18:22Z</time>
      </trkpt>
      <trkpt lat="43.35191" lon="1.83769">
        <ele>196.665</ele>
        <time>2016-12-30T11:18:42Z</time>
      </trkpt>
      <trkpt lat="43.3512" lon="1.83746">
        <ele>195.859</ele>
        <time>2016-12-30T11:19:02Z</time>
      </trkpt>
      <trkpt lat="43.35095" lon="1.83685">
        <ele>195.403</ele>
        <time>2016-12-30T11:19:22Z</time>
      </trkpt>
      <trkpt lat="43.35104" lon="1.83622">
        <ele>195.723</ele>
        <time>2016-12-30T11:19:42Z</time>
      </trkpt>
      <trkpt lat="43.35098" lon="1.83441">
        <ele>195.008</ele>
        <time>2016-12-30T11:20:02Z</time>
      </trkpt>
      <trkpt lat="43.35078" lon="1.83431">
        <ele>195.082</ele>
        <time>2016-12-30T11:20:22Z</time>
      </trkpt>
      <trkpt lat="43.35031" lon="1.83538">
        <ele>194.775</ele>
        <time>2016-12-30T11:20:42Z</time>
      </trkpt>
      <trkpt lat="43.35005" lon="1.83556">
        <ele>194.021</ele>
        <time>2016-12-30T11:21:02Z</time>
      </trkpt>
      <trkpt lat="43.34965" lon="1.83543">
        <ele>193.53</ele>
        <time>2016-12-30T11:21:22Z</time>
      </trkpt>
      <trkpt lat="43.34948" lon="1.83484">
        <ele>192.367</ele>
        <time>2016-12-30T11:21:42Z</time>
      </trkpt>
      <trkpt lat="43.34959" lon="1.83367">
        <ele>193.178</ele>
        <time>2016-12-30T11:22:02Z</time>
      </trkpt>
      <trkpt lat="43.3493" lon="1.83099">
        <ele>193.287</ele>
        <time>2016-12-30T11:22:22Z</time>
      </trkpt>
      <trkpt lat="43.349" lon="1.83055">
        <ele>193.428</ele>
        <time>2016-12-30T11:22:42Z</time>
      </trkpt>
      <trkpt lat="43.34852" lon="1.83054">
        <ele>192.778</ele>
        <time>2016-12-30T11:23:02Z</time>
      </trkpt>
      <trkpt lat="43.34771" lon="1.82988">
        <ele>192.233</ele>
        <time>2016-12-30T11:23:22Z</time>
      </trkpt>
      <trkpt lat="43.34728" lon="1.82925">
        <ele>191.426</ele>
        <time>2016-12-30T11:23:42Z</time>
      </trkpt>
      <trkpt lat="43.34732" lon="1.82827">
        <ele>191.508</ele>
        <time>2016-12-30T11:24:02Z</time>
      </trkpt>
      <trkpt lat="43.34752" lon="1.82771">
        <ele>191.924</ele>
        <time>2016-12-30T11:24:22Z</time>
      </trkpt>
      <trkpt lat="43.34982" lon="1.82404">
        <ele>193.147</ele>
        <time>2016-12-30T11:24:42Z</time>
      </trkpt>
      <trkpt lat="43.35041" lon="1.8236">
        <ele>193.473</ele>
        <time>2016-12-30T11:25:02Z</time>
      </trkpt>
      <trkpt lat="43.35104" lon="1.82332">
        <ele>193.092</ele>
        <time>2016-12-30T11:25:22Z</time>
      </trkpt>
      <trkpt lat="43.35139" lon="1.82266">
        <ele>191.049</ele>
        <time>2016-12-30T11:25:42Z</time>
      </trkpt>
      <trkpt lat="43.3509" lon="1.82126">
        <ele>190.05</ele>
        <time>2016-12-30T11:26:02Z</time>
      </trkpt>
      <trkpt lat="43.35102" lon="1.81982">
        <ele>190.019</ele>
        <time>2016-12-30T11:26:22Z</time>
      </trkpt>
      <trkpt lat="43.35135" lon="1.81943">
        <ele>191.01</ele>
        <time>2016-12-30T11:26:42Z</time>
      </trkpt>
      <trkpt lat="43.35247" lon="1.81932">
        <ele>191.081</ele>
        <time>2016-12-30T11:27:02Z</time>
      </trkpt>
      <trkpt lat="43.35354" lon="1.8202">
        <ele>191.061</ele>
        <time>2016-12-30T11:27:22Z</time>
      </trkpt>
      <trkpt lat="43.35409" lon="1.81951">
        <ele>191.917</ele>
        <time>2016-12-30T11:27:42Z</time>
      </trkpt>
      <trkpt lat="43.35446" lon="1.81929">
        <ele>192.008</ele>
        <time>2016-12-30T11:28:02Z</time>
      </trkpt>
      <trkpt lat="43.35513" lon="1.81859">
        <ele>191.085</ele>
        <time>2016-12-30T11:28:22Z</time>
      </trkpt>
      <trkpt lat="43.35572" lon="1.81803">
        <ele>190.448</ele>
        <time>2016-12-30T11:28:42Z</time>
      </trkpt>
      <trkpt lat="43.35647" lon="1.81709">
        <ele>189.474</ele>
        <time>2016-12-30T11:29:02Z</time>
      </trkpt>
      <trkpt lat="43.35684" lon="1.81638">
        <ele>189.023</ele>
        <time>2016-12-30T11:29:22Z</time>
      </trkpt>
      <trkpt lat="43.3582" lon="1.8175">
        <ele>191.54</ele>
        <time>2016-12-30T11:29:42Z</time>
      </trkpt>
      <trkpt lat="43.35815" lon="1.8177">
        <ele>191.311</ele>
        <time>2016-12-30T11:30:02Z</time>
      </trkpt>
      <trkpt lat="43.3599" lon="1.81824">
        <ele>202.59</ele>
        <time>2016-12-30T11:30:22Z</time>
      </trkpt>
      <trkpt lat="43.36183" lon="1.81979">
        <ele>218.431</ele>
        <time>2016-12-30T11:30:42Z</time>
      </trkpt>
      <trkpt lat="43.363" lon="1.82005">
        <ele>236.111</ele>
        <time>2016-12-30T11:31:02Z</time>
      </trkpt>
      <trkpt lat="43.36387" lon="1.81973">
        <ele>254.821</ele>
        <time>2021-04-17T13:36:50Z</time>
      </trkpt>
      <trkpt lat="43.36412" lon="1.81878">
        <ele>262.003</ele>
        <time>2016-12-30T11:31:42Z</time>
      </trkpt>
      <trkpt lat="43.36429" lon="1.81841">
        <ele>260.808</ele>
        <time>2021-04-17T13:37:30Z</time>
      </trkpt>
      <trkpt lat="43.36453" lon="1.81822">
        <ele>268.838</ele>
        <time>2016-12-30T11:32:02Z</time>
      </trkpt>
      <trkpt lat="43.36473" lon="1.8181">
        <ele>274.871</ele>
        <time>2016-12-30T11:32:22Z</time>
      </trkpt>
      <trkpt lat="43.36501" lon="1.81762">
        <ele>272.017</ele>
        <time>2021-04-17T13:38:30Z</time>
      </trkpt>
      <trkpt lat="43.36522" lon="1.81742">
        <ele>270.766</ele>
        <time>2021-04-17T13:38:50Z</time>
      </trkpt>
      <trkpt lat="43.36531" lon="1.81744">
        <ele>271.133</ele>
        <time>2021-04-17T13:39:10Z</time>
      </trkpt>
      <trkpt lat="43.36513" lon="1.81766">
        <ele>272.314</ele>
        <time>2021-04-17T13:39:30Z</time>
      </trkpt>
      <trkpt lat="43.36482" lon="1.8189">
        <ele>277.973</ele>
        <time>2021-04-17T13:39:50Z</time>
      </trkpt>
      <trkpt lat="43.3649" lon="1.81916">
        <ele>281.694</ele>
        <time>2021-04-17T13:40:10Z</time>
      </trkpt>
      <trkpt lat="43.36466" lon="1.81938">
        <ele>274.569</ele>
        <time>2021-04-17T13:40:30Z</time>
      </trkpt>
      <trkpt lat="43.36447" lon="1.81937">
        <ele>270.804</ele>
        <time>2021-04-17T13:40:50Z</time>
      </trkpt>
      <trkpt lat="43.36445" lon="1.81966">
        <ele>268.724</ele>
        <time>2021-04-17T13:41:10Z</time>
      </trkpt>
      <trkpt lat="43.36477" lon="1.8199">
        <ele>272.008</ele>
        <time>2021-04-17T13:41:30Z</time>
      </trkpt>
      <trkpt lat="43.36526" lon="1.81941">
        <ele>275.853</ele>
        <time>2021-04-17T13:41:50Z</time>
      </trkpt>
      <trkpt lat="43.36572" lon="1.81863">
        <ele>273.026</ele>
        <time>2021-04-17T13:42:10Z</time>
      </trkpt>
      <trkpt lat="43.36585" lon="1.81808">
        <ele>273.012</ele>
        <time>2021-04-17T13:42:30Z</time>
      </trkpt>
      <trkpt lat="43.36583" lon="1.81746">
        <ele>272.091</ele>
        <time>2021-04-17T13:42:50Z</time>
      </trkpt>
      <trkpt lat="43.36593" lon="1.81718">
        <ele>269.378</ele>
        <time>2021-04-17T13:43:10Z</time>
      </trkpt>
      <trkpt lat="43.366" lon="1.81715">
        <ele>267.399</ele>
        <time>2021-04-17T13:43:30Z</time>
      </trkpt>
      <trkpt lat="43.36615" lon="1.81626">
        <ele>264.948</ele>
        <time>2021-04-17T13:43:50Z</time>
      </trkpt>
      <trkpt lat="43.36658" lon="1.81526">
        <ele>268.119</ele>
        <time>2016-12-30T11:36:02Z</time>
      </trkpt>
      <trkpt lat="43.36712" lon="1.81457">
        <ele>264.074</ele>
        <time>2016-12-30T11:36:22Z</time>
      </trkpt>
      <trkpt lat="43.36776" lon="1.81323">
        <ele>263.756</ele>
        <time>2016-12-30T11:36:42Z</time>
      </trkpt>
      <trkpt lat="43.36821" lon="1.81207">
        <ele>257.821</ele>
        <time>2016-12-30T11:37:02Z</time>
      </trkpt>
      <trkpt lat="43.36828" lon="1.81164">
        <ele>246.108</ele>
        <time>2021-04-17T13:45:30Z</time>
      </trkpt>
      <trkpt lat="43.36871" lon="1.81091">
        <ele>239.324</ele>
        <time>2021-04-17T13:45:50Z</time>
      </trkpt>
      <trkpt lat="43.36899" lon="1.80997">
        <ele>233.937</ele>
        <time>2021-04-17T13:46:10Z</time>
      </trkpt>
      <trkpt lat="43.36924" lon="1.80859">
        <ele>226.163</ele>
        <time>2016-12-30T11:38:02Z</time>
      </trkpt>
      <trkpt lat="43.36961" lon="1.80736">
        <ele>212.472</ele>
        <time>2016-12-30T11:38:22Z</time>
      </trkpt>
      <trkpt lat="43.3698" lon="1.80651">
        <ele>205.029</ele>
        <time>2016-12-30T11:38:42Z</time>
      </trkpt>
      <trkpt lat="43.37042" lon="1.80623">
        <ele>208.35</ele>
        <time>2016-12-30T11:39:02Z</time>
      </trkpt>
      <trkpt lat="43.37024" lon="1.80552">
        <ele>207.759</ele>
        <time>2016-12-30T11:39:22Z</time>
      </trkpt>
      <trkpt lat="43.37019" lon="1.80449">
        <ele>209.48</ele>
        <time>2016-12-30T11:39:42Z</time>
      </trkpt>
      <trkpt lat="43.3686" lon="1.80265">
        <ele>210.372</ele>
        <time>2016-12-30T11:40:02Z</time>
      </trkpt>
      <trkpt lat="43.3676" lon="1.80256">
        <ele>205.713</ele>
        <time>2016-12-30T11:40:22Z</time>
      </trkpt>
      <trkpt lat="43.36731" lon="1.80219">
        <ele>206.914</ele>
        <time>2016-12-30T11:40:42Z</time>
      </trkpt>
      <trkpt lat="43.36676" lon="1.8011">
        <ele>204.708</ele>
        <time>2016-12-30T11:41:02Z</time>
      </trkpt>
      <trkpt lat="43.36626" lon="1.79947">
        <ele>205.674</ele>
        <time>2016-12-30T11:41:22Z</time>
      </trkpt>
      <trkpt lat="43.36573" lon="1.7986">
        <ele>201.677</ele>
        <time>2016-12-30T11:41:42Z</time>
      </trkpt>
      <trkpt lat="43.36519" lon="1.79749">
        <ele>203.983</ele>
        <time>2016-12-30T11:42:02Z</time>
      </trkpt>
      <trkpt lat="43.36425" lon="1.79691">
        <ele>203.782</ele>
        <time>2016-12-30T11:42:22Z</time>
      </trkpt>
      <trkpt lat="43.36413" lon="1.79618">
        <ele>205.319</ele>
        <time>2016-12-30T11:42:42Z</time>
      </trkpt>
      <trkpt lat="43.36454" lon="1.79407">
        <ele>209.14</ele>
        <time>2016-12-30T11:43:02Z</time>
      </trkpt>
      <trkpt lat="43.36456" lon="1.7931">
        <ele>202.139</ele>
        <time>2016-12-30T11:43:22Z</time>
      </trkpt>
      <trkpt lat="43.36489" lon="1.79213">
        <ele>201.04</ele>
        <time>2016-12-30T11:43:42Z</time>
      </trkpt>
      <trkpt lat="43.36554" lon="1.79162">
        <ele>200.089</ele>
        <time>2016-12-30T11:44:02Z</time>
      </trkpt>
      <trkpt lat="43.36575" lon="1.79124">
        <ele>200.006</ele>
        <time>2016-12-30T11:44:22Z</time>
      </trkpt>
      <trkpt lat="43.36668" lon="1.79042">
        <ele>207.126</ele>
        <time>2016-12-30T11:44:42Z</time>
      </trkpt>
      <trkpt lat="43.3672" lon="1.79072">
        <ele>204.808</ele>
        <time>2016-12-30T11:45:02Z</time>
      </trkpt>
      <trkpt lat="43.36727" lon="1.79106">
        <ele>203.295</ele>
        <time>2016-12-30T11:45:22Z</time>
      </trkpt>
      <trkpt lat="43.36744" lon="1.79123">
        <ele>205.428</ele>
        <time>2016-12-30T11:45:42Z</time>
      </trkpt>
      <trkpt lat="43.36773" lon="1.79134">
        <ele>207.464</ele>
        <time>2016-12-30T11:46:02Z</time>
      </trkpt>
      <trkpt lat="43.36792" lon="1.79176">
        <ele>211.333</ele>
        <time>2016-12-30T11:46:22Z</time>
      </trkpt>
      <trkpt lat="43.36853" lon="1.79205">
        <ele>214.17</ele>
        <time>2016-12-30T11:46:42Z</time>
      </trkpt>
      <trkpt lat="43.36903" lon="1.79305">
        <ele>216.031</ele>
        <time>2016-12-30T11:47:02Z</time>
      </trkpt>
      <trkpt lat="43.36966" lon="1.79389">
        <ele>220.03</ele>
        <time>2016-12-30T11:47:22Z</time>
      </trkpt>
      <trkpt lat="43.37007" lon="1.79415">
        <ele>220.851</ele>
        <time>2016-12-30T11:47:42Z</time>
      </trkpt>
      <trkpt lat="43.37187" lon="1.79419">
        <ele>233.188</ele>
        <time>2016-12-30T11:48:02Z</time>
      </trkpt>
      <trkpt lat="43.37281" lon="1.79411">
        <ele>245.924</ele>
        <time>2016-12-30T11:48:22Z</time>
      </trkpt>
      <trkpt lat="43.37297" lon="1.79399">
        <ele>247.926</ele>
        <time>2016-12-30T11:48:42Z</time>
      </trkpt>
      <trkpt lat="43.37357" lon="1.79397">
        <ele>246.808</ele>
        <time>2016-12-30T11:49:02Z</time>
      </trkpt>
      <trkpt lat="43.37411" lon="1.79445">
        <ele>249.185</ele>
        <time>2016-12-30T11:49:22Z</time>
      </trkpt>
      <trkpt lat="43.37495" lon="1.79467">
        <ele>248.068</ele>
        <time>2016-12-30T11:49:42Z</time>
      </trkpt>
      <trkpt lat="43.37587" lon="1.79437">
        <ele>253.774</ele>
        <time>2016-12-30T11:50:02Z</time>
      </trkpt>
      <trkpt lat="43.37637" lon="1.79412">
        <ele>254.683</ele>
        <time>2016-12-30T11:50:22Z</time>
      </trkpt>
      <trkpt lat="43.37753" lon="1.79394">
        <ele>258.11</ele>
        <time>2016-12-30T11:50:42Z</time>
      </trkpt>
      <trkpt lat="43.37802" lon="1.79278">
        <ele>251.021</ele>
        <time>2016-12-30T11:51:02Z</time>
      </trkpt>
      <trkpt lat="43.37858" lon="1.79171">
        <ele>242.35</ele>
        <time>2016-12-30T11:51:22Z</time>
      </trkpt>
      <trkpt lat="43.3791" lon="1.79104">
        <ele>236.761</ele>
        <time>2016-12-30T11:51:42Z</time>
      </trkpt>
      <trkpt lat="43.37954" lon="1.78885">
        <ele>230.625</ele>
        <time>2016-12-30T11:52:02Z</time>
      </trkpt>
      <trkpt lat="43.38068" lon="1.78501">
        <ele>217.626</ele>
        <time>2016-12-30T11:52:22Z</time>
      </trkpt>
      <trkpt lat="43.38132" lon="1.78391">
        <ele>213.308</ele>
        <time>2016-12-30T11:52:42Z</time>
      </trkpt>
      <trkpt lat="43.38203" lon="1.78159">
        <ele>205.408</ele>
        <time>2016-12-30T11:53:02Z</time>
      </trkpt>
      <trkpt lat="43.38089" lon="1.78137">
        <ele>201.389</ele>
        <time>2016-12-30T11:53:22Z</time>
      </trkpt>
      <trkpt lat="43.38057" lon="1.78087">
        <ele>199.032</ele>
        <time>2016-12-30T11:53:42Z</time>
      </trkpt>
      <trkpt lat="43.38004" lon="1.78025">
        <ele>200.788</ele>
        <time>2016-12-30T11:54:02Z</time>
      </trkpt>
      <trkpt lat="43.37907" lon="1.77915">
        <ele>205.747</ele>
        <time>2016-12-30T11:54:22Z</time>
      </trkpt>
      <trkpt lat="43.37995" lon="1.77617">
        <ele>191.364</ele>
        <time>2021-04-17T14:03:10Z</time>
      </trkpt>
      <trkpt lat="43.38063" lon="1.77646">
        <ele>191.335</ele>
        <time>2021-04-17T14:03:30Z</time>
      </trkpt>
      <trkpt lat="43.38049" lon="1.77629">
        <ele>191.384</ele>
        <time>2021-04-17T14:03:50Z</time>
      </trkpt>
      <trkpt lat="43.38065" lon="1.77574">
        <ele>190.865</ele>
        <time>2021-04-17T14:04:10Z</time>
      </trkpt>
      <trkpt lat="43.38192" lon="1.77493">
        <ele>196.815</ele>
        <time>2021-04-17T14:04:30Z</time>
      </trkpt>
      <trkpt lat="43.3831" lon="1.77427">
        <ele>206.865</ele>
        <time>2021-04-17T14:04:50Z</time>
      </trkpt>
      <trkpt lat="43.38406" lon="1.77384">
        <ele>216.011</ele>
        <time>2021-04-17T14:05:10Z</time>
      </trkpt>
      <trkpt lat="43.38492" lon="1.77314">
        <ele>225.408</ele>
        <time>2021-04-17T14:05:30Z</time>
      </trkpt>
      <trkpt lat="43.38538" lon="1.77273">
        <ele>228.628</ele>
        <time>2021-04-17T14:05:50Z</time>
      </trkpt>
      <trkpt lat="43.38605" lon="1.77239">
        <ele>234.821</ele>
        <time>2021-04-17T14:06:10Z</time>
      </trkpt>
      <trkpt lat="43.38655" lon="1.77207">
        <ele>239.377</ele>
        <time>2021-04-17T14:06:30Z</time>
      </trkpt>
      <trkpt lat="43.38722" lon="1.77151">
        <ele>244.676</ele>
        <time>2021-04-17T14:06:50Z</time>
      </trkpt>
      <trkpt lat="43.38746" lon="1.77132">
        <ele>248.853</ele>
        <time>2021-04-17T14:07:10Z</time>
      </trkpt>
      <trkpt lat="43.38796" lon="1.77118">
        <ele>251.964</ele>
        <time>2021-04-17T14:07:30Z</time>
      </trkpt>
      <trkpt lat="43.38768" lon="1.77042">
        <ele>254.873</ele>
        <time>2021-04-17T14:07:50Z</time>
      </trkpt>
      <trkpt lat="43.38727" lon="1.76886">
        <ele>254.744</ele>
        <time>2021-04-17T14:08:10Z</time>
      </trkpt>
      <trkpt lat="43.38709" lon="1.76858">
        <ele>253.761</ele>
        <time>2021-04-17T14:08:30Z</time>
      </trkpt>
      <trkpt lat="43.3864" lon="1.76782">
        <ele>250.221</ele>
        <time>2021-04-17T14:08:50Z</time>
      </trkpt>
      <trkpt lat="43.38564" lon="1.76759">
        <ele>249.313</ele>
        <time>2016-12-30T11:59:02Z</time>
      </trkpt>
      <trkpt lat="43.38585" lon="1.7665">
        <ele>250.008</ele>
        <time>2016-12-30T11:59:22Z</time>
      </trkpt>
      <trkpt lat="43.38672" lon="1.76514">
        <ele>249.193</ele>
        <time>2016-12-30T11:59:42Z</time>
      </trkpt>
      <trkpt lat="43.38775" lon="1.76308">
        <ele>236.316</ele>
        <time>2016-12-30T12:00:02Z</time>
      </trkpt>
      <trkpt lat="43.38811" lon="1.76207">
        <ele>229.182</ele>
        <time>2016-12-30T12:00:22Z</time>
      </trkpt>
      <trkpt lat="43.38926" lon="1.76164">
        <ele>231.141</ele>
        <time>2016-12-30T12:00:42Z</time>
      </trkpt>
      <trkpt lat="43.38986" lon="1.76176">
        <ele>228.588</ele>
        <time>2016-12-30T12:01:02Z</time>
      </trkpt>
      <trkpt lat="43.39079" lon="1.76209">
        <ele>237.169</ele>
        <time>2016-12-30T12:01:22Z</time>
      </trkpt>
      <trkpt lat="43.39159" lon="1.75958">
        <ele>234.688</ele>
        <time>2016-12-30T12:01:42Z</time>
      </trkpt>
      <trkpt lat="43.39193" lon="1.75767">
        <ele>230.829</ele>
        <time>2016-12-30T12:02:02Z</time>
      </trkpt>
      <trkpt lat="43.39186" lon="1.75747">
        <ele>230.883</ele>
        <time>2016-12-30T12:02:22Z</time>
      </trkpt>
      <trkpt lat="43.39265" lon="1.75532">
        <ele>215.725</ele>
        <time>2016-12-30T12:02:42Z</time>
      </trkpt>
      <trkpt lat="43.393" lon="1.75361">
        <ele>202.617</ele>
        <time>2016-12-30T12:03:02Z</time>
      </trkpt>
      <trkpt lat="43.39369" lon="1.75309">
        <ele>194.308</ele>
        <time>2016-12-30T12:03:22Z</time>
      </trkpt>
      <trkpt lat="43.39417" lon="1.75289">
        <ele>190.465</ele>
        <time>2016-12-30T12:03:42Z</time>
      </trkpt>
      <trkpt lat="43.39414" lon="1.75206">
        <ele>190.048</ele>
        <time>2016-12-30T12:04:02Z</time>
      </trkpt>
      <trkpt lat="43.39516" lon="1.75179">
        <ele>192.564</ele>
        <time>2016-12-30T12:04:22Z</time>
      </trkpt>
      <trkpt lat="43.39529" lon="1.75257">
        <ele>192.913</ele>
        <time>2016-12-30T12:04:42Z</time>
      </trkpt>
      <trkpt lat="43.3956" lon="1.75335">
        <ele>195.36</ele>
        <time>2016-12-30T12:05:02Z</time>
      </trkpt>
      <trkpt lat="43.39705" lon="1.75382">
        <ele>209.681</ele>
        <time>2016-12-30T12:05:22Z</time>
      </trkpt>
      <trkpt lat="43.39783" lon="1.75438">
        <ele>222.71</ele>
        <time>2016-12-30T12:05:42Z</time>
      </trkpt>
      <trkpt lat="43.40036" lon="1.7552">
        <ele>237.641</ele>
        <time>2016-12-30T12:06:02Z</time>
      </trkpt>
      <trkpt lat="43.40155" lon="1.75125">
        <ele>231.463</ele>
        <time>2021-04-17T14:16:30Z</time>
      </trkpt>
      <trkpt lat="43.40208" lon="1.74859">
        <ele>246.844</ele>
        <time>2016-12-30T12:06:42Z</time>
      </trkpt>
      <trkpt lat="43.40152" lon="1.74812">
        <ele>252.618</ele>
        <time>2016-12-30T12:07:02Z</time>
      </trkpt>
      <trkpt lat="43.40116" lon="1.74704">
        <ele>251.308</ele>
        <time>2016-12-30T12:07:22Z</time>
      </trkpt>
      <trkpt lat="43.4016" lon="1.74471">
        <ele>249.133</ele>
        <time>2016-12-30T12:07:42Z</time>
      </trkpt>
      <trkpt lat="43.40162" lon="1.74402">
        <ele>247.486</ele>
        <time>2016-12-30T12:08:02Z</time>
      </trkpt>
      <trkpt lat="43.40265" lon="1.73512">
        <ele>215.482</ele>
        <time>2016-12-30T12:08:22Z</time>
      </trkpt>
      <trkpt lat="43.40146" lon="1.73485">
        <ele>209.651</ele>
        <time>2016-12-30T12:08:42Z</time>
      </trkpt>
      <trkpt lat="43.40155" lon="1.73307">
        <ele>208.848</ele>
        <time>2016-12-30T12:09:02Z</time>
      </trkpt>
      <trkpt lat="43.40149" lon="1.73137">
        <ele>210.239</ele>
        <time>2016-12-30T12:09:22Z</time>
      </trkpt>
      <trkpt lat="43.40141" lon="1.73111">
        <ele>209.918</ele>
        <time>2016-12-30T12:09:42Z</time>
      </trkpt>
      <trkpt lat="43.40208" lon="1.72823">
        <ele>193.029</ele>
        <time>2016-12-30T12:10:02Z</time>
      </trkpt>
      <trkpt lat="43.40155" lon="1.72719">
        <ele>190.654</ele>
        <time>2016-12-30T12:10:22Z</time>
      </trkpt>
      <trkpt lat="43.40127" lon="1.72621">
        <ele>190.056</ele>
        <time>2016-12-30T12:10:42Z</time>
      </trkpt>
      <trkpt lat="43.40085" lon="1.7254">
        <ele>188.211</ele>
        <time>2016-12-30T12:11:02Z</time>
      </trkpt>
      <trkpt lat="43.40054" lon="1.72416">
        <ele>185.008</ele>
        <time>2016-12-30T12:11:22Z</time>
      </trkpt>
      <trkpt lat="43.40011" lon="1.72349">
        <ele>185.232</ele>
        <time>2016-12-30T12:11:42Z</time>
      </trkpt>
      <trkpt lat="43.39993" lon="1.72292">
        <ele>185.275</ele>
        <time>2016-12-30T12:12:02Z</time>
      </trkpt>
      <trkpt lat="43.39927" lon="1.72157">
        <ele>180.531</ele>
        <time>2016-12-30T12:12:22Z</time>
      </trkpt>
      <trkpt lat="43.39886" lon="1.71983">
        <ele>179.03</ele>
        <time>2016-12-30T12:12:42Z</time>
      </trkpt>
      <trkpt lat="43.39828" lon="1.7193">
        <ele>178.067</ele>
        <time>2016-12-30T12:13:02Z</time>
      </trkpt>
      <trkpt lat="43.39931" lon="1.71816">
        <ele>183.038</ele>
        <time>2021-04-17T14:23:30Z</time>
      </trkpt>
      <trkpt lat="43.39911" lon="1.71781">
        <ele>183.067</ele>
        <time>2021-04-17T14:23:50Z</time>
      </trkpt>
      <trkpt lat="43.40016" lon="1.7167">
        <ele>182.088</ele>
        <time>2021-04-17T14:24:10Z</time>
      </trkpt>
      <trkpt lat="43.40038" lon="1.71699">
        <ele>179.019</ele>
        <time>2016-12-30T12:13:22Z</time>
      </trkpt>
      <trkpt lat="43.40456" lon="1.72046">
        <ele>190.409</ele>
        <time>2016-12-30T12:13:42Z</time>
      </trkpt>
      <trkpt lat="43.40569" lon="1.72071">
        <ele>181.319</ele>
        <time>2016-12-30T12:14:02Z</time>
      </trkpt>
      <trkpt lat="43.40587" lon="1.72036">
        <ele>179.608</ele>
        <time>2016-12-30T12:14:22Z</time>
      </trkpt>
      <trkpt lat="43.4086" lon="1.72164">
        <ele>191.918</ele>
        <time>2016-12-30T12:14:42Z</time>
      </trkpt>
      <trkpt lat="43.409" lon="1.71962">
        <ele>182.961</ele>
        <time>2016-12-30T12:15:02Z</time>
      </trkpt>
      <trkpt lat="43.41059" lon="1.71998">
        <ele>182.227</ele>
        <time>2016-12-30T12:15:22Z</time>
      </trkpt>
      <trkpt lat="43.41074" lon="1.71948">
        <ele>180.296</ele>
        <time>2016-12-30T12:15:42Z</time>
      </trkpt>
      <trkpt lat="43.41162" lon="1.72005">
        <ele>185.223</ele>
        <time>2016-12-30T12:16:02Z</time>
      </trkpt>
      <trkpt lat="43.41178" lon="1.71962">
        <ele>183.614</ele>
        <time>2016-12-30T12:16:22Z</time>
      </trkpt>
      <trkpt lat="43.41185" lon="1.71882">
        <ele>180.013</ele>
        <time>2016-12-30T12:16:42Z</time>
      </trkpt>
      <trkpt lat="43.41167" lon="1.71859">
        <ele>180.084</ele>
        <time>2016-12-30T12:17:02Z</time>
      </trkpt>
      <trkpt lat="43.41159" lon="1.71831">
        <ele>180.352</ele>
        <time>2016-12-30T12:17:22Z</time>
      </trkpt>
      <trkpt lat="43.41183" lon="1.71798">
        <ele>186.353</ele>
        <time>2016-12-30T12:17:42Z</time>
      </trkpt>
      <trkpt lat="43.4119" lon="1.71685">
        <ele>205.808</ele>
        <time>2016-12-30T12:18:02Z</time>
      </trkpt>
      <trkpt lat="43.41118" lon="1.71634">
        <ele>205.008</ele>
        <time>2016-12-30T12:18:22Z</time>
      </trkpt>
      <trkpt lat="43.41314" lon="1.71577">
        <ele>210.062</ele>
        <time>2016-12-30T12:18:42Z</time>
      </trkpt>
      <trkpt lat="43.4141" lon="1.71586">
        <ele>209.875</ele>
        <time>2016-12-30T12:19:02Z</time>
      </trkpt>
      <trkpt lat="43.4147" lon="1.71434">
        <ele>206.681</ele>
        <time>2016-12-30T12:19:22Z</time>
      </trkpt>
      <trkpt lat="43.41524" lon="1.71331">
        <ele>201.67</ele>
        <time>2016-12-30T12:19:42Z</time>
      </trkpt>
      <trkpt lat="43.41555" lon="1.71237">
        <ele>197.597</ele>
        <time>2016-12-30T12:20:02Z</time>
      </trkpt>
      <trkpt lat="43.41602" lon="1.71205">
        <ele>198.178</ele>
        <time>2016-12-30T12:20:22Z</time>
      </trkpt>
      <trkpt lat="43.4162" lon="1.71016">
        <ele>190.697</ele>
        <time>2016-12-30T12:20:42Z</time>
      </trkpt>
      <trkpt lat="43.41633" lon="1.70993">
        <ele>189.738</ele>
        <time>2016-12-30T12:21:02Z</time>
      </trkpt>
      <trkpt lat="43.41733" lon="1.7105">
        <ele>189.213</ele>
        <time>2016-12-30T12:21:22Z</time>
      </trkpt>
      <trkpt lat="43.41866" lon="1.71152">
        <ele>192.643</ele>
        <time>2016-12-30T12:21:42Z</time>
      </trkpt>
      <trkpt lat="43.41949" lon="1.71166">
        <ele>189.307</ele>
        <time>2016-12-30T12:22:02Z</time>
      </trkpt>
      <trkpt lat="43.42075" lon="1.71263">
        <ele>199.508</ele>
        <time>2016-12-30T12:22:22Z</time>
      </trkpt>
      <trkpt lat="43.42159" lon="1.7137">
        <ele>201.878</ele>
        <time>2016-12-30T12:22:42Z</time>
      </trkpt>
      <trkpt lat="43.42169" lon="1.71451">
        <ele>203.251</ele>
        <time>2016-12-30T12:23:02Z</time>
      </trkpt>
      <trkpt lat="43.42116" lon="1.71572">
        <ele>206.617</ele>
        <time>2016-12-30T12:23:22Z</time>
      </trkpt>
      <trkpt lat="43.42205" lon="1.71661">
        <ele>205.516</ele>
        <time>2016-12-30T12:23:42Z</time>
      </trkpt>
      <trkpt lat="43.42249" lon="1.71573">
        <ele>201.183</ele>
        <time>2016-12-30T12:24:02Z</time>
      </trkpt>
      <trkpt lat="43.4235" lon="1.71475">
        <ele>195.484</ele>
        <time>2016-12-30T12:26:02Z</time>
      </trkpt>
      <trkpt lat="43.424" lon="1.71268">
        <ele>194.233</ele>
        <time>2016-12-30T12:26:22Z</time>
      </trkpt>
      <trkpt lat="43.42445" lon="1.71076">
        <ele>189.034</ele>
        <time>2016-12-30T12:26:42Z</time>
      </trkpt>
      <trkpt lat="43.42536" lon="1.7082">
        <ele>185.447</ele>
        <time>2016-12-30T12:28:02Z</time>
      </trkpt>
      <trkpt lat="43.42742" lon="1.70379">
        <ele>175.029</ele>
        <time>2016-12-30T12:28:22Z</time>
      </trkpt>
      <trkpt lat="43.42794" lon="1.70334">
        <ele>185.321</ele>
        <time>2016-12-30T12:28:42Z</time>
      </trkpt>
      <trkpt lat="43.42847" lon="1.70252">
        <ele>201.308</ele>
        <time>2016-12-30T12:29:02Z</time>
      </trkpt>
      <trkpt lat="43.42978" lon="1.70213">
        <ele>219.711</ele>
        <time>2016-12-30T12:29:22Z</time>
      </trkpt>
      <trkpt lat="43.43061" lon="1.70075">
        <ele>230.174</ele>
        <time>2016-12-30T12:29:42Z</time>
      </trkpt>
      <trkpt lat="43.43074" lon="1.70007">
        <ele>236.58</ele>
        <time>2016-12-30T12:30:02Z</time>
      </trkpt>
      <trkpt lat="43.43039" lon="1.69993">
        <ele>236.979</ele>
        <time>2016-12-30T12:30:22Z</time>
      </trkpt>
      <trkpt lat="43.43069" lon="1.69886">
        <ele>240.036</ele>
        <time>2016-12-30T12:30:42Z</time>
      </trkpt>
      <trkpt lat="43.43119" lon="1.69806">
        <ele>243.627</ele>
        <time>2016-12-30T12:31:02Z</time>
      </trkpt>
      <trkpt lat="43.4315" lon="1.69733">
        <ele>243.216</ele>
        <time>2016-12-30T12:31:22Z</time>
      </trkpt>
      <trkpt lat="43.43166" lon="1.69718">
        <ele>243.737</ele>
        <time>2016-12-30T12:31:42Z</time>
      </trkpt>
      <trkpt lat="43.43171" lon="1.69669">
        <ele>241.278</ele>
        <time>2016-12-30T12:32:02Z</time>
      </trkpt>
      <trkpt lat="43.43161" lon="1.69646">
        <ele>238.833</ele>
        <time>2016-12-30T12:32:22Z</time>
      </trkpt>
      <trkpt lat="43.43162" lon="1.6955">
        <ele>236.126</ele>
        <time>2016-12-30T12:32:42Z</time>
      </trkpt>
      <trkpt lat="43.43229" lon="1.69579">
        <ele>238.808</ele>
        <time>2016-12-30T12:33:02Z</time>
      </trkpt>
      <trkpt lat="43.43325" lon="1.69444">
        <ele>228.624</ele>
        <time>2016-12-30T12:33:22Z</time>
      </trkpt>
      <trkpt lat="43.43402" lon="1.69228">
        <ele>217.217</ele>
        <time>2016-12-30T12:33:42Z</time>
      </trkpt>
      <trkpt lat="43.43436" lon="1.69221">
        <ele>217.673</ele>
        <time>2016-12-30T12:34:02Z</time>
      </trkpt>
      <trkpt lat="43.43605" lon="1.68986">
        <ele>212.822</ele>
        <time>2016-12-30T12:34:22Z</time>
      </trkpt>
      <trkpt lat="43.43769" lon="1.68931">
        <ele>208.319</ele>
        <time>2016-12-30T12:34:42Z</time>
      </trkpt>
      <trkpt lat="43.43822" lon="1.6894">
        <ele>204.43</ele>
        <time>2016-12-30T12:35:02Z</time>
      </trkpt>
      <trkpt lat="43.43882" lon="1.68905">
        <ele>207.799</ele>
        <time>2016-12-30T12:35:22Z</time>
      </trkpt>
      <trkpt lat="43.4393" lon="1.68843">
        <ele>215.96</ele>
        <time>2016-12-30T12:35:42Z</time>
      </trkpt>
      <trkpt lat="43.44058" lon="1.68551">
        <ele>226.994</ele>
        <time>2016-12-30T12:36:02Z</time>
      </trkpt>
      <trkpt lat="43.44068" lon="1.6849">
        <ele>225.557</ele>
        <time>2016-12-30T12:36:22Z</time>
      </trkpt>
      <trkpt lat="43.44101" lon="1.68454">
        <ele>225.822</ele>
        <time>2016-12-30T12:36:42Z</time>
      </trkpt>
      <trkpt lat="43.44159" lon="1.68246">
        <ele>219.808</ele>
        <time>2016-12-30T12:37:02Z</time>
      </trkpt>
      <trkpt lat="43.44253" lon="1.67818">
        <ele>204.056</ele>
        <time>2016-12-30T12:37:22Z</time>
      </trkpt>
      <trkpt lat="43.44156" lon="1.67764">
        <ele>200.539</ele>
        <time>2016-12-30T12:37:42Z</time>
      </trkpt>
      <trkpt lat="43.44099" lon="1.67743">
        <ele>196.575</ele>
        <time>2016-12-30T12:38:02Z</time>
      </trkpt>
      <trkpt lat="43.44022" lon="1.67674">
        <ele>194.094</ele>
        <time>2016-12-30T12:38:22Z</time>
      </trkpt>
      <trkpt lat="43.43972" lon="1.67611">
        <ele>194.071</ele>
        <time>2016-12-30T12:39:22Z</time>
      </trkpt>
      <trkpt lat="43.44016" lon="1.67453">
        <ele>193.712</ele>
        <time>2016-12-30T12:39:42Z</time>
      </trkpt>
      <trkpt lat="43.44018" lon="1.67361">
        <ele>192.031</ele>
        <time>2016-12-30T12:40:42Z</time>
      </trkpt>
      <trkpt lat="43.44" lon="1.6727">
        <ele>192.072</ele>
        <time>2016-12-30T12:41:22Z</time>
      </trkpt>
      <trkpt lat="43.43969" lon="1.67207">
        <ele>192.417</ele>
        <time>2016-12-30T12:41:42Z</time>
      </trkpt>
      <trkpt lat="43.43986" lon="1.67073">
        <ele>189.587</ele>
        <time>2016-12-30T12:42:02Z</time>
      </trkpt>
      <trkpt lat="43.44064" lon="1.6689">
        <ele>185.015</ele>
        <time>2016-12-30T12:42:42Z</time>
      </trkpt>
      <trkpt lat="43.44111" lon="1.66823">
        <ele>183.008</ele>
        <time>2016-12-30T12:43:02Z</time>
      </trkpt>
      <trkpt lat="43.4413" lon="1.6674">
        <ele>181.328</ele>
        <time>2016-12-30T12:43:22Z</time>
      </trkpt>
      <trkpt lat="43.44144" lon="1.66524">
        <ele>179.571</ele>
        <time>2016-12-30T12:43:42Z</time>
      </trkpt>
      <trkpt lat="43.44109" lon="1.66474">
        <ele>179.167</ele>
        <time>2016-12-30T12:44:02Z</time>
      </trkpt>
      <trkpt lat="43.44107" lon="1.66427">
        <ele>175.716</ele>
        <time>2016-12-30T12:44:22Z</time>
      </trkpt>
      <trkpt lat="43.44121" lon="1.66303">
        <ele>170.243</ele>
        <time>2016-12-30T12:44:42Z</time>
      </trkpt>
      <trkpt lat="43.44151" lon="1.66289">
        <ele>171.944</ele>
        <time>2016-12-30T12:45:02Z</time>
      </trkpt>
      <trkpt lat="43.44234" lon="1.6634">
        <ele>179.373</ele>
        <time>2016-12-30T12:45:22Z</time>
      </trkpt>
      <trkpt lat="43.44273" lon="1.66406">
        <ele>175.364</ele>
        <time>2016-12-30T12:45:42Z</time>
      </trkpt>
      <trkpt lat="43.44302" lon="1.66425">
        <ele>175.066</ele>
        <time>2016-12-30T12:46:02Z</time>
      </trkpt>
      <trkpt lat="43.44365" lon="1.66415">
        <ele>176.229</ele>
        <time>2016-12-30T12:46:22Z</time>
      </trkpt>
      <trkpt lat="43.44395" lon="1.6639">
        <ele>179.621</ele>
        <time>2016-12-30T12:46:42Z</time>
      </trkpt>
      <trkpt lat="43.44425" lon="1.6642">
        <ele>175.008</ele>
        <time>2016-12-30T12:47:02Z</time>
      </trkpt>
      <trkpt lat="43.44449" lon="1.6642">
        <ele>175.143</ele>
        <time>2016-12-30T12:47:22Z</time>
      </trkpt>
      <trkpt lat="43.4446" lon="1.66458">
        <ele>175.266</ele>
        <time>2016-12-30T12:47:42Z</time>
      </trkpt>
      <trkpt lat="43.44487" lon="1.66451">
        <ele>175.432</ele>
        <time>2016-12-30T12:48:02Z</time>
      </trkpt>
      <trkpt lat="43.44504" lon="1.66471">
        <ele>175.291</ele>
        <time>2016-12-30T12:48:22Z</time>
      </trkpt>
      <trkpt lat="43.44523" lon="1.66473">
        <ele>175.888</ele>
        <time>2016-12-30T12:48:42Z</time>
      </trkpt>
      <trkpt lat="43.44538" lon="1.66545">
        <ele>178.549</ele>
        <time>2016-12-30T12:49:02Z</time>
      </trkpt>
      <trkpt lat="43.44558" lon="1.66534">
        <ele>179.178</ele>
        <time>2016-12-30T12:49:22Z</time>
      </trkpt>
      <trkpt lat="43.4464" lon="1.66425">
        <ele>200.519</ele>
        <time>2016-12-30T12:49:42Z</time>
      </trkpt>
      <trkpt lat="43.447" lon="1.66261">
        <ele>227.464</ele>
        <time>2016-12-30T12:50:02Z</time>
      </trkpt>
      <trkpt lat="43.44735" lon="1.66095">
        <ele>227.206</ele>
        <time>2016-12-30T12:50:22Z</time>
      </trkpt>
      <trkpt lat="43.44828" lon="1.66067">
        <ele>227.916</ele>
        <time>2016-12-30T12:50:42Z</time>
      </trkpt>
      <trkpt lat="43.45026" lon="1.66048">
        <ele>236.508</ele>
        <time>2016-12-30T12:51:02Z</time>
      </trkpt>
      <trkpt lat="43.45112" lon="1.66018">
        <ele>240.043</ele>
        <time>2016-12-30T12:51:22Z</time>
      </trkpt>
      <trkpt lat="43.45153" lon="1.65928">
        <ele>237.266</ele>
        <time>2016-12-30T12:51:42Z</time>
      </trkpt>
      <trkpt lat="43.45174" lon="1.65786">
        <ele>233.832</ele>
        <time>2016-12-30T12:52:02Z</time>
      </trkpt>
      <trkpt lat="43.45179" lon="1.65641">
        <ele>230.671</ele>
        <time>2016-12-30T12:52:22Z</time>
      </trkpt>
      <trkpt lat="43.45199" lon="1.65523">
        <ele>228.558</ele>
        <time>2016-12-30T12:52:42Z</time>
      </trkpt>
      <trkpt lat="43.45282" lon="1.65021">
        <ele>224.779</ele>
        <time>2016-12-30T12:53:02Z</time>
      </trkpt>
      <trkpt lat="43.45331" lon="1.64905">
        <ele>223.688</ele>
        <time>2016-12-30T12:53:22Z</time>
      </trkpt>
      <trkpt lat="43.45336" lon="1.64834">
        <ele>222.819</ele>
        <time>2016-12-30T12:53:42Z</time>
      </trkpt>
      <trkpt lat="43.45362" lon="1.64762">
        <ele>220.433</ele>
        <time>2016-12-30T12:54:02Z</time>
      </trkpt>
      <trkpt lat="43.4544" lon="1.64796">
        <ele>217.723</ele>
        <time>2016-12-30T12:54:22Z</time>
      </trkpt>
      <trkpt lat="43.45525" lon="1.64865">
        <ele>205.115</ele>
        <time>2016-12-30T12:54:42Z</time>
      </trkpt>
      <trkpt lat="43.45583" lon="1.64844">
        <ele>200.708</ele>
        <time>2016-12-30T12:55:02Z</time>
      </trkpt>
      <trkpt lat="43.45714" lon="1.64887">
        <ele>193.92</ele>
        <time>2016-12-30T12:55:22Z</time>
      </trkpt>
      <trkpt lat="43.45823" lon="1.6475">
        <ele>198.993</ele>
        <time>2016-12-30T12:55:42Z</time>
      </trkpt>
      <trkpt lat="43.45905" lon="1.64798">
        <ele>207.239</ele>
        <time>2016-12-30T12:56:02Z</time>
      </trkpt>
      <trkpt lat="43.45948" lon="1.64696">
        <ele>202.098</ele>
        <time>2016-12-30T12:56:22Z</time>
      </trkpt>
      <trkpt lat="43.46143" lon="1.64351">
        <ele>184.635</ele>
        <time>2016-12-30T12:56:42Z</time>
      </trkpt>
      <trkpt lat="43.46141" lon="1.64351">
        <ele>184.656</ele>
        <time>2016-12-30T12:57:42Z</time>
      </trkpt>
      <trkpt lat="43.46478" lon="1.64266">
        <ele>178.665</ele>
        <time>2016-12-30T12:58:02Z</time>
      </trkpt>
      <trkpt lat="43.46465" lon="1.64061">
        <ele>179.426</ele>
        <time>2016-12-30T12:59:02Z</time>
      </trkpt>
      <trkpt lat="43.46441" lon="1.63969">
        <ele>179.018</ele>
        <time>2016-12-30T12:59:22Z</time>
      </trkpt>
      <trkpt lat="43.46335" lon="1.63751">
        <ele>178.198</ele>
        <time>2016-12-30T12:59:42Z</time>
      </trkpt>
      <trkpt lat="43.46322" lon="1.63658">
        <ele>179.217</ele>
        <time>2016-12-30T13:00:02Z</time>
      </trkpt>
      <trkpt lat="43.46243" lon="1.63489">
        <ele>175.008</ele>
        <time>2016-12-30T13:00:22Z</time>
      </trkpt>
      <trkpt lat="43.46206" lon="1.63309">
        <ele>174.438</ele>
        <time>2016-12-30T13:00:42Z</time>
      </trkpt>
      <trkpt lat="43.46183" lon="1.6312">
        <ele>173.581</ele>
        <time>2016-12-30T13:01:02Z</time>
      </trkpt>
      <trkpt lat="43.46157" lon="1.62803">
        <ele>174.557</ele>
        <time>2016-12-30T13:01:22Z</time>
      </trkpt>
      <trkpt lat="43.46124" lon="1.62716">
        <ele>174.886</ele>
        <time>2016-12-30T13:01:42Z</time>
      </trkpt>
      <trkpt lat="43.46087" lon="1.62687">
        <ele>175.643</ele>
        <time>2016-12-30T13:02:02Z</time>
      </trkpt>
      <trkpt lat="43.4608" lon="1.62566">
        <ele>188.014</ele>
        <time>2016-12-30T13:02:22Z</time>
      </trkpt>
      <trkpt lat="43.46024" lon="1.6241">
        <ele>201.783</ele>
        <time>2016-12-30T13:02:42Z</time>
      </trkpt>
      <trkpt lat="43.45961" lon="1.62277">
        <ele>211.634</ele>
        <time>2016-12-30T13:03:02Z</time>
      </trkpt>
      <trkpt lat="43.45906" lon="1.62192">
        <ele>206.688</ele>
        <time>2016-12-30T13:03:22Z</time>
      </trkpt>
      <trkpt lat="43.45924" lon="1.62087">
        <ele>205.324</ele>
        <time>2016-12-30T13:03:42Z</time>
      </trkpt>
      <trkpt lat="43.45868" lon="1.6207">
        <ele>204.926</ele>
        <time>2016-12-30T13:04:02Z</time>
      </trkpt>
      <trkpt lat="43.45776" lon="1.61839">
        <ele>185.308</ele>
        <time>2016-12-30T13:04:22Z</time>
      </trkpt>
      <trkpt lat="43.4562" lon="1.616">
        <ele>164.225</ele>
        <time>2016-12-30T13:04:42Z</time>
      </trkpt>
      <trkpt lat="43.45557" lon="1.61537">
        <ele>163.078</ele>
        <time>2016-12-30T13:05:02Z</time>
      </trkpt>
      <trkpt lat="43.45501" lon="1.61511">
        <ele>162.094</ele>
        <time>2016-12-30T13:05:22Z</time>
      </trkpt>
      <trkpt lat="43.45499" lon="1.61387">
        <ele>163.063</ele>
        <time>2021-04-17T15:10:50Z</time>
      </trkpt>
      <trkpt lat="43.45466" lon="1.61372">
        <ele>160.67</ele>
        <time>2016-12-30T13:06:02Z</time>
      </trkpt>
      <trkpt lat="43.45405" lon="1.61338">
        <ele>160.011</ele>
        <time>2021-04-17T15:11:30Z</time>
      </trkpt>
      <trkpt lat="43.45415" lon="1.61328">
        <ele>160.02</ele>
        <time>2021-04-17T15:11:50Z</time>
      </trkpt>
      <trkpt lat="43.45432" lon="1.61324">
        <ele>158.051</ele>
        <time>2016-12-30T13:06:42Z</time>
      </trkpt>
      <trkpt lat="43.45457" lon="1.61275">
        <ele>158.919</ele>
        <time>2016-12-30T13:07:02Z</time>
      </trkpt>
      <trkpt lat="43.45452" lon="1.61123">
        <ele>158.309</ele>
        <time>2016-12-30T13:07:22Z</time>
      </trkpt>
      <trkpt lat="43.45489" lon="1.60924">
        <ele>157.019</ele>
        <time>2016-12-30T13:07:42Z</time>
      </trkpt>
      <trkpt lat="43.45486" lon="1.60869">
        <ele>157.008</ele>
        <time>2016-12-30T13:08:02Z</time>
      </trkpt>
      <trkpt lat="43.45493" lon="1.60822">
        <ele>157.038</ele>
        <time>2016-12-30T13:08:22Z</time>
      </trkpt>
      <trkpt lat="43.454" lon="1.60781">
        <ele>157.031</ele>
        <time>2016-12-30T13:08:42Z</time>
      </trkpt>
      <trkpt lat="43.45655" lon="1.60398">
        <ele>157.087</ele>
        <time>2016-12-30T13:09:02Z</time>
      </trkpt>
      <trkpt lat="43.45631" lon="1.60359">
        <ele>157.046</ele>
        <time>2016-12-30T13:09:42Z</time>
      </trkpt>
      <trkpt lat="43.45647" lon="1.59621">
        <ele>157.053</ele>
        <time>2016-12-30T13:10:02Z</time>
      </trkpt>
      <trkpt lat="43.45621" lon="1.59507">
        <ele>157.024</ele>
        <time>2016-12-30T13:10:22Z</time>
      </trkpt>
      <trkpt lat="43.45646" lon="1.59436">
        <ele>157.033</ele>
        <time>2016-12-30T13:10:42Z</time>
      </trkpt>
      <trkpt lat="43.45631" lon="1.59328">
        <ele>157.044</ele>
        <time>2016-12-30T13:11:02Z</time>
      </trkpt>
      <trkpt lat="43.45571" lon="1.5911">
        <ele>157.025</ele>
        <time>2016-12-30T13:11:22Z</time>
      </trkpt>
      <trkpt lat="43.45584" lon="1.58919">
        <ele>157.026</ele>
        <time>2016-12-30T13:11:42Z</time>
      </trkpt>
      <trkpt lat="43.45585" lon="1.58759">
        <ele>157.008</ele>
        <time>2016-12-30T13:12:02Z</time>
      </trkpt>
      <trkpt lat="43.45564" lon="1.58472">
        <ele>158.708</ele>
        <time>2016-12-30T13:12:22Z</time>
      </trkpt>
      <trkpt lat="43.45567" lon="1.58395">
        <ele>159.049</ele>
        <time>2016-12-30T13:12:42Z</time>
      </trkpt>
      <trkpt lat="43.45589" lon="1.58317">
        <ele>159.062</ele>
        <time>2016-12-30T13:13:02Z</time>
      </trkpt>
      <trkpt lat="43.4564" lon="1.58231">
        <ele>158.088</ele>
        <time>2016-12-30T13:13:22Z</time>
      </trkpt>
      <trkpt lat="43.45803" lon="1.57993">
        <ele>158.067</ele>
        <time>2016-12-30T13:13:42Z</time>
      </trkpt>
      <trkpt lat="43.45847" lon="1.57873">
        <ele>157.864</ele>
        <time>2016-12-30T13:14:02Z</time>
      </trkpt>
      <trkpt lat="43.4591" lon="1.57699">
        <ele>157.055</ele>
        <time>2016-12-30T13:14:22Z</time>
      </trkpt>
      <trkpt lat="43.46201" lon="1.57173">
        <ele>156.994</ele>
        <time>2016-12-30T13:14:42Z</time>
      </trkpt>
      <trkpt lat="43.46295" lon="1.57087">
        <ele>154.845</ele>
        <time>2016-12-30T13:15:02Z</time>
      </trkpt>
      <trkpt lat="43.46298" lon="1.57075">
        <ele>158.151</ele>
        <time>2021-04-17T15:20:30Z</time>
      </trkpt>
      <trkpt lat="43.46337" lon="1.57045">
        <ele>156.801</ele>
        <time>2021-04-17T15:20:50Z</time>
      </trkpt>
      <trkpt lat="43.46323" lon="1.57022">
        <ele>158.311</ele>
        <time>2021-04-17T15:21:10Z</time>
      </trkpt>
      <trkpt lat="43.46284" lon="1.5705">
        <ele>156.808</ele>
        <time>2016-12-30T13:17:22Z</time>
      </trkpt>
      <trkpt lat="43.46258" lon="1.57013">
        <ele>161.462</ele>
        <time>2016-12-30T13:18:42Z</time>
      </trkpt>
      <trkpt lat="43.46204" lon="1.57078">
        <ele>162.265</ele>
        <time>2016-12-30T13:19:02Z</time>
      </trkpt>
      <trkpt lat="43.45942" lon="1.57254">
        <ele>183.231</ele>
        <time>2016-12-30T13:19:22Z</time>
      </trkpt>
      <trkpt lat="43.45857" lon="1.57338">
        <ele>190.05</ele>
        <time>2016-12-30T13:19:42Z</time>
      </trkpt>
      <trkpt lat="43.45808" lon="1.57234">
        <ele>190.477</ele>
        <time>2016-12-30T13:20:02Z</time>
      </trkpt>
      <trkpt lat="43.45874" lon="1.5715">
        <ele>186.578</ele>
        <time>2016-12-30T13:20:22Z</time>
      </trkpt>
      <trkpt lat="43.45821" lon="1.57117">
        <ele>186.767</ele>
        <time>2016-12-30T13:20:42Z</time>
      </trkpt>
      <trkpt lat="43.45797" lon="1.57067">
        <ele>185.778</ele>
        <time>2016-12-30T13:21:02Z</time>
      </trkpt>
      <trkpt lat="43.45795" lon="1.57006">
        <ele>185.281</ele>
        <time>2016-12-30T13:21:22Z</time>
      </trkpt>
      <trkpt lat="43.45821" lon="1.56904">
        <ele>185.761</ele>
        <time>2016-12-30T13:21:42Z</time>
      </trkpt>
      <trkpt lat="43.45747" lon="1.56791">
        <ele>190.717</ele>
        <time>2016-12-30T13:22:02Z</time>
      </trkpt>
      <trkpt lat="43.45578" lon="1.56632">
        <ele>207.108</ele>
        <time>2016-12-30T13:22:22Z</time>
      </trkpt>
      <trkpt lat="43.45736" lon="1.56457">
        <ele>197.435</ele>
        <time>2016-12-30T13:22:42Z</time>
      </trkpt>
      <trkpt lat="43.45827" lon="1.56345">
        <ele>195.088</ele>
        <time>2016-12-30T13:23:02Z</time>
      </trkpt>
      <trkpt lat="43.45836" lon="1.56234">
        <ele>193.124</ele>
        <time>2016-12-30T13:23:22Z</time>
      </trkpt>
      <trkpt lat="43.45898" lon="1.56072">
        <ele>184.293</ele>
        <time>2016-12-30T13:24:22Z</time>
      </trkpt>
      <trkpt lat="43.4595" lon="1.55909">
        <ele>173.92</ele>
        <time>2016-12-30T13:24:42Z</time>
      </trkpt>
      <trkpt lat="43.46001" lon="1.55807">
        <ele>170.181</ele>
        <time>2016-12-30T13:25:02Z</time>
      </trkpt>
      <trkpt lat="43.4597" lon="1.55634">
        <ele>174.16</ele>
        <time>2016-12-30T13:25:22Z</time>
      </trkpt>
      <trkpt lat="43.45917" lon="1.55482">
        <ele>175.041</ele>
        <time>2016-12-30T13:25:42Z</time>
      </trkpt>
      <trkpt lat="43.4591" lon="1.55423">
        <ele>175.098</ele>
        <time>2016-12-30T13:26:02Z</time>
      </trkpt>
      <trkpt lat="43.45942" lon="1.55336">
        <ele>176.615</ele>
        <time>2016-12-30T13:26:22Z</time>
      </trkpt>
      <trkpt lat="43.45913" lon="1.5526">
        <ele>182.626</ele>
        <time>2016-12-30T13:26:42Z</time>
      </trkpt>
      <trkpt lat="43.45839" lon="1.55157">
        <ele>183.808</ele>
        <time>2016-12-30T13:27:02Z</time>
      </trkpt>
      <trkpt lat="43.458" lon="1.55054">
        <ele>187.536</ele>
        <time>2016-12-30T13:28:22Z</time>
      </trkpt>
      <trkpt lat="43.4579" lon="1.5497">
        <ele>191.059</ele>
        <time>2016-12-30T13:28:42Z</time>
      </trkpt>
      <trkpt lat="43.45826" lon="1.54785">
        <ele>209.765</ele>
        <time>2016-12-30T13:29:02Z</time>
      </trkpt>
      <trkpt lat="43.45816" lon="1.54547">
        <ele>230.084</ele>
        <time>2016-12-30T13:29:22Z</time>
      </trkpt>
      <trkpt lat="43.45795" lon="1.54382">
        <ele>237.051</ele>
        <time>2016-12-30T13:29:42Z</time>
      </trkpt>
      <trkpt lat="43.45807" lon="1.5429">
        <ele>238.082</ele>
        <time>2016-12-30T13:30:02Z</time>
      </trkpt>
      <trkpt lat="43.45811" lon="1.54247">
        <ele>238.811</ele>
        <time>2016-12-30T13:30:22Z</time>
      </trkpt>
      <trkpt lat="43.45889" lon="1.54076">
        <ele>229.132</ele>
        <time>2016-12-30T13:30:42Z</time>
      </trkpt>
      <trkpt lat="43.45916" lon="1.53952">
        <ele>224.374</ele>
        <time>2016-12-30T13:31:02Z</time>
      </trkpt>
      <trkpt lat="43.45981" lon="1.53769">
        <ele>215.256</ele>
        <time>2016-12-30T13:31:22Z</time>
      </trkpt>
      <trkpt lat="43.45983" lon="1.53726">
        <ele>214.021</ele>
        <time>2016-12-30T13:31:42Z</time>
      </trkpt>
      <trkpt lat="43.46079" lon="1.53405">
        <ele>201.408</ele>
        <time>2016-12-30T13:32:02Z</time>
      </trkpt>
      <trkpt lat="43.46109" lon="1.53357">
        <ele>199.174</ele>
        <time>2016-12-30T13:32:22Z</time>
      </trkpt>
      <trkpt lat="43.46151" lon="1.53225">
        <ele>193.617</ele>
        <time>2016-12-30T13:32:42Z</time>
      </trkpt>
      <trkpt lat="43.46173" lon="1.53179">
        <ele>191.543</ele>
        <time>2016-12-30T13:33:02Z</time>
      </trkpt>
      <trkpt lat="43.46167" lon="1.53134">
        <ele>190.042</ele>
        <time>2016-12-30T13:33:22Z</time>
      </trkpt>
      <trkpt lat="43.46358" lon="1.53042">
        <ele>197.119</ele>
        <time>2021-04-17T15:35:10Z</time>
      </trkpt>
      <trkpt lat="43.46356" lon="1.53021">
        <ele>196.28</ele>
        <time>2021-04-17T15:35:30Z</time>
      </trkpt>
      <trkpt lat="43.46348" lon="1.5301">
        <ele>195.939</ele>
        <time>2021-04-17T15:35:50Z</time>
      </trkpt>
      <trkpt lat="43.46349" lon="1.52997">
        <ele>195.54</ele>
        <time>2021-04-17T15:36:10Z</time>
      </trkpt>
      <trkpt lat="43.46342" lon="1.52952">
        <ele>196.916</ele>
        <time>2021-04-17T15:36:30Z</time>
      </trkpt>
      <trkpt lat="43.46327" lon="1.52907">
        <ele>198.776</ele>
        <time>2021-04-17T15:36:50Z</time>
      </trkpt>
      <trkpt lat="43.46311" lon="1.52877">
        <ele>200.213</ele>
        <time>2021-04-17T15:37:10Z</time>
      </trkpt>
      <trkpt lat="43.46314" lon="1.52861">
        <ele>200.708</ele>
        <time>2021-04-17T15:37:30Z</time>
      </trkpt>
      <trkpt lat="43.46308" lon="1.5283">
        <ele>201.888</ele>
        <time>2021-04-17T15:37:50Z</time>
      </trkpt>
      <trkpt lat="43.463" lon="1.52799">
        <ele>202.281</ele>
        <time>2021-04-17T15:38:10Z</time>
      </trkpt>
      <trkpt lat="43.4631" lon="1.5279">
        <ele>202.417</ele>
        <time>2021-04-17T15:38:30Z</time>
      </trkpt>
      <trkpt lat="43.46343" lon="1.52668">
        <ele>206.896</ele>
        <time>2016-12-30T13:35:02Z</time>
      </trkpt>
      <trkpt lat="43.46376" lon="1.52606">
        <ele>217.863</ele>
        <time>2021-04-17T15:39:10Z</time>
      </trkpt>
      <trkpt lat="43.46546" lon="1.52429">
        <ele>247.174</ele>
        <time>2016-12-30T13:35:42Z</time>
      </trkpt>
      <trkpt lat="43.46603" lon="1.52104">
        <ele>261.093</ele>
        <time>2016-12-30T13:36:02Z</time>
      </trkpt>
      <trkpt lat="43.46557" lon="1.52001">
        <ele>260.324</ele>
        <time>2021-04-17T15:40:10Z</time>
      </trkpt>
      <trkpt lat="43.46607" lon="1.51768">
        <ele>253.961</ele>
        <time>2016-12-30T13:36:42Z</time>
      </trkpt>
      <trkpt lat="43.46648" lon="1.51718">
        <ele>252.921</ele>
        <time>2016-12-30T13:37:02Z</time>
      </trkpt>
      <trkpt lat="43.46719" lon="1.51384">
        <ele>234.013</ele>
        <time>2016-12-30T13:37:22Z</time>
      </trkpt>
      <trkpt lat="43.46845" lon="1.51133">
        <ele>225.508</ele>
        <time>2016-12-30T13:37:42Z</time>
      </trkpt>
      <trkpt lat="43.46859" lon="1.51047">
        <ele>220.373</ele>
        <time>2016-12-30T13:38:02Z</time>
      </trkpt>
      <trkpt lat="43.46923" lon="1.50874">
        <ele>215.476</ele>
        <time>2016-12-30T13:38:22Z</time>
      </trkpt>
      <trkpt lat="43.46954" lon="1.50808">
        <ele>215.052</ele>
        <time>2016-12-30T13:38:42Z</time>
      </trkpt>
      <trkpt lat="43.4698" lon="1.50737">
        <ele>215.431</ele>
        <time>2016-12-30T13:39:02Z</time>
      </trkpt>
      <trkpt lat="43.47038" lon="1.50585">
        <ele>214.448</ele>
        <time>2016-12-30T13:39:22Z</time>
      </trkpt>
      <trkpt lat="43.47099" lon="1.50292">
        <ele>209.999</ele>
        <time>2016-12-30T13:39:42Z</time>
      </trkpt>
      <trkpt lat="43.4709" lon="1.50225">
        <ele>209.258</ele>
        <time>2016-12-30T13:40:02Z</time>
      </trkpt>
      <trkpt lat="43.47088" lon="1.49983">
        <ele>213.179</ele>
        <time>2021-04-17T15:44:10Z</time>
      </trkpt>
      <trkpt lat="43.47064" lon="1.49958">
        <ele>212.369</ele>
        <time>2021-04-17T15:44:30Z</time>
      </trkpt>
      <trkpt lat="43.47069" lon="1.49738">
        <ele>201.004</ele>
        <time>2016-12-30T13:41:02Z</time>
      </trkpt>
      <trkpt lat="43.47098" lon="1.49537">
        <ele>200.324</ele>
        <time>2016-12-30T13:41:22Z</time>
      </trkpt>
      <trkpt lat="43.47256" lon="1.49574">
        <ele>222.108</ele>
        <time>2016-12-30T13:41:42Z</time>
      </trkpt>
      <trkpt lat="43.47313" lon="1.49516">
        <ele>232.833</ele>
        <time>2016-12-30T13:42:02Z</time>
      </trkpt>
      <trkpt lat="43.4733" lon="1.4948">
        <ele>234.696</ele>
        <time>2016-12-30T13:42:22Z</time>
      </trkpt>
      <trkpt lat="43.47349" lon="1.49506">
        <ele>236.342</ele>
        <time>2016-12-30T13:42:42Z</time>
      </trkpt>
      <trkpt lat="43.47417" lon="1.49502">
        <ele>236.021</ele>
        <time>2016-12-30T13:43:02Z</time>
      </trkpt>
      <trkpt lat="43.47473" lon="1.49518">
        <ele>232.788</ele>
        <time>2016-12-30T13:43:22Z</time>
      </trkpt>
      <trkpt lat="43.47524" lon="1.49492">
        <ele>233.419</ele>
        <time>2016-12-30T13:43:42Z</time>
      </trkpt>
      <trkpt lat="43.47597" lon="1.49427">
        <ele>243.428</ele>
        <time>2016-12-30T13:44:02Z</time>
      </trkpt>
      <trkpt lat="43.47629" lon="1.49372">
        <ele>248.579</ele>
        <time>2016-12-30T13:44:22Z</time>
      </trkpt>
      <trkpt lat="43.47651" lon="1.49289">
        <ele>247.193</ele>
        <time>2016-12-30T13:44:42Z</time>
      </trkpt>
      <trkpt lat="43.4767" lon="1.49168">
        <ele>246.065</ele>
        <time>2016-12-30T13:45:02Z</time>
      </trkpt>
      <trkpt lat="43.478" lon="1.4904">
        <ele>239.821</ele>
        <time>2016-12-30T13:45:22Z</time>
      </trkpt>
      <trkpt lat="43.47888" lon="1.48901">
        <ele>236.808</ele>
        <time>2016-12-30T13:45:42Z</time>
      </trkpt>
      <trkpt lat="43.48045" lon="1.48707">
        <ele>234.746</ele>
        <time>2016-12-30T13:46:02Z</time>
      </trkpt>
      <trkpt lat="43.4828" lon="1.48632">
        <ele>204.619</ele>
        <time>2016-12-30T13:46:22Z</time>
      </trkpt>
      <trkpt lat="43.48568" lon="1.4849">
        <ele>245.195</ele>
        <time>2016-12-30T13:47:22Z</time>
      </trkpt>
      <trkpt lat="43.48679" lon="1.48331">
        <ele>262.774</ele>
        <time>2016-12-30T13:47:42Z</time>
      </trkpt>
      <trkpt lat="43.48668" lon="1.48438">
        <ele>263.921</ele>
        <time>2016-12-30T13:48:02Z</time>
      </trkpt>
      <trkpt lat="43.48687" lon="1.4854">
        <ele>266.522</ele>
        <time>2016-12-30T13:48:22Z</time>
      </trkpt>
      <trkpt lat="43.48747" lon="1.48456">
        <ele>274.891</ele>
        <time>2016-12-30T13:48:42Z</time>
      </trkpt>
      <trkpt lat="43.48792" lon="1.48331">
        <ele>275.032</ele>
        <time>2016-12-30T13:49:02Z</time>
      </trkpt>
      <trkpt lat="43.48834" lon="1.48203">
        <ele>271.051</ele>
        <time>2016-12-30T13:49:22Z</time>
      </trkpt>
      <trkpt lat="43.4892" lon="1.48105">
        <ele>270.001</ele>
        <time>2016-12-30T13:49:42Z</time>
      </trkpt>
      <trkpt lat="43.48936" lon="1.4805">
        <ele>270.011</ele>
        <time>2016-12-30T13:50:02Z</time>
      </trkpt>
      <trkpt lat="43.48969" lon="1.47963">
        <ele>269.808</ele>
        <time>2016-12-30T13:50:22Z</time>
      </trkpt>
      <trkpt lat="43.49017" lon="1.47921">
        <ele>269.962</ele>
        <time>2016-12-30T13:50:42Z</time>
      </trkpt>
      <trkpt lat="43.49058" lon="1.47755">
        <ele>264.365</ele>
        <time>2016-12-30T13:51:02Z</time>
      </trkpt>
      <trkpt lat="43.48939" lon="1.47665">
        <ele>249.221</ele>
        <time>2016-12-30T13:51:22Z</time>
      </trkpt>
      <trkpt lat="43.48955" lon="1.47597">
        <ele>246.07</ele>
        <time>2016-12-30T13:51:42Z</time>
      </trkpt>
      <trkpt lat="43.48965" lon="1.4751">
        <ele>242.187</ele>
        <time>2016-12-30T13:52:02Z</time>
      </trkpt>
      <trkpt lat="43.48981" lon="1.47465">
        <ele>239.748</ele>
        <time>2016-12-30T13:52:22Z</time>
      </trkpt>
      <trkpt lat="43.48978" lon="1.47429">
        <ele>240.037</ele>
        <time>2016-12-30T13:52:42Z</time>
      </trkpt>
      <trkpt lat="43.49014" lon="1.47356">
        <ele>236.258</ele>
        <time>2016-12-30T13:53:02Z</time>
      </trkpt>
      <trkpt lat="43.49053" lon="1.47314">
        <ele>232.751</ele>
        <time>2016-12-30T13:53:22Z</time>
      </trkpt>
      <trkpt lat="43.49129" lon="1.47298">
        <ele>233.601</ele>
        <time>2016-12-30T13:53:42Z</time>
      </trkpt>
      <trkpt lat="43.49193" lon="1.47201">
        <ele>227.811</ele>
        <time>2016-12-30T13:54:02Z</time>
      </trkpt>
      <trkpt lat="43.49328" lon="1.47038">
        <ele>223.408</ele>
        <time>2016-12-30T13:54:22Z</time>
      </trkpt>
      <trkpt lat="43.49458" lon="1.46876">
        <ele>215.562</ele>
        <time>2016-12-30T13:54:42Z</time>
      </trkpt>
      <trkpt lat="43.49583" lon="1.46746">
        <ele>209.265</ele>
        <time>2016-12-30T13:55:02Z</time>
      </trkpt>
      <trkpt lat="43.49643" lon="1.46689">
        <ele>203.431</ele>
        <time>2016-12-30T13:55:22Z</time>
      </trkpt>
      <trkpt lat="43.49682" lon="1.46676">
        <ele>203.27</ele>
        <time>2016-12-30T13:55:42Z</time>
      </trkpt>
      <trkpt lat="43.49833" lon="1.46517">
        <ele>194.087</ele>
        <time>2016-12-30T13:56:02Z</time>
      </trkpt>
      <trkpt lat="43.49855" lon="1.46582">
        <ele>195.568</ele>
        <time>2016-12-30T13:56:22Z</time>
      </trkpt>
      <trkpt lat="43.49886" lon="1.46843">
        <ele>212.597</ele>
        <time>2016-12-30T13:56:42Z</time>
      </trkpt>
      <trkpt lat="43.49976" lon="1.46972">
        <ele>220.568</ele>
        <time>2016-12-30T13:57:02Z</time>
      </trkpt>
      <trkpt lat="43.50039" lon="1.47009">
        <ele>225.344</ele>
        <time>2016-12-30T13:57:22Z</time>
      </trkpt>
      <trkpt lat="43.50094" lon="1.47099">
        <ele>231.305</ele>
        <time>2016-12-30T13:57:42Z</time>
      </trkpt>
      <trkpt lat="43.5011" lon="1.47209">
        <ele>234.915</ele>
        <time>2016-12-30T13:58:02Z</time>
      </trkpt>
      <trkpt lat="43.50202" lon="1.46957">
        <ele>236.108</ele>
        <time>2016-12-30T13:58:22Z</time>
      </trkpt>
      <trkpt lat="43.50201" lon="1.46923">
        <ele>235.241</ele>
        <time>2016-12-30T13:58:42Z</time>
      </trkpt>
      <trkpt lat="43.50222" lon="1.46954">
        <ele>235.054</ele>
        <time>2016-12-30T13:59:02Z</time>
      </trkpt>
      <trkpt lat="43.50255" lon="1.47043">
        <ele>233.36</ele>
        <time>2016-12-30T13:59:22Z</time>
      </trkpt>
      <trkpt lat="43.50306" lon="1.47136">
        <ele>237.869</ele>
        <time>2016-12-30T13:59:42Z</time>
      </trkpt>
      <trkpt lat="43.50282" lon="1.47275">
        <ele>244.956</ele>
        <time>2016-12-30T14:00:02Z</time>
      </trkpt>
      <trkpt lat="43.50478" lon="1.47452">
        <ele>253.537</ele>
        <time>2016-12-30T14:00:22Z</time>
      </trkpt>
      <trkpt lat="43.50629" lon="1.47503">
        <ele>255.636</ele>
        <time>2016-12-30T14:00:42Z</time>
      </trkpt>
      <trkpt lat="43.50742" lon="1.47442">
        <ele>270.087</ele>
        <time>2016-12-30T14:01:02Z</time>
      </trkpt>
      <trkpt lat="43.50773" lon="1.47394">
        <ele>271.042</ele>
        <time>2016-12-30T14:01:22Z</time>
      </trkpt>
      <trkpt lat="43.5081" lon="1.47415">
        <ele>271.922</ele>
        <time>2016-12-30T14:01:42Z</time>
      </trkpt>
      <trkpt lat="43.50932" lon="1.47444">
        <ele>274.014</ele>
        <time>2016-12-30T14:02:02Z</time>
      </trkpt>
      <trkpt lat="43.50996" lon="1.47372">
        <ele>271.508</ele>
        <time>2016-12-30T14:02:22Z</time>
      </trkpt>
      <trkpt lat="43.51113" lon="1.47177">
        <ele>275.021</ele>
        <time>2016-12-30T14:02:42Z</time>
      </trkpt>
      <trkpt lat="43.51174" lon="1.47047">
        <ele>272.074</ele>
        <time>2016-12-30T14:03:02Z</time>
      </trkpt>
      <trkpt lat="43.51232" lon="1.47192">
        <ele>271.18</ele>
        <time>2016-12-30T14:03:22Z</time>
      </trkpt>
      <trkpt lat="43.5131" lon="1.4729">
        <ele>257.879</ele>
        <time>2016-12-30T14:03:42Z</time>
      </trkpt>
      <trkpt lat="43.51397" lon="1.47437">
        <ele>258.736</ele>
        <time>2016-12-30T14:04:02Z</time>
      </trkpt>
      <trkpt lat="43.51445" lon="1.47309">
        <ele>255.067</ele>
        <time>2016-12-30T14:04:22Z</time>
      </trkpt>
      <trkpt lat="43.51435" lon="1.47281">
        <ele>252.986</ele>
        <time>2016-12-30T14:04:42Z</time>
      </trkpt>
      <trkpt lat="43.51384" lon="1.47242">
        <ele>251.767</ele>
        <time>2016-12-30T14:05:02Z</time>
      </trkpt>
      <trkpt lat="43.51386" lon="1.47172">
        <ele>254.955</ele>
        <time>2016-12-30T14:05:22Z</time>
      </trkpt>
      <trkpt lat="43.51428" lon="1.46996">
        <ele>259.707</ele>
        <time>2016-12-30T14:05:42Z</time>
      </trkpt>
      <trkpt lat="43.51438" lon="1.46851">
        <ele>265.817</ele>
        <time>2016-12-30T14:07:22Z</time>
      </trkpt>
      <trkpt lat="43.51469" lon="1.46812">
        <ele>265.208</ele>
        <time>2016-12-30T14:07:42Z</time>
      </trkpt>
      <trkpt lat="43.51506" lon="1.46699">
        <ele>265.582</ele>
        <time>2016-12-30T14:08:02Z</time>
      </trkpt>
      <trkpt lat="43.51545" lon="1.46611">
        <ele>265.825</ele>
        <time>2016-12-30T14:08:22Z</time>
      </trkpt>
      <trkpt lat="43.51565" lon="1.46547">
        <ele>266.141</ele>
        <time>2016-12-30T14:08:42Z</time>
      </trkpt>
      <trkpt lat="43.51709" lon="1.46258">
        <ele>270.09</ele>
        <time>2016-12-30T14:09:02Z</time>
      </trkpt>
      <trkpt lat="43.51591" lon="1.46236">
        <ele>270.017</ele>
        <time>2016-12-30T14:09:22Z</time>
      </trkpt>
      <trkpt lat="43.51621" lon="1.46073">
        <ele>268.518</ele>
        <time>2016-12-30T14:09:42Z</time>
      </trkpt>
      <trkpt lat="43.51653" lon="1.45969">
        <ele>263.917</ele>
        <time>2016-12-30T14:11:02Z</time>
      </trkpt>
      <trkpt lat="43.51825" lon="1.46073">
        <ele>270.038</ele>
        <time>2016-12-30T14:11:22Z</time>
      </trkpt>
      <trkpt lat="43.51901" lon="1.46092">
        <ele>270.079</ele>
        <time>2016-12-30T14:11:42Z</time>
      </trkpt>
      <trkpt lat="43.51943" lon="1.4592">
        <ele>265.905</ele>
        <time>2016-12-30T14:12:02Z</time>
      </trkpt>
      <trkpt lat="43.52023" lon="1.4581">
        <ele>261.825</ele>
        <time>2016-12-30T14:12:42Z</time>
      </trkpt>
      <trkpt lat="43.52209" lon="1.4552">
        <ele>240.508</ele>
        <time>2016-12-30T14:13:02Z</time>
      </trkpt>
      <trkpt lat="43.52239" lon="1.45437">
        <ele>232.314</ele>
        <time>2016-12-30T14:13:22Z</time>
      </trkpt>
      <trkpt lat="43.52276" lon="1.45371">
        <ele>224.717</ele>
        <time>2016-12-30T14:13:42Z</time>
      </trkpt>
      <trkpt lat="43.5228" lon="1.45347">
        <ele>223.043</ele>
        <time>2016-12-30T14:14:02Z</time>
      </trkpt>
      <trkpt lat="43.52421" lon="1.45435">
        <ele>232.612</ele>
        <time>2016-12-30T14:14:22Z</time>
      </trkpt>
      <trkpt lat="43.52474" lon="1.45532">
        <ele>229.349</ele>
        <time>2016-12-30T14:14:42Z</time>
      </trkpt>
      <trkpt lat="43.52477" lon="1.45565">
        <ele>226.49</ele>
        <time>2016-12-30T14:15:02Z</time>
      </trkpt>
      <trkpt lat="43.52586" lon="1.45674">
        <ele>213.869</ele>
        <time>2016-12-30T14:15:22Z</time>
      </trkpt>
      <trkpt lat="43.52667" lon="1.45776">
        <ele>235.82</ele>
        <time>2016-12-30T14:15:42Z</time>
      </trkpt>
      <trkpt lat="43.527" lon="1.45838">
        <ele>247.125</ele>
        <time>2016-12-30T14:16:02Z</time>
      </trkpt>
      <trkpt lat="43.52753" lon="1.45898">
        <ele>255.026</ele>
        <time>2016-12-30T14:16:22Z</time>
      </trkpt>
      <trkpt lat="43.52956" lon="1.45625">
        <ele>244.008</ele>
        <time>2016-12-30T14:16:42Z</time>
      </trkpt>
      <trkpt lat="43.52975" lon="1.45641">
        <ele>241.508</ele>
        <time>2016-12-30T14:17:02Z</time>
      </trkpt>
      <trkpt lat="43.53048" lon="1.45594">
        <ele>231.569</ele>
        <time>2016-12-30T14:17:22Z</time>
      </trkpt>
      <trkpt lat="43.53145" lon="1.45579">
        <ele>214.442</ele>
        <time>2016-12-30T14:17:42Z</time>
      </trkpt>
      <trkpt lat="43.53224" lon="1.45537">
        <ele>205.858</ele>
        <time>2016-12-30T14:18:02Z</time>
      </trkpt>
      <trkpt lat="43.53278" lon="1.45551">
        <ele>197.537</ele>
        <time>2016-12-30T14:18:22Z</time>
      </trkpt>
      <trkpt lat="43.53392" lon="1.45665">
        <ele>175.734</ele>
        <time>2016-12-30T14:20:22Z</time>
      </trkpt>
      <trkpt lat="43.53453" lon="1.45691">
        <ele>174.955</ele>
        <time>2016-12-30T14:20:42Z</time>
      </trkpt>
      <trkpt lat="43.53489" lon="1.45728">
        <ele>184.074</ele>
        <time>2016-12-30T14:21:02Z</time>
      </trkpt>
      <trkpt lat="43.53462" lon="1.45785">
        <ele>184.885</ele>
        <time>2016-12-30T14:21:42Z</time>
      </trkpt>
      <trkpt lat="43.53461" lon="1.45825">
        <ele>189.289</ele>
        <time>2016-12-30T14:22:02Z</time>
      </trkpt>
      <trkpt lat="43.53443" lon="1.45867">
        <ele>189.206</ele>
        <time>2016-12-30T14:22:22Z</time>
      </trkpt>
      <trkpt lat="43.53411" lon="1.45852">
        <ele>181.726</ele>
        <time>2016-12-30T14:22:42Z</time>
      </trkpt>
      <trkpt lat="43.53399" lon="1.45882">
        <ele>182.208</ele>
        <time>2016-12-30T14:23:02Z</time>
      </trkpt>
      <trkpt lat="43.53415" lon="1.45904">
        <ele>186.695</ele>
        <time>2016-12-30T14:23:22Z</time>
      </trkpt>
      <trkpt lat="43.53388" lon="1.45951">
        <ele>185.388</ele>
        <time>2016-12-30T14:23:42Z</time>
      </trkpt>
      <trkpt lat="43.53326" lon="1.45924">
        <ele>180.254</ele>
        <time>2016-12-30T14:24:02Z</time>
      </trkpt>
      <trkpt lat="43.53275" lon="1.46086">
        <ele>181.333</ele>
        <time>2016-12-30T14:24:22Z</time>
      </trkpt>
      <trkpt lat="43.53271" lon="1.46132">
        <ele>182.33</ele>
        <time>2016-12-30T14:24:42Z</time>
      </trkpt>
      <trkpt lat="43.53296" lon="1.46105">
        <ele>181.871</ele>
        <time>2016-12-30T14:25:02Z</time>
      </trkpt>
      <trkpt lat="43.53317" lon="1.46037">
        <ele>180.51</ele>
        <time>2016-12-30T14:25:22Z</time>
      </trkpt>
      <trkpt lat="43.5349" lon="1.45894">
        <ele>203.481</ele>
        <time>2016-12-30T14:26:02Z</time>
      </trkpt>
      <trkpt lat="43.53582" lon="1.4586">
        <ele>217.515</ele>
        <time>2016-12-30T14:26:22Z</time>
      </trkpt>
      <trkpt lat="43.53781" lon="1.45724">
        <ele>236.765</ele>
        <time>2016-12-30T14:26:42Z</time>
      </trkpt>
      <trkpt lat="43.53949" lon="1.45498">
        <ele>240.211</ele>
        <time>2021-04-17T16:25:10Z</time>
      </trkpt>
      <trkpt lat="43.53986" lon="1.45483">
        <ele>245.008</ele>
        <time>2021-04-17T16:25:30Z</time>
      </trkpt>
      <trkpt lat="43.54094" lon="1.45467">
        <ele>252.028</ele>
        <time>2021-04-17T16:25:50Z</time>
      </trkpt>
      <trkpt lat="43.54341" lon="1.45702">
        <ele>228.781</ele>
        <time>2021-04-17T16:26:10Z</time>
      </trkpt>
      <trkpt lat="43.54512" lon="1.45418">
        <ele>232.097</ele>
        <time>2016-12-30T14:29:02Z</time>
      </trkpt>
      <trkpt lat="43.54522" lon="1.45371">
        <ele>231.286</ele>
        <time>2016-12-30T14:29:22Z</time>
      </trkpt>
      <trkpt lat="43.54563" lon="1.45297">
        <ele>231.543</ele>
        <time>2021-04-17T16:27:10Z</time>
      </trkpt>
      <trkpt lat="43.54586" lon="1.45316">
        <ele>231.584</ele>
        <time>2021-04-17T16:27:30Z</time>
      </trkpt>
      <trkpt lat="43.54637" lon="1.45298">
        <ele>227.023</ele>
        <time>2016-12-30T14:30:02Z</time>
      </trkpt>
      <trkpt lat="43.54677" lon="1.45304">
        <ele>227.054</ele>
        <time>2016-12-30T14:30:22Z</time>
      </trkpt>
      <trkpt lat="43.54836" lon="1.45382">
        <ele>234.113</ele>
        <time>2016-12-30T14:30:42Z</time>
      </trkpt>
      <trkpt lat="43.54846" lon="1.4537">
        <ele>234.243</ele>
        <time>2016-12-30T14:31:02Z</time>
      </trkpt>
      <trkpt lat="43.54877" lon="1.45389">
        <ele>234.407</ele>
        <time>2016-12-30T14:31:22Z</time>
      </trkpt>
      <trkpt lat="43.54902" lon="1.45388">
        <ele>233.508</ele>
        <time>2016-12-30T14:31:42Z</time>
      </trkpt>
      <trkpt lat="43.54927" lon="1.45405">
        <ele>233.978</ele>
        <time>2016-12-30T14:32:02Z</time>
      </trkpt>
      <trkpt lat="43.54947" lon="1.45366">
        <ele>231.351</ele>
        <time>2016-12-30T14:32:22Z</time>
      </trkpt>
      <trkpt lat="43.54948" lon="1.45266">
        <ele>230.037</ele>
        <time>2016-12-30T14:32:42Z</time>
      </trkpt>
      <trkpt lat="43.54964" lon="1.45184">
        <ele>230.026</ele>
        <time>2016-12-30T14:33:02Z</time>
      </trkpt>
      <trkpt lat="43.54989" lon="1.452">
        <ele>230.063</ele>
        <time>2016-12-30T14:33:22Z</time>
      </trkpt>
      <trkpt lat="43.55026" lon="1.45163">
        <ele>230.064</ele>
        <time>2016-12-30T14:33:42Z</time>
      </trkpt>
      <trkpt lat="43.55051" lon="1.45162">
        <ele>228.543</ele>
        <time>2016-12-30T14:34:22Z</time>
      </trkpt>
      <trkpt lat="43.55088" lon="1.45205">
        <ele>224.344</ele>
        <time>2019-12-05T19:43:52Z</time>
      </trkpt>
      <trkpt lat="43.55174" lon="1.4515">
        <ele>217.896</ele>
        <time>2019-12-05T19:44:12Z</time>
      </trkpt>
      <trkpt lat="43.55208" lon="1.45099">
        <ele>216.031</ele>
        <time>2019-12-05T19:44:32Z</time>
      </trkpt>
      <trkpt lat="43.55302" lon="1.45031">
        <ele>211.024</ele>
        <time>2019-12-05T19:44:52Z</time>
      </trkpt>
      <trkpt lat="43.55322" lon="1.44986">
        <ele>213.108</ele>
        <time>2019-12-05T19:45:12Z</time>
      </trkpt>
      <trkpt lat="43.55389" lon="1.45066">
        <ele>219.956</ele>
        <time>2021-04-17T16:33:50Z</time>
      </trkpt>
      <trkpt lat="43.55496" lon="1.44984">
        <ele>238.539</ele>
        <time>2019-12-05T19:48:12Z</time>
      </trkpt>
      <trkpt lat="43.55535" lon="1.45016">
        <ele>243.535</ele>
        <time>2019-12-05T19:48:32Z</time>
      </trkpt>
      <trkpt lat="43.55588" lon="1.4503">
        <ele>249.134</ele>
        <time>2019-12-05T19:48:52Z</time>
      </trkpt>
      <trkpt lat="43.55637" lon="1.45014">
        <ele>249.171</ele>
        <time>2019-12-05T19:49:12Z</time>
      </trkpt>
      <trkpt lat="43.55653" lon="1.44984">
        <ele>249.142</ele>
        <time>2019-12-05T19:49:32Z</time>
      </trkpt>
      <trkpt lat="43.55675" lon="1.44925">
        <ele>249.971</ele>
        <time>2019-12-05T19:49:52Z</time>
      </trkpt>
      <trkpt lat="43.55704" lon="1.44885">
        <ele>250.322</ele>
        <time>2019-12-05T19:50:12Z</time>
      </trkpt>
      <trkpt lat="43.55731" lon="1.4488">
        <ele>251.775</ele>
        <time>2019-12-05T19:50:32Z</time>
      </trkpt>
      <trkpt lat="43.55775" lon="1.44902">
        <ele>254.328</ele>
        <time>2019-12-05T19:50:52Z</time>
      </trkpt>
      <trkpt lat="43.55824" lon="1.44902">
        <ele>258.02</ele>
        <time>2019-12-05T19:51:12Z</time>
      </trkpt>
      <trkpt lat="43.55853" lon="1.44768">
        <ele>260.008</ele>
        <time>2019-12-05T19:51:32Z</time>
      </trkpt>
      <trkpt lat="43.55917" lon="1.44709">
        <ele>255.954</ele>
        <time>2019-12-05T19:51:52Z</time>
      </trkpt>
      <trkpt lat="43.55919" lon="1.44662">
        <ele>255.867</ele>
        <time>2019-12-05T19:52:12Z</time>
      </trkpt>
      <trkpt lat="43.5599" lon="1.44673">
        <ele>242.713</ele>
        <time>2019-12-05T19:52:32Z</time>
      </trkpt>
      <trkpt lat="43.56068" lon="1.4471">
        <ele>240.512</ele>
        <time>2019-12-05T19:52:52Z</time>
      </trkpt>
      <trkpt lat="43.56104" lon="1.44698">
        <ele>238.639</ele>
        <time>2019-12-05T19:53:12Z</time>
      </trkpt>
      <trkpt lat="43.56143" lon="1.44714">
        <ele>236.26</ele>
        <time>2019-12-05T19:53:32Z</time>
      </trkpt>
      <trkpt lat="43.56251" lon="1.44677">
        <ele>236.219</ele>
        <time>2019-12-05T19:53:52Z</time>
      </trkpt>
      <trkpt lat="43.56316" lon="1.44633">
        <ele>237.07</ele>
        <time>2019-12-05T19:54:12Z</time>
      </trkpt>
      <trkpt lat="43.56418" lon="1.44545">
        <ele>235.057</ele>
        <time>2019-12-05T19:54:32Z</time>
      </trkpt>
      <trkpt lat="43.56522" lon="1.44457">
        <ele>234.5</ele>
        <time>2019-12-05T19:54:52Z</time>
      </trkpt>
      <trkpt lat="43.56593" lon="1.4441">
        <ele>230.52</ele>
        <time>2019-12-05T19:55:12Z</time>
      </trkpt>
      <trkpt lat="43.56618" lon="1.44311">
        <ele>224.708</ele>
        <time>2019-12-05T19:55:32Z</time>
      </trkpt>
      <trkpt lat="43.56672" lon="1.44219">
        <ele>218.462</ele>
        <time>2019-12-05T19:55:52Z</time>
      </trkpt>
      <trkpt lat="43.56737" lon="1.44214">
        <ele>218.995</ele>
        <time>2019-12-05T19:56:12Z</time>
      </trkpt>
      <trkpt lat="43.56814" lon="1.44234">
        <ele>220.011</ele>
        <time>2019-12-05T19:56:32Z</time>
      </trkpt>
      <trkpt lat="43.56852" lon="1.44224">
        <ele>218.69</ele>
        <time>2019-12-05T19:56:52Z</time>
      </trkpt>
      <trkpt lat="43.56927" lon="1.44203">
        <ele>211.367</ele>
        <time>2019-12-05T19:57:12Z</time>
      </trkpt>
      <trkpt lat="43.57032" lon="1.44196">
        <ele>203.128</ele>
        <time>2019-12-05T19:57:32Z</time>
      </trkpt>
      <trkpt lat="43.57087" lon="1.4417">
        <ele>195.587</ele>
        <time>2019-12-05T19:57:52Z</time>
      </trkpt>
      <trkpt lat="43.57221" lon="1.44141">
        <ele>185.158</ele>
        <time>2019-12-05T19:58:12Z</time>
      </trkpt>
      <trkpt lat="43.57286" lon="1.44147">
        <ele>183.883</ele>
        <time>2019-12-05T19:58:32Z</time>
      </trkpt>
      <trkpt lat="43.57358" lon="1.44108">
        <ele>170.125</ele>
        <time>2019-12-05T19:58:52Z</time>
      </trkpt>
      <trkpt lat="43.5739" lon="1.44103">
        <ele>161.917</ele>
        <time>2019-12-05T19:59:12Z</time>
      </trkpt>
      <trkpt lat="43.57503" lon="1.44249">
        <ele>146.808</ele>
        <time>2019-12-05T19:59:32Z</time>
      </trkpt>
      <trkpt lat="43.57554" lon="1.44355">
        <ele>145.095</ele>
        <time>2019-12-05T19:59:52Z</time>
      </trkpt>
      <trkpt lat="43.57536" lon="1.44449">
        <ele>145.028</ele>
        <time>2019-12-05T20:00:12Z</time>
      </trkpt>
      <trkpt lat="43.57491" lon="1.44581">
        <ele>146.684</ele>
        <time>2019-12-05T20:00:32Z</time>
      </trkpt>
      <trkpt lat="43.57539" lon="1.44615">
        <ele>145.023</ele>
        <time>2019-12-05T20:00:52Z</time>
      </trkpt>
      <trkpt lat="43.57605" lon="1.44395">
        <ele>145.01</ele>
        <time>2019-12-05T20:01:12Z</time>
      </trkpt>
      <trkpt lat="43.57618" lon="1.44304">
        <ele>143.741</ele>
        <time>2019-12-05T20:01:32Z</time>
      </trkpt>
      <trkpt lat="43.57763" lon="1.4428">
        <ele>141.64</ele>
        <time>2019-12-05T20:01:52Z</time>
      </trkpt>
      <trkpt lat="43.57745" lon="1.44263">
        <ele>141.541</ele>
        <time>2019-12-05T20:02:12Z</time>
      </trkpt>
      <trkpt lat="43.57776" lon="1.44134">
        <ele>139.046</ele>
        <time>2019-12-05T20:02:32Z</time>
      </trkpt>
      <trkpt lat="43.57778" lon="1.44068">
        <ele>138.088</ele>
        <time>2019-12-05T20:02:52Z</time>
      </trkpt>
      <trkpt lat="43.57715" lon="1.44081">
        <ele>139.016</ele>
        <time>2019-12-05T20:03:12Z</time>
      </trkpt>
      <trkpt lat="43.57741" lon="1.43588">
        <ele>137.808</ele>
        <time>2019-12-05T20:03:32Z</time>
      </trkpt>
      <trkpt lat="43.57847" lon="1.43622">
        <ele>137.351</ele>
        <time>2019-12-05T20:03:52Z</time>
      </trkpt>
      <trkpt lat="43.57996" lon="1.437">
        <ele>137.074</ele>
        <time>2019-12-05T20:04:12Z</time>
      </trkpt>
      <trkpt lat="43.58108" lon="1.43793">
        <ele>137.03</ele>
        <time>2019-12-05T20:04:32Z</time>
      </trkpt>
      <trkpt lat="43.58149" lon="1.43816">
        <ele>137.099</ele>
        <time>2019-12-05T20:04:52Z</time>
      </trkpt>
      <trkpt lat="43.58191" lon="1.43846">
        <ele>137.086</ele>
        <time>2019-12-05T20:05:12Z</time>
      </trkpt>
      <trkpt lat="43.58291" lon="1.43893">
        <ele>137.037</ele>
        <time>2019-12-05T20:05:32Z</time>
      </trkpt>
      <trkpt lat="43.58462" lon="1.43932">
        <ele>137.056</ele>
        <time>2019-12-05T20:05:52Z</time>
      </trkpt>
      <trkpt lat="43.58545" lon="1.43932">
        <ele>137.047</ele>
        <time>2019-12-05T20:06:12Z</time>
      </trkpt>
      <trkpt lat="43.58705" lon="1.43896">
        <ele>137.025</ele>
        <time>2019-12-05T20:06:32Z</time>
      </trkpt>
      <trkpt lat="43.58805" lon="1.43921">
        <ele>137.026</ele>
        <time>2019-12-05T20:06:52Z</time>
      </trkpt>
      <trkpt lat="43.58875" lon="1.43975">
        <ele>137.008</ele>
        <time>2019-12-05T20:07:12Z</time>
      </trkpt>
      <trkpt lat="43.58978" lon="1.44065">
        <ele>137.008</ele>
        <time>2019-12-05T20:07:32Z</time>
      </trkpt>
      <trkpt lat="43.59087" lon="1.44105">
        <ele>137.069</ele>
        <time>2019-12-05T20:07:52Z</time>
      </trkpt>
      <trkpt lat="43.59174" lon="1.44134">
        <ele>137.962</ele>
        <time>2019-12-05T20:08:12Z</time>
      </trkpt>
      <trkpt lat="43.59202" lon="1.4418">
        <ele>139.538</ele>
        <time>2019-12-05T20:08:32Z</time>
      </trkpt>
      <trkpt lat="43.59324" lon="1.44288">
        <ele>141.647</ele>
        <time>2019-12-05T20:08:52Z</time>
      </trkpt>
      <trkpt lat="43.59454" lon="1.44064">
        <ele>134.964</ele>
        <time>2019-12-05T20:09:12Z</time>
      </trkpt>
      <trkpt lat="43.59778" lon="1.44016">
        <ele>146.055</ele>
        <time>2021-04-17T16:55:30Z</time>
      </trkpt>
      <trkpt lat="43.59963" lon="1.4406">
        <ele>148.654</ele>
        <time>2021-04-17T16:55:50Z</time>
      </trkpt>
      <trkpt lat="43.60092" lon="1.43926">
        <ele>141.655</ele>
        <time>2021-04-17T16:56:10Z</time>
      </trkpt>
      <trkpt lat="43.6013" lon="1.43977">
        <ele>148.476</ele>
        <time>2021-04-17T16:56:30Z</time>
      </trkpt>
      <trkpt lat="43.60183" lon="1.43902">
        <ele>145.69</ele>
        <time>2021-04-17T16:56:50Z</time>
      </trkpt>
      <trkpt lat="43.60146" lon="1.43839">
        <ele>141.219</ele>
        <time>2021-04-17T16:57:10Z</time>
      </trkpt>
      <trkpt lat="43.60377" lon="1.4343">
        <ele>135.908</ele>
        <time>2016-12-30T11:10:05Z</time>
      </trkpt>
      <trkpt lat="43.60434" lon="1.43459">
        <ele>138.834</ele>
        <time>2016-12-30T11:10:25Z</time>
      </trkpt>
      <trkpt lat="43.60504" lon="1.43461">
        <ele>139.097</ele>
        <time>2016-12-30T11:10:45Z</time>
      </trkpt>
      <trkpt lat="43.60545" lon="1.4339">
        <ele>138.633</ele>
        <time>2016-12-30T11:11:05Z</time>
      </trkpt>
      <trkpt lat="43.609" lon="1.42394">
        <ele>146.172</ele>
        <time>2021-04-17T16:58:50Z</time>
      </trkpt>
      <trkpt lat="43.6086" lon="1.4235">
        <ele>144.289</ele>
        <time>2021-04-17T16:59:10Z</time>
      </trkpt>
      <trkpt lat="43.61012" lon="1.41937">
        <ele>134.47</ele>
        <time>2016-12-30T11:12:05Z</time>
      </trkpt>
      <trkpt lat="43.6086" lon="1.41608">
        <ele>136.919</ele>
        <time>2021-04-17T16:59:50Z</time>
      </trkpt>
      <trkpt lat="43.60888" lon="1.41584">
        <ele>131.08</ele>
        <time>2016-12-30T11:12:45Z</time>
      </trkpt>
      <trkpt lat="43.60872" lon="1.4153">
        <ele>130.477</ele>
        <time>2016-12-30T11:13:05Z</time>
      </trkpt>
      <trkpt lat="43.60851" lon="1.41534">
        <ele>130.161</ele>
        <time>2016-12-30T11:13:25Z</time>
      </trkpt>
      <trkpt lat="43.60817" lon="1.41491">
        <ele>127.127</ele>
        <time>2016-12-30T11:13:45Z</time>
      </trkpt>
      <trkpt lat="43.6098" lon="1.41201">
        <ele>126.308</ele>
        <time>2016-12-30T11:14:05Z</time>
      </trkpt>
      <trkpt lat="43.61074" lon="1.41061">
        <ele>125.134</ele>
        <time>2016-12-30T11:14:25Z</time>
      </trkpt>
      <trkpt lat="43.61291" lon="1.40813">
        <ele>125.017</ele>
        <time>2016-12-30T11:14:45Z</time>
      </trkpt>
      <trkpt lat="43.6143" lon="1.4065">
        <ele>125.043</ele>
        <time>2016-12-30T11:15:05Z</time>
      </trkpt>
      <trkpt lat="43.61565" lon="1.40522">
        <ele>125.062</ele>
        <time>2016-12-30T11:15:25Z</time>
      </trkpt>
      <trkpt lat="43.61675" lon="1.40422">
        <ele>125.099</ele>
        <time>2016-12-30T11:15:45Z</time>
      </trkpt>
      <trkpt lat="43.619" lon="1.40329">
        <ele>125.39</ele>
        <time>2016-12-30T11:16:05Z</time>
      </trkpt>
      <trkpt lat="43.62227" lon="1.40214">
        <ele>124.769</ele>
        <time>2021-04-17T17:03:50Z</time>
      </trkpt>
      <trkpt lat="43.62298" lon="1.40217">
        <ele>125.06</ele>
        <time>2016-12-30T11:16:45Z</time>
      </trkpt>
      <trkpt lat="43.62461" lon="1.40212">
        <ele>126.762</ele>
        <time>2021-04-17T17:04:30Z</time>
      </trkpt>
      <trkpt lat="43.62476" lon="1.40016">
        <ele>125.883</ele>
        <time>2016-12-30T11:17:25Z</time>
      </trkpt>
      <trkpt lat="43.6283" lon="1.40047">
        <ele>124.911</ele>
        <time>2016-12-30T11:17:45Z</time>
      </trkpt>
      <trkpt lat="43.63108" lon="1.40107">
        <ele>124.008</ele>
        <time>2016-12-30T11:18:05Z</time>
      </trkpt>
      <trkpt lat="43.63297" lon="1.40179">
        <ele>127.123</ele>
        <time>2021-04-17T17:05:50Z</time>
      </trkpt>
      <trkpt lat="43.63304" lon="1.40048">
        <ele>131.876</ele>
        <time>2021-04-17T17:06:10Z</time>
      </trkpt>
      <trkpt lat="43.63341" lon="1.39998">
        <ele>130.622</ele>
        <time>2016-12-30T11:19:25Z</time>
      </trkpt>
      <trkpt lat="43.63384" lon="1.39987">
        <ele>131.241</ele>
        <time>2016-12-30T11:19:45Z</time>
      </trkpt>
      <trkpt lat="43.63404" lon="1.4">
        <ele>130.068</ele>
        <time>2016-12-30T11:20:05Z</time>
      </trkpt>
      <trkpt lat="43.63424" lon="1.3999">
        <ele>137.329</ele>
        <time>2021-04-17T17:07:30Z</time>
      </trkpt>
      <trkpt lat="43.63431" lon="1.39948">
        <ele>138.618</ele>
        <time>2021-04-17T17:07:50Z</time>
      </trkpt>
      <trkpt lat="43.6343" lon="1.39902">
        <ele>133.579</ele>
        <time>2016-12-30T11:21:05Z</time>
      </trkpt>
      <trkpt lat="43.63439" lon="1.3987">
        <ele>134.162</ele>
        <time>2016-12-30T11:21:25Z</time>
      </trkpt>
      <trkpt lat="43.63453" lon="1.39685">
        <ele>135.083</ele>
        <time>2016-12-30T11:21:45Z</time>
      </trkpt>
      <trkpt lat="43.63467" lon="1.39684">
        <ele>135.011</ele>
        <time>2016-12-30T11:22:05Z</time>
      </trkpt>
      <trkpt lat="43.63463" lon="1.39569">
        <ele>136.208</ele>
        <time>2016-12-30T11:22:25Z</time>
      </trkpt>
      <trkpt lat="43.63451" lon="1.39463">
        <ele>138.063</ele>
        <time>2016-12-30T11:22:45Z</time>
      </trkpt>
      <trkpt lat="43.6345" lon="1.39191">
        <ele>144.156</ele>
        <time>2016-12-30T11:23:05Z</time>
      </trkpt>
      <trkpt lat="43.63402" lon="1.39035">
        <ele>150.412</ele>
        <time>2021-04-17T17:10:30Z</time>
      </trkpt>
      <trkpt lat="43.63442" lon="1.39017">
        <ele>150.311</ele>
        <time>2021-04-17T17:10:50Z</time>
      </trkpt>
      <trkpt lat="43.63462" lon="1.39033">
        <ele>145.068</ele>
        <time>2016-12-30T11:23:45Z</time>
      </trkpt>
      <trkpt lat="43.63453" lon="1.38987">
        <ele>145.039</ele>
        <time>2016-12-30T11:24:05Z</time>
      </trkpt>
      <trkpt lat="43.63463" lon="1.38959">
        <ele>145.248</ele>
        <time>2016-12-30T11:24:25Z</time>
      </trkpt>
      <trkpt lat="43.63441" lon="1.38866">
        <ele>146.069</ele>
        <time>2016-12-30T11:24:45Z</time>
      </trkpt>
      <trkpt lat="43.63408" lon="1.386">
        <ele>147.141</ele>
        <time>2016-12-30T11:25:05Z</time>
      </trkpt>
      <trkpt lat="43.63357" lon="1.38614">
        <ele>147.081</ele>
        <time>2016-12-30T11:25:25Z</time>
      </trkpt>
      <trkpt lat="43.63338" lon="1.38568">
        <ele>147.109</ele>
        <time>2016-12-30T11:25:45Z</time>
      </trkpt>
      <trkpt lat="43.63309" lon="1.38454">
        <ele>147.108</ele>
        <time>2016-12-30T11:26:05Z</time>
      </trkpt>
      <trkpt lat="43.6331" lon="1.38402">
        <ele>147.271</ele>
        <time>2016-12-30T11:26:25Z</time>
      </trkpt>
      <trkpt lat="43.63274" lon="1.38326">
        <ele>147.194</ele>
        <time>2016-12-30T11:26:45Z</time>
      </trkpt>
      <trkpt lat="43.63277" lon="1.38118">
        <ele>147.02</ele>
        <time>2016-12-30T11:27:05Z</time>
      </trkpt>
      <trkpt lat="43.63494" lon="1.37936">
        <ele>147.049</ele>
        <time>2016-12-30T11:27:25Z</time>
      </trkpt>
      <trkpt lat="43.63724" lon="1.37766">
        <ele>147.046</ele>
        <time>2016-12-30T11:27:45Z</time>
      </trkpt>
      <trkpt lat="43.63739" lon="1.37801">
        <ele>147.037</ele>
        <time>2016-12-30T11:28:05Z</time>
      </trkpt>
      <trkpt lat="43.63776" lon="1.37806">
        <ele>146.146</ele>
        <time>2016-12-30T11:28:25Z</time>
      </trkpt>
      <trkpt lat="43.6378" lon="1.37745">
        <ele>147.767</ele>
        <time>2021-04-17T17:16:10Z</time>
      </trkpt>
      <trkpt lat="43.63815" lon="1.37719">
        <ele>148.812</ele>
        <time>2021-04-17T17:16:30Z</time>
      </trkpt>
      <trkpt lat="43.6388" lon="1.37776">
        <ele>150.132</ele>
        <time>2021-04-17T17:16:50Z</time>
      </trkpt>
      <trkpt lat="43.63994" lon="1.377">
        <ele>145.005</ele>
        <time>2016-12-30T11:30:25Z</time>
      </trkpt>
      <trkpt lat="43.64067" lon="1.37564">
        <ele>145.708</ele>
        <time>2016-12-30T11:32:25Z</time>
      </trkpt>
      <trkpt lat="43.64131" lon="1.37583">
        <ele>145.098</ele>
        <time>2016-12-30T11:32:45Z</time>
      </trkpt>
      <trkpt lat="43.6416" lon="1.37593">
        <ele>145.531</ele>
        <time>2016-12-30T11:33:05Z</time>
      </trkpt>
      <trkpt lat="43.64146" lon="1.37654">
        <ele>145.037</ele>
        <time>2016-12-30T11:33:25Z</time>
      </trkpt>
      <trkpt lat="43.64203" lon="1.37674">
        <ele>146.076</ele>
        <time>2021-04-17T17:18:50Z</time>
      </trkpt>
      <trkpt lat="43.64217" lon="1.37772">
        <ele>146.183</ele>
        <time>2021-04-17T17:19:10Z</time>
      </trkpt>
      <trkpt lat="43.64286" lon="1.37735">
        <ele>144.934</ele>
        <time>2021-04-17T17:19:30Z</time>
      </trkpt>
      <trkpt lat="43.64323" lon="1.37752">
        <ele>144.173</ele>
        <time>2021-04-17T17:19:50Z</time>
      </trkpt>
      <trkpt lat="43.64349" lon="1.37795">
        <ele>145.034</ele>
        <time>2016-12-30T11:34:45Z</time>
      </trkpt>
      <trkpt lat="43.6443" lon="1.37811">
        <ele>145.017</ele>
        <time>2016-12-30T11:35:05Z</time>
      </trkpt>
      <trkpt lat="43.64515" lon="1.3787">
        <ele>144.087</ele>
        <time>2016-12-30T11:35:25Z</time>
      </trkpt>
      <trkpt lat="43.64595" lon="1.37871">
        <ele>143.915</ele>
        <time>2016-12-30T11:35:45Z</time>
      </trkpt>
      <trkpt lat="43.64639" lon="1.3788">
        <ele>143.008</ele>
        <time>2016-12-30T11:36:05Z</time>
      </trkpt>
      <trkpt lat="43.64716" lon="1.37876">
        <ele>143.088</ele>
        <time>2016-12-30T11:36:25Z</time>
      </trkpt>
      <trkpt lat="43.6476" lon="1.37864">
        <ele>145.821</ele>
        <time>2021-04-17T17:22:10Z</time>
      </trkpt>
      <trkpt lat="43.64757" lon="1.37831">
        <ele>143.067</ele>
        <time>2019-02-28T16:31:46Z</time>
      </trkpt>
      <trkpt lat="43.64784" lon="1.37807">
        <ele>143.056</ele>
        <time>2019-02-28T16:32:06Z</time>
      </trkpt>
      <trkpt lat="43.64813" lon="1.37735">
        <ele>143.413</ele>
        <time>2019-02-28T16:32:26Z</time>
      </trkpt>
      <trkpt lat="43.64862" lon="1.37654">
        <ele>147.314</ele>
        <time>2021-04-17T17:23:30Z</time>
      </trkpt>
      <trkpt lat="43.64861" lon="1.37586">
        <ele>147.353</ele>
        <time>2021-04-17T17:23:50Z</time>
      </trkpt>
      <trkpt lat="43.64883" lon="1.37593">
        <ele>147.594</ele>
        <time>2021-04-17T17:24:10Z</time>
      </trkpt>
      <trkpt lat="43.64907" lon="1.37541">
        <ele>145.032</ele>
        <time>2019-02-28T16:33:06Z</time>
      </trkpt>
      <trkpt lat="43.65116" lon="1.3745">
        <ele>145.792</ele>
        <time>2021-04-17T17:24:50Z</time>
      </trkpt>
      <trkpt lat="43.65198" lon="1.37443">
        <ele>144.511</ele>
        <time>2021-04-17T17:25:10Z</time>
      </trkpt>
      <trkpt lat="43.65306" lon="1.37455">
        <ele>144.208</ele>
        <time>2021-04-17T17:25:30Z</time>
      </trkpt>
      <trkpt lat="43.65376" lon="1.37442">
        <ele>144.29</ele>
        <time>2021-04-17T17:25:50Z</time>
      </trkpt>
      <trkpt lat="43.65819" lon="1.37115">
        <ele>145.063</ele>
        <time>2021-04-17T17:26:10Z</time>
      </trkpt>
      <trkpt lat="43.65787" lon="1.37029">
        <ele>144.029</ele>
        <time>2019-02-28T16:35:06Z</time>
      </trkpt>
      <trkpt lat="43.65731" lon="1.36969">
        <ele>144.018</ele>
        <time>2019-02-28T16:35:26Z</time>
      </trkpt>
      <trkpt lat="43.65725" lon="1.36926">
        <ele>144.055</ele>
        <time>2019-02-28T16:35:46Z</time>
      </trkpt>
      <trkpt lat="43.6583" lon="1.36685">
        <ele>144.046</ele>
        <time>2019-02-28T16:36:06Z</time>
      </trkpt>
      <trkpt lat="43.65886" lon="1.3664">
        <ele>144.045</ele>
        <time>2019-02-28T16:36:26Z</time>
      </trkpt>
      <trkpt lat="43.65792" lon="1.36293">
        <ele>144.016</ele>
        <time>2016-12-30T11:41:05Z</time>
      </trkpt>
      <trkpt lat="43.65788" lon="1.36136">
        <ele>145.526</ele>
        <time>2021-04-17T17:28:30Z</time>
      </trkpt>
      <trkpt lat="43.65872" lon="1.36001">
        <ele>144.647</ele>
        <time>2021-04-17T17:28:50Z</time>
      </trkpt>
      <trkpt lat="43.65801" lon="1.35934">
        <ele>145.711</ele>
        <time>2021-04-17T17:29:10Z</time>
      </trkpt>
      <trkpt lat="43.65795" lon="1.35859">
        <ele>144.008</ele>
        <time>2016-12-30T11:42:25Z</time>
      </trkpt>
      <trkpt lat="43.65937" lon="1.35836">
        <ele>144.029</ele>
        <time>2016-12-30T11:42:45Z</time>
      </trkpt>
      <trkpt lat="43.65943" lon="1.35837">
        <ele>144.052</ele>
        <time>2016-12-30T11:43:05Z</time>
      </trkpt>
      <trkpt lat="43.66109" lon="1.35815">
        <ele>143.337</ele>
        <time>2016-12-30T11:43:45Z</time>
      </trkpt>
      <trkpt lat="43.66157" lon="1.35687">
        <ele>143.094</ele>
        <time>2016-12-30T11:44:05Z</time>
      </trkpt>
      <trkpt lat="43.66097" lon="1.35573">
        <ele>143.055</ele>
        <time>2016-12-30T11:44:25Z</time>
      </trkpt>
      <trkpt lat="43.66051" lon="1.35378">
        <ele>143.424</ele>
        <time>2016-12-30T11:44:45Z</time>
      </trkpt>
      <trkpt lat="43.6602" lon="1.34991">
        <ele>146.055</ele>
        <time>2016-12-30T11:45:05Z</time>
      </trkpt>
      <trkpt lat="43.66035" lon="1.34895">
        <ele>146.055</ele>
        <time>2016-12-30T11:45:25Z</time>
      </trkpt>
      <trkpt lat="43.66022" lon="1.34771">
        <ele>147.007</ele>
        <time>2016-12-30T11:45:45Z</time>
      </trkpt>
      <trkpt lat="43.66032" lon="1.34708">
        <ele>147.017</ele>
        <time>2016-12-30T11:46:05Z</time>
      </trkpt>
      <trkpt lat="43.66007" lon="1.34558">
        <ele>147.008</ele>
        <time>2016-12-30T11:46:25Z</time>
      </trkpt>
      <trkpt lat="43.65952" lon="1.34459">
        <ele>146.942</ele>
        <time>2016-12-30T11:46:45Z</time>
      </trkpt>
      <trkpt lat="43.65839" lon="1.34356">
        <ele>146.045</ele>
        <time>2016-12-30T11:47:05Z</time>
      </trkpt>
      <trkpt lat="43.65803" lon="1.34269">
        <ele>146.091</ele>
        <time>2016-12-30T11:47:25Z</time>
      </trkpt>
      <trkpt lat="43.65764" lon="1.3395">
        <ele>146.51</ele>
        <time>2016-12-30T11:47:45Z</time>
      </trkpt>
      <trkpt lat="43.65758" lon="1.33755">
        <ele>147.037</ele>
        <time>2016-12-30T11:48:05Z</time>
      </trkpt>
      <trkpt lat="43.65792" lon="1.3364">
        <ele>147.038</ele>
        <time>2016-12-30T11:48:25Z</time>
      </trkpt>
      <trkpt lat="43.65862" lon="1.33521">
        <ele>147.057</ele>
        <time>2016-12-30T11:48:45Z</time>
      </trkpt>
      <trkpt lat="43.65535" lon="1.3332">
        <ele>147.028</ele>
        <time>2016-12-30T11:49:05Z</time>
      </trkpt>
      <trkpt lat="43.65262" lon="1.33194">
        <ele>150.043</ele>
        <time>2016-12-30T11:49:25Z</time>
      </trkpt>
      <trkpt lat="43.65376" lon="1.33114">
        <ele>146.564</ele>
        <time>2016-12-30T11:49:45Z</time>
      </trkpt>
      <trkpt lat="43.65417" lon="1.33042">
        <ele>142.01</ele>
        <time>2016-12-30T11:50:05Z</time>
      </trkpt>
      <trkpt lat="43.65479" lon="1.32864">
        <ele>140.008</ele>
        <time>2016-12-30T11:51:25Z</time>
      </trkpt>
      <trkpt lat="43.65535" lon="1.32806">
        <ele>140.031</ele>
        <time>2016-12-30T11:51:45Z</time>
      </trkpt>
      <trkpt lat="43.65671" lon="1.32737">
        <ele>140.044</ele>
        <time>2016-12-30T11:52:05Z</time>
      </trkpt>
      <trkpt lat="43.65474" lon="1.32661">
        <ele>142.01</ele>
        <time>2016-12-30T11:52:25Z</time>
      </trkpt>
      <trkpt lat="43.65421" lon="1.32622">
        <ele>141.269</ele>
        <time>2016-12-30T11:52:45Z</time>
      </trkpt>
      <trkpt lat="43.65332" lon="1.32352">
        <ele>142.086</ele>
        <time>2016-12-30T11:53:05Z</time>
      </trkpt>
      <trkpt lat="43.65244" lon="1.32427">
        <ele>140.097</ele>
        <time>2016-12-30T11:53:25Z</time>
      </trkpt>
      <trkpt lat="43.65215" lon="1.32413">
        <ele>140.046</ele>
        <time>2016-12-30T11:53:45Z</time>
      </trkpt>
      <trkpt lat="43.65183" lon="1.32413">
        <ele>140.057</ele>
        <time>2016-12-30T11:54:05Z</time>
      </trkpt>
      <trkpt lat="43.65176" lon="1.32437">
        <ele>140.036</ele>
        <time>2016-12-30T11:54:25Z</time>
      </trkpt>
      <trkpt lat="43.65158" lon="1.32437">
        <ele>140.017</ele>
        <time>2016-12-30T11:54:45Z</time>
      </trkpt>
      <trkpt lat="43.65138" lon="1.32471">
        <ele>140.018</ele>
        <time>2016-12-30T11:55:05Z</time>
      </trkpt>
      <trkpt lat="43.65152" lon="1.32487">
        <ele>140.008</ele>
        <time>2016-12-30T11:55:25Z</time>
      </trkpt>
      <trkpt lat="43.65154" lon="1.32499">
        <ele>140.03</ele>
        <time>2016-12-30T11:55:45Z</time>
      </trkpt>
      <trkpt lat="43.65129" lon="1.32499">
        <ele>140.083</ele>
        <time>2016-12-30T11:56:05Z</time>
      </trkpt>
      <trkpt lat="43.651" lon="1.324">
        <ele>140.099</ele>
        <time>2016-12-30T11:56:25Z</time>
      </trkpt>
      <trkpt lat="43.65131" lon="1.32355">
        <ele>140.058</ele>
        <time>2016-12-30T11:56:45Z</time>
      </trkpt>
      <trkpt lat="43.65111" lon="1.32306">
        <ele>140.015</ele>
        <time>2016-12-30T11:57:05Z</time>
      </trkpt>
      <trkpt lat="43.651" lon="1.32264">
        <ele>140.026</ele>
        <time>2016-12-30T11:57:25Z</time>
      </trkpt>
      <trkpt lat="43.65072" lon="1.3224">
        <ele>140.055</ele>
        <time>2016-12-30T11:57:45Z</time>
      </trkpt>
      <trkpt lat="43.65047" lon="1.32193">
        <ele>140.066</ele>
        <time>2016-12-30T11:58:05Z</time>
      </trkpt>
      <trkpt lat="43.64915" lon="1.3228">
        <ele>140.084</ele>
        <time>2016-12-30T11:58:25Z</time>
      </trkpt>
      <trkpt lat="43.64881" lon="1.32286">
        <ele>140.107</ele>
        <time>2016-12-30T11:58:45Z</time>
      </trkpt>
      <trkpt lat="43.64858" lon="1.3233">
        <ele>142.817</ele>
        <time>2016-12-30T11:59:05Z</time>
      </trkpt>
      <trkpt lat="43.64809" lon="1.32383">
        <ele>147.608</ele>
        <time>2016-12-30T11:59:25Z</time>
      </trkpt>
      <trkpt lat="43.64788" lon="1.32469">
        <ele>151.875</ele>
        <time>2016-12-30T11:59:45Z</time>
      </trkpt>
      <trkpt lat="43.6479" lon="1.32501">
        <ele>152.848</ele>
        <time>2016-12-30T12:00:05Z</time>
      </trkpt>
      <trkpt lat="43.64783" lon="1.32511">
        <ele>150.014</ele>
        <time>2016-12-30T12:00:25Z</time>
      </trkpt>
      <trkpt lat="43.6473" lon="1.32503">
        <ele>140.783</ele>
        <time>2016-12-30T12:00:45Z</time>
      </trkpt>
      <trkpt lat="43.64722" lon="1.3248">
        <ele>140.08</ele>
        <time>2016-12-30T12:01:05Z</time>
      </trkpt>
      <trkpt lat="43.64568" lon="1.32369">
        <ele>142.721</ele>
        <time>2016-12-30T12:01:25Z</time>
      </trkpt>
      <trkpt lat="43.6445" lon="1.32297">
        <ele>144.85</ele>
        <time>2016-12-30T12:01:45Z</time>
      </trkpt>
      <trkpt lat="43.64372" lon="1.32177">
        <ele>147.331</ele>
        <time>2016-12-30T12:02:05Z</time>
      </trkpt>
      <trkpt lat="43.64308" lon="1.32041">
        <ele>147.172</ele>
        <time>2016-12-30T12:02:25Z</time>
      </trkpt>
      <trkpt lat="43.64276" lon="1.31936">
        <ele>147.913</ele>
        <time>2016-12-30T12:03:25Z</time>
      </trkpt>
      <trkpt lat="43.64194" lon="1.3187">
        <ele>145.014</ele>
        <time>2016-12-30T12:03:45Z</time>
      </trkpt>
      <trkpt lat="43.63966" lon="1.31754">
        <ele>145.008</ele>
        <time>2016-12-30T12:04:05Z</time>
      </trkpt>
      <trkpt lat="43.63868" lon="1.31672">
        <ele>145.934</ele>
        <time>2016-12-30T12:04:25Z</time>
      </trkpt>
      <trkpt lat="43.6382" lon="1.31609">
        <ele>145.567</ele>
        <time>2016-12-30T12:04:45Z</time>
      </trkpt>
      <trkpt lat="43.6373" lon="1.31424">
        <ele>146.243</ele>
        <time>2016-12-30T12:05:05Z</time>
      </trkpt>
      <trkpt lat="43.6368" lon="1.31242">
        <ele>147.422</ele>
        <time>2016-12-30T12:05:25Z</time>
      </trkpt>
      <trkpt lat="43.63647" lon="1.31205">
        <ele>147.259</ele>
        <time>2016-12-30T12:05:45Z</time>
      </trkpt>
      <trkpt lat="43.63612" lon="1.31114">
        <ele>149.92</ele>
        <time>2016-12-30T12:06:05Z</time>
      </trkpt>
      <trkpt lat="43.63595" lon="1.31097">
        <ele>149.059</ele>
        <time>2016-12-30T12:06:25Z</time>
      </trkpt>
      <trkpt lat="43.63528" lon="1.30971">
        <ele>147.02</ele>
        <time>2016-12-30T12:06:45Z</time>
      </trkpt>
      <trkpt lat="43.63424" lon="1.30922">
        <ele>146.895</ele>
        <time>2016-12-30T12:07:05Z</time>
      </trkpt>
      <trkpt lat="43.63298" lon="1.30748">
        <ele>147.549</ele>
        <time>2016-12-30T12:07:25Z</time>
      </trkpt>
      <trkpt lat="43.63282" lon="1.30748">
        <ele>146.323</ele>
        <time>2016-12-30T12:07:45Z</time>
      </trkpt>
      <trkpt lat="43.63259" lon="1.30792">
        <ele>145.008</ele>
        <time>2016-12-30T12:08:05Z</time>
      </trkpt>
      <trkpt lat="43.63233" lon="1.30744">
        <ele>145.016</ele>
        <time>2016-12-30T12:08:25Z</time>
      </trkpt>
      <trkpt lat="43.63232" lon="1.30704">
        <ele>145.079</ele>
        <time>2016-12-30T12:08:45Z</time>
      </trkpt>
      <trkpt lat="43.63213" lon="1.30689">
        <ele>145.095</ele>
        <time>2016-12-30T12:09:05Z</time>
      </trkpt>
      <trkpt lat="43.63201" lon="1.30366">
        <ele>145.084</ele>
        <time>2016-12-30T12:09:25Z</time>
      </trkpt>
      <trkpt lat="43.63182" lon="1.30365">
        <ele>145.091</ele>
        <time>2016-12-30T12:09:45Z</time>
      </trkpt>
      <trkpt lat="43.63088" lon="1.30468">
        <ele>145.082</ele>
        <time>2016-12-30T12:10:05Z</time>
      </trkpt>
      <trkpt lat="43.6301" lon="1.30408">
        <ele>149.621</ele>
        <time>2021-04-17T17:55:50Z</time>
      </trkpt>
      <trkpt lat="43.62944" lon="1.30276">
        <ele>147.092</ele>
        <time>2016-12-30T12:12:05Z</time>
      </trkpt>
      <trkpt lat="43.6277" lon="1.30194">
        <ele>150.087</ele>
        <time>2019-02-28T17:08:26Z</time>
      </trkpt>
      <trkpt lat="43.62738" lon="1.30201">
        <ele>150.142</ele>
        <time>2019-02-28T17:08:46Z</time>
      </trkpt>
      <trkpt lat="43.62767" lon="1.30154">
        <ele>150.026</ele>
        <time>2019-02-28T17:09:06Z</time>
      </trkpt>
      <trkpt lat="43.62817" lon="1.30023">
        <ele>150.008</ele>
        <time>2019-02-28T17:09:26Z</time>
      </trkpt>
      <trkpt lat="43.62675" lon="1.29831">
        <ele>150.165</ele>
        <time>2019-02-28T17:09:46Z</time>
      </trkpt>
      <trkpt lat="43.62529" lon="1.29688">
        <ele>154.248</ele>
        <time>2019-02-28T17:10:06Z</time>
      </trkpt>
      <trkpt lat="43.62456" lon="1.29598">
        <ele>154.244</ele>
        <time>2019-02-28T17:10:26Z</time>
      </trkpt>
      <trkpt lat="43.62394" lon="1.29457">
        <ele>156.943</ele>
        <time>2019-02-28T17:10:46Z</time>
      </trkpt>
      <trkpt lat="43.62361" lon="1.29228">
        <ele>155.06</ele>
        <time>2019-02-28T17:11:06Z</time>
      </trkpt>
      <trkpt lat="43.62327" lon="1.29141">
        <ele>153.541</ele>
        <time>2019-02-28T17:11:26Z</time>
      </trkpt>
      <trkpt lat="43.62267" lon="1.29031">
        <ele>152.49</ele>
        <time>2019-02-28T17:11:46Z</time>
      </trkpt>
      <trkpt lat="43.62255" lon="1.28848">
        <ele>153.811</ele>
        <time>2016-12-30T12:15:05Z</time>
      </trkpt>
      <trkpt lat="43.62284" lon="1.28742">
        <ele>154.115</ele>
        <time>2016-12-30T12:15:25Z</time>
      </trkpt>
      <trkpt lat="43.62276" lon="1.28694">
        <ele>154.165</ele>
        <time>2016-12-30T12:15:45Z</time>
      </trkpt>
      <trkpt lat="43.62145" lon="1.28701">
        <ele>157.811</ele>
        <time>2016-12-30T12:16:05Z</time>
      </trkpt>
      <trkpt lat="43.61942" lon="1.28644">
        <ele>176.508</ele>
        <time>2016-12-30T12:16:25Z</time>
      </trkpt>
      <trkpt lat="43.61912" lon="1.28613">
        <ele>177.488</ele>
        <time>2016-12-30T12:16:45Z</time>
      </trkpt>
      <trkpt lat="43.61881" lon="1.28551">
        <ele>178.411</ele>
        <time>2016-12-30T12:17:05Z</time>
      </trkpt>
      <trkpt lat="43.61898" lon="1.28533">
        <ele>182.097</ele>
        <time>2021-04-17T18:02:30Z</time>
      </trkpt>
      <trkpt lat="43.61884" lon="1.28488">
        <ele>183.726</ele>
        <time>2021-04-17T18:02:50Z</time>
      </trkpt>
      <trkpt lat="43.61933" lon="1.28439">
        <ele>179.483</ele>
        <time>2016-12-30T12:18:05Z</time>
      </trkpt>
      <trkpt lat="43.61909" lon="1.28212">
        <ele>180.844</ele>
        <time>2016-12-30T12:18:25Z</time>
      </trkpt>
      <trkpt lat="43.61915" lon="1.28117">
        <ele>178.533</ele>
        <time>2016-12-30T12:18:45Z</time>
      </trkpt>
      <trkpt lat="43.62086" lon="1.28104">
        <ele>160.034</ele>
        <time>2021-04-17T18:04:10Z</time>
      </trkpt>
      <trkpt lat="43.62112" lon="1.28088">
        <ele>159.396</ele>
        <time>2021-04-17T18:04:30Z</time>
      </trkpt>
      <trkpt lat="43.62179" lon="1.28086">
        <ele>158.431</ele>
        <time>2021-04-17T18:04:50Z</time>
      </trkpt>
      <trkpt lat="43.62223" lon="1.28109">
        <ele>159.924</ele>
        <time>2021-04-17T18:05:10Z</time>
      </trkpt>
      <trkpt lat="43.62311" lon="1.28118">
        <ele>168.908</ele>
        <time>2021-04-17T18:05:30Z</time>
      </trkpt>
      <trkpt lat="43.62312" lon="1.28041">
        <ele>167.886</ele>
        <time>2021-04-17T18:05:50Z</time>
      </trkpt>
      <trkpt lat="43.62284" lon="1.27867">
        <ele>166.849</ele>
        <time>2021-04-17T18:06:10Z</time>
      </trkpt>
      <trkpt lat="43.62222" lon="1.27631">
        <ele>167.585</ele>
        <time>2021-04-17T18:06:30Z</time>
      </trkpt>
      <trkpt lat="43.62142" lon="1.27384">
        <ele>165.234</ele>
        <time>2021-04-17T18:06:50Z</time>
      </trkpt>
      <trkpt lat="43.62125" lon="1.27253">
        <ele>162.511</ele>
        <time>2016-12-30T12:22:05Z</time>
      </trkpt>
      <trkpt lat="43.62131" lon="1.27203">
        <ele>163.732</ele>
        <time>2016-12-30T12:22:25Z</time>
      </trkpt>
      <trkpt lat="43.62131" lon="1.27198">
        <ele>163.791</ele>
        <time>2016-12-30T12:22:45Z</time>
      </trkpt>
      <trkpt lat="43.62043" lon="1.26717">
        <ele>164.752</ele>
        <time>2016-12-30T12:23:05Z</time>
      </trkpt>
      <trkpt lat="43.6201" lon="1.26466">
        <ele>165.881</ele>
        <time>2016-12-30T12:23:25Z</time>
      </trkpt>
      <trkpt lat="43.61975" lon="1.26289">
        <ele>166.361</ele>
        <time>2016-12-30T12:24:25Z</time>
      </trkpt>
      <trkpt lat="43.61937" lon="1.26303">
        <ele>165.017</ele>
        <time>2016-12-30T12:24:45Z</time>
      </trkpt>
      <trkpt lat="43.61916" lon="1.26022">
        <ele>167.208</ele>
        <time>2016-12-30T12:25:05Z</time>
      </trkpt>
      <trkpt lat="43.61889" lon="1.25907">
        <ele>169.315</ele>
        <time>2016-12-30T12:25:25Z</time>
      </trkpt>
      <trkpt lat="43.61834" lon="1.25782">
        <ele>174.538</ele>
        <time>2021-04-17T18:10:10Z</time>
      </trkpt>
      <trkpt lat="43.61857" lon="1.25524">
        <ele>180.814</ele>
        <time>2021-04-17T18:10:30Z</time>
      </trkpt>
      <trkpt lat="43.61894" lon="1.2533">
        <ele>188.853</ele>
        <time>2021-04-17T18:10:50Z</time>
      </trkpt>
      <trkpt lat="43.61941" lon="1.25271">
        <ele>189.83</ele>
        <time>2021-04-17T18:11:10Z</time>
      </trkpt>
      <trkpt lat="43.62021" lon="1.25152">
        <ele>188.521</ele>
        <time>2021-04-17T18:11:30Z</time>
      </trkpt>
      <trkpt lat="43.62125" lon="1.25054">
        <ele>188.22</ele>
        <time>2021-04-17T18:11:50Z</time>
      </trkpt>
      <trkpt lat="43.62232" lon="1.24943">
        <ele>188.551</ele>
        <time>2021-04-17T18:12:10Z</time>
      </trkpt>
      <trkpt lat="43.62284" lon="1.24859">
        <ele>189.694</ele>
        <time>2021-04-17T18:12:30Z</time>
      </trkpt>
      <trkpt lat="43.62343" lon="1.24888">
        <ele>190.957</ele>
        <time>2021-04-17T18:12:50Z</time>
      </trkpt>
      <trkpt lat="43.62576" lon="1.25026">
        <ele>189.222</ele>
        <time>2021-04-17T18:13:10Z</time>
      </trkpt>
      <trkpt lat="43.62664" lon="1.25055">
        <ele>189.308</ele>
        <time>2021-04-17T18:13:30Z</time>
      </trkpt>
      <trkpt lat="43.62734" lon="1.25055">
        <ele>190.746</ele>
        <time>2021-04-17T18:13:50Z</time>
      </trkpt>
      <trkpt lat="43.62833" lon="1.2509">
        <ele>189.119</ele>
        <time>2021-04-17T18:14:10Z</time>
      </trkpt>
      <trkpt lat="43.6292" lon="1.25159">
        <ele>188.895</ele>
        <time>2021-04-17T18:14:30Z</time>
      </trkpt>
      <trkpt lat="43.62997" lon="1.25241">
        <ele>189.614</ele>
        <time>2021-04-17T18:14:50Z</time>
      </trkpt>
      <trkpt lat="43.63082" lon="1.25345">
        <ele>188.281</ele>
        <time>2021-04-17T18:15:10Z</time>
      </trkpt>
      <trkpt lat="43.63151" lon="1.25397">
        <ele>189.652</ele>
        <time>2021-04-17T18:15:30Z</time>
      </trkpt>
      <trkpt lat="43.63206" lon="1.25451">
        <ele>188.461</ele>
        <time>2021-04-17T18:15:50Z</time>
      </trkpt>
      <trkpt lat="43.63302" lon="1.25531">
        <ele>187.492</ele>
        <time>2021-04-17T18:16:10Z</time>
      </trkpt>
      <trkpt lat="43.63363" lon="1.25368">
        <ele>185.751</ele>
        <time>2021-04-17T18:16:30Z</time>
      </trkpt>
      <trkpt lat="43.63344" lon="1.25207">
        <ele>185.401</ele>
        <time>2021-04-17T18:16:50Z</time>
      </trkpt>
      <trkpt lat="43.63329" lon="1.24828">
        <ele>187.111</ele>
        <time>2021-04-17T18:17:10Z</time>
      </trkpt>
      <trkpt lat="43.63335" lon="1.24667">
        <ele>188.008</ele>
        <time>2021-04-17T18:17:30Z</time>
      </trkpt>
      <trkpt lat="43.6342" lon="1.24323">
        <ele>188.892</ele>
        <time>2021-04-17T18:17:50Z</time>
      </trkpt>
      <trkpt lat="43.63497" lon="1.24221">
        <ele>190.635</ele>
        <time>2021-04-17T18:18:10Z</time>
      </trkpt>
      <trkpt lat="43.63534" lon="1.24206">
        <ele>191.981</ele>
        <time>2021-04-17T18:18:30Z</time>
      </trkpt>
      <trkpt lat="43.63573" lon="1.24201">
        <ele>192.92</ele>
        <time>2021-04-17T18:18:50Z</time>
      </trkpt>
      <trkpt lat="43.63584" lon="1.24209">
        <ele>193.037</ele>
        <time>2021-04-17T18:19:10Z</time>
      </trkpt>
      <trkpt lat="43.6363" lon="1.24201">
        <ele>190.058</ele>
        <time>2016-12-30T12:37:25Z</time>
      </trkpt>
      <trkpt lat="43.6364" lon="1.24087">
        <ele>191.987</ele>
        <time>2016-12-30T12:37:45Z</time>
      </trkpt>
      <trkpt lat="43.63652" lon="1.2406">
        <ele>192.098</ele>
        <time>2016-12-30T12:38:05Z</time>
      </trkpt>
      <trkpt lat="43.63653" lon="1.24034">
        <ele>192.098</ele>
        <time>2016-12-30T12:38:25Z</time>
      </trkpt>
      <trkpt lat="43.63752" lon="1.2379">
        <ele>193.915</ele>
        <time>2016-12-30T12:38:45Z</time>
      </trkpt>
      <trkpt lat="43.63754" lon="1.23648">
        <ele>194.926</ele>
        <time>2016-12-30T12:39:05Z</time>
      </trkpt>
      <trkpt lat="43.6372" lon="1.23603">
        <ele>197.108</ele>
        <time>2016-12-30T12:39:25Z</time>
      </trkpt>
      <trkpt lat="43.63752" lon="1.23513">
        <ele>198.036</ele>
        <time>2016-12-30T12:39:45Z</time>
      </trkpt>
      <trkpt lat="43.63774" lon="1.23476">
        <ele>198.929</ele>
        <time>2016-12-30T12:40:05Z</time>
      </trkpt>
      <trkpt lat="43.6382" lon="1.23316">
        <ele>201.145</ele>
        <time>2016-12-30T12:40:25Z</time>
      </trkpt>
      <trkpt lat="43.63749" lon="1.23271">
        <ele>204.914</ele>
        <time>2016-12-30T12:40:45Z</time>
      </trkpt>
      <trkpt lat="43.63736" lon="1.23244">
        <ele>205.151</ele>
        <time>2019-02-28T17:38:06Z</time>
      </trkpt>
      <trkpt lat="43.63728" lon="1.2319">
        <ele>206.022</ele>
        <time>2019-02-28T17:38:26Z</time>
      </trkpt>
      <trkpt lat="43.63577" lon="1.23115">
        <ele>203.451</ele>
        <time>2019-02-28T17:38:46Z</time>
      </trkpt>
      <trkpt lat="43.63541" lon="1.23121">
        <ele>202.392</ele>
        <time>2019-02-28T17:39:06Z</time>
      </trkpt>
      <trkpt lat="43.63549" lon="1.23106">
        <ele>203.255</ele>
        <time>2019-02-28T17:39:26Z</time>
      </trkpt>
      <trkpt lat="43.63514" lon="1.23056">
        <ele>205.007</ele>
        <time>2019-02-28T17:39:46Z</time>
      </trkpt>
      <trkpt lat="43.63483" lon="1.23061">
        <ele>204.317</ele>
        <time>2019-02-28T17:40:06Z</time>
      </trkpt>
      <trkpt lat="43.63385" lon="1.22914">
        <ele>205.108</ele>
        <time>2019-02-28T17:40:26Z</time>
      </trkpt>
      <trkpt lat="43.63304" lon="1.22805">
        <ele>213.672</ele>
        <time>2021-04-17T18:25:50Z</time>
      </trkpt>
      <trkpt lat="43.63178" lon="1.22743">
        <ele>215.975</ele>
        <time>2021-04-17T18:26:10Z</time>
      </trkpt>
      <trkpt lat="43.63123" lon="1.22638">
        <ele>217.311</ele>
        <time>2021-04-17T18:26:30Z</time>
      </trkpt>
      <trkpt lat="43.63031" lon="1.22543">
        <ele>210.02</ele>
        <time>2019-02-28T17:41:46Z</time>
      </trkpt>
      <trkpt lat="43.63001" lon="1.22458">
        <ele>210.077</ele>
        <time>2019-02-28T17:42:26Z</time>
      </trkpt>
      <trkpt lat="43.63242" lon="1.21925">
        <ele>234.458</ele>
        <time>2021-04-17T18:27:30Z</time>
      </trkpt>
      <trkpt lat="43.63288" lon="1.21919">
        <ele>235.047</ele>
        <time>2021-04-17T18:27:50Z</time>
      </trkpt>
      <trkpt lat="43.63369" lon="1.21859">
        <ele>228.078</ele>
        <time>2019-02-28T17:43:26Z</time>
      </trkpt>
      <trkpt lat="43.634" lon="1.21558">
        <ele>228.024</ele>
        <time>2019-02-28T17:43:46Z</time>
      </trkpt>
      <trkpt lat="43.63043" lon="1.21256">
        <ele>231.004</ele>
        <time>2019-02-28T17:44:06Z</time>
      </trkpt>
      <trkpt lat="43.62938" lon="1.21483">
        <ele>230.014</ele>
        <time>2019-02-28T17:44:26Z</time>
      </trkpt>
      <trkpt lat="43.62248" lon="1.20932">
        <ele>235.008</ele>
        <time>2019-02-28T17:44:46Z</time>
      </trkpt>
      <trkpt lat="43.62255" lon="1.20915">
        <ele>235.099</ele>
        <time>2019-02-28T17:45:06Z</time>
      </trkpt>
      <trkpt lat="43.61912" lon="1.20635">
        <ele>216.442</ele>
        <time>2016-12-30T12:43:25Z</time>
      </trkpt>
      <trkpt lat="43.61865" lon="1.20741">
        <ele>214.448</ele>
        <time>2016-12-30T12:43:45Z</time>
      </trkpt>
      <trkpt lat="43.61411" lon="1.20372">
        <ele>209.827</ele>
        <time>2016-12-30T12:44:05Z</time>
      </trkpt>
      <trkpt lat="43.61404" lon="1.20383">
        <ele>209.514</ele>
        <time>2016-12-30T12:44:25Z</time>
      </trkpt>
      <trkpt lat="43.60944" lon="1.19997">
        <ele>234.165</ele>
        <time>2016-12-30T12:44:45Z</time>
      </trkpt>
      <trkpt lat="43.60935" lon="1.20012">
        <ele>233.644</ele>
        <time>2016-12-30T12:45:05Z</time>
      </trkpt>
      <trkpt lat="43.60494" lon="1.19654">
        <ele>229.475</ele>
        <time>2016-12-30T12:45:25Z</time>
      </trkpt>
      <trkpt lat="43.6066" lon="1.19276">
        <ele>237.037</ele>
        <time>2016-12-30T12:45:45Z</time>
      </trkpt>
      <trkpt lat="43.60398" lon="1.19062">
        <ele>233.349</ele>
        <time>2016-12-30T12:46:05Z</time>
      </trkpt>
      <trkpt lat="43.59696" lon="1.18496">
        <ele>252.313</ele>
        <time>2021-04-17T18:33:10Z</time>
      </trkpt>
      <trkpt lat="43.59734" lon="1.18337">
        <ele>247.108</ele>
        <time>2016-12-30T12:48:05Z</time>
      </trkpt>
      <trkpt lat="43.59756" lon="1.18178">
        <ele>254.89</ele>
        <time>2016-12-30T12:48:25Z</time>
      </trkpt>
      <trkpt lat="43.59734" lon="1.18056">
        <ele>259.823</ele>
        <time>2016-12-30T12:48:45Z</time>
      </trkpt>
      <trkpt lat="43.59734" lon="1.17914">
        <ele>266.019</ele>
        <time>2016-12-30T12:49:05Z</time>
      </trkpt>
      <trkpt lat="43.59723" lon="1.1785">
        <ele>268.828</ele>
        <time>2016-12-30T12:49:25Z</time>
      </trkpt>
      <trkpt lat="43.59731" lon="1.17796">
        <ele>270.015</ele>
        <time>2016-12-30T12:49:45Z</time>
      </trkpt>
      <trkpt lat="43.59726" lon="1.17685">
        <ele>270.146</ele>
        <time>2016-12-30T12:50:05Z</time>
      </trkpt>
      <trkpt lat="43.59755" lon="1.17633">
        <ele>272.765</ele>
        <time>2021-04-17T18:35:50Z</time>
      </trkpt>
      <trkpt lat="43.59786" lon="1.17523">
        <ele>274.416</ele>
        <time>2021-04-17T18:36:10Z</time>
      </trkpt>
      <trkpt lat="43.59792" lon="1.17438">
        <ele>274.649</ele>
        <time>2016-12-30T12:50:45Z</time>
      </trkpt>
      <trkpt lat="43.59813" lon="1.17406">
        <ele>274.602</ele>
        <time>2016-12-30T12:51:05Z</time>
      </trkpt>
      <trkpt lat="43.59874" lon="1.17361">
        <ele>272.622</ele>
        <time>2016-12-30T12:51:25Z</time>
      </trkpt>
      <trkpt lat="43.59902" lon="1.17268">
        <ele>274.708</ele>
        <time>2016-12-30T12:51:45Z</time>
      </trkpt>
      <trkpt lat="43.59942" lon="1.17225">
        <ele>274.991</ele>
        <time>2016-12-30T12:52:05Z</time>
      </trkpt>
      <trkpt lat="43.59978" lon="1.17116">
        <ele>272.034</ele>
        <time>2016-12-30T12:52:25Z</time>
      </trkpt>
      <trkpt lat="43.6004" lon="1.17037">
        <ele>271.68</ele>
        <time>2016-12-30T12:52:45Z</time>
      </trkpt>
      <trkpt lat="43.60079" lon="1.16966">
        <ele>274.069</ele>
        <time>2016-12-30T12:53:05Z</time>
      </trkpt>
      <trkpt lat="43.60083" lon="1.16956">
        <ele>274.516</ele>
        <time>2016-12-30T12:53:25Z</time>
      </trkpt>
      <trkpt lat="43.60118" lon="1.168">
        <ele>280.067</ele>
        <time>2016-12-30T12:53:45Z</time>
      </trkpt>
      <trkpt lat="43.60109" lon="1.1668">
        <ele>283.046</ele>
        <time>2016-12-30T12:54:05Z</time>
      </trkpt>
      <trkpt lat="43.60115" lon="1.16586">
        <ele>284.617</ele>
        <time>2016-12-30T12:54:25Z</time>
      </trkpt>
      <trkpt lat="43.60114" lon="1.1658">
        <ele>284.874</ele>
        <time>2016-12-30T12:54:45Z</time>
      </trkpt>
      <trkpt lat="43.60109" lon="1.16545">
        <ele>285.056</ele>
        <time>2016-12-30T12:55:05Z</time>
      </trkpt>
      <trkpt lat="43.6011" lon="1.16496">
        <ele>286.021</ele>
        <time>2016-12-30T12:55:25Z</time>
      </trkpt>
      <trkpt lat="43.6009" lon="1.16396">
        <ele>285.408</ele>
        <time>2016-12-30T12:55:45Z</time>
      </trkpt>
      <trkpt lat="43.60105" lon="1.16351">
        <ele>286.644</ele>
        <time>2016-12-30T12:56:05Z</time>
      </trkpt>
      <trkpt lat="43.60112" lon="1.16206">
        <ele>287.017</ele>
        <time>2016-12-30T12:56:25Z</time>
      </trkpt>
      <trkpt lat="43.60183" lon="1.1598">
        <ele>286.673</ele>
        <time>2016-12-30T12:56:45Z</time>
      </trkpt>
      <trkpt lat="43.60276" lon="1.15776">
        <ele>290.092</ele>
        <time>2016-12-30T12:57:05Z</time>
      </trkpt>
      <trkpt lat="43.60323" lon="1.15568">
        <ele>289.639</ele>
        <time>2016-12-30T12:57:25Z</time>
      </trkpt>
      <trkpt lat="43.6033" lon="1.15478">
        <ele>288.34</ele>
        <time>2016-12-30T12:57:45Z</time>
      </trkpt>
      <trkpt lat="43.60348" lon="1.15397">
        <ele>284.649</ele>
        <time>2016-12-30T12:58:05Z</time>
      </trkpt>
      <trkpt lat="43.60412" lon="1.15319">
        <ele>279.74</ele>
        <time>2016-12-30T12:58:25Z</time>
      </trkpt>
      <trkpt lat="43.60529" lon="1.15115">
        <ele>264.955</ele>
        <time>2016-12-30T12:58:45Z</time>
      </trkpt>
      <trkpt lat="43.60644" lon="1.14873">
        <ele>243.407</ele>
        <time>2016-12-30T12:59:05Z</time>
      </trkpt>
      <trkpt lat="43.60693" lon="1.1476">
        <ele>235.017</ele>
        <time>2016-12-30T12:59:25Z</time>
      </trkpt>
      <trkpt lat="43.60863" lon="1.1466">
        <ele>221.708</ele>
        <time>2016-12-30T12:59:45Z</time>
      </trkpt>
      <trkpt lat="43.60956" lon="1.14575">
        <ele>217.552</ele>
        <time>2016-12-30T13:00:05Z</time>
      </trkpt>
      <trkpt lat="43.61097" lon="1.14465">
        <ele>202.655</ele>
        <time>2016-12-30T13:00:25Z</time>
      </trkpt>
      <trkpt lat="43.61175" lon="1.14339">
        <ele>187.161</ele>
        <time>2016-12-30T13:00:45Z</time>
      </trkpt>
      <trkpt lat="43.61195" lon="1.14243">
        <ele>181.71</ele>
        <time>2016-12-30T13:01:05Z</time>
      </trkpt>
      <trkpt lat="43.61195" lon="1.14133">
        <ele>180.027</ele>
        <time>2016-12-30T13:01:25Z</time>
      </trkpt>
      <trkpt lat="43.61237" lon="1.1406">
        <ele>180.058</ele>
        <time>2016-12-30T13:01:45Z</time>
      </trkpt>
      <trkpt lat="43.61266" lon="1.13923">
        <ele>181.397</ele>
        <time>2016-12-30T13:02:05Z</time>
      </trkpt>
      <trkpt lat="43.61289" lon="1.13857">
        <ele>185.158</ele>
        <time>2016-12-30T13:02:25Z</time>
      </trkpt>
      <trkpt lat="43.6125" lon="1.13835">
        <ele>185.023</ele>
        <time>2016-12-30T13:02:45Z</time>
      </trkpt>
      <trkpt lat="43.6123" lon="1.13662">
        <ele>196.883</ele>
        <time>2016-12-30T13:03:05Z</time>
      </trkpt>
      <trkpt lat="43.61195" lon="1.13545">
        <ele>209.711</ele>
        <time>2016-12-30T13:03:25Z</time>
      </trkpt>
      <trkpt lat="43.61163" lon="1.13352">
        <ele>220.108</ele>
        <time>2016-12-30T13:03:45Z</time>
      </trkpt>
      <trkpt lat="43.6111" lon="1.13292">
        <ele>229.099</ele>
        <time>2016-12-30T13:04:05Z</time>
      </trkpt>
      <trkpt lat="43.61103" lon="1.13201">
        <ele>235.312</ele>
        <time>2016-12-30T13:04:25Z</time>
      </trkpt>
      <trkpt lat="43.61121" lon="1.12992">
        <ele>240.068</ele>
        <time>2016-12-30T13:04:45Z</time>
      </trkpt>
      <trkpt lat="43.61097" lon="1.12851">
        <ele>237.137</ele>
        <time>2016-12-30T13:05:05Z</time>
      </trkpt>
      <trkpt lat="43.61071" lon="1.12791">
        <ele>238.044</ele>
        <time>2016-12-30T13:05:25Z</time>
      </trkpt>
      <trkpt lat="43.61065" lon="1.12726">
        <ele>239.445</ele>
        <time>2016-12-30T13:05:45Z</time>
      </trkpt>
      <trkpt lat="43.60987" lon="1.12639">
        <ele>244.484</ele>
        <time>2016-12-30T13:06:05Z</time>
      </trkpt>
      <trkpt lat="43.6098" lon="1.12497">
        <ele>246.445</ele>
        <time>2016-12-30T13:06:25Z</time>
      </trkpt>
      <trkpt lat="43.61025" lon="1.12193">
        <ele>242.899</ele>
        <time>2016-12-30T13:06:45Z</time>
      </trkpt>
      <trkpt lat="43.61045" lon="1.12064">
        <ele>243.807</ele>
        <time>2016-12-30T13:07:05Z</time>
      </trkpt>
      <trkpt lat="43.61097" lon="1.11924">
        <ele>240.027</ele>
        <time>2016-12-30T13:07:25Z</time>
      </trkpt>
      <trkpt lat="43.61156" lon="1.11631">
        <ele>230.308</ele>
        <time>2016-12-30T13:07:45Z</time>
      </trkpt>
      <trkpt lat="43.61194" lon="1.11524">
        <ele>230.036</ele>
        <time>2016-12-30T13:08:05Z</time>
      </trkpt>
      <trkpt lat="43.61213" lon="1.11421">
        <ele>226.279</ele>
        <time>2019-02-28T18:10:26Z</time>
      </trkpt>
      <trkpt lat="43.61295" lon="1.11124">
        <ele>214.065</ele>
        <time>2019-02-28T18:10:46Z</time>
      </trkpt>
      <trkpt lat="43.61381" lon="1.10946">
        <ele>204.774</ele>
        <time>2019-02-28T18:11:06Z</time>
      </trkpt>
      <trkpt lat="43.61383" lon="1.10859">
        <ele>204.391</ele>
        <time>2019-02-28T18:11:26Z</time>
      </trkpt>
      <trkpt lat="43.61411" lon="1.10781">
        <ele>202.152</ele>
        <time>2019-02-28T18:11:46Z</time>
      </trkpt>
      <trkpt lat="43.61424" lon="1.10639">
        <ele>197.041</ele>
        <time>2019-02-28T18:12:06Z</time>
      </trkpt>
      <trkpt lat="43.61445" lon="1.10581">
        <ele>194.872</ele>
        <time>2019-02-28T18:12:26Z</time>
      </trkpt>
      <trkpt lat="43.61526" lon="1.10418">
        <ele>189.815</ele>
        <time>2019-02-28T18:12:46Z</time>
      </trkpt>
      <trkpt lat="43.61546" lon="1.10338">
        <ele>185.765</ele>
        <time>2019-02-28T18:13:06Z</time>
      </trkpt>
      <trkpt lat="43.61595" lon="1.10215">
        <ele>180.111</ele>
        <time>2016-12-30T13:10:45Z</time>
      </trkpt>
      <trkpt lat="43.61643" lon="1.10035">
        <ele>168.608</ele>
        <time>2016-12-30T13:11:05Z</time>
      </trkpt>
      <trkpt lat="43.61742" lon="1.09821">
        <ele>153.928</ele>
        <time>2016-12-30T13:11:25Z</time>
      </trkpt>
      <trkpt lat="43.61814" lon="1.09707">
        <ele>151.041</ele>
        <time>2016-12-30T13:11:45Z</time>
      </trkpt>
      <trkpt lat="43.61814" lon="1.0964">
        <ele>149.417</ele>
        <time>2016-12-30T13:12:05Z</time>
      </trkpt>
      <trkpt lat="43.6184" lon="1.09588">
        <ele>150.086</ele>
        <time>2016-12-30T13:12:25Z</time>
      </trkpt>
      <trkpt lat="43.6186" lon="1.09514">
        <ele>149.413</ele>
        <time>2016-12-30T13:12:45Z</time>
      </trkpt>
      <trkpt lat="43.61912" lon="1.09467">
        <ele>149.714</ele>
        <time>2016-12-30T13:13:05Z</time>
      </trkpt>
      <trkpt lat="43.62112" lon="1.09672">
        <ele>148.043</ele>
        <time>2016-12-30T13:13:25Z</time>
      </trkpt>
      <trkpt lat="43.62374" lon="1.09415">
        <ele>139.014</ele>
        <time>2016-12-30T13:13:45Z</time>
      </trkpt>
      <trkpt lat="43.62352" lon="1.08804">
        <ele>139.085</ele>
        <time>2016-12-30T13:14:05Z</time>
      </trkpt>
      <trkpt lat="43.62317" lon="1.08595">
        <ele>139.089</ele>
        <time>2016-12-30T13:14:25Z</time>
      </trkpt>
      <trkpt lat="43.62276" lon="1.08501">
        <ele>139.017</ele>
        <time>2016-12-30T13:14:45Z</time>
      </trkpt>
      <trkpt lat="43.62122" lon="1.08413">
        <ele>139.008</ele>
        <time>2016-12-30T13:15:05Z</time>
      </trkpt>
      <trkpt lat="43.62046" lon="1.08336">
        <ele>139.045</ele>
        <time>2016-12-30T13:15:25Z</time>
      </trkpt>
      <trkpt lat="43.61901" lon="1.08134">
        <ele>139.058</ele>
        <time>2016-12-30T13:15:45Z</time>
      </trkpt>
      <trkpt lat="43.6191" lon="1.08101">
        <ele>139.074</ele>
        <time>2016-12-30T13:16:05Z</time>
      </trkpt>
      <trkpt lat="43.62033" lon="1.07959">
        <ele>139.173</ele>
        <time>2016-12-30T13:16:25Z</time>
      </trkpt>
      <trkpt lat="43.61902" lon="1.07917">
        <ele>139.05</ele>
        <time>2016-12-30T13:17:45Z</time>
      </trkpt>
      <trkpt lat="43.61829" lon="1.07868">
        <ele>139.031</ele>
        <time>2016-12-30T13:18:05Z</time>
      </trkpt>
      <trkpt lat="43.61644" lon="1.0766">
        <ele>139.46</ele>
        <time>2016-12-30T13:18:25Z</time>
      </trkpt>
      <trkpt lat="43.61667" lon="1.07636">
        <ele>140.081</ele>
        <time>2016-12-30T13:19:25Z</time>
      </trkpt>
      <trkpt lat="43.61662" lon="1.07612">
        <ele>140.014</ele>
        <time>2016-12-30T13:19:45Z</time>
      </trkpt>
      <trkpt lat="43.6162" lon="1.07602">
        <ele>140.154</ele>
        <time>2016-12-30T13:20:05Z</time>
      </trkpt>
      <trkpt lat="43.61522" lon="1.0752">
        <ele>140.009</ele>
        <time>2016-12-30T13:20:25Z</time>
      </trkpt>
      <trkpt lat="43.61516" lon="1.07415">
        <ele>141.608</ele>
        <time>2016-12-30T13:20:45Z</time>
      </trkpt>
      <trkpt lat="43.61519" lon="1.07325">
        <ele>142.318</ele>
        <time>2016-12-30T13:21:05Z</time>
      </trkpt>
      <trkpt lat="43.6149" lon="1.0728">
        <ele>142.681</ele>
        <time>2016-12-30T13:21:25Z</time>
      </trkpt>
      <trkpt lat="43.61508" lon="1.07153">
        <ele>142.337</ele>
        <time>2016-12-30T13:21:45Z</time>
      </trkpt>
      <trkpt lat="43.6144" lon="1.07121">
        <ele>140.916</ele>
        <time>2016-12-30T13:22:05Z</time>
      </trkpt>
      <trkpt lat="43.6143" lon="1.07112">
        <ele>140.523</ele>
        <time>2019-02-28T18:25:06Z</time>
      </trkpt>
      <trkpt lat="43.61397" lon="1.07064">
        <ele>140.224</ele>
        <time>2019-02-28T18:25:26Z</time>
      </trkpt>
      <trkpt lat="43.61333" lon="1.07018">
        <ele>140.073</ele>
        <time>2019-02-28T18:25:46Z</time>
      </trkpt>
      <trkpt lat="43.61283" lon="1.07019">
        <ele>140.054</ele>
        <time>2019-02-28T18:26:06Z</time>
      </trkpt>
      <trkpt lat="43.6125" lon="1.07075">
        <ele>141.024</ele>
        <time>2019-02-28T18:26:26Z</time>
      </trkpt>
      <trkpt lat="43.61243" lon="1.07189">
        <ele>141.004</ele>
        <time>2016-12-30T13:24:25Z</time>
      </trkpt>
      <trkpt lat="43.61213" lon="1.07227">
        <ele>140.914</ele>
        <time>2016-12-30T13:24:45Z</time>
      </trkpt>
      <trkpt lat="43.61154" lon="1.07225">
        <ele>141.008</ele>
        <time>2016-12-30T13:25:25Z</time>
      </trkpt>
      <trkpt lat="43.61112" lon="1.07175">
        <ele>141.039</ele>
        <time>2016-12-30T13:25:45Z</time>
      </trkpt>
      <trkpt lat="43.611" lon="1.07099">
        <ele>141.012</ele>
        <time>2016-12-30T13:26:05Z</time>
      </trkpt>
      <trkpt lat="43.61056" lon="1.07019">
        <ele>141.098</ele>
        <time>2016-12-30T13:26:25Z</time>
      </trkpt>
      <trkpt lat="43.61017" lon="1.0702">
        <ele>141.057</ele>
        <time>2016-12-30T13:26:45Z</time>
      </trkpt>
      <trkpt lat="43.60989" lon="1.07068">
        <ele>141.054</ele>
        <time>2016-12-30T13:27:05Z</time>
      </trkpt>
      <trkpt lat="43.60959" lon="1.07068">
        <ele>141.075</ele>
        <time>2016-12-30T13:27:25Z</time>
      </trkpt>
      <trkpt lat="43.60912" lon="1.07005">
        <ele>141.274</ele>
        <time>2016-12-30T13:27:45Z</time>
      </trkpt>
      <trkpt lat="43.60827" lon="1.06957">
        <ele>146.465</ele>
        <time>2021-04-17T19:12:10Z</time>
      </trkpt>
      <trkpt lat="43.60861" lon="1.06832">
        <ele>141.026</ele>
        <time>2016-12-30T13:28:25Z</time>
      </trkpt>
      <trkpt lat="43.6083" lon="1.06758">
        <ele>141.047</ele>
        <time>2016-12-30T13:28:45Z</time>
      </trkpt>
      <trkpt lat="43.60731" lon="1.06663">
        <ele>141.011</ele>
        <time>2016-12-30T13:29:05Z</time>
      </trkpt>
      <trkpt lat="43.60692" lon="1.06521">
        <ele>141.008</ele>
        <time>2016-12-30T13:29:25Z</time>
      </trkpt>
      <trkpt lat="43.60704" lon="1.06328">
        <ele>142.019</ele>
        <time>2016-12-30T13:29:45Z</time>
      </trkpt>
      <trkpt lat="43.60679" lon="1.06159">
        <ele>142.022</ele>
        <time>2016-12-30T13:30:05Z</time>
      </trkpt>
      <trkpt lat="43.60597" lon="1.05918">
        <ele>142.028</ele>
        <time>2016-12-30T13:30:25Z</time>
      </trkpt>
      <trkpt lat="43.60461" lon="1.05562">
        <ele>142.067</ele>
        <time>2016-12-30T13:30:45Z</time>
      </trkpt>
      <trkpt lat="43.60499" lon="1.05514">
        <ele>142.024</ele>
        <time>2016-12-30T13:31:05Z</time>
      </trkpt>
      <trkpt lat="43.60526" lon="1.0544">
        <ele>143.115</ele>
        <time>2016-12-30T13:31:25Z</time>
      </trkpt>
      <trkpt lat="43.60565" lon="1.05363">
        <ele>147.934</ele>
        <time>2016-12-30T13:31:45Z</time>
      </trkpt>
      <trkpt lat="43.60449" lon="1.05246">
        <ele>145.215</ele>
        <time>2016-12-30T13:32:05Z</time>
      </trkpt>
      <trkpt lat="43.60366" lon="1.05102">
        <ele>143.125</ele>
        <time>2016-12-30T13:32:25Z</time>
      </trkpt>
      <trkpt lat="43.60378" lon="1.05039">
        <ele>143.626</ele>
        <time>2016-12-30T13:32:45Z</time>
      </trkpt>
      <trkpt lat="43.60364" lon="1.04974">
        <ele>143.908</ele>
        <time>2016-12-30T13:33:05Z</time>
      </trkpt>
      <trkpt lat="43.60418" lon="1.04821">
        <ele>145.108</ele>
        <time>2016-12-30T13:33:25Z</time>
      </trkpt>
      <trkpt lat="43.60454" lon="1.04785">
        <ele>149.759</ele>
        <time>2021-04-17T19:17:50Z</time>
      </trkpt>
      <trkpt lat="43.60677" lon="1.04336">
        <ele>150.082</ele>
        <time>2016-12-30T13:34:25Z</time>
      </trkpt>
      <trkpt lat="43.6076" lon="1.04153">
        <ele>150.098</ele>
        <time>2016-12-30T13:34:45Z</time>
      </trkpt>
      <trkpt lat="43.60786" lon="1.04065">
        <ele>150.927</ele>
        <time>2021-04-17T19:18:50Z</time>
      </trkpt>
      <trkpt lat="43.60832" lon="1.03832">
        <ele>150.154</ele>
        <time>2021-04-17T19:19:10Z</time>
      </trkpt>
      <trkpt lat="43.60893" lon="1.03653">
        <ele>150.495</ele>
        <time>2016-12-30T13:35:45Z</time>
      </trkpt>
      <trkpt lat="43.60387" lon="1.02201">
        <ele>195.954</ele>
        <time>2016-12-30T13:36:05Z</time>
      </trkpt>
      <trkpt lat="43.60386" lon="1.02198">
        <ele>196.085</ele>
        <time>2016-12-30T13:36:25Z</time>
      </trkpt>
      <trkpt lat="43.60279" lon="1.01611">
        <ele>200.042</ele>
        <time>2016-12-30T13:36:45Z</time>
      </trkpt>
      <trkpt lat="43.6026" lon="1.01515">
        <ele>201.922</ele>
        <time>2016-12-30T13:37:05Z</time>
      </trkpt>
      <trkpt lat="43.60252" lon="1.00996">
        <ele>216.014</ele>
        <time>2016-12-30T13:37:25Z</time>
      </trkpt>
      <trkpt lat="43.60281" lon="1.0084">
        <ele>216.108</ele>
        <time>2016-12-30T13:37:45Z</time>
      </trkpt>
      <trkpt lat="43.60262" lon="1.00834">
        <ele>216.041</ele>
        <time>2016-12-30T13:38:05Z</time>
      </trkpt>
      <trkpt lat="43.60253" lon="1.00717">
        <ele>210.014</ele>
        <time>2016-12-30T13:38:25Z</time>
      </trkpt>
      <trkpt lat="43.60239" lon="1.00629">
        <ele>206.07</ele>
        <time>2016-12-30T13:38:45Z</time>
      </trkpt>
      <trkpt lat="43.60206" lon="1.00484">
        <ele>200.989</ele>
        <time>2016-12-30T13:39:05Z</time>
      </trkpt>
      <trkpt lat="43.60169" lon="1.00388">
        <ele>198.266</ele>
        <time>2016-12-30T13:39:25Z</time>
      </trkpt>
      <trkpt lat="43.60094" lon="1.00335">
        <ele>200.227</ele>
        <time>2016-12-30T13:39:45Z</time>
      </trkpt>
      <trkpt lat="43.5995" lon="1.00042">
        <ele>206.486</ele>
        <time>2016-12-30T13:40:05Z</time>
      </trkpt>
      <trkpt lat="43.59912" lon="0.99906">
        <ele>200.527</ele>
        <time>2016-12-30T13:40:25Z</time>
      </trkpt>
      <trkpt lat="43.5985" lon="0.99799">
        <ele>190.237</ele>
        <time>2016-12-30T13:40:45Z</time>
      </trkpt>
      <trkpt lat="43.59835" lon="0.99729">
        <ele>182.849</ele>
        <time>2016-12-30T13:41:05Z</time>
      </trkpt>
      <trkpt lat="43.59835" lon="0.99625">
        <ele>178.213</ele>
        <time>2016-12-30T13:41:25Z</time>
      </trkpt>
      <trkpt lat="43.59796" lon="0.99417">
        <ele>179.008</ele>
        <time>2016-12-30T13:41:45Z</time>
      </trkpt>
      <trkpt lat="43.59783" lon="0.99081">
        <ele>190.94</ele>
        <time>2016-12-30T13:42:05Z</time>
      </trkpt>
      <trkpt lat="43.59767" lon="0.98863">
        <ele>199.373</ele>
        <time>2016-12-30T13:42:25Z</time>
      </trkpt>
      <trkpt lat="43.59743" lon="0.98747">
        <ele>205.769</ele>
        <time>2016-12-30T13:42:45Z</time>
      </trkpt>
      <trkpt lat="43.59697" lon="0.98676">
        <ele>213.258</ele>
        <time>2016-12-30T13:43:05Z</time>
      </trkpt>
      <trkpt lat="43.59698" lon="0.98527">
        <ele>220.025</ele>
        <time>2016-12-30T13:43:25Z</time>
      </trkpt>
      <trkpt lat="43.59748" lon="0.9842">
        <ele>219.966</ele>
        <time>2016-12-30T13:43:45Z</time>
      </trkpt>
      <trkpt lat="43.59785" lon="0.98248">
        <ele>213.245</ele>
        <time>2016-12-30T13:44:05Z</time>
      </trkpt>
      <trkpt lat="43.598" lon="0.98137">
        <ele>208.846</ele>
        <time>2016-12-30T13:44:25Z</time>
      </trkpt>
      <trkpt lat="43.59755" lon="0.98112">
        <ele>203.999</ele>
        <time>2016-12-30T13:44:45Z</time>
      </trkpt>
      <trkpt lat="43.59771" lon="0.97983">
        <ele>200.907</ele>
        <time>2016-12-30T13:45:05Z</time>
      </trkpt>
      <trkpt lat="43.59747" lon="0.97994">
        <ele>197.327</ele>
        <time>2016-12-30T13:45:25Z</time>
      </trkpt>
      <trkpt lat="43.5965" lon="0.97916">
        <ele>176.808</ele>
        <time>2016-12-30T13:45:45Z</time>
      </trkpt>
      <trkpt lat="43.59616" lon="0.97838">
        <ele>175.846</ele>
        <time>2016-12-30T13:46:05Z</time>
      </trkpt>
      <trkpt lat="43.59563" lon="0.97859">
        <ele>176.199</ele>
        <time>2016-12-30T13:46:25Z</time>
      </trkpt>
      <trkpt lat="43.59488" lon="0.97865">
        <ele>175.975</ele>
        <time>2016-12-30T13:46:45Z</time>
      </trkpt>
      <trkpt lat="43.59475" lon="0.97794">
        <ele>181.374</ele>
        <time>2016-12-30T13:47:05Z</time>
      </trkpt>
      <trkpt lat="43.59409" lon="0.97683">
        <ele>187.741</ele>
        <time>2016-12-30T13:47:25Z</time>
      </trkpt>
      <trkpt lat="43.59363" lon="0.97651">
        <ele>190.512</ele>
        <time>2016-12-30T13:47:45Z</time>
      </trkpt>
      <trkpt lat="43.59336" lon="0.97605">
        <ele>192.321</ele>
        <time>2016-12-30T13:48:05Z</time>
      </trkpt>
      <trkpt lat="43.59219" lon="0.97489">
        <ele>170.072</ele>
        <time>2016-12-30T13:48:25Z</time>
      </trkpt>
      <trkpt lat="43.59251" lon="0.97425">
        <ele>170.567</ele>
        <time>2016-12-30T13:48:45Z</time>
      </trkpt>
      <trkpt lat="43.59338" lon="0.97346">
        <ele>173.381</ele>
        <time>2016-12-30T13:49:05Z</time>
      </trkpt>
      <trkpt lat="43.5938" lon="0.97248">
        <ele>175.019</ele>
        <time>2016-12-30T13:49:25Z</time>
      </trkpt>
      <trkpt lat="43.59407" lon="0.97045">
        <ele>176.708</ele>
        <time>2016-12-30T13:49:45Z</time>
      </trkpt>
      <trkpt lat="43.59432" lon="0.9694">
        <ele>177.113</ele>
        <time>2016-12-30T13:50:05Z</time>
      </trkpt>
      <trkpt lat="43.59492" lon="0.96778">
        <ele>177.576</ele>
        <time>2016-12-30T13:50:25Z</time>
      </trkpt>
      <trkpt lat="43.59552" lon="0.96665">
        <ele>180.082</ele>
        <time>2016-12-30T13:50:45Z</time>
      </trkpt>
      <trkpt lat="43.59545" lon="0.96608">
        <ele>180.021</ele>
        <time>2016-12-30T13:51:05Z</time>
      </trkpt>
      <trkpt lat="43.59602" lon="0.96196">
        <ele>194.648</ele>
        <time>2016-12-30T13:51:25Z</time>
      </trkpt>
      <trkpt lat="43.59604" lon="0.96091">
        <ele>200.249</ele>
        <time>2016-12-30T13:51:45Z</time>
      </trkpt>
      <trkpt lat="43.59653" lon="0.95823">
        <ele>213.488</ele>
        <time>2016-12-30T13:52:05Z</time>
      </trkpt>
      <trkpt lat="43.59707" lon="0.95609">
        <ele>218.799</ele>
        <time>2016-12-30T13:52:25Z</time>
      </trkpt>
      <trkpt lat="43.59736" lon="0.95452">
        <ele>220.429</ele>
        <time>2016-12-30T13:52:45Z</time>
      </trkpt>
      <trkpt lat="43.59739" lon="0.9532">
        <ele>222.9</ele>
        <time>2016-12-30T13:53:05Z</time>
      </trkpt>
      <trkpt lat="43.59823" lon="0.95098">
        <ele>225.02</ele>
        <time>2016-12-30T13:53:25Z</time>
      </trkpt>
      <trkpt lat="43.59969" lon="0.94842">
        <ele>235.408</ele>
        <time>2016-12-30T13:53:45Z</time>
      </trkpt>
      <trkpt lat="43.60424" lon="0.95099">
        <ele>222.329</ele>
        <time>2016-12-30T13:54:05Z</time>
      </trkpt>
      <trkpt lat="43.60445" lon="0.94802">
        <ele>231.112</ele>
        <time>2019-02-28T18:56:46Z</time>
      </trkpt>
      <trkpt lat="43.60436" lon="0.9473">
        <ele>229.788</ele>
        <time>2019-02-28T18:57:06Z</time>
      </trkpt>
      <trkpt lat="43.60468" lon="0.94418">
        <ele>219.537</ele>
        <time>2019-02-28T18:57:26Z</time>
      </trkpt>
      <trkpt lat="43.60463" lon="0.94264">
        <ele>210.074</ele>
        <time>2019-02-28T18:57:46Z</time>
      </trkpt>
      <trkpt lat="43.605" lon="0.94081">
        <ele>208.995</ele>
        <time>2019-02-28T18:58:06Z</time>
      </trkpt>
      <trkpt lat="43.60495" lon="0.94015">
        <ele>206.894</ele>
        <time>2016-12-30T13:54:45Z</time>
      </trkpt>
      <trkpt lat="43.60503" lon="0.93927">
        <ele>205.025</ele>
        <time>2016-12-30T13:55:05Z</time>
      </trkpt>
      <trkpt lat="43.60488" lon="0.93824">
        <ele>207.984</ele>
        <time>2016-12-30T13:55:25Z</time>
      </trkpt>
      <trkpt lat="43.60495" lon="0.93645">
        <ele>220.307</ele>
        <time>2016-12-30T13:55:45Z</time>
      </trkpt>
      <trkpt lat="43.60524" lon="0.93534">
        <ele>225.217</ele>
        <time>2016-12-30T13:56:05Z</time>
      </trkpt>
      <trkpt lat="43.60576" lon="0.93439">
        <ele>224.908</ele>
        <time>2016-12-30T13:56:25Z</time>
      </trkpt>
      <trkpt lat="43.60642" lon="0.93272">
        <ele>220.775</ele>
        <time>2016-12-30T13:56:45Z</time>
      </trkpt>
      <trkpt lat="43.60663" lon="0.93169">
        <ele>217.968</ele>
        <time>2016-12-30T13:57:05Z</time>
      </trkpt>
      <trkpt lat="43.60683" lon="0.93063">
        <ele>215.644</ele>
        <time>2016-12-30T13:57:25Z</time>
      </trkpt>
      <trkpt lat="43.60713" lon="0.9296">
        <ele>215.053</ele>
        <time>2016-12-30T13:57:45Z</time>
      </trkpt>
      <trkpt lat="43.60722" lon="0.92823">
        <ele>215.03</ele>
        <time>2021-04-17T19:43:10Z</time>
      </trkpt>
      <trkpt lat="43.60779" lon="0.92536">
        <ele>211.331</ele>
        <time>2016-12-30T13:58:25Z</time>
      </trkpt>
      <trkpt lat="43.60893" lon="0.92285">
        <ele>207.31</ele>
        <time>2016-12-30T13:58:45Z</time>
      </trkpt>
      <trkpt lat="43.6101" lon="0.92">
        <ele>185.031</ele>
        <time>2016-12-30T13:59:05Z</time>
      </trkpt>
      <trkpt lat="43.61032" lon="0.91822">
        <ele>208.741</ele>
        <time>2016-12-30T13:59:25Z</time>
      </trkpt>
      <trkpt lat="43.61077" lon="0.91634">
        <ele>209.681</ele>
        <time>2016-12-30T13:59:45Z</time>
      </trkpt>
      <trkpt lat="43.61085" lon="0.915">
        <ele>211.909</ele>
        <time>2016-12-30T14:00:05Z</time>
      </trkpt>
      <trkpt lat="43.61075" lon="0.91388">
        <ele>210.608</ele>
        <time>2016-12-30T14:00:25Z</time>
      </trkpt>
      <trkpt lat="43.61136" lon="0.91092">
        <ele>209.711</ele>
        <time>2016-12-30T14:00:45Z</time>
      </trkpt>
      <trkpt lat="43.60964" lon="0.91186">
        <ele>212.914</ele>
        <time>2021-04-17T19:46:10Z</time>
      </trkpt>
      <trkpt lat="43.60952" lon="0.91117">
        <ele>211.62</ele>
        <time>2021-04-17T19:46:30Z</time>
      </trkpt>
      <trkpt lat="43.60961" lon="0.90842">
        <ele>210.299</ele>
        <time>2016-12-30T14:02:05Z</time>
      </trkpt>
      <trkpt lat="43.6101" lon="0.90605">
        <ele>207.826</ele>
        <time>2016-12-30T14:02:25Z</time>
      </trkpt>
      <trkpt lat="43.61045" lon="0.90316">
        <ele>202.287</ele>
        <time>2016-12-30T14:02:45Z</time>
      </trkpt>
      <trkpt lat="43.61046" lon="0.90204">
        <ele>200.976</ele>
        <time>2016-12-30T14:03:05Z</time>
      </trkpt>
      <trkpt lat="43.61036" lon="0.90074">
        <ele>200.417</ele>
        <time>2016-12-30T14:03:25Z</time>
      </trkpt>
      <trkpt lat="43.60967" lon="0.89856">
        <ele>178.096</ele>
        <time>2021-04-17T19:48:30Z</time>
      </trkpt>
      <trkpt lat="43.60899" lon="0.8969">
        <ele>165.831</ele>
        <time>2021-04-17T19:48:50Z</time>
      </trkpt>
      <trkpt lat="43.60906" lon="0.89644">
        <ele>164.324</ele>
        <time>2021-04-17T19:49:10Z</time>
      </trkpt>
      <trkpt lat="43.60863" lon="0.89583">
        <ele>164.908</ele>
        <time>2021-04-17T19:49:30Z</time>
      </trkpt>
      <trkpt lat="43.6078" lon="0.89547">
        <ele>165.076</ele>
        <time>2016-12-30T14:08:05Z</time>
      </trkpt>
      <trkpt lat="43.60672" lon="0.89534">
        <ele>165.019</ele>
        <time>2016-12-30T14:08:25Z</time>
      </trkpt>
      <trkpt lat="43.60723" lon="0.89457">
        <ele>165.045</ele>
        <time>2016-12-30T14:08:45Z</time>
      </trkpt>
      <trkpt lat="43.60782" lon="0.89318">
        <ele>165.064</ele>
        <time>2016-12-30T14:09:05Z</time>
      </trkpt>
      <trkpt lat="43.60807" lon="0.89237">
        <ele>164.851</ele>
        <time>2021-04-17T19:51:10Z</time>
      </trkpt>
      <trkpt lat="43.60868" lon="0.89174">
        <ele>167.142</ele>
        <time>2021-04-17T19:51:30Z</time>
      </trkpt>
      <trkpt lat="43.60915" lon="0.89157">
        <ele>168.971</ele>
        <time>2021-04-17T19:51:50Z</time>
      </trkpt>
      <trkpt lat="43.60983" lon="0.8909">
        <ele>167.012</ele>
        <time>2016-12-30T14:09:25Z</time>
      </trkpt>
      <trkpt lat="43.61096" lon="0.88947">
        <ele>166.033</ele>
        <time>2016-12-30T14:09:45Z</time>
      </trkpt>
      <trkpt lat="43.61202" lon="0.88851">
        <ele>167.623</ele>
        <time>2016-12-30T14:10:05Z</time>
      </trkpt>
      <trkpt lat="43.61298" lon="0.8878">
        <ele>172.915</ele>
        <time>2016-12-30T14:10:25Z</time>
      </trkpt>
      <trkpt lat="43.6132" lon="0.88665">
        <ele>179.208</ele>
        <time>2021-04-17T19:53:30Z</time>
      </trkpt>
      <trkpt lat="43.6131" lon="0.88537">
        <ele>182.58</ele>
        <time>2016-12-30T14:11:05Z</time>
      </trkpt>
      <trkpt lat="43.61318" lon="0.88411">
        <ele>187.263</ele>
        <time>2016-12-30T14:11:25Z</time>
      </trkpt>
      <trkpt lat="43.61343" lon="0.8828">
        <ele>191.979</ele>
        <time>2016-12-30T14:11:45Z</time>
      </trkpt>
      <trkpt lat="43.61364" lon="0.88262">
        <ele>192.798</ele>
        <time>2016-12-30T14:12:05Z</time>
      </trkpt>
      <trkpt lat="43.61419" lon="0.88066">
        <ele>202.675</ele>
        <time>2021-04-17T19:55:10Z</time>
      </trkpt>
      <trkpt lat="43.61618" lon="0.88115">
        <ele>200.066</ele>
        <time>2016-12-30T14:13:05Z</time>
      </trkpt>
      <trkpt lat="43.61633" lon="0.88086">
        <ele>200.045</ele>
        <time>2016-12-30T14:13:25Z</time>
      </trkpt>
      <trkpt lat="43.61684" lon="0.87872">
        <ele>200.016</ele>
        <time>2016-12-30T14:13:45Z</time>
      </trkpt>
      <trkpt lat="43.61744" lon="0.87698">
        <ele>196.858</ele>
        <time>2016-12-30T14:14:05Z</time>
      </trkpt>
      <trkpt lat="43.61782" lon="0.87534">
        <ele>196.652</ele>
        <time>2016-12-30T14:14:25Z</time>
      </trkpt>
      <trkpt lat="43.61848" lon="0.87588">
        <ele>190.417</ele>
        <time>2016-12-30T14:14:45Z</time>
      </trkpt>
      <trkpt lat="43.61964" lon="0.87428">
        <ele>184.508</ele>
        <time>2016-12-30T14:15:05Z</time>
      </trkpt>
      <trkpt lat="43.62107" lon="0.87162">
        <ele>176.512</ele>
        <time>2016-12-30T14:15:25Z</time>
      </trkpt>
      <trkpt lat="43.62171" lon="0.87035">
        <ele>175.075</ele>
        <time>2016-12-30T14:15:45Z</time>
      </trkpt>
      <trkpt lat="43.622" lon="0.87028">
        <ele>174.441</ele>
        <time>2016-12-30T14:16:05Z</time>
      </trkpt>
      <trkpt lat="43.62235" lon="0.87019">
        <ele>171.12</ele>
        <time>2016-12-30T14:16:25Z</time>
      </trkpt>
      <trkpt lat="43.62274" lon="0.87033">
        <ele>168.697</ele>
        <time>2016-12-30T14:16:45Z</time>
      </trkpt>
      <trkpt lat="43.6237" lon="0.87009">
        <ele>154.648</ele>
        <time>2021-04-17T19:59:30Z</time>
      </trkpt>
      <trkpt lat="43.62372" lon="0.87039">
        <ele>155.427</ele>
        <time>2021-04-17T19:59:50Z</time>
      </trkpt>
      <trkpt lat="43.62417" lon="0.87081">
        <ele>153.938</ele>
        <time>2021-04-17T20:00:10Z</time>
      </trkpt>
      <trkpt lat="43.62459" lon="0.87013">
        <ele>151.248</ele>
        <time>2021-04-17T20:00:30Z</time>
      </trkpt>
      <trkpt lat="43.62532" lon="0.8705">
        <ele>146.461</ele>
        <time>2016-12-30T14:18:05Z</time>
      </trkpt>
      <trkpt lat="43.62573" lon="0.86885">
        <ele>145.017</ele>
        <time>2016-12-30T14:18:25Z</time>
      </trkpt>
      <trkpt lat="43.62571" lon="0.86812">
        <ele>145.008</ele>
        <time>2016-12-30T14:18:45Z</time>
      </trkpt>
      <trkpt lat="43.62736" lon="0.86862">
        <ele>145.051</ele>
        <time>2016-12-30T14:19:05Z</time>
      </trkpt>
      <trkpt lat="43.62764" lon="0.86846">
        <ele>145.014</ele>
        <time>2016-12-30T14:19:25Z</time>
      </trkpt>
      <trkpt lat="43.62822" lon="0.86868">
        <ele>145.08</ele>
        <time>2016-12-30T14:19:45Z</time>
      </trkpt>
      <trkpt lat="43.62958" lon="0.86954">
        <ele>145.079</ele>
        <time>2016-12-30T14:20:05Z</time>
      </trkpt>
      <trkpt lat="43.63006" lon="0.8677">
        <ele>145.086</ele>
        <time>2016-12-30T14:20:25Z</time>
      </trkpt>
      <trkpt lat="43.63094" lon="0.86496">
        <ele>149.057</ele>
        <time>2016-12-30T14:20:45Z</time>
      </trkpt>
      <trkpt lat="43.63117" lon="0.86459">
        <ele>149.966</ele>
        <time>2016-12-30T14:21:05Z</time>
      </trkpt>
      <trkpt lat="43.631" lon="0.86423">
        <ele>152.197</ele>
        <time>2016-12-30T14:21:25Z</time>
      </trkpt>
      <trkpt lat="43.63057" lon="0.86396">
        <ele>150.654</ele>
        <time>2016-12-30T14:21:45Z</time>
      </trkpt>
      <trkpt lat="43.63021" lon="0.86333">
        <ele>151.356</ele>
        <time>2016-12-30T14:22:05Z</time>
      </trkpt>
      <trkpt lat="43.62975" lon="0.86062">
        <ele>154.711</ele>
        <time>2016-12-30T14:22:25Z</time>
      </trkpt>
      <trkpt lat="43.62983" lon="0.8599">
        <ele>156.108</ele>
        <time>2016-12-30T14:22:45Z</time>
      </trkpt>
      <trkpt lat="43.63041" lon="0.85738">
        <ele>160.562</ele>
        <time>2016-12-30T14:23:05Z</time>
      </trkpt>
      <trkpt lat="43.6301" lon="0.8558">
        <ele>159.955</ele>
        <time>2016-12-30T14:23:25Z</time>
      </trkpt>
      <trkpt lat="43.63006" lon="0.85488">
        <ele>159.681</ele>
        <time>2016-12-30T14:23:45Z</time>
      </trkpt>
      <trkpt lat="43.62932" lon="0.85418">
        <ele>165.32</ele>
        <time>2016-12-30T14:24:05Z</time>
      </trkpt>
      <trkpt lat="43.62838" lon="0.85378">
        <ele>178.027</ele>
        <time>2016-12-30T14:24:25Z</time>
      </trkpt>
      <trkpt lat="43.62809" lon="0.85294">
        <ele>179.798</ele>
        <time>2016-12-30T14:24:45Z</time>
      </trkpt>
      <trkpt lat="43.62711" lon="0.85271">
        <ele>193.137</ele>
        <time>2016-12-30T14:25:05Z</time>
      </trkpt>
      <trkpt lat="43.62705" lon="0.85146">
        <ele>194.968</ele>
        <time>2016-12-30T14:25:25Z</time>
      </trkpt>
      <trkpt lat="43.6266" lon="0.85059">
        <ele>195.321</ele>
        <time>2016-12-30T14:25:45Z</time>
      </trkpt>
      <trkpt lat="43.62626" lon="0.84947">
        <ele>198.841</ele>
        <time>2016-12-30T14:26:05Z</time>
      </trkpt>
      <trkpt lat="43.6259" lon="0.84754">
        <ele>205.005</ele>
        <time>2016-12-30T14:26:25Z</time>
      </trkpt>
      <trkpt lat="43.62615" lon="0.84643">
        <ele>204.608</ele>
        <time>2021-04-17T20:09:30Z</time>
      </trkpt>
      <trkpt lat="43.6266" lon="0.84595">
        <ele>203.129</ele>
        <time>2021-04-17T20:09:50Z</time>
      </trkpt>
      <trkpt lat="43.62752" lon="0.84564">
        <ele>197.212</ele>
        <time>2021-04-17T20:10:10Z</time>
      </trkpt>
      <trkpt lat="43.62791" lon="0.84507">
        <ele>197.168</ele>
        <time>2021-04-17T20:10:30Z</time>
      </trkpt>
      <trkpt lat="43.62806" lon="0.8444">
        <ele>198.687</ele>
        <time>2021-04-17T20:10:50Z</time>
      </trkpt>
      <trkpt lat="43.62802" lon="0.84174">
        <ele>212.494</ele>
        <time>2021-04-17T20:11:10Z</time>
      </trkpt>
      <trkpt lat="43.62781" lon="0.84177">
        <ele>212.965</ele>
        <time>2021-04-17T20:11:30Z</time>
      </trkpt>
      <trkpt lat="43.6273" lon="0.84361">
        <ele>208.754</ele>
        <time>2021-04-17T20:11:50Z</time>
      </trkpt>
      <trkpt lat="43.62629" lon="0.844">
        <ele>208.285</ele>
        <time>2021-04-17T20:12:10Z</time>
      </trkpt>
      <trkpt lat="43.62587" lon="0.844">
        <ele>206.265</ele>
        <time>2021-04-17T20:12:30Z</time>
      </trkpt>
      <trkpt lat="43.62409" lon="0.84115">
        <ele>204.568</ele>
        <time>2016-12-30T14:27:05Z</time>
      </trkpt>
      <trkpt lat="43.62335" lon="0.83925">
        <ele>182.814</ele>
        <time>2016-12-30T14:27:25Z</time>
      </trkpt>
      <trkpt lat="43.62241" lon="0.83728">
        <ele>170.108</ele>
        <time>2016-12-30T14:27:45Z</time>
      </trkpt>
      <trkpt lat="43.62215" lon="0.83558">
        <ele>175.443</ele>
        <time>2016-12-30T14:28:05Z</time>
      </trkpt>
      <trkpt lat="43.62162" lon="0.83395">
        <ele>184.516</ele>
        <time>2016-12-30T14:28:25Z</time>
      </trkpt>
      <trkpt lat="43.62128" lon="0.83334">
        <ele>188.262</ele>
        <time>2016-12-30T14:28:45Z</time>
      </trkpt>
      <trkpt lat="43.62069" lon="0.83112">
        <ele>201.521</ele>
        <time>2016-12-30T14:29:05Z</time>
      </trkpt>
      <trkpt lat="43.62032" lon="0.82844">
        <ele>219.728</ele>
        <time>2016-12-30T14:29:25Z</time>
      </trkpt>
      <trkpt lat="43.62054" lon="0.82771">
        <ele>219.999</ele>
        <time>2016-12-30T14:29:45Z</time>
      </trkpt>
      <trkpt lat="43.62022" lon="0.82089">
        <ele>198.578</ele>
        <time>2016-12-30T14:30:05Z</time>
      </trkpt>
      <trkpt lat="43.62032" lon="0.81959">
        <ele>195.229</ele>
        <time>2016-12-30T14:30:25Z</time>
      </trkpt>
      <trkpt lat="43.62067" lon="0.81863">
        <ele>195.054</ele>
        <time>2016-12-30T14:30:45Z</time>
      </trkpt>
      <trkpt lat="43.621" lon="0.81817">
        <ele>195.056</ele>
        <time>2016-12-30T14:31:05Z</time>
      </trkpt>
      <trkpt lat="43.62084" lon="0.81778">
        <ele>195.011</ele>
        <time>2016-12-30T14:31:25Z</time>
      </trkpt>
      <trkpt lat="43.62099" lon="0.8149">
        <ele>207.608</ele>
        <time>2016-12-30T14:31:45Z</time>
      </trkpt>
      <trkpt lat="43.62116" lon="0.81365">
        <ele>211.342</ele>
        <time>2016-12-30T14:32:05Z</time>
      </trkpt>
      <trkpt lat="43.62106" lon="0.81005">
        <ele>230.195</ele>
        <time>2016-12-30T14:32:25Z</time>
      </trkpt>
      <trkpt lat="43.6208" lon="0.80913">
        <ele>227.841</ele>
        <time>2016-12-30T14:32:45Z</time>
      </trkpt>
      <trkpt lat="43.61959" lon="0.80785">
        <ele>218.69</ele>
        <time>2016-12-30T14:33:05Z</time>
      </trkpt>
      <trkpt lat="43.61835" lon="0.80556">
        <ele>230.227</ele>
        <time>2021-04-17T20:19:10Z</time>
      </trkpt>
      <trkpt lat="43.61801" lon="0.80358">
        <ele>232.778</ele>
        <time>2016-12-30T14:33:45Z</time>
      </trkpt>
      <trkpt lat="43.61916" lon="0.79832">
        <ele>219.987</ele>
        <time>2016-12-30T14:34:05Z</time>
      </trkpt>
      <trkpt lat="43.61973" lon="0.79622">
        <ele>216.498</ele>
        <time>2016-12-30T14:34:25Z</time>
      </trkpt>
      <trkpt lat="43.6198" lon="0.79495">
        <ele>212.436</ele>
        <time>2016-12-30T14:34:45Z</time>
      </trkpt>
      <trkpt lat="43.61977" lon="0.79486">
        <ele>211.817</ele>
        <time>2016-12-30T14:35:05Z</time>
      </trkpt>
      <trkpt lat="43.61934" lon="0.79282">
        <ele>200.118</ele>
        <time>2016-12-30T14:35:25Z</time>
      </trkpt>
      <trkpt lat="43.61932" lon="0.79138">
        <ele>196.808</ele>
        <time>2016-12-30T14:35:45Z</time>
      </trkpt>
      <trkpt lat="43.62024" lon="0.78588">
        <ele>195.33</ele>
        <time>2016-12-30T14:36:05Z</time>
      </trkpt>
      <trkpt lat="43.62022" lon="0.78336">
        <ele>195.613</ele>
        <time>2016-12-30T14:36:25Z</time>
      </trkpt>
      <trkpt lat="43.61967" lon="0.78321">
        <ele>199.739</ele>
        <time>2016-12-30T14:36:45Z</time>
      </trkpt>
      <trkpt lat="43.61894" lon="0.78091">
        <ele>194.758</ele>
        <time>2016-12-30T14:37:05Z</time>
      </trkpt>
      <trkpt lat="43.61894" lon="0.78036">
        <ele>194.845</ele>
        <time>2016-12-30T14:37:25Z</time>
      </trkpt>
      <trkpt lat="43.61926" lon="0.7787">
        <ele>194.656</ele>
        <time>2016-12-30T14:37:45Z</time>
      </trkpt>
      <trkpt lat="43.61918" lon="0.77783">
        <ele>190.695</ele>
        <time>2016-12-30T14:38:05Z</time>
      </trkpt>
      <trkpt lat="43.61815" lon="0.7766">
        <ele>181.426</ele>
        <time>2016-12-30T14:38:25Z</time>
      </trkpt>
      <trkpt lat="43.61803" lon="0.77574">
        <ele>179.088</ele>
        <time>2016-12-30T14:38:45Z</time>
      </trkpt>
      <trkpt lat="43.61824" lon="0.77401">
        <ele>161.824</ele>
        <time>2016-12-30T14:39:05Z</time>
      </trkpt>
      <trkpt lat="43.61602" lon="0.77168">
        <ele>156.826</ele>
        <time>2016-12-30T14:39:25Z</time>
      </trkpt>
      <trkpt lat="43.61586" lon="0.77114">
        <ele>155.108</ele>
        <time>2016-12-30T14:39:45Z</time>
      </trkpt>
      <trkpt lat="43.61531" lon="0.77023">
        <ele>155.035</ele>
        <time>2016-12-30T14:40:05Z</time>
      </trkpt>
      <trkpt lat="43.61674" lon="0.76866">
        <ele>155.038</ele>
        <time>2016-12-30T14:40:25Z</time>
      </trkpt>
      <trkpt lat="43.61784" lon="0.76687">
        <ele>155.164</ele>
        <time>2016-12-30T14:40:45Z</time>
      </trkpt>
      <trkpt lat="43.61818" lon="0.76698">
        <ele>155.493</ele>
        <time>2016-12-30T14:41:05Z</time>
      </trkpt>
      <trkpt lat="43.61919" lon="0.76809">
        <ele>155.07</ele>
        <time>2016-12-30T14:41:25Z</time>
      </trkpt>
      <trkpt lat="43.62022" lon="0.76858">
        <ele>154.211</ele>
        <time>2016-12-30T14:41:45Z</time>
      </trkpt>
      <trkpt lat="43.62085" lon="0.76673">
        <ele>157.13</ele>
        <time>2016-12-30T14:42:05Z</time>
      </trkpt>
      <trkpt lat="43.62117" lon="0.76637">
        <ele>161.581</ele>
        <time>2016-12-30T14:42:25Z</time>
      </trkpt>
      <trkpt lat="43.6217" lon="0.76485">
        <ele>166.743</ele>
        <time>2016-12-30T14:42:45Z</time>
      </trkpt>
      <trkpt lat="43.62174" lon="0.76436">
        <ele>174.064</ele>
        <time>2021-04-17T20:28:50Z</time>
      </trkpt>
      <trkpt lat="43.62201" lon="0.76365">
        <ele>173.51</ele>
        <time>2021-04-17T20:29:10Z</time>
      </trkpt>
      <trkpt lat="43.62188" lon="0.76292">
        <ele>173.808</ele>
        <time>2021-04-17T20:29:30Z</time>
      </trkpt>
      <trkpt lat="43.62179" lon="0.76172">
        <ele>172.961</ele>
        <time>2021-04-17T20:29:50Z</time>
      </trkpt>
      <trkpt lat="43.62277" lon="0.75872">
        <ele>185.994</ele>
        <time>2016-12-30T14:43:45Z</time>
      </trkpt>
      <trkpt lat="43.62326" lon="0.75777">
        <ele>190.51</ele>
        <time>2016-12-30T14:44:05Z</time>
      </trkpt>
      <trkpt lat="43.62437" lon="0.75487">
        <ele>200.619</ele>
        <time>2016-12-30T14:44:25Z</time>
      </trkpt>
      <trkpt lat="43.6246" lon="0.75363">
        <ele>202.756</ele>
        <time>2016-12-30T14:44:45Z</time>
      </trkpt>
      <trkpt lat="43.6247" lon="0.75276">
        <ele>201.557</ele>
        <time>2016-12-30T14:45:05Z</time>
      </trkpt>
      <trkpt lat="43.62507" lon="0.75193">
        <ele>200.896</ele>
        <time>2016-12-30T14:45:25Z</time>
      </trkpt>
      <trkpt lat="43.6254" lon="0.75165">
        <ele>203.217</ele>
        <time>2016-12-30T14:45:45Z</time>
      </trkpt>
      <trkpt lat="43.62749" lon="0.74899">
        <ele>214.978</ele>
        <time>2016-12-30T14:46:05Z</time>
      </trkpt>
      <trkpt lat="43.62941" lon="0.74712">
        <ele>220.033</ele>
        <time>2016-12-30T14:46:25Z</time>
      </trkpt>
      <trkpt lat="43.62994" lon="0.74585">
        <ele>228.426</ele>
        <time>2021-04-17T20:33:10Z</time>
      </trkpt>
      <trkpt lat="43.63023" lon="0.74398">
        <ele>223.508</ele>
        <time>2016-12-30T14:47:05Z</time>
      </trkpt>
      <trkpt lat="43.63027" lon="0.74236">
        <ele>223.924</ele>
        <time>2016-12-30T14:47:25Z</time>
      </trkpt>
      <trkpt lat="43.62739" lon="0.7395">
        <ele>194.517</ele>
        <time>2016-12-30T14:47:45Z</time>
      </trkpt>
      <trkpt lat="43.62658" lon="0.73812">
        <ele>189.693</ele>
        <time>2016-12-30T14:48:05Z</time>
      </trkpt>
      <trkpt lat="43.6259" lon="0.73622">
        <ele>183.232</ele>
        <time>2016-12-30T14:48:25Z</time>
      </trkpt>
      <trkpt lat="43.62523" lon="0.73555">
        <ele>192.749</ele>
        <time>2016-12-30T14:48:45Z</time>
      </trkpt>
      <trkpt lat="43.62533" lon="0.73504">
        <ele>195.46</ele>
        <time>2016-12-30T14:49:05Z</time>
      </trkpt>
      <trkpt lat="43.62521" lon="0.73413">
        <ele>194.689</ele>
        <time>2016-12-30T14:49:25Z</time>
      </trkpt>
      <trkpt lat="43.62537" lon="0.73347">
        <ele>194.24</ele>
        <time>2016-12-30T14:49:45Z</time>
      </trkpt>
      <trkpt lat="43.6253" lon="0.73193">
        <ele>193.222</ele>
        <time>2016-12-30T14:50:05Z</time>
      </trkpt>
      <trkpt lat="43.62496" lon="0.73124">
        <ele>194.362</ele>
        <time>2016-12-30T14:50:25Z</time>
      </trkpt>
      <trkpt lat="43.62429" lon="0.72928">
        <ele>187.108</ele>
        <time>2016-12-30T14:50:45Z</time>
      </trkpt>
      <trkpt lat="43.62373" lon="0.72803">
        <ele>182.408</ele>
        <time>2016-12-30T14:51:05Z</time>
      </trkpt>
      <trkpt lat="43.62407" lon="0.72695">
        <ele>184.629</ele>
        <time>2016-12-30T14:51:25Z</time>
      </trkpt>
      <trkpt lat="43.62441" lon="0.72504">
        <ele>185.772</ele>
        <time>2016-12-30T14:51:45Z</time>
      </trkpt>
      <trkpt lat="43.6244" lon="0.72425">
        <ele>188.538</ele>
        <time>2016-12-30T14:52:05Z</time>
      </trkpt>
      <trkpt lat="43.6251" lon="0.72377">
        <ele>194.027</ele>
        <time>2016-12-30T14:52:25Z</time>
      </trkpt>
      <trkpt lat="43.62531" lon="0.7219">
        <ele>194.374</ele>
        <time>2016-12-30T14:52:45Z</time>
      </trkpt>
      <trkpt lat="43.6251" lon="0.71976">
        <ele>193.735</ele>
        <time>2016-12-30T14:53:05Z</time>
      </trkpt>
      <trkpt lat="43.62495" lon="0.71901">
        <ele>193.664</ele>
        <time>2016-12-30T14:53:25Z</time>
      </trkpt>
      <trkpt lat="43.62504" lon="0.71829">
        <ele>194.325</ele>
        <time>2016-12-30T14:53:45Z</time>
      </trkpt>
      <trkpt lat="43.6261" lon="0.7168">
        <ele>199.557</ele>
        <time>2016-12-30T14:54:05Z</time>
      </trkpt>
      <trkpt lat="43.62648" lon="0.71614">
        <ele>200.6</ele>
        <time>2016-12-30T14:54:25Z</time>
      </trkpt>
      <trkpt lat="43.62697" lon="0.71561">
        <ele>200.12</ele>
        <time>2016-12-30T14:54:45Z</time>
      </trkpt>
      <trkpt lat="43.62798" lon="0.71207">
        <ele>222.808</ele>
        <time>2016-12-30T14:55:05Z</time>
      </trkpt>
      <trkpt lat="43.62711" lon="0.71192">
        <ele>223.072</ele>
        <time>2016-12-30T14:55:25Z</time>
      </trkpt>
      <trkpt lat="43.62756" lon="0.70858">
        <ele>244.365</ele>
        <time>2016-12-30T14:55:45Z</time>
      </trkpt>
      <trkpt lat="43.6276" lon="0.70693">
        <ele>244.221</ele>
        <time>2016-12-30T14:56:05Z</time>
      </trkpt>
      <trkpt lat="43.62774" lon="0.70612">
        <ele>239.92</ele>
        <time>2016-12-30T14:56:25Z</time>
      </trkpt>
      <trkpt lat="43.62783" lon="0.70453">
        <ele>228.587</ele>
        <time>2016-12-30T14:56:45Z</time>
      </trkpt>
      <trkpt lat="43.62777" lon="0.70422">
        <ele>228.268</ele>
        <time>2016-12-30T14:57:05Z</time>
      </trkpt>
      <trkpt lat="43.62851" lon="0.69831">
        <ele>216.677</ele>
        <time>2016-12-30T14:57:25Z</time>
      </trkpt>
      <trkpt lat="43.62927" lon="0.69507">
        <ele>201.248</ele>
        <time>2016-12-30T14:57:45Z</time>
      </trkpt>
      <trkpt lat="43.6292" lon="0.6947">
        <ele>197.886</ele>
        <time>2016-12-30T14:58:05Z</time>
      </trkpt>
      <trkpt lat="43.62938" lon="0.69442">
        <ele>193.96</ele>
        <time>2016-12-30T14:58:25Z</time>
      </trkpt>
      <trkpt lat="43.62924" lon="0.69366">
        <ele>194.526</ele>
        <time>2016-12-30T14:58:45Z</time>
      </trkpt>
      <trkpt lat="43.62986" lon="0.69196">
        <ele>204.908</ele>
        <time>2016-12-30T14:59:05Z</time>
      </trkpt>
      <trkpt lat="43.63072" lon="0.69162">
        <ele>210.285</ele>
        <time>2016-12-30T14:59:25Z</time>
      </trkpt>
      <trkpt lat="43.63128" lon="0.6898">
        <ele>217.628</ele>
        <time>2016-12-30T14:59:45Z</time>
      </trkpt>
      <trkpt lat="43.63182" lon="0.68864">
        <ele>218.824</ele>
        <time>2016-12-30T15:00:05Z</time>
      </trkpt>
      <trkpt lat="43.63304" lon="0.68653">
        <ele>209.193</ele>
        <time>2016-12-30T15:00:25Z</time>
      </trkpt>
      <trkpt lat="43.63332" lon="0.68574">
        <ele>207.18</ele>
        <time>2016-12-30T15:00:45Z</time>
      </trkpt>
      <trkpt lat="43.63474" lon="0.68549">
        <ele>199.231</ele>
        <time>2016-12-30T15:01:05Z</time>
      </trkpt>
      <trkpt lat="43.63564" lon="0.68537">
        <ele>195.41</ele>
        <time>2016-12-30T15:01:25Z</time>
      </trkpt>
      <trkpt lat="43.63654" lon="0.68495">
        <ele>192.681</ele>
        <time>2016-12-30T15:01:45Z</time>
      </trkpt>
      <trkpt lat="43.63688" lon="0.68448">
        <ele>192.391</ele>
        <time>2019-02-28T20:05:46Z</time>
      </trkpt>
      <trkpt lat="43.63737" lon="0.68307">
        <ele>201.381</ele>
        <time>2019-02-28T20:06:06Z</time>
      </trkpt>
      <trkpt lat="43.6374" lon="0.68273">
        <ele>203.719</ele>
        <time>2019-02-28T20:06:26Z</time>
      </trkpt>
      <trkpt lat="43.63864" lon="0.68139">
        <ele>205.708</ele>
        <time>2019-02-28T20:33:26Z</time>
      </trkpt>
      <trkpt lat="43.63961" lon="0.67972">
        <ele>200.486</ele>
        <time>2019-02-28T20:33:46Z</time>
      </trkpt>
      <trkpt lat="43.64048" lon="0.67789">
        <ele>193.749</ele>
        <time>2019-02-28T20:34:06Z</time>
      </trkpt>
      <trkpt lat="43.64083" lon="0.67655">
        <ele>186.625</ele>
        <time>2019-02-28T20:34:26Z</time>
      </trkpt>
      <trkpt lat="43.64114" lon="0.67601">
        <ele>180.954</ele>
        <time>2019-02-28T20:34:46Z</time>
      </trkpt>
      <trkpt lat="43.6414" lon="0.67511">
        <ele>172.631</ele>
        <time>2019-02-28T20:35:06Z</time>
      </trkpt>
      <trkpt lat="43.64185" lon="0.67438">
        <ele>165.062</ele>
        <time>2019-02-28T20:35:26Z</time>
      </trkpt>
      <trkpt lat="43.64201" lon="0.67316">
        <ele>165.071</ele>
        <time>2019-02-28T20:35:46Z</time>
      </trkpt>
      <trkpt lat="43.64222" lon="0.67039">
        <ele>179.672</ele>
        <time>2019-02-28T20:36:06Z</time>
      </trkpt>
      <trkpt lat="43.64248" lon="0.66964">
        <ele>180.493</ele>
        <time>2019-02-28T20:36:26Z</time>
      </trkpt>
      <trkpt lat="43.642" lon="0.66738">
        <ele>192.465</ele>
        <time>2019-02-28T20:36:46Z</time>
      </trkpt>
      <trkpt lat="43.64191" lon="0.66373">
        <ele>223.621</ele>
        <time>2021-04-17T20:53:10Z</time>
      </trkpt>
      <trkpt lat="43.64206" lon="0.66247">
        <ele>231.008</ele>
        <time>2019-02-28T20:37:26Z</time>
      </trkpt>
      <trkpt lat="43.64264" lon="0.66281">
        <ele>230.856</ele>
        <time>2019-02-28T20:37:46Z</time>
      </trkpt>
      <trkpt lat="43.64331" lon="0.66289">
        <ele>233.079</ele>
        <time>2019-02-28T20:38:06Z</time>
      </trkpt>
      <trkpt lat="43.64386" lon="0.66245">
        <ele>233.635</ele>
        <time>2019-02-28T20:38:26Z</time>
      </trkpt>
      <trkpt lat="43.64432" lon="0.66228">
        <ele>233.164</ele>
        <time>2019-02-28T20:38:46Z</time>
      </trkpt>
      <trkpt lat="43.64528" lon="0.66141">
        <ele>234.831</ele>
        <time>2019-02-28T20:39:06Z</time>
      </trkpt>
      <trkpt lat="43.64615" lon="0.66034">
        <ele>234.042</ele>
        <time>2019-02-28T20:39:26Z</time>
      </trkpt>
      <trkpt lat="43.64653" lon="0.65933">
        <ele>231.821</ele>
        <time>2019-02-28T20:39:46Z</time>
      </trkpt>
      <trkpt lat="43.6471" lon="0.65859">
        <ele>231.562</ele>
        <time>2019-02-28T20:40:06Z</time>
      </trkpt>
      <trkpt lat="43.64725" lon="0.65812">
        <ele>231.921</ele>
        <time>2019-02-28T20:40:26Z</time>
      </trkpt>
      <trkpt lat="43.64788" lon="0.65735">
        <ele>230.441</ele>
        <time>2019-02-28T20:40:46Z</time>
      </trkpt>
      <trkpt lat="43.64843" lon="0.65717">
        <ele>221.905</ele>
        <time>2019-02-28T20:41:06Z</time>
      </trkpt>
      <trkpt lat="43.64869" lon="0.65732">
        <ele>215.608</ele>
        <time>2019-02-28T20:41:26Z</time>
      </trkpt>
      <trkpt lat="43.64887" lon="0.6576">
        <ele>211.439</ele>
        <time>2019-02-28T20:41:46Z</time>
      </trkpt>
      <trkpt lat="43.64962" lon="0.65783">
        <ele>210.012</ele>
        <time>2019-02-28T20:42:06Z</time>
      </trkpt>
      <trkpt lat="43.65122" lon="0.65522">
        <ele>219.478</ele>
        <time>2019-02-28T20:42:26Z</time>
      </trkpt>
      <trkpt lat="43.65191" lon="0.65341">
        <ele>226.767</ele>
        <time>2019-02-28T20:42:46Z</time>
      </trkpt>
      <trkpt lat="43.65223" lon="0.6518">
        <ele>231.054</ele>
        <time>2019-02-28T20:43:06Z</time>
      </trkpt>
      <trkpt lat="43.65243" lon="0.65058">
        <ele>234.585</ele>
        <time>2019-02-28T20:43:26Z</time>
      </trkpt>
      <trkpt lat="43.65309" lon="0.64987">
        <ele>232.844</ele>
        <time>2019-02-28T20:43:46Z</time>
      </trkpt>
      <trkpt lat="43.65334" lon="0.64914">
        <ele>232.855</ele>
        <time>2019-02-28T20:44:06Z</time>
      </trkpt>
      <trkpt lat="43.65335" lon="0.64858">
        <ele>228.424</ele>
        <time>2019-02-28T20:44:26Z</time>
      </trkpt>
      <trkpt lat="43.65301" lon="0.64736">
        <ele>219.804</ele>
        <time>2019-02-28T20:45:26Z</time>
      </trkpt>
      <trkpt lat="43.65239" lon="0.64656">
        <ele>213.614</ele>
        <time>2019-02-28T20:45:46Z</time>
      </trkpt>
      <trkpt lat="43.6524" lon="0.6465">
        <ele>213.508</ele>
        <time>2021-04-17T21:01:30Z</time>
      </trkpt>
      <trkpt lat="43.65261" lon="0.64666">
        <ele>214.769</ele>
        <time>2021-04-17T21:01:50Z</time>
      </trkpt>
      <trkpt lat="43.65291" lon="0.64661">
        <ele>213.342</ele>
        <time>2021-04-17T21:02:10Z</time>
      </trkpt>
      <trkpt lat="43.65326" lon="0.64669">
        <ele>213.488</ele>
        <time>2021-04-17T21:02:30Z</time>
      </trkpt>
      <trkpt lat="43.65352" lon="0.64689">
        <ele>211.047</ele>
        <time>2021-04-17T21:02:50Z</time>
      </trkpt>
      <trkpt lat="43.65384" lon="0.64748">
        <ele>211.484</ele>
        <time>2021-04-17T21:03:10Z</time>
      </trkpt>
      <trkpt lat="43.65393" lon="0.64786">
        <ele>213.375</ele>
        <time>2021-04-17T21:03:30Z</time>
      </trkpt>
      <trkpt lat="43.65416" lon="0.6484">
        <ele>215.844</ele>
        <time>2021-04-17T21:03:50Z</time>
      </trkpt>
      <trkpt lat="43.65459" lon="0.64883">
        <ele>208.215</ele>
        <time>2021-04-17T21:04:10Z</time>
      </trkpt>
      <trkpt lat="43.65478" lon="0.64919">
        <ele>205.558</ele>
        <time>2021-04-17T21:04:30Z</time>
      </trkpt>
      <trkpt lat="43.65481" lon="0.64958">
        <ele>204.452</ele>
        <time>2021-04-17T21:04:50Z</time>
      </trkpt>
      <trkpt lat="43.65466" lon="0.65051">
        <ele>204.017</ele>
        <time>2021-04-17T21:05:10Z</time>
      </trkpt>
      <trkpt lat="43.65476" lon="0.65058">
        <ele>200.608</ele>
        <time>2021-04-17T21:05:30Z</time>
      </trkpt>
      <trkpt lat="43.65493" lon="0.65036">
        <ele>197.392</ele>
        <time>2021-04-17T21:05:50Z</time>
      </trkpt>
      <trkpt lat="43.65502" lon="0.65002">
        <ele>197.445</ele>
        <time>2021-04-17T21:06:10Z</time>
      </trkpt>
      <trkpt lat="43.65523" lon="0.64948">
        <ele>192.791</ele>
        <time>2021-04-17T21:06:30Z</time>
      </trkpt>
      <trkpt lat="43.65517" lon="0.64897">
        <ele>193.59</ele>
        <time>2021-04-17T21:06:50Z</time>
      </trkpt>
      <trkpt lat="43.65522" lon="0.64861">
        <ele>190.067</ele>
        <time>2021-04-17T21:07:10Z</time>
      </trkpt>
      <trkpt lat="43.65534" lon="0.64834">
        <ele>185.858</ele>
        <time>2021-04-17T21:07:30Z</time>
      </trkpt>
      <trkpt lat="43.65567" lon="0.6478">
        <ele>177.577</ele>
        <time>2021-04-17T21:07:50Z</time>
      </trkpt>
      <trkpt lat="43.65582" lon="0.64736">
        <ele>174.788</ele>
        <time>2021-04-17T21:08:10Z</time>
      </trkpt>
      <trkpt lat="43.65577" lon="0.64714">
        <ele>174.599</ele>
        <time>2021-04-17T21:08:30Z</time>
      </trkpt>
      <trkpt lat="43.65564" lon="0.64719">
        <ele>175.507</ele>
        <time>2021-04-17T21:08:50Z</time>
      </trkpt>
      <trkpt lat="43.65546" lon="0.64741">
        <ele>177.427</ele>
        <time>2021-04-17T21:09:10Z</time>
      </trkpt>
      <trkpt lat="43.65536" lon="0.64737">
        <ele>177.908</ele>
        <time>2021-04-17T21:09:30Z</time>
      </trkpt>
      <trkpt lat="43.65537" lon="0.64716">
        <ele>177.136</ele>
        <time>2021-04-17T21:09:50Z</time>
      </trkpt>
      <trkpt lat="43.65558" lon="0.64696">
        <ele>175.159</ele>
        <time>2021-04-17T21:10:10Z</time>
      </trkpt>
      <trkpt lat="43.65584" lon="0.64638">
        <ele>171.185</ele>
        <time>2021-04-17T21:10:30Z</time>
      </trkpt>
      <trkpt lat="43.65596" lon="0.646">
        <ele>167.034</ele>
        <time>2021-04-17T21:10:50Z</time>
      </trkpt>
      <trkpt lat="43.65612" lon="0.64593">
        <ele>164.281</ele>
        <time>2021-04-17T21:11:10Z</time>
      </trkpt>
      <trkpt lat="43.65622" lon="0.64602">
        <ele>163.242</ele>
        <time>2021-04-17T21:11:30Z</time>
      </trkpt>
      <trkpt lat="43.6565" lon="0.64712">
        <ele>164.531</ele>
        <time>2021-04-17T21:11:50Z</time>
      </trkpt>
      <trkpt lat="43.65645" lon="0.64789">
        <ele>166.052</ele>
        <time>2021-04-17T21:12:10Z</time>
      </trkpt>
      <trkpt lat="43.65651" lon="0.64811">
        <ele>165.014</ele>
        <time>2021-04-17T21:12:30Z</time>
      </trkpt>
      <trkpt lat="43.65672" lon="0.64815">
        <ele>161.554</ele>
        <time>2021-04-17T21:12:50Z</time>
      </trkpt>
      <trkpt lat="43.65702" lon="0.64807">
        <ele>157.409</ele>
        <time>2021-04-17T21:13:10Z</time>
      </trkpt>
      <trkpt lat="43.65704" lon="0.64756">
        <ele>157.908</ele>
        <time>2021-04-17T21:13:30Z</time>
      </trkpt>
      <trkpt lat="43.65715" lon="0.64746">
        <ele>156.598</ele>
        <time>2021-04-17T21:13:50Z</time>
      </trkpt>
      <trkpt lat="43.65774" lon="0.64723">
        <ele>149.211</ele>
        <time>2021-04-17T21:14:10Z</time>
      </trkpt>
      <trkpt lat="43.65812" lon="0.64713">
        <ele>147.397</ele>
        <time>2021-04-17T21:14:30Z</time>
      </trkpt>
      <trkpt lat="43.65836" lon="0.64683">
        <ele>146.956</ele>
        <time>2021-04-17T21:14:50Z</time>
      </trkpt>
      <trkpt lat="43.6584" lon="0.64647">
        <ele>147.493</ele>
        <time>2021-04-17T21:15:10Z</time>
      </trkpt>
      <trkpt lat="43.65793" lon="0.6451">
        <ele>146.054</ele>
        <time>2021-04-17T21:15:30Z</time>
      </trkpt>
      <trkpt lat="43.65765" lon="0.64406">
        <ele>146.233</ele>
        <time>2021-04-17T21:15:50Z</time>
      </trkpt>
      <trkpt lat="43.65795" lon="0.64392">
        <ele>148.624</ele>
        <time>2021-04-17T21:16:10Z</time>
      </trkpt>
      <trkpt lat="43.65876" lon="0.64332">
        <ele>156.671</ele>
        <time>2021-04-17T21:16:30Z</time>
      </trkpt>
      <trkpt lat="43.6604" lon="0.64235">
        <ele>169.541</ele>
        <time>2021-04-17T21:16:50Z</time>
      </trkpt>
      <trkpt lat="43.6609" lon="0.64446">
        <ele>167.815</ele>
        <time>2021-04-17T21:17:10Z</time>
      </trkpt>
      <trkpt lat="43.66106" lon="0.64542">
        <ele>168.408</ele>
        <time>2021-04-17T21:17:30Z</time>
      </trkpt>
      <trkpt lat="43.66119" lon="0.64668">
        <ele>166.994</ele>
        <time>2021-04-17T21:17:50Z</time>
      </trkpt>
      <trkpt lat="43.66122" lon="0.64812">
        <ele>163.277</ele>
        <time>2021-04-17T21:18:10Z</time>
      </trkpt>
      <trkpt lat="43.66134" lon="0.64829">
        <ele>163.283</ele>
        <time>2021-04-17T21:18:30Z</time>
      </trkpt>
      <trkpt lat="43.66184" lon="0.64819">
        <ele>167.472</ele>
        <time>2021-04-17T21:18:50Z</time>
      </trkpt>
      <trkpt lat="43.66195" lon="0.64802">
        <ele>169.169</ele>
        <time>2021-04-17T21:19:10Z</time>
      </trkpt>
      <trkpt lat="43.6618" lon="0.64697">
        <ele>170.81</ele>
        <time>2021-04-17T21:19:30Z</time>
      </trkpt>
      <trkpt lat="43.66195" lon="0.6469">
        <ele>172.089</ele>
        <time>2021-04-17T21:19:50Z</time>
      </trkpt>
      <trkpt lat="43.66154" lon="0.6443">
        <ele>172.66</ele>
        <time>2021-04-17T21:20:10Z</time>
      </trkpt>
      <trkpt lat="43.66298" lon="0.64329">
        <ele>194.792</ele>
        <time>2021-04-17T21:20:30Z</time>
      </trkpt>
      <trkpt lat="43.66324" lon="0.64256">
        <ele>203.673</ele>
        <time>2021-04-17T21:20:50Z</time>
      </trkpt>
      <trkpt lat="43.66354" lon="0.6419">
        <ele>212.12</ele>
        <time>2021-04-17T21:21:10Z</time>
      </trkpt>
      <trkpt lat="43.66362" lon="0.64121">
        <ele>216.208</ele>
        <time>2021-04-17T21:21:30Z</time>
      </trkpt>
      <trkpt lat="43.66368" lon="0.64109">
        <ele>217.846</ele>
        <time>2021-04-17T21:21:50Z</time>
      </trkpt>
      <trkpt lat="43.66374" lon="0.64103">
        <ele>219.219</ele>
        <time>2021-04-17T21:22:10Z</time>
      </trkpt>
      <trkpt lat="43.66373" lon="0.64085">
        <ele>219.635</ele>
        <time>2021-04-17T21:22:30Z</time>
      </trkpt>
      <trkpt lat="43.66344" lon="0.64014">
        <ele>218.794</ele>
        <time>2021-04-17T21:22:50Z</time>
      </trkpt>
      <trkpt lat="43.66344" lon="0.63984">
        <ele>219.621</ele>
        <time>2021-04-17T21:23:10Z</time>
      </trkpt>
      <trkpt lat="43.6633" lon="0.63953">
        <ele>218.582</ele>
        <time>2021-04-17T21:23:30Z</time>
      </trkpt>
      <trkpt lat="43.6633" lon="0.63929">
        <ele>219.071</ele>
        <time>2021-04-17T21:23:50Z</time>
      </trkpt>
      <trkpt lat="43.66315" lon="0.63892">
        <ele>213.622</ele>
        <time>2021-04-17T21:24:10Z</time>
      </trkpt>
      <trkpt lat="43.6632" lon="0.63866">
        <ele>212.019</ele>
        <time>2021-04-17T21:24:30Z</time>
      </trkpt>
      <trkpt lat="43.66356" lon="0.63822">
        <ele>209.409</ele>
        <time>2021-04-17T21:24:50Z</time>
      </trkpt>
      <trkpt lat="43.66421" lon="0.63713">
        <ele>194.419</ele>
        <time>2021-04-17T21:25:10Z</time>
      </trkpt>
      <trkpt lat="43.66455" lon="0.637">
        <ele>191.508</ele>
        <time>2021-04-17T21:25:30Z</time>
      </trkpt>
      <trkpt lat="43.66488" lon="0.63669">
        <ele>188.228</ele>
        <time>2021-04-17T21:25:50Z</time>
      </trkpt>
      <trkpt lat="43.66488" lon="0.63581">
        <ele>186.841</ele>
        <time>2021-04-17T21:26:10Z</time>
      </trkpt>
      <trkpt lat="43.6646" lon="0.63502">
        <ele>182.327</ele>
        <time>2021-04-17T21:26:30Z</time>
      </trkpt>
      <trkpt lat="43.66443" lon="0.63478">
        <ele>179.366</ele>
        <time>2021-04-17T21:26:50Z</time>
      </trkpt>
      <trkpt lat="43.66423" lon="0.63463">
        <ele>176.433</ele>
        <time>2021-04-17T21:27:10Z</time>
      </trkpt>
      <trkpt lat="43.66425" lon="0.63377">
        <ele>175.594</ele>
        <time>2021-04-17T21:27:30Z</time>
      </trkpt>
      <trkpt lat="43.66419" lon="0.63333">
        <ele>173.223</ele>
        <time>2021-04-17T21:27:50Z</time>
      </trkpt>
      <trkpt lat="43.66424" lon="0.63144">
        <ele>184.494</ele>
        <time>2021-04-17T21:28:10Z</time>
      </trkpt>
      <trkpt lat="43.66386" lon="0.63147">
        <ele>185.696</ele>
        <time>2021-04-17T21:28:30Z</time>
      </trkpt>
      <trkpt lat="43.66324" lon="0.63184">
        <ele>185.131</ele>
        <time>2021-04-17T21:28:50Z</time>
      </trkpt>
      <trkpt lat="43.66323" lon="0.63162">
        <ele>187.724</ele>
        <time>2021-04-17T21:29:10Z</time>
      </trkpt>
      <trkpt lat="43.66402" lon="0.62844">
        <ele>175.008</ele>
        <time>2021-04-17T21:29:30Z</time>
      </trkpt>
      <trkpt lat="43.6644" lon="0.62807">
        <ele>173.456</ele>
        <time>2021-04-17T21:29:50Z</time>
      </trkpt>
      <trkpt lat="43.66523" lon="0.62603">
        <ele>164.049</ele>
        <time>2021-04-17T21:30:10Z</time>
      </trkpt>
      <trkpt lat="43.66551" lon="0.62481">
        <ele>152.265</ele>
        <time>2021-04-17T21:30:30Z</time>
      </trkpt>
      <trkpt lat="43.66573" lon="0.62448">
        <ele>149.674</ele>
        <time>2021-04-17T21:30:50Z</time>
      </trkpt>
      <trkpt lat="43.66552" lon="0.62384">
        <ele>144.251</ele>
        <time>2021-04-17T21:31:10Z</time>
      </trkpt>
      <trkpt lat="43.66456" lon="0.62201">
        <ele>137.452</ele>
        <time>2021-04-17T21:31:30Z</time>
      </trkpt>
      <trkpt lat="43.66384" lon="0.62257">
        <ele>137.571</ele>
        <time>2021-04-17T21:31:50Z</time>
      </trkpt>
      <trkpt lat="43.66368" lon="0.62237">
        <ele>137.512</ele>
        <time>2021-04-17T21:32:10Z</time>
      </trkpt>
      <trkpt lat="43.66414" lon="0.62152">
        <ele>137.255</ele>
        <time>2021-04-17T21:32:30Z</time>
      </trkpt>
      <trkpt lat="43.66413" lon="0.62114">
        <ele>137.607</ele>
        <time>2021-04-17T21:32:50Z</time>
      </trkpt>
      <trkpt lat="43.66391" lon="0.62111">
        <ele>137.717</ele>
        <time>2021-04-17T21:33:10Z</time>
      </trkpt>
      <trkpt lat="43.66373" lon="0.62063">
        <ele>138.408</ele>
        <time>2021-04-17T21:33:30Z</time>
      </trkpt>
      <trkpt lat="43.66308" lon="0.62073">
        <ele>138.672</ele>
        <time>2021-04-17T21:33:50Z</time>
      </trkpt>
      <trkpt lat="43.66267" lon="0.62069">
        <ele>139.335</ele>
        <time>2021-04-17T21:34:10Z</time>
      </trkpt>
      <trkpt lat="43.66215" lon="0.6203">
        <ele>141.941</ele>
        <time>2021-04-17T21:34:30Z</time>
      </trkpt>
      <trkpt lat="43.66184" lon="0.62013">
        <ele>143.21</ele>
        <time>2021-04-17T21:34:50Z</time>
      </trkpt>
      <trkpt lat="43.66203" lon="0.61971">
        <ele>144.017</ele>
        <time>2021-04-17T21:35:10Z</time>
      </trkpt>
      <trkpt lat="43.6617" lon="0.61801">
        <ele>149.298</ele>
        <time>2021-04-17T21:35:30Z</time>
      </trkpt>
      <trkpt lat="43.66182" lon="0.61791">
        <ele>149.837</ele>
        <time>2021-04-17T21:35:50Z</time>
      </trkpt>
      <trkpt lat="43.66173" lon="0.61757">
        <ele>150.998</ele>
        <time>2021-04-17T21:36:10Z</time>
      </trkpt>
      <trkpt lat="43.6616" lon="0.61734">
        <ele>151.944</ele>
        <time>2021-04-17T21:36:30Z</time>
      </trkpt>
      <trkpt lat="43.66147" lon="0.61682">
        <ele>154.505</ele>
        <time>2021-04-17T21:36:50Z</time>
      </trkpt>
      <trkpt lat="43.66048" lon="0.61749">
        <ele>155.015</ele>
        <time>2021-04-17T21:37:10Z</time>
      </trkpt>
      <trkpt lat="43.65966" lon="0.61576">
        <ele>165.208</ele>
        <time>2021-04-17T21:37:30Z</time>
      </trkpt>
      <trkpt lat="43.65916" lon="0.61449">
        <ele>171.421</ele>
        <time>2021-04-17T21:37:50Z</time>
      </trkpt>
      <trkpt lat="43.65864" lon="0.61295">
        <ele>182.184</ele>
        <time>2021-04-17T21:38:10Z</time>
      </trkpt>
      <trkpt lat="43.6584" lon="0.61258">
        <ele>184.49</ele>
        <time>2021-04-17T21:38:30Z</time>
      </trkpt>
      <trkpt lat="43.65817" lon="0.61239">
        <ele>187.519</ele>
        <time>2021-04-17T21:38:50Z</time>
      </trkpt>
      <trkpt lat="43.65801" lon="0.61203">
        <ele>190.496</ele>
        <time>2021-04-17T21:39:10Z</time>
      </trkpt>
      <trkpt lat="43.65779" lon="0.61145">
        <ele>194.177</ele>
        <time>2021-04-17T21:39:30Z</time>
      </trkpt>
      <trkpt lat="43.65721" lon="0.61103">
        <ele>193.876</ele>
        <time>2021-04-17T21:39:50Z</time>
      </trkpt>
      <trkpt lat="43.65669" lon="0.61054">
        <ele>184.247</ele>
        <time>2019-12-05T21:22:39Z</time>
      </trkpt>
      <trkpt lat="43.6565" lon="0.61037">
        <ele>182.017</ele>
        <time>2019-12-05T21:22:59Z</time>
      </trkpt>
      <trkpt lat="43.65644" lon="0.61026">
        <ele>181.387</ele>
        <time>2019-12-05T21:23:19Z</time>
      </trkpt>
      <trkpt lat="43.65592" lon="0.60915">
        <ele>173.915</ele>
        <time>2019-12-05T21:23:39Z</time>
      </trkpt>
      <trkpt lat="43.65536" lon="0.6082">
        <ele>167.608</ele>
        <time>2019-12-05T21:23:59Z</time>
      </trkpt>
      <trkpt lat="43.65526" lon="0.60789">
        <ele>168.998</ele>
        <time>2019-12-05T21:24:19Z</time>
      </trkpt>
      <trkpt lat="43.65534" lon="0.60779">
        <ele>169.961</ele>
        <time>2019-12-05T21:24:39Z</time>
      </trkpt>
      <trkpt lat="43.65609" lon="0.60538">
        <ele>155.497</ele>
        <time>2019-12-05T21:24:59Z</time>
      </trkpt>
      <trkpt lat="43.65631" lon="0.60442">
        <ele>149.396</ele>
        <time>2019-12-05T21:25:19Z</time>
      </trkpt>
      <trkpt lat="43.65668" lon="0.60418">
        <ele>149.173</ele>
        <time>2019-12-05T21:25:39Z</time>
      </trkpt>
      <trkpt lat="43.65685" lon="0.60229">
        <ele>139.964</ele>
        <time>2019-12-05T21:25:59Z</time>
      </trkpt>
      <trkpt lat="43.65722" lon="0.59733">
        <ele>129.063</ele>
        <time>2019-12-05T21:26:19Z</time>
      </trkpt>
      <trkpt lat="43.65731" lon="0.59721">
        <ele>131.284</ele>
        <time>2021-04-17T21:44:10Z</time>
      </trkpt>
      <trkpt lat="43.65579" lon="0.59644">
        <ele>130.317</ele>
        <time>2021-04-17T21:44:30Z</time>
      </trkpt>
      <trkpt lat="43.65599" lon="0.59561">
        <ele>127.187</ele>
        <time>2019-12-05T21:26:59Z</time>
      </trkpt>
      <trkpt lat="43.65571" lon="0.59552">
        <ele>127.415</ele>
        <time>2019-12-05T21:27:19Z</time>
      </trkpt>
      <trkpt lat="43.6557" lon="0.59516">
        <ele>127.008</ele>
        <time>2019-12-05T21:27:39Z</time>
      </trkpt>
      <trkpt lat="43.6555" lon="0.59484">
        <ele>127.068</ele>
        <time>2019-12-05T21:27:59Z</time>
      </trkpt>
      <trkpt lat="43.6555" lon="0.59446">
        <ele>127.021</ele>
        <time>2019-12-05T21:28:19Z</time>
      </trkpt>
      <trkpt lat="43.65558" lon="0.59401">
        <ele>126.437</ele>
        <time>2019-12-05T21:28:39Z</time>
      </trkpt>
      <trkpt lat="43.65537" lon="0.59354">
        <ele>126.016</ele>
        <time>2019-12-05T21:28:59Z</time>
      </trkpt>
      <trkpt lat="43.65535" lon="0.59326">
        <ele>126.033</ele>
        <time>2019-12-05T21:29:19Z</time>
      </trkpt>
      <trkpt lat="43.6556" lon="0.5926">
        <ele>126.024</ele>
        <time>2019-12-05T21:29:39Z</time>
      </trkpt>
      <trkpt lat="43.65574" lon="0.59256">
        <ele>126.063</ele>
        <time>2019-12-05T21:29:59Z</time>
      </trkpt>
      <trkpt lat="43.65563" lon="0.59231">
        <ele>125.324</ele>
        <time>2019-12-05T21:30:19Z</time>
      </trkpt>
      <trkpt lat="43.65443" lon="0.59193">
        <ele>126.039</ele>
        <time>2019-12-05T21:30:39Z</time>
      </trkpt>
      <trkpt lat="43.65382" lon="0.59162">
        <ele>126.001</ele>
        <time>2019-12-05T21:30:59Z</time>
      </trkpt>
      <trkpt lat="43.65332" lon="0.59133">
        <ele>126.021</ele>
        <time>2019-12-05T21:31:19Z</time>
      </trkpt>
      <trkpt lat="43.65275" lon="0.59119">
        <ele>126.008</ele>
        <time>2019-12-05T21:31:39Z</time>
      </trkpt>
      <trkpt lat="43.65214" lon="0.59117">
        <ele>126.07</ele>
        <time>2019-12-05T21:31:59Z</time>
      </trkpt>
      <trkpt lat="43.65102" lon="0.59143">
        <ele>126.023</ele>
        <time>2019-12-05T21:32:19Z</time>
      </trkpt>
      <trkpt lat="43.65067" lon="0.59145">
        <ele>126.049</ele>
        <time>2019-12-05T21:32:39Z</time>
      </trkpt>
      <trkpt lat="43.65009" lon="0.59132">
        <ele>126.268</ele>
        <time>2019-12-05T21:32:59Z</time>
      </trkpt>
      <trkpt lat="43.64926" lon="0.59055">
        <ele>126.395</ele>
        <time>2019-12-05T21:33:19Z</time>
      </trkpt>
      <trkpt lat="43.6488" lon="0.59026">
        <ele>126.036</ele>
        <time>2019-12-05T21:33:39Z</time>
      </trkpt>
      <trkpt lat="43.64898" lon="0.58954">
        <ele>128.285</ele>
        <time>2019-12-05T21:33:59Z</time>
      </trkpt>
      <trkpt lat="43.64884" lon="0.58929">
        <ele>128.916</ele>
        <time>2019-12-05T21:34:19Z</time>
      </trkpt>
      <trkpt lat="43.64729" lon="0.58865">
        <ele>127.859</ele>
        <time>2019-12-05T21:34:39Z</time>
      </trkpt>
      <trkpt lat="43.64736" lon="0.58856">
        <ele>128.203</ele>
        <time>2019-12-05T21:34:59Z</time>
      </trkpt>
      <trkpt lat="43.64758" lon="0.58758">
        <ele>140.323</ele>
        <time>2019-12-05T21:35:19Z</time>
      </trkpt>
      <trkpt lat="43.64742" lon="0.58746">
        <ele>139.208</ele>
        <time>2019-12-05T21:35:39Z</time>
      </trkpt>
      <trkpt lat="43.64706" lon="0.58743">
        <ele>137.072</ele>
        <time>2019-12-05T21:35:59Z</time>
      </trkpt>
      <trkpt lat="43.64702" lon="0.58723">
        <ele>141.065</ele>
        <time>2019-12-05T21:36:19Z</time>
      </trkpt>
      <trkpt lat="43.64709" lon="0.58652">
        <ele>146.831</ele>
        <time>2019-12-05T21:36:39Z</time>
      </trkpt>
      <trkpt lat="43.64705" lon="0.58602">
        <ele>170.04</ele>
        <time>2020-06-08T00:27:32Z</time>
      </trkpt>
      <trkpt lat="43.64679" lon="0.58611">
        <ele>169.927</ele>
        <time>2020-06-08T00:27:52Z</time>
      </trkpt>
      <trkpt lat="43.6465" lon="0.58596">
        <ele>161.378</ele>
        <time>2016-12-30T12:49:45Z</time>
      </trkpt>
      <trkpt lat="43.64651" lon="0.58516">
        <ele>174.748</ele>
        <time>2021-04-17T21:56:10Z</time>
      </trkpt>
      <trkpt lat="43.64618" lon="0.58512">
        <ele>175.451</ele>
        <time>2021-04-17T21:56:30Z</time>
      </trkpt>
      <trkpt lat="43.64577" lon="0.58493">
        <ele>165.001</ele>
        <time>2016-12-30T12:51:05Z</time>
      </trkpt>
      <trkpt lat="43.64548" lon="0.58467">
        <ele>167.311</ele>
        <time>2021-04-17T21:57:10Z</time>
      </trkpt>
      <trkpt lat="43.64515" lon="0.58446">
        <ele>159.408</ele>
        <time>2021-04-17T21:57:30Z</time>
      </trkpt>
      <trkpt lat="43.64524" lon="0.58387">
        <ele>156.962</ele>
        <time>2021-04-17T21:57:50Z</time>
      </trkpt>
      <trkpt lat="43.64516" lon="0.58359">
        <ele>153.455</ele>
        <time>2021-04-17T21:58:10Z</time>
      </trkpt>
      <trkpt lat="43.64519" lon="0.58339">
        <ele>152.821</ele>
        <time>2021-04-17T21:58:30Z</time>
      </trkpt>
      <trkpt lat="43.64519" lon="0.58311">
        <ele>152.22</ele>
        <time>2021-04-17T21:58:50Z</time>
      </trkpt>
      <trkpt lat="43.64525" lon="0.58258">
        <ele>153.117</ele>
        <time>2021-04-17T21:59:10Z</time>
      </trkpt>
      <trkpt lat="43.64511" lon="0.58232">
        <ele>149.928</ele>
        <time>2021-04-17T21:59:30Z</time>
      </trkpt>
      <trkpt lat="43.6454" lon="0.58233">
        <ele>148.767</ele>
        <time>2016-12-30T12:52:45Z</time>
      </trkpt>
      <trkpt lat="43.64552" lon="0.58171">
        <ele>147.878</ele>
        <time>2016-12-30T12:53:05Z</time>
      </trkpt>
      <trkpt lat="43.64588" lon="0.57845">
        <ele>145.044</ele>
        <time>2016-12-30T12:53:25Z</time>
      </trkpt>
      <trkpt lat="43.64589" lon="0.57723">
        <ele>147.505</ele>
        <time>2016-12-30T12:53:45Z</time>
      </trkpt>
      <trkpt lat="43.64611" lon="0.57588">
        <ele>149.015</ele>
        <time>2016-12-30T12:54:05Z</time>
      </trkpt>
      <trkpt lat="43.64642" lon="0.57476">
        <ele>151.108</ele>
        <time>2016-12-30T12:54:25Z</time>
      </trkpt>
      <trkpt lat="43.64627" lon="0.57427">
        <ele>154.371</ele>
        <time>2016-12-30T12:54:45Z</time>
      </trkpt>
      <trkpt lat="43.64558" lon="0.57347">
        <ele>159.114</ele>
        <time>2016-12-30T12:55:05Z</time>
      </trkpt>
      <trkpt lat="43.64505" lon="0.57322">
        <ele>162.43</ele>
        <time>2021-04-17T22:02:30Z</time>
      </trkpt>
      <trkpt lat="43.64499" lon="0.57178">
        <ele>160.149</ele>
        <time>2016-12-30T12:55:45Z</time>
      </trkpt>
      <trkpt lat="43.64509" lon="0.57006">
        <ele>167.996</ele>
        <time>2016-12-30T12:56:05Z</time>
      </trkpt>
      <trkpt lat="43.6454" lon="0.56858">
        <ele>172.717</ele>
        <time>2016-12-30T12:56:25Z</time>
      </trkpt>
      <trkpt lat="43.64546" lon="0.5677">
        <ele>176.696</ele>
        <time>2016-12-30T12:56:45Z</time>
      </trkpt>
      <trkpt lat="43.6456" lon="0.56689">
        <ele>179.517</ele>
        <time>2016-12-30T12:57:05Z</time>
      </trkpt>
      <trkpt lat="43.6458" lon="0.56442">
        <ele>201.213</ele>
        <time>2021-04-17T22:04:30Z</time>
      </trkpt>
      <trkpt lat="43.6463" lon="0.56326">
        <ele>205.043</ele>
        <time>2016-12-30T12:57:45Z</time>
      </trkpt>
      <trkpt lat="43.64624" lon="0.56259">
        <ele>205.007</ele>
        <time>2016-12-30T12:58:05Z</time>
      </trkpt>
      <trkpt lat="43.64605" lon="0.56206">
        <ele>202.308</ele>
        <time>2016-12-30T12:58:25Z</time>
      </trkpt>
      <trkpt lat="43.6461" lon="0.56058">
        <ele>187.478</ele>
        <time>2016-12-30T12:58:45Z</time>
      </trkpt>
      <trkpt lat="43.64546" lon="0.55903">
        <ele>179.761</ele>
        <time>2016-12-30T12:59:05Z</time>
      </trkpt>
      <trkpt lat="43.64555" lon="0.55854">
        <ele>181.567</ele>
        <time>2016-12-30T12:59:25Z</time>
      </trkpt>
      <trkpt lat="43.64535" lon="0.55768">
        <ele>181.146</ele>
        <time>2016-12-30T12:59:45Z</time>
      </trkpt>
      <trkpt lat="43.64515" lon="0.55736">
        <ele>180.533</ele>
        <time>2016-12-30T13:00:05Z</time>
      </trkpt>
      <trkpt lat="43.64464" lon="0.55708">
        <ele>176.194</ele>
        <time>2016-12-30T13:00:25Z</time>
      </trkpt>
      <trkpt lat="43.6444" lon="0.55667">
        <ele>175.253</ele>
        <time>2016-12-30T13:00:45Z</time>
      </trkpt>
      <trkpt lat="43.64433" lon="0.55609">
        <ele>171.894</ele>
        <time>2016-12-30T13:01:05Z</time>
      </trkpt>
      <trkpt lat="43.64434" lon="0.55538">
        <ele>168.591</ele>
        <time>2016-12-30T13:01:25Z</time>
      </trkpt>
      <trkpt lat="43.64454" lon="0.55463">
        <ele>166.781</ele>
        <time>2016-12-30T13:01:45Z</time>
      </trkpt>
      <trkpt lat="43.64481" lon="0.55146">
        <ele>166.919</ele>
        <time>2016-12-30T13:02:05Z</time>
      </trkpt>
      <trkpt lat="43.64506" lon="0.54759">
        <ele>180.008</ele>
        <time>2016-12-30T13:02:25Z</time>
      </trkpt>
      <trkpt lat="43.64523" lon="0.54672">
        <ele>186.836</ele>
        <time>2016-12-30T13:02:45Z</time>
      </trkpt>
      <trkpt lat="43.64529" lon="0.5456">
        <ele>195.539</ele>
        <time>2016-12-30T13:03:05Z</time>
      </trkpt>
      <trkpt lat="43.64524" lon="0.54481">
        <ele>200.085</ele>
        <time>2016-12-30T13:03:25Z</time>
      </trkpt>
      <trkpt lat="43.64495" lon="0.54275">
        <ele>216.244</ele>
        <time>2016-12-30T13:03:45Z</time>
      </trkpt>
      <trkpt lat="43.64506" lon="0.54182">
        <ele>224.351</ele>
        <time>2016-12-30T13:04:05Z</time>
      </trkpt>
      <trkpt lat="43.64526" lon="0.54114">
        <ele>231.272</ele>
        <time>2016-12-30T13:04:25Z</time>
      </trkpt>
      <trkpt lat="43.64582" lon="0.54011">
        <ele>241.691</ele>
        <time>2016-12-30T13:04:45Z</time>
      </trkpt>
      <trkpt lat="43.64619" lon="0.53897">
        <ele>242.982</ele>
        <time>2016-12-30T13:05:05Z</time>
      </trkpt>
      <trkpt lat="43.64678" lon="0.5379">
        <ele>238.741</ele>
        <time>2016-12-30T13:05:25Z</time>
      </trkpt>
      <trkpt lat="43.6472" lon="0.53727">
        <ele>239.381</ele>
        <time>2016-12-30T13:05:45Z</time>
      </trkpt>
      <trkpt lat="43.64771" lon="0.53684">
        <ele>242.709</ele>
        <time>2016-12-30T13:06:05Z</time>
      </trkpt>
      <trkpt lat="43.64825" lon="0.5362">
        <ele>249.808</ele>
        <time>2016-12-30T13:06:25Z</time>
      </trkpt>
      <trkpt lat="43.6488" lon="0.53577">
        <ele>248.841</ele>
        <time>2016-12-30T13:06:45Z</time>
      </trkpt>
      <trkpt lat="43.64956" lon="0.53478">
        <ele>247.414</ele>
        <time>2016-12-30T13:07:05Z</time>
      </trkpt>
      <trkpt lat="43.65006" lon="0.53388">
        <ele>251.25</ele>
        <time>2016-12-30T13:07:25Z</time>
      </trkpt>
      <trkpt lat="43.6508" lon="0.53318">
        <ele>251.479</ele>
        <time>2016-12-30T13:07:45Z</time>
      </trkpt>
      <trkpt lat="43.65134" lon="0.5321">
        <ele>251.616</ele>
        <time>2016-12-30T13:08:05Z</time>
      </trkpt>
      <trkpt lat="43.65158" lon="0.53129">
        <ele>260.287</ele>
        <time>2016-12-30T13:08:25Z</time>
      </trkpt>
      <trkpt lat="43.65148" lon="0.53071">
        <ele>264.086</ele>
        <time>2016-12-30T13:08:45Z</time>
      </trkpt>
      <trkpt lat="43.65054" lon="0.52957">
        <ele>266.977</ele>
        <time>2016-12-30T13:09:05Z</time>
      </trkpt>
      <trkpt lat="43.6506" lon="0.52852">
        <ele>268.598</ele>
        <time>2016-12-30T13:09:25Z</time>
      </trkpt>
      <trkpt lat="43.65198" lon="0.52464">
        <ele>269.715</ele>
        <time>2016-12-30T13:09:45Z</time>
      </trkpt>
      <trkpt lat="43.65296" lon="0.52245">
        <ele>272.826</ele>
        <time>2016-12-30T13:10:05Z</time>
      </trkpt>
      <trkpt lat="43.65307" lon="0.5209">
        <ele>274.908</ele>
        <time>2016-12-30T13:10:25Z</time>
      </trkpt>
      <trkpt lat="43.65287" lon="0.51951">
        <ele>273.246</ele>
        <time>2016-12-30T13:10:45Z</time>
      </trkpt>
      <trkpt lat="43.6538" lon="0.51483">
        <ele>269.329</ele>
        <time>2016-12-30T13:11:05Z</time>
      </trkpt>
      <trkpt lat="43.65391" lon="0.51363">
        <ele>269.935</ele>
        <time>2016-12-30T13:11:25Z</time>
      </trkpt>
      <trkpt lat="43.65389" lon="0.5115">
        <ele>268.434</ele>
        <time>2016-12-30T13:11:45Z</time>
      </trkpt>
      <trkpt lat="43.65366" lon="0.5088">
        <ele>264.331</ele>
        <time>2016-12-30T13:12:05Z</time>
      </trkpt>
      <trkpt lat="43.65358" lon="0.50768">
        <ele>265.212</ele>
        <time>2016-12-30T13:12:25Z</time>
      </trkpt>
      <trkpt lat="43.65386" lon="0.50597">
        <ele>266.071</ele>
        <time>2016-12-30T13:12:45Z</time>
      </trkpt>
      <trkpt lat="43.65423" lon="0.50522">
        <ele>269.672</ele>
        <time>2016-12-30T13:13:05Z</time>
      </trkpt>
      <trkpt lat="43.6549" lon="0.50414">
        <ele>269.655</ele>
        <time>2016-12-30T13:13:25Z</time>
      </trkpt>
      <trkpt lat="43.65549" lon="0.50305">
        <ele>266.707</ele>
        <time>2016-12-30T13:13:45Z</time>
      </trkpt>
      <trkpt lat="43.65591" lon="0.50191">
        <ele>262.317</ele>
        <time>2016-12-30T13:14:05Z</time>
      </trkpt>
      <trkpt lat="43.65634" lon="0.49936">
        <ele>256.408</ele>
        <time>2016-12-30T13:14:25Z</time>
      </trkpt>
      <trkpt lat="43.65439" lon="0.49616">
        <ele>252.462</ele>
        <time>2016-12-30T13:14:45Z</time>
      </trkpt>
      <trkpt lat="43.65353" lon="0.49541">
        <ele>260.895</ele>
        <time>2016-12-30T13:15:05Z</time>
      </trkpt>
      <trkpt lat="43.65243" lon="0.49434">
        <ele>260.451</ele>
        <time>2016-12-30T13:15:25Z</time>
      </trkpt>
      <trkpt lat="43.65125" lon="0.49363">
        <ele>245.03</ele>
        <time>2016-12-30T13:15:45Z</time>
      </trkpt>
      <trkpt lat="43.65026" lon="0.4932">
        <ele>243.437</ele>
        <time>2016-12-30T13:16:05Z</time>
      </trkpt>
      <trkpt lat="43.64948" lon="0.49329">
        <ele>249.278</ele>
        <time>2016-12-30T13:16:25Z</time>
      </trkpt>
      <trkpt lat="43.64734" lon="0.49314">
        <ele>249.697</ele>
        <time>2016-12-30T13:16:45Z</time>
      </trkpt>
      <trkpt lat="43.6462" lon="0.49112">
        <ele>236.028</ele>
        <time>2016-12-30T13:17:05Z</time>
      </trkpt>
      <trkpt lat="43.64495" lon="0.4909">
        <ele>246.275</ele>
        <time>2016-12-30T13:17:25Z</time>
      </trkpt>
      <trkpt lat="43.64392" lon="0.48919">
        <ele>239.928</ele>
        <time>2016-12-30T13:17:45Z</time>
      </trkpt>
      <trkpt lat="43.64333" lon="0.48876">
        <ele>241.52</ele>
        <time>2016-12-30T13:18:05Z</time>
      </trkpt>
      <trkpt lat="43.64297" lon="0.4888">
        <ele>240.608</ele>
        <time>2016-12-30T13:18:25Z</time>
      </trkpt>
      <trkpt lat="43.64226" lon="0.48942">
        <ele>233.894</ele>
        <time>2016-12-30T13:18:45Z</time>
      </trkpt>
      <trkpt lat="43.64162" lon="0.48938">
        <ele>234.717</ele>
        <time>2016-12-30T13:19:05Z</time>
      </trkpt>
      <trkpt lat="43.64131" lon="0.48919">
        <ele>236.393</ele>
        <time>2016-12-30T13:19:25Z</time>
      </trkpt>
      <trkpt lat="43.6403" lon="0.48897">
        <ele>231.632</ele>
        <time>2016-12-30T13:19:45Z</time>
      </trkpt>
      <trkpt lat="43.63974" lon="0.48826">
        <ele>229.239</ele>
        <time>2016-12-30T13:20:05Z</time>
      </trkpt>
      <trkpt lat="43.63901" lon="0.48816">
        <ele>224.57</ele>
        <time>2016-12-30T13:20:25Z</time>
      </trkpt>
      <trkpt lat="43.63869" lon="0.48781">
        <ele>230.219</ele>
        <time>2016-12-30T13:20:45Z</time>
      </trkpt>
      <trkpt lat="43.63801" lon="0.48777">
        <ele>233.33</ele>
        <time>2016-12-30T13:21:05Z</time>
      </trkpt>
      <trkpt lat="43.63729" lon="0.48723">
        <ele>216.954</ele>
        <time>2016-12-30T13:21:25Z</time>
      </trkpt>
      <trkpt lat="43.63627" lon="0.48685">
        <ele>214.656</ele>
        <time>2016-12-30T13:21:45Z</time>
      </trkpt>
      <trkpt lat="43.63728" lon="0.48513">
        <ele>191.411</ele>
        <time>2016-12-30T13:22:05Z</time>
      </trkpt>
      <trkpt lat="43.63763" lon="0.4841">
        <ele>185.008</ele>
        <time>2016-12-30T13:22:25Z</time>
      </trkpt>
      <trkpt lat="43.63785" lon="0.48318">
        <ele>179.562</ele>
        <time>2016-12-30T13:22:45Z</time>
      </trkpt>
      <trkpt lat="43.63783" lon="0.48133">
        <ele>171.275</ele>
        <time>2016-12-30T13:23:05Z</time>
      </trkpt>
      <trkpt lat="43.63796" lon="0.48024">
        <ele>169.061</ele>
        <time>2016-12-30T13:23:25Z</time>
      </trkpt>
      <trkpt lat="43.63808" lon="0.47921">
        <ele>168.92</ele>
        <time>2016-12-30T13:23:45Z</time>
      </trkpt>
      <trkpt lat="43.63787" lon="0.47846">
        <ele>168.787</ele>
        <time>2016-12-30T13:24:05Z</time>
      </trkpt>
      <trkpt lat="43.63768" lon="0.47751">
        <ele>169.918</ele>
        <time>2016-12-30T13:24:25Z</time>
      </trkpt>
      <trkpt lat="43.63626" lon="0.47872">
        <ele>170.877</ele>
        <time>2021-04-17T22:31:50Z</time>
      </trkpt>
      <trkpt lat="43.63503" lon="0.47938">
        <ele>170.768</ele>
        <time>2021-04-17T22:32:10Z</time>
      </trkpt>
      <trkpt lat="43.63398" lon="0.47957">
        <ele>174.014</ele>
        <time>2021-04-17T22:32:30Z</time>
      </trkpt>
      <trkpt lat="43.63391" lon="0.47734">
        <ele>184.554</ele>
        <time>2016-12-30T13:25:45Z</time>
      </trkpt>
      <trkpt lat="43.63361" lon="0.47533">
        <ele>195.809</ele>
        <time>2016-12-30T13:26:05Z</time>
      </trkpt>
      <trkpt lat="43.63383" lon="0.47498">
        <ele>196.108</ele>
        <time>2016-12-30T13:26:25Z</time>
      </trkpt>
      <trkpt lat="43.63335" lon="0.47354">
        <ele>201.468</ele>
        <time>2016-12-30T13:26:45Z</time>
      </trkpt>
      <trkpt lat="43.63319" lon="0.47116">
        <ele>217.681</ele>
        <time>2016-12-30T13:27:05Z</time>
      </trkpt>
      <trkpt lat="43.63297" lon="0.46972">
        <ele>224.187</ele>
        <time>2016-12-30T13:27:25Z</time>
      </trkpt>
      <trkpt lat="43.63277" lon="0.46897">
        <ele>230.196</ele>
        <time>2016-12-30T13:27:45Z</time>
      </trkpt>
      <trkpt lat="43.63201" lon="0.46882">
        <ele>231.413</ele>
        <time>2016-12-30T13:28:05Z</time>
      </trkpt>
      <trkpt lat="43.63273" lon="0.46668">
        <ele>244.844</ele>
        <time>2016-12-30T13:28:25Z</time>
      </trkpt>
      <trkpt lat="43.63287" lon="0.46565">
        <ele>247.383</ele>
        <time>2016-12-30T13:28:45Z</time>
      </trkpt>
      <trkpt lat="43.63342" lon="0.4643">
        <ele>248.414</ele>
        <time>2016-12-30T13:29:05Z</time>
      </trkpt>
      <trkpt lat="43.634" lon="0.46342">
        <ele>245.711</ele>
        <time>2016-12-30T13:29:25Z</time>
      </trkpt>
      <trkpt lat="43.63443" lon="0.46239">
        <ele>249.921</ele>
        <time>2016-12-30T13:29:45Z</time>
      </trkpt>
      <trkpt lat="43.63462" lon="0.46129">
        <ele>249.403</ele>
        <time>2016-12-30T13:30:05Z</time>
      </trkpt>
      <trkpt lat="43.63509" lon="0.46069">
        <ele>247.708</ele>
        <time>2016-12-30T13:30:25Z</time>
      </trkpt>
      <trkpt lat="43.63569" lon="0.45979">
        <ele>251.188</ele>
        <time>2016-12-30T13:30:45Z</time>
      </trkpt>
      <trkpt lat="43.63613" lon="0.45891">
        <ele>251.931</ele>
        <time>2016-12-30T13:31:05Z</time>
      </trkpt>
      <trkpt lat="43.63673" lon="0.45747">
        <ele>251.827</ele>
        <time>2016-12-30T13:31:25Z</time>
      </trkpt>
      <trkpt lat="43.63701" lon="0.45571">
        <ele>252.056</ele>
        <time>2016-12-30T13:31:45Z</time>
      </trkpt>
      <trkpt lat="43.63763" lon="0.45297">
        <ele>249.863</ele>
        <time>2016-12-30T13:32:05Z</time>
      </trkpt>
      <trkpt lat="43.63803" lon="0.45163">
        <ele>246.674</ele>
        <time>2021-04-17T22:39:30Z</time>
      </trkpt>
      <trkpt lat="43.63813" lon="0.45064">
        <ele>242.833</ele>
        <time>2021-04-17T22:39:50Z</time>
      </trkpt>
      <trkpt lat="43.63794" lon="0.44975">
        <ele>241.214</ele>
        <time>2016-12-30T13:32:45Z</time>
      </trkpt>
      <trkpt lat="43.63749" lon="0.44865">
        <ele>240.029</ele>
        <time>2016-12-30T13:33:05Z</time>
      </trkpt>
      <trkpt lat="43.63707" lon="0.44846">
        <ele>243.1</ele>
        <time>2016-12-30T13:33:25Z</time>
      </trkpt>
      <trkpt lat="43.63651" lon="0.44846">
        <ele>242.32</ele>
        <time>2016-12-30T13:33:45Z</time>
      </trkpt>
      <trkpt lat="43.63544" lon="0.44743">
        <ele>235.308</ele>
        <time>2016-12-30T13:34:05Z</time>
      </trkpt>
      <trkpt lat="43.63451" lon="0.44696">
        <ele>227.839</ele>
        <time>2016-12-30T13:34:25Z</time>
      </trkpt>
      <trkpt lat="43.63318" lon="0.44582">
        <ele>217.852</ele>
        <time>2016-12-30T13:34:45Z</time>
      </trkpt>
      <trkpt lat="43.63259" lon="0.44488">
        <ele>215.088</ele>
        <time>2016-12-30T13:35:05Z</time>
      </trkpt>
      <trkpt lat="43.63153" lon="0.44398">
        <ele>209.497</ele>
        <time>2016-12-30T13:35:25Z</time>
      </trkpt>
      <trkpt lat="43.62973" lon="0.44297">
        <ele>190.144</ele>
        <time>2016-12-30T13:35:45Z</time>
      </trkpt>
      <trkpt lat="43.62909" lon="0.44275">
        <ele>183.135</ele>
        <time>2016-12-30T13:36:05Z</time>
      </trkpt>
      <trkpt lat="43.62819" lon="0.4429">
        <ele>169.734</ele>
        <time>2016-12-30T13:36:25Z</time>
      </trkpt>
      <trkpt lat="43.6274" lon="0.44333">
        <ele>160.995</ele>
        <time>2016-12-30T13:36:45Z</time>
      </trkpt>
      <trkpt lat="43.62679" lon="0.44391">
        <ele>159.172</ele>
        <time>2016-12-30T13:37:05Z</time>
      </trkpt>
      <trkpt lat="43.62639" lon="0.44368">
        <ele>157.713</ele>
        <time>2016-12-30T13:37:25Z</time>
      </trkpt>
      <trkpt lat="43.62584" lon="0.44348">
        <ele>155.514</ele>
        <time>2016-12-30T13:37:45Z</time>
      </trkpt>
      <trkpt lat="43.62435" lon="0.44241">
        <ele>156.108</ele>
        <time>2016-12-30T13:38:05Z</time>
      </trkpt>
      <trkpt lat="43.62112" lon="0.44406">
        <ele>158.684</ele>
        <time>2016-12-30T13:38:25Z</time>
      </trkpt>
      <trkpt lat="43.62078" lon="0.44444">
        <ele>164.417</ele>
        <time>2021-04-17T22:46:10Z</time>
      </trkpt>
      <trkpt lat="43.62036" lon="0.44522">
        <ele>160.093</ele>
        <time>2016-12-30T13:38:45Z</time>
      </trkpt>
      <trkpt lat="43.62011" lon="0.44492">
        <ele>159.052</ele>
        <time>2016-12-30T13:39:05Z</time>
      </trkpt>
      <trkpt lat="43.61678" lon="0.44297">
        <ele>169.739</ele>
        <time>2016-12-30T13:39:25Z</time>
      </trkpt>
      <trkpt lat="43.61511" lon="0.442">
        <ele>172.81</ele>
        <time>2016-12-30T13:39:45Z</time>
      </trkpt>
      <trkpt lat="43.60728" lon="0.43761">
        <ele>187.579</ele>
        <time>2016-12-30T13:40:05Z</time>
      </trkpt>
      <trkpt lat="43.60671" lon="0.43755">
        <ele>189.86</ele>
        <time>2021-04-17T22:48:10Z</time>
      </trkpt>
      <trkpt lat="43.60607" lon="0.43853">
        <ele>183.614</ele>
        <time>2021-04-17T22:48:30Z</time>
      </trkpt>
      <trkpt lat="43.60631" lon="0.43921">
        <ele>183.054</ele>
        <time>2021-04-17T22:48:50Z</time>
      </trkpt>
      <trkpt lat="43.60613" lon="0.43922">
        <ele>182.809</ele>
        <time>2021-04-17T22:49:10Z</time>
      </trkpt>
      <trkpt lat="43.60567" lon="0.439">
        <ele>183.108</ele>
        <time>2021-04-17T22:49:30Z</time>
      </trkpt>
      <trkpt lat="43.60532" lon="0.43906">
        <ele>184.658</ele>
        <time>2021-04-17T22:49:50Z</time>
      </trkpt>
      <trkpt lat="43.60438" lon="0.43778">
        <ele>191.741</ele>
        <time>2021-04-17T22:50:10Z</time>
      </trkpt>
      <trkpt lat="43.60397" lon="0.43809">
        <ele>193.867</ele>
        <time>2016-12-30T13:42:05Z</time>
      </trkpt>
      <trkpt lat="43.60284" lon="0.43698">
        <ele>198.236</ele>
        <time>2016-12-30T13:42:25Z</time>
      </trkpt>
      <trkpt lat="43.60248" lon="0.43688">
        <ele>195.883</ele>
        <time>2016-12-30T13:42:45Z</time>
      </trkpt>
      <trkpt lat="43.60272" lon="0.43709">
        <ele>200.674</ele>
        <time>2016-12-30T13:43:05Z</time>
      </trkpt>
      <trkpt lat="43.60275" lon="0.4377">
        <ele>210.983</ele>
        <time>2016-12-30T13:43:25Z</time>
      </trkpt>
      <trkpt lat="43.60196" lon="0.44035">
        <ele>230.194</ele>
        <time>2016-12-30T13:43:45Z</time>
      </trkpt>
      <trkpt lat="43.60156" lon="0.44099">
        <ele>234.781</ele>
        <time>2016-12-30T13:44:05Z</time>
      </trkpt>
      <trkpt lat="43.60098" lon="0.44134">
        <ele>235.561</ele>
        <time>2016-12-30T13:44:25Z</time>
      </trkpt>
      <trkpt lat="43.59946" lon="0.44167">
        <ele>243.817</ele>
        <time>2016-12-30T13:44:45Z</time>
      </trkpt>
      <trkpt lat="43.59572" lon="0.44274">
        <ele>247.008</ele>
        <time>2016-12-30T13:45:05Z</time>
      </trkpt>
      <trkpt lat="43.59537" lon="0.44259">
        <ele>245.315</ele>
        <time>2016-12-30T13:45:25Z</time>
      </trkpt>
      <trkpt lat="43.59475" lon="0.44275">
        <ele>245.798</ele>
        <time>2016-12-30T13:45:45Z</time>
      </trkpt>
      <trkpt lat="43.59357" lon="0.44329">
        <ele>247.924</ele>
        <time>2016-12-30T13:46:05Z</time>
      </trkpt>
      <trkpt lat="43.59266" lon="0.44297">
        <ele>251.843</ele>
        <time>2016-12-30T13:46:25Z</time>
      </trkpt>
      <trkpt lat="43.59199" lon="0.44303">
        <ele>251.99</ele>
        <time>2016-12-30T13:46:45Z</time>
      </trkpt>
      <trkpt lat="43.59121" lon="0.44232">
        <ele>250.631</ele>
        <time>2016-12-30T13:47:05Z</time>
      </trkpt>
      <trkpt lat="43.59093" lon="0.44235">
        <ele>250.88</ele>
        <time>2016-12-30T13:47:25Z</time>
      </trkpt>
      <trkpt lat="43.59103" lon="0.4411">
        <ele>249.011</ele>
        <time>2016-12-30T13:47:45Z</time>
      </trkpt>
      <trkpt lat="43.5914" lon="0.44033">
        <ele>246.865</ele>
        <time>2016-12-30T13:48:05Z</time>
      </trkpt>
      <trkpt lat="43.5916" lon="0.43845">
        <ele>237.468</ele>
        <time>2016-12-30T13:48:25Z</time>
      </trkpt>
      <trkpt lat="43.59144" lon="0.43761">
        <ele>234.014</ele>
        <time>2016-12-30T13:48:45Z</time>
      </trkpt>
      <trkpt lat="43.59123" lon="0.43693">
        <ele>227.908</ele>
        <time>2016-12-30T13:49:05Z</time>
      </trkpt>
      <trkpt lat="43.59122" lon="0.43659">
        <ele>227.013</ele>
        <time>2016-12-30T13:49:25Z</time>
      </trkpt>
      <trkpt lat="43.59077" lon="0.4354">
        <ele>221.126</ele>
        <time>2016-12-30T13:49:45Z</time>
      </trkpt>
      <trkpt lat="43.59123" lon="0.43229">
        <ele>200.342</ele>
        <time>2016-12-30T13:50:05Z</time>
      </trkpt>
      <trkpt lat="43.59077" lon="0.43201">
        <ele>213.581</ele>
        <time>2016-12-30T13:50:25Z</time>
      </trkpt>
      <trkpt lat="43.59028" lon="0.43194">
        <ele>221.728</ele>
        <time>2021-04-17T22:59:10Z</time>
      </trkpt>
      <trkpt lat="43.59064" lon="0.4311">
        <ele>222.999</ele>
        <time>2016-12-30T13:51:05Z</time>
      </trkpt>
      <trkpt lat="43.59108" lon="0.43">
        <ele>215.578</ele>
        <time>2016-12-30T13:51:25Z</time>
      </trkpt>
      <trkpt lat="43.59141" lon="0.42765">
        <ele>209.069</ele>
        <time>2016-12-30T13:51:45Z</time>
      </trkpt>
      <trkpt lat="43.59166" lon="0.42636">
        <ele>200.091</ele>
        <time>2016-12-30T13:52:05Z</time>
      </trkpt>
      <trkpt lat="43.59172" lon="0.42575">
        <ele>195.981</ele>
        <time>2016-12-30T13:52:25Z</time>
      </trkpt>
      <trkpt lat="43.59185" lon="0.42543">
        <ele>190.719</ele>
        <time>2016-12-30T13:52:45Z</time>
      </trkpt>
      <trkpt lat="43.59168" lon="0.42409">
        <ele>183.908</ele>
        <time>2016-12-30T13:53:05Z</time>
      </trkpt>
      <trkpt lat="43.59086" lon="0.42195">
        <ele>172.986</ele>
        <time>2016-12-30T13:53:25Z</time>
      </trkpt>
      <trkpt lat="43.59129" lon="0.42144">
        <ele>168.079</ele>
        <time>2016-12-30T13:53:45Z</time>
      </trkpt>
      <trkpt lat="43.59229" lon="0.42073">
        <ele>156.035</ele>
        <time>2016-12-30T13:54:05Z</time>
      </trkpt>
      <trkpt lat="43.5914" lon="0.41919">
        <ele>154.054</ele>
        <time>2016-12-30T13:54:25Z</time>
      </trkpt>
      <trkpt lat="43.59049" lon="0.41816">
        <ele>147.321</ele>
        <time>2016-12-30T13:54:45Z</time>
      </trkpt>
      <trkpt lat="43.59016" lon="0.41795">
        <ele>144.242</ele>
        <time>2016-12-30T13:55:05Z</time>
      </trkpt>
      <trkpt lat="43.58966" lon="0.4182">
        <ele>143.771</ele>
        <time>2016-12-30T13:55:25Z</time>
      </trkpt>
      <trkpt lat="43.58944" lon="0.41809">
        <ele>142.192</ele>
        <time>2016-12-30T13:55:45Z</time>
      </trkpt>
      <trkpt lat="43.58896" lon="0.4174">
        <ele>139.096</ele>
        <time>2016-12-30T13:56:05Z</time>
      </trkpt>
      <trkpt lat="43.58886" lon="0.41612">
        <ele>137.031</ele>
        <time>2016-12-30T13:56:25Z</time>
      </trkpt>
      <trkpt lat="43.58892" lon="0.41447">
        <ele>135.024</ele>
        <time>2016-12-30T13:56:45Z</time>
      </trkpt>
      <trkpt lat="43.5887" lon="0.41409">
        <ele>134.008</ele>
        <time>2016-12-30T13:57:05Z</time>
      </trkpt>
      <trkpt lat="43.5877" lon="0.41373">
        <ele>133.866</ele>
        <time>2016-12-30T13:57:25Z</time>
      </trkpt>
      <trkpt lat="43.58707" lon="0.41325">
        <ele>133.019</ele>
        <time>2016-12-30T13:57:45Z</time>
      </trkpt>
      <trkpt lat="43.58611" lon="0.41226">
        <ele>133.065</ele>
        <time>2016-12-30T13:58:05Z</time>
      </trkpt>
      <trkpt lat="43.58584" lon="0.41139">
        <ele>134.074</ele>
        <time>2016-12-30T13:58:25Z</time>
      </trkpt>
      <trkpt lat="43.5857" lon="0.41078">
        <ele>134.051</ele>
        <time>2016-12-30T13:58:45Z</time>
      </trkpt>
      <trkpt lat="43.5854" lon="0.41048">
        <ele>134.692</ele>
        <time>2016-12-30T13:59:05Z</time>
      </trkpt>
      <trkpt lat="43.58464" lon="0.41025">
        <ele>138.151</ele>
        <time>2016-12-30T13:59:25Z</time>
      </trkpt>
      <trkpt lat="43.58451" lon="0.41014">
        <ele>139.212</ele>
        <time>2016-12-30T13:59:45Z</time>
      </trkpt>
      <trkpt lat="43.58412" lon="0.41027">
        <ele>137.298</ele>
        <time>2016-12-30T14:00:05Z</time>
      </trkpt>
      <trkpt lat="43.58236" lon="0.41024">
        <ele>143.015</ele>
        <time>2016-12-30T14:00:25Z</time>
      </trkpt>
      <trkpt lat="43.5812" lon="0.40973">
        <ele>141.626</ele>
        <time>2016-12-30T14:00:45Z</time>
      </trkpt>
      <trkpt lat="43.58011" lon="0.40894">
        <ele>144.108</ele>
        <time>2016-12-30T14:01:05Z</time>
      </trkpt>
      <trkpt lat="43.57967" lon="0.40877">
        <ele>140.676</ele>
        <time>2016-12-30T14:01:25Z</time>
      </trkpt>
      <trkpt lat="43.57937" lon="0.40566">
        <ele>166.579</ele>
        <time>2016-12-30T14:01:45Z</time>
      </trkpt>
      <trkpt lat="43.57891" lon="0.40546">
        <ele>170.335</ele>
        <time>2016-12-30T14:02:05Z</time>
      </trkpt>
      <trkpt lat="43.57821" lon="0.40491">
        <ele>177.134</ele>
        <time>2021-04-17T23:10:50Z</time>
      </trkpt>
      <trkpt lat="43.57806" lon="0.40395">
        <ele>180.641</ele>
        <time>2021-04-17T23:11:10Z</time>
      </trkpt>
      <trkpt lat="43.57743" lon="0.40215">
        <ele>187.212</ele>
        <time>2021-04-17T23:11:30Z</time>
      </trkpt>
      <trkpt lat="43.57761" lon="0.40053">
        <ele>189.721</ele>
        <time>2021-04-17T23:11:50Z</time>
      </trkpt>
      <trkpt lat="43.57776" lon="0.40027">
        <ele>190.912</ele>
        <time>2016-12-30T14:03:45Z</time>
      </trkpt>
      <trkpt lat="43.57783" lon="0.39879">
        <ele>194.535</ele>
        <time>2016-12-30T14:04:05Z</time>
      </trkpt>
      <trkpt lat="43.57773" lon="0.3983">
        <ele>195.386</ele>
        <time>2016-12-30T14:04:25Z</time>
      </trkpt>
      <trkpt lat="43.57868" lon="0.39441">
        <ele>203.714</ele>
        <time>2016-12-30T14:04:45Z</time>
      </trkpt>
      <trkpt lat="43.57984" lon="0.39112">
        <ele>220.708</ele>
        <time>2021-04-17T23:13:30Z</time>
      </trkpt>
      <trkpt lat="43.57992" lon="0.39038">
        <ele>222.33</ele>
        <time>2021-04-17T23:13:50Z</time>
      </trkpt>
      <trkpt lat="43.58077" lon="0.38746">
        <ele>229.343</ele>
        <time>2016-12-30T14:05:25Z</time>
      </trkpt>
      <trkpt lat="43.58223" lon="0.38439">
        <ele>236.149</ele>
        <time>2016-12-30T14:05:45Z</time>
      </trkpt>
      <trkpt lat="43.58192" lon="0.38313">
        <ele>233.778</ele>
        <time>2016-12-30T14:06:05Z</time>
      </trkpt>
      <trkpt lat="43.5817" lon="0.38161">
        <ele>229.685</ele>
        <time>2016-12-30T14:06:25Z</time>
      </trkpt>
      <trkpt lat="43.58191" lon="0.38136">
        <ele>226.636</ele>
        <time>2016-12-30T14:06:45Z</time>
      </trkpt>
      <trkpt lat="43.58207" lon="0.38065">
        <ele>222.615</ele>
        <time>2016-12-30T14:07:05Z</time>
      </trkpt>
      <trkpt lat="43.58352" lon="0.37711">
        <ele>191.866</ele>
        <time>2016-12-30T14:07:25Z</time>
      </trkpt>
      <trkpt lat="43.58325" lon="0.37556">
        <ele>185.952</ele>
        <time>2016-12-30T14:07:45Z</time>
      </trkpt>
      <trkpt lat="43.5833" lon="0.37453">
        <ele>183.753</ele>
        <time>2016-12-30T14:08:05Z</time>
      </trkpt>
      <trkpt lat="43.58354" lon="0.37341">
        <ele>180.808</ele>
        <time>2016-12-30T14:08:25Z</time>
      </trkpt>
      <trkpt lat="43.58342" lon="0.36756">
        <ele>163.408</ele>
        <time>2016-12-30T14:08:45Z</time>
      </trkpt>
      <trkpt lat="43.5831" lon="0.36755">
        <ele>164.862</ele>
        <time>2016-12-30T14:09:05Z</time>
      </trkpt>
      <trkpt lat="43.58272" lon="0.36687">
        <ele>165.085</ele>
        <time>2016-12-30T14:09:25Z</time>
      </trkpt>
      <trkpt lat="43.58254" lon="0.36615">
        <ele>165.121</ele>
        <time>2021-04-17T23:18:30Z</time>
      </trkpt>
      <trkpt lat="43.58259" lon="0.36579">
        <ele>165.01</ele>
        <time>2016-12-30T14:09:45Z</time>
      </trkpt>
      <trkpt lat="43.58231" lon="0.36397">
        <ele>170.487</ele>
        <time>2016-12-30T14:10:05Z</time>
      </trkpt>
      <trkpt lat="43.5822" lon="0.36157">
        <ele>178.458</ele>
        <time>2016-12-30T14:10:25Z</time>
      </trkpt>
      <trkpt lat="43.58221" lon="0.36046">
        <ele>183.427</ele>
        <time>2016-12-30T14:10:45Z</time>
      </trkpt>
      <trkpt lat="43.58164" lon="0.35899">
        <ele>189.978</ele>
        <time>2016-12-30T14:11:05Z</time>
      </trkpt>
      <trkpt lat="43.58083" lon="0.35795">
        <ele>196.415</ele>
        <time>2016-12-30T14:11:25Z</time>
      </trkpt>
      <trkpt lat="43.58066" lon="0.35744">
        <ele>198.165</ele>
        <time>2016-12-30T14:11:45Z</time>
      </trkpt>
      <trkpt lat="43.58046" lon="0.35556">
        <ele>208.911</ele>
        <time>2016-12-30T14:12:05Z</time>
      </trkpt>
      <trkpt lat="43.58011" lon="0.35459">
        <ele>219.008</ele>
        <time>2016-12-30T14:12:25Z</time>
      </trkpt>
      <trkpt lat="43.5798" lon="0.35301">
        <ele>232.928</ele>
        <time>2016-12-30T14:12:45Z</time>
      </trkpt>
      <trkpt lat="43.57974" lon="0.35201">
        <ele>228.571</ele>
        <time>2016-12-30T14:13:05Z</time>
      </trkpt>
      <trkpt lat="43.5794" lon="0.35053">
        <ele>217.287</ele>
        <time>2016-12-30T14:13:25Z</time>
      </trkpt>
      <trkpt lat="43.57876" lon="0.34883">
        <ele>197.136</ele>
        <time>2016-12-30T14:13:45Z</time>
      </trkpt>
      <trkpt lat="43.57832" lon="0.34705">
        <ele>177.893</ele>
        <time>2016-12-30T14:14:05Z</time>
      </trkpt>
      <trkpt lat="43.57888" lon="0.34424">
        <ele>180.534</ele>
        <time>2016-12-30T14:14:25Z</time>
      </trkpt>
      <trkpt lat="43.57897" lon="0.34341">
        <ele>184.573</ele>
        <time>2016-12-30T14:14:45Z</time>
      </trkpt>
      <trkpt lat="43.57872" lon="0.34178">
        <ele>192.254</ele>
        <time>2016-12-30T14:15:05Z</time>
      </trkpt>
      <trkpt lat="43.57832" lon="0.3397">
        <ele>195.117</ele>
        <time>2016-12-30T14:15:25Z</time>
      </trkpt>
      <trkpt lat="43.57807" lon="0.33889">
        <ele>197.087</ele>
        <time>2016-12-30T14:15:45Z</time>
      </trkpt>
      <trkpt lat="43.578" lon="0.33753">
        <ele>197.615</ele>
        <time>2016-12-30T14:16:05Z</time>
      </trkpt>
      <trkpt lat="43.57748" lon="0.3357">
        <ele>200.708</ele>
        <time>2016-12-30T14:16:25Z</time>
      </trkpt>
      <trkpt lat="43.57772" lon="0.33365">
        <ele>213.178</ele>
        <time>2016-12-30T14:16:45Z</time>
      </trkpt>
      <trkpt lat="43.57773" lon="0.33322">
        <ele>214.611</ele>
        <time>2016-12-30T14:17:05Z</time>
      </trkpt>
      <trkpt lat="43.57781" lon="0.33311">
        <ele>214.437</ele>
        <time>2016-12-30T14:17:25Z</time>
      </trkpt>
      <trkpt lat="43.57832" lon="0.33135">
        <ele>219.946</ele>
        <time>2016-12-30T14:17:45Z</time>
      </trkpt>
      <trkpt lat="43.57852" lon="0.32914">
        <ele>206.923</ele>
        <time>2021-04-17T23:27:10Z</time>
      </trkpt>
      <trkpt lat="43.57848" lon="0.3288">
        <ele>206.444</ele>
        <time>2021-04-17T23:27:30Z</time>
      </trkpt>
      <trkpt lat="43.57839" lon="0.32863">
        <ele>206.473</ele>
        <time>2021-04-17T23:27:50Z</time>
      </trkpt>
      <trkpt lat="43.57853" lon="0.32807">
        <ele>205.724</ele>
        <time>2021-04-17T23:28:10Z</time>
      </trkpt>
      <trkpt lat="43.57868" lon="0.32675">
        <ele>196.957</ele>
        <time>2021-04-17T23:28:30Z</time>
      </trkpt>
      <trkpt lat="43.57846" lon="0.3266">
        <ele>195.8</ele>
        <time>2021-04-17T23:28:50Z</time>
      </trkpt>
      <trkpt lat="43.57819" lon="0.3266">
        <ele>193.12</ele>
        <time>2021-04-17T23:29:10Z</time>
      </trkpt>
      <trkpt lat="43.5785" lon="0.32641">
        <ele>191.708</ele>
        <time>2021-04-17T23:29:30Z</time>
      </trkpt>
      <trkpt lat="43.57841" lon="0.32624">
        <ele>188.982</ele>
        <time>2021-04-17T23:29:50Z</time>
      </trkpt>
      <trkpt lat="43.57819" lon="0.32616">
        <ele>185.055</ele>
        <time>2021-04-17T23:30:10Z</time>
      </trkpt>
      <trkpt lat="43.57804" lon="0.32605">
        <ele>180.361</ele>
        <time>2021-04-17T23:30:30Z</time>
      </trkpt>
      <trkpt lat="43.57782" lon="0.32627">
        <ele>179.58</ele>
        <time>2021-04-17T23:30:50Z</time>
      </trkpt>
      <trkpt lat="43.5778" lon="0.32609">
        <ele>176.457</ele>
        <time>2021-04-17T23:31:10Z</time>
      </trkpt>
      <trkpt lat="43.57766" lon="0.32648">
        <ele>179.298</ele>
        <time>2021-04-17T23:31:30Z</time>
      </trkpt>
      <trkpt lat="43.57734" lon="0.32688">
        <ele>177.247</ele>
        <time>2021-04-17T23:31:50Z</time>
      </trkpt>
      <trkpt lat="43.57708" lon="0.32687">
        <ele>172.348</ele>
        <time>2021-04-17T23:32:10Z</time>
      </trkpt>
      <trkpt lat="43.57677" lon="0.3268">
        <ele>166.499</ele>
        <time>2021-04-17T23:32:30Z</time>
      </trkpt>
      <trkpt lat="43.57633" lon="0.32686">
        <ele>164.507</ele>
        <time>2021-04-17T23:32:50Z</time>
      </trkpt>
      <trkpt lat="43.57595" lon="0.32668">
        <ele>163.227</ele>
        <time>2021-04-17T23:33:10Z</time>
      </trkpt>
      <trkpt lat="43.57468" lon="0.32643">
        <ele>159.108</ele>
        <time>2016-12-30T14:22:05Z</time>
      </trkpt>
      <trkpt lat="43.57378" lon="0.32683">
        <ele>159.096</ele>
        <time>2016-12-30T14:22:25Z</time>
      </trkpt>
      <trkpt lat="43.57315" lon="0.32682">
        <ele>163.339</ele>
        <time>2016-12-30T14:22:45Z</time>
      </trkpt>
      <trkpt lat="43.57226" lon="0.32809">
        <ele>172.255</ele>
        <time>2021-04-17T23:34:30Z</time>
      </trkpt>
      <trkpt lat="43.57124" lon="0.32882">
        <ele>169.834</ele>
        <time>2016-12-30T14:23:25Z</time>
      </trkpt>
      <trkpt lat="43.57101" lon="0.32867">
        <ele>172.161</ele>
        <time>2021-04-17T23:35:10Z</time>
      </trkpt>
      <trkpt lat="43.56981" lon="0.32909">
        <ele>169.122</ele>
        <time>2021-04-17T23:35:30Z</time>
      </trkpt>
      <trkpt lat="43.56752" lon="0.32915">
        <ele>159.971</ele>
        <time>2016-12-30T14:24:25Z</time>
      </trkpt>
      <trkpt lat="43.56633" lon="0.32952">
        <ele>160.622</ele>
        <time>2016-12-30T14:24:45Z</time>
      </trkpt>
      <trkpt lat="43.56544" lon="0.32998">
        <ele>160.095</ele>
        <time>2016-12-30T14:25:05Z</time>
      </trkpt>
      <trkpt lat="43.5653" lon="0.33027">
        <ele>160.049</ele>
        <time>2016-12-30T14:25:25Z</time>
      </trkpt>
      <trkpt lat="43.56479" lon="0.33075">
        <ele>160.023</ele>
        <time>2016-12-30T14:25:45Z</time>
      </trkpt>
      <trkpt lat="43.56261" lon="0.33105">
        <ele>160.008</ele>
        <time>2016-12-30T14:26:05Z</time>
      </trkpt>
      <trkpt lat="43.5601" lon="0.33186">
        <ele>160.326</ele>
        <time>2016-12-30T14:26:25Z</time>
      </trkpt>
      <trkpt lat="43.55938" lon="0.33181">
        <ele>160.139</ele>
        <time>2016-12-30T14:26:45Z</time>
      </trkpt>
      <trkpt lat="43.55895" lon="0.33191">
        <ele>161.645</ele>
        <time>2016-12-30T14:27:05Z</time>
      </trkpt>
      <trkpt lat="43.5588" lon="0.33191">
        <ele>161.484</ele>
        <time>2016-12-30T14:27:25Z</time>
      </trkpt>
      <trkpt lat="43.55762" lon="0.33249">
        <ele>163.051</ele>
        <time>2016-12-30T14:27:45Z</time>
      </trkpt>
      <trkpt lat="43.55714" lon="0.3331">
        <ele>163.722</ele>
        <time>2016-12-30T14:28:05Z</time>
      </trkpt>
      <trkpt lat="43.55556" lon="0.33339">
        <ele>164.051</ele>
        <time>2016-12-30T14:28:25Z</time>
      </trkpt>
      <trkpt lat="43.55328" lon="0.33438">
        <ele>164.032</ele>
        <time>2016-12-30T14:28:45Z</time>
      </trkpt>
      <trkpt lat="43.55278" lon="0.33442">
        <ele>164.018</ele>
        <time>2016-12-30T14:29:05Z</time>
      </trkpt>
      <trkpt lat="43.55178" lon="0.3351">
        <ele>164.598</ele>
        <time>2016-12-30T14:29:25Z</time>
      </trkpt>
      <trkpt lat="43.55137" lon="0.33398">
        <ele>164.017</ele>
        <time>2016-12-30T14:29:45Z</time>
      </trkpt>
      <trkpt lat="43.55008" lon="0.33259">
        <ele>164.008</ele>
        <time>2016-12-30T14:30:05Z</time>
      </trkpt>
      <trkpt lat="43.54929" lon="0.3305">
        <ele>164.058</ele>
        <time>2016-12-30T14:30:25Z</time>
      </trkpt>
      <trkpt lat="43.54916" lon="0.32914">
        <ele>174.031</ele>
        <time>2021-04-17T23:42:10Z</time>
      </trkpt>
      <trkpt lat="43.54889" lon="0.32761">
        <ele>176.677</ele>
        <time>2016-12-30T14:30:45Z</time>
      </trkpt>
      <trkpt lat="43.54839" lon="0.32697">
        <ele>180.916</ele>
        <time>2016-12-30T14:31:05Z</time>
      </trkpt>
      <trkpt lat="43.5483" lon="0.32483">
        <ele>187.413</ele>
        <time>2016-12-30T14:31:25Z</time>
      </trkpt>
      <trkpt lat="43.54835" lon="0.32149">
        <ele>197.724</ele>
        <time>2016-12-30T14:31:45Z</time>
      </trkpt>
      <trkpt lat="43.54943" lon="0.3203">
        <ele>202.173</ele>
        <time>2016-12-30T14:32:05Z</time>
      </trkpt>
      <trkpt lat="43.54821" lon="0.31657">
        <ele>214.454</ele>
        <time>2021-04-17T23:44:10Z</time>
      </trkpt>
      <trkpt lat="43.54792" lon="0.31618">
        <ele>216.029</ele>
        <time>2021-04-17T23:44:30Z</time>
      </trkpt>
      <trkpt lat="43.54831" lon="0.31519">
        <ele>215.2</ele>
        <time>2021-04-17T23:44:50Z</time>
      </trkpt>
      <trkpt lat="43.54861" lon="0.31407">
        <ele>203.32</ele>
        <time>2021-04-17T23:45:10Z</time>
      </trkpt>
      <trkpt lat="43.5494" lon="0.31161">
        <ele>181.308</ele>
        <time>2016-12-30T14:33:25Z</time>
      </trkpt>
      <trkpt lat="43.5494" lon="0.31071">
        <ele>187.289</ele>
        <time>2016-12-30T14:33:45Z</time>
      </trkpt>
      <trkpt lat="43.54908" lon="0.30942">
        <ele>198.232</ele>
        <time>2016-12-30T14:34:05Z</time>
      </trkpt>
      <trkpt lat="43.54877" lon="0.30814">
        <ele>206.368</ele>
        <time>2021-04-17T23:46:30Z</time>
      </trkpt>
      <trkpt lat="43.54896" lon="0.30753">
        <ele>212.867</ele>
        <time>2016-12-30T14:34:45Z</time>
      </trkpt>
      <trkpt lat="43.54897" lon="0.30697">
        <ele>213.434</ele>
        <time>2021-04-17T23:47:10Z</time>
      </trkpt>
      <trkpt lat="43.54915" lon="0.3064">
        <ele>218.495</ele>
        <time>2021-04-17T23:47:30Z</time>
      </trkpt>
      <trkpt lat="43.54989" lon="0.30511">
        <ele>220.874</ele>
        <time>2016-12-30T14:35:25Z</time>
      </trkpt>
      <trkpt lat="43.55009" lon="0.30414">
        <ele>225.335</ele>
        <time>2016-12-30T14:35:45Z</time>
      </trkpt>
      <trkpt lat="43.55006" lon="0.30336">
        <ele>229.713</ele>
        <time>2016-12-30T14:36:05Z</time>
      </trkpt>
      <trkpt lat="43.54975" lon="0.30165">
        <ele>236.643</ele>
        <time>2016-12-30T14:36:25Z</time>
      </trkpt>
      <trkpt lat="43.54892" lon="0.30134">
        <ele>250.807</ele>
        <time>2016-12-30T14:36:45Z</time>
      </trkpt>
      <trkpt lat="43.54875" lon="0.29981">
        <ele>255.308</ele>
        <time>2016-12-30T14:37:05Z</time>
      </trkpt>
      <trkpt lat="43.54859" lon="0.29931">
        <ele>256.658</ele>
        <time>2016-12-30T14:37:25Z</time>
      </trkpt>
      <trkpt lat="43.54884" lon="0.29868">
        <ele>255.951</ele>
        <time>2016-12-30T14:37:45Z</time>
      </trkpt>
      <trkpt lat="43.54798" lon="0.29509">
        <ele>264.447</ele>
        <time>2021-04-17T23:50:30Z</time>
      </trkpt>
      <trkpt lat="43.54822" lon="0.29491">
        <ele>265.426</ele>
        <time>2021-04-17T23:50:50Z</time>
      </trkpt>
      <trkpt lat="43.54833" lon="0.29425">
        <ele>256.173</ele>
        <time>2016-12-30T14:38:45Z</time>
      </trkpt>
      <trkpt lat="43.54825" lon="0.29369">
        <ele>259.424</ele>
        <time>2016-12-30T14:39:05Z</time>
      </trkpt>
      <trkpt lat="43.54842" lon="0.29324">
        <ele>260.013</ele>
        <time>2016-12-30T14:39:25Z</time>
      </trkpt>
      <trkpt lat="43.54785" lon="0.29258">
        <ele>260.084</ele>
        <time>2016-12-30T14:39:45Z</time>
      </trkpt>
      <trkpt lat="43.54813" lon="0.29059">
        <ele>256.447</ele>
        <time>2016-12-30T14:40:05Z</time>
      </trkpt>
      <trkpt lat="43.54823" lon="0.28921">
        <ele>246.929</ele>
        <time>2016-12-30T14:40:45Z</time>
      </trkpt>
      <trkpt lat="43.54789" lon="0.28658">
        <ele>241.721</ele>
        <time>2016-12-30T14:41:05Z</time>
      </trkpt>
      <trkpt lat="43.54752" lon="0.28544">
        <ele>236.508</ele>
        <time>2016-12-30T14:41:25Z</time>
      </trkpt>
      <trkpt lat="43.54766" lon="0.28474">
        <ele>225.911</ele>
        <time>2016-12-30T14:41:45Z</time>
      </trkpt>
      <trkpt lat="43.54712" lon="0.28417">
        <ele>209.284</ele>
        <time>2016-12-30T14:42:05Z</time>
      </trkpt>
      <trkpt lat="43.54698" lon="0.28386">
        <ele>201.17</ele>
        <time>2016-12-30T14:42:25Z</time>
      </trkpt>
      <trkpt lat="43.54671" lon="0.28375">
        <ele>209.659</ele>
        <time>2021-04-17T23:54:50Z</time>
      </trkpt>
      <trkpt lat="43.54666" lon="0.28342">
        <ele>201.986</ele>
        <time>2021-04-17T23:55:10Z</time>
      </trkpt>
      <trkpt lat="43.54639" lon="0.28282">
        <ele>194.227</ele>
        <time>2016-12-30T14:43:05Z</time>
      </trkpt>
      <trkpt lat="43.54624" lon="0.28261">
        <ele>196.816</ele>
        <time>2021-04-17T23:55:50Z</time>
      </trkpt>
      <trkpt lat="43.54604" lon="0.2827">
        <ele>197.447</ele>
        <time>2021-04-17T23:56:10Z</time>
      </trkpt>
      <trkpt lat="43.54603" lon="0.28256">
        <ele>197.311</ele>
        <time>2021-04-17T23:56:30Z</time>
      </trkpt>
      <trkpt lat="43.54742" lon="0.28202">
        <ele>199.521</ele>
        <time>2021-04-17T23:56:50Z</time>
      </trkpt>
      <trkpt lat="43.54743" lon="0.28181">
        <ele>200.303</ele>
        <time>2021-04-17T23:57:10Z</time>
      </trkpt>
      <trkpt lat="43.54712" lon="0.28162">
        <ele>200.508</ele>
        <time>2021-04-17T23:57:30Z</time>
      </trkpt>
      <trkpt lat="43.54562" lon="0.28214">
        <ele>199.328</ele>
        <time>2016-12-30T14:43:45Z</time>
      </trkpt>
      <trkpt lat="43.54563" lon="0.28014">
        <ele>209.981</ele>
        <time>2016-12-30T14:44:05Z</time>
      </trkpt>
      <trkpt lat="43.54496" lon="0.27894">
        <ele>219.137</ele>
        <time>2016-12-30T14:44:25Z</time>
      </trkpt>
      <trkpt lat="43.54409" lon="0.27824">
        <ele>228.136</ele>
        <time>2016-12-30T14:44:45Z</time>
      </trkpt>
      <trkpt lat="43.54383" lon="0.27759">
        <ele>233.143</ele>
        <time>2016-12-30T14:45:05Z</time>
      </trkpt>
      <trkpt lat="43.54382" lon="0.27714">
        <ele>235.074</ele>
        <time>2016-12-30T14:45:25Z</time>
      </trkpt>
      <trkpt lat="43.54366" lon="0.27643">
        <ele>238.913</ele>
        <time>2016-12-30T14:45:45Z</time>
      </trkpt>
      <trkpt lat="43.54354" lon="0.27514">
        <ele>239.614</ele>
        <time>2016-12-30T14:46:05Z</time>
      </trkpt>
      <trkpt lat="43.54335" lon="0.27412">
        <ele>244.912</ele>
        <time>2016-12-30T14:46:25Z</time>
      </trkpt>
      <trkpt lat="43.54355" lon="0.27304">
        <ele>245.532</ele>
        <time>2016-12-30T14:46:45Z</time>
      </trkpt>
      <trkpt lat="43.54335" lon="0.27193">
        <ele>248.005</ele>
        <time>2016-12-30T14:47:05Z</time>
      </trkpt>
      <trkpt lat="43.54315" lon="0.27129">
        <ele>248.008</ele>
        <time>2016-12-30T14:47:25Z</time>
      </trkpt>
      <trkpt lat="43.54296" lon="0.27065">
        <ele>248.578</ele>
        <time>2016-12-30T14:47:45Z</time>
      </trkpt>
      <trkpt lat="43.54233" lon="0.27">
        <ele>254.121</ele>
        <time>2016-12-30T14:48:05Z</time>
      </trkpt>
      <trkpt lat="43.54205" lon="0.26951">
        <ele>258.127</ele>
        <time>2016-12-30T14:48:25Z</time>
      </trkpt>
      <trkpt lat="43.54202" lon="0.26856">
        <ele>257.056</ele>
        <time>2016-12-30T14:48:45Z</time>
      </trkpt>
      <trkpt lat="43.54181" lon="0.26814">
        <ele>253.783</ele>
        <time>2016-12-30T14:49:05Z</time>
      </trkpt>
      <trkpt lat="43.54067" lon="0.26747">
        <ele>254.454</ele>
        <time>2016-12-30T14:49:25Z</time>
      </trkpt>
      <trkpt lat="43.53987" lon="0.26663">
        <ele>255.443</ele>
        <time>2016-12-30T14:50:05Z</time>
      </trkpt>
      <trkpt lat="43.53945" lon="0.26535">
        <ele>265.034</ele>
        <time>2016-12-30T14:50:45Z</time>
      </trkpt>
      <trkpt lat="43.5382" lon="0.26539">
        <ele>255.551</ele>
        <time>2016-12-30T14:51:05Z</time>
      </trkpt>
      <trkpt lat="43.53671" lon="0.26479">
        <ele>268.401</ele>
        <time>2016-12-30T14:51:25Z</time>
      </trkpt>
      <trkpt lat="43.53602" lon="0.26481">
        <ele>275.311</ele>
        <time>2016-12-30T14:51:45Z</time>
      </trkpt>
      <trkpt lat="43.53426" lon="0.26581">
        <ele>270.308</ele>
        <time>2016-12-30T14:52:05Z</time>
      </trkpt>
      <trkpt lat="43.53387" lon="0.26447">
        <ele>267.572</ele>
        <time>2016-12-30T14:52:25Z</time>
      </trkpt>
      <trkpt lat="43.53383" lon="0.26373">
        <ele>268.785</ele>
        <time>2016-12-30T14:52:45Z</time>
      </trkpt>
      <trkpt lat="43.52951" lon="0.2639">
        <ele>276.451</ele>
        <time>2021-04-18T00:06:30Z</time>
      </trkpt>
      <trkpt lat="43.5296" lon="0.26166">
        <ele>271.55</ele>
        <time>2021-04-18T00:06:50Z</time>
      </trkpt>
      <trkpt lat="43.52971" lon="0.26125">
        <ele>269.167</ele>
        <time>2021-04-18T00:07:10Z</time>
      </trkpt>
      <trkpt lat="43.52949" lon="0.26009">
        <ele>261.648</ele>
        <time>2016-12-30T14:53:45Z</time>
      </trkpt>
      <trkpt lat="43.5288" lon="0.25889">
        <ele>259.057</ele>
        <time>2016-12-30T14:54:05Z</time>
      </trkpt>
      <trkpt lat="43.52887" lon="0.25839">
        <ele>257.478</ele>
        <time>2016-12-30T14:54:25Z</time>
      </trkpt>
      <trkpt lat="43.52891" lon="0.25659">
        <ele>248.047</ele>
        <time>2016-12-30T14:54:45Z</time>
      </trkpt>
      <trkpt lat="43.52869" lon="0.2555">
        <ele>241.029</ele>
        <time>2016-12-30T14:55:05Z</time>
      </trkpt>
      <trkpt lat="43.52813" lon="0.25383">
        <ele>229.821</ele>
        <time>2016-12-30T14:55:25Z</time>
      </trkpt>
      <trkpt lat="43.52733" lon="0.2528">
        <ele>215.908</ele>
        <time>2016-12-30T14:55:45Z</time>
      </trkpt>
      <trkpt lat="43.52664" lon="0.25181">
        <ele>204.951</ele>
        <time>2016-12-30T14:56:05Z</time>
      </trkpt>
      <trkpt lat="43.52599" lon="0.25044">
        <ele>211.824</ele>
        <time>2016-12-30T14:56:25Z</time>
      </trkpt>
      <trkpt lat="43.52524" lon="0.24858">
        <ele>214.05</ele>
        <time>2016-12-30T14:56:45Z</time>
      </trkpt>
      <trkpt lat="43.52441" lon="0.24759">
        <ele>216.769</ele>
        <time>2016-12-30T14:57:05Z</time>
      </trkpt>
      <trkpt lat="43.52325" lon="0.24584">
        <ele>206.446</ele>
        <time>2016-12-30T14:57:25Z</time>
      </trkpt>
      <trkpt lat="43.52134" lon="0.24437">
        <ele>196.327</ele>
        <time>2016-12-30T14:57:45Z</time>
      </trkpt>
      <trkpt lat="43.52004" lon="0.24289">
        <ele>195.756</ele>
        <time>2016-12-30T14:58:05Z</time>
      </trkpt>
      <trkpt lat="43.51805" lon="0.24131">
        <ele>185.037</ele>
        <time>2016-12-30T14:58:25Z</time>
      </trkpt>
      <trkpt lat="43.51722" lon="0.24152">
        <ele>185.271</ele>
        <time>2021-04-18T00:12:30Z</time>
      </trkpt>
      <trkpt lat="43.51667" lon="0.24138">
        <ele>185.041</ele>
        <time>2021-04-18T00:12:50Z</time>
      </trkpt>
      <trkpt lat="43.51706" lon="0.24022">
        <ele>191.115</ele>
        <time>2021-04-18T00:13:10Z</time>
      </trkpt>
      <trkpt lat="43.51527" lon="0.23814">
        <ele>193.708</ele>
        <time>2016-12-30T14:59:05Z</time>
      </trkpt>
      <trkpt lat="43.51293" lon="0.23645">
        <ele>201.734</ele>
        <time>2016-12-30T14:59:25Z</time>
      </trkpt>
      <trkpt lat="43.51202" lon="0.23601">
        <ele>208.787</ele>
        <time>2016-12-30T14:59:45Z</time>
      </trkpt>
      <trkpt lat="43.51157" lon="0.23538">
        <ele>210.013</ele>
        <time>2016-12-30T15:00:05Z</time>
      </trkpt>
      <trkpt lat="43.51149" lon="0.2345">
        <ele>209.512</ele>
        <time>2016-12-30T15:00:25Z</time>
      </trkpt>
      <trkpt lat="43.51144" lon="0.23356">
        <ele>202.299</ele>
        <time>2016-12-30T15:00:45Z</time>
      </trkpt>
      <trkpt lat="43.5112" lon="0.23299">
        <ele>196.22</ele>
        <time>2016-12-30T15:01:05Z</time>
      </trkpt>
      <trkpt lat="43.51068" lon="0.23235">
        <ele>190.029</ele>
        <time>2016-12-30T15:01:25Z</time>
      </trkpt>
      <trkpt lat="43.51037" lon="0.23125">
        <ele>182.09</ele>
        <time>2016-12-30T15:01:45Z</time>
      </trkpt>
      <trkpt lat="43.50991" lon="0.23024">
        <ele>173.547</ele>
        <time>2016-12-30T15:02:05Z</time>
      </trkpt>
      <trkpt lat="43.50959" lon="0.22997">
        <ele>174.329</ele>
        <time>2016-12-30T15:02:25Z</time>
      </trkpt>
      <trkpt lat="43.50882" lon="0.22993">
        <ele>177.121</ele>
        <time>2016-12-30T15:02:45Z</time>
      </trkpt>
      <trkpt lat="43.50862" lon="0.22942">
        <ele>179.408</ele>
        <time>2021-04-18T00:17:30Z</time>
      </trkpt>
      <trkpt lat="43.50809" lon="0.22721">
        <ele>167.961</ele>
        <time>2016-12-30T15:03:05Z</time>
      </trkpt>
      <trkpt lat="43.50807" lon="0.2267">
        <ele>166.574</ele>
        <time>2016-12-30T15:03:25Z</time>
      </trkpt>
      <trkpt lat="43.50794" lon="0.2262">
        <ele>164.23</ele>
        <time>2016-12-30T15:03:45Z</time>
      </trkpt>
      <trkpt lat="43.50757" lon="0.22568">
        <ele>164.069</ele>
        <time>2016-12-30T15:04:05Z</time>
      </trkpt>
      <trkpt lat="43.50683" lon="0.22488">
        <ele>164.036</ele>
        <time>2016-12-30T15:04:25Z</time>
      </trkpt>
      <trkpt lat="43.50591" lon="0.22414">
        <ele>164.097</ele>
        <time>2016-12-30T15:04:45Z</time>
      </trkpt>
      <trkpt lat="43.50502" lon="0.22368">
        <ele>164.026</ele>
        <time>2016-12-30T15:05:05Z</time>
      </trkpt>
      <trkpt lat="43.5036" lon="0.22148">
        <ele>167.087</ele>
        <time>2016-12-30T15:05:25Z</time>
      </trkpt>
      <trkpt lat="43.50334" lon="0.22044">
        <ele>168.089</ele>
        <time>2016-12-30T15:05:45Z</time>
      </trkpt>
      <trkpt lat="43.50294" lon="0.21954">
        <ele>172.906</ele>
        <time>2016-12-30T15:06:05Z</time>
      </trkpt>
      <trkpt lat="43.50145" lon="0.21906">
        <ele>198.426</ele>
        <time>2016-12-30T15:06:25Z</time>
      </trkpt>
      <trkpt lat="43.5015" lon="0.21823">
        <ele>202.608</ele>
        <time>2016-12-30T15:06:45Z</time>
      </trkpt>
      <trkpt lat="43.50135" lon="0.2177">
        <ele>207.585</ele>
        <time>2016-12-30T15:07:05Z</time>
      </trkpt>
      <trkpt lat="43.50127" lon="0.21638">
        <ele>213.338</ele>
        <time>2016-12-30T15:07:25Z</time>
      </trkpt>
      <trkpt lat="43.50111" lon="0.21577">
        <ele>213.594</ele>
        <time>2016-12-30T15:07:45Z</time>
      </trkpt>
      <trkpt lat="43.50079" lon="0.21546">
        <ele>215.983</ele>
        <time>2016-12-30T15:08:05Z</time>
      </trkpt>
      <trkpt lat="43.50025" lon="0.21522">
        <ele>223.29</ele>
        <time>2016-12-30T15:08:25Z</time>
      </trkpt>
      <trkpt lat="43.49918" lon="0.2152">
        <ele>238.331</ele>
        <time>2016-12-30T15:08:45Z</time>
      </trkpt>
      <trkpt lat="43.49966" lon="0.21386">
        <ele>239.99</ele>
        <time>2016-12-30T15:09:05Z</time>
      </trkpt>
      <trkpt lat="43.49983" lon="0.21373">
        <ele>240.071</ele>
        <time>2016-12-30T15:09:25Z</time>
      </trkpt>
      <trkpt lat="43.50015" lon="0.21371">
        <ele>238.648</ele>
        <time>2016-12-30T15:09:45Z</time>
      </trkpt>
      <trkpt lat="43.50032" lon="0.21315">
        <ele>238.261</ele>
        <time>2016-12-30T15:10:05Z</time>
      </trkpt>
      <trkpt lat="43.50039" lon="0.21255">
        <ele>238.317</ele>
        <time>2016-12-30T15:10:25Z</time>
      </trkpt>
      <trkpt lat="43.50106" lon="0.21157">
        <ele>226.308</ele>
        <time>2016-12-30T15:10:45Z</time>
      </trkpt>
      <trkpt lat="43.50142" lon="0.21129">
        <ele>224.491</ele>
        <time>2016-12-30T15:11:05Z</time>
      </trkpt>
      <trkpt lat="43.50189" lon="0.21146">
        <ele>222.224</ele>
        <time>2016-12-30T15:11:25Z</time>
      </trkpt>
      <trkpt lat="43.50225" lon="0.21117">
        <ele>221.69</ele>
        <time>2016-12-30T15:11:45Z</time>
      </trkpt>
      <trkpt lat="43.5025" lon="0.21061">
        <ele>218.469</ele>
        <time>2016-12-30T15:12:05Z</time>
      </trkpt>
      <trkpt lat="43.50273" lon="0.20846">
        <ele>212.366</ele>
        <time>2016-12-30T15:12:25Z</time>
      </trkpt>
      <trkpt lat="43.5034" lon="0.20679">
        <ele>195.347</ele>
        <time>2016-12-30T15:12:45Z</time>
      </trkpt>
      <trkpt lat="43.50304" lon="0.20677">
        <ele>194.666</ele>
        <time>2016-12-30T15:13:05Z</time>
      </trkpt>
      <trkpt lat="43.50223" lon="0.2059">
        <ele>175.237</ele>
        <time>2021-04-18T00:28:10Z</time>
      </trkpt>
      <trkpt lat="43.50198" lon="0.20473">
        <ele>165.032</ele>
        <time>2016-12-30T15:13:45Z</time>
      </trkpt>
      <trkpt lat="43.50156" lon="0.20338">
        <ele>166.092</ele>
        <time>2021-04-18T00:28:50Z</time>
      </trkpt>
      <trkpt lat="43.50139" lon="0.20189">
        <ele>169.011</ele>
        <time>2016-12-30T15:14:25Z</time>
      </trkpt>
      <trkpt lat="43.50164" lon="0.20155">
        <ele>169.008</ele>
        <time>2016-12-30T15:14:45Z</time>
      </trkpt>
      <trkpt lat="43.50247" lon="0.20114">
        <ele>169.38</ele>
        <time>2021-04-18T00:29:50Z</time>
      </trkpt>
      <trkpt lat="43.503" lon="0.20132">
        <ele>167.453</ele>
        <time>2016-12-30T15:15:25Z</time>
      </trkpt>
      <trkpt lat="43.50397" lon="0.20021">
        <ele>168.849</ele>
        <time>2016-12-30T15:15:45Z</time>
      </trkpt>
      <trkpt lat="43.50396" lon="0.19915">
        <ele>171.838</ele>
        <time>2016-12-30T15:16:05Z</time>
      </trkpt>
      <trkpt lat="43.50386" lon="0.19877">
        <ele>172.575</ele>
        <time>2016-12-30T15:16:25Z</time>
      </trkpt>
      <trkpt lat="43.50404" lon="0.19854">
        <ele>173.396</ele>
        <time>2016-12-30T15:16:45Z</time>
      </trkpt>
      <trkpt lat="43.50529" lon="0.19794">
        <ele>172.885</ele>
        <time>2016-12-30T15:17:05Z</time>
      </trkpt>
      <trkpt lat="43.50614" lon="0.19709">
        <ele>170.536</ele>
        <time>2016-12-30T15:17:25Z</time>
      </trkpt>
      <trkpt lat="43.50689" lon="0.1969">
        <ele>170.966</ele>
        <time>2016-12-30T15:17:45Z</time>
      </trkpt>
      <trkpt lat="43.50773" lon="0.19602">
        <ele>170.229</ele>
        <time>2016-12-30T15:18:05Z</time>
      </trkpt>
      <trkpt lat="43.50938" lon="0.19257">
        <ele>171.621</ele>
        <time>2016-12-30T15:18:25Z</time>
      </trkpt>
      <trkpt lat="43.50999" lon="0.19183">
        <ele>169.508</ele>
        <time>2016-12-30T15:18:45Z</time>
      </trkpt>
      <trkpt lat="43.51055" lon="0.19085">
        <ele>168.093</ele>
        <time>2016-12-30T15:19:05Z</time>
      </trkpt>
      <trkpt lat="43.51077" lon="0.19019">
        <ele>167.946</ele>
        <time>2016-12-30T15:19:25Z</time>
      </trkpt>
      <trkpt lat="43.5113" lon="0.18886">
        <ele>165.082</ele>
        <time>2016-12-30T15:19:45Z</time>
      </trkpt>
      <trkpt lat="43.51225" lon="0.18576">
        <ele>169.091</ele>
        <time>2016-12-30T15:20:05Z</time>
      </trkpt>
      <trkpt lat="43.51117" lon="0.18528">
        <ele>184.558</ele>
        <time>2021-04-18T00:35:10Z</time>
      </trkpt>
      <trkpt lat="43.51047" lon="0.18462">
        <ele>190.079</ele>
        <time>2021-04-18T00:35:30Z</time>
      </trkpt>
      <trkpt lat="43.51269" lon="0.17995">
        <ele>188.658</ele>
        <time>2021-04-18T00:35:50Z</time>
      </trkpt>
      <trkpt lat="43.51207" lon="0.17942">
        <ele>178.849</ele>
        <time>2016-12-30T15:21:45Z</time>
      </trkpt>
      <trkpt lat="43.51292" lon="0.17771">
        <ele>175.767</ele>
        <time>2016-12-30T15:22:05Z</time>
      </trkpt>
      <trkpt lat="43.51326" lon="0.17654">
        <ele>164.181</ele>
        <time>2016-12-30T15:22:25Z</time>
      </trkpt>
      <trkpt lat="43.51375" lon="0.1766">
        <ele>168.119</ele>
        <time>2021-04-18T00:37:10Z</time>
      </trkpt>
      <trkpt lat="43.51576" lon="0.16955">
        <ele>180.608</ele>
        <time>2016-12-30T15:23:05Z</time>
      </trkpt>
      <trkpt lat="43.51641" lon="0.16863">
        <ele>171.913</ele>
        <time>2016-12-30T15:23:25Z</time>
      </trkpt>
      <trkpt lat="43.51828" lon="0.16739">
        <ele>160.646</ele>
        <time>2016-12-30T15:23:45Z</time>
      </trkpt>
      <trkpt lat="43.52025" lon="0.16367">
        <ele>159.012</ele>
        <time>2016-12-30T15:24:05Z</time>
      </trkpt>
      <trkpt lat="43.52233" lon="0.16271">
        <ele>155.081</ele>
        <time>2016-12-30T15:24:25Z</time>
      </trkpt>
      <trkpt lat="43.52082" lon="0.1573">
        <ele>163.888</ele>
        <time>2016-12-30T15:24:45Z</time>
      </trkpt>
      <trkpt lat="43.5179" lon="0.15401">
        <ele>199.419</ele>
        <time>2016-12-30T15:25:05Z</time>
      </trkpt>
      <trkpt lat="43.51681" lon="0.15415">
        <ele>202.748</ele>
        <time>2021-04-18T00:39:50Z</time>
      </trkpt>
      <trkpt lat="43.51573" lon="0.15468">
        <ele>201.199</ele>
        <time>2021-04-18T00:40:10Z</time>
      </trkpt>
      <trkpt lat="43.51548" lon="0.15388">
        <ele>194.684</ele>
        <time>2021-04-18T00:40:30Z</time>
      </trkpt>
      <trkpt lat="43.51576" lon="0.15302">
        <ele>177.107</ele>
        <time>2021-04-18T00:40:50Z</time>
      </trkpt>
      <trkpt lat="43.51558" lon="0.15246">
        <ele>158.917</ele>
        <time>2016-12-30T15:26:25Z</time>
      </trkpt>
      <trkpt lat="43.51494" lon="0.15148">
        <ele>157.108</ele>
        <time>2016-12-30T15:26:45Z</time>
      </trkpt>
      <trkpt lat="43.51403" lon="0.14846">
        <ele>159.035</ele>
        <time>2016-12-30T15:27:05Z</time>
      </trkpt>
      <trkpt lat="43.51174" lon="0.14938">
        <ele>160.738</ele>
        <time>2016-12-30T15:27:25Z</time>
      </trkpt>
      <trkpt lat="43.51141" lon="0.14967">
        <ele>161.034</ele>
        <time>2016-12-30T15:27:45Z</time>
      </trkpt>
      <trkpt lat="43.51035" lon="0.15025">
        <ele>161.853</ele>
        <time>2016-12-30T15:28:05Z</time>
      </trkpt>
      <trkpt lat="43.50951" lon="0.14903">
        <ele>166.36</ele>
        <time>2021-04-18T00:43:10Z</time>
      </trkpt>
      <trkpt lat="43.50877" lon="0.1496">
        <ele>165.461</ele>
        <time>2016-12-30T15:28:45Z</time>
      </trkpt>
      <trkpt lat="43.50805" lon="0.14972">
        <ele>167.03</ele>
        <time>2016-12-30T15:29:05Z</time>
      </trkpt>
      <trkpt lat="43.50735" lon="0.15028">
        <ele>168.011</ele>
        <time>2016-12-30T15:29:25Z</time>
      </trkpt>
      <trkpt lat="43.50709" lon="0.15072">
        <ele>167.927</ele>
        <time>2016-12-30T15:29:45Z</time>
      </trkpt>
      <trkpt lat="43.50707" lon="0.15071">
        <ele>168.068</ele>
        <time>2016-12-30T15:30:05Z</time>
      </trkpt>
      <trkpt lat="43.50636" lon="0.15108">
        <ele>169.214</ele>
        <time>2016-12-30T15:30:25Z</time>
      </trkpt>
      <trkpt lat="43.50599" lon="0.15019">
        <ele>172.808</ele>
        <time>2021-04-18T00:45:30Z</time>
      </trkpt>
      <trkpt lat="43.5052" lon="0.14962">
        <ele>175.479</ele>
        <time>2016-12-30T15:31:05Z</time>
      </trkpt>
      <trkpt lat="43.50481" lon="0.14918">
        <ele>178.662</ele>
        <time>2016-12-30T15:31:25Z</time>
      </trkpt>
      <trkpt lat="43.50444" lon="0.14846">
        <ele>182.698</ele>
        <time>2016-12-30T15:31:45Z</time>
      </trkpt>
      <trkpt lat="43.5035" lon="0.1475">
        <ele>187.417</ele>
        <time>2016-12-30T15:32:05Z</time>
      </trkpt>
      <trkpt lat="43.50269" lon="0.14648">
        <ele>198.184</ele>
        <time>2016-12-30T15:32:25Z</time>
      </trkpt>
      <trkpt lat="43.50109" lon="0.14476">
        <ele>219.475</ele>
        <time>2016-12-30T15:32:45Z</time>
      </trkpt>
      <trkpt lat="43.49867" lon="0.14313">
        <ele>218.614</ele>
        <time>2016-12-30T15:33:05Z</time>
      </trkpt>
      <trkpt lat="43.49853" lon="0.14259">
        <ele>209.645</ele>
        <time>2021-04-18T00:48:10Z</time>
      </trkpt>
      <trkpt lat="43.4987" lon="0.14225">
        <ele>199.928</ele>
        <time>2016-12-30T15:33:45Z</time>
      </trkpt>
      <trkpt lat="43.49928" lon="0.14197">
        <ele>195.889</ele>
        <time>2016-12-30T15:34:05Z</time>
      </trkpt>
      <trkpt lat="43.49952" lon="0.14079">
        <ele>184.317</ele>
        <time>2016-12-30T15:34:25Z</time>
      </trkpt>
      <trkpt lat="43.49974" lon="0.14036">
        <ele>183.508</ele>
        <time>2016-12-30T15:34:45Z</time>
      </trkpt>
      <trkpt lat="43.49974" lon="0.13967">
        <ele>173.779</ele>
        <time>2016-12-30T15:35:05Z</time>
      </trkpt>
      <trkpt lat="43.49894" lon="0.13927">
        <ele>160.822</ele>
        <time>2016-12-30T15:35:25Z</time>
      </trkpt>
      <trkpt lat="43.49825" lon="0.13992">
        <ele>155.278</ele>
        <time>2016-12-30T15:35:45Z</time>
      </trkpt>
      <trkpt lat="43.49806" lon="0.13987">
        <ele>154.097</ele>
        <time>2016-12-30T15:36:05Z</time>
      </trkpt>
      <trkpt lat="43.49767" lon="0.13864">
        <ele>152.684</ele>
        <time>2016-12-30T15:36:25Z</time>
      </trkpt>
      <trkpt lat="43.49728" lon="0.13791">
        <ele>151.185</ele>
        <time>2016-12-30T15:36:45Z</time>
      </trkpt>
      <trkpt lat="43.4969" lon="0.13773">
        <ele>151.064</ele>
        <time>2016-12-30T15:37:05Z</time>
      </trkpt>
      <trkpt lat="43.49673" lon="0.13727">
        <ele>150.245</ele>
        <time>2016-12-30T15:37:25Z</time>
      </trkpt>
      <trkpt lat="43.49675" lon="0.13678">
        <ele>150.085</ele>
        <time>2016-12-30T15:37:45Z</time>
      </trkpt>
      <trkpt lat="43.49655" lon="0.13623">
        <ele>149.489</ele>
        <time>2016-12-30T15:38:05Z</time>
      </trkpt>
      <trkpt lat="43.49613" lon="0.13595">
        <ele>149.417</ele>
        <time>2016-12-30T15:38:25Z</time>
      </trkpt>
      <trkpt lat="43.49589" lon="0.13549">
        <ele>149.108</ele>
        <time>2016-12-30T15:38:45Z</time>
      </trkpt>
      <trkpt lat="43.49609" lon="0.13528">
        <ele>149.975</ele>
        <time>2016-12-30T15:39:05Z</time>
      </trkpt>
      <trkpt lat="43.49571" lon="0.13446">
        <ele>149.578</ele>
        <time>2016-12-30T15:39:25Z</time>
      </trkpt>
      <trkpt lat="43.49532" lon="0.13382">
        <ele>150.084</ele>
        <time>2016-12-30T15:39:45Z</time>
      </trkpt>
      <trkpt lat="43.4946" lon="0.134">
        <ele>150.083</ele>
        <time>2016-12-30T15:40:05Z</time>
      </trkpt>
      <trkpt lat="43.49423" lon="0.13272">
        <ele>150.04</ele>
        <time>2016-12-30T15:40:25Z</time>
      </trkpt>
      <trkpt lat="43.50116" lon="0.12889">
        <ele>149.051</ele>
        <time>2016-12-30T15:40:45Z</time>
      </trkpt>
      <trkpt lat="43.49875" lon="0.12665">
        <ele>150.05</ele>
        <time>2016-12-30T15:41:05Z</time>
      </trkpt>
      <trkpt lat="43.49816" lon="0.12637">
        <ele>150.051</ele>
        <time>2016-12-30T15:41:25Z</time>
      </trkpt>
      <trkpt lat="43.49746" lon="0.12501">
        <ele>150.092</ele>
        <time>2016-12-30T15:41:45Z</time>
      </trkpt>
      <trkpt lat="43.49669" lon="0.12294">
        <ele>150.073</ele>
        <time>2016-12-30T15:42:05Z</time>
      </trkpt>
      <trkpt lat="43.49675" lon="0.12153">
        <ele>150.02</ele>
        <time>2016-12-30T15:42:25Z</time>
      </trkpt>
      <trkpt lat="43.49598" lon="0.11848">
        <ele>151.508</ele>
        <time>2016-12-30T15:42:45Z</time>
      </trkpt>
      <trkpt lat="43.49528" lon="0.11751">
        <ele>152.016</ele>
        <time>2016-12-30T15:43:05Z</time>
      </trkpt>
      <trkpt lat="43.49486" lon="0.11712">
        <ele>152.759</ele>
        <time>2016-12-30T15:43:25Z</time>
      </trkpt>
      <trkpt lat="43.49437" lon="0.11631">
        <ele>154.325</ele>
        <time>2016-12-30T15:43:45Z</time>
      </trkpt>
      <trkpt lat="43.49363" lon="0.11461">
        <ele>156.444</ele>
        <time>2016-12-30T15:44:05Z</time>
      </trkpt>
      <trkpt lat="43.4929" lon="0.11258">
        <ele>158.731</ele>
        <time>2016-12-30T15:44:25Z</time>
      </trkpt>
      <trkpt lat="43.49233" lon="0.11264">
        <ele>158.892</ele>
        <time>2016-12-30T15:44:45Z</time>
      </trkpt>
      <trkpt lat="43.49257" lon="0.11068">
        <ele>162.651</ele>
        <time>2016-12-30T15:45:05Z</time>
      </trkpt>
      <trkpt lat="43.49277" lon="0.1099">
        <ele>163.012</ele>
        <time>2016-12-30T15:45:25Z</time>
      </trkpt>
      <trkpt lat="43.49286" lon="0.10703">
        <ele>166.285</ele>
        <time>2016-12-30T15:45:45Z</time>
      </trkpt>
      <trkpt lat="43.49364" lon="0.10717">
        <ele>164.089</ele>
        <time>2016-12-30T15:46:05Z</time>
      </trkpt>
      <trkpt lat="43.49448" lon="0.10657">
        <ele>164.417</ele>
        <time>2016-12-30T15:46:25Z</time>
      </trkpt>
      <trkpt lat="43.49522" lon="0.10625">
        <ele>166.508</ele>
        <time>2016-12-30T15:46:45Z</time>
      </trkpt>
      <trkpt lat="43.49574" lon="0.10586">
        <ele>167.925</ele>
        <time>2016-12-30T15:47:05Z</time>
      </trkpt>
      <trkpt lat="43.49548" lon="0.10512">
        <ele>169.668</ele>
        <time>2016-12-30T15:47:25Z</time>
      </trkpt>
      <trkpt lat="43.49507" lon="0.10306">
        <ele>179.554</ele>
        <time>2016-12-30T15:47:45Z</time>
      </trkpt>
      <trkpt lat="43.49507" lon="0.10189">
        <ele>185.883</ele>
        <time>2016-12-30T15:48:05Z</time>
      </trkpt>
      <trkpt lat="43.4957" lon="0.10172">
        <ele>191.01</ele>
        <time>2016-12-30T15:48:25Z</time>
      </trkpt>
      <trkpt lat="43.49586" lon="0.10133">
        <ele>195.881</ele>
        <time>2016-12-30T15:48:45Z</time>
      </trkpt>
      <trkpt lat="43.49595" lon="0.10004">
        <ele>207.87</ele>
        <time>2016-12-30T15:49:05Z</time>
      </trkpt>
      <trkpt lat="43.49665" lon="0.09854">
        <ele>224.731</ele>
        <time>2016-12-30T15:49:25Z</time>
      </trkpt>
      <trkpt lat="43.49775" lon="0.09504">
        <ele>224.582</ele>
        <time>2016-12-30T15:49:45Z</time>
      </trkpt>
      <trkpt lat="43.4977" lon="0.09375">
        <ele>235.643</ele>
        <time>2016-12-30T15:50:05Z</time>
      </trkpt>
      <trkpt lat="43.49732" lon="0.09316">
        <ele>239.817</ele>
        <time>2016-12-30T15:50:25Z</time>
      </trkpt>
      <trkpt lat="43.49695" lon="0.09309">
        <ele>240.008</ele>
        <time>2016-12-30T15:50:45Z</time>
      </trkpt>
      <trkpt lat="43.49676" lon="0.09162">
        <ele>236.385</ele>
        <time>2016-12-30T15:51:05Z</time>
      </trkpt>
      <trkpt lat="43.49416" lon="0.09054">
        <ele>241.158</ele>
        <time>2016-12-30T15:51:25Z</time>
      </trkpt>
      <trkpt lat="43.49405" lon="0.08943">
        <ele>252.464</ele>
        <time>2016-12-30T15:51:45Z</time>
      </trkpt>
      <trkpt lat="43.49423" lon="0.08884">
        <ele>254.273</ele>
        <time>2016-12-30T15:52:05Z</time>
      </trkpt>
      <trkpt lat="43.49422" lon="0.08851">
        <ele>254.22</ele>
        <time>2016-12-30T15:52:25Z</time>
      </trkpt>
      <trkpt lat="43.49446" lon="0.08815">
        <ele>255.351</ele>
        <time>2021-04-18T01:07:30Z</time>
      </trkpt>
      <trkpt lat="43.49533" lon="0.08786">
        <ele>257.17</ele>
        <time>2021-04-18T01:07:50Z</time>
      </trkpt>
      <trkpt lat="43.497" lon="0.08657">
        <ele>258.881</ele>
        <time>2021-04-18T01:08:10Z</time>
      </trkpt>
      <trkpt lat="43.49725" lon="0.08616">
        <ele>251.764</ele>
        <time>2016-12-30T15:54:05Z</time>
      </trkpt>
      <trkpt lat="43.49753" lon="0.08535">
        <ele>250.006</ele>
        <time>2016-12-30T15:54:25Z</time>
      </trkpt>
      <trkpt lat="43.49793" lon="0.08487">
        <ele>248.216</ele>
        <time>2016-12-30T15:54:45Z</time>
      </trkpt>
      <trkpt lat="43.49875" lon="0.08424">
        <ele>249.608</ele>
        <time>2016-12-30T15:55:05Z</time>
      </trkpt>
      <trkpt lat="43.499" lon="0.08417">
        <ele>249.683</ele>
        <time>2016-12-30T15:55:25Z</time>
      </trkpt>
      <trkpt lat="43.49913" lon="0.08391">
        <ele>249.146</ele>
        <time>2016-12-30T15:55:45Z</time>
      </trkpt>
      <trkpt lat="43.49919" lon="0.0828">
        <ele>243.512</ele>
        <time>2016-12-30T15:56:05Z</time>
      </trkpt>
      <trkpt lat="43.49939" lon="0.08191">
        <ele>234.461</ele>
        <time>2016-12-30T15:56:25Z</time>
      </trkpt>
      <trkpt lat="43.49946" lon="0.08122">
        <ele>228.258</ele>
        <time>2016-12-30T15:56:45Z</time>
      </trkpt>
      <trkpt lat="43.50013" lon="0.08052">
        <ele>221.649</ele>
        <time>2016-12-30T15:57:05Z</time>
      </trkpt>
      <trkpt lat="43.50078" lon="0.07938">
        <ele>208.778</ele>
        <time>2016-12-30T15:57:25Z</time>
      </trkpt>
      <trkpt lat="43.50098" lon="0.07812">
        <ele>195.549</ele>
        <time>2016-12-30T15:57:45Z</time>
      </trkpt>
      <trkpt lat="43.50145" lon="0.07765">
        <ele>188.755</ele>
        <time>2016-12-30T15:58:05Z</time>
      </trkpt>
      <trkpt lat="43.50127" lon="0.07689">
        <ele>184.307</ele>
        <time>2016-12-30T15:58:25Z</time>
      </trkpt>
      <trkpt lat="43.50124" lon="0.07634">
        <ele>182.817</ele>
        <time>2016-12-30T15:58:45Z</time>
      </trkpt>
      <trkpt lat="43.5008" lon="0.07613">
        <ele>180.808</ele>
        <time>2016-12-30T15:59:05Z</time>
      </trkpt>
      <trkpt lat="43.50054" lon="0.07529">
        <ele>178.062</ele>
        <time>2016-12-30T15:59:25Z</time>
      </trkpt>
      <trkpt lat="43.50093" lon="0.0746">
        <ele>177.555</ele>
        <time>2016-12-30T15:59:45Z</time>
      </trkpt>
      <trkpt lat="43.50062" lon="0.07423">
        <ele>176.151</ele>
        <time>2016-12-30T16:00:05Z</time>
      </trkpt>
      <trkpt lat="43.5028" lon="0.07194">
        <ele>173.067</ele>
        <time>2016-12-30T16:00:45Z</time>
      </trkpt>
      <trkpt lat="43.50378" lon="0.07147">
        <ele>173.048</ele>
        <time>2016-12-30T16:01:05Z</time>
      </trkpt>
      <trkpt lat="43.5042" lon="0.07111">
        <ele>173.087</ele>
        <time>2016-12-30T16:01:25Z</time>
      </trkpt>
      <trkpt lat="43.50463" lon="0.07089">
        <ele>173.038</ele>
        <time>2016-12-30T16:01:45Z</time>
      </trkpt>
      <trkpt lat="43.50348" lon="0.06754">
        <ele>172.881</ele>
        <time>2021-04-18T01:16:30Z</time>
      </trkpt>
      <trkpt lat="43.50314" lon="0.06711">
        <ele>169.061</ele>
        <time>2016-12-30T16:02:25Z</time>
      </trkpt>
      <trkpt lat="43.50301" lon="0.06666">
        <ele>169.217</ele>
        <time>2016-12-30T16:02:45Z</time>
      </trkpt>
      <trkpt lat="43.50375" lon="0.06396">
        <ele>168.008</ele>
        <time>2016-12-30T16:03:05Z</time>
      </trkpt>
      <trkpt lat="43.50376" lon="0.06124">
        <ele>167.075</ele>
        <time>2016-12-30T16:03:25Z</time>
      </trkpt>
      <trkpt lat="43.50364" lon="0.05986">
        <ele>166.028</ele>
        <time>2016-12-30T16:03:45Z</time>
      </trkpt>
      <trkpt lat="43.50291" lon="0.05879">
        <ele>166.344</ele>
        <time>2016-12-30T16:04:05Z</time>
      </trkpt>
      <trkpt lat="43.50259" lon="0.05887">
        <ele>166.953</ele>
        <time>2016-12-30T16:04:25Z</time>
      </trkpt>
      <trkpt lat="43.50175" lon="0.05802">
        <ele>166.02</ele>
        <time>2016-12-30T16:04:45Z</time>
      </trkpt>
      <trkpt lat="43.50101" lon="0.05797">
        <ele>166.031</ele>
        <time>2016-12-30T16:05:05Z</time>
      </trkpt>
      <trkpt lat="43.49987" lon="0.0566">
        <ele>168.48</ele>
        <time>2016-12-30T16:05:25Z</time>
      </trkpt>
      <trkpt lat="43.49933" lon="0.05649">
        <ele>170.031</ele>
        <time>2016-12-30T16:05:45Z</time>
      </trkpt>
      <trkpt lat="43.49864" lon="0.05649">
        <ele>170.053</ele>
        <time>2016-12-30T16:06:05Z</time>
      </trkpt>
      <trkpt lat="43.49816" lon="0.0559">
        <ele>170.004</ele>
        <time>2016-12-30T16:06:25Z</time>
      </trkpt>
      <trkpt lat="43.4971" lon="0.05515">
        <ele>170.014</ele>
        <time>2016-12-30T16:06:45Z</time>
      </trkpt>
      <trkpt lat="43.49513" lon="0.05492">
        <ele>170.008</ele>
        <time>2016-12-30T16:07:05Z</time>
      </trkpt>
      <trkpt lat="43.49402" lon="0.05448">
        <ele>170.072</ele>
        <time>2016-12-30T16:07:25Z</time>
      </trkpt>
      <trkpt lat="43.49314" lon="0.05404">
        <ele>170.075</ele>
        <time>2016-12-30T16:07:45Z</time>
      </trkpt>
      <trkpt lat="43.49215" lon="0.05419">
        <ele>170.041</ele>
        <time>2016-12-30T16:08:05Z</time>
      </trkpt>
      <trkpt lat="43.49155" lon="0.05413">
        <ele>170.06</ele>
        <time>2016-12-30T16:08:25Z</time>
      </trkpt>
      <trkpt lat="43.49128" lon="0.05352">
        <ele>170.097</ele>
        <time>2016-12-30T16:08:45Z</time>
      </trkpt>
      <trkpt lat="43.49121" lon="0.05271">
        <ele>170.098</ele>
        <time>2016-12-30T16:09:05Z</time>
      </trkpt>
      <trkpt lat="43.491" lon="0.05231">
        <ele>170.037</ele>
        <time>2016-12-30T16:09:25Z</time>
      </trkpt>
      <trkpt lat="43.48936" lon="0.05043">
        <ele>170.078</ele>
        <time>2016-12-30T16:09:45Z</time>
      </trkpt>
      <trkpt lat="43.48812" lon="0.05012">
        <ele>170.034</ele>
        <time>2016-12-30T16:10:05Z</time>
      </trkpt>
      <trkpt lat="43.48569" lon="0.04875">
        <ele>171.055</ele>
        <time>2016-12-30T16:10:25Z</time>
      </trkpt>
      <trkpt lat="43.48483" lon="0.04819">
        <ele>171.01</ele>
        <time>2016-12-30T16:10:45Z</time>
      </trkpt>
      <trkpt lat="43.48349" lon="0.04787">
        <ele>171.008</ele>
        <time>2016-12-30T16:11:05Z</time>
      </trkpt>
      <trkpt lat="43.48294" lon="0.04748">
        <ele>171.09</ele>
        <time>2016-12-30T16:11:25Z</time>
      </trkpt>
      <trkpt lat="43.48266" lon="0.04712">
        <ele>171.053</ele>
        <time>2016-12-30T16:11:45Z</time>
      </trkpt>
      <trkpt lat="43.4815" lon="0.04761">
        <ele>172.089</ele>
        <time>2016-12-30T16:12:05Z</time>
      </trkpt>
      <trkpt lat="43.48111" lon="0.04752">
        <ele>172.058</ele>
        <time>2016-12-30T16:12:25Z</time>
      </trkpt>
      <trkpt lat="43.48066" lon="0.04697">
        <ele>172.035</ele>
        <time>2016-12-30T16:12:45Z</time>
      </trkpt>
      <trkpt lat="43.48015" lon="0.04664">
        <ele>172.016</ele>
        <time>2016-12-30T16:13:05Z</time>
      </trkpt>
      <trkpt lat="43.47941" lon="0.04666">
        <ele>173.095</ele>
        <time>2016-12-30T16:13:25Z</time>
      </trkpt>
      <trkpt lat="43.47852" lon="0.04632">
        <ele>173.096</ele>
        <time>2016-12-30T16:13:45Z</time>
      </trkpt>
      <trkpt lat="43.47607" lon="0.04595">
        <ele>174.024</ele>
        <time>2016-12-30T16:14:05Z</time>
      </trkpt>
      <trkpt lat="43.47475" lon="0.04464">
        <ele>174.004</ele>
        <time>2016-12-30T16:14:25Z</time>
      </trkpt>
      <trkpt lat="43.47411" lon="0.04437">
        <ele>174.214</ele>
        <time>2016-12-30T16:14:45Z</time>
      </trkpt>
      <trkpt lat="43.47359" lon="0.04425">
        <ele>175.008</ele>
        <time>2016-12-30T16:15:05Z</time>
      </trkpt>
      <trkpt lat="43.47333" lon="0.04332">
        <ele>174.019</ele>
        <time>2016-12-30T16:15:25Z</time>
      </trkpt>
      <trkpt lat="43.47308" lon="0.04325">
        <ele>174.912</ele>
        <time>2016-12-30T16:15:45Z</time>
      </trkpt>
      <trkpt lat="43.47292" lon="0.04289">
        <ele>174.758</ele>
        <time>2016-12-30T16:16:05Z</time>
      </trkpt>
      <trkpt lat="43.47282" lon="0.04234">
        <ele>174.027</ele>
        <time>2016-12-30T16:16:25Z</time>
      </trkpt>
      <trkpt lat="43.47256" lon="0.04217">
        <ele>174.694</ele>
        <time>2016-12-30T16:16:45Z</time>
      </trkpt>
      <trkpt lat="43.47119" lon="0.04153">
        <ele>175.025</ele>
        <time>2016-12-30T16:17:05Z</time>
      </trkpt>
      <trkpt lat="43.47111" lon="0.04054">
        <ele>174.174</ele>
        <time>2016-12-30T16:17:25Z</time>
      </trkpt>
      <trkpt lat="43.4704" lon="0.04043">
        <ele>174.275</ele>
        <time>2016-12-30T16:17:45Z</time>
      </trkpt>
      <trkpt lat="43.46994" lon="0.03992">
        <ele>174.261</ele>
        <time>2016-12-30T16:18:05Z</time>
      </trkpt>
      <trkpt lat="43.47" lon="0.03907">
        <ele>174.021</ele>
        <time>2016-12-30T16:18:25Z</time>
      </trkpt>
      <trkpt lat="43.46947" lon="0.03784">
        <ele>178.113</ele>
        <time>2021-04-18T01:33:10Z</time>
      </trkpt>
      <trkpt lat="43.46948" lon="0.03719">
        <ele>174.008</ele>
        <time>2016-12-30T16:19:05Z</time>
      </trkpt>
      <trkpt lat="43.46997" lon="0.03646">
        <ele>173.913</ele>
        <time>2016-12-30T16:19:25Z</time>
      </trkpt>
      <trkpt lat="43.47018" lon="0.03607">
        <ele>178.136</ele>
        <time>2021-04-18T01:34:10Z</time>
      </trkpt>
      <trkpt lat="43.47031" lon="0.0355">
        <ele>178.712</ele>
        <time>2021-04-18T01:34:30Z</time>
      </trkpt>
      <trkpt lat="43.47003" lon="0.03541">
        <ele>179.451</ele>
        <time>2021-04-18T01:34:50Z</time>
      </trkpt>
      <trkpt lat="43.46988" lon="0.03491">
        <ele>179.788</ele>
        <time>2021-04-18T01:35:10Z</time>
      </trkpt>
      <trkpt lat="43.46963" lon="0.03468">
        <ele>179.039</ele>
        <time>2021-04-18T01:35:30Z</time>
      </trkpt>
      <trkpt lat="43.46825" lon="0.0347">
        <ele>181.078</ele>
        <time>2021-04-18T01:35:50Z</time>
      </trkpt>
      <trkpt lat="43.46792" lon="0.02762">
        <ele>175.569</ele>
        <time>2016-12-30T16:21:45Z</time>
      </trkpt>
      <trkpt lat="43.46759" lon="0.02771">
        <ele>176.039</ele>
        <time>2016-12-30T16:22:05Z</time>
      </trkpt>
      <trkpt lat="43.46732" lon="0.02814">
        <ele>176.001</ele>
        <time>2016-12-30T16:22:25Z</time>
      </trkpt>
      <trkpt lat="43.46586" lon="0.02936">
        <ele>175.021</ele>
        <time>2016-12-30T16:22:45Z</time>
      </trkpt>
      <trkpt lat="43.46562" lon="0.02922">
        <ele>175.008</ele>
        <time>2016-12-30T16:23:05Z</time>
      </trkpt>
      <trkpt lat="43.46539" lon="0.02826">
        <ele>175.09</ele>
        <time>2016-12-30T16:23:25Z</time>
      </trkpt>
      <trkpt lat="43.46524" lon="0.02686">
        <ele>176.053</ele>
        <time>2016-12-30T16:23:45Z</time>
      </trkpt>
      <trkpt lat="43.46523" lon="0.025">
        <ele>177.029</ele>
        <time>2016-12-30T16:24:05Z</time>
      </trkpt>
      <trkpt lat="43.46504" lon="0.02365">
        <ele>177.068</ele>
        <time>2016-12-30T16:24:25Z</time>
      </trkpt>
      <trkpt lat="43.46443" lon="0.02165">
        <ele>178.015</ele>
        <time>2016-12-30T16:24:45Z</time>
      </trkpt>
      <trkpt lat="43.46428" lon="0.02034">
        <ele>178.056</ele>
        <time>2016-12-30T16:25:05Z</time>
      </trkpt>
      <trkpt lat="43.46379" lon="0.01863">
        <ele>178.075</ele>
        <time>2016-12-30T16:25:25Z</time>
      </trkpt>
      <trkpt lat="43.46348" lon="0.01649">
        <ele>177.716</ele>
        <time>2016-12-30T16:25:45Z</time>
      </trkpt>
      <trkpt lat="43.46293" lon="0.01387">
        <ele>178.085</ele>
        <time>2016-12-30T16:26:05Z</time>
      </trkpt>
      <trkpt lat="43.46288" lon="0.01313">
        <ele>178.589</ele>
        <time>2016-12-30T16:26:25Z</time>
      </trkpt>
      <trkpt lat="43.46242" lon="0.01211">
        <ele>179.017</ele>
        <time>2016-12-30T16:26:45Z</time>
      </trkpt>
      <trkpt lat="43.46231" lon="0.00975">
        <ele>179.908</ele>
        <time>2016-12-30T16:27:05Z</time>
      </trkpt>
      <trkpt lat="43.46213" lon="0.00879">
        <ele>180.115</ele>
        <time>2016-12-30T16:27:25Z</time>
      </trkpt>
      <trkpt lat="43.46246" lon="0.00826">
        <ele>180.498</ele>
        <time>2016-12-30T16:27:45Z</time>
      </trkpt>
      <trkpt lat="43.46193" lon="0.00603">
        <ele>194.774</ele>
        <time>2016-12-30T16:28:05Z</time>
      </trkpt>
      <trkpt lat="43.4614" lon="0.00241">
        <ele>223.723</ele>
        <time>2016-12-30T16:28:25Z</time>
      </trkpt>
      <trkpt lat="43.46119" lon="-0.00029">
        <ele>222.89</ele>
        <time>2016-12-30T16:28:45Z</time>
      </trkpt>
      <trkpt lat="43.46113" lon="-0.00227">
        <ele>239.211</ele>
        <time>2016-12-30T16:29:05Z</time>
      </trkpt>
      <trkpt lat="43.4608" lon="-0.00388">
        <ele>257.42</ele>
        <time>2016-12-30T16:29:25Z</time>
      </trkpt>
      <trkpt lat="43.46074" lon="-0.00451">
        <ele>263.811</ele>
        <time>2016-12-30T16:29:45Z</time>
      </trkpt>
      <trkpt lat="43.46044" lon="-0.00565">
        <ele>282.942</ele>
        <time>2016-12-30T16:30:05Z</time>
      </trkpt>
      <trkpt lat="43.45966" lon="-0.00819">
        <ele>287.322</ele>
        <time>2016-12-30T16:30:25Z</time>
      </trkpt>
      <trkpt lat="43.45922" lon="-0.00906">
        <ele>289.714</ele>
        <time>2016-12-30T16:30:45Z</time>
      </trkpt>
      <trkpt lat="43.45832" lon="-0.01187">
        <ele>282.608</ele>
        <time>2016-12-30T16:31:05Z</time>
      </trkpt>
      <trkpt lat="43.45807" lon="-0.01339">
        <ele>270.871</ele>
        <time>2016-12-30T16:31:25Z</time>
      </trkpt>
      <trkpt lat="43.45771" lon="-0.01408">
        <ele>270.534</ele>
        <time>2016-12-30T16:31:45Z</time>
      </trkpt>
      <trkpt lat="43.4579" lon="-0.01412">
        <ele>277.57</ele>
        <time>2021-04-18T01:46:30Z</time>
      </trkpt>
      <trkpt lat="43.45756" lon="-0.01675">
        <ele>290.269</ele>
        <time>2021-04-18T01:46:50Z</time>
      </trkpt>
      <trkpt lat="43.45699" lon="-0.01718">
        <ele>292.166</ele>
        <time>2021-04-18T01:47:10Z</time>
      </trkpt>
      <trkpt lat="43.45758" lon="-0.01843">
        <ele>290.047</ele>
        <time>2016-12-30T16:33:05Z</time>
      </trkpt>
      <trkpt lat="43.45762" lon="-0.01886">
        <ele>289.676</ele>
        <time>2016-12-30T16:33:25Z</time>
      </trkpt>
      <trkpt lat="43.45777" lon="-0.01894">
        <ele>288.427</ele>
        <time>2016-12-30T16:33:45Z</time>
      </trkpt>
      <trkpt lat="43.458" lon="-0.01937">
        <ele>279.087</ele>
        <time>2016-12-30T16:34:05Z</time>
      </trkpt>
      <trkpt lat="43.45839" lon="-0.01948">
        <ele>271.542</ele>
        <time>2016-12-30T16:34:25Z</time>
      </trkpt>
      <trkpt lat="43.45878" lon="-0.01937">
        <ele>269.226</ele>
        <time>2016-12-30T16:34:45Z</time>
      </trkpt>
      <trkpt lat="43.45832" lon="-0.02039">
        <ele>259.208</ele>
        <time>2016-12-30T16:35:05Z</time>
      </trkpt>
      <trkpt lat="43.45818" lon="-0.0213">
        <ele>257.045</ele>
        <time>2016-12-30T16:35:25Z</time>
      </trkpt>
      <trkpt lat="43.45832" lon="-0.02196">
        <ele>246.158</ele>
        <time>2016-12-30T16:35:45Z</time>
      </trkpt>
      <trkpt lat="43.45819" lon="-0.02238">
        <ele>242.884</ele>
        <time>2016-12-30T16:36:25Z</time>
      </trkpt>
      <trkpt lat="43.45691" lon="-0.02393">
        <ele>233.553</ele>
        <time>2016-12-30T16:36:45Z</time>
      </trkpt>
      <trkpt lat="43.45641" lon="-0.024">
        <ele>230.71</ele>
        <time>2016-12-30T16:37:05Z</time>
      </trkpt>
      <trkpt lat="43.45593" lon="-0.02479">
        <ele>214.911</ele>
        <time>2016-12-30T16:37:25Z</time>
      </trkpt>
      <trkpt lat="43.45614" lon="-0.02503">
        <ele>211.57</ele>
        <time>2016-12-30T16:37:45Z</time>
      </trkpt>
      <trkpt lat="43.45556" lon="-0.02615">
        <ele>201.621</ele>
        <time>2016-12-30T16:38:45Z</time>
      </trkpt>
      <trkpt lat="43.45487" lon="-0.02652">
        <ele>196.489</ele>
        <time>2021-04-18T01:52:30Z</time>
      </trkpt>
      <trkpt lat="43.45488" lon="-0.02785">
        <ele>185.306</ele>
        <time>2016-12-30T16:39:25Z</time>
      </trkpt>
      <trkpt lat="43.45464" lon="-0.02895">
        <ele>185.026</ele>
        <time>2016-12-30T16:39:45Z</time>
      </trkpt>
      <trkpt lat="43.45444" lon="-0.02933">
        <ele>187.908</ele>
        <time>2021-04-18T01:53:30Z</time>
      </trkpt>
      <trkpt lat="43.45409" lon="-0.0294">
        <ele>188.665</ele>
        <time>2021-04-18T01:53:50Z</time>
      </trkpt>
      <trkpt lat="43.45397" lon="-0.03001">
        <ele>185.098</ele>
        <time>2016-12-30T16:40:45Z</time>
      </trkpt>
      <trkpt lat="43.45404" lon="-0.03124">
        <ele>187.094</ele>
        <time>2016-12-30T16:41:05Z</time>
      </trkpt>
      <trkpt lat="43.45364" lon="-0.03205">
        <ele>189.413</ele>
        <time>2016-12-30T16:41:25Z</time>
      </trkpt>
      <trkpt lat="43.45289" lon="-0.03513">
        <ele>193.05</ele>
        <time>2016-12-30T16:41:45Z</time>
      </trkpt>
      <trkpt lat="43.45344" lon="-0.03779">
        <ele>197.041</ele>
        <time>2016-12-30T16:42:05Z</time>
      </trkpt>
      <trkpt lat="43.4533" lon="-0.03877">
        <ele>198.11</ele>
        <time>2016-12-30T16:42:25Z</time>
      </trkpt>
      <trkpt lat="43.45298" lon="-0.03989">
        <ele>200.691</ele>
        <time>2016-12-30T16:42:45Z</time>
      </trkpt>
      <trkpt lat="43.45195" lon="-0.04247">
        <ele>205.965</ele>
        <time>2016-12-30T16:43:05Z</time>
      </trkpt>
      <trkpt lat="43.45178" lon="-0.04337">
        <ele>207.168</ele>
        <time>2016-12-30T16:43:25Z</time>
      </trkpt>
      <trkpt lat="43.45005" lon="-0.04505">
        <ele>210.014</ele>
        <time>2016-12-30T16:43:45Z</time>
      </trkpt>
      <trkpt lat="43.44952" lon="-0.04523">
        <ele>209.808</ele>
        <time>2016-12-30T16:44:05Z</time>
      </trkpt>
      <trkpt lat="43.44888" lon="-0.04795">
        <ele>213.643</ele>
        <time>2016-12-30T16:44:25Z</time>
      </trkpt>
      <trkpt lat="43.44855" lon="-0.04786">
        <ele>212.226</ele>
        <time>2016-12-30T16:44:45Z</time>
      </trkpt>
      <trkpt lat="43.4479" lon="-0.04799">
        <ele>211.912</ele>
        <time>2016-12-30T16:45:05Z</time>
      </trkpt>
      <trkpt lat="43.44757" lon="-0.04821">
        <ele>211.671</ele>
        <time>2016-12-30T16:45:25Z</time>
      </trkpt>
      <trkpt lat="43.4473" lon="-0.0481">
        <ele>212.528</ele>
        <time>2016-12-30T16:45:45Z</time>
      </trkpt>
      <trkpt lat="43.44674" lon="-0.0473">
        <ele>213.719</ele>
        <time>2016-12-30T16:46:05Z</time>
      </trkpt>
      <trkpt lat="43.44651" lon="-0.04641">
        <ele>214.378</ele>
        <time>2016-12-30T16:46:25Z</time>
      </trkpt>
      <trkpt lat="43.44604" lon="-0.04617">
        <ele>217.989</ele>
        <time>2016-12-30T16:46:45Z</time>
      </trkpt>
      <trkpt lat="43.44573" lon="-0.04671">
        <ele>223.739</ele>
        <time>2016-12-30T16:47:05Z</time>
      </trkpt>
      <trkpt lat="43.44537" lon="-0.04811">
        <ele>235.201</ele>
        <time>2016-12-30T16:47:25Z</time>
      </trkpt>
      <trkpt lat="43.44393" lon="-0.04925">
        <ele>249.421</ele>
        <time>2016-12-30T16:47:45Z</time>
      </trkpt>
      <trkpt lat="43.44349" lon="-0.04935">
        <ele>252.108</ele>
        <time>2016-12-30T16:48:05Z</time>
      </trkpt>
      <trkpt lat="43.44214" lon="-0.04825">
        <ele>241.63</ele>
        <time>2016-12-30T16:48:25Z</time>
      </trkpt>
      <trkpt lat="43.44144" lon="-0.04826">
        <ele>241.323</ele>
        <time>2016-12-30T16:48:45Z</time>
      </trkpt>
      <trkpt lat="43.4408" lon="-0.04792">
        <ele>243.699</ele>
        <time>2016-12-30T16:49:05Z</time>
      </trkpt>
      <trkpt lat="43.44025" lon="-0.04786">
        <ele>244.818</ele>
        <time>2016-12-30T16:49:25Z</time>
      </trkpt>
      <trkpt lat="43.43856" lon="-0.04798">
        <ele>235.935</ele>
        <time>2016-12-30T16:49:45Z</time>
      </trkpt>
      <trkpt lat="43.43813" lon="-0.04715">
        <ele>236.326</ele>
        <time>2016-12-30T16:50:05Z</time>
      </trkpt>
      <trkpt lat="43.43771" lon="-0.04696">
        <ele>237.255</ele>
        <time>2016-12-30T16:50:25Z</time>
      </trkpt>
      <trkpt lat="43.43703" lon="-0.04663">
        <ele>232.046</ele>
        <time>2016-12-30T16:50:45Z</time>
      </trkpt>
      <trkpt lat="43.43656" lon="-0.04573">
        <ele>226.893</ele>
        <time>2016-12-30T16:51:05Z</time>
      </trkpt>
      <trkpt lat="43.43531" lon="-0.04427">
        <ele>222.065</ele>
        <time>2016-12-30T16:51:25Z</time>
      </trkpt>
      <trkpt lat="43.43462" lon="-0.04375">
        <ele>221.521</ele>
        <time>2016-12-30T16:51:45Z</time>
      </trkpt>
      <trkpt lat="43.43404" lon="-0.04353">
        <ele>220.708</ele>
        <time>2016-12-30T16:52:05Z</time>
      </trkpt>
      <trkpt lat="43.43331" lon="-0.04332">
        <ele>220.016</ele>
        <time>2016-12-30T16:52:25Z</time>
      </trkpt>
      <trkpt lat="43.43243" lon="-0.04333">
        <ele>221.049</ele>
        <time>2016-12-30T16:52:45Z</time>
      </trkpt>
      <trkpt lat="43.43105" lon="-0.0435">
        <ele>219.615</ele>
        <time>2016-12-30T16:53:05Z</time>
      </trkpt>
      <trkpt lat="43.43005" lon="-0.0438">
        <ele>219.834</ele>
        <time>2016-12-30T16:53:25Z</time>
      </trkpt>
      <trkpt lat="43.42975" lon="-0.04289">
        <ele>217.481</ele>
        <time>2016-12-30T16:53:45Z</time>
      </trkpt>
      <trkpt lat="43.4294" lon="-0.04262">
        <ele>215.392</ele>
        <time>2016-12-30T16:54:05Z</time>
      </trkpt>
      <trkpt lat="43.42669" lon="-0.0423">
        <ele>218.351</ele>
        <time>2016-12-30T16:54:25Z</time>
      </trkpt>
      <trkpt lat="43.42607" lon="-0.04214">
        <ele>217.222</ele>
        <time>2016-12-30T16:54:45Z</time>
      </trkpt>
      <trkpt lat="43.42416" lon="-0.04196">
        <ele>216.029</ele>
        <time>2016-12-30T16:55:05Z</time>
      </trkpt>
      <trkpt lat="43.4241" lon="-0.04244">
        <ele>216.8</ele>
        <time>2016-12-30T16:55:25Z</time>
      </trkpt>
      <trkpt lat="43.42267" lon="-0.04363">
        <ele>220.52</ele>
        <time>2021-04-18T02:09:10Z</time>
      </trkpt>
      <trkpt lat="43.42071" lon="-0.0448">
        <ele>223.308</ele>
        <time>2016-12-30T16:55:45Z</time>
      </trkpt>
      <trkpt lat="43.42071" lon="-0.04596">
        <ele>226.549</ele>
        <time>2016-12-30T16:56:05Z</time>
      </trkpt>
      <trkpt lat="43.41869" lon="-0.0465">
        <ele>225.842</ele>
        <time>2016-12-30T16:56:25Z</time>
      </trkpt>
      <trkpt lat="43.41803" lon="-0.04692">
        <ele>227.918</ele>
        <time>2016-12-30T16:56:45Z</time>
      </trkpt>
      <trkpt lat="43.41734" lon="-0.0476">
        <ele>230.487</ele>
        <time>2016-12-30T16:57:05Z</time>
      </trkpt>
      <trkpt lat="43.41739" lon="-0.04847">
        <ele>234.874</ele>
        <time>2016-12-30T16:57:25Z</time>
      </trkpt>
      <trkpt lat="43.41796" lon="-0.04905">
        <ele>237.845</ele>
        <time>2016-12-30T16:57:45Z</time>
      </trkpt>
      <trkpt lat="43.41863" lon="-0.04947">
        <ele>235.984</ele>
        <time>2016-12-30T16:58:05Z</time>
      </trkpt>
      <trkpt lat="43.41855" lon="-0.0503">
        <ele>239.335</ele>
        <time>2016-12-30T16:58:25Z</time>
      </trkpt>
      <trkpt lat="43.41818" lon="-0.05204">
        <ele>254.819</ele>
        <time>2016-12-30T16:58:45Z</time>
      </trkpt>
      <trkpt lat="43.41763" lon="-0.05207">
        <ele>262.409</ele>
        <time>2016-12-30T16:59:05Z</time>
      </trkpt>
      <trkpt lat="43.41764" lon="-0.05326">
        <ele>275.819</ele>
        <time>2016-12-30T16:59:25Z</time>
      </trkpt>
      <trkpt lat="43.417" lon="-0.05329">
        <ele>282.408</ele>
        <time>2016-12-30T16:59:45Z</time>
      </trkpt>
      <trkpt lat="43.41662" lon="-0.05469">
        <ele>298.798</ele>
        <time>2016-12-30T17:00:05Z</time>
      </trkpt>
      <trkpt lat="43.41508" lon="-0.05784">
        <ele>313.971</ele>
        <time>2016-12-30T17:00:25Z</time>
      </trkpt>
      <trkpt lat="43.41527" lon="-0.05904">
        <ele>315.097</ele>
        <time>2016-12-30T17:00:45Z</time>
      </trkpt>
      <trkpt lat="43.41416" lon="-0.06049">
        <ele>315.086</ele>
        <time>2016-12-30T17:01:05Z</time>
      </trkpt>
      <trkpt lat="43.41187" lon="-0.06297">
        <ele>315.063</ele>
        <time>2016-12-30T17:01:25Z</time>
      </trkpt>
      <trkpt lat="43.41105" lon="-0.06514">
        <ele>318.554</ele>
        <time>2016-12-30T17:01:45Z</time>
      </trkpt>
      <trkpt lat="43.41127" lon="-0.0663">
        <ele>319.853</ele>
        <time>2016-12-30T17:02:05Z</time>
      </trkpt>
      <trkpt lat="43.41043" lon="-0.06712">
        <ele>319.764</ele>
        <time>2016-12-30T17:02:25Z</time>
      </trkpt>
      <trkpt lat="43.41051" lon="-0.06908">
        <ele>316.267</ele>
        <time>2016-12-30T17:02:45Z</time>
      </trkpt>
      <trkpt lat="43.4084" lon="-0.06991">
        <ele>320.281</ele>
        <time>2016-12-30T17:03:05Z</time>
      </trkpt>
      <trkpt lat="43.40688" lon="-0.07006">
        <ele>315.419</ele>
        <time>2016-12-30T17:03:25Z</time>
      </trkpt>
      <trkpt lat="43.40513" lon="-0.07105">
        <ele>317.308</ele>
        <time>2016-12-30T17:03:45Z</time>
      </trkpt>
      <trkpt lat="43.40523" lon="-0.07192">
        <ele>304.483</ele>
        <time>2016-12-30T17:04:05Z</time>
      </trkpt>
      <trkpt lat="43.40554" lon="-0.07246">
        <ele>298.316</ele>
        <time>2016-12-30T17:04:25Z</time>
      </trkpt>
      <trkpt lat="43.4062" lon="-0.07393">
        <ele>284.452</ele>
        <time>2016-12-30T17:04:45Z</time>
      </trkpt>
      <trkpt lat="43.40618" lon="-0.07434">
        <ele>277.581</ele>
        <time>2016-12-30T17:05:05Z</time>
      </trkpt>
      <trkpt lat="43.40641" lon="-0.07513">
        <ele>258.548</ele>
        <time>2021-04-18T02:19:10Z</time>
      </trkpt>
      <trkpt lat="43.40641" lon="-0.07599">
        <ele>243.489</ele>
        <time>2016-12-30T17:05:45Z</time>
      </trkpt>
      <trkpt lat="43.40651" lon="-0.07675">
        <ele>241.058</ele>
        <time>2016-12-30T17:06:05Z</time>
      </trkpt>
      <trkpt lat="43.40719" lon="-0.07773">
        <ele>240.029</ele>
        <time>2016-12-30T17:06:25Z</time>
      </trkpt>
      <trkpt lat="43.40715" lon="-0.07811">
        <ele>240.081</ele>
        <time>2016-12-30T17:06:45Z</time>
      </trkpt>
      <trkpt lat="43.40693" lon="-0.07828">
        <ele>240.961</ele>
        <time>2016-12-30T17:07:05Z</time>
      </trkpt>
      <trkpt lat="43.40665" lon="-0.07829">
        <ele>244.017</ele>
        <time>2016-12-30T17:07:25Z</time>
      </trkpt>
      <trkpt lat="43.40569" lon="-0.07881">
        <ele>248.708</ele>
        <time>2016-12-30T17:07:45Z</time>
      </trkpt>
      <trkpt lat="43.40496" lon="-0.07965">
        <ele>253.735</ele>
        <time>2016-12-30T17:08:05Z</time>
      </trkpt>
      <trkpt lat="43.40462" lon="-0.08046">
        <ele>259.698</ele>
        <time>2016-12-30T17:08:25Z</time>
      </trkpt>
      <trkpt lat="43.40445" lon="-0.08209">
        <ele>265.034</ele>
        <time>2016-12-30T17:08:45Z</time>
      </trkpt>
      <trkpt lat="43.40415" lon="-0.08207">
        <ele>263.343</ele>
        <time>2016-12-30T17:09:05Z</time>
      </trkpt>
      <trkpt lat="43.4028" lon="-0.08244">
        <ele>255.17</ele>
        <time>2016-12-30T17:09:25Z</time>
      </trkpt>
      <trkpt lat="43.40229" lon="-0.08271">
        <ele>253.681</ele>
        <time>2016-12-30T17:09:45Z</time>
      </trkpt>
      <trkpt lat="43.40173" lon="-0.08167">
        <ele>250.25</ele>
        <time>2016-12-30T17:10:05Z</time>
      </trkpt>
      <trkpt lat="43.4011" lon="-0.08126">
        <ele>250.071</ele>
        <time>2016-12-30T17:10:25Z</time>
      </trkpt>
      <trkpt lat="43.40019" lon="-0.08244">
        <ele>259.065</ele>
        <time>2016-12-30T17:10:45Z</time>
      </trkpt>
      <trkpt lat="43.3999" lon="-0.08305">
        <ele>267.768</ele>
        <time>2016-12-30T17:11:05Z</time>
      </trkpt>
      <trkpt lat="43.39842" lon="-0.08349">
        <ele>272.914</ele>
        <time>2016-12-30T17:11:25Z</time>
      </trkpt>
      <trkpt lat="43.39779" lon="-0.08409">
        <ele>274.208</ele>
        <time>2021-04-18T02:25:30Z</time>
      </trkpt>
      <trkpt lat="43.39665" lon="-0.08492">
        <ele>277.353</ele>
        <time>2016-12-30T17:12:05Z</time>
      </trkpt>
      <trkpt lat="43.39482" lon="-0.08586">
        <ele>283.386</ele>
        <time>2016-12-30T17:12:25Z</time>
      </trkpt>
      <trkpt lat="43.39489" lon="-0.0883">
        <ele>293.252</ele>
        <time>2016-12-30T17:12:45Z</time>
      </trkpt>
      <trkpt lat="43.39501" lon="-0.08847">
        <ele>290.531</ele>
        <time>2016-12-30T17:13:05Z</time>
      </trkpt>
      <trkpt lat="43.39505" lon="-0.08874">
        <ele>286.298</ele>
        <time>2016-12-30T17:13:25Z</time>
      </trkpt>
      <trkpt lat="43.39481" lon="-0.08882">
        <ele>283.989</ele>
        <time>2016-12-30T17:13:45Z</time>
      </trkpt>
      <trkpt lat="43.39438" lon="-0.08925">
        <ele>276.168</ele>
        <time>2016-12-30T17:14:05Z</time>
      </trkpt>
      <trkpt lat="43.39312" lon="-0.0894">
        <ele>276.489</ele>
        <time>2016-12-30T17:14:25Z</time>
      </trkpt>
      <trkpt lat="43.39254" lon="-0.08977">
        <ele>274.597</ele>
        <time>2016-12-30T17:14:45Z</time>
      </trkpt>
      <trkpt lat="43.39134" lon="-0.0898">
        <ele>275.323</ele>
        <time>2016-12-30T17:15:05Z</time>
      </trkpt>
      <trkpt lat="43.39134" lon="-0.09006">
        <ele>274.225</ele>
        <time>2016-12-30T17:15:25Z</time>
      </trkpt>
      <trkpt lat="43.39212" lon="-0.09059">
        <ele>274.108</ele>
        <time>2016-12-30T17:15:45Z</time>
      </trkpt>
      <trkpt lat="43.3935" lon="-0.0907">
        <ele>269.796</ele>
        <time>2016-12-30T17:16:05Z</time>
      </trkpt>
      <trkpt lat="43.39393" lon="-0.09094">
        <ele>270.919</ele>
        <time>2016-12-30T17:16:25Z</time>
      </trkpt>
      <trkpt lat="43.39424" lon="-0.0915">
        <ele>275.075</ele>
        <time>2016-12-30T17:16:45Z</time>
      </trkpt>
      <trkpt lat="43.39461" lon="-0.09179">
        <ele>274.294</ele>
        <time>2016-12-30T17:17:05Z</time>
      </trkpt>
      <trkpt lat="43.39484" lon="-0.09252">
        <ele>274.151</ele>
        <time>2016-12-30T17:17:25Z</time>
      </trkpt>
      <trkpt lat="43.39566" lon="-0.09301">
        <ele>274.462</ele>
        <time>2016-12-30T17:17:45Z</time>
      </trkpt>
      <trkpt lat="43.39622" lon="-0.09376">
        <ele>272.981</ele>
        <time>2016-12-30T17:18:05Z</time>
      </trkpt>
      <trkpt lat="43.3965" lon="-0.09374">
        <ele>275.142</ele>
        <time>2016-12-30T17:18:25Z</time>
      </trkpt>
      <trkpt lat="43.3967" lon="-0.09458">
        <ele>284.764</ele>
        <time>2016-12-30T17:18:45Z</time>
      </trkpt>
      <trkpt lat="43.39711" lon="-0.09544">
        <ele>290.406</ele>
        <time>2016-12-30T17:19:05Z</time>
      </trkpt>
      <trkpt lat="43.397" lon="-0.09784">
        <ele>302.016</ele>
        <time>2016-12-30T17:19:25Z</time>
      </trkpt>
      <trkpt lat="43.3971" lon="-0.10059">
        <ele>322.508</ele>
        <time>2016-12-30T17:19:45Z</time>
      </trkpt>
      <trkpt lat="43.39728" lon="-0.10139">
        <ele>328.683</ele>
        <time>2016-12-30T17:20:05Z</time>
      </trkpt>
      <trkpt lat="43.39732" lon="-0.10261">
        <ele>333.476</ele>
        <time>2016-12-30T17:20:25Z</time>
      </trkpt>
      <trkpt lat="43.39687" lon="-0.10389">
        <ele>332.762</ele>
        <time>2016-12-30T17:20:45Z</time>
      </trkpt>
      <trkpt lat="43.39783" lon="-0.10611">
        <ele>336.851</ele>
        <time>2016-12-30T17:21:05Z</time>
      </trkpt>
      <trkpt lat="43.39715" lon="-0.10759">
        <ele>339.348</ele>
        <time>2016-12-30T17:21:25Z</time>
      </trkpt>
      <trkpt lat="43.39621" lon="-0.1105">
        <ele>340.039</ele>
        <time>2016-12-30T17:21:45Z</time>
      </trkpt>
      <trkpt lat="43.39582" lon="-0.11118">
        <ele>341.228</ele>
        <time>2021-04-18T02:35:50Z</time>
      </trkpt>
      <trkpt lat="43.39591" lon="-0.1116">
        <ele>339.599</ele>
        <time>2016-12-30T17:22:25Z</time>
      </trkpt>
      <trkpt lat="43.39581" lon="-0.11212">
        <ele>337.518</ele>
        <time>2016-12-30T17:22:45Z</time>
      </trkpt>
      <trkpt lat="43.39591" lon="-0.11275">
        <ele>331.598</ele>
        <time>2021-04-18T02:36:50Z</time>
      </trkpt>
      <trkpt lat="43.39634" lon="-0.11355">
        <ele>321.817</ele>
        <time>2021-04-18T02:37:10Z</time>
      </trkpt>
      <trkpt lat="43.39669" lon="-0.11379">
        <ele>318.008</ele>
        <time>2016-12-30T17:23:25Z</time>
      </trkpt>
      <trkpt lat="43.39731" lon="-0.11403">
        <ele>320.698</ele>
        <time>2016-12-30T17:23:45Z</time>
      </trkpt>
      <trkpt lat="43.39763" lon="-0.11496">
        <ele>307.711</ele>
        <time>2016-12-30T17:24:05Z</time>
      </trkpt>
      <trkpt lat="43.39801" lon="-0.11564">
        <ele>298.857</ele>
        <time>2016-12-30T17:24:25Z</time>
      </trkpt>
      <trkpt lat="43.39852" lon="-0.1174">
        <ele>283.416</ele>
        <time>2016-12-30T17:24:45Z</time>
      </trkpt>
      <trkpt lat="43.39875" lon="-0.11723">
        <ele>281.983</ele>
        <time>2016-12-30T17:25:05Z</time>
      </trkpt>
      <trkpt lat="43.39891" lon="-0.1174">
        <ele>277.474</ele>
        <time>2016-12-30T17:25:25Z</time>
      </trkpt>
      <trkpt lat="43.39884" lon="-0.11787">
        <ele>271.613</ele>
        <time>2016-12-30T17:25:45Z</time>
      </trkpt>
      <trkpt lat="43.39823" lon="-0.1191">
        <ele>256.144</ele>
        <time>2016-12-30T17:26:05Z</time>
      </trkpt>
      <trkpt lat="43.39826" lon="-0.11964">
        <ele>247.318</ele>
        <time>2016-12-30T17:26:25Z</time>
      </trkpt>
      <trkpt lat="43.39801" lon="-0.11979">
        <ele>243.198</ele>
        <time>2016-12-30T17:26:45Z</time>
      </trkpt>
      <trkpt lat="43.39745" lon="-0.11966">
        <ele>238.517</ele>
        <time>2016-12-30T17:27:05Z</time>
      </trkpt>
      <trkpt lat="43.39697" lon="-0.12049">
        <ele>232.508</ele>
        <time>2021-04-18T02:41:30Z</time>
      </trkpt>
      <trkpt lat="43.39703" lon="-0.12339">
        <ele>219.018</ele>
        <time>2016-12-30T17:27:45Z</time>
      </trkpt>
      <trkpt lat="43.39672" lon="-0.12394">
        <ele>219.071</ele>
        <time>2016-12-30T17:28:05Z</time>
      </trkpt>
      <trkpt lat="43.39677" lon="-0.12569">
        <ele>222.337</ele>
        <time>2016-12-30T17:28:25Z</time>
      </trkpt>
      <trkpt lat="43.39592" lon="-0.12752">
        <ele>226.726</ele>
        <time>2016-12-30T17:28:45Z</time>
      </trkpt>
      <trkpt lat="43.395" lon="-0.12919">
        <ele>229.183</ele>
        <time>2016-12-30T17:29:05Z</time>
      </trkpt>
      <trkpt lat="43.39504" lon="-0.13035">
        <ele>231.934</ele>
        <time>2016-12-30T17:29:25Z</time>
      </trkpt>
      <trkpt lat="43.39566" lon="-0.13177">
        <ele>233.613</ele>
        <time>2016-12-30T17:29:45Z</time>
      </trkpt>
      <trkpt lat="43.39573" lon="-0.13269">
        <ele>234.744</ele>
        <time>2016-12-30T17:30:05Z</time>
      </trkpt>
      <trkpt lat="43.39555" lon="-0.13347">
        <ele>235.141</ele>
        <time>2016-12-30T17:30:25Z</time>
      </trkpt>
      <trkpt lat="43.39521" lon="-0.13428">
        <ele>241.781</ele>
        <time>2021-04-18T02:44:50Z</time>
      </trkpt>
      <trkpt lat="43.39548" lon="-0.13558">
        <ele>236.109</ele>
        <time>2016-12-30T17:31:05Z</time>
      </trkpt>
      <trkpt lat="43.39533" lon="-0.13672">
        <ele>239.208</ele>
        <time>2016-12-30T17:31:25Z</time>
      </trkpt>
      <trkpt lat="43.39328" lon="-0.13938">
        <ele>247.651</ele>
        <time>2016-12-30T17:31:45Z</time>
      </trkpt>
      <trkpt lat="43.39317" lon="-0.14036">
        <ele>250.724</ele>
        <time>2016-12-30T17:32:05Z</time>
      </trkpt>
      <trkpt lat="43.39327" lon="-0.14081">
        <ele>252.79</ele>
        <time>2016-12-30T17:32:25Z</time>
      </trkpt>
      <trkpt lat="43.39376" lon="-0.14149">
        <ele>256.959</ele>
        <time>2016-12-30T17:32:45Z</time>
      </trkpt>
      <trkpt lat="43.3924" lon="-0.1431">
        <ele>264.956</ele>
        <time>2016-12-30T17:33:05Z</time>
      </trkpt>
      <trkpt lat="43.39242" lon="-0.14355">
        <ele>268.347</ele>
        <time>2016-12-30T17:33:25Z</time>
      </trkpt>
      <trkpt lat="43.39151" lon="-0.14501">
        <ele>275.686</ele>
        <time>2016-12-30T17:33:45Z</time>
      </trkpt>
      <trkpt lat="43.39117" lon="-0.14623">
        <ele>285.937</ele>
        <time>2016-12-30T17:34:05Z</time>
      </trkpt>
      <trkpt lat="43.39147" lon="-0.14777">
        <ele>303.336</ele>
        <time>2016-12-30T17:34:25Z</time>
      </trkpt>
      <trkpt lat="43.39144" lon="-0.14867">
        <ele>311.717</ele>
        <time>2016-12-30T17:34:45Z</time>
      </trkpt>
      <trkpt lat="43.39115" lon="-0.14995">
        <ele>319.118</ele>
        <time>2016-12-30T17:35:05Z</time>
      </trkpt>
      <trkpt lat="43.39111" lon="-0.15085">
        <ele>326.108</ele>
        <time>2016-12-30T17:35:25Z</time>
      </trkpt>
      <trkpt lat="43.39084" lon="-0.15172">
        <ele>329.48</ele>
        <time>2016-12-30T17:35:45Z</time>
      </trkpt>
      <trkpt lat="43.3906" lon="-0.1531">
        <ele>333.533</ele>
        <time>2016-12-30T17:36:05Z</time>
      </trkpt>
      <trkpt lat="43.39066" lon="-0.15437">
        <ele>335.429</ele>
        <time>2016-12-30T17:36:25Z</time>
      </trkpt>
      <trkpt lat="43.39041" lon="-0.15495">
        <ele>335.578</ele>
        <time>2016-12-30T17:36:45Z</time>
      </trkpt>
      <trkpt lat="43.39003" lon="-0.15534">
        <ele>335.055</ele>
        <time>2016-12-30T17:37:05Z</time>
      </trkpt>
      <trkpt lat="43.39003" lon="-0.1554">
        <ele>335.076</ele>
        <time>2016-12-30T17:37:25Z</time>
      </trkpt>
      <trkpt lat="43.38982" lon="-0.15828">
        <ele>336.035</ele>
        <time>2016-12-30T17:37:45Z</time>
      </trkpt>
      <trkpt lat="43.38942" lon="-0.16154">
        <ele>335.396</ele>
        <time>2016-12-30T17:38:05Z</time>
      </trkpt>
      <trkpt lat="43.38853" lon="-0.16145">
        <ele>334.825</ele>
        <time>2016-12-30T17:38:25Z</time>
      </trkpt>
      <trkpt lat="43.38832" lon="-0.16649">
        <ele>320.126</ele>
        <time>2016-12-30T17:38:45Z</time>
      </trkpt>
      <trkpt lat="43.38788" lon="-0.16763">
        <ele>309.508</ele>
        <time>2016-12-30T17:39:05Z</time>
      </trkpt>
      <trkpt lat="43.3873" lon="-0.168">
        <ele>302.908</ele>
        <time>2016-12-30T17:39:25Z</time>
      </trkpt>
      <trkpt lat="43.3868" lon="-0.16818">
        <ele>301.799</ele>
        <time>2016-12-30T17:39:45Z</time>
      </trkpt>
      <trkpt lat="43.3864" lon="-0.16871">
        <ele>303.722</ele>
        <time>2016-12-30T17:40:05Z</time>
      </trkpt>
      <trkpt lat="43.38609" lon="-0.16996">
        <ele>308.718</ele>
        <time>2016-12-30T17:40:25Z</time>
      </trkpt>
      <trkpt lat="43.38607" lon="-0.17124">
        <ele>316.237</ele>
        <time>2016-12-30T17:40:45Z</time>
      </trkpt>
      <trkpt lat="43.38592" lon="-0.17243">
        <ele>320.134</ele>
        <time>2016-12-30T17:41:05Z</time>
      </trkpt>
      <trkpt lat="43.38595" lon="-0.1735">
        <ele>322.855</ele>
        <time>2016-12-30T17:41:25Z</time>
      </trkpt>
      <trkpt lat="43.38582" lon="-0.17398">
        <ele>323.364</ele>
        <time>2016-12-30T17:41:45Z</time>
      </trkpt>
      <trkpt lat="43.38559" lon="-0.17448">
        <ele>324.235</ele>
        <time>2016-12-30T17:42:05Z</time>
      </trkpt>
      <trkpt lat="43.38511" lon="-0.17638">
        <ele>330.011</ele>
        <time>2016-12-30T17:42:25Z</time>
      </trkpt>
      <trkpt lat="43.38482" lon="-0.17691">
        <ele>330.021</ele>
        <time>2016-12-30T17:42:45Z</time>
      </trkpt>
      <trkpt lat="43.38448" lon="-0.17727">
        <ele>330.003</ele>
        <time>2016-12-30T17:43:05Z</time>
      </trkpt>
      <trkpt lat="43.38418" lon="-0.178">
        <ele>330.008</ele>
        <time>2016-12-30T17:43:25Z</time>
      </trkpt>
      <trkpt lat="43.38327" lon="-0.1791">
        <ele>327.098</ele>
        <time>2016-12-30T17:43:45Z</time>
      </trkpt>
      <trkpt lat="43.38096" lon="-0.1805">
        <ele>307.251</ele>
        <time>2016-12-30T17:44:05Z</time>
      </trkpt>
      <trkpt lat="43.37964" lon="-0.18099">
        <ele>294.077</ele>
        <time>2016-12-30T17:44:25Z</time>
      </trkpt>
      <trkpt lat="43.37764" lon="-0.18202">
        <ele>289.026</ele>
        <time>2016-12-30T17:44:45Z</time>
      </trkpt>
      <trkpt lat="43.3774" lon="-0.1825">
        <ele>291.463</ele>
        <time>2016-12-30T17:45:05Z</time>
      </trkpt>
      <trkpt lat="43.37727" lon="-0.18311">
        <ele>294.594</ele>
        <time>2016-12-30T17:45:25Z</time>
      </trkpt>
      <trkpt lat="43.37738" lon="-0.18343">
        <ele>297.313</ele>
        <time>2016-12-30T17:45:45Z</time>
      </trkpt>
      <trkpt lat="43.37722" lon="-0.18383">
        <ele>307.064</ele>
        <time>2021-04-18T03:00:10Z</time>
      </trkpt>
      <trkpt lat="43.37643" lon="-0.18444">
        <ele>311.061</ele>
        <time>2016-12-30T17:46:25Z</time>
      </trkpt>
      <trkpt lat="43.37609" lon="-0.18488">
        <ele>316.221</ele>
        <time>2016-12-30T17:46:45Z</time>
      </trkpt>
      <trkpt lat="43.37561" lon="-0.18485">
        <ele>316.313</ele>
        <time>2016-12-30T17:47:05Z</time>
      </trkpt>
      <trkpt lat="43.37505" lon="-0.18548">
        <ele>324.108</ele>
        <time>2016-12-30T17:47:25Z</time>
      </trkpt>
      <trkpt lat="43.37311" lon="-0.18856">
        <ele>341.113</ele>
        <time>2016-12-30T17:47:45Z</time>
      </trkpt>
      <trkpt lat="43.37166" lon="-0.19028">
        <ele>340.066</ele>
        <time>2016-12-30T17:48:05Z</time>
      </trkpt>
      <trkpt lat="43.37127" lon="-0.19048">
        <ele>340.072</ele>
        <time>2016-12-30T17:48:25Z</time>
      </trkpt>
      <trkpt lat="43.3699" lon="-0.19205">
        <ele>340.081</ele>
        <time>2016-12-30T17:48:45Z</time>
      </trkpt>
      <trkpt lat="43.36992" lon="-0.19279">
        <ele>339.028</ele>
        <time>2016-12-30T17:49:05Z</time>
      </trkpt>
      <trkpt lat="43.36892" lon="-0.19376">
        <ele>334.079</ele>
        <time>2016-12-30T17:49:25Z</time>
      </trkpt>
      <trkpt lat="43.36836" lon="-0.19406">
        <ele>327.318</ele>
        <time>2016-12-30T17:49:45Z</time>
      </trkpt>
      <trkpt lat="43.36773" lon="-0.19403">
        <ele>321.289</ele>
        <time>2016-12-30T17:50:05Z</time>
      </trkpt>
      <trkpt lat="43.36693" lon="-0.19321">
        <ele>326.873</ele>
        <time>2016-12-30T17:50:25Z</time>
      </trkpt>
      <trkpt lat="43.36569" lon="-0.19422">
        <ele>314.185</ele>
        <time>2016-12-30T17:50:45Z</time>
      </trkpt>
      <trkpt lat="43.3656" lon="-0.19503">
        <ele>306.313</ele>
        <time>2016-12-30T17:51:05Z</time>
      </trkpt>
      <trkpt lat="43.36487" lon="-0.1965">
        <ele>280.308</ele>
        <time>2016-12-30T17:51:25Z</time>
      </trkpt>
      <trkpt lat="43.36537" lon="-0.19675">
        <ele>284.344</ele>
        <time>2016-12-30T17:51:45Z</time>
      </trkpt>
      <trkpt lat="43.36589" lon="-0.19746">
        <ele>283.297</ele>
        <time>2016-12-30T17:52:05Z</time>
      </trkpt>
      <trkpt lat="43.36633" lon="-0.1979">
        <ele>282.913</ele>
        <time>2016-12-30T17:52:25Z</time>
      </trkpt>
      <trkpt lat="43.36618" lon="-0.1983">
        <ele>279.142</ele>
        <time>2016-12-30T17:52:45Z</time>
      </trkpt>
      <trkpt lat="43.36619" lon="-0.19862">
        <ele>281.729</ele>
        <time>2021-04-18T03:07:10Z</time>
      </trkpt>
      <trkpt lat="43.36695" lon="-0.199">
        <ele>281.25</ele>
        <time>2021-04-18T03:07:30Z</time>
      </trkpt>
      <trkpt lat="43.36683" lon="-0.19951">
        <ele>279.039</ele>
        <time>2016-12-30T17:53:25Z</time>
      </trkpt>
      <trkpt lat="43.36548" lon="-0.20088">
        <ele>279.45</ele>
        <time>2016-12-30T17:53:45Z</time>
      </trkpt>
      <trkpt lat="43.36534" lon="-0.20121">
        <ele>281.172</ele>
        <time>2016-12-30T17:54:05Z</time>
      </trkpt>
      <trkpt lat="43.36494" lon="-0.20092">
        <ele>281.313</ele>
        <time>2016-12-30T17:54:25Z</time>
      </trkpt>
      <trkpt lat="43.3646" lon="-0.20095">
        <ele>281.914</ele>
        <time>2016-12-30T17:54:45Z</time>
      </trkpt>
      <trkpt lat="43.36374" lon="-0.20134">
        <ele>284.508</ele>
        <time>2016-12-30T17:55:05Z</time>
      </trkpt>
      <trkpt lat="43.36338" lon="-0.20167">
        <ele>286.874</ele>
        <time>2016-12-30T17:55:25Z</time>
      </trkpt>
      <trkpt lat="43.3631" lon="-0.20205">
        <ele>289.667</ele>
        <time>2016-12-30T17:55:45Z</time>
      </trkpt>
      <trkpt lat="43.36049" lon="-0.20282">
        <ele>298.063</ele>
        <time>2016-12-30T17:56:05Z</time>
      </trkpt>
      <trkpt lat="43.35919" lon="-0.20413">
        <ele>301.942</ele>
        <time>2016-12-30T17:56:25Z</time>
      </trkpt>
      <trkpt lat="43.35875" lon="-0.2041">
        <ele>301.749</ele>
        <time>2016-12-30T17:56:45Z</time>
      </trkpt>
      <trkpt lat="43.35849" lon="-0.20444">
        <ele>303.08</ele>
        <time>2016-12-30T17:57:05Z</time>
      </trkpt>
      <trkpt lat="43.35824" lon="-0.20532">
        <ele>305.369</ele>
        <time>2016-12-30T17:57:25Z</time>
      </trkpt>
      <trkpt lat="43.35797" lon="-0.20589">
        <ele>307.47</ele>
        <time>2016-12-30T17:57:45Z</time>
      </trkpt>
      <trkpt lat="43.35798" lon="-0.20603">
        <ele>307.875</ele>
        <time>2016-12-30T17:58:05Z</time>
      </trkpt>
      <trkpt lat="43.35733" lon="-0.20676">
        <ele>310.028</ele>
        <time>2016-12-30T17:58:25Z</time>
      </trkpt>
      <trkpt lat="43.35698" lon="-0.20757">
        <ele>310.02</ele>
        <time>2016-12-30T17:58:45Z</time>
      </trkpt>
      <trkpt lat="43.35698" lon="-0.20775">
        <ele>310.008</ele>
        <time>2016-12-30T17:59:05Z</time>
      </trkpt>
      <trkpt lat="43.3566" lon="-0.20926">
        <ele>310.074</ele>
        <time>2016-12-30T17:59:25Z</time>
      </trkpt>
      <trkpt lat="43.3566" lon="-0.2097">
        <ele>309.127</ele>
        <time>2016-12-30T17:59:45Z</time>
      </trkpt>
      <trkpt lat="43.35539" lon="-0.2127">
        <ele>312.053</ele>
        <time>2016-12-30T18:00:05Z</time>
      </trkpt>
      <trkpt lat="43.35468" lon="-0.21149">
        <ele>312.042</ele>
        <time>2016-12-30T18:00:25Z</time>
      </trkpt>
      <trkpt lat="43.35383" lon="-0.2124">
        <ele>312.089</ele>
        <time>2016-12-30T18:00:45Z</time>
      </trkpt>
      <trkpt lat="43.35416" lon="-0.21694">
        <ele>308.17</ele>
        <time>2016-12-30T18:01:05Z</time>
      </trkpt>
      <trkpt lat="43.35373" lon="-0.21701">
        <ele>308.929</ele>
        <time>2016-12-30T18:01:25Z</time>
      </trkpt>
      <trkpt lat="43.35292" lon="-0.21819">
        <ele>304.58</ele>
        <time>2016-12-30T18:01:45Z</time>
      </trkpt>
      <trkpt lat="43.35222" lon="-0.21769">
        <ele>305.678</ele>
        <time>2016-12-30T18:02:05Z</time>
      </trkpt>
      <trkpt lat="43.35109" lon="-0.21635">
        <ele>307.133</ele>
        <time>2016-12-30T18:02:25Z</time>
      </trkpt>
      <trkpt lat="43.35006" lon="-0.21727">
        <ele>304.026</ele>
        <time>2016-12-30T18:02:45Z</time>
      </trkpt>
      <trkpt lat="43.34938" lon="-0.21876">
        <ele>309.208</ele>
        <time>2016-12-30T18:03:05Z</time>
      </trkpt>
      <trkpt lat="43.34853" lon="-0.21953">
        <ele>310.334</ele>
        <time>2016-12-30T18:03:25Z</time>
      </trkpt>
      <trkpt lat="43.3477" lon="-0.22201">
        <ele>309.857</ele>
        <time>2016-12-30T18:03:45Z</time>
      </trkpt>
      <trkpt lat="43.34716" lon="-0.22314">
        <ele>310.013</ele>
        <time>2016-12-30T18:04:05Z</time>
      </trkpt>
      <trkpt lat="43.34648" lon="-0.22296">
        <ele>310.062</ele>
        <time>2016-12-30T18:04:25Z</time>
      </trkpt>
      <trkpt lat="43.34596" lon="-0.22402">
        <ele>310.079</ele>
        <time>2016-12-30T18:04:45Z</time>
      </trkpt>
      <trkpt lat="43.34551" lon="-0.22565">
        <ele>308.69</ele>
        <time>2016-12-30T18:05:05Z</time>
      </trkpt>
      <trkpt lat="43.34533" lon="-0.22687">
        <ele>305.069</ele>
        <time>2016-12-30T18:05:25Z</time>
      </trkpt>
      <trkpt lat="43.34583" lon="-0.22704">
        <ele>305.06</ele>
        <time>2016-12-30T18:05:45Z</time>
      </trkpt>
      <trkpt lat="43.34509" lon="-0.22934">
        <ele>310.021</ele>
        <time>2016-12-30T18:06:05Z</time>
      </trkpt>
      <trkpt lat="43.34655" lon="-0.23039">
        <ele>310.041</ele>
        <time>2016-12-30T18:06:25Z</time>
      </trkpt>
      <trkpt lat="43.3466" lon="-0.23335">
        <ele>307.905</ele>
        <time>2016-12-30T18:06:45Z</time>
      </trkpt>
      <trkpt lat="43.34424" lon="-0.23889">
        <ele>309.708</ele>
        <time>2016-12-30T18:07:05Z</time>
      </trkpt>
      <trkpt lat="43.34607" lon="-0.24076">
        <ele>307.029</ele>
        <time>2016-12-30T18:07:25Z</time>
      </trkpt>
      <trkpt lat="43.34757" lon="-0.24145">
        <ele>305.672</ele>
        <time>2016-12-30T18:07:45Z</time>
      </trkpt>
      <trkpt lat="43.34917" lon="-0.24147">
        <ele>305.028</ele>
        <time>2016-12-30T18:08:05Z</time>
      </trkpt>
      <trkpt lat="43.34935" lon="-0.24175">
        <ele>305.097</ele>
        <time>2016-12-30T18:08:25Z</time>
      </trkpt>
      <trkpt lat="43.34998" lon="-0.24219">
        <ele>305.034</ele>
        <time>2016-12-30T18:08:45Z</time>
      </trkpt>
      <trkpt lat="43.34963" lon="-0.24493">
        <ele>300.145</ele>
        <time>2016-12-30T18:09:05Z</time>
      </trkpt>
      <trkpt lat="43.34907" lon="-0.24694">
        <ele>292.724</ele>
        <time>2016-12-30T18:09:25Z</time>
      </trkpt>
      <trkpt lat="43.3486" lon="-0.24725">
        <ele>290.085</ele>
        <time>2016-12-30T18:09:45Z</time>
      </trkpt>
      <trkpt lat="43.34819" lon="-0.24784">
        <ele>287.858</ele>
        <time>2016-12-30T18:10:05Z</time>
      </trkpt>
      <trkpt lat="43.34803" lon="-0.24833">
        <ele>285.052</ele>
        <time>2016-12-30T18:10:25Z</time>
      </trkpt>
      <trkpt lat="43.34733" lon="-0.24857">
        <ele>283.917</ele>
        <time>2021-04-18T03:25:10Z</time>
      </trkpt>
      <trkpt lat="43.34726" lon="-0.24934">
        <ele>277.408</ele>
        <time>2016-12-30T18:11:05Z</time>
      </trkpt>
      <trkpt lat="43.34683" lon="-0.24956">
        <ele>279.682</ele>
        <time>2021-04-18T03:25:50Z</time>
      </trkpt>
      <trkpt lat="43.3468" lon="-0.25006">
        <ele>278.255</ele>
        <time>2021-04-18T03:26:10Z</time>
      </trkpt>
      <trkpt lat="43.3466" lon="-0.25036">
        <ele>279.691</ele>
        <time>2021-04-18T03:26:30Z</time>
      </trkpt>
      <trkpt lat="43.34613" lon="-0.25019">
        <ele>280.09</ele>
        <time>2021-04-18T03:26:50Z</time>
      </trkpt>
      <trkpt lat="43.34502" lon="-0.25057">
        <ele>282.917</ele>
        <time>2016-12-30T18:12:25Z</time>
      </trkpt>
      <trkpt lat="43.34445" lon="-0.25111">
        <ele>288.068</ele>
        <time>2019-12-05T22:59:38Z</time>
      </trkpt>
      <trkpt lat="43.34387" lon="-0.25199">
        <ele>294.297</ele>
        <time>2019-12-05T22:59:58Z</time>
      </trkpt>
      <trkpt lat="43.34304" lon="-0.25394">
        <ele>296.088</ele>
        <time>2019-12-05T23:00:18Z</time>
      </trkpt>
      <trkpt lat="43.34292" lon="-0.25554">
        <ele>297.559</ele>
        <time>2019-12-05T23:00:38Z</time>
      </trkpt>
      <trkpt lat="43.34292" lon="-0.2587">
        <ele>291.703</ele>
        <time>2019-12-05T23:00:58Z</time>
      </trkpt>
      <trkpt lat="43.34303" lon="-0.2599">
        <ele>290.723</ele>
        <time>2019-12-05T23:01:18Z</time>
      </trkpt>
      <trkpt lat="43.34303" lon="-0.26059">
        <ele>292.108</ele>
        <time>2019-12-05T23:01:38Z</time>
      </trkpt>
      <trkpt lat="43.34483" lon="-0.26373">
        <ele>295.082</ele>
        <time>2019-12-05T23:01:58Z</time>
      </trkpt>
      <trkpt lat="43.34475" lon="-0.26373">
        <ele>295.085</ele>
        <time>2016-12-30T16:46:34Z</time>
      </trkpt>
      <trkpt lat="43.34371" lon="-0.26459">
        <ele>295.04</ele>
        <time>2016-12-30T16:46:54Z</time>
      </trkpt>
      <trkpt lat="43.34182" lon="-0.26723">
        <ele>300.587</ele>
        <time>2016-12-30T16:47:14Z</time>
      </trkpt>
      <trkpt lat="43.34124" lon="-0.268">
        <ele>307.338</ele>
        <time>2016-12-30T16:47:54Z</time>
      </trkpt>
      <trkpt lat="43.33952" lon="-0.26963">
        <ele>324.057</ele>
        <time>2016-12-30T16:48:14Z</time>
      </trkpt>
      <trkpt lat="43.33818" lon="-0.27225">
        <ele>337.328</ele>
        <time>2016-12-30T16:48:34Z</time>
      </trkpt>
      <trkpt lat="43.33845" lon="-0.27277">
        <ele>338.867</ele>
        <time>2016-12-30T16:48:54Z</time>
      </trkpt>
      <trkpt lat="43.33866" lon="-0.2738">
        <ele>340.081</ele>
        <time>2016-12-30T16:49:14Z</time>
      </trkpt>
      <trkpt lat="43.33851" lon="-0.27616">
        <ele>340.019</ele>
        <time>2016-12-30T16:49:34Z</time>
      </trkpt>
      <trkpt lat="43.33954" lon="-0.27633">
        <ele>339.908</ele>
        <time>2016-12-30T16:49:54Z</time>
      </trkpt>
      <trkpt lat="43.33952" lon="-0.27676">
        <ele>340.043</ele>
        <time>2016-12-30T16:50:14Z</time>
      </trkpt>
      <trkpt lat="43.33824" lon="-0.28025">
        <ele>334.476</ele>
        <time>2016-12-30T16:50:34Z</time>
      </trkpt>
      <trkpt lat="43.33793" lon="-0.28242">
        <ele>323.582</ele>
        <time>2016-12-30T16:50:54Z</time>
      </trkpt>
      <trkpt lat="43.33771" lon="-0.28491">
        <ele>306.291</ele>
        <time>2016-12-30T16:51:14Z</time>
      </trkpt>
      <trkpt lat="43.3379" lon="-0.28635">
        <ele>302.328</ele>
        <time>2021-04-18T03:35:10Z</time>
      </trkpt>
      <trkpt lat="43.33852" lon="-0.28852">
        <ele>287.539</ele>
        <time>2016-12-30T16:51:54Z</time>
      </trkpt>
      <trkpt lat="43.33893" lon="-0.2903">
        <ele>274.518</ele>
        <time>2016-12-30T16:52:14Z</time>
      </trkpt>
      <trkpt lat="43.3389" lon="-0.29105">
        <ele>267.729</ele>
        <time>2016-12-30T16:52:34Z</time>
      </trkpt>
      <trkpt lat="43.3386" lon="-0.29143">
        <ele>263.281</ele>
        <time>2016-12-30T16:52:54Z</time>
      </trkpt>
      <trkpt lat="43.33798" lon="-0.29197">
        <ele>255.961</ele>
        <time>2016-12-30T16:53:14Z</time>
      </trkpt>
      <trkpt lat="43.3382" lon="-0.29285">
        <ele>247.017</ele>
        <time>2016-12-30T16:53:34Z</time>
      </trkpt>
      <trkpt lat="43.33778" lon="-0.29309">
        <ele>245.008</ele>
        <time>2016-12-30T16:53:54Z</time>
      </trkpt>
      <trkpt lat="43.33734" lon="-0.29354">
        <ele>245.095</ele>
        <time>2016-12-30T16:54:14Z</time>
      </trkpt>
      <trkpt lat="43.33626" lon="-0.29392">
        <ele>242.548</ele>
        <time>2016-12-30T16:54:34Z</time>
      </trkpt>
      <trkpt lat="43.33406" lon="-0.29555">
        <ele>234.684</ele>
        <time>2016-12-30T16:54:54Z</time>
      </trkpt>
      <trkpt lat="43.33309" lon="-0.2968">
        <ele>232.153</ele>
        <time>2016-12-30T16:55:14Z</time>
      </trkpt>
      <trkpt lat="43.33238" lon="-0.29787">
        <ele>230.49</ele>
        <time>2016-12-30T16:55:34Z</time>
      </trkpt>
      <trkpt lat="43.33231" lon="-0.29821">
        <ele>230.031</ele>
        <time>2016-12-30T16:55:54Z</time>
      </trkpt>
      <trkpt lat="43.33283" lon="-0.29887">
        <ele>234.66</ele>
        <time>2021-04-18T03:39:50Z</time>
      </trkpt>
      <trkpt lat="43.33317" lon="-0.29916">
        <ele>230.441</ele>
        <time>2016-12-30T16:56:14Z</time>
      </trkpt>
      <trkpt lat="43.3335" lon="-0.29922">
        <ele>230.968</ele>
        <time>2016-12-30T16:56:34Z</time>
      </trkpt>
      <trkpt lat="43.33431" lon="-0.29899">
        <ele>232.542</ele>
        <time>2016-12-30T16:56:54Z</time>
      </trkpt>
      <trkpt lat="43.33515" lon="-0.29944">
        <ele>233.026</ele>
        <time>2016-12-30T16:57:14Z</time>
      </trkpt>
      <trkpt lat="43.3356" lon="-0.30001">
        <ele>238.108</ele>
        <time>2021-04-18T03:41:30Z</time>
      </trkpt>
      <trkpt lat="43.33612" lon="-0.30047">
        <ele>233.353</ele>
        <time>2016-12-30T16:57:34Z</time>
      </trkpt>
      <trkpt lat="43.33598" lon="-0.30083">
        <ele>232.566</ele>
        <time>2016-12-30T16:57:54Z</time>
      </trkpt>
      <trkpt lat="43.33643" lon="-0.30203">
        <ele>233.042</ele>
        <time>2016-12-30T16:58:14Z</time>
      </trkpt>
      <trkpt lat="43.33607" lon="-0.30257">
        <ele>231.191</ele>
        <time>2016-12-30T16:58:34Z</time>
      </trkpt>
      <trkpt lat="43.33589" lon="-0.30313">
        <ele>230.298</ele>
        <time>2016-12-30T16:58:54Z</time>
      </trkpt>
      <trkpt lat="43.3359" lon="-0.30403">
        <ele>230.019</ele>
        <time>2016-12-30T16:59:14Z</time>
      </trkpt>
      <trkpt lat="43.33581" lon="-0.30452">
        <ele>230.018</ele>
        <time>2016-12-30T16:59:34Z</time>
      </trkpt>
      <trkpt lat="43.33582" lon="-0.30526">
        <ele>229.139</ele>
        <time>2016-12-30T16:59:54Z</time>
      </trkpt>
      <trkpt lat="43.33568" lon="-0.3061">
        <ele>228.096</ele>
        <time>2016-12-30T17:00:14Z</time>
      </trkpt>
      <trkpt lat="43.33584" lon="-0.30702">
        <ele>227.031</ele>
        <time>2016-12-30T17:00:34Z</time>
      </trkpt>
      <trkpt lat="43.3364" lon="-0.30876">
        <ele>226.024</ele>
        <time>2016-12-30T17:00:54Z</time>
      </trkpt>
      <trkpt lat="43.33568" lon="-0.30887">
        <ele>225.008</ele>
        <time>2016-12-30T17:01:14Z</time>
      </trkpt>
      <trkpt lat="43.33501" lon="-0.30921">
        <ele>225.286</ele>
        <time>2016-12-30T17:01:34Z</time>
      </trkpt>
      <trkpt lat="43.33509" lon="-0.31">
        <ele>226.089</ele>
        <time>2016-12-30T17:01:54Z</time>
      </trkpt>
      <trkpt lat="43.33398" lon="-0.31157">
        <ele>228.085</ele>
        <time>2016-12-30T17:02:14Z</time>
      </trkpt>
      <trkpt lat="43.3351" lon="-0.31355">
        <ele>227.694</ele>
        <time>2016-12-30T17:02:34Z</time>
      </trkpt>
      <trkpt lat="43.33911" lon="-0.31908">
        <ele>222.251</ele>
        <time>2016-12-30T17:02:54Z</time>
      </trkpt>
      <trkpt lat="43.3389" lon="-0.31966">
        <ele>222.242</ele>
        <time>2016-12-30T17:03:14Z</time>
      </trkpt>
      <trkpt lat="43.33961" lon="-0.31966">
        <ele>221.051</ele>
        <time>2016-12-30T17:03:34Z</time>
      </trkpt>
      <trkpt lat="43.34222" lon="-0.32333">
        <ele>220.092</ele>
        <time>2016-12-30T17:03:54Z</time>
      </trkpt>
      <trkpt lat="43.34912" lon="-0.33668">
        <ele>214.297</ele>
        <time>2016-12-30T17:04:14Z</time>
      </trkpt>
      <trkpt lat="43.34798" lon="-0.33775">
        <ele>215.023</ele>
        <time>2016-12-30T17:04:34Z</time>
      </trkpt>
      <trkpt lat="43.3472" lon="-0.33631">
        <ele>215.025</ele>
        <time>2016-12-30T17:04:54Z</time>
      </trkpt>
      <trkpt lat="43.34007" lon="-0.34071">
        <ele>215.008</ele>
        <time>2016-12-30T17:05:14Z</time>
      </trkpt>
      <trkpt lat="43.33861" lon="-0.33876">
        <ele>217.056</ele>
        <time>2016-12-30T17:05:34Z</time>
      </trkpt>
      <trkpt lat="43.33512" lon="-0.34013">
        <ele>220.069</ele>
        <time>2016-12-30T17:05:54Z</time>
      </trkpt>
      <trkpt lat="43.33655" lon="-0.34419">
        <ele>218.025</ele>
        <time>2016-12-30T17:06:14Z</time>
      </trkpt>
      <trkpt lat="43.33808" lon="-0.34753">
        <ele>214.014</ele>
        <time>2016-12-30T17:06:34Z</time>
      </trkpt>
      <trkpt lat="43.34264" lon="-0.35854">
        <ele>210.021</ele>
        <time>2016-12-30T17:06:54Z</time>
      </trkpt>
      <trkpt lat="43.34042" lon="-0.36013">
        <ele>210.822</ele>
        <time>2016-12-30T17:07:14Z</time>
      </trkpt>
      <trkpt lat="43.34241" lon="-0.36473">
        <ele>217.551</ele>
        <time>2021-04-18T03:51:50Z</time>
      </trkpt>
      <trkpt lat="43.34099" lon="-0.36611">
        <ele>216.072</ele>
        <time>2021-04-18T03:52:10Z</time>
      </trkpt>
      <trkpt lat="43.33934" lon="-0.36703">
        <ele>214.235</ele>
        <time>2021-04-18T03:52:30Z</time>
      </trkpt>
      <trkpt lat="43.33933" lon="-0.3674">
        <ele>208.786</ele>
        <time>2016-12-30T17:08:34Z</time>
      </trkpt>
      <trkpt lat="43.33858" lon="-0.36781">
        <ele>207.914</ele>
        <time>2016-12-30T17:08:54Z</time>
      </trkpt>
      <trkpt lat="43.33801" lon="-0.36766">
        <ele>208.008</ele>
        <time>2016-12-30T17:09:14Z</time>
      </trkpt>
      <trkpt lat="43.33732" lon="-0.36801">
        <ele>208.14</ele>
        <time>2016-12-30T17:09:34Z</time>
      </trkpt>
      <trkpt lat="43.33693" lon="-0.36725">
        <ele>210.093</ele>
        <time>2016-12-30T17:09:54Z</time>
      </trkpt>
      <trkpt lat="43.33654" lon="-0.36682">
        <ele>210.089</ele>
        <time>2016-12-30T17:10:14Z</time>
      </trkpt>
      <trkpt lat="43.33565" lon="-0.36652">
        <ele>210.058</ele>
        <time>2016-12-30T17:10:34Z</time>
      </trkpt>
      <trkpt lat="43.33487" lon="-0.3667">
        <ele>210.045</ele>
        <time>2016-12-30T17:10:54Z</time>
      </trkpt>
      <trkpt lat="43.33415" lon="-0.36734">
        <ele>210.066</ele>
        <time>2016-12-30T17:11:14Z</time>
      </trkpt>
      <trkpt lat="43.33376" lon="-0.36813">
        <ele>210.075</ele>
        <time>2016-12-30T17:11:34Z</time>
      </trkpt>
      <trkpt lat="43.33359" lon="-0.36888">
        <ele>210.036</ele>
        <time>2016-12-30T17:11:54Z</time>
      </trkpt>
      <trkpt lat="43.33304" lon="-0.36921">
        <ele>210.019</ele>
        <time>2016-12-30T17:12:14Z</time>
      </trkpt>
      <trkpt lat="43.33545" lon="-0.37979">
        <ele>205.009</ele>
        <time>2016-12-30T17:12:34Z</time>
      </trkpt>
      <trkpt lat="43.33586" lon="-0.38411">
        <ele>203.019</ele>
        <time>2016-12-30T17:13:34Z</time>
      </trkpt>
      <trkpt lat="43.33576" lon="-0.38511">
        <ele>202.008</ele>
        <time>2016-12-30T17:13:54Z</time>
      </trkpt>
      <trkpt lat="43.33609" lon="-0.38601">
        <ele>201.978</ele>
        <time>2016-12-30T17:14:14Z</time>
      </trkpt>
      <trkpt lat="43.33652" lon="-0.38963">
        <ele>199.661</ele>
        <time>2016-12-30T17:14:34Z</time>
      </trkpt>
      <trkpt lat="43.33684" lon="-0.39077">
        <ele>199.667</ele>
        <time>2016-12-30T17:14:54Z</time>
      </trkpt>
      <trkpt lat="43.33757" lon="-0.39238">
        <ele>200.036</ele>
        <time>2016-12-30T17:15:14Z</time>
      </trkpt>
      <trkpt lat="43.33857" lon="-0.39506">
        <ele>200.043</ele>
        <time>2016-12-30T17:15:34Z</time>
      </trkpt>
      <trkpt lat="43.33593" lon="-0.39637">
        <ele>193.084</ele>
        <time>2016-12-30T17:15:54Z</time>
      </trkpt>
      <trkpt lat="43.3363" lon="-0.40781">
        <ele>187.373</ele>
        <time>2016-12-30T17:16:14Z</time>
      </trkpt>
      <trkpt lat="43.33601" lon="-0.40802">
        <ele>188.444</ele>
        <time>2016-12-30T17:16:34Z</time>
      </trkpt>
      <trkpt lat="43.33534" lon="-0.4092">
        <ele>190.034</ele>
        <time>2016-12-30T17:16:54Z</time>
      </trkpt>
      <trkpt lat="43.33537" lon="-0.41161">
        <ele>190.055</ele>
        <time>2016-12-30T17:17:14Z</time>
      </trkpt>
      <trkpt lat="43.33521" lon="-0.41227">
        <ele>190.01</ele>
        <time>2016-12-30T17:17:34Z</time>
      </trkpt>
      <trkpt lat="43.33535" lon="-0.41332">
        <ele>190.008</ele>
        <time>2016-12-30T17:17:54Z</time>
      </trkpt>
      <trkpt lat="43.33542" lon="-0.41556">
        <ele>189.58</ele>
        <time>2016-12-30T17:18:14Z</time>
      </trkpt>
      <trkpt lat="43.33501" lon="-0.41566">
        <ele>189.633</ele>
        <time>2016-12-30T17:18:34Z</time>
      </trkpt>
      <trkpt lat="43.3341" lon="-0.42006">
        <ele>185.569</ele>
        <time>2016-12-30T17:18:54Z</time>
      </trkpt>
      <trkpt lat="43.33382" lon="-0.42231">
        <ele>183.088</ele>
        <time>2016-12-30T17:19:14Z</time>
      </trkpt>
      <trkpt lat="43.33375" lon="-0.42358">
        <ele>182.035</ele>
        <time>2016-12-30T17:19:34Z</time>
      </trkpt>
      <trkpt lat="43.33385" lon="-0.4244">
        <ele>182.086</ele>
        <time>2016-12-30T17:19:54Z</time>
      </trkpt>
      <trkpt lat="43.33418" lon="-0.42566">
        <ele>182.195</ele>
        <time>2016-12-30T17:20:14Z</time>
      </trkpt>
      <trkpt lat="43.33415" lon="-0.42598">
        <ele>181.976</ele>
        <time>2016-12-30T17:20:34Z</time>
      </trkpt>
      <trkpt lat="43.3344" lon="-0.42639">
        <ele>182.788</ele>
        <time>2016-12-30T17:20:54Z</time>
      </trkpt>
      <trkpt lat="43.33459" lon="-0.42729">
        <ele>182.524</ele>
        <time>2016-12-30T17:21:14Z</time>
      </trkpt>
      <trkpt lat="43.33471" lon="-0.42927">
        <ele>182.026</ele>
        <time>2016-12-30T17:21:34Z</time>
      </trkpt>
      <trkpt lat="43.33409" lon="-0.42952">
        <ele>178.608</ele>
        <time>2016-12-30T17:21:54Z</time>
      </trkpt>
      <trkpt lat="43.33419" lon="-0.43003">
        <ele>183.065</ele>
        <time>2021-04-18T04:05:50Z</time>
      </trkpt>
      <trkpt lat="43.33367" lon="-0.43024">
        <ele>182.578</ele>
        <time>2021-04-18T04:06:10Z</time>
      </trkpt>
      <trkpt lat="43.33377" lon="-0.43093">
        <ele>181.694</ele>
        <time>2021-04-18T04:06:30Z</time>
      </trkpt>
      <trkpt lat="43.33379" lon="-0.43159">
        <ele>182.333</ele>
        <time>2021-04-18T04:06:50Z</time>
      </trkpt>
      <trkpt lat="43.33395" lon="-0.43193">
        <ele>181.05</ele>
        <time>2021-04-18T04:07:10Z</time>
      </trkpt>
      <trkpt lat="43.33397" lon="-0.43232">
        <ele>179.871</ele>
        <time>2021-04-18T04:07:30Z</time>
      </trkpt>
      <trkpt lat="43.33381" lon="-0.43187">
        <ele>181.88</ele>
        <time>2021-04-18T04:07:50Z</time>
      </trkpt>
      <trkpt lat="43.3334" lon="-0.43156">
        <ele>183.481</ele>
        <time>2021-04-18T04:08:10Z</time>
      </trkpt>
      <trkpt lat="43.33302" lon="-0.43115">
        <ele>182.483</ele>
        <time>2021-04-18T04:08:30Z</time>
      </trkpt>
      <trkpt lat="43.33256" lon="-0.43112">
        <ele>182.625</ele>
        <time>2021-04-18T04:08:50Z</time>
      </trkpt>
      <trkpt lat="43.33235" lon="-0.43117">
        <ele>182.017</ele>
        <time>2021-04-18T04:09:10Z</time>
      </trkpt>
      <trkpt lat="43.33238" lon="-0.43135">
        <ele>182.408</ele>
        <time>2021-04-18T04:09:30Z</time>
      </trkpt>
      <trkpt lat="43.33223" lon="-0.43148">
        <ele>181.645</ele>
        <time>2021-04-18T04:09:50Z</time>
      </trkpt>
      <trkpt lat="43.332" lon="-0.43155">
        <ele>179.828</ele>
        <time>2021-04-18T04:10:10Z</time>
      </trkpt>
      <trkpt lat="43.33178" lon="-0.43175">
        <ele>177.874</ele>
        <time>2021-04-18T04:10:30Z</time>
      </trkpt>
      <trkpt lat="43.33197" lon="-0.43216">
        <ele>179.393</ele>
        <time>2016-12-30T17:25:34Z</time>
      </trkpt>
      <trkpt lat="43.33232" lon="-0.4327">
        <ele>179.77</ele>
        <time>2016-12-30T17:25:54Z</time>
      </trkpt>
      <trkpt lat="43.3329" lon="-0.43387">
        <ele>178.011</ele>
        <time>2021-04-18T04:11:30Z</time>
      </trkpt>
      <trkpt lat="43.33306" lon="-0.43392">
        <ele>178.83</ele>
        <time>2021-04-18T04:11:50Z</time>
      </trkpt>
      <trkpt lat="43.33333" lon="-0.43372">
        <ele>181.631</ele>
        <time>2021-04-18T04:12:10Z</time>
      </trkpt>
      <trkpt lat="43.33328" lon="-0.43446">
        <ele>176.919</ele>
        <time>2021-04-18T04:12:30Z</time>
      </trkpt>
      <trkpt lat="43.33296" lon="-0.43519">
        <ele>168.809</ele>
        <time>2016-12-30T17:26:34Z</time>
      </trkpt>
      <trkpt lat="43.33263" lon="-0.43623">
        <ele>161.819</ele>
        <time>2021-04-18T04:13:10Z</time>
      </trkpt>
      <trkpt lat="43.33244" lon="-0.43664">
        <ele>160.808</ele>
        <time>2021-04-18T04:13:30Z</time>
      </trkpt>
      <trkpt lat="43.33287" lon="-0.43753">
        <ele>157.248</ele>
        <time>2016-12-30T17:27:34Z</time>
      </trkpt>
      <trkpt lat="43.3327" lon="-0.43779">
        <ele>155.791</ele>
        <time>2016-12-30T17:27:54Z</time>
      </trkpt>
      <trkpt lat="43.33281" lon="-0.43937">
        <ele>154.177</ele>
        <time>2016-12-30T17:28:14Z</time>
      </trkpt>
      <trkpt lat="43.33264" lon="-0.44023">
        <ele>154.046</ele>
        <time>2016-12-30T17:28:34Z</time>
      </trkpt>
      <trkpt lat="43.33303" lon="-0.44182">
        <ele>154.063</ele>
        <time>2016-12-30T17:28:54Z</time>
      </trkpt>
      <trkpt lat="43.33323" lon="-0.44369">
        <ele>152.794</ele>
        <time>2016-12-30T17:29:14Z</time>
      </trkpt>
      <trkpt lat="43.33354" lon="-0.44525">
        <ele>151.013</ele>
        <time>2016-12-30T17:29:34Z</time>
      </trkpt>
      <trkpt lat="43.33337" lon="-0.4483">
        <ele>149.164</ele>
        <time>2016-12-30T17:29:54Z</time>
      </trkpt>
      <trkpt lat="43.3334" lon="-0.45102">
        <ele>149.237</ele>
        <time>2016-12-30T17:30:14Z</time>
      </trkpt>
      <trkpt lat="43.33328" lon="-0.45246">
        <ele>148.049</ele>
        <time>2016-12-30T17:30:34Z</time>
      </trkpt>
      <trkpt lat="43.33273" lon="-0.45545">
        <ele>147.013</ele>
        <time>2016-12-30T17:30:54Z</time>
      </trkpt>
      <trkpt lat="43.33251" lon="-0.45605">
        <ele>146.008</ele>
        <time>2016-12-30T17:31:14Z</time>
      </trkpt>
      <trkpt lat="43.33232" lon="-0.45894">
        <ele>145.02</ele>
        <time>2016-12-30T17:31:34Z</time>
      </trkpt>
      <trkpt lat="43.33192" lon="-0.45965">
        <ele>145.053</ele>
        <time>2016-12-30T17:31:54Z</time>
      </trkpt>
      <trkpt lat="43.33117" lon="-0.46023">
        <ele>145.089</ele>
        <time>2016-12-30T17:32:14Z</time>
      </trkpt>
      <trkpt lat="43.33067" lon="-0.46051">
        <ele>145.018</ele>
        <time>2016-12-30T17:32:34Z</time>
      </trkpt>
      <trkpt lat="43.33048" lon="-0.46098">
        <ele>145.015</ele>
        <time>2016-12-30T17:32:54Z</time>
      </trkpt>
      <trkpt lat="43.3305" lon="-0.46162">
        <ele>145.086</ele>
        <time>2016-12-30T17:33:14Z</time>
      </trkpt>
      <trkpt lat="43.33105" lon="-0.46227">
        <ele>146.475</ele>
        <time>2021-04-18T04:19:50Z</time>
      </trkpt>
      <trkpt lat="43.33156" lon="-0.4627">
        <ele>145.026</ele>
        <time>2016-12-30T17:33:54Z</time>
      </trkpt>
      <trkpt lat="43.33203" lon="-0.46353">
        <ele>145.049</ele>
        <time>2016-12-30T17:34:14Z</time>
      </trkpt>
      <trkpt lat="43.33178" lon="-0.46444">
        <ele>145.002</ele>
        <time>2016-12-30T17:34:34Z</time>
      </trkpt>
      <trkpt lat="43.33184" lon="-0.46502">
        <ele>145.022</ele>
        <time>2016-12-30T17:34:54Z</time>
      </trkpt>
      <trkpt lat="43.3322" lon="-0.46568">
        <ele>145.008</ele>
        <time>2016-12-30T17:35:14Z</time>
      </trkpt>
      <trkpt lat="43.33247" lon="-0.46459">
        <ele>145.061</ele>
        <time>2016-12-30T17:35:34Z</time>
      </trkpt>
      <trkpt lat="43.33014" lon="-0.46635">
        <ele>145.034</ele>
        <time>2016-12-30T17:35:54Z</time>
      </trkpt>
      <trkpt lat="43.33072" lon="-0.46652">
        <ele>145.08</ele>
        <time>2016-12-30T17:36:14Z</time>
      </trkpt>
      <trkpt lat="43.33053" lon="-0.46708">
        <ele>145.039</ele>
        <time>2016-12-30T17:36:34Z</time>
      </trkpt>
      <trkpt lat="43.32989" lon="-0.46759">
        <ele>145.026</ele>
        <time>2016-12-30T17:36:54Z</time>
      </trkpt>
      <trkpt lat="43.32942" lon="-0.46834">
        <ele>145.077</ele>
        <time>2016-12-30T17:37:14Z</time>
      </trkpt>
      <trkpt lat="43.3288" lon="-0.46883">
        <ele>145.096</ele>
        <time>2016-12-30T17:37:34Z</time>
      </trkpt>
      <trkpt lat="43.32836" lon="-0.46971">
        <ele>145.097</ele>
        <time>2016-12-30T17:37:54Z</time>
      </trkpt>
      <trkpt lat="43.32809" lon="-0.47051">
        <ele>145.052</ele>
        <time>2016-12-30T17:38:14Z</time>
      </trkpt>
      <trkpt lat="43.3282" lon="-0.4715">
        <ele>145.053</ele>
        <time>2016-12-30T17:38:34Z</time>
      </trkpt>
      <trkpt lat="43.32811" lon="-0.47231">
        <ele>144.708</ele>
        <time>2016-12-30T17:38:54Z</time>
      </trkpt>
      <trkpt lat="43.32841" lon="-0.47446">
        <ele>143.008</ele>
        <time>2016-12-30T17:39:14Z</time>
      </trkpt>
      <trkpt lat="43.32875" lon="-0.4751">
        <ele>143.012</ele>
        <time>2016-12-30T17:39:34Z</time>
      </trkpt>
      <trkpt lat="43.32842" lon="-0.47538">
        <ele>143.025</ele>
        <time>2016-12-30T17:39:54Z</time>
      </trkpt>
      <trkpt lat="43.32806" lon="-0.47555">
        <ele>143.041</ele>
        <time>2016-12-30T17:40:14Z</time>
      </trkpt>
      <trkpt lat="43.32789" lon="-0.47574">
        <ele>143.08</ele>
        <time>2016-12-30T17:40:34Z</time>
      </trkpt>
      <trkpt lat="43.32763" lon="-0.47587">
        <ele>146.057</ele>
        <time>2021-04-18T04:27:10Z</time>
      </trkpt>
      <trkpt lat="43.32703" lon="-0.47576">
        <ele>144.468</ele>
        <time>2021-04-18T04:27:30Z</time>
      </trkpt>
      <trkpt lat="43.32673" lon="-0.47548">
        <ele>144.057</ele>
        <time>2021-04-18T04:27:50Z</time>
      </trkpt>
      <trkpt lat="43.32519" lon="-0.47639">
        <ele>143.378</ele>
        <time>2016-12-30T17:42:34Z</time>
      </trkpt>
      <trkpt lat="43.3244" lon="-0.47716">
        <ele>144.093</ele>
        <time>2016-12-30T17:42:54Z</time>
      </trkpt>
      <trkpt lat="43.3239" lon="-0.47682">
        <ele>144.065</ele>
        <time>2016-12-30T17:43:14Z</time>
      </trkpt>
      <trkpt lat="43.32332" lon="-0.47712">
        <ele>144.021</ele>
        <time>2016-12-30T17:43:34Z</time>
      </trkpt>
      <trkpt lat="43.32277" lon="-0.47785">
        <ele>146.008</ele>
        <time>2016-12-30T17:43:54Z</time>
      </trkpt>
      <trkpt lat="43.32212" lon="-0.47662">
        <ele>148.356</ele>
        <time>2016-12-30T17:44:14Z</time>
      </trkpt>
      <trkpt lat="43.32134" lon="-0.47585">
        <ele>149.279</ele>
        <time>2016-12-30T17:44:34Z</time>
      </trkpt>
      <trkpt lat="43.3212" lon="-0.47603">
        <ele>149.965</ele>
        <time>2021-04-18T04:30:30Z</time>
      </trkpt>
      <trkpt lat="43.32028" lon="-0.47577">
        <ele>151.614</ele>
        <time>2021-04-18T04:30:50Z</time>
      </trkpt>
      <trkpt lat="43.31992" lon="-0.47542">
        <ele>151.471</ele>
        <time>2021-04-18T04:31:10Z</time>
      </trkpt>
      <trkpt lat="43.31968" lon="-0.47534">
        <ele>150.982</ele>
        <time>2021-04-18T04:31:30Z</time>
      </trkpt>
      <trkpt lat="43.31895" lon="-0.47568">
        <ele>150.131</ele>
        <time>2021-04-18T04:31:50Z</time>
      </trkpt>
      <trkpt lat="43.31865" lon="-0.47571">
        <ele>150.112</ele>
        <time>2021-04-18T04:32:10Z</time>
      </trkpt>
      <trkpt lat="43.31848" lon="-0.47563">
        <ele>150.246</ele>
        <time>2021-04-18T04:32:30Z</time>
      </trkpt>
      <trkpt lat="43.31837" lon="-0.47553">
        <ele>150.488</ele>
        <time>2021-04-18T04:32:50Z</time>
      </trkpt>
      <trkpt lat="43.31778" lon="-0.47619">
        <ele>150.916</ele>
        <time>2021-04-18T04:33:10Z</time>
      </trkpt>
      <trkpt lat="43.31765" lon="-0.47615">
        <ele>151.308</ele>
        <time>2021-04-18T04:33:30Z</time>
      </trkpt>
      <trkpt lat="43.31677" lon="-0.47536">
        <ele>152.561</ele>
        <time>2021-04-18T04:33:50Z</time>
      </trkpt>
      <trkpt lat="43.31626" lon="-0.47587">
        <ele>153.914</ele>
        <time>2021-04-18T04:34:10Z</time>
      </trkpt>
      <trkpt lat="43.31566" lon="-0.47671">
        <ele>153.55</ele>
        <time>2021-04-18T04:34:30Z</time>
      </trkpt>
      <trkpt lat="43.31521" lon="-0.47722">
        <ele>156.629</ele>
        <time>2021-04-18T04:34:50Z</time>
      </trkpt>
      <trkpt lat="43.31481" lon="-0.47757">
        <ele>159.176</ele>
        <time>2021-04-18T04:35:10Z</time>
      </trkpt>
      <trkpt lat="43.31455" lon="-0.47772">
        <ele>150.627</ele>
        <time>2016-12-30T17:49:14Z</time>
      </trkpt>
      <trkpt lat="43.31316" lon="-0.47778">
        <ele>162.316</ele>
        <time>2021-04-18T04:35:50Z</time>
      </trkpt>
      <trkpt lat="43.31254" lon="-0.47845">
        <ele>166.767</ele>
        <time>2016-12-30T17:49:54Z</time>
      </trkpt>
      <trkpt lat="43.312" lon="-0.47939">
        <ele>171.122</ele>
        <time>2016-12-30T17:50:14Z</time>
      </trkpt>
      <trkpt lat="43.31144" lon="-0.47997">
        <ele>174.762</ele>
        <time>2016-12-30T17:50:34Z</time>
      </trkpt>
      <trkpt lat="43.31043" lon="-0.48059">
        <ele>195.308</ele>
        <time>2016-12-30T17:50:54Z</time>
      </trkpt>
      <trkpt lat="43.31008" lon="-0.48126">
        <ele>203.608</ele>
        <time>2016-12-30T17:51:14Z</time>
      </trkpt>
      <trkpt lat="43.30933" lon="-0.48189">
        <ele>221.579</ele>
        <time>2016-12-30T17:51:34Z</time>
      </trkpt>
      <trkpt lat="43.30885" lon="-0.48221">
        <ele>234.182</ele>
        <time>2016-12-30T17:51:54Z</time>
      </trkpt>
      <trkpt lat="43.30853" lon="-0.48265">
        <ele>241.548</ele>
        <time>2016-12-30T17:52:14Z</time>
      </trkpt>
      <trkpt lat="43.30805" lon="-0.48358">
        <ele>251.967</ele>
        <time>2016-12-30T17:52:34Z</time>
      </trkpt>
      <trkpt lat="43.30804" lon="-0.48534">
        <ele>265.984</ele>
        <time>2016-12-30T17:52:54Z</time>
      </trkpt>
      <trkpt lat="43.30784" lon="-0.48621">
        <ele>269.865</ele>
        <time>2016-12-30T17:53:14Z</time>
      </trkpt>
      <trkpt lat="43.3075" lon="-0.48863">
        <ele>273.714</ele>
        <time>2016-12-30T17:53:34Z</time>
      </trkpt>
      <trkpt lat="43.3071" lon="-0.48881">
        <ele>270.645</ele>
        <time>2016-12-30T17:53:54Z</time>
      </trkpt>
      <trkpt lat="43.30324" lon="-0.48901">
        <ele>284.082</ele>
        <time>2016-12-30T17:54:14Z</time>
      </trkpt>
      <trkpt lat="43.30273" lon="-0.48884">
        <ele>284.943</ele>
        <time>2016-12-30T17:54:34Z</time>
      </trkpt>
      <trkpt lat="43.3009" lon="-0.48748">
        <ele>279.617</ele>
        <time>2016-12-30T17:54:54Z</time>
      </trkpt>
      <trkpt lat="43.30013" lon="-0.48778">
        <ele>276.108</ele>
        <time>2016-12-30T17:55:14Z</time>
      </trkpt>
      <trkpt lat="43.29962" lon="-0.48837">
        <ele>276.485</ele>
        <time>2016-12-30T17:55:34Z</time>
      </trkpt>
      <trkpt lat="43.29946" lon="-0.48878">
        <ele>279.978</ele>
        <time>2016-12-30T17:55:54Z</time>
      </trkpt>
      <trkpt lat="43.29954" lon="-0.48928">
        <ele>279.394</ele>
        <time>2016-12-30T17:56:14Z</time>
      </trkpt>
      <trkpt lat="43.29982" lon="-0.49014">
        <ele>283.243</ele>
        <time>2016-12-30T17:56:34Z</time>
      </trkpt>
      <trkpt lat="43.29978" lon="-0.49075">
        <ele>281.38</ele>
        <time>2016-12-30T17:56:54Z</time>
      </trkpt>
      <trkpt lat="43.29894" lon="-0.49277">
        <ele>272.961</ele>
        <time>2016-12-30T17:57:14Z</time>
      </trkpt>
      <trkpt lat="43.29884" lon="-0.49421">
        <ele>258.61</ele>
        <time>2016-12-30T17:57:34Z</time>
      </trkpt>
      <trkpt lat="43.29874" lon="-0.49546">
        <ele>246.011</ele>
        <time>2016-12-30T17:57:54Z</time>
      </trkpt>
      <trkpt lat="43.29857" lon="-0.49676">
        <ele>236.283</ele>
        <time>2016-12-30T17:58:14Z</time>
      </trkpt>
      <trkpt lat="43.29871" lon="-0.49704">
        <ele>233.425</ele>
        <time>2016-12-30T17:58:34Z</time>
      </trkpt>
      <trkpt lat="43.29903" lon="-0.49711">
        <ele>229.317</ele>
        <time>2016-12-30T17:58:54Z</time>
      </trkpt>
      <trkpt lat="43.29933" lon="-0.49767">
        <ele>221.908</ele>
        <time>2016-12-30T17:59:14Z</time>
      </trkpt>
      <trkpt lat="43.29989" lon="-0.49811">
        <ele>213.765</ele>
        <time>2016-12-30T17:59:34Z</time>
      </trkpt>
      <trkpt lat="43.3003" lon="-0.49826">
        <ele>205.998</ele>
        <time>2016-12-30T17:59:54Z</time>
      </trkpt>
      <trkpt lat="43.3011" lon="-0.49778">
        <ele>192.234</ele>
        <time>2016-12-30T18:00:14Z</time>
      </trkpt>
      <trkpt lat="43.30136" lon="-0.49805">
        <ele>184.773</ele>
        <time>2016-12-30T18:00:34Z</time>
      </trkpt>
      <trkpt lat="43.3014" lon="-0.4991">
        <ele>179.08</ele>
        <time>2016-12-30T18:00:54Z</time>
      </trkpt>
      <trkpt lat="43.30155" lon="-0.49952">
        <ele>173.751</ele>
        <time>2016-12-30T18:01:14Z</time>
      </trkpt>
      <trkpt lat="43.30138" lon="-0.50053">
        <ele>170.41</ele>
        <time>2016-12-30T18:01:34Z</time>
      </trkpt>
      <trkpt lat="43.30169" lon="-0.50068">
        <ele>162.721</ele>
        <time>2016-12-30T18:01:54Z</time>
      </trkpt>
      <trkpt lat="43.3017" lon="-0.50169">
        <ele>155.653</ele>
        <time>2016-12-30T18:02:14Z</time>
      </trkpt>
      <trkpt lat="43.30156" lon="-0.50359">
        <ele>147.704</ele>
        <time>2016-12-30T18:02:34Z</time>
      </trkpt>
      <trkpt lat="43.30095" lon="-0.50303">
        <ele>149.014</ele>
        <time>2016-12-30T18:02:54Z</time>
      </trkpt>
      <trkpt lat="43.30062" lon="-0.50256">
        <ele>150.708</ele>
        <time>2016-12-30T18:03:14Z</time>
      </trkpt>
      <trkpt lat="43.30019" lon="-0.50224">
        <ele>150.932</ele>
        <time>2016-12-30T18:03:34Z</time>
      </trkpt>
      <trkpt lat="43.29859" lon="-0.50176">
        <ele>149.485</ele>
        <time>2016-12-30T18:03:54Z</time>
      </trkpt>
      <trkpt lat="43.2985" lon="-0.50195">
        <ele>148.071</ele>
        <time>2016-12-30T18:04:14Z</time>
      </trkpt>
      <trkpt lat="43.29807" lon="-0.50176">
        <ele>149.42</ele>
        <time>2016-12-30T18:04:34Z</time>
      </trkpt>
      <trkpt lat="43.29722" lon="-0.50166">
        <ele>150.117</ele>
        <time>2016-12-30T18:04:54Z</time>
      </trkpt>
      <trkpt lat="43.29669" lon="-0.50202">
        <ele>147.738</ele>
        <time>2016-12-30T18:05:14Z</time>
      </trkpt>
      <trkpt lat="43.29625" lon="-0.50215">
        <ele>149.257</ele>
        <time>2016-12-30T18:05:34Z</time>
      </trkpt>
      <trkpt lat="43.29587" lon="-0.5026">
        <ele>149.248</ele>
        <time>2016-12-30T18:05:54Z</time>
      </trkpt>
      <trkpt lat="43.29496" lon="-0.50267">
        <ele>144.473</ele>
        <time>2016-12-30T18:06:14Z</time>
      </trkpt>
      <trkpt lat="43.29427" lon="-0.50306">
        <ele>144.085</ele>
        <time>2016-12-30T18:06:34Z</time>
      </trkpt>
      <trkpt lat="43.2921" lon="-0.50323">
        <ele>145.313</ele>
        <time>2016-12-30T18:06:54Z</time>
      </trkpt>
      <trkpt lat="43.29173" lon="-0.5031">
        <ele>144.408</ele>
        <time>2016-12-30T18:07:14Z</time>
      </trkpt>
      <trkpt lat="43.29129" lon="-0.50412">
        <ele>142.284</ele>
        <time>2016-12-30T18:07:34Z</time>
      </trkpt>
      <trkpt lat="43.29129" lon="-0.50442">
        <ele>142.027</ele>
        <time>2016-12-30T18:07:54Z</time>
      </trkpt>
      <trkpt lat="43.29094" lon="-0.50503">
        <ele>141.043</ele>
        <time>2016-12-30T18:08:14Z</time>
      </trkpt>
      <trkpt lat="43.29016" lon="-0.50471">
        <ele>140.682</ele>
        <time>2016-12-30T18:08:34Z</time>
      </trkpt>
      <trkpt lat="43.29015" lon="-0.50506">
        <ele>140.099</ele>
        <time>2016-12-30T18:08:54Z</time>
      </trkpt>
      <trkpt lat="43.2903" lon="-0.50623">
        <ele>140.06</ele>
        <time>2016-12-30T18:09:14Z</time>
      </trkpt>
      <trkpt lat="43.2905" lon="-0.5067">
        <ele>140.179</ele>
        <time>2016-12-30T18:09:34Z</time>
      </trkpt>
      <trkpt lat="43.29078" lon="-0.50853">
        <ele>142.89</ele>
        <time>2016-12-30T18:09:54Z</time>
      </trkpt>
      <trkpt lat="43.28928" lon="-0.50965">
        <ele>147.924</ele>
        <time>2016-12-30T18:10:14Z</time>
      </trkpt>
      <trkpt lat="43.28765" lon="-0.50979">
        <ele>150.204</ele>
        <time>2016-12-30T18:10:34Z</time>
      </trkpt>
      <trkpt lat="43.28692" lon="-0.50963">
        <ele>150.814</ele>
        <time>2016-12-30T18:10:54Z</time>
      </trkpt>
      <trkpt lat="43.28628" lon="-0.50974">
        <ele>152.408</ele>
        <time>2016-12-30T18:11:14Z</time>
      </trkpt>
      <trkpt lat="43.28545" lon="-0.50972">
        <ele>152.399</ele>
        <time>2016-12-30T18:11:34Z</time>
      </trkpt>
      <trkpt lat="43.28521" lon="-0.50978">
        <ele>151.242</ele>
        <time>2016-12-30T18:11:54Z</time>
      </trkpt>
      <trkpt lat="43.28561" lon="-0.50918">
        <ele>152.088</ele>
        <time>2016-12-30T18:12:14Z</time>
      </trkpt>
      <trkpt lat="43.28582" lon="-0.50732">
        <ele>147.327</ele>
        <time>2016-12-30T18:12:34Z</time>
      </trkpt>
      <trkpt lat="43.28461" lon="-0.50635">
        <ele>146.464</ele>
        <time>2016-12-30T18:12:54Z</time>
      </trkpt>
      <trkpt lat="43.2841" lon="-0.50619">
        <ele>147.575</ele>
        <time>2016-12-30T18:13:14Z</time>
      </trkpt>
      <trkpt lat="43.28395" lon="-0.50455">
        <ele>148.494</ele>
        <time>2021-04-18T04:59:50Z</time>
      </trkpt>
      <trkpt lat="43.28381" lon="-0.50401">
        <ele>144.065</ele>
        <time>2016-12-30T18:13:54Z</time>
      </trkpt>
      <trkpt lat="43.2831" lon="-0.50447">
        <ele>144.171</ele>
        <time>2016-12-30T18:14:14Z</time>
      </trkpt>
      <trkpt lat="43.28189" lon="-0.50467">
        <ele>144.841</ele>
        <time>2016-12-30T18:14:34Z</time>
      </trkpt>
      <trkpt lat="43.28146" lon="-0.50495">
        <ele>145.615</ele>
        <time>2016-12-30T18:14:54Z</time>
      </trkpt>
      <trkpt lat="43.28107" lon="-0.50576">
        <ele>147.808</ele>
        <time>2016-12-30T18:15:14Z</time>
      </trkpt>
      <trkpt lat="43.27975" lon="-0.50674">
        <ele>150.214</ele>
        <time>2016-12-30T18:15:34Z</time>
      </trkpt>
      <trkpt lat="43.2794" lon="-0.50695">
        <ele>150.967</ele>
        <time>2016-12-30T18:15:54Z</time>
      </trkpt>
      <trkpt lat="43.27903" lon="-0.50797">
        <ele>152.773</ele>
        <time>2016-12-30T18:16:14Z</time>
      </trkpt>
      <trkpt lat="43.27858" lon="-0.50798">
        <ele>158.452</ele>
        <time>2021-04-18T05:02:50Z</time>
      </trkpt>
      <trkpt lat="43.27842" lon="-0.50802">
        <ele>153.119</ele>
        <time>2016-12-30T18:16:54Z</time>
      </trkpt>
      <trkpt lat="43.27806" lon="-0.50782">
        <ele>152.15</ele>
        <time>2016-12-30T18:17:14Z</time>
      </trkpt>
      <trkpt lat="43.27771" lon="-0.50843">
        <ele>156.659</ele>
        <time>2016-12-30T18:17:34Z</time>
      </trkpt>
      <trkpt lat="43.27737" lon="-0.5085">
        <ele>158.69</ele>
        <time>2016-12-30T18:17:54Z</time>
      </trkpt>
      <trkpt lat="43.27718" lon="-0.50906">
        <ele>160.893</ele>
        <time>2016-12-30T18:18:14Z</time>
      </trkpt>
      <trkpt lat="43.2767" lon="-0.5093">
        <ele>162.465</ele>
        <time>2016-12-30T18:18:34Z</time>
      </trkpt>
      <trkpt lat="43.2764" lon="-0.50979">
        <ele>168.321</ele>
        <time>2021-04-18T05:05:10Z</time>
      </trkpt>
      <trkpt lat="43.27556" lon="-0.50909">
        <ele>164.608</ele>
        <time>2021-04-18T05:05:30Z</time>
      </trkpt>
      <trkpt lat="43.27453" lon="-0.50869">
        <ele>162.116</ele>
        <time>2016-12-30T18:19:34Z</time>
      </trkpt>
      <trkpt lat="43.27423" lon="-0.50848">
        <ele>164.129</ele>
        <time>2016-12-30T18:19:54Z</time>
      </trkpt>
      <trkpt lat="43.27278" lon="-0.51015">
        <ele>176.095</ele>
        <time>2016-12-30T18:20:14Z</time>
      </trkpt>
      <trkpt lat="43.27229" lon="-0.51042">
        <ele>177.624</ele>
        <time>2016-12-30T18:20:34Z</time>
      </trkpt>
      <trkpt lat="43.27192" lon="-0.5112">
        <ele>177.281</ele>
        <time>2016-12-30T18:20:54Z</time>
      </trkpt>
      <trkpt lat="43.27088" lon="-0.51066">
        <ele>162.262</ele>
        <time>2016-12-30T18:21:14Z</time>
      </trkpt>
      <trkpt lat="43.27033" lon="-0.51222">
        <ele>169.341</ele>
        <time>2016-12-30T18:21:34Z</time>
      </trkpt>
      <trkpt lat="43.27036" lon="-0.51264">
        <ele>172.232</ele>
        <time>2016-12-30T18:21:54Z</time>
      </trkpt>
      <trkpt lat="43.27004" lon="-0.51348">
        <ele>173.883</ele>
        <time>2016-12-30T18:22:14Z</time>
      </trkpt>
      <trkpt lat="43.2696" lon="-0.5138">
        <ele>170.425</ele>
        <time>2016-12-30T18:23:14Z</time>
      </trkpt>
      <trkpt lat="43.26916" lon="-0.5142">
        <ele>176.017</ele>
        <time>2016-12-30T18:23:34Z</time>
      </trkpt>
      <trkpt lat="43.26825" lon="-0.5143">
        <ele>182.708</ele>
        <time>2016-12-30T18:23:54Z</time>
      </trkpt>
      <trkpt lat="43.26768" lon="-0.51458">
        <ele>184.875</ele>
        <time>2016-12-30T18:24:14Z</time>
      </trkpt>
      <trkpt lat="43.26697" lon="-0.5146">
        <ele>205.938</ele>
        <time>2021-04-18T05:10:10Z</time>
      </trkpt>
      <trkpt lat="43.2662" lon="-0.51414">
        <ele>206.894</ele>
        <time>2021-04-18T05:10:30Z</time>
      </trkpt>
      <trkpt lat="43.26542" lon="-0.51393">
        <ele>212.163</ele>
        <time>2021-04-18T05:10:50Z</time>
      </trkpt>
      <trkpt lat="43.26532" lon="-0.5141">
        <ele>211.28</ele>
        <time>2021-04-18T05:11:10Z</time>
      </trkpt>
      <trkpt lat="43.2654" lon="-0.51437">
        <ele>213.171</ele>
        <time>2021-04-18T05:11:30Z</time>
      </trkpt>
      <trkpt lat="43.26541" lon="-0.51485">
        <ele>219.26</ele>
        <time>2021-04-18T05:11:50Z</time>
      </trkpt>
      <trkpt lat="43.26508" lon="-0.51566">
        <ele>234.961</ele>
        <time>2021-04-18T05:12:10Z</time>
      </trkpt>
      <trkpt lat="43.26456" lon="-0.51605">
        <ele>250.579</ele>
        <time>2021-04-18T05:12:30Z</time>
      </trkpt>
      <trkpt lat="43.26414" lon="-0.51609">
        <ele>259.705</ele>
        <time>2021-04-18T05:12:50Z</time>
      </trkpt>
      <trkpt lat="43.26427" lon="-0.51659">
        <ele>269.225</ele>
        <time>2021-04-18T05:13:10Z</time>
      </trkpt>
      <trkpt lat="43.26413" lon="-0.51673">
        <ele>274.408</ele>
        <time>2021-04-18T05:13:30Z</time>
      </trkpt>
      <trkpt lat="43.26419" lon="-0.51758">
        <ele>276.984</ele>
        <time>2021-04-18T05:13:50Z</time>
      </trkpt>
      <trkpt lat="43.2643" lon="-0.51783">
        <ele>273.827</ele>
        <time>2021-04-18T05:14:10Z</time>
      </trkpt>
      <trkpt lat="43.26418" lon="-0.51811">
        <ele>272.273</ele>
        <time>2021-04-18T05:14:30Z</time>
      </trkpt>
      <trkpt lat="43.26467" lon="-0.51907">
        <ele>259.452</ele>
        <time>2021-04-18T05:14:50Z</time>
      </trkpt>
      <trkpt lat="43.26357" lon="-0.51957">
        <ele>230.699</ele>
        <time>2016-12-30T18:29:14Z</time>
      </trkpt>
      <trkpt lat="43.26337" lon="-0.52039">
        <ele>230.01</ele>
        <time>2016-12-30T18:29:34Z</time>
      </trkpt>
      <trkpt lat="43.26332" lon="-0.52086">
        <ele>230.399</ele>
        <time>2016-12-30T18:29:54Z</time>
      </trkpt>
      <trkpt lat="43.26278" lon="-0.52095">
        <ele>230.07</ele>
        <time>2016-12-30T18:30:14Z</time>
      </trkpt>
      <trkpt lat="43.26203" lon="-0.52126">
        <ele>232.749</ele>
        <time>2016-12-30T18:30:34Z</time>
      </trkpt>
      <trkpt lat="43.26163" lon="-0.52162">
        <ele>235.402</ele>
        <time>2016-12-30T18:30:54Z</time>
      </trkpt>
      <trkpt lat="43.26145" lon="-0.522">
        <ele>235.222</ele>
        <time>2016-12-30T18:31:14Z</time>
      </trkpt>
      <trkpt lat="43.26043" lon="-0.52341">
        <ele>243.408</ele>
        <time>2016-12-30T18:31:34Z</time>
      </trkpt>
      <trkpt lat="43.26017" lon="-0.52359">
        <ele>244.041</ele>
        <time>2016-12-30T18:31:54Z</time>
      </trkpt>
      <trkpt lat="43.25946" lon="-0.52463">
        <ele>245.094</ele>
        <time>2016-12-30T18:32:14Z</time>
      </trkpt>
      <trkpt lat="43.25945" lon="-0.52497">
        <ele>245.99</ele>
        <time>2016-12-30T18:32:34Z</time>
      </trkpt>
      <trkpt lat="43.25922" lon="-0.52569">
        <ele>253.779</ele>
        <time>2016-12-30T18:32:54Z</time>
      </trkpt>
      <trkpt lat="43.25925" lon="-0.52607">
        <ele>259.136</ele>
        <time>2016-12-30T18:33:14Z</time>
      </trkpt>
      <trkpt lat="43.2585" lon="-0.52724">
        <ele>290.347</ele>
        <time>2016-12-30T18:33:34Z</time>
      </trkpt>
      <trkpt lat="43.25829" lon="-0.52789">
        <ele>295.246</ele>
        <time>2016-12-30T18:33:54Z</time>
      </trkpt>
      <trkpt lat="43.25818" lon="-0.52855">
        <ele>297.987</ele>
        <time>2016-12-30T18:34:14Z</time>
      </trkpt>
      <trkpt lat="43.25823" lon="-0.529">
        <ele>300.997</ele>
        <time>2016-12-30T18:34:34Z</time>
      </trkpt>
      <trkpt lat="43.25808" lon="-0.52988">
        <ele>312.123</ele>
        <time>2016-12-30T18:34:54Z</time>
      </trkpt>
      <trkpt lat="43.25745" lon="-0.53097">
        <ele>315.425</ele>
        <time>2016-12-30T18:35:14Z</time>
      </trkpt>
      <trkpt lat="43.2571" lon="-0.53115">
        <ele>311.708</ele>
        <time>2016-12-30T18:35:34Z</time>
      </trkpt>
      <trkpt lat="43.2564" lon="-0.53103">
        <ele>314.956</ele>
        <time>2016-12-30T18:35:54Z</time>
      </trkpt>
      <trkpt lat="43.25619" lon="-0.53117">
        <ele>315.669</ele>
        <time>2016-12-30T18:36:14Z</time>
      </trkpt>
      <trkpt lat="43.25578" lon="-0.53121">
        <ele>318.425</ele>
        <time>2016-12-30T18:36:34Z</time>
      </trkpt>
      <trkpt lat="43.25446" lon="-0.53277">
        <ele>311.914</ele>
        <time>2016-12-30T18:36:54Z</time>
      </trkpt>
      <trkpt lat="43.25343" lon="-0.53256">
        <ele>307.271</ele>
        <time>2016-12-30T18:37:14Z</time>
      </trkpt>
      <trkpt lat="43.25295" lon="-0.53323">
        <ele>300.962</ele>
        <time>2016-12-30T18:37:34Z</time>
      </trkpt>
      <trkpt lat="43.25259" lon="-0.53539">
        <ele>283.491</ele>
        <time>2016-12-30T18:37:54Z</time>
      </trkpt>
      <trkpt lat="43.2525" lon="-0.53626">
        <ele>280.512</ele>
        <time>2016-12-30T18:38:14Z</time>
      </trkpt>
      <trkpt lat="43.25232" lon="-0.53732">
        <ele>276.381</ele>
        <time>2016-12-30T18:38:34Z</time>
      </trkpt>
      <trkpt lat="43.25193" lon="-0.53813">
        <ele>263.461</ele>
        <time>2016-12-30T18:38:54Z</time>
      </trkpt>
      <trkpt lat="43.25102" lon="-0.53784">
        <ele>244.217</ele>
        <time>2016-12-30T18:39:14Z</time>
      </trkpt>
      <trkpt lat="43.25084" lon="-0.53739">
        <ele>237.408</ele>
        <time>2016-12-30T18:39:34Z</time>
      </trkpt>
      <trkpt lat="43.25103" lon="-0.5371">
        <ele>242.635</ele>
        <time>2016-12-30T18:39:54Z</time>
      </trkpt>
      <trkpt lat="43.25107" lon="-0.53625">
        <ele>232.768</ele>
        <time>2016-12-30T18:40:14Z</time>
      </trkpt>
      <trkpt lat="43.25097" lon="-0.53628">
        <ele>230.794</ele>
        <time>2016-12-30T18:40:34Z</time>
      </trkpt>
      <trkpt lat="43.25041" lon="-0.53694">
        <ele>218.323</ele>
        <time>2016-12-30T18:40:54Z</time>
      </trkpt>
      <trkpt lat="43.24902" lon="-0.53864">
        <ele>204.18</ele>
        <time>2016-12-30T18:41:14Z</time>
      </trkpt>
      <trkpt lat="43.24877" lon="-0.53847">
        <ele>204.761</ele>
        <time>2016-12-30T18:41:34Z</time>
      </trkpt>
      <trkpt lat="43.24808" lon="-0.53872">
        <ele>206.03</ele>
        <time>2016-12-30T18:41:54Z</time>
      </trkpt>
      <trkpt lat="43.24775" lon="-0.53936">
        <ele>208.951</ele>
        <time>2016-12-30T18:42:14Z</time>
      </trkpt>
      <trkpt lat="43.24727" lon="-0.53946">
        <ele>212.721</ele>
        <time>2016-12-30T18:42:34Z</time>
      </trkpt>
      <trkpt lat="43.24575" lon="-0.53917">
        <ele>223.641</ele>
        <time>2016-12-30T18:42:54Z</time>
      </trkpt>
      <trkpt lat="43.24389" lon="-0.53969">
        <ele>244.905</ele>
        <time>2016-12-30T18:43:14Z</time>
      </trkpt>
      <trkpt lat="43.24321" lon="-0.53935">
        <ele>262.008</ele>
        <time>2016-12-30T18:43:34Z</time>
      </trkpt>
      <trkpt lat="43.24315" lon="-0.53909">
        <ele>268.899</ele>
        <time>2016-12-30T18:43:54Z</time>
      </trkpt>
      <trkpt lat="43.24336" lon="-0.53846">
        <ele>279.182</ele>
        <time>2016-12-30T18:44:14Z</time>
      </trkpt>
      <trkpt lat="43.24326" lon="-0.53798">
        <ele>284.928</ele>
        <time>2016-12-30T18:44:34Z</time>
      </trkpt>
      <trkpt lat="43.2429" lon="-0.53778">
        <ele>293.477</ele>
        <time>2016-12-30T18:44:54Z</time>
      </trkpt>
      <trkpt lat="43.24274" lon="-0.5376">
        <ele>295.694</ele>
        <time>2016-12-30T18:45:14Z</time>
      </trkpt>
      <trkpt lat="43.24244" lon="-0.53756">
        <ele>302.185</ele>
        <time>2016-12-30T18:45:34Z</time>
      </trkpt>
      <trkpt lat="43.24217" lon="-0.53741">
        <ele>304.834</ele>
        <time>2016-12-30T18:45:54Z</time>
      </trkpt>
      <trkpt lat="43.24184" lon="-0.53743">
        <ele>307.755</ele>
        <time>2016-12-30T18:46:14Z</time>
      </trkpt>
      <trkpt lat="43.24155" lon="-0.53798">
        <ele>310.099</ele>
        <time>2016-12-30T18:46:34Z</time>
      </trkpt>
      <trkpt lat="43.24059" lon="-0.53747">
        <ele>310.007</ele>
        <time>2016-12-30T18:46:54Z</time>
      </trkpt>
      <trkpt lat="43.24006" lon="-0.53746">
        <ele>310.027</ele>
        <time>2016-12-30T18:47:14Z</time>
      </trkpt>
      <trkpt lat="43.23968" lon="-0.53765">
        <ele>310.008</ele>
        <time>2016-12-30T18:47:34Z</time>
      </trkpt>
      <trkpt lat="43.23854" lon="-0.53726">
        <ele>320.066</ele>
        <time>2016-12-30T18:47:54Z</time>
      </trkpt>
      <trkpt lat="43.23825" lon="-0.53727">
        <ele>319.319</ele>
        <time>2016-12-30T18:48:14Z</time>
      </trkpt>
      <trkpt lat="43.23768" lon="-0.53701">
        <ele>316.645</ele>
        <time>2016-12-30T18:48:34Z</time>
      </trkpt>
      <trkpt lat="43.23621" lon="-0.53706">
        <ele>319.784</ele>
        <time>2016-12-30T18:48:54Z</time>
      </trkpt>
      <trkpt lat="43.23584" lon="-0.53689">
        <ele>318.221</ele>
        <time>2016-12-30T18:49:14Z</time>
      </trkpt>
      <trkpt lat="43.2355" lon="-0.5369">
        <ele>315.282</ele>
        <time>2016-12-30T18:49:34Z</time>
      </trkpt>
      <trkpt lat="43.23544" lon="-0.53672">
        <ele>315.931</ele>
        <time>2016-12-30T18:49:54Z</time>
      </trkpt>
      <trkpt lat="43.23291" lon="-0.53694">
        <ele>320.872</ele>
        <time>2016-12-30T18:50:14Z</time>
      </trkpt>
      <trkpt lat="43.23197" lon="-0.53684">
        <ele>310.986</ele>
        <time>2016-12-30T18:50:34Z</time>
      </trkpt>
      <trkpt lat="43.2314" lon="-0.53735">
        <ele>314.96</ele>
        <time>2016-12-30T18:50:54Z</time>
      </trkpt>
      <trkpt lat="43.22999" lon="-0.53782">
        <ele>321.726</ele>
        <time>2016-12-30T18:51:14Z</time>
      </trkpt>
      <trkpt lat="43.22931" lon="-0.53765">
        <ele>323.008</ele>
        <time>2016-12-30T18:51:34Z</time>
      </trkpt>
      <trkpt lat="43.22897" lon="-0.53778">
        <ele>322.995</ele>
        <time>2016-12-30T18:51:54Z</time>
      </trkpt>
      <trkpt lat="43.22821" lon="-0.53881">
        <ele>324.118</ele>
        <time>2016-12-30T18:52:14Z</time>
      </trkpt>
      <trkpt lat="43.22691" lon="-0.54005">
        <ele>315.954</ele>
        <time>2016-12-30T18:52:34Z</time>
      </trkpt>
      <trkpt lat="43.22486" lon="-0.54154">
        <ele>328.873</ele>
        <time>2016-12-30T18:52:54Z</time>
      </trkpt>
      <trkpt lat="43.2243" lon="-0.54205">
        <ele>330.49</ele>
        <time>2016-12-30T18:53:14Z</time>
      </trkpt>
      <trkpt lat="43.22459" lon="-0.54238">
        <ele>338.591</ele>
        <time>2016-12-30T18:53:34Z</time>
      </trkpt>
      <trkpt lat="43.22472" lon="-0.54304">
        <ele>344.06</ele>
        <time>2016-12-30T18:53:54Z</time>
      </trkpt>
      <trkpt lat="43.22475" lon="-0.54376">
        <ele>347.931</ele>
        <time>2016-12-30T18:54:14Z</time>
      </trkpt>
      <trkpt lat="43.225" lon="-0.54447">
        <ele>348.055</ele>
        <time>2016-12-30T18:54:34Z</time>
      </trkpt>
      <trkpt lat="43.22496" lon="-0.54539">
        <ele>345.707</ele>
        <time>2016-12-30T18:54:54Z</time>
      </trkpt>
      <trkpt lat="43.22511" lon="-0.54704">
        <ele>336.117</ele>
        <time>2016-12-30T18:55:14Z</time>
      </trkpt>
      <trkpt lat="43.22493" lon="-0.549">
        <ele>330.708</ele>
        <time>2016-12-30T18:55:34Z</time>
      </trkpt>
      <trkpt lat="43.22538" lon="-0.55012">
        <ele>334.572</ele>
        <time>2016-12-30T18:55:54Z</time>
      </trkpt>
      <trkpt lat="43.22537" lon="-0.55133">
        <ele>340.915</ele>
        <time>2016-12-30T18:56:14Z</time>
      </trkpt>
      <trkpt lat="43.22554" lon="-0.55196">
        <ele>343.571</ele>
        <time>2016-12-30T18:56:34Z</time>
      </trkpt>
      <trkpt lat="43.22582" lon="-0.55247">
        <ele>346.08</ele>
        <time>2016-12-30T18:56:54Z</time>
      </trkpt>
      <trkpt lat="43.22594" lon="-0.55305">
        <ele>346.327</ele>
        <time>2016-12-30T18:57:14Z</time>
      </trkpt>
      <trkpt lat="43.22601" lon="-0.55367">
        <ele>354.118</ele>
        <time>2016-12-30T18:57:34Z</time>
      </trkpt>
      <trkpt lat="43.22636" lon="-0.55437">
        <ele>359.887</ele>
        <time>2016-12-30T18:57:54Z</time>
      </trkpt>
      <trkpt lat="43.22683" lon="-0.55501">
        <ele>360.058</ele>
        <time>2016-12-30T18:58:14Z</time>
      </trkpt>
      <trkpt lat="43.22759" lon="-0.55693">
        <ele>355.055</ele>
        <time>2016-12-30T18:58:34Z</time>
      </trkpt>
      <trkpt lat="43.22742" lon="-0.55776">
        <ele>350.107</ele>
        <time>2016-12-30T18:58:54Z</time>
      </trkpt>
      <trkpt lat="43.22744" lon="-0.55818">
        <ele>343.317</ele>
        <time>2016-12-30T18:59:14Z</time>
      </trkpt>
      <trkpt lat="43.22707" lon="-0.55813">
        <ele>336.008</ele>
        <time>2016-12-30T18:59:34Z</time>
      </trkpt>
      <trkpt lat="43.22645" lon="-0.55789">
        <ele>327.762</ele>
        <time>2016-12-30T18:59:54Z</time>
      </trkpt>
      <trkpt lat="43.22596" lon="-0.55781">
        <ele>317.545</ele>
        <time>2016-12-30T19:00:14Z</time>
      </trkpt>
      <trkpt lat="43.22553" lon="-0.55773">
        <ele>312.371</ele>
        <time>2016-12-30T19:00:34Z</time>
      </trkpt>
      <trkpt lat="43.22587" lon="-0.55845">
        <ele>302.17</ele>
        <time>2016-12-30T19:00:54Z</time>
      </trkpt>
      <trkpt lat="43.22556" lon="-0.55847">
        <ele>295.637</ele>
        <time>2016-12-30T19:01:14Z</time>
      </trkpt>
      <trkpt lat="43.22516" lon="-0.55887">
        <ele>286.058</ele>
        <time>2016-12-30T19:01:34Z</time>
      </trkpt>
      <trkpt lat="43.22521" lon="-0.55939">
        <ele>284.497</ele>
        <time>2016-12-30T19:01:54Z</time>
      </trkpt>
      <trkpt lat="43.22554" lon="-0.5599">
        <ele>285.368</ele>
        <time>2016-12-30T19:02:14Z</time>
      </trkpt>
      <trkpt lat="43.22585" lon="-0.56027">
        <ele>281.127</ele>
        <time>2016-12-30T19:02:34Z</time>
      </trkpt>
      <trkpt lat="43.22575" lon="-0.56078">
        <ele>276.668</ele>
        <time>2016-12-30T19:02:54Z</time>
      </trkpt>
      <trkpt lat="43.22575" lon="-0.56179">
        <ele>269.614</ele>
        <time>2016-12-30T19:03:14Z</time>
      </trkpt>
      <trkpt lat="43.2255" lon="-0.56225">
        <ele>264.908</ele>
        <time>2016-12-30T19:03:34Z</time>
      </trkpt>
      <trkpt lat="43.22523" lon="-0.56292">
        <ele>257.119</ele>
        <time>2016-12-30T19:03:54Z</time>
      </trkpt>
      <trkpt lat="43.22532" lon="-0.56315">
        <ele>256.932</ele>
        <time>2016-12-30T19:04:14Z</time>
      </trkpt>
      <trkpt lat="43.22493" lon="-0.56311">
        <ele>251.638</ele>
        <time>2016-12-30T19:04:34Z</time>
      </trkpt>
      <trkpt lat="43.22465" lon="-0.56261">
        <ele>249.197</ele>
        <time>2016-12-30T19:04:54Z</time>
      </trkpt>
      <trkpt lat="43.22389" lon="-0.56259">
        <ele>242.134</ele>
        <time>2016-12-30T19:05:14Z</time>
      </trkpt>
      <trkpt lat="43.22344" lon="-0.56244">
        <ele>243.425</ele>
        <time>2016-12-30T19:05:34Z</time>
      </trkpt>
      <trkpt lat="43.222" lon="-0.56454">
        <ele>240.064</ele>
        <time>2016-12-30T19:05:54Z</time>
      </trkpt>
      <trkpt lat="43.22189" lon="-0.56499">
        <ele>240.095</ele>
        <time>2016-12-30T19:06:14Z</time>
      </trkpt>
      <trkpt lat="43.22119" lon="-0.5655">
        <ele>242.389</ele>
        <time>2016-12-30T19:06:34Z</time>
      </trkpt>
      <trkpt lat="43.22197" lon="-0.56603">
        <ele>241.606</ele>
        <time>2016-12-30T19:06:54Z</time>
      </trkpt>
      <trkpt lat="43.22232" lon="-0.56665">
        <ele>240.726</ele>
        <time>2016-12-30T19:07:14Z</time>
      </trkpt>
      <trkpt lat="43.22252" lon="-0.56735">
        <ele>239.008</ele>
        <time>2016-12-30T19:07:34Z</time>
      </trkpt>
      <trkpt lat="43.2226" lon="-0.56809">
        <ele>239.135</ele>
        <time>2016-12-30T19:07:54Z</time>
      </trkpt>
      <trkpt lat="43.22275" lon="-0.56841">
        <ele>239.198</ele>
        <time>2016-12-30T19:08:14Z</time>
      </trkpt>
      <trkpt lat="43.22273" lon="-0.56906">
        <ele>241.684</ele>
        <time>2016-12-30T19:08:34Z</time>
      </trkpt>
      <trkpt lat="43.22309" lon="-0.56999">
        <ele>241.633</ele>
        <time>2016-12-30T19:08:54Z</time>
      </trkpt>
      <trkpt lat="43.22341" lon="-0.57048">
        <ele>239.54</ele>
        <time>2016-12-30T19:09:14Z</time>
      </trkpt>
      <trkpt lat="43.22356" lon="-0.57119">
        <ele>244.931</ele>
        <time>2016-12-30T19:09:34Z</time>
      </trkpt>
      <trkpt lat="43.22329" lon="-0.572">
        <ele>255.86</ele>
        <time>2016-12-30T19:09:54Z</time>
      </trkpt>
      <trkpt lat="43.22271" lon="-0.57262">
        <ele>268.481</ele>
        <time>2016-12-30T19:10:14Z</time>
      </trkpt>
      <trkpt lat="43.22217" lon="-0.57286">
        <ele>280.296</ele>
        <time>2016-12-30T19:10:34Z</time>
      </trkpt>
      <trkpt lat="43.22177" lon="-0.57278">
        <ele>285.231</ele>
        <time>2016-12-30T19:10:54Z</time>
      </trkpt>
      <trkpt lat="43.22084" lon="-0.57229">
        <ele>294.624</ele>
        <time>2016-12-30T19:11:14Z</time>
      </trkpt>
      <trkpt lat="43.21999" lon="-0.57349">
        <ele>319.308</ele>
        <time>2016-12-30T19:11:34Z</time>
      </trkpt>
      <trkpt lat="43.21932" lon="-0.57295">
        <ele>323.066</ele>
        <time>2016-12-30T19:11:54Z</time>
      </trkpt>
      <trkpt lat="43.21879" lon="-0.57228">
        <ele>320.199</ele>
        <time>2016-12-30T19:12:14Z</time>
      </trkpt>
      <trkpt lat="43.21771" lon="-0.57262">
        <ele>336.715</ele>
        <time>2016-12-30T19:12:34Z</time>
      </trkpt>
      <trkpt lat="43.21722" lon="-0.57265">
        <ele>343.724</ele>
        <time>2016-12-30T19:12:54Z</time>
      </trkpt>
      <trkpt lat="43.21642" lon="-0.57072">
        <ele>340.731</ele>
        <time>2016-12-30T19:13:14Z</time>
      </trkpt>
      <trkpt lat="43.21568" lon="-0.5705">
        <ele>345.072</ele>
        <time>2016-12-30T19:13:34Z</time>
      </trkpt>
      <trkpt lat="43.2154" lon="-0.57094">
        <ele>343.721</ele>
        <time>2016-12-30T19:13:54Z</time>
      </trkpt>
      <trkpt lat="43.21529" lon="-0.57193">
        <ele>334.352</ele>
        <time>2016-12-30T19:14:14Z</time>
      </trkpt>
      <trkpt lat="43.2145" lon="-0.57203">
        <ele>313.263</ele>
        <time>2016-12-30T19:14:34Z</time>
      </trkpt>
      <trkpt lat="43.2136" lon="-0.57379">
        <ele>291.644</ele>
        <time>2016-12-30T19:14:54Z</time>
      </trkpt>
      <trkpt lat="43.21249" lon="-0.57406">
        <ele>284.218</ele>
        <time>2016-12-30T19:15:14Z</time>
      </trkpt>
      <trkpt lat="43.2115" lon="-0.5746">
        <ele>272.508</ele>
        <time>2016-12-30T19:15:34Z</time>
      </trkpt>
      <trkpt lat="43.21066" lon="-0.57515">
        <ele>262.783</ele>
        <time>2016-12-30T19:15:54Z</time>
      </trkpt>
      <trkpt lat="43.21049" lon="-0.57573">
        <ele>258.076</ele>
        <time>2016-12-30T19:16:14Z</time>
      </trkpt>
      <trkpt lat="43.2106" lon="-0.57614">
        <ele>255.052</ele>
        <time>2016-12-30T19:16:34Z</time>
      </trkpt>
      <trkpt lat="43.21094" lon="-0.57664">
        <ele>249.871</ele>
        <time>2016-12-30T19:16:54Z</time>
      </trkpt>
      <trkpt lat="43.21116" lon="-0.57742">
        <ele>245.938</ele>
        <time>2016-12-30T19:17:14Z</time>
      </trkpt>
      <trkpt lat="43.21139" lon="-0.5779">
        <ele>246.619</ele>
        <time>2016-12-30T19:17:34Z</time>
      </trkpt>
      <trkpt lat="43.2114" lon="-0.5782">
        <ele>245.738</ele>
        <time>2016-12-30T19:17:54Z</time>
      </trkpt>
      <trkpt lat="43.2108" lon="-0.57801">
        <ele>246.249</ele>
        <time>2016-12-30T19:18:14Z</time>
      </trkpt>
      <trkpt lat="43.20992" lon="-0.57811">
        <ele>257.119</ele>
        <time>2016-12-30T19:18:34Z</time>
      </trkpt>
      <trkpt lat="43.20869" lon="-0.57808">
        <ele>273.209</ele>
        <time>2016-12-30T19:18:54Z</time>
      </trkpt>
      <trkpt lat="43.20792" lon="-0.5786">
        <ele>282.519</ele>
        <time>2016-12-30T19:19:14Z</time>
      </trkpt>
      <trkpt lat="43.20812" lon="-0.57909">
        <ele>283.708</ele>
        <time>2016-12-30T19:19:34Z</time>
      </trkpt>
      <trkpt lat="43.20876" lon="-0.57926">
        <ele>285.038</ele>
        <time>2016-12-30T19:19:54Z</time>
      </trkpt>
      <trkpt lat="43.20888" lon="-0.57956">
        <ele>285.011</ele>
        <time>2016-12-30T19:20:14Z</time>
      </trkpt>
      <trkpt lat="43.20895" lon="-0.58056">
        <ele>284.697</ele>
        <time>2016-12-30T19:20:34Z</time>
      </trkpt>
      <trkpt lat="43.20858" lon="-0.58136">
        <ele>288.326</ele>
        <time>2016-12-30T19:20:54Z</time>
      </trkpt>
      <trkpt lat="43.20844" lon="-0.58254">
        <ele>291.463</ele>
        <time>2016-12-30T19:21:14Z</time>
      </trkpt>
      <trkpt lat="43.20854" lon="-0.58358">
        <ele>305.954</ele>
        <time>2021-04-18T06:07:30Z</time>
      </trkpt>
      <trkpt lat="43.20829" lon="-0.58434">
        <ele>313.333</ele>
        <time>2021-04-18T06:07:50Z</time>
      </trkpt>
      <trkpt lat="43.20791" lon="-0.58456">
        <ele>312.884</ele>
        <time>2021-04-18T06:08:10Z</time>
      </trkpt>
      <trkpt lat="43.20776" lon="-0.58488">
        <ele>313.073</ele>
        <time>2021-04-18T06:08:30Z</time>
      </trkpt>
      <trkpt lat="43.20747" lon="-0.58492">
        <ele>300.685</ele>
        <time>2016-12-30T19:23:14Z</time>
      </trkpt>
      <trkpt lat="43.20697" lon="-0.58454">
        <ele>292.813</ele>
        <time>2016-12-30T19:23:34Z</time>
      </trkpt>
      <trkpt lat="43.20705" lon="-0.58422">
        <ele>292.908</ele>
        <time>2016-12-30T19:23:54Z</time>
      </trkpt>
      <trkpt lat="43.20679" lon="-0.58395">
        <ele>289.494</ele>
        <time>2016-12-30T19:24:14Z</time>
      </trkpt>
      <trkpt lat="43.20646" lon="-0.58404">
        <ele>285.097</ele>
        <time>2016-12-30T19:24:34Z</time>
      </trkpt>
      <trkpt lat="43.20633" lon="-0.58331">
        <ele>279.543</ele>
        <time>2016-12-30T19:24:54Z</time>
      </trkpt>
      <trkpt lat="43.20621" lon="-0.58299">
        <ele>285.412</ele>
        <time>2021-04-18T06:10:50Z</time>
      </trkpt>
      <trkpt lat="43.20575" lon="-0.58272">
        <ele>265.669</ele>
        <time>2016-12-30T19:25:34Z</time>
      </trkpt>
      <trkpt lat="43.20555" lon="-0.58245">
        <ele>260.46</ele>
        <time>2016-12-30T19:25:54Z</time>
      </trkpt>
      <trkpt lat="43.20541" lon="-0.58275">
        <ele>269.189</ele>
        <time>2021-04-18T06:11:50Z</time>
      </trkpt>
      <trkpt lat="43.20528" lon="-0.58365">
        <ele>268.12</ele>
        <time>2021-04-18T06:12:10Z</time>
      </trkpt>
      <trkpt lat="43.20533" lon="-0.58425">
        <ele>257.987</ele>
        <time>2016-12-30T19:26:34Z</time>
      </trkpt>
      <trkpt lat="43.2055" lon="-0.58555">
        <ele>259.942</ele>
        <time>2016-12-30T19:26:54Z</time>
      </trkpt>
      <trkpt lat="43.20586" lon="-0.58571">
        <ele>272.126</ele>
        <time>2021-04-18T06:13:10Z</time>
      </trkpt>
      <trkpt lat="43.20581" lon="-0.58591">
        <ele>270.108</ele>
        <time>2021-04-18T06:13:30Z</time>
      </trkpt>
      <trkpt lat="43.2056" lon="-0.5861">
        <ele>266.185</ele>
        <time>2021-04-18T06:13:50Z</time>
      </trkpt>
      <trkpt lat="43.20502" lon="-0.58625">
        <ele>247.168</ele>
        <time>2016-12-30T19:28:34Z</time>
      </trkpt>
      <trkpt lat="43.20417" lon="-0.58679">
        <ele>241.594</ele>
        <time>2016-12-30T19:28:54Z</time>
      </trkpt>
      <trkpt lat="43.20358" lon="-0.5874">
        <ele>243.323</ele>
        <time>2021-04-18T06:14:50Z</time>
      </trkpt>
      <trkpt lat="43.20172" lon="-0.58892">
        <ele>238.04</ele>
        <time>2016-12-30T19:29:14Z</time>
      </trkpt>
      <trkpt lat="43.20145" lon="-0.58974">
        <ele>237.261</ele>
        <time>2016-12-30T19:29:34Z</time>
      </trkpt>
      <trkpt lat="43.20106" lon="-0.59041">
        <ele>236.85</ele>
        <time>2016-12-30T19:29:54Z</time>
      </trkpt>
      <trkpt lat="43.20087" lon="-0.59138">
        <ele>236.041</ele>
        <time>2016-12-30T19:30:14Z</time>
      </trkpt>
      <trkpt lat="43.20056" lon="-0.59206">
        <ele>235.078</ele>
        <time>2016-12-30T19:30:34Z</time>
      </trkpt>
      <trkpt lat="43.20012" lon="-0.59204">
        <ele>235.433</ele>
        <time>2016-12-30T19:30:54Z</time>
      </trkpt>
      <trkpt lat="43.19962" lon="-0.59192">
        <ele>236.026</ele>
        <time>2016-12-30T19:31:14Z</time>
      </trkpt>
      <trkpt lat="43.19877" lon="-0.59339">
        <ele>235.008</ele>
        <time>2016-12-30T19:31:34Z</time>
      </trkpt>
      <trkpt lat="43.19556" lon="-0.59985">
        <ele>236.674</ele>
        <time>2021-04-18T06:17:50Z</time>
      </trkpt>
      <trkpt lat="43.19492" lon="-0.60081">
        <ele>235.547</ele>
        <time>2021-04-18T06:18:10Z</time>
      </trkpt>
      <trkpt lat="43.19489" lon="-0.6014">
        <ele>237.373</ele>
        <time>2021-04-18T06:18:30Z</time>
      </trkpt>
      <trkpt lat="43.19354" lon="-0.60373">
        <ele>237.222</ele>
        <time>2021-04-18T06:18:50Z</time>
      </trkpt>
      <trkpt lat="43.19295" lon="-0.60558">
        <ele>220.799</ele>
        <time>2021-04-18T06:19:10Z</time>
      </trkpt>
      <trkpt lat="43.19246" lon="-0.60629">
        <ele>213.08</ele>
        <time>2016-12-30T19:32:34Z</time>
      </trkpt>
      <trkpt lat="43.19225" lon="-0.6075">
        <ele>220.969</ele>
        <time>2021-04-18T06:19:50Z</time>
      </trkpt>
      <trkpt lat="43.19228" lon="-0.60917">
        <ele>212.84</ele>
        <time>2016-12-30T19:33:14Z</time>
      </trkpt>
      <trkpt lat="43.19201" lon="-0.60973">
        <ele>223.921</ele>
        <time>2021-04-18T06:20:30Z</time>
      </trkpt>
      <trkpt lat="43.19196" lon="-0.61271">
        <ele>223.841</ele>
        <time>2016-12-30T19:33:54Z</time>
      </trkpt>
      <trkpt lat="43.19247" lon="-0.61313">
        <ele>224.005</ele>
        <time>2016-12-30T19:34:14Z</time>
      </trkpt>
      <trkpt lat="43.19204" lon="-0.61351">
        <ele>225.408</ele>
        <time>2016-12-30T19:34:34Z</time>
      </trkpt>
      <trkpt lat="43.19151" lon="-0.61429">
        <ele>227.879</ele>
        <time>2016-12-30T19:34:54Z</time>
      </trkpt>
      <trkpt lat="43.19028" lon="-0.61735">
        <ele>232.022</ele>
        <time>2016-12-30T19:35:14Z</time>
      </trkpt>
      <trkpt lat="43.18993" lon="-0.61712">
        <ele>234.928</ele>
        <time>2021-04-18T06:22:30Z</time>
      </trkpt>
      <trkpt lat="43.18961" lon="-0.61667">
        <ele>233.467</ele>
        <time>2016-12-30T19:35:34Z</time>
      </trkpt>
      <trkpt lat="43.18906" lon="-0.61604">
        <ele>235.994</ele>
        <time>2021-04-18T06:23:10Z</time>
      </trkpt>
      <trkpt lat="43.18739" lon="-0.61525">
        <ele>238.515</ele>
        <time>2021-04-18T06:23:30Z</time>
      </trkpt>
      <trkpt lat="43.18732" lon="-0.61496">
        <ele>239.014</ele>
        <time>2021-04-18T06:23:50Z</time>
      </trkpt>
      <trkpt lat="43.18756" lon="-0.61459">
        <ele>234.595</ele>
        <time>2016-12-30T19:36:54Z</time>
      </trkpt>
      <trkpt lat="43.1878" lon="-0.61395">
        <ele>232.117</ele>
        <time>2021-04-18T06:24:30Z</time>
      </trkpt>
      <trkpt lat="43.18814" lon="-0.61337">
        <ele>224.987</ele>
        <time>2016-12-30T19:37:14Z</time>
      </trkpt>
      <trkpt lat="43.1883" lon="-0.61269">
        <ele>218.915</ele>
        <time>2016-12-30T19:38:14Z</time>
      </trkpt>
      <trkpt lat="43.18842" lon="-0.61166">
        <ele>214.008</ele>
        <time>2016-12-30T19:39:34Z</time>
      </trkpt>
      <trkpt lat="43.18871" lon="-0.61112">
        <ele>211.758</ele>
        <time>2016-12-30T19:39:54Z</time>
      </trkpt>
      <trkpt lat="43.1889" lon="-0.61041">
        <ele>210.091</ele>
        <time>2016-12-30T19:40:14Z</time>
      </trkpt>
      <trkpt lat="43.18863" lon="-0.61025">
        <ele>210.057</ele>
        <time>2016-12-30T19:40:34Z</time>
      </trkpt>
      <trkpt lat="43.18876" lon="-0.60956">
        <ele>213.416</ele>
        <time>2016-12-30T19:40:54Z</time>
      </trkpt>
      <trkpt lat="43.18826" lon="-0.60821">
        <ele>227.483</ele>
        <time>2016-12-30T19:41:14Z</time>
      </trkpt>
      <trkpt lat="43.18892" lon="-0.60761">
        <ele>250.594</ele>
        <time>2021-04-18T06:27:30Z</time>
      </trkpt>
      <trkpt lat="43.18873" lon="-0.6073">
        <ele>250.253</ele>
        <time>2016-12-30T19:41:54Z</time>
      </trkpt>
      <trkpt lat="43.1888" lon="-0.60727">
        <ele>252.054</ele>
        <time>2016-12-30T19:42:14Z</time>
      </trkpt>
      <trkpt lat="43.18869" lon="-0.60705">
        <ele>256.032</ele>
        <time>2016-12-30T19:42:34Z</time>
      </trkpt>
      <trkpt lat="43.18899" lon="-0.60731">
        <ele>253.492</ele>
        <time>2016-12-30T19:43:14Z</time>
      </trkpt>
      <trkpt lat="43.18927" lon="-0.60619">
        <ele>260.011</ele>
        <time>2016-12-30T19:43:34Z</time>
      </trkpt>
      <trkpt lat="43.18928" lon="-0.60537">
        <ele>260.008</ele>
        <time>2016-12-30T19:43:54Z</time>
      </trkpt>
      <trkpt lat="43.18905" lon="-0.60518">
        <ele>260.01</ele>
        <time>2016-12-30T19:44:14Z</time>
      </trkpt>
      <trkpt lat="43.18893" lon="-0.60497">
        <ele>260.063</ele>
        <time>2016-12-30T19:44:34Z</time>
      </trkpt>
      <trkpt lat="43.18857" lon="-0.60388">
        <ele>263.499</ele>
        <time>2021-04-18T06:30:30Z</time>
      </trkpt>
      <trkpt lat="43.18749" lon="-0.6026">
        <ele>266.088</ele>
        <time>2021-04-18T06:30:50Z</time>
      </trkpt>
      <trkpt lat="43.18609" lon="-0.60106">
        <ele>278.235</ele>
        <time>2016-12-30T19:45:34Z</time>
      </trkpt>
      <trkpt lat="43.18518" lon="-0.59999">
        <ele>279.396</ele>
        <time>2016-12-30T19:45:54Z</time>
      </trkpt>
      <trkpt lat="43.18426" lon="-0.5991">
        <ele>275.555</ele>
        <time>2016-12-30T19:46:14Z</time>
      </trkpt>
      <trkpt lat="43.18256" lon="-0.59857">
        <ele>271.736</ele>
        <time>2016-12-30T19:46:34Z</time>
      </trkpt>
      <trkpt lat="43.18132" lon="-0.59848">
        <ele>290.179</ele>
        <time>2016-12-30T19:46:54Z</time>
      </trkpt>
      <trkpt lat="43.18061" lon="-0.59867">
        <ele>284.905</ele>
        <time>2016-12-30T19:47:14Z</time>
      </trkpt>
      <trkpt lat="43.17986" lon="-0.59871">
        <ele>279.925</ele>
        <time>2016-12-30T19:47:34Z</time>
      </trkpt>
      <trkpt lat="43.17951" lon="-0.59842">
        <ele>279.108</ele>
        <time>2016-12-30T19:47:54Z</time>
      </trkpt>
      <trkpt lat="43.17925" lon="-0.59775">
        <ele>273.834</ele>
        <time>2016-12-30T19:48:14Z</time>
      </trkpt>
      <trkpt lat="43.17878" lon="-0.59706">
        <ele>270.337</ele>
        <time>2016-12-30T19:48:34Z</time>
      </trkpt>
      <trkpt lat="43.17819" lon="-0.59668">
        <ele>273.173</ele>
        <time>2016-12-30T19:48:54Z</time>
      </trkpt>
      <trkpt lat="43.17747" lon="-0.59595">
        <ele>268.382</ele>
        <time>2021-04-18T06:34:50Z</time>
      </trkpt>
      <trkpt lat="43.17587" lon="-0.59509">
        <ele>268.969</ele>
        <time>2016-12-30T19:49:34Z</time>
      </trkpt>
      <trkpt lat="43.17501" lon="-0.5939">
        <ele>279.08</ele>
        <time>2021-04-18T06:35:30Z</time>
      </trkpt>
      <trkpt lat="43.17439" lon="-0.59456">
        <ele>292.649</ele>
        <time>2016-12-30T19:50:14Z</time>
      </trkpt>
      <trkpt lat="43.17399" lon="-0.59474">
        <ele>303.42</ele>
        <time>2021-04-18T06:36:10Z</time>
      </trkpt>
      <trkpt lat="43.17368" lon="-0.59464">
        <ele>298.291</ele>
        <time>2016-12-30T19:50:34Z</time>
      </trkpt>
      <trkpt lat="43.17315" lon="-0.59389">
        <ele>299.381</ele>
        <time>2016-12-30T19:50:54Z</time>
      </trkpt>
      <trkpt lat="43.17259" lon="-0.59341">
        <ele>296.819</ele>
        <time>2016-12-30T19:51:14Z</time>
      </trkpt>
      <trkpt lat="43.17241" lon="-0.59281">
        <ele>299.508</ele>
        <time>2016-12-30T19:51:34Z</time>
      </trkpt>
      <trkpt lat="43.17123" lon="-0.59088">
        <ele>290.086</ele>
        <time>2016-12-30T19:51:54Z</time>
      </trkpt>
      <trkpt lat="43.17018" lon="-0.58979">
        <ele>289.659</ele>
        <time>2016-12-30T19:52:14Z</time>
      </trkpt>
      <trkpt lat="43.1686" lon="-0.58816">
        <ele>275.235</ele>
        <time>2016-12-30T19:52:34Z</time>
      </trkpt>
      <trkpt lat="43.16803" lon="-0.58744">
        <ele>272.494</ele>
        <time>2016-12-30T19:52:54Z</time>
      </trkpt>
      <trkpt lat="43.16717" lon="-0.58726">
        <ele>267.641</ele>
        <time>2016-12-30T19:53:14Z</time>
      </trkpt>
      <trkpt lat="43.16653" lon="-0.58667">
        <ele>266.042</ele>
        <time>2016-12-30T19:53:34Z</time>
      </trkpt>
      <trkpt lat="43.16618" lon="-0.58673">
        <ele>265.551</ele>
        <time>2016-12-30T19:53:54Z</time>
      </trkpt>
      <trkpt lat="43.16562" lon="-0.58719">
        <ele>272.322</ele>
        <time>2016-12-30T19:54:14Z</time>
      </trkpt>
      <trkpt lat="43.16528" lon="-0.58699">
        <ele>278.481</ele>
        <time>2016-12-30T19:54:34Z</time>
      </trkpt>
      <trkpt lat="43.16457" lon="-0.58705">
        <ele>281.761</ele>
        <time>2016-12-30T19:54:54Z</time>
      </trkpt>
      <trkpt lat="43.16396" lon="-0.58689">
        <ele>287.517</ele>
        <time>2016-12-30T19:55:14Z</time>
      </trkpt>
      <trkpt lat="43.16353" lon="-0.58635">
        <ele>295.008</ele>
        <time>2016-12-30T19:55:34Z</time>
      </trkpt>
      <trkpt lat="43.1619" lon="-0.58529">
        <ele>304.045</ele>
        <time>2016-12-30T19:55:54Z</time>
      </trkpt>
      <trkpt lat="43.16127" lon="-0.58529">
        <ele>308.168</ele>
        <time>2016-12-30T19:56:14Z</time>
      </trkpt>
      <trkpt lat="43.16071" lon="-0.58524">
        <ele>316.954</ele>
        <time>2016-12-30T19:56:34Z</time>
      </trkpt>
      <trkpt lat="43.15994" lon="-0.58476">
        <ele>319.623</ele>
        <time>2016-12-30T19:56:54Z</time>
      </trkpt>
      <trkpt lat="43.15866" lon="-0.58399">
        <ele>305.78</ele>
        <time>2016-12-30T19:57:14Z</time>
      </trkpt>
      <trkpt lat="43.15798" lon="-0.58379">
        <ele>299.811</ele>
        <time>2016-12-30T19:57:34Z</time>
      </trkpt>
      <trkpt lat="43.15739" lon="-0.58458">
        <ele>300.37</ele>
        <time>2016-12-30T19:57:54Z</time>
      </trkpt>
      <trkpt lat="43.15702" lon="-0.58466">
        <ele>303.431</ele>
        <time>2016-12-30T19:58:14Z</time>
      </trkpt>
      <trkpt lat="43.15567" lon="-0.58452">
        <ele>309.976</ele>
        <time>2016-12-30T19:58:34Z</time>
      </trkpt>
      <trkpt lat="43.15473" lon="-0.58474">
        <ele>308.69</ele>
        <time>2016-12-30T19:58:54Z</time>
      </trkpt>
      <trkpt lat="43.1532" lon="-0.58401">
        <ele>310.019</ele>
        <time>2016-12-30T19:59:14Z</time>
      </trkpt>
      <trkpt lat="43.15084" lon="-0.58321">
        <ele>310.008</ele>
        <time>2016-12-30T19:59:34Z</time>
      </trkpt>
      <trkpt lat="43.15033" lon="-0.58249">
        <ele>313.274</ele>
        <time>2021-04-18T06:45:50Z</time>
      </trkpt>
      <trkpt lat="43.14981" lon="-0.58147">
        <ele>312.517</ele>
        <time>2021-04-18T06:46:10Z</time>
      </trkpt>
      <trkpt lat="43.14939" lon="-0.58086">
        <ele>309.583</ele>
        <time>2016-12-30T19:59:54Z</time>
      </trkpt>
      <trkpt lat="43.14837" lon="-0.58176">
        <ele>297.682</ele>
        <time>2016-12-30T20:00:14Z</time>
      </trkpt>
      <trkpt lat="43.14813" lon="-0.58234">
        <ele>288.679</ele>
        <time>2016-12-30T20:00:34Z</time>
      </trkpt>
      <trkpt lat="43.14769" lon="-0.58249">
        <ele>289.12</ele>
        <time>2016-12-30T20:00:54Z</time>
      </trkpt>
      <trkpt lat="43.14764" lon="-0.58306">
        <ele>278.589</ele>
        <time>2016-12-30T20:01:14Z</time>
      </trkpt>
      <trkpt lat="43.14705" lon="-0.58371">
        <ele>269.33</ele>
        <time>2016-12-30T20:01:34Z</time>
      </trkpt>
      <trkpt lat="43.14644" lon="-0.58404">
        <ele>270.065</ele>
        <time>2016-12-30T20:01:54Z</time>
      </trkpt>
      <trkpt lat="43.14589" lon="-0.58415">
        <ele>271.968</ele>
        <time>2016-12-30T20:02:14Z</time>
      </trkpt>
      <trkpt lat="43.1443" lon="-0.58526">
        <ele>277.714</ele>
        <time>2016-12-30T20:02:34Z</time>
      </trkpt>
      <trkpt lat="43.14401" lon="-0.58581">
        <ele>274.208</ele>
        <time>2016-12-30T20:02:54Z</time>
      </trkpt>
      <trkpt lat="43.14275" lon="-0.5864">
        <ele>271.213</ele>
        <time>2016-12-30T20:03:14Z</time>
      </trkpt>
      <trkpt lat="43.14186" lon="-0.58661">
        <ele>271.096</ele>
        <time>2016-12-30T20:03:34Z</time>
      </trkpt>
      <trkpt lat="43.14151" lon="-0.58655">
        <ele>271.432</ele>
        <time>2016-12-30T20:03:54Z</time>
      </trkpt>
      <trkpt lat="43.1408" lon="-0.58667">
        <ele>265.891</ele>
        <time>2016-12-30T20:04:14Z</time>
      </trkpt>
      <trkpt lat="43.14032" lon="-0.58658">
        <ele>262.658</ele>
        <time>2016-12-30T20:04:34Z</time>
      </trkpt>
      <trkpt lat="43.14019" lon="-0.58682">
        <ele>260.349</ele>
        <time>2016-12-30T20:04:54Z</time>
      </trkpt>
      <trkpt lat="43.13974" lon="-0.58702">
        <ele>264.138</ele>
        <time>2016-12-30T20:05:14Z</time>
      </trkpt>
      <trkpt lat="43.13941" lon="-0.58749">
        <ele>270.849</ele>
        <time>2016-12-30T20:05:34Z</time>
      </trkpt>
      <trkpt lat="43.13938" lon="-0.58796">
        <ele>274.877</ele>
        <time>2016-12-30T20:05:54Z</time>
      </trkpt>
      <trkpt lat="43.13898" lon="-0.58827">
        <ele>275.261</ele>
        <time>2016-12-30T20:06:14Z</time>
      </trkpt>
      <trkpt lat="43.13888" lon="-0.58871">
        <ele>277.727</ele>
        <time>2016-12-30T20:06:34Z</time>
      </trkpt>
      <trkpt lat="43.13864" lon="-0.58896">
        <ele>277.708</ele>
        <time>2016-12-30T20:06:54Z</time>
      </trkpt>
      <trkpt lat="43.13843" lon="-0.58981">
        <ele>280.134</ele>
        <time>2016-12-30T20:07:14Z</time>
      </trkpt>
      <trkpt lat="43.13811" lon="-0.59017">
        <ele>283.167</ele>
        <time>2021-04-18T06:54:10Z</time>
      </trkpt>
      <trkpt lat="43.13745" lon="-0.59054">
        <ele>283.153</ele>
        <time>2016-12-30T20:07:54Z</time>
      </trkpt>
      <trkpt lat="43.1369" lon="-0.59075">
        <ele>279.752</ele>
        <time>2016-12-30T20:08:14Z</time>
      </trkpt>
      <trkpt lat="43.13636" lon="-0.59161">
        <ele>272.429</ele>
        <time>2016-12-30T20:08:34Z</time>
      </trkpt>
      <trkpt lat="43.13565" lon="-0.59209">
        <ele>271.75</ele>
        <time>2016-12-30T20:08:54Z</time>
      </trkpt>
      <trkpt lat="43.13487" lon="-0.5925">
        <ele>273.419</ele>
        <time>2016-12-30T20:09:14Z</time>
      </trkpt>
      <trkpt lat="43.13424" lon="-0.59313">
        <ele>270.87</ele>
        <time>2016-12-30T20:09:34Z</time>
      </trkpt>
      <trkpt lat="43.13361" lon="-0.59317">
        <ele>275.133</ele>
        <time>2016-12-30T20:09:54Z</time>
      </trkpt>
      <trkpt lat="43.13259" lon="-0.59474">
        <ele>272.123</ele>
        <time>2016-12-30T20:10:14Z</time>
      </trkpt>
      <trkpt lat="43.13204" lon="-0.59455">
        <ele>279.415</ele>
        <time>2021-04-18T06:57:10Z</time>
      </trkpt>
      <trkpt lat="43.1315" lon="-0.59404">
        <ele>287.208</ele>
        <time>2021-04-18T06:57:30Z</time>
      </trkpt>
      <trkpt lat="43.1311" lon="-0.59394">
        <ele>289.36</ele>
        <time>2021-04-18T06:57:50Z</time>
      </trkpt>
      <trkpt lat="43.13079" lon="-0.59364">
        <ele>291.623</ele>
        <time>2021-04-18T06:58:10Z</time>
      </trkpt>
      <trkpt lat="43.12947" lon="-0.59359">
        <ele>302.659</ele>
        <time>2016-12-30T20:12:34Z</time>
      </trkpt>
      <trkpt lat="43.12878" lon="-0.59343">
        <ele>306.028</ele>
        <time>2016-12-30T20:12:54Z</time>
      </trkpt>
      <trkpt lat="43.1278" lon="-0.59366">
        <ele>316.735</ele>
        <time>2021-04-18T06:59:10Z</time>
      </trkpt>
      <trkpt lat="43.12643" lon="-0.59285">
        <ele>301.716</ele>
        <time>2016-12-30T20:13:34Z</time>
      </trkpt>
      <trkpt lat="43.12498" lon="-0.59342">
        <ele>295.765</ele>
        <time>2016-12-30T20:13:54Z</time>
      </trkpt>
      <trkpt lat="43.12342" lon="-0.59352">
        <ele>293.956</ele>
        <time>2016-12-30T20:14:14Z</time>
      </trkpt>
      <trkpt lat="43.12156" lon="-0.59402">
        <ele>299.042</ele>
        <time>2016-12-30T20:14:34Z</time>
      </trkpt>
      <trkpt lat="43.12116" lon="-0.59453">
        <ele>299.422</ele>
        <time>2016-12-30T20:14:54Z</time>
      </trkpt>
      <trkpt lat="43.12074" lon="-0.59461">
        <ele>299.614</ele>
        <time>2016-12-30T20:15:14Z</time>
      </trkpt>
      <trkpt lat="43.12027" lon="-0.59483">
        <ele>300.008</ele>
        <time>2016-12-30T20:15:34Z</time>
      </trkpt>
      <trkpt lat="43.11986" lon="-0.59459">
        <ele>303.911</ele>
        <time>2016-12-30T20:15:54Z</time>
      </trkpt>
      <trkpt lat="43.11967" lon="-0.59384">
        <ele>299.654</ele>
        <time>2016-12-30T20:16:14Z</time>
      </trkpt>
      <trkpt lat="43.11927" lon="-0.59354">
        <ele>299.53</ele>
        <time>2016-12-30T20:16:34Z</time>
      </trkpt>
      <trkpt lat="43.1186" lon="-0.59368">
        <ele>310.949</ele>
        <time>2021-04-18T07:02:50Z</time>
      </trkpt>
      <trkpt lat="43.11758" lon="-0.59423">
        <ele>334.566</ele>
        <time>2021-04-18T07:03:10Z</time>
      </trkpt>
      <trkpt lat="43.11737" lon="-0.59598">
        <ele>331.297</ele>
        <time>2021-04-18T07:03:30Z</time>
      </trkpt>
      <trkpt lat="43.11699" lon="-0.59709">
        <ele>340.056</ele>
        <time>2021-04-18T07:03:50Z</time>
      </trkpt>
      <trkpt lat="43.1168" lon="-0.59873">
        <ele>328.217</ele>
        <time>2016-12-30T20:17:54Z</time>
      </trkpt>
      <trkpt lat="43.11644" lon="-0.59998">
        <ele>324.694</ele>
        <time>2016-12-30T20:18:14Z</time>
      </trkpt>
      <trkpt lat="43.11636" lon="-0.60042">
        <ele>323.257</ele>
        <time>2016-12-30T20:18:34Z</time>
      </trkpt>
      <trkpt lat="43.11606" lon="-0.60034">
        <ele>329.322</ele>
        <time>2016-12-30T20:18:54Z</time>
      </trkpt>
      <trkpt lat="43.11586" lon="-0.60025">
        <ele>331.008</ele>
        <time>2016-12-30T20:19:14Z</time>
      </trkpt>
      <trkpt lat="43.11551" lon="-0.60094">
        <ele>337.776</ele>
        <time>2016-12-30T20:19:34Z</time>
      </trkpt>
      <trkpt lat="43.11506" lon="-0.60157">
        <ele>345.799</ele>
        <time>2016-12-30T20:19:54Z</time>
      </trkpt>
      <trkpt lat="43.11496" lon="-0.60209">
        <ele>348.145</ele>
        <time>2016-12-30T20:20:14Z</time>
      </trkpt>
      <trkpt lat="43.11504" lon="-0.60253">
        <ele>344.954</ele>
        <time>2016-12-30T20:20:34Z</time>
      </trkpt>
      <trkpt lat="43.11421" lon="-0.60384">
        <ele>341.191</ele>
        <time>2016-12-30T20:20:54Z</time>
      </trkpt>
      <trkpt lat="43.11386" lon="-0.60397">
        <ele>338.922</ele>
        <time>2016-12-30T20:21:14Z</time>
      </trkpt>
      <trkpt lat="43.11354" lon="-0.60399">
        <ele>335.111</ele>
        <time>2016-12-30T20:21:34Z</time>
      </trkpt>
      <trkpt lat="43.11333" lon="-0.60451">
        <ele>326.722</ele>
        <time>2016-12-30T20:21:54Z</time>
      </trkpt>
      <trkpt lat="43.11327" lon="-0.60517">
        <ele>324.297</ele>
        <time>2016-12-30T20:22:14Z</time>
      </trkpt>
      <trkpt lat="43.11337" lon="-0.60554">
        <ele>320.023</ele>
        <time>2016-12-30T20:22:34Z</time>
      </trkpt>
      <trkpt lat="43.11327" lon="-0.60641">
        <ele>299.925</ele>
        <time>2016-12-30T20:22:54Z</time>
      </trkpt>
      <trkpt lat="43.11309" lon="-0.60673">
        <ele>297.608</ele>
        <time>2016-12-30T20:23:14Z</time>
      </trkpt>
      <trkpt lat="43.11306" lon="-0.60704">
        <ele>297.086</ele>
        <time>2016-12-30T20:23:34Z</time>
      </trkpt>
      <trkpt lat="43.11269" lon="-0.60716">
        <ele>298.919</ele>
        <time>2016-12-30T20:23:54Z</time>
      </trkpt>
      <trkpt lat="43.11257" lon="-0.60751">
        <ele>299.845</ele>
        <time>2016-12-30T20:24:14Z</time>
      </trkpt>
      <trkpt lat="43.11255" lon="-0.60781">
        <ele>300.084</ele>
        <time>2016-12-30T20:24:34Z</time>
      </trkpt>
      <trkpt lat="43.11189" lon="-0.60888">
        <ele>304.481</ele>
        <time>2016-12-30T20:24:54Z</time>
      </trkpt>
      <trkpt lat="43.11182" lon="-0.6101">
        <ele>310.022</ele>
        <time>2016-12-30T20:25:14Z</time>
      </trkpt>
      <trkpt lat="43.11231" lon="-0.61087">
        <ele>308.541</ele>
        <time>2016-12-30T20:25:34Z</time>
      </trkpt>
      <trkpt lat="43.11217" lon="-0.61123">
        <ele>301.382</ele>
        <time>2021-04-18T07:12:10Z</time>
      </trkpt>
      <trkpt lat="43.11196" lon="-0.61234">
        <ele>305.026</ele>
        <time>2016-12-30T20:25:54Z</time>
      </trkpt>
      <trkpt lat="43.11208" lon="-0.61275">
        <ele>300.747</ele>
        <time>2016-12-30T20:26:14Z</time>
      </trkpt>
      <trkpt lat="43.11031" lon="-0.61455">
        <ele>304.511</ele>
        <time>2016-12-30T20:26:34Z</time>
      </trkpt>
      <trkpt lat="43.1098" lon="-0.61523">
        <ele>305.108</ele>
        <time>2016-12-30T20:26:54Z</time>
      </trkpt>
      <trkpt lat="43.10914" lon="-0.61643">
        <ele>305.059</ele>
        <time>2016-12-30T20:27:14Z</time>
      </trkpt>
      <trkpt lat="43.10912" lon="-0.61649">
        <ele>304.872</ele>
        <time>2016-12-30T20:27:34Z</time>
      </trkpt>
      <trkpt lat="43.10791" lon="-0.61898">
        <ele>305.968</ele>
        <time>2016-12-30T20:27:54Z</time>
      </trkpt>
      <trkpt lat="43.10699" lon="-0.62048">
        <ele>306.237</ele>
        <time>2016-12-30T20:28:14Z</time>
      </trkpt>
      <trkpt lat="43.10636" lon="-0.62084">
        <ele>306.074</ele>
        <time>2016-12-30T20:28:34Z</time>
      </trkpt>
      <trkpt lat="43.10564" lon="-0.62079">
        <ele>304.295</ele>
        <time>2016-12-30T20:28:54Z</time>
      </trkpt>
      <trkpt lat="43.1051" lon="-0.62002">
        <ele>306.654</ele>
        <time>2016-12-30T20:29:14Z</time>
      </trkpt>
      <trkpt lat="43.10476" lon="-0.61919">
        <ele>307.395</ele>
        <time>2021-04-18T07:16:10Z</time>
      </trkpt>
      <trkpt lat="43.10445" lon="-0.61823">
        <ele>308.391</ele>
        <time>2016-12-30T20:29:34Z</time>
      </trkpt>
      <trkpt lat="43.10381" lon="-0.61723">
        <ele>300.181</ele>
        <time>2016-12-30T20:29:54Z</time>
      </trkpt>
      <trkpt lat="43.10318" lon="-0.61676">
        <ele>300.619</ele>
        <time>2016-12-30T20:30:14Z</time>
      </trkpt>
      <trkpt lat="43.10236" lon="-0.61647">
        <ele>301.108</ele>
        <time>2016-12-30T20:30:34Z</time>
      </trkpt>
      <trkpt lat="43.10119" lon="-0.61637">
        <ele>302.856</ele>
        <time>2016-12-30T20:30:54Z</time>
      </trkpt>
      <trkpt lat="43.10083" lon="-0.61608">
        <ele>304.129</ele>
        <time>2016-12-30T20:31:14Z</time>
      </trkpt>
      <trkpt lat="43.10061" lon="-0.61539">
        <ele>305.535</ele>
        <time>2016-12-30T20:31:34Z</time>
      </trkpt>
      <trkpt lat="43.09994" lon="-0.61449">
        <ele>307.144</ele>
        <time>2016-12-30T20:31:54Z</time>
      </trkpt>
      <trkpt lat="43.09906" lon="-0.61401">
        <ele>307.951</ele>
        <time>2016-12-30T20:32:14Z</time>
      </trkpt>
      <trkpt lat="43.09852" lon="-0.6141">
        <ele>307.842</ele>
        <time>2016-12-30T20:32:34Z</time>
      </trkpt>
      <trkpt lat="43.0978" lon="-0.61459">
        <ele>304.041</ele>
        <time>2016-12-30T20:32:54Z</time>
      </trkpt>
      <trkpt lat="43.09723" lon="-0.61483">
        <ele>303.352</ele>
        <time>2016-12-30T20:33:14Z</time>
      </trkpt>
      <trkpt lat="43.09656" lon="-0.61453">
        <ele>302.745</ele>
        <time>2016-12-30T20:33:34Z</time>
      </trkpt>
      <trkpt lat="43.09578" lon="-0.61395">
        <ele>303.447</ele>
        <time>2021-04-18T07:20:50Z</time>
      </trkpt>
      <trkpt lat="43.09449" lon="-0.61345">
        <ele>307.511</ele>
        <time>2016-12-30T20:34:14Z</time>
      </trkpt>
      <trkpt lat="43.09437" lon="-0.61299">
        <ele>319.308</ele>
        <time>2021-04-18T07:21:30Z</time>
      </trkpt>
      <trkpt lat="43.0936" lon="-0.61268">
        <ele>319.441</ele>
        <time>2016-12-30T20:34:54Z</time>
      </trkpt>
      <trkpt lat="43.09281" lon="-0.61245">
        <ele>319.354</ele>
        <time>2016-12-30T20:35:14Z</time>
      </trkpt>
      <trkpt lat="43.09174" lon="-0.61117">
        <ele>319.07</ele>
        <time>2016-12-30T20:35:34Z</time>
      </trkpt>
      <trkpt lat="43.09094" lon="-0.61113">
        <ele>316.419</ele>
        <time>2016-12-30T20:35:54Z</time>
      </trkpt>
      <trkpt lat="43.08981" lon="-0.61074">
        <ele>316.016</ele>
        <time>2016-12-30T20:36:14Z</time>
      </trkpt>
      <trkpt lat="43.08848" lon="-0.61065">
        <ele>310.777</ele>
        <time>2016-12-30T20:36:34Z</time>
      </trkpt>
      <trkpt lat="43.0882" lon="-0.6109">
        <ele>310.186</ele>
        <time>2021-04-18T07:23:50Z</time>
      </trkpt>
      <trkpt lat="43.08553" lon="-0.61128">
        <ele>318.157</ele>
        <time>2016-12-30T20:37:14Z</time>
      </trkpt>
      <trkpt lat="43.08472" lon="-0.61167">
        <ele>318.999</ele>
        <time>2016-12-30T20:37:34Z</time>
      </trkpt>
      <trkpt lat="43.08428" lon="-0.61147">
        <ele>320.007</ele>
        <time>2016-12-30T20:37:54Z</time>
      </trkpt>
      <trkpt lat="43.0836" lon="-0.61096">
        <ele>318.727</ele>
        <time>2021-04-18T07:25:10Z</time>
      </trkpt>
      <trkpt lat="43.08325" lon="-0.60969">
        <ele>333.108</ele>
        <time>2021-04-18T07:25:30Z</time>
      </trkpt>
      <trkpt lat="43.08304" lon="-0.60912">
        <ele>336.866</ele>
        <time>2021-04-18T07:25:50Z</time>
      </trkpt>
      <trkpt lat="43.08295" lon="-0.60859">
        <ele>340.469</ele>
        <time>2021-04-18T07:26:10Z</time>
      </trkpt>
      <trkpt lat="43.08273" lon="-0.60839">
        <ele>338.815</ele>
        <time>2021-04-18T07:26:30Z</time>
      </trkpt>
      <trkpt lat="43.08216" lon="-0.6088">
        <ele>325.624</ele>
        <time>2021-04-18T07:26:50Z</time>
      </trkpt>
      <trkpt lat="43.08134" lon="-0.60851">
        <ele>325.831</ele>
        <time>2021-04-18T07:27:10Z</time>
      </trkpt>
      <trkpt lat="43.08114" lon="-0.60872">
        <ele>323.492</ele>
        <time>2021-04-18T07:27:30Z</time>
      </trkpt>
      <trkpt lat="43.08015" lon="-0.60885">
        <ele>327.381</ele>
        <time>2021-04-18T07:27:50Z</time>
      </trkpt>
      <trkpt lat="43.07883" lon="-0.60842">
        <ele>332.662</ele>
        <time>2016-12-30T20:41:14Z</time>
      </trkpt>
      <trkpt lat="43.07802" lon="-0.60783">
        <ele>334.569</ele>
        <time>2016-12-30T20:41:34Z</time>
      </trkpt>
      <trkpt lat="43.07702" lon="-0.60694">
        <ele>335.504</ele>
        <time>2016-12-30T20:41:54Z</time>
      </trkpt>
      <trkpt lat="43.07637" lon="-0.60544">
        <ele>330.024</ele>
        <time>2016-12-30T20:42:14Z</time>
      </trkpt>
      <trkpt lat="43.07592" lon="-0.60511">
        <ele>329.008</ele>
        <time>2016-12-30T20:42:34Z</time>
      </trkpt>
      <trkpt lat="43.07552" lon="-0.60551">
        <ele>331.383</ele>
        <time>2016-12-30T20:42:54Z</time>
      </trkpt>
      <trkpt lat="43.07531" lon="-0.60646">
        <ele>331.096</ele>
        <time>2016-12-30T20:43:14Z</time>
      </trkpt>
      <trkpt lat="43.07503" lon="-0.60683">
        <ele>331.062</ele>
        <time>2016-12-30T20:43:34Z</time>
      </trkpt>
      <trkpt lat="43.07461" lon="-0.60676">
        <ele>326.081</ele>
        <time>2021-04-18T07:30:50Z</time>
      </trkpt>
      <trkpt lat="43.07336" lon="-0.60614">
        <ele>329.078</ele>
        <time>2016-12-30T20:44:14Z</time>
      </trkpt>
      <trkpt lat="43.07189" lon="-0.60622">
        <ele>314.829</ele>
        <time>2016-12-30T20:44:34Z</time>
      </trkpt>
      <trkpt lat="43.0718" lon="-0.60658">
        <ele>321.728</ele>
        <time>2016-12-30T20:44:54Z</time>
      </trkpt>
      <trkpt lat="43.07109" lon="-0.6063">
        <ele>323.739</ele>
        <time>2016-12-30T20:45:14Z</time>
      </trkpt>
      <trkpt lat="43.07064" lon="-0.60642">
        <ele>325.265</ele>
        <time>2016-12-30T20:45:34Z</time>
      </trkpt>
      <trkpt lat="43.07023" lon="-0.60674">
        <ele>331.468</ele>
        <time>2016-12-30T20:45:54Z</time>
      </trkpt>
      <trkpt lat="43.06993" lon="-0.60682">
        <ele>332.114</ele>
        <time>2016-12-30T20:46:14Z</time>
      </trkpt>
      <trkpt lat="43.06944" lon="-0.60718">
        <ele>334.508</ele>
        <time>2016-12-30T20:46:34Z</time>
      </trkpt>
      <trkpt lat="43.06889" lon="-0.6071">
        <ele>343.723</ele>
        <time>2016-12-30T20:46:54Z</time>
      </trkpt>
      <trkpt lat="43.0685" lon="-0.60651">
        <ele>328.476</ele>
        <time>2016-12-30T20:47:14Z</time>
      </trkpt>
      <trkpt lat="43.06788" lon="-0.60626">
        <ele>338.392</ele>
        <time>2016-12-30T20:47:34Z</time>
      </trkpt>
      <trkpt lat="43.06804" lon="-0.60561">
        <ele>321.641</ele>
        <time>2016-12-30T20:47:54Z</time>
      </trkpt>
      <trkpt lat="43.06796" lon="-0.60475">
        <ele>327.128</ele>
        <time>2016-12-30T20:48:14Z</time>
      </trkpt>
      <trkpt lat="43.06776" lon="-0.60445">
        <ele>332.529</ele>
        <time>2016-12-30T20:48:34Z</time>
      </trkpt>
      <trkpt lat="43.06703" lon="-0.60446">
        <ele>329.758</ele>
        <time>2021-04-18T07:35:50Z</time>
      </trkpt>
      <trkpt lat="43.06697" lon="-0.60473">
        <ele>339.589</ele>
        <time>2016-12-30T20:49:14Z</time>
      </trkpt>
      <trkpt lat="43.06662" lon="-0.60462">
        <ele>334.598</ele>
        <time>2016-12-30T20:49:34Z</time>
      </trkpt>
      <trkpt lat="43.06599" lon="-0.60501">
        <ele>335.415</ele>
        <time>2016-12-30T20:49:54Z</time>
      </trkpt>
      <trkpt lat="43.0654" lon="-0.60498">
        <ele>324.426</ele>
        <time>2016-12-30T20:50:14Z</time>
      </trkpt>
      <trkpt lat="43.06503" lon="-0.60506">
        <ele>323.608</ele>
        <time>2016-12-30T20:50:34Z</time>
      </trkpt>
      <trkpt lat="43.06438" lon="-0.60498">
        <ele>329.836</ele>
        <time>2016-12-30T20:50:54Z</time>
      </trkpt>
      <trkpt lat="43.06397" lon="-0.60428">
        <ele>328.489</ele>
        <time>2016-12-30T20:51:14Z</time>
      </trkpt>
      <trkpt lat="43.06376" lon="-0.60275">
        <ele>341.375</ele>
        <time>2016-12-30T20:51:34Z</time>
      </trkpt>
      <trkpt lat="43.06401" lon="-0.60119">
        <ele>339.114</ele>
        <time>2016-12-30T20:51:54Z</time>
      </trkpt>
      <trkpt lat="43.06371" lon="-0.60085">
        <ele>345.561</ele>
        <time>2016-12-30T20:52:14Z</time>
      </trkpt>
      <trkpt lat="43.06261" lon="-0.60084">
        <ele>336.712</ele>
        <time>2016-12-30T20:52:34Z</time>
      </trkpt>
      <trkpt lat="43.06221" lon="-0.60072">
        <ele>331.781</ele>
        <time>2016-12-30T20:52:54Z</time>
      </trkpt>
      <trkpt lat="43.06157" lon="-0.60084">
        <ele>332.572</ele>
        <time>2016-12-30T20:53:14Z</time>
      </trkpt>
      <trkpt lat="43.06071" lon="-0.60076">
        <ele>339.371</ele>
        <time>2016-12-30T20:53:34Z</time>
      </trkpt>
      <trkpt lat="43.05919" lon="-0.59983">
        <ele>344.441</ele>
        <time>2016-12-30T20:53:54Z</time>
      </trkpt>
      <trkpt lat="43.05732" lon="-0.59823">
        <ele>346.715</ele>
        <time>2016-12-30T20:54:14Z</time>
      </trkpt>
      <trkpt lat="43.05643" lon="-0.59799">
        <ele>359.708</ele>
        <time>2016-12-30T20:54:34Z</time>
      </trkpt>
      <trkpt lat="43.05589" lon="-0.59799">
        <ele>351.584</ele>
        <time>2016-12-30T20:54:54Z</time>
      </trkpt>
      <trkpt lat="43.05545" lon="-0.59833">
        <ele>361.987</ele>
        <time>2016-12-30T20:55:14Z</time>
      </trkpt>
      <trkpt lat="43.05512" lon="-0.59812">
        <ele>357.023</ele>
        <time>2021-04-18T07:42:30Z</time>
      </trkpt>
      <trkpt lat="43.05471" lon="-0.59765">
        <ele>342.622</ele>
        <time>2016-12-30T20:55:34Z</time>
      </trkpt>
      <trkpt lat="43.05274" lon="-0.59899">
        <ele>353.719</ele>
        <time>2021-04-18T07:43:10Z</time>
      </trkpt>
      <trkpt lat="43.05229" lon="-0.60047">
        <ele>364.46</ele>
        <time>2021-04-18T07:43:30Z</time>
      </trkpt>
      <trkpt lat="43.05164" lon="-0.60189">
        <ele>346.649</ele>
        <time>2016-12-30T20:56:34Z</time>
      </trkpt>
      <trkpt lat="43.05121" lon="-0.60198">
        <ele>344.52</ele>
        <time>2016-12-30T20:56:54Z</time>
      </trkpt>
      <trkpt lat="43.05005" lon="-0.60151">
        <ele>340.953</ele>
        <time>2016-12-30T20:57:14Z</time>
      </trkpt>
      <trkpt lat="43.04999" lon="-0.60133">
        <ele>340.004</ele>
        <time>2016-12-30T20:57:34Z</time>
      </trkpt>
      <trkpt lat="43.05012" lon="-0.60083">
        <ele>340.114</ele>
        <time>2016-12-30T20:57:54Z</time>
      </trkpt>
      <trkpt lat="43.04914" lon="-0.59985">
        <ele>345.608</ele>
        <time>2016-12-30T20:58:14Z</time>
      </trkpt>
      <trkpt lat="43.04856" lon="-0.59977">
        <ele>342.362</ele>
        <time>2016-12-30T20:58:34Z</time>
      </trkpt>
      <trkpt lat="43.048" lon="-0.59964">
        <ele>346.225</ele>
        <time>2016-12-30T20:58:54Z</time>
      </trkpt>
      <trkpt lat="43.04775" lon="-0.5999">
        <ele>341.181</ele>
        <time>2016-12-30T20:59:14Z</time>
      </trkpt>
      <trkpt lat="43.04747" lon="-0.59992">
        <ele>341.88</ele>
        <time>2016-12-30T20:59:34Z</time>
      </trkpt>
      <trkpt lat="43.04728" lon="-0.60024">
        <ele>340.227</ele>
        <time>2016-12-30T20:59:54Z</time>
      </trkpt>
      <trkpt lat="43.04701" lon="-0.60042">
        <ele>340.488</ele>
        <time>2016-12-30T21:00:14Z</time>
      </trkpt>
      <trkpt lat="43.04664" lon="-0.60073">
        <ele>340.057</ele>
        <time>2016-12-30T21:00:34Z</time>
      </trkpt>
      <trkpt lat="43.04524" lon="-0.59881">
        <ele>358.218</ele>
        <time>2021-04-18T07:48:10Z</time>
      </trkpt>
      <trkpt lat="43.04452" lon="-0.59813">
        <ele>349.714</ele>
        <time>2016-12-30T21:01:14Z</time>
      </trkpt>
      <trkpt lat="43.04382" lon="-0.59784">
        <ele>351.754</ele>
        <time>2016-12-30T21:01:34Z</time>
      </trkpt>
      <trkpt lat="43.04348" lon="-0.59792">
        <ele>353.609</ele>
        <time>2016-12-30T21:01:54Z</time>
      </trkpt>
      <trkpt lat="43.0431" lon="-0.59798">
        <ele>359.508</ele>
        <time>2016-12-30T21:02:14Z</time>
      </trkpt>
      <trkpt lat="43.04248" lon="-0.59905">
        <ele>357.878</ele>
        <time>2016-12-30T21:02:34Z</time>
      </trkpt>
      <trkpt lat="43.04234" lon="-0.60009">
        <ele>352.841</ele>
        <time>2016-12-30T21:02:54Z</time>
      </trkpt>
      <trkpt lat="43.04199" lon="-0.60013">
        <ele>361.417</ele>
        <time>2016-12-30T21:03:14Z</time>
      </trkpt>
      <trkpt lat="43.04147" lon="-0.59966">
        <ele>387.146</ele>
        <time>2016-12-30T21:03:34Z</time>
      </trkpt>
      <trkpt lat="43.04114" lon="-0.59966">
        <ele>387.643</ele>
        <time>2016-12-30T21:03:54Z</time>
      </trkpt>
      <trkpt lat="43.04057" lon="-0.60043">
        <ele>353.294</ele>
        <time>2016-12-30T21:04:14Z</time>
      </trkpt>
      <trkpt lat="43.03928" lon="-0.60106">
        <ele>374.183</ele>
        <time>2016-12-30T21:04:34Z</time>
      </trkpt>
      <trkpt lat="43.03891" lon="-0.60172">
        <ele>406.134</ele>
        <time>2021-04-18T07:52:10Z</time>
      </trkpt>
      <trkpt lat="43.03923" lon="-0.60265">
        <ele>366.356</ele>
        <time>2016-12-30T21:05:14Z</time>
      </trkpt>
      <trkpt lat="43.03922" lon="-0.60337">
        <ele>371.759</ele>
        <time>2016-12-30T21:05:34Z</time>
      </trkpt>
      <trkpt lat="43.03914" lon="-0.60381">
        <ele>373.114</ele>
        <time>2016-12-30T21:05:54Z</time>
      </trkpt>
      <trkpt lat="43.03916" lon="-0.60414">
        <ele>365.808</ele>
        <time>2016-12-30T21:06:14Z</time>
      </trkpt>
      <trkpt lat="43.03909" lon="-0.60444">
        <ele>367.862</ele>
        <time>2016-12-30T21:06:34Z</time>
      </trkpt>
      <trkpt lat="43.03838" lon="-0.60489">
        <ele>396.145</ele>
        <time>2016-12-30T21:06:54Z</time>
      </trkpt>
      <trkpt lat="43.0382" lon="-0.60513">
        <ele>383.021</ele>
        <time>2016-12-30T21:07:14Z</time>
      </trkpt>
      <trkpt lat="43.03713" lon="-0.60535">
        <ele>372.61</ele>
        <time>2016-12-30T21:07:34Z</time>
      </trkpt>
      <trkpt lat="43.0367" lon="-0.60511">
        <ele>370.237</ele>
        <time>2016-12-30T21:07:54Z</time>
      </trkpt>
      <trkpt lat="43.0363" lon="-0.60473">
        <ele>369.678</ele>
        <time>2016-12-30T21:08:14Z</time>
      </trkpt>
      <trkpt lat="43.0349" lon="-0.60461">
        <ele>367.127</ele>
        <time>2016-12-30T21:08:34Z</time>
      </trkpt>
      <trkpt lat="43.03444" lon="-0.60522">
        <ele>362.488</ele>
        <time>2016-12-30T21:08:54Z</time>
      </trkpt>
      <trkpt lat="43.03433" lon="-0.60599">
        <ele>366.787</ele>
        <time>2016-12-30T21:09:14Z</time>
      </trkpt>
      <trkpt lat="43.03473" lon="-0.60619">
        <ele>367.542</ele>
        <time>2016-12-30T21:09:34Z</time>
      </trkpt>
      <trkpt lat="43.03456" lon="-0.60659">
        <ele>378.826</ele>
        <time>2016-12-30T21:09:54Z</time>
      </trkpt>
      <trkpt lat="43.03385" lon="-0.60652">
        <ele>377.408</ele>
        <time>2016-12-30T21:10:14Z</time>
      </trkpt>
      <trkpt lat="43.03214" lon="-0.60554">
        <ele>371.175</ele>
        <time>2016-12-30T21:10:34Z</time>
      </trkpt>
      <trkpt lat="43.02997" lon="-0.60462">
        <ele>380.548</ele>
        <time>2016-12-30T21:10:54Z</time>
      </trkpt>
      <trkpt lat="43.02864" lon="-0.60377">
        <ele>389.834</ele>
        <time>2021-04-18T07:58:30Z</time>
      </trkpt>
      <trkpt lat="43.02809" lon="-0.60358">
        <ele>373.343</ele>
        <time>2016-12-30T21:11:14Z</time>
      </trkpt>
      <trkpt lat="43.02671" lon="-0.60332">
        <ele>373.62</ele>
        <time>2016-12-30T21:11:34Z</time>
      </trkpt>
      <trkpt lat="43.02533" lon="-0.6033">
        <ele>385.861</ele>
        <time>2016-12-30T21:11:54Z</time>
      </trkpt>
      <trkpt lat="43.02471" lon="-0.60277">
        <ele>379.86</ele>
        <time>2016-12-30T21:12:14Z</time>
      </trkpt>
      <trkpt lat="43.02417" lon="-0.60291">
        <ele>386.781</ele>
        <time>2016-12-30T21:12:34Z</time>
      </trkpt>
      <trkpt lat="43.02288" lon="-0.60312">
        <ele>390.641</ele>
        <time>2016-12-30T21:12:54Z</time>
      </trkpt>
      <trkpt lat="43.02211" lon="-0.60316">
        <ele>392.481</ele>
        <time>2016-12-30T21:13:14Z</time>
      </trkpt>
      <trkpt lat="43.02158" lon="-0.60342">
        <ele>391.709</ele>
        <time>2016-12-30T21:13:34Z</time>
      </trkpt>
      <trkpt lat="43.02122" lon="-0.60382">
        <ele>392.308</ele>
        <time>2016-12-30T21:13:54Z</time>
      </trkpt>
      <trkpt lat="43.02021" lon="-0.60428">
        <ele>386.481</ele>
        <time>2016-12-30T21:14:14Z</time>
      </trkpt>
      <trkpt lat="43.01896" lon="-0.60443">
        <ele>383.884</ele>
        <time>2016-12-30T21:14:34Z</time>
      </trkpt>
      <trkpt lat="43.0185" lon="-0.60487">
        <ele>390.37</ele>
        <time>2016-12-30T21:14:54Z</time>
      </trkpt>
      <trkpt lat="43.01737" lon="-0.60559">
        <ele>391.269</ele>
        <time>2016-12-30T21:15:14Z</time>
      </trkpt>
      <trkpt lat="43.01651" lon="-0.606">
        <ele>388.986</ele>
        <time>2016-12-30T21:15:34Z</time>
      </trkpt>
      <trkpt lat="43.01566" lon="-0.60653">
        <ele>392.767</ele>
        <time>2016-12-30T21:15:54Z</time>
      </trkpt>
      <trkpt lat="43.01508" lon="-0.60649">
        <ele>391.396</ele>
        <time>2016-12-30T21:16:14Z</time>
      </trkpt>
      <trkpt lat="43.0139" lon="-0.60551">
        <ele>390.027</ele>
        <time>2016-12-30T21:16:34Z</time>
      </trkpt>
      <trkpt lat="43.01279" lon="-0.60511">
        <ele>390.026</ele>
        <time>2016-12-30T21:16:54Z</time>
      </trkpt>
      <trkpt lat="43.01151" lon="-0.60542">
        <ele>394.447</ele>
        <time>2016-12-30T21:17:14Z</time>
      </trkpt>
      <trkpt lat="43.01101" lon="-0.60597">
        <ele>398.211</ele>
        <time>2016-12-30T21:17:34Z</time>
      </trkpt>
      <trkpt lat="43.0103" lon="-0.60629">
        <ele>405.008</ele>
        <time>2016-12-30T21:17:54Z</time>
      </trkpt>
      <trkpt lat="43.00994" lon="-0.60635">
        <ele>405.489</ele>
        <time>2016-12-30T21:18:14Z</time>
      </trkpt>
      <trkpt lat="43.00972" lon="-0.60659">
        <ele>410.622</ele>
        <time>2016-12-30T21:18:34Z</time>
      </trkpt>
      <trkpt lat="43.00902" lon="-0.60672">
        <ele>420.618</ele>
        <time>2016-12-30T21:18:54Z</time>
      </trkpt>
      <trkpt lat="43.00876" lon="-0.60686">
        <ele>428.797</ele>
        <time>2016-12-30T21:19:14Z</time>
      </trkpt>
      <trkpt lat="43.00852" lon="-0.60671">
        <ele>421.764</ele>
        <time>2016-12-30T21:19:34Z</time>
      </trkpt>
      <trkpt lat="43.00805" lon="-0.60664">
        <ele>441.425</ele>
        <time>2021-04-18T08:07:30Z</time>
      </trkpt>
      <trkpt lat="43.0075" lon="-0.60586">
        <ele>425.954</ele>
        <time>2021-04-18T08:07:50Z</time>
      </trkpt>
      <trkpt lat="43.00696" lon="-0.60543">
        <ele>414.925</ele>
        <time>2016-12-30T21:20:34Z</time>
      </trkpt>
      <trkpt lat="43.00524" lon="-0.60565">
        <ele>411.775</ele>
        <time>2016-12-30T21:20:54Z</time>
      </trkpt>
      <trkpt lat="43.00444" lon="-0.60628">
        <ele>412.228</ele>
        <time>2016-12-30T21:21:14Z</time>
      </trkpt>
      <trkpt lat="43.00413" lon="-0.60618">
        <ele>412.52</ele>
        <time>2016-12-30T21:21:34Z</time>
      </trkpt>
      <trkpt lat="43.00265" lon="-0.60747">
        <ele>418.408</ele>
        <time>2016-12-30T21:21:54Z</time>
      </trkpt>
      <trkpt lat="43.0016" lon="-0.60834">
        <ele>422.564</ele>
        <time>2016-12-30T21:22:14Z</time>
      </trkpt>
      <trkpt lat="43.00002" lon="-0.60888">
        <ele>420.077</ele>
        <time>2016-12-30T21:22:34Z</time>
      </trkpt>
      <trkpt lat="42.99925" lon="-0.60892">
        <ele>420.193</ele>
        <time>2016-12-30T21:22:54Z</time>
      </trkpt>
      <trkpt lat="42.99881" lon="-0.60885">
        <ele>420.072</ele>
        <time>2016-12-30T21:23:14Z</time>
      </trkpt>
      <trkpt lat="42.99847" lon="-0.60925">
        <ele>422.339</ele>
        <time>2016-12-30T21:23:34Z</time>
      </trkpt>
      <trkpt lat="42.99781" lon="-0.60969">
        <ele>424.78</ele>
        <time>2016-12-30T21:23:54Z</time>
      </trkpt>
      <trkpt lat="42.99746" lon="-0.60927">
        <ele>419.589</ele>
        <time>2016-12-30T21:24:14Z</time>
      </trkpt>
      <trkpt lat="42.9984" lon="-0.60722">
        <ele>412.94</ele>
        <time>2016-12-30T21:24:34Z</time>
      </trkpt>
      <trkpt lat="42.99888" lon="-0.60684">
        <ele>412.875</ele>
        <time>2021-04-18T08:12:30Z</time>
      </trkpt>
      <trkpt lat="42.99915" lon="-0.60588">
        <ele>412.028</ele>
        <time>2021-04-18T08:12:50Z</time>
      </trkpt>
      <trkpt lat="42.99961" lon="-0.60503">
        <ele>403.92</ele>
        <time>2016-12-30T21:25:34Z</time>
      </trkpt>
      <trkpt lat="42.99929" lon="-0.60363">
        <ele>402.008</ele>
        <time>2016-12-30T21:25:54Z</time>
      </trkpt>
      <trkpt lat="42.99842" lon="-0.6023">
        <ele>408.184</ele>
        <time>2016-12-30T21:26:14Z</time>
      </trkpt>
      <trkpt lat="42.99819" lon="-0.6017">
        <ele>410.087</ele>
        <time>2016-12-30T21:26:34Z</time>
      </trkpt>
      <trkpt lat="42.99832" lon="-0.60107">
        <ele>410.313</ele>
        <time>2016-12-30T21:26:54Z</time>
      </trkpt>
      <trkpt lat="42.9983" lon="-0.60053">
        <ele>411.392</ele>
        <time>2016-12-30T21:27:14Z</time>
      </trkpt>
      <trkpt lat="42.99876" lon="-0.60019">
        <ele>412.319</ele>
        <time>2016-12-30T21:27:34Z</time>
      </trkpt>
      <trkpt lat="42.99857" lon="-0.59982">
        <ele>413.61</ele>
        <time>2016-12-30T21:27:54Z</time>
      </trkpt>
      <trkpt lat="42.9987" lon="-0.59954">
        <ele>414.789</ele>
        <time>2016-12-30T21:28:14Z</time>
      </trkpt>
      <trkpt lat="42.9985" lon="-0.59911">
        <ele>415.15</ele>
        <time>2016-12-30T21:28:34Z</time>
      </trkpt>
      <trkpt lat="42.99825" lon="-0.59882">
        <ele>414.961</ele>
        <time>2016-12-30T21:28:54Z</time>
      </trkpt>
      <trkpt lat="42.99828" lon="-0.59765">
        <ele>418.321</ele>
        <time>2016-12-30T21:29:14Z</time>
      </trkpt>
      <trkpt lat="42.99847" lon="-0.59719">
        <ele>421.713</ele>
        <time>2016-12-30T21:29:34Z</time>
      </trkpt>
      <trkpt lat="42.99843" lon="-0.59668">
        <ele>424.908</ele>
        <time>2016-12-30T21:29:54Z</time>
      </trkpt>
      <trkpt lat="42.99807" lon="-0.59636">
        <ele>423.573</ele>
        <time>2016-12-30T21:30:14Z</time>
      </trkpt>
      <trkpt lat="42.99759" lon="-0.59524">
        <ele>426.536</ele>
        <time>2016-12-30T21:30:34Z</time>
      </trkpt>
      <trkpt lat="42.9969" lon="-0.59439">
        <ele>426.632</ele>
        <time>2016-12-30T21:30:54Z</time>
      </trkpt>
      <trkpt lat="42.99627" lon="-0.5946">
        <ele>424.031</ele>
        <time>2016-12-30T21:31:14Z</time>
      </trkpt>
      <trkpt lat="42.99624" lon="-0.59491">
        <ele>422.928</ele>
        <time>2016-12-30T21:31:34Z</time>
      </trkpt>
      <trkpt lat="42.9954" lon="-0.59499">
        <ele>434.819</ele>
        <time>2016-12-30T21:31:54Z</time>
      </trkpt>
      <trkpt lat="42.99542" lon="-0.59455">
        <ele>439.268</ele>
        <time>2016-12-30T21:32:14Z</time>
      </trkpt>
      <trkpt lat="42.99428" lon="-0.59445">
        <ele>444.189</ele>
        <time>2016-12-30T21:32:34Z</time>
      </trkpt>
      <trkpt lat="42.99272" lon="-0.59363">
        <ele>451.113</ele>
        <time>2016-12-30T21:32:54Z</time>
      </trkpt>
      <trkpt lat="42.99219" lon="-0.59344">
        <ele>456.643</ele>
        <time>2016-12-30T21:33:14Z</time>
      </trkpt>
      <trkpt lat="42.99171" lon="-0.59346">
        <ele>460.007</ele>
        <time>2016-12-30T21:33:34Z</time>
      </trkpt>
      <trkpt lat="42.99114" lon="-0.59337">
        <ele>462.408</ele>
        <time>2016-12-30T21:33:54Z</time>
      </trkpt>
      <trkpt lat="42.99001" lon="-0.59337">
        <ele>469.668</ele>
        <time>2016-12-30T21:34:14Z</time>
      </trkpt>
      <trkpt lat="42.9898" lon="-0.59357">
        <ele>469.321</ele>
        <time>2016-12-30T21:34:34Z</time>
      </trkpt>
      <trkpt lat="42.98982" lon="-0.59401">
        <ele>469.147</ele>
        <time>2016-12-30T21:34:54Z</time>
      </trkpt>
      <trkpt lat="42.98906" lon="-0.59411">
        <ele>472.156</ele>
        <time>2016-12-30T21:35:14Z</time>
      </trkpt>
      <trkpt lat="42.98771" lon="-0.59407">
        <ele>485.063</ele>
        <time>2016-12-30T21:35:34Z</time>
      </trkpt>
      <trkpt lat="42.98759" lon="-0.59415">
        <ele>484.834</ele>
        <time>2016-12-30T21:35:54Z</time>
      </trkpt>
      <trkpt lat="42.98749" lon="-0.59406">
        <ele>485.863</ele>
        <time>2016-12-30T21:36:14Z</time>
      </trkpt>
      <trkpt lat="42.98731" lon="-0.59418">
        <ele>484.974</ele>
        <time>2016-12-30T21:36:34Z</time>
      </trkpt>
      <trkpt lat="42.98712" lon="-0.5948">
        <ele>480.078</ele>
        <time>2016-12-30T21:36:54Z</time>
      </trkpt>
      <trkpt lat="42.98603" lon="-0.59479">
        <ele>475.933</ele>
        <time>2016-12-30T21:37:14Z</time>
      </trkpt>
      <trkpt lat="42.98579" lon="-0.59511">
        <ele>473.726</ele>
        <time>2016-12-30T21:37:34Z</time>
      </trkpt>
      <trkpt lat="42.98521" lon="-0.59519">
        <ele>470.908</ele>
        <time>2016-12-30T21:37:54Z</time>
      </trkpt>
      <trkpt lat="42.98512" lon="-0.59529">
        <ele>469.944</ele>
        <time>2016-12-30T21:38:14Z</time>
      </trkpt>
      <trkpt lat="42.98443" lon="-0.59499">
        <ele>476.377</ele>
        <time>2016-12-30T21:38:34Z</time>
      </trkpt>
      <trkpt lat="42.98393" lon="-0.59517">
        <ele>477.253</ele>
        <time>2016-12-30T21:38:54Z</time>
      </trkpt>
      <trkpt lat="42.98331" lon="-0.5952">
        <ele>477.172</ele>
        <time>2016-12-30T21:39:14Z</time>
      </trkpt>
      <trkpt lat="42.98282" lon="-0.59493">
        <ele>485.599</ele>
        <time>2016-12-30T21:39:34Z</time>
      </trkpt>
      <trkpt lat="42.9824" lon="-0.59489">
        <ele>485.49</ele>
        <time>2016-12-30T21:39:54Z</time>
      </trkpt>
      <trkpt lat="42.98177" lon="-0.5946">
        <ele>483.879</ele>
        <time>2016-12-30T21:40:14Z</time>
      </trkpt>
      <trkpt lat="42.98139" lon="-0.5941">
        <ele>490.74</ele>
        <time>2016-12-30T21:40:34Z</time>
      </trkpt>
      <trkpt lat="42.98078" lon="-0.59376">
        <ele>499.141</ele>
        <time>2016-12-30T21:40:54Z</time>
      </trkpt>
      <trkpt lat="42.98052" lon="-0.5938">
        <ele>502.781</ele>
        <time>2016-12-30T21:41:14Z</time>
      </trkpt>
      <trkpt lat="42.97989" lon="-0.59335">
        <ele>509.009</ele>
        <time>2016-12-30T21:41:34Z</time>
      </trkpt>
      <trkpt lat="42.97934" lon="-0.59271">
        <ele>513.908</ele>
        <time>2021-04-18T08:29:30Z</time>
      </trkpt>
      <trkpt lat="42.97912" lon="-0.59187">
        <ele>510.881</ele>
        <time>2016-12-30T21:42:14Z</time>
      </trkpt>
      <trkpt lat="42.97887" lon="-0.59161">
        <ele>514.834</ele>
        <time>2016-12-30T21:42:34Z</time>
      </trkpt>
      <trkpt lat="42.97861" lon="-0.59126">
        <ele>519.09</ele>
        <time>2016-12-30T21:42:54Z</time>
      </trkpt>
      <trkpt lat="42.97791" lon="-0.59151">
        <ele>520.169</ele>
        <time>2016-12-30T21:43:14Z</time>
      </trkpt>
      <trkpt lat="42.97717" lon="-0.59147">
        <ele>522.766</ele>
        <time>2016-12-30T21:43:34Z</time>
      </trkpt>
      <trkpt lat="42.97662" lon="-0.59161">
        <ele>529.887</ele>
        <time>2016-12-30T21:43:54Z</time>
      </trkpt>
      <trkpt lat="42.97596" lon="-0.59246">
        <ele>530.476</ele>
        <time>2016-12-30T21:44:14Z</time>
      </trkpt>
      <trkpt lat="42.97533" lon="-0.59372">
        <ele>530.257</ele>
        <time>2016-12-30T21:44:34Z</time>
      </trkpt>
      <trkpt lat="42.97508" lon="-0.5949">
        <ele>528.953</ele>
        <time>2016-12-30T21:44:54Z</time>
      </trkpt>
      <trkpt lat="42.97508" lon="-0.59548">
        <ele>527.604</ele>
        <time>2016-12-30T21:45:14Z</time>
      </trkpt>
      <trkpt lat="42.9749" lon="-0.5959">
        <ele>519.114</ele>
        <time>2016-12-30T21:45:34Z</time>
      </trkpt>
      <trkpt lat="42.97476" lon="-0.59639">
        <ele>511.208</ele>
        <time>2021-04-18T08:33:30Z</time>
      </trkpt>
      <trkpt lat="42.97415" lon="-0.59678">
        <ele>496.092</ele>
        <time>2021-04-18T08:33:50Z</time>
      </trkpt>
      <trkpt lat="42.9739" lon="-0.59683">
        <ele>491.895</ele>
        <time>2021-04-18T08:34:10Z</time>
      </trkpt>
      <trkpt lat="42.97379" lon="-0.59711">
        <ele>486.821</ele>
        <time>2021-04-18T08:34:30Z</time>
      </trkpt>
      <trkpt lat="42.97369" lon="-0.59773">
        <ele>479.51</ele>
        <time>2021-04-18T08:34:50Z</time>
      </trkpt>
      <trkpt lat="42.97369" lon="-0.5981">
        <ele>476.937</ele>
        <time>2021-04-18T08:35:10Z</time>
      </trkpt>
      <trkpt lat="42.97398" lon="-0.59847">
        <ele>475.518</ele>
        <time>2021-04-18T08:35:30Z</time>
      </trkpt>
      <trkpt lat="42.97433" lon="-0.59843">
        <ele>475.897</ele>
        <time>2021-04-18T08:35:50Z</time>
      </trkpt>
      <trkpt lat="42.97447" lon="-0.59878">
        <ele>472.858</ele>
        <time>2021-04-18T08:36:10Z</time>
      </trkpt>
      <trkpt lat="42.97456" lon="-0.59929">
        <ele>469.074</ele>
        <time>2021-04-18T08:36:30Z</time>
      </trkpt>
      <trkpt lat="42.9744" lon="-0.59963">
        <ele>467.956</ele>
        <time>2021-04-18T08:36:50Z</time>
      </trkpt>
      <trkpt lat="42.97463" lon="-0.60067">
        <ele>462.121</ele>
        <time>2021-04-18T08:37:10Z</time>
      </trkpt>
      <trkpt lat="42.97462" lon="-0.60109">
        <ele>461.008</ele>
        <time>2021-04-18T08:37:30Z</time>
      </trkpt>
      <trkpt lat="42.97467" lon="-0.60149">
        <ele>459.944</ele>
        <time>2016-12-30T21:49:14Z</time>
      </trkpt>
      <trkpt lat="42.97457" lon="-0.60166">
        <ele>460.037</ele>
        <time>2021-04-18T08:38:10Z</time>
      </trkpt>
      <trkpt lat="42.97424" lon="-0.60189">
        <ele>459.213</ele>
        <time>2021-04-18T08:38:30Z</time>
      </trkpt>
      <trkpt lat="42.97395" lon="-0.60182">
        <ele>456.722</ele>
        <time>2016-12-30T21:49:54Z</time>
      </trkpt>
      <trkpt lat="42.97352" lon="-0.60202">
        <ele>459.879</ele>
        <time>2021-04-18T08:39:10Z</time>
      </trkpt>
      <trkpt lat="42.97374" lon="-0.60376">
        <ele>453.06</ele>
        <time>2016-12-30T21:50:54Z</time>
      </trkpt>
      <trkpt lat="42.97339" lon="-0.60401">
        <ele>454.089</ele>
        <time>2021-04-18T08:39:50Z</time>
      </trkpt>
      <trkpt lat="42.97315" lon="-0.60435">
        <ele>454.12</ele>
        <time>2021-04-18T08:40:10Z</time>
      </trkpt>
      <trkpt lat="42.97279" lon="-0.60466">
        <ele>452.693</ele>
        <time>2021-04-18T08:40:30Z</time>
      </trkpt>
      <trkpt lat="42.97255" lon="-0.60493">
        <ele>449.865</ele>
        <time>2021-04-18T08:40:50Z</time>
      </trkpt>
      <trkpt lat="42.97212" lon="-0.6052">
        <ele>448.421</ele>
        <time>2021-04-18T08:41:10Z</time>
      </trkpt>
      <trkpt lat="42.97094" lon="-0.60556">
        <ele>446.108</ele>
        <time>2021-04-18T08:41:30Z</time>
      </trkpt>
      <trkpt lat="42.97069" lon="-0.60576">
        <ele>445.796</ele>
        <time>2021-04-18T08:41:50Z</time>
      </trkpt>
      <trkpt lat="42.96973" lon="-0.60604">
        <ele>448.079</ele>
        <time>2016-12-30T21:52:34Z</time>
      </trkpt>
      <trkpt lat="42.96945" lon="-0.60606">
        <ele>448.885</ele>
        <time>2021-04-18T08:42:30Z</time>
      </trkpt>
      <trkpt lat="42.9687" lon="-0.60654">
        <ele>452.424</ele>
        <time>2021-04-18T08:42:50Z</time>
      </trkpt>
      <trkpt lat="42.96679" lon="-0.60868">
        <ele>464.491</ele>
        <time>2016-12-30T21:53:34Z</time>
      </trkpt>
      <trkpt lat="42.96613" lon="-0.60904">
        <ele>463.032</ele>
        <time>2016-12-30T21:53:54Z</time>
      </trkpt>
      <trkpt lat="42.96584" lon="-0.60929">
        <ele>458.531</ele>
        <time>2016-12-30T21:54:14Z</time>
      </trkpt>
      <trkpt lat="42.96546" lon="-0.60949">
        <ele>464.122</ele>
        <time>2021-04-18T08:44:10Z</time>
      </trkpt>
      <trkpt lat="42.9652" lon="-0.60955">
        <ele>464.323</ele>
        <time>2021-04-18T08:44:30Z</time>
      </trkpt>
      <trkpt lat="42.96468" lon="-0.60952">
        <ele>471.783</ele>
        <time>2021-04-18T08:44:50Z</time>
      </trkpt>
      <trkpt lat="42.9642" lon="-0.60963">
        <ele>474.511</ele>
        <time>2021-04-18T08:45:10Z</time>
      </trkpt>
      <trkpt lat="42.96393" lon="-0.60983">
        <ele>467.608</ele>
        <time>2021-04-18T08:45:30Z</time>
      </trkpt>
      <trkpt lat="42.96267" lon="-0.60998">
        <ele>472.089</ele>
        <time>2021-04-18T08:45:50Z</time>
      </trkpt>
      <trkpt lat="42.96172" lon="-0.60928">
        <ele>479.542</ele>
        <time>2021-04-18T08:46:10Z</time>
      </trkpt>
      <trkpt lat="42.96111" lon="-0.60926">
        <ele>454.058</ele>
        <time>2016-12-30T21:55:54Z</time>
      </trkpt>
      <trkpt lat="42.95985" lon="-0.60964">
        <ele>478.617</ele>
        <time>2021-04-18T08:46:50Z</time>
      </trkpt>
      <trkpt lat="42.95919" lon="-0.61047">
        <ele>473.074</ele>
        <time>2021-04-18T08:47:10Z</time>
      </trkpt>
      <trkpt lat="42.95797" lon="-0.61107">
        <ele>459.755</ele>
        <time>2016-12-30T21:56:54Z</time>
      </trkpt>
      <trkpt lat="42.95602" lon="-0.61141">
        <ele>476.444</ele>
        <time>2021-04-18T08:47:50Z</time>
      </trkpt>
      <trkpt lat="42.95584" lon="-0.61135">
        <ele>480.985</ele>
        <time>2021-04-18T08:48:10Z</time>
      </trkpt>
      <trkpt lat="42.95551" lon="-0.61149">
        <ele>479.586</ele>
        <time>2016-12-30T21:57:34Z</time>
      </trkpt>
      <trkpt lat="42.95499" lon="-0.61191">
        <ele>496.96</ele>
        <time>2021-04-18T08:48:50Z</time>
      </trkpt>
      <trkpt lat="42.95409" lon="-0.6131">
        <ele>493.126</ele>
        <time>2016-12-30T21:58:14Z</time>
      </trkpt>
      <trkpt lat="42.9532" lon="-0.61394">
        <ele>495.008</ele>
        <time>2021-04-18T08:49:30Z</time>
      </trkpt>
      <trkpt lat="42.95246" lon="-0.61415">
        <ele>505.165</ele>
        <time>2016-12-30T21:58:54Z</time>
      </trkpt>
      <trkpt lat="42.95158" lon="-0.61405">
        <ele>500.168</ele>
        <time>2021-04-18T08:50:10Z</time>
      </trkpt>
      <trkpt lat="42.95075" lon="-0.61409">
        <ele>496.064</ele>
        <time>2016-12-30T21:59:14Z</time>
      </trkpt>
      <trkpt lat="42.94968" lon="-0.61401">
        <ele>495.853</ele>
        <time>2021-04-18T08:50:50Z</time>
      </trkpt>
      <trkpt lat="42.94938" lon="-0.61436">
        <ele>481.18</ele>
        <time>2016-12-30T21:59:54Z</time>
      </trkpt>
      <trkpt lat="42.94899" lon="-0.61438">
        <ele>480.141</ele>
        <time>2016-12-30T22:00:14Z</time>
      </trkpt>
      <trkpt lat="42.94788" lon="-0.61291">
        <ele>504.08</ele>
        <time>2021-04-18T08:51:50Z</time>
      </trkpt>
      <trkpt lat="42.94679" lon="-0.61133">
        <ele>498.091</ele>
        <time>2021-04-18T08:52:10Z</time>
      </trkpt>
      <trkpt lat="42.94638" lon="-0.61196">
        <ele>493.668</ele>
        <time>2016-12-30T22:00:54Z</time>
      </trkpt>
      <trkpt lat="42.94551" lon="-0.61105">
        <ele>496.542</ele>
        <time>2021-04-18T08:52:50Z</time>
      </trkpt>
      <trkpt lat="42.94523" lon="-0.61104">
        <ele>498.226</ele>
        <time>2021-04-18T08:53:10Z</time>
      </trkpt>
      <trkpt lat="42.94434" lon="-0.61147">
        <ele>500.808</ele>
        <time>2021-04-18T08:53:30Z</time>
      </trkpt>
      <trkpt lat="42.94409" lon="-0.61144">
        <ele>498.893</ele>
        <time>2021-04-18T08:53:50Z</time>
      </trkpt>
      <trkpt lat="42.9444" lon="-0.61079">
        <ele>496.946</ele>
        <time>2021-04-18T08:54:10Z</time>
      </trkpt>
      <trkpt lat="42.94424" lon="-0.61064">
        <ele>499.572</ele>
        <time>2021-04-18T08:54:30Z</time>
      </trkpt>
      <trkpt lat="42.94387" lon="-0.6109">
        <ele>501.351</ele>
        <time>2016-12-30T22:02:34Z</time>
      </trkpt>
      <trkpt lat="42.94355" lon="-0.61052">
        <ele>504.958</ele>
        <time>2016-12-30T22:02:54Z</time>
      </trkpt>
      <trkpt lat="42.94345" lon="-0.61001">
        <ele>512.799</ele>
        <time>2016-12-30T22:03:14Z</time>
      </trkpt>
      <trkpt lat="42.94309" lon="-0.60977">
        <ele>515.558</ele>
        <time>2016-12-30T22:03:34Z</time>
      </trkpt>
      <trkpt lat="42.94277" lon="-0.60967">
        <ele>527.479</ele>
        <time>2016-12-30T22:03:54Z</time>
      </trkpt>
      <trkpt lat="42.94243" lon="-0.60854">
        <ele>527.123</ele>
        <time>2021-04-18T08:56:30Z</time>
      </trkpt>
      <trkpt lat="42.94221" lon="-0.60831">
        <ele>536.183</ele>
        <time>2021-04-18T08:56:50Z</time>
      </trkpt>
      <trkpt lat="42.94249" lon="-0.60833">
        <ele>519.511</ele>
        <time>2021-04-18T08:57:10Z</time>
      </trkpt>
      <trkpt lat="42.94235" lon="-0.60793">
        <ele>520.008</ele>
        <time>2021-04-18T08:57:30Z</time>
      </trkpt>
      <trkpt lat="42.94254" lon="-0.60754">
        <ele>507.479</ele>
        <time>2021-04-18T08:57:50Z</time>
      </trkpt>
      <trkpt lat="42.94136" lon="-0.60607">
        <ele>507.182</ele>
        <time>2016-12-30T22:04:54Z</time>
      </trkpt>
      <trkpt lat="42.94126" lon="-0.60579">
        <ele>502.778</ele>
        <time>2016-12-30T22:05:14Z</time>
      </trkpt>
      <trkpt lat="42.94032" lon="-0.60417">
        <ele>500.097</ele>
        <time>2016-12-30T22:05:34Z</time>
      </trkpt>
      <trkpt lat="42.93956" lon="-0.60216">
        <ele>506.954</ele>
        <time>2016-12-30T22:05:54Z</time>
      </trkpt>
      <trkpt lat="42.93898" lon="-0.60139">
        <ele>509.765</ele>
        <time>2016-12-30T22:06:14Z</time>
      </trkpt>
      <trkpt lat="42.93863" lon="-0.60127">
        <ele>520.654</ele>
        <time>2016-12-30T22:06:34Z</time>
      </trkpt>
      <trkpt lat="42.93819" lon="-0.59964">
        <ele>531.995</ele>
        <time>2021-04-18T09:00:10Z</time>
      </trkpt>
      <trkpt lat="42.93834" lon="-0.59763">
        <ele>532.021</ele>
        <time>2016-12-30T22:07:14Z</time>
      </trkpt>
      <trkpt lat="42.9386" lon="-0.59709">
        <ele>526.841</ele>
        <time>2016-12-30T22:07:34Z</time>
      </trkpt>
      <trkpt lat="42.93882" lon="-0.59614">
        <ele>525.605</ele>
        <time>2016-12-30T22:07:54Z</time>
      </trkpt>
      <trkpt lat="42.93848" lon="-0.59445">
        <ele>522.308</ele>
        <time>2016-12-30T22:08:14Z</time>
      </trkpt>
      <trkpt lat="42.93785" lon="-0.59351">
        <ele>521.469</ele>
        <time>2016-12-30T22:08:34Z</time>
      </trkpt>
      <trkpt lat="42.9369" lon="-0.59215">
        <ele>532.752</ele>
        <time>2021-04-18T09:02:10Z</time>
      </trkpt>
      <trkpt lat="42.93667" lon="-0.59149">
        <ele>526.198</ele>
        <time>2021-04-18T09:02:30Z</time>
      </trkpt>
      <trkpt lat="42.93614" lon="-0.59083">
        <ele>536.647</ele>
        <time>2021-04-18T09:02:50Z</time>
      </trkpt>
      <trkpt lat="42.9358" lon="-0.59075">
        <ele>547.114</ele>
        <time>2021-04-18T09:03:10Z</time>
      </trkpt>
      <trkpt lat="42.93561" lon="-0.59005">
        <ele>541.625</ele>
        <time>2021-04-18T09:03:30Z</time>
      </trkpt>
      <trkpt lat="42.93459" lon="-0.58787">
        <ele>540.594</ele>
        <time>2016-12-30T22:10:14Z</time>
      </trkpt>
      <trkpt lat="42.93354" lon="-0.58696">
        <ele>541.125</ele>
        <time>2016-12-30T22:10:34Z</time>
      </trkpt>
      <trkpt lat="42.9334" lon="-0.58667">
        <ele>541.091</ele>
        <time>2016-12-30T22:10:54Z</time>
      </trkpt>
      <trkpt lat="42.93256" lon="-0.58642">
        <ele>552.281</ele>
        <time>2016-12-30T22:11:14Z</time>
      </trkpt>
      <trkpt lat="42.93191" lon="-0.58573">
        <ele>562.619</ele>
        <time>2016-12-30T22:11:34Z</time>
      </trkpt>
      <trkpt lat="42.93144" lon="-0.58536">
        <ele>571.008</ele>
        <time>2016-12-30T22:11:54Z</time>
      </trkpt>
      <trkpt lat="42.93073" lon="-0.58428">
        <ele>570.916</ele>
        <time>2021-04-18T09:05:50Z</time>
      </trkpt>
      <trkpt lat="42.93008" lon="-0.58349">
        <ele>574.769</ele>
        <time>2016-12-30T22:12:34Z</time>
      </trkpt>
      <trkpt lat="42.92973" lon="-0.58292">
        <ele>558.025</ele>
        <time>2016-12-30T22:12:54Z</time>
      </trkpt>
      <trkpt lat="42.92925" lon="-0.58284">
        <ele>569.674</ele>
        <time>2016-12-30T22:13:14Z</time>
      </trkpt>
      <trkpt lat="42.92903" lon="-0.58261">
        <ele>562.771</ele>
        <time>2016-12-30T22:13:34Z</time>
      </trkpt>
      <trkpt lat="42.92886" lon="-0.58273">
        <ele>572.362</ele>
        <time>2016-12-30T22:13:54Z</time>
      </trkpt>
      <trkpt lat="42.92831" lon="-0.58237">
        <ele>571.491</ele>
        <time>2016-12-30T22:14:14Z</time>
      </trkpt>
      <trkpt lat="42.92802" lon="-0.58198">
        <ele>561.292</ele>
        <time>2016-12-30T22:14:34Z</time>
      </trkpt>
      <trkpt lat="42.92746" lon="-0.58177">
        <ele>565.258</ele>
        <time>2016-12-30T22:14:54Z</time>
      </trkpt>
      <trkpt lat="42.9269" lon="-0.58135">
        <ele>558.652</ele>
        <time>2016-12-30T22:15:14Z</time>
      </trkpt>
      <trkpt lat="42.9267" lon="-0.58155">
        <ele>564.817</ele>
        <time>2016-12-30T22:15:34Z</time>
      </trkpt>
      <trkpt lat="42.9262" lon="-0.58086">
        <ele>555.408</ele>
        <time>2016-12-30T22:15:54Z</time>
      </trkpt>
      <trkpt lat="42.9246" lon="-0.58012">
        <ele>556.092</ele>
        <time>2016-12-30T22:16:14Z</time>
      </trkpt>
      <trkpt lat="42.9243" lon="-0.58003">
        <ele>559.025</ele>
        <time>2016-12-30T22:16:34Z</time>
      </trkpt>
      <trkpt lat="42.92424" lon="-0.57968">
        <ele>558.181</ele>
        <time>2016-12-30T22:17:14Z</time>
      </trkpt>
      <trkpt lat="42.92367" lon="-0.57926">
        <ele>561.08</ele>
        <time>2016-12-30T22:17:34Z</time>
      </trkpt>
      <trkpt lat="42.92307" lon="-0.57867">
        <ele>564.587</ele>
        <time>2016-12-30T22:17:54Z</time>
      </trkpt>
      <trkpt lat="42.92208" lon="-0.5783">
        <ele>567.798</ele>
        <time>2016-12-30T22:18:14Z</time>
      </trkpt>
      <trkpt lat="42.92146" lon="-0.57775">
        <ele>571.217</ele>
        <time>2016-12-30T22:18:34Z</time>
      </trkpt>
      <trkpt lat="42.92069" lon="-0.57753">
        <ele>576.428</ele>
        <time>2021-04-18T09:12:10Z</time>
      </trkpt>
      <trkpt lat="42.91896" lon="-0.57638">
        <ele>577.335</ele>
        <time>2016-12-30T22:19:14Z</time>
      </trkpt>
      <trkpt lat="42.91802" lon="-0.57598">
        <ele>581.586</ele>
        <time>2016-12-30T22:19:34Z</time>
      </trkpt>
      <trkpt lat="42.91613" lon="-0.57533">
        <ele>587.514</ele>
        <time>2016-12-30T22:19:54Z</time>
      </trkpt>
      <trkpt lat="42.91547" lon="-0.575">
        <ele>591.708</ele>
        <time>2021-04-18T09:13:30Z</time>
      </trkpt>
      <trkpt lat="42.91538" lon="-0.57521">
        <ele>593.21</ele>
        <time>2016-12-30T22:20:34Z</time>
      </trkpt>
      <trkpt lat="42.91509" lon="-0.57493">
        <ele>597.323</ele>
        <time>2021-04-18T09:14:10Z</time>
      </trkpt>
      <trkpt lat="42.91427" lon="-0.57472">
        <ele>602.969</ele>
        <time>2016-12-30T22:21:14Z</time>
      </trkpt>
      <trkpt lat="42.91389" lon="-0.57434">
        <ele>603.268</ele>
        <time>2016-12-30T22:21:34Z</time>
      </trkpt>
      <trkpt lat="42.913" lon="-0.57419">
        <ele>618.235</ele>
        <time>2021-04-18T09:15:10Z</time>
      </trkpt>
      <trkpt lat="42.9124" lon="-0.57427">
        <ele>629.796</ele>
        <time>2021-04-18T09:15:30Z</time>
      </trkpt>
      <trkpt lat="42.91156" lon="-0.57403">
        <ele>629.115</ele>
        <time>2016-12-30T22:23:14Z</time>
      </trkpt>
      <trkpt lat="42.91119" lon="-0.57353">
        <ele>627.956</ele>
        <time>2016-12-30T22:23:34Z</time>
      </trkpt>
      <trkpt lat="42.91096" lon="-0.57345">
        <ele>632.251</ele>
        <time>2016-12-30T22:23:54Z</time>
      </trkpt>
      <trkpt lat="42.91004" lon="-0.57381">
        <ele>645.801</ele>
        <time>2016-12-30T22:24:14Z</time>
      </trkpt>
      <trkpt lat="42.91032" lon="-0.57301">
        <ele>626.211</ele>
        <time>2016-12-30T22:24:34Z</time>
      </trkpt>
      <trkpt lat="42.91056" lon="-0.57243">
        <ele>613.708</ele>
        <time>2016-12-30T22:24:54Z</time>
      </trkpt>
      <trkpt lat="42.91105" lon="-0.57231">
        <ele>607.892</ele>
        <time>2016-12-30T22:25:14Z</time>
      </trkpt>
      <trkpt lat="42.91136" lon="-0.57232">
        <ele>599.795</ele>
        <time>2016-12-30T22:25:34Z</time>
      </trkpt>
      <trkpt lat="42.91143" lon="-0.57201">
        <ele>591.261</ele>
        <time>2016-12-30T22:25:54Z</time>
      </trkpt>
      <trkpt lat="42.91051" lon="-0.57108">
        <ele>590.53</ele>
        <time>2016-12-30T22:26:14Z</time>
      </trkpt>
      <trkpt lat="42.9107" lon="-0.57028">
        <ele>607.917</ele>
        <time>2016-12-30T22:26:34Z</time>
      </trkpt>
      <trkpt lat="42.90862" lon="-0.5697">
        <ele>614.078</ele>
        <time>2016-12-30T22:26:54Z</time>
      </trkpt>
      <trkpt lat="42.90697" lon="-0.56928">
        <ele>625.167</ele>
        <time>2016-12-30T22:27:14Z</time>
      </trkpt>
      <trkpt lat="42.90538" lon="-0.56926">
        <ele>624.358</ele>
        <time>2016-12-30T22:27:34Z</time>
      </trkpt>
      <trkpt lat="42.90418" lon="-0.56947">
        <ele>625.227</ele>
        <time>2016-12-30T22:27:54Z</time>
      </trkpt>
      <trkpt lat="42.90272" lon="-0.56915">
        <ele>627.268</ele>
        <time>2016-12-30T22:28:14Z</time>
      </trkpt>
      <trkpt lat="42.90216" lon="-0.56853">
        <ele>619.514</ele>
        <time>2016-12-30T22:28:34Z</time>
      </trkpt>
      <trkpt lat="42.90098" lon="-0.56752">
        <ele>629.408</ele>
        <time>2016-12-30T22:28:54Z</time>
      </trkpt>
      <trkpt lat="42.89968" lon="-0.56712">
        <ele>662.419</ele>
        <time>2016-12-30T22:29:14Z</time>
      </trkpt>
      <trkpt lat="42.89914" lon="-0.56744">
        <ele>644.462</ele>
        <time>2016-12-30T22:29:34Z</time>
      </trkpt>
      <trkpt lat="42.89879" lon="-0.56802">
        <ele>631.148</ele>
        <time>2016-12-30T22:29:54Z</time>
      </trkpt>
      <trkpt lat="42.89787" lon="-0.56758">
        <ele>634.847</ele>
        <time>2016-12-30T22:30:14Z</time>
      </trkpt>
      <trkpt lat="42.89786" lon="-0.56758">
        <ele>634.974</ele>
        <time>2016-12-30T22:30:34Z</time>
      </trkpt>
      <trkpt lat="42.89688" lon="-0.56683">
        <ele>644.065</ele>
        <time>2016-12-30T22:30:54Z</time>
      </trkpt>
      <trkpt lat="42.89548" lon="-0.56623">
        <ele>653.264</ele>
        <time>2016-12-30T22:31:14Z</time>
      </trkpt>
      <trkpt lat="42.89444" lon="-0.56461">
        <ele>653.655</ele>
        <time>2016-12-30T22:31:34Z</time>
      </trkpt>
      <trkpt lat="42.89352" lon="-0.56471">
        <ele>655.589</ele>
        <time>2016-12-30T22:31:54Z</time>
      </trkpt>
      <trkpt lat="42.89263" lon="-0.56412">
        <ele>654.306</ele>
        <time>2016-12-30T22:32:14Z</time>
      </trkpt>
      <trkpt lat="42.89191" lon="-0.56455">
        <ele>666.026</ele>
        <time>2016-12-30T22:32:34Z</time>
      </trkpt>
      <trkpt lat="42.8911" lon="-0.56448">
        <ele>665.808</ele>
        <time>2016-12-30T22:32:54Z</time>
      </trkpt>
      <trkpt lat="42.89035" lon="-0.56385">
        <ele>674.875</ele>
        <time>2016-12-30T22:34:14Z</time>
      </trkpt>
      <trkpt lat="42.88985" lon="-0.56319">
        <ele>667.858</ele>
        <time>2016-12-30T22:34:54Z</time>
      </trkpt>
      <trkpt lat="42.88895" lon="-0.56324">
        <ele>680.394</ele>
        <time>2016-12-30T22:35:34Z</time>
      </trkpt>
      <trkpt lat="42.88805" lon="-0.56319">
        <ele>679.283</ele>
        <time>2016-12-30T22:35:54Z</time>
      </trkpt>
      <trkpt lat="42.88747" lon="-0.56293">
        <ele>674.32</ele>
        <time>2016-12-30T22:36:14Z</time>
      </trkpt>
      <trkpt lat="42.88725" lon="-0.56323">
        <ele>687.661</ele>
        <time>2016-12-30T22:36:34Z</time>
      </trkpt>
      <trkpt lat="42.88644" lon="-0.56349">
        <ele>692.14</ele>
        <time>2016-12-30T22:36:54Z</time>
      </trkpt>
      <trkpt lat="42.8858" lon="-0.56332">
        <ele>694.881</ele>
        <time>2016-12-30T22:37:14Z</time>
      </trkpt>
      <trkpt lat="42.88526" lon="-0.56343">
        <ele>698.072</ele>
        <time>2016-12-30T22:39:34Z</time>
      </trkpt>
      <trkpt lat="42.88493" lon="-0.56306">
        <ele>692.913</ele>
        <time>2016-12-30T22:39:54Z</time>
      </trkpt>
      <trkpt lat="42.88454" lon="-0.56306">
        <ele>697.714</ele>
        <time>2016-12-30T22:40:14Z</time>
      </trkpt>
      <trkpt lat="42.88401" lon="-0.56255">
        <ele>699.808</ele>
        <time>2016-12-30T22:40:34Z</time>
      </trkpt>
      <trkpt lat="42.88372" lon="-0.56166">
        <ele>729.464</ele>
        <time>2016-12-30T22:41:14Z</time>
      </trkpt>
      <trkpt lat="42.8822" lon="-0.56059">
        <ele>710.057</ele>
        <time>2016-12-30T22:41:34Z</time>
      </trkpt>
      <trkpt lat="42.88176" lon="-0.55985">
        <ele>717.393</ele>
        <time>2016-12-30T22:41:54Z</time>
      </trkpt>
      <trkpt lat="42.88035" lon="-0.5589">
        <ele>718.762</ele>
        <time>2016-12-30T22:42:14Z</time>
      </trkpt>
      <trkpt lat="42.87995" lon="-0.55874">
        <ele>718.359</ele>
        <time>2016-12-30T22:42:34Z</time>
      </trkpt>
      <trkpt lat="42.87818" lon="-0.55752">
        <ele>725.42</ele>
        <time>2016-12-30T22:42:54Z</time>
      </trkpt>
      <trkpt lat="42.87774" lon="-0.5567">
        <ele>735.819</ele>
        <time>2016-12-30T22:43:14Z</time>
      </trkpt>
      <trkpt lat="42.87709" lon="-0.55633">
        <ele>730.17</ele>
        <time>2016-12-30T22:43:34Z</time>
      </trkpt>
      <trkpt lat="42.87623" lon="-0.55598">
        <ele>733.134</ele>
        <time>2016-12-30T22:43:54Z</time>
      </trkpt>
      <trkpt lat="42.87388" lon="-0.55534">
        <ele>758.655</ele>
        <time>2016-12-30T22:44:14Z</time>
      </trkpt>
      <trkpt lat="42.8727" lon="-0.55538">
        <ele>761.61</ele>
        <time>2016-12-30T22:44:34Z</time>
      </trkpt>
      <trkpt lat="42.87273" lon="-0.55485">
        <ele>769.108</ele>
        <time>2016-12-30T22:44:54Z</time>
      </trkpt>
      <trkpt lat="42.87282" lon="-0.5548">
        <ele>769.99</ele>
        <time>2016-12-30T22:45:14Z</time>
      </trkpt>
      <trkpt lat="42.87282" lon="-0.55455">
        <ele>773.583</ele>
        <time>2016-12-30T22:45:34Z</time>
      </trkpt>
      <trkpt lat="42.87138" lon="-0.55437">
        <ele>779.929</ele>
        <time>2016-12-30T22:45:54Z</time>
      </trkpt>
      <trkpt lat="42.87118" lon="-0.55428">
        <ele>779.718</ele>
        <time>2016-12-30T22:46:14Z</time>
      </trkpt>
      <trkpt lat="42.8711" lon="-0.5544">
        <ele>776.555</ele>
        <time>2016-12-30T22:46:34Z</time>
      </trkpt>
      <trkpt lat="42.87122" lon="-0.55459">
        <ele>774.976</ele>
        <time>2016-12-30T22:46:54Z</time>
      </trkpt>
      <trkpt lat="42.87094" lon="-0.55459">
        <ele>771.665</ele>
        <time>2016-12-30T22:47:14Z</time>
      </trkpt>
      <trkpt lat="42.87094" lon="-0.55428">
        <ele>775.976</ele>
        <time>2016-12-30T22:47:34Z</time>
      </trkpt>
      <trkpt lat="42.87078" lon="-0.55426">
        <ele>773.029</ele>
        <time>2016-12-30T22:47:54Z</time>
      </trkpt>
      <trkpt lat="42.8707" lon="-0.55419">
        <ele>772.2</ele>
        <time>2016-12-30T22:48:14Z</time>
      </trkpt>
      <trkpt lat="42.86997" lon="-0.55314">
        <ele>769.32</ele>
        <time>2016-12-30T22:48:34Z</time>
      </trkpt>
      <trkpt lat="42.86904" lon="-0.55256">
        <ele>764.708</ele>
        <time>2016-12-30T22:48:54Z</time>
      </trkpt>
      <trkpt lat="42.86863" lon="-0.55239">
        <ele>764.349</ele>
        <time>2016-12-30T22:49:14Z</time>
      </trkpt>
      <trkpt lat="42.8683" lon="-0.55206">
        <ele>767.272</ele>
        <time>2016-12-30T22:49:34Z</time>
      </trkpt>
      <trkpt lat="42.86813" lon="-0.55235">
        <ele>764.728</ele>
        <time>2016-12-30T22:49:54Z</time>
      </trkpt>
      <trkpt lat="42.8678" lon="-0.55233">
        <ele>765.654</ele>
        <time>2016-12-30T22:50:34Z</time>
      </trkpt>
      <trkpt lat="42.86774" lon="-0.55256">
        <ele>764.865</ele>
        <time>2016-12-30T22:50:54Z</time>
      </trkpt>
      <trkpt lat="42.86778" lon="-0.55297">
        <ele>763.244</ele>
        <time>2016-12-30T22:51:14Z</time>
      </trkpt>
      <trkpt lat="42.86724" lon="-0.55291">
        <ele>765.025</ele>
        <time>2016-12-30T22:51:34Z</time>
      </trkpt>
      <trkpt lat="42.86686" lon="-0.55321">
        <ele>765.947</ele>
        <time>2016-12-30T22:51:54Z</time>
      </trkpt>
      <trkpt lat="42.86692" lon="-0.55343">
        <ele>765.229</ele>
        <time>2016-12-30T22:52:14Z</time>
      </trkpt>
      <trkpt lat="42.86621" lon="-0.55357">
        <ele>768.721</ele>
        <time>2016-12-30T22:52:34Z</time>
      </trkpt>
      <trkpt lat="42.86613" lon="-0.55371">
        <ele>769.908</ele>
        <time>2016-12-30T22:52:54Z</time>
      </trkpt>
      <trkpt lat="42.866" lon="-0.55376">
        <ele>773.341</ele>
        <time>2016-12-30T22:53:14Z</time>
      </trkpt>
      <trkpt lat="42.86602" lon="-0.55396">
        <ele>776.674</ele>
        <time>2016-12-30T22:53:34Z</time>
      </trkpt>
      <trkpt lat="42.86535" lon="-0.55393">
        <ele>795.79</ele>
        <time>2016-12-30T22:53:54Z</time>
      </trkpt>
      <trkpt lat="42.86514" lon="-0.55411">
        <ele>813.969</ele>
        <time>2016-12-30T22:54:14Z</time>
      </trkpt>
      <trkpt lat="42.86425" lon="-0.55379">
        <ele>809.446</ele>
        <time>2016-12-30T22:54:34Z</time>
      </trkpt>
      <trkpt lat="42.86401" lon="-0.55391">
        <ele>821.937</ele>
        <time>2016-12-30T22:54:54Z</time>
      </trkpt>
      <trkpt lat="42.86376" lon="-0.55385">
        <ele>821.156</ele>
        <time>2016-12-30T22:55:14Z</time>
      </trkpt>
      <trkpt lat="42.86365" lon="-0.55399">
        <ele>829.367</ele>
        <time>2016-12-30T22:55:34Z</time>
      </trkpt>
      <trkpt lat="42.86319" lon="-0.554">
        <ele>825.094</ele>
        <time>2016-12-30T22:55:54Z</time>
      </trkpt>
      <trkpt lat="42.86255" lon="-0.5546">
        <ele>844.557</ele>
        <time>2016-12-30T22:56:14Z</time>
      </trkpt>
      <trkpt lat="42.86201" lon="-0.55445">
        <ele>831.122</ele>
        <time>2016-12-30T22:56:34Z</time>
      </trkpt>
      <trkpt lat="42.86016" lon="-0.55314">
        <ele>848.308</ele>
        <time>2016-12-30T22:56:54Z</time>
      </trkpt>
      <trkpt lat="42.85939" lon="-0.55248">
        <ele>846.736</ele>
        <time>2016-12-30T22:57:14Z</time>
      </trkpt>
      <trkpt lat="42.85758" lon="-0.55218">
        <ele>850.379</ele>
        <time>2016-12-30T22:57:34Z</time>
      </trkpt>
      <trkpt lat="42.85726" lon="-0.55194">
        <ele>848.395</ele>
        <time>2016-12-30T22:57:54Z</time>
      </trkpt>
      <trkpt lat="42.85714" lon="-0.55153">
        <ele>835.934</ele>
        <time>2016-12-30T22:58:14Z</time>
      </trkpt>
      <trkpt lat="42.85629" lon="-0.5513">
        <ele>838.751</ele>
        <time>2016-12-30T22:58:34Z</time>
      </trkpt>
      <trkpt lat="42.8553" lon="-0.5513">
        <ele>853.052</ele>
        <time>2016-12-30T22:58:54Z</time>
      </trkpt>
      <trkpt lat="42.85493" lon="-0.55149">
        <ele>861.011</ele>
        <time>2016-12-30T22:59:14Z</time>
      </trkpt>
      <trkpt lat="42.85415" lon="-0.55165">
        <ele>872.742</ele>
        <time>2021-04-18T09:48:10Z</time>
      </trkpt>
      <trkpt lat="42.85365" lon="-0.55193">
        <ele>881.669</ele>
        <time>2021-04-18T09:48:30Z</time>
      </trkpt>
      <trkpt lat="42.85336" lon="-0.55188">
        <ele>882.004</ele>
        <time>2021-04-18T09:48:50Z</time>
      </trkpt>
      <trkpt lat="42.8532" lon="-0.55177">
        <ele>878.924</ele>
        <time>2021-04-18T09:49:10Z</time>
      </trkpt>
      <trkpt lat="42.85288" lon="-0.55186">
        <ele>880.308</ele>
        <time>2021-04-18T09:49:30Z</time>
      </trkpt>
      <trkpt lat="42.85273" lon="-0.55198">
        <ele>879.283</ele>
        <time>2016-12-30T23:00:34Z</time>
      </trkpt>
      <trkpt lat="42.85248" lon="-0.55198">
        <ele>874.022</ele>
        <time>2016-12-30T23:01:14Z</time>
      </trkpt>
      <trkpt lat="42.85246" lon="-0.55204">
        <ele>876.361</ele>
        <time>2016-12-30T23:01:34Z</time>
      </trkpt>
      <trkpt lat="42.85231" lon="-0.55213">
        <ele>877.698</ele>
        <time>2016-12-30T23:01:54Z</time>
      </trkpt>
      <trkpt lat="42.85212" lon="-0.55249">
        <ele>885.859</ele>
        <time>2016-12-30T23:02:14Z</time>
      </trkpt>
      <trkpt lat="42.85175" lon="-0.55234">
        <ele>883.598</ele>
        <time>2016-12-30T23:02:34Z</time>
      </trkpt>
      <trkpt lat="42.85157" lon="-0.55264">
        <ele>893.769</ele>
        <time>2016-12-30T23:02:54Z</time>
      </trkpt>
      <trkpt lat="42.85108" lon="-0.55311">
        <ele>894.726</ele>
        <time>2016-12-30T23:03:14Z</time>
      </trkpt>
      <trkpt lat="42.85073" lon="-0.55328">
        <ele>893.647</ele>
        <time>2016-12-30T23:03:34Z</time>
      </trkpt>
      <trkpt lat="42.85048" lon="-0.55367">
        <ele>913.811</ele>
        <time>2021-04-18T09:53:10Z</time>
      </trkpt>
      <trkpt lat="42.84999" lon="-0.55358">
        <ele>893.508</ele>
        <time>2016-12-30T23:04:14Z</time>
      </trkpt>
      <trkpt lat="42.84973" lon="-0.55326">
        <ele>888.769</ele>
        <time>2016-12-30T23:04:34Z</time>
      </trkpt>
      <trkpt lat="42.84916" lon="-0.5532">
        <ele>887.652</ele>
        <time>2016-12-30T23:04:54Z</time>
      </trkpt>
      <trkpt lat="42.84851" lon="-0.5541">
        <ele>897.988</ele>
        <time>2016-12-30T23:05:14Z</time>
      </trkpt>
      <trkpt lat="42.84785" lon="-0.55425">
        <ele>902.417</ele>
        <time>2016-12-30T23:05:34Z</time>
      </trkpt>
      <trkpt lat="42.84782" lon="-0.5544">
        <ele>904.354</ele>
        <time>2016-12-30T23:05:54Z</time>
      </trkpt>
      <trkpt lat="42.84809" lon="-0.55459">
        <ele>906.765</ele>
        <time>2016-12-30T23:06:14Z</time>
      </trkpt>
      <trkpt lat="42.84793" lon="-0.55491">
        <ele>914.344</ele>
        <time>2016-12-30T23:06:34Z</time>
      </trkpt>
      <trkpt lat="42.84739" lon="-0.55508">
        <ele>934.145</ele>
        <time>2021-04-18T09:56:10Z</time>
      </trkpt>
      <trkpt lat="42.84713" lon="-0.55543">
        <ele>931.287</ele>
        <time>2016-12-30T23:07:14Z</time>
      </trkpt>
      <trkpt lat="42.84677" lon="-0.55592">
        <ele>961.442</ele>
        <time>2021-04-18T09:56:50Z</time>
      </trkpt>
      <trkpt lat="42.84639" lon="-0.55616">
        <ele>967.426</ele>
        <time>2021-04-18T09:57:10Z</time>
      </trkpt>
      <trkpt lat="42.84623" lon="-0.55661">
        <ele>961.208</ele>
        <time>2016-12-30T23:07:34Z</time>
      </trkpt>
      <trkpt lat="42.84603" lon="-0.55637">
        <ele>971.025</ele>
        <time>2021-04-18T09:57:50Z</time>
      </trkpt>
      <trkpt lat="42.84573" lon="-0.55632">
        <ele>967.088</ele>
        <time>2021-04-18T09:58:10Z</time>
      </trkpt>
      <trkpt lat="42.84576" lon="-0.5568">
        <ele>964.234</ele>
        <time>2016-12-30T23:08:14Z</time>
      </trkpt>
      <trkpt lat="42.84554" lon="-0.55685">
        <ele>967.393</ele>
        <time>2016-12-30T23:08:34Z</time>
      </trkpt>
      <trkpt lat="42.84525" lon="-0.55765">
        <ele>1000.62</ele>
        <time>2021-04-18T09:59:10Z</time>
      </trkpt>
      <trkpt lat="42.84493" lon="-0.55798">
        <ele>994.221</ele>
        <time>2016-12-30T23:09:14Z</time>
      </trkpt>
      <trkpt lat="42.8449" lon="-0.55893">
        <ele>1012.33</ele>
        <time>2016-12-30T23:09:34Z</time>
      </trkpt>
      <trkpt lat="42.84489" lon="-0.55931">
        <ele>1043.891</ele>
        <time>2021-04-18T10:00:10Z</time>
      </trkpt>
      <trkpt lat="42.8447" lon="-0.55942">
        <ele>1046.639</ele>
        <time>2021-04-18T10:00:30Z</time>
      </trkpt>
      <trkpt lat="42.84447" lon="-0.55931">
        <ele>1022.701</ele>
        <time>2016-12-30T23:10:14Z</time>
      </trkpt>
      <trkpt lat="42.84376" lon="-0.55996">
        <ele>1042.221</ele>
        <time>2016-12-30T23:10:34Z</time>
      </trkpt>
      <trkpt lat="42.84345" lon="-0.5604">
        <ele>1068.708</ele>
        <time>2021-04-18T10:01:30Z</time>
      </trkpt>
      <trkpt lat="42.8433" lon="-0.56076">
        <ele>1080.54</ele>
        <time>2021-04-18T10:01:50Z</time>
      </trkpt>
      <trkpt lat="42.84296" lon="-0.56087">
        <ele>1084.883</ele>
        <time>2021-04-18T10:02:10Z</time>
      </trkpt>
      <trkpt lat="42.84243" lon="-0.56054">
        <ele>1066.589</ele>
        <time>2016-12-30T23:11:34Z</time>
      </trkpt>
      <trkpt lat="42.84073" lon="-0.56167">
        <ele>1065.158</ele>
        <time>2016-12-30T23:11:54Z</time>
      </trkpt>
      <trkpt lat="42.84021" lon="-0.56227">
        <ele>1069.385</ele>
        <time>2016-12-30T23:12:14Z</time>
      </trkpt>
      <trkpt lat="42.83935" lon="-0.56258">
        <ele>1076.316</ele>
        <time>2021-04-18T10:03:30Z</time>
      </trkpt>
      <trkpt lat="42.8392" lon="-0.56298">
        <ele>1063.615</ele>
        <time>2016-12-30T23:12:54Z</time>
      </trkpt>
      <trkpt lat="42.83922" lon="-0.56331">
        <ele>1092.276</ele>
        <time>2021-04-18T10:04:10Z</time>
      </trkpt>
      <trkpt lat="42.83915" lon="-0.56348">
        <ele>1071.826</ele>
        <time>2016-12-30T23:13:14Z</time>
      </trkpt>
      <trkpt lat="42.83878" lon="-0.56298">
        <ele>1063.347</ele>
        <time>2016-12-30T23:13:34Z</time>
      </trkpt>
      <trkpt lat="42.83823" lon="-0.5631">
        <ele>1082.911</ele>
        <time>2021-04-18T10:05:10Z</time>
      </trkpt>
      <trkpt lat="42.83802" lon="-0.56326">
        <ele>1088.308</ele>
        <time>2021-04-18T10:05:30Z</time>
      </trkpt>
      <trkpt lat="42.8367" lon="-0.56288">
        <ele>1083.029</ele>
        <time>2021-04-18T10:05:50Z</time>
      </trkpt>
      <trkpt lat="42.83591" lon="-0.5617">
        <ele>1056.292</ele>
        <time>2016-12-30T23:14:34Z</time>
      </trkpt>
      <trkpt lat="42.83523" lon="-0.56195">
        <ele>1055.658</ele>
        <time>2016-12-30T23:14:54Z</time>
      </trkpt>
      <trkpt lat="42.83485" lon="-0.56196">
        <ele>1069.747</ele>
        <time>2021-04-18T10:06:50Z</time>
      </trkpt>
      <trkpt lat="42.83474" lon="-0.5618">
        <ele>1062.674</ele>
        <time>2021-04-18T10:07:10Z</time>
      </trkpt>
      <trkpt lat="42.83471" lon="-0.56146">
        <ele>1050.815</ele>
        <time>2021-04-18T10:07:30Z</time>
      </trkpt>
      <trkpt lat="42.83443" lon="-0.56129">
        <ele>1045.874</ele>
        <time>2021-04-18T10:07:50Z</time>
      </trkpt>
      <trkpt lat="42.8346" lon="-0.56082">
        <ele>1032.085</ele>
        <time>2021-04-18T10:08:10Z</time>
      </trkpt>
      <trkpt lat="42.83544" lon="-0.56074">
        <ele>1027.854</ele>
        <time>2021-04-18T10:08:30Z</time>
      </trkpt>
      <trkpt lat="42.83568" lon="-0.5608">
        <ele>1028.656</ele>
        <time>2021-04-18T10:08:50Z</time>
      </trkpt>
      <trkpt lat="42.83635" lon="-0.56041">
        <ele>1014.611</ele>
        <time>2021-04-18T10:09:10Z</time>
      </trkpt>
      <trkpt lat="42.8364" lon="-0.56003">
        <ele>1005.708</ele>
        <time>2021-04-18T10:09:30Z</time>
      </trkpt>
      <trkpt lat="42.83655" lon="-0.5598">
        <ele>1001.412</ele>
        <time>2021-04-18T10:09:50Z</time>
      </trkpt>
      <trkpt lat="42.83725" lon="-0.55951">
        <ele>995.915</ele>
        <time>2021-04-18T10:10:10Z</time>
      </trkpt>
      <trkpt lat="42.83728" lon="-0.55907">
        <ele>988.051</ele>
        <time>2021-04-18T10:10:30Z</time>
      </trkpt>
      <trkpt lat="42.83719" lon="-0.55885">
        <ele>984.13</ele>
        <time>2021-04-18T10:10:50Z</time>
      </trkpt>
      <trkpt lat="42.83732" lon="-0.55837">
        <ele>975.797</ele>
        <time>2021-04-18T10:11:10Z</time>
      </trkpt>
      <trkpt lat="42.83735" lon="-0.55776">
        <ele>985.078</ele>
        <time>2021-04-18T10:11:30Z</time>
      </trkpt>
      <trkpt lat="42.83713" lon="-0.55789">
        <ele>982.357</ele>
        <time>2021-04-18T10:11:50Z</time>
      </trkpt>
      <trkpt lat="42.83685" lon="-0.55786">
        <ele>982.268</ele>
        <time>2021-04-18T10:12:10Z</time>
      </trkpt>
      <trkpt lat="42.83656" lon="-0.55764">
        <ele>985.433</ele>
        <time>2021-04-18T10:12:30Z</time>
      </trkpt>
      <trkpt lat="42.83627" lon="-0.55755">
        <ele>987.723</ele>
        <time>2021-04-18T10:12:50Z</time>
      </trkpt>
      <trkpt lat="42.83586" lon="-0.55765">
        <ele>987.315</ele>
        <time>2021-04-18T10:13:10Z</time>
      </trkpt>
      <trkpt lat="42.83534" lon="-0.55746">
        <ele>992.608</ele>
        <time>2021-04-18T10:13:30Z</time>
      </trkpt>
      <trkpt lat="42.83584" lon="-0.55733">
        <ele>998.38</ele>
        <time>2021-04-18T10:13:50Z</time>
      </trkpt>
      <trkpt lat="42.83583" lon="-0.55722">
        <ele>1003.923</ele>
        <time>2021-04-18T10:14:10Z</time>
      </trkpt>
      <trkpt lat="42.83446" lon="-0.55726">
        <ele>1006.989</ele>
        <time>2021-04-18T10:14:30Z</time>
      </trkpt>
      <trkpt lat="42.83403" lon="-0.55742">
        <ele>1008.088</ele>
        <time>2021-04-18T10:14:50Z</time>
      </trkpt>
      <trkpt lat="42.83401" lon="-0.55721">
        <ele>1016.435</ele>
        <time>2021-04-18T10:15:10Z</time>
      </trkpt>
      <trkpt lat="42.83419" lon="-0.55694">
        <ele>1020.876</ele>
        <time>2021-04-18T10:15:30Z</time>
      </trkpt>
      <trkpt lat="42.83419" lon="-0.55651">
        <ele>1043.245</ele>
        <time>2021-04-18T10:15:50Z</time>
      </trkpt>
      <trkpt lat="42.83409" lon="-0.55646">
        <ele>1037.626</ele>
        <time>2016-12-30T23:20:54Z</time>
      </trkpt>
      <trkpt lat="42.83317" lon="-0.55736">
        <ele>1039.849</ele>
        <time>2021-04-18T10:16:30Z</time>
      </trkpt>
      <trkpt lat="42.8321" lon="-0.55803">
        <ele>1035.002</ele>
        <time>2016-12-30T23:21:34Z</time>
      </trkpt>
      <trkpt lat="42.83108" lon="-0.55818">
        <ele>1041.422</ele>
        <time>2016-12-30T23:21:54Z</time>
      </trkpt>
      <trkpt lat="42.8302" lon="-0.558">
        <ele>1059.608</ele>
        <time>2016-12-30T23:22:14Z</time>
      </trkpt>
      <trkpt lat="42.82903" lon="-0.55732">
        <ele>1071.321</ele>
        <time>2016-12-30T23:22:34Z</time>
      </trkpt>
      <trkpt lat="42.82867" lon="-0.55721">
        <ele>1074.614</ele>
        <time>2016-12-30T23:22:54Z</time>
      </trkpt>
      <trkpt lat="42.82751" lon="-0.55659">
        <ele>1089.34</ele>
        <time>2016-12-30T23:23:14Z</time>
      </trkpt>
      <trkpt lat="42.82669" lon="-0.5564">
        <ele>1093.629</ele>
        <time>2016-12-30T23:23:34Z</time>
      </trkpt>
      <trkpt lat="42.82606" lon="-0.55693">
        <ele>1095.726</ele>
        <time>2016-12-30T23:23:54Z</time>
      </trkpt>
      <trkpt lat="42.82545" lon="-0.55708">
        <ele>1107.117</ele>
        <time>2016-12-30T23:24:14Z</time>
      </trkpt>
      <trkpt lat="42.82457" lon="-0.5568">
        <ele>1128.986</ele>
        <time>2016-12-30T23:24:34Z</time>
      </trkpt>
      <trkpt lat="42.8242" lon="-0.55693">
        <ele>1123.437</ele>
        <time>2016-12-30T23:24:54Z</time>
      </trkpt>
      <trkpt lat="42.82332" lon="-0.55659">
        <ele>1144.612</ele>
        <time>2016-12-30T23:25:14Z</time>
      </trkpt>
      <trkpt lat="42.82162" lon="-0.55728">
        <ele>1164.132</ele>
        <time>2016-12-30T23:25:34Z</time>
      </trkpt>
      <trkpt lat="42.81994" lon="-0.55697">
        <ele>1187.305</ele>
        <time>2016-12-30T23:25:54Z</time>
      </trkpt>
      <trkpt lat="42.81833" lon="-0.55745">
        <ele>1205.008</ele>
        <time>2016-12-30T23:26:14Z</time>
      </trkpt>
      <trkpt lat="42.81783" lon="-0.55753">
        <ele>1218.998</ele>
        <time>2016-12-30T23:26:34Z</time>
      </trkpt>
      <trkpt lat="42.81753" lon="-0.558">
        <ele>1214.221</ele>
        <time>2016-12-30T23:26:54Z</time>
      </trkpt>
      <trkpt lat="42.81717" lon="-0.55788">
        <ele>1226.847</ele>
        <time>2016-12-30T23:27:14Z</time>
      </trkpt>
      <trkpt lat="42.81688" lon="-0.55813">
        <ele>1224.546</ele>
        <time>2016-12-30T23:27:34Z</time>
      </trkpt>
      <trkpt lat="42.81633" lon="-0.55815">
        <ele>1228.283</ele>
        <time>2016-12-30T23:27:54Z</time>
      </trkpt>
      <trkpt lat="42.8157" lon="-0.55719">
        <ele>1250.484</ele>
        <time>2016-12-30T23:28:14Z</time>
      </trkpt>
      <trkpt lat="42.81509" lon="-0.55728">
        <ele>1257.343</ele>
        <time>2016-12-30T23:28:34Z</time>
      </trkpt>
      <trkpt lat="42.8146" lon="-0.55706">
        <ele>1261.524</ele>
        <time>2016-12-30T23:28:54Z</time>
      </trkpt>
      <trkpt lat="42.81427" lon="-0.55633">
        <ele>1269.847</ele>
        <time>2016-12-30T23:29:14Z</time>
      </trkpt>
      <trkpt lat="42.81407" lon="-0.55575">
        <ele>1278.429</ele>
        <time>2016-12-30T23:29:34Z</time>
      </trkpt>
      <trkpt lat="42.81347" lon="-0.55571">
        <ele>1276.421</ele>
        <time>2016-12-30T23:29:54Z</time>
      </trkpt>
      <trkpt lat="42.81301" lon="-0.55511">
        <ele>1287.208</ele>
        <time>2016-12-30T23:30:14Z</time>
      </trkpt>
      <trkpt lat="42.81281" lon="-0.55436">
        <ele>1299.311</ele>
        <time>2019-12-06T16:33:02Z</time>
      </trkpt>
      <trkpt lat="42.81237" lon="-0.55343">
        <ele>1318.064</ele>
        <time>2019-12-06T16:33:22Z</time>
      </trkpt>
      <trkpt lat="42.81134" lon="-0.55245">
        <ele>1329.35</ele>
        <time>2019-12-06T16:33:42Z</time>
      </trkpt>
      <trkpt lat="42.81049" lon="-0.55092">
        <ele>1361.729</ele>
        <time>2019-12-06T16:34:02Z</time>
      </trkpt>
      <trkpt lat="42.80979" lon="-0.55084">
        <ele>1361.676</ele>
        <time>2019-12-06T16:34:22Z</time>
      </trkpt>
      <trkpt lat="42.80996" lon="-0.55073">
        <ele>1367.187</ele>
        <time>2019-12-06T16:34:42Z</time>
      </trkpt>
      <trkpt lat="42.80903" lon="-0.55032">
        <ele>1386.336</ele>
        <time>2019-12-06T16:35:02Z</time>
      </trkpt>
      <trkpt lat="42.80794" lon="-0.54957">
        <ele>1395.947</ele>
        <time>2019-12-06T16:35:22Z</time>
      </trkpt>
      <trkpt lat="42.80695" lon="-0.54835">
        <ele>1427.029</ele>
        <time>2021-04-18T10:28:30Z</time>
      </trkpt>
      <trkpt lat="42.80652" lon="-0.54803">
        <ele>1431.7</ele>
        <time>2021-04-18T10:28:50Z</time>
      </trkpt>
      <trkpt lat="42.80571" lon="-0.54813">
        <ele>1424.22</ele>
        <time>2019-12-06T16:36:22Z</time>
      </trkpt>
      <trkpt lat="42.80497" lon="-0.54788">
        <ele>1417.908</ele>
        <time>2019-12-06T16:36:42Z</time>
      </trkpt>
      <trkpt lat="42.80428" lon="-0.54801">
        <ele>1412.919</ele>
        <time>2019-12-06T16:37:02Z</time>
      </trkpt>
      <trkpt lat="42.80428" lon="-0.54749">
        <ele>1416.762</ele>
        <time>2019-12-06T16:37:22Z</time>
      </trkpt>
      <trkpt lat="42.80401" lon="-0.5471">
        <ele>1420.638</ele>
        <time>2019-12-06T16:37:42Z</time>
      </trkpt>
      <trkpt lat="42.80413" lon="-0.54661">
        <ele>1424.697</ele>
        <time>2019-12-06T16:38:02Z</time>
      </trkpt>
      <trkpt lat="42.80354" lon="-0.5464">
        <ele>1427.974</ele>
        <time>2019-12-06T16:38:22Z</time>
      </trkpt>
      <trkpt lat="42.80322" lon="-0.54614">
        <ele>1435.485</ele>
        <time>2019-12-06T16:38:42Z</time>
      </trkpt>
      <trkpt lat="42.80286" lon="-0.54648">
        <ele>1431.064</ele>
        <time>2019-12-06T16:39:02Z</time>
      </trkpt>
      <trkpt lat="42.80236" lon="-0.54553">
        <ele>1443.365</ele>
        <time>2021-04-18T10:32:10Z</time>
      </trkpt>
      <trkpt lat="42.80193" lon="-0.54496">
        <ele>1444.958</ele>
        <time>2021-04-18T10:32:30Z</time>
      </trkpt>
      <trkpt lat="42.80159" lon="-0.54353">
        <ele>1454.252</ele>
        <time>2021-04-18T10:32:50Z</time>
      </trkpt>
      <trkpt lat="42.80128" lon="-0.5426">
        <ele>1447.117</ele>
        <time>2019-12-06T16:39:42Z</time>
      </trkpt>
      <trkpt lat="42.80092" lon="-0.54208">
        <ele>1453.608</ele>
        <time>2019-12-06T16:40:02Z</time>
      </trkpt>
      <trkpt lat="42.8005" lon="-0.54176">
        <ele>1454.812</ele>
        <time>2019-12-06T16:40:22Z</time>
      </trkpt>
      <trkpt lat="42.80006" lon="-0.53966">
        <ele>1477.475</ele>
        <time>2019-12-06T16:40:42Z</time>
      </trkpt>
      <trkpt lat="42.80006" lon="-0.53876">
        <ele>1481.081</ele>
        <time>2019-12-06T16:41:02Z</time>
      </trkpt>
      <trkpt lat="42.79962" lon="-0.53753">
        <ele>1485.92</ele>
        <time>2019-12-06T16:41:22Z</time>
      </trkpt>
      <trkpt lat="42.79976" lon="-0.53701">
        <ele>1505.937</ele>
        <time>2021-04-18T10:35:10Z</time>
      </trkpt>
      <trkpt lat="42.79916" lon="-0.53587">
        <ele>1506.858</ele>
        <time>2021-04-18T10:35:30Z</time>
      </trkpt>
      <trkpt lat="42.79878" lon="-0.53454">
        <ele>1526.737</ele>
        <time>2021-04-18T10:35:50Z</time>
      </trkpt>
      <trkpt lat="42.79903" lon="-0.53399">
        <ele>1523.748</ele>
        <time>2019-12-06T16:42:42Z</time>
      </trkpt>
      <trkpt lat="42.79875" lon="-0.53311">
        <ele>1540.073</ele>
        <time>2019-12-06T16:43:02Z</time>
      </trkpt>
      <trkpt lat="42.79832" lon="-0.5329">
        <ele>1546.085</ele>
        <time>2019-12-06T16:43:22Z</time>
      </trkpt>
      <trkpt lat="42.79817" lon="-0.53236">
        <ele>1548.813</ele>
        <time>2019-12-06T16:43:42Z</time>
      </trkpt>
      <trkpt lat="42.79776" lon="-0.53176">
        <ele>1568.608</ele>
        <time>2021-04-18T10:37:30Z</time>
      </trkpt>
      <trkpt lat="42.79738" lon="-0.53155">
        <ele>1566.574</ele>
        <time>2019-12-06T16:44:22Z</time>
      </trkpt>
      <trkpt lat="42.79718" lon="-0.5317">
        <ele>1569.287</ele>
        <time>2019-12-06T16:44:42Z</time>
      </trkpt>
      <trkpt lat="42.79699" lon="-0.53088">
        <ele>1574.343</ele>
        <time>2019-12-06T16:45:02Z</time>
      </trkpt>
      <trkpt lat="42.79654" lon="-0.52984">
        <ele>1586.632</ele>
        <time>2021-04-18T10:38:50Z</time>
      </trkpt>
      <trkpt lat="42.79633" lon="-0.52894">
        <ele>1593.519</ele>
        <time>2021-04-18T10:39:10Z</time>
      </trkpt>
      <trkpt lat="42.79639" lon="-0.52848">
        <ele>1596.91</ele>
        <time>2019-12-06T16:45:42Z</time>
      </trkpt>
      <trkpt lat="42.79625" lon="-0.52698">
        <ele>1624.929</ele>
        <time>2019-12-06T16:46:42Z</time>
      </trkpt>
      <trkpt lat="42.7959" lon="-0.52642">
        <ele>1630.17</ele>
        <time>2019-12-06T16:47:02Z</time>
      </trkpt>
      <trkpt lat="42.79582" lon="-0.52567">
        <ele>1631.747</ele>
        <time>2019-12-06T16:47:22Z</time>
      </trkpt>
    </trkseg>
  </trk>
  <trk>
    <name><![CDATA[GR®105 De Lortet au Port d'Ourdissétou (Hautes-Pyrénées) (2021)]]></name>
    <desc><![CDATA[Randonnée sur le GR®105 à travers les Hautes-Pyrénées de Lortet au Port d'Ourdissétou (France/Espagne). Gîtes d'étapes, Chambres d'hôtes, Maison d'hôtes, Hôtels, Camping, Refuges, Auberges.]]></desc>
    <extensions>
      <line xmlns="http://www.topografix.com/GPX/gpx_style/0/2">
        <color>000000</color>
        <width>4</width>
      </line>
    </extensions>
    <trkseg>
      <trkpt lat="43.04243" lon="0.37994">
        <ele>556.629</ele>
        <time>2020-04-19T17:22:43Z</time>
      </trkpt>
      <trkpt lat="43.04196" lon="0.37999">
        <ele>561.52</ele>
        <time>2020-04-19T17:23:03Z</time>
      </trkpt>
      <trkpt lat="43.04103" lon="0.37966">
        <ele>574.308</ele>
        <time>2020-04-19T17:23:23Z</time>
      </trkpt>
      <trkpt lat="43.04034" lon="0.37921">
        <ele>572.878</ele>
        <time>2020-04-19T17:23:43Z</time>
      </trkpt>
      <trkpt lat="43.03988" lon="0.37926">
        <ele>570.897</ele>
        <time>2020-04-19T17:24:03Z</time>
      </trkpt>
      <trkpt lat="43.03937" lon="0.37975">
        <ele>577.328</ele>
        <time>2020-04-19T17:24:23Z</time>
      </trkpt>
      <trkpt lat="43.03866" lon="0.38074">
        <ele>590.284</ele>
        <time>2020-04-19T17:24:43Z</time>
      </trkpt>
      <trkpt lat="43.03744" lon="0.38078">
        <ele>588.743</ele>
        <time>2020-04-19T17:25:03Z</time>
      </trkpt>
      <trkpt lat="43.03647" lon="0.38107">
        <ele>587.435</ele>
        <time>2020-04-19T17:25:23Z</time>
      </trkpt>
      <trkpt lat="43.0362" lon="0.3809">
        <ele>585.832</ele>
        <time>2020-04-19T17:25:43Z</time>
      </trkpt>
      <trkpt lat="43.03516" lon="0.38076">
        <ele>579.149</ele>
        <time>2020-04-19T17:26:03Z</time>
      </trkpt>
      <trkpt lat="43.0349" lon="0.38041">
        <ele>577.512</ele>
        <time>2020-04-19T17:26:23Z</time>
      </trkpt>
      <trkpt lat="43.03396" lon="0.38058">
        <ele>575.532</ele>
        <time>2020-04-19T17:26:43Z</time>
      </trkpt>
      <trkpt lat="43.0335" lon="0.38111">
        <ele>577.705</ele>
        <time>2020-04-19T17:27:03Z</time>
      </trkpt>
      <trkpt lat="43.03286" lon="0.38206">
        <ele>580.608</ele>
        <time>2020-04-19T17:27:23Z</time>
      </trkpt>
      <trkpt lat="43.03224" lon="0.38266">
        <ele>581.917</ele>
        <time>2020-04-19T17:27:43Z</time>
      </trkpt>
      <trkpt lat="43.03189" lon="0.38327">
        <ele>582.846</ele>
        <time>2020-04-19T17:28:03Z</time>
      </trkpt>
      <trkpt lat="43.0318" lon="0.38393">
        <ele>587.167</ele>
        <time>2020-04-19T17:28:23Z</time>
      </trkpt>
      <trkpt lat="43.0315" lon="0.38489">
        <ele>590.933</ele>
        <time>2020-04-19T17:28:43Z</time>
      </trkpt>
      <trkpt lat="43.03141" lon="0.38557">
        <ele>594.252</ele>
        <time>2020-04-19T17:29:03Z</time>
      </trkpt>
      <trkpt lat="43.03179" lon="0.38667">
        <ele>597.494</ele>
        <time>2020-04-19T17:29:23Z</time>
      </trkpt>
      <trkpt lat="43.03137" lon="0.38721">
        <ele>596.721</ele>
        <time>2020-04-19T17:29:43Z</time>
      </trkpt>
      <trkpt lat="43.03079" lon="0.38897">
        <ele>608.928</ele>
        <time>2020-04-19T17:30:03Z</time>
      </trkpt>
      <trkpt lat="43.03067" lon="0.38864">
        <ele>608.326</ele>
        <time>2020-04-19T17:30:23Z</time>
      </trkpt>
      <trkpt lat="43.03058" lon="0.3881">
        <ele>603.447</ele>
        <time>2020-04-19T17:30:43Z</time>
      </trkpt>
      <trkpt lat="43.0303" lon="0.3874">
        <ele>603.511</ele>
        <time>2020-04-19T17:31:03Z</time>
      </trkpt>
      <trkpt lat="43.03036" lon="0.3866">
        <ele>604.408</ele>
        <time>2020-04-19T17:31:23Z</time>
      </trkpt>
      <trkpt lat="43.03021" lon="0.38602">
        <ele>605.818</ele>
        <time>2020-04-19T17:31:43Z</time>
      </trkpt>
      <trkpt lat="43.02984" lon="0.38539">
        <ele>608.227</ele>
        <time>2020-04-19T17:32:03Z</time>
      </trkpt>
      <trkpt lat="43.02922" lon="0.38464">
        <ele>599.788</ele>
        <time>2020-04-19T17:32:23Z</time>
      </trkpt>
      <trkpt lat="43.02877" lon="0.38444">
        <ele>607.614</ele>
        <time>2020-04-19T17:32:43Z</time>
      </trkpt>
      <trkpt lat="43.0284" lon="0.38445">
        <ele>609.273</ele>
        <time>2020-04-19T17:33:03Z</time>
      </trkpt>
      <trkpt lat="43.02819" lon="0.38417">
        <ele>616.345</ele>
        <time>2020-04-19T17:33:23Z</time>
      </trkpt>
      <trkpt lat="43.02785" lon="0.38306">
        <ele>605.812</ele>
        <time>2020-04-19T17:33:43Z</time>
      </trkpt>
      <trkpt lat="43.02747" lon="0.38238">
        <ele>610.289</ele>
        <time>2020-04-19T17:34:03Z</time>
      </trkpt>
      <trkpt lat="43.0263" lon="0.38086">
        <ele>616.865</ele>
        <time>2020-04-19T17:34:23Z</time>
      </trkpt>
      <trkpt lat="43.02588" lon="0.38069">
        <ele>609.768</ele>
        <time>2020-04-19T17:34:43Z</time>
      </trkpt>
      <trkpt lat="43.02563" lon="0.38069">
        <ele>611.914</ele>
        <time>2020-04-19T17:35:03Z</time>
      </trkpt>
      <trkpt lat="43.02467" lon="0.38057">
        <ele>607.808</ele>
        <time>2020-04-19T17:35:23Z</time>
      </trkpt>
      <trkpt lat="43.0236" lon="0.38091">
        <ele>616.492</ele>
        <time>2020-04-19T17:35:43Z</time>
      </trkpt>
      <trkpt lat="43.02268" lon="0.3809">
        <ele>613.021</ele>
        <time>2020-04-19T17:36:03Z</time>
      </trkpt>
      <trkpt lat="43.02136" lon="0.38072">
        <ele>604.072</ele>
        <time>2020-04-19T17:36:23Z</time>
      </trkpt>
      <trkpt lat="43.02122" lon="0.38057">
        <ele>602.358</ele>
        <time>2020-04-19T17:36:43Z</time>
      </trkpt>
      <trkpt lat="43.02091" lon="0.38044">
        <ele>600.627</ele>
        <time>2020-04-19T17:37:03Z</time>
      </trkpt>
      <trkpt lat="43.02062" lon="0.38069">
        <ele>600.949</ele>
        <time>2020-04-19T17:37:23Z</time>
      </trkpt>
      <trkpt lat="43.02041" lon="0.38062">
        <ele>599.676</ele>
        <time>2020-04-19T17:37:43Z</time>
      </trkpt>
      <trkpt lat="43.02001" lon="0.38013">
        <ele>592.153</ele>
        <time>2020-04-19T17:38:03Z</time>
      </trkpt>
      <trkpt lat="43.01947" lon="0.37978">
        <ele>591.042</ele>
        <time>2020-04-19T17:38:23Z</time>
      </trkpt>
      <trkpt lat="43.01946" lon="0.37921">
        <ele>591.222</ele>
        <time>2020-04-19T17:38:43Z</time>
      </trkpt>
      <trkpt lat="43.01904" lon="0.37844">
        <ele>594.614</ele>
        <time>2020-04-19T17:39:03Z</time>
      </trkpt>
      <trkpt lat="43.01757" lon="0.37928">
        <ele>598.608</ele>
        <time>2020-04-19T17:39:23Z</time>
      </trkpt>
      <trkpt lat="43.01653" lon="0.37924">
        <ele>600.46</ele>
        <time>2020-04-19T17:39:43Z</time>
      </trkpt>
      <trkpt lat="43.01621" lon="0.37919">
        <ele>602.169</ele>
        <time>2020-04-19T17:40:03Z</time>
      </trkpt>
      <trkpt lat="43.01567" lon="0.37933">
        <ele>606.16</ele>
        <time>2020-04-19T17:40:23Z</time>
      </trkpt>
      <trkpt lat="43.01515" lon="0.37917">
        <ele>607.926</ele>
        <time>2020-04-19T17:40:43Z</time>
      </trkpt>
      <trkpt lat="43.01446" lon="0.3794">
        <ele>609.695</ele>
        <time>2020-04-19T17:41:03Z</time>
      </trkpt>
      <trkpt lat="43.01361" lon="0.3803">
        <ele>616.317</ele>
        <time>2020-04-19T17:41:23Z</time>
      </trkpt>
      <trkpt lat="43.01305" lon="0.38116">
        <ele>624.394</ele>
        <time>2020-04-19T17:41:43Z</time>
      </trkpt>
      <trkpt lat="43.01236" lon="0.38149">
        <ele>622.471</ele>
        <time>2020-04-19T17:42:03Z</time>
      </trkpt>
      <trkpt lat="43.012" lon="0.38156">
        <ele>621.748</ele>
        <time>2020-04-19T17:42:23Z</time>
      </trkpt>
      <trkpt lat="43.01105" lon="0.382">
        <ele>626.761</ele>
        <time>2020-04-19T17:42:43Z</time>
      </trkpt>
      <trkpt lat="43.01016" lon="0.38227">
        <ele>624.817</ele>
        <time>2020-04-19T17:43:03Z</time>
      </trkpt>
      <trkpt lat="43.00965" lon="0.38255">
        <ele>626.108</ele>
        <time>2020-04-19T17:43:23Z</time>
      </trkpt>
      <trkpt lat="43.00888" lon="0.38262">
        <ele>622.19</ele>
        <time>2020-04-19T17:43:43Z</time>
      </trkpt>
      <trkpt lat="43.00785" lon="0.38308">
        <ele>621.999</ele>
        <time>2020-04-19T17:44:03Z</time>
      </trkpt>
      <trkpt lat="43.00692" lon="0.38379">
        <ele>620.02</ele>
        <time>2020-04-19T17:44:23Z</time>
      </trkpt>
      <trkpt lat="43.00687" lon="0.38424">
        <ele>621.926</ele>
        <time>2020-04-19T17:44:43Z</time>
      </trkpt>
      <trkpt lat="43.00654" lon="0.38377">
        <ele>622.095</ele>
        <time>2020-04-19T17:45:03Z</time>
      </trkpt>
      <trkpt lat="43.00645" lon="0.3833">
        <ele>619.737</ele>
        <time>2020-04-19T17:45:23Z</time>
      </trkpt>
      <trkpt lat="43.00633" lon="0.3833">
        <ele>620.894</ele>
        <time>2020-04-19T17:45:43Z</time>
      </trkpt>
      <trkpt lat="43.00627" lon="0.38369">
        <ele>623.371</ele>
        <time>2020-04-19T17:46:03Z</time>
      </trkpt>
      <trkpt lat="43.00599" lon="0.38367">
        <ele>624.969</ele>
        <time>2020-04-19T17:46:23Z</time>
      </trkpt>
      <trkpt lat="43.00436" lon="0.38288">
        <ele>633.704</ele>
        <time>2020-04-19T17:46:43Z</time>
      </trkpt>
      <trkpt lat="43.0035" lon="0.38271">
        <ele>637.624</ele>
        <time>2020-04-19T17:47:03Z</time>
      </trkpt>
      <trkpt lat="43.00288" lon="0.38243">
        <ele>639.208</ele>
        <time>2020-04-19T17:47:23Z</time>
      </trkpt>
      <trkpt lat="43.00218" lon="0.38243">
        <ele>648.152</ele>
        <time>2020-04-19T17:47:43Z</time>
      </trkpt>
      <trkpt lat="43.00163" lon="0.38254">
        <ele>658.281</ele>
        <time>2020-04-19T17:48:03Z</time>
      </trkpt>
      <trkpt lat="43.00136" lon="0.38281">
        <ele>662.642</ele>
        <time>2020-04-19T17:48:23Z</time>
      </trkpt>
      <trkpt lat="43.00091" lon="0.38278">
        <ele>662.638</ele>
        <time>2020-04-19T17:48:43Z</time>
      </trkpt>
      <trkpt lat="43.00054" lon="0.38248">
        <ele>656.177</ele>
        <time>2020-04-19T17:49:03Z</time>
      </trkpt>
      <trkpt lat="43.00007" lon="0.38241">
        <ele>660.559</ele>
        <time>2020-04-19T17:49:23Z</time>
      </trkpt>
      <trkpt lat="42.99921" lon="0.38222">
        <ele>660.186</ele>
        <time>2020-04-19T17:49:43Z</time>
      </trkpt>
      <trkpt lat="42.99835" lon="0.38252">
        <ele>669.583</ele>
        <time>2020-04-19T17:50:03Z</time>
      </trkpt>
      <trkpt lat="42.99766" lon="0.38254">
        <ele>671.878</ele>
        <time>2020-04-19T17:50:23Z</time>
      </trkpt>
      <trkpt lat="42.99745" lon="0.38301">
        <ele>678.633</ele>
        <time>2020-04-19T17:50:43Z</time>
      </trkpt>
      <trkpt lat="42.99733" lon="0.38302">
        <ele>679.126</ele>
        <time>2020-04-19T17:51:03Z</time>
      </trkpt>
      <trkpt lat="42.99709" lon="0.38255">
        <ele>676.608</ele>
        <time>2020-04-19T17:51:23Z</time>
      </trkpt>
      <trkpt lat="42.99663" lon="0.38243">
        <ele>673.443</ele>
        <time>2020-04-19T17:51:43Z</time>
      </trkpt>
      <trkpt lat="42.99621" lon="0.38273">
        <ele>675.572</ele>
        <time>2020-04-19T17:52:03Z</time>
      </trkpt>
      <trkpt lat="42.99575" lon="0.38369">
        <ele>679.343</ele>
        <time>2020-04-19T17:52:23Z</time>
      </trkpt>
      <trkpt lat="42.99537" lon="0.38475">
        <ele>691.279</ele>
        <time>2020-04-19T17:52:43Z</time>
      </trkpt>
      <trkpt lat="42.99508" lon="0.38503">
        <ele>689.858</ele>
        <time>2020-04-19T17:53:03Z</time>
      </trkpt>
      <trkpt lat="42.99473" lon="0.3852">
        <ele>689.16</ele>
        <time>2020-04-19T17:53:23Z</time>
      </trkpt>
      <trkpt lat="42.99423" lon="0.38508">
        <ele>684.687</ele>
        <time>2020-04-19T17:53:43Z</time>
      </trkpt>
      <trkpt lat="42.99395" lon="0.38515">
        <ele>694.414</ele>
        <time>2020-04-19T17:54:03Z</time>
      </trkpt>
      <trkpt lat="42.99388" lon="0.38499">
        <ele>700.145</ele>
        <time>2020-04-19T17:54:23Z</time>
      </trkpt>
      <trkpt lat="42.99415" lon="0.3848">
        <ele>695.447</ele>
        <time>2020-04-19T17:54:43Z</time>
      </trkpt>
      <trkpt lat="42.99457" lon="0.38412">
        <ele>687.511</ele>
        <time>2020-04-19T17:55:03Z</time>
      </trkpt>
      <trkpt lat="42.99472" lon="0.38362">
        <ele>686.208</ele>
        <time>2020-04-19T17:55:23Z</time>
      </trkpt>
      <trkpt lat="42.99497" lon="0.3832">
        <ele>681.31</ele>
        <time>2020-04-19T17:55:43Z</time>
      </trkpt>
      <trkpt lat="42.9951" lon="0.38276">
        <ele>673.799</ele>
        <time>2020-04-19T17:56:03Z</time>
      </trkpt>
      <trkpt lat="42.99509" lon="0.38179">
        <ele>670.94</ele>
        <time>2020-04-19T17:56:23Z</time>
      </trkpt>
      <trkpt lat="42.99518" lon="0.38123">
        <ele>663.446</ele>
        <time>2020-04-19T17:56:43Z</time>
      </trkpt>
      <trkpt lat="42.99508" lon="0.38083">
        <ele>665.355</ele>
        <time>2020-04-19T17:57:03Z</time>
      </trkpt>
      <trkpt lat="42.99534" lon="0.38032">
        <ele>658.717</ele>
        <time>2020-04-19T17:57:23Z</time>
      </trkpt>
      <trkpt lat="42.99537" lon="0.37888">
        <ele>652.954</ele>
        <time>2020-04-19T17:57:43Z</time>
      </trkpt>
      <trkpt lat="42.99552" lon="0.37825">
        <ele>647.921</ele>
        <time>2020-04-19T17:58:03Z</time>
      </trkpt>
      <trkpt lat="42.99575" lon="0.37788">
        <ele>646.343</ele>
        <time>2020-04-19T17:58:23Z</time>
      </trkpt>
      <trkpt lat="42.99573" lon="0.37741">
        <ele>640.064</ele>
        <time>2020-04-19T17:58:43Z</time>
      </trkpt>
      <trkpt lat="42.99543" lon="0.37654">
        <ele>622.41</ele>
        <time>2020-04-19T17:59:03Z</time>
      </trkpt>
      <trkpt lat="42.99548" lon="0.37612">
        <ele>618.008</ele>
        <time>2020-04-19T17:59:23Z</time>
      </trkpt>
      <trkpt lat="42.99571" lon="0.37605">
        <ele>616.06</ele>
        <time>2020-04-19T17:59:43Z</time>
      </trkpt>
      <trkpt lat="42.9955" lon="0.37574">
        <ele>606.349</ele>
        <time>2020-04-19T18:00:03Z</time>
      </trkpt>
      <trkpt lat="42.99518" lon="0.37555">
        <ele>605.73</ele>
        <time>2020-04-19T18:00:23Z</time>
      </trkpt>
      <trkpt lat="42.99511" lon="0.37539">
        <ele>604.216</ele>
        <time>2020-04-19T18:00:43Z</time>
      </trkpt>
      <trkpt lat="42.99415" lon="0.37657">
        <ele>610.055</ele>
        <time>2020-04-19T18:01:03Z</time>
      </trkpt>
      <trkpt lat="42.99332" lon="0.37657">
        <ele>610.397</ele>
        <time>2020-04-19T18:01:23Z</time>
      </trkpt>
      <trkpt lat="42.99295" lon="0.37645">
        <ele>608.564</ele>
        <time>2020-04-19T18:01:43Z</time>
      </trkpt>
      <trkpt lat="42.99246" lon="0.37649">
        <ele>612.131</ele>
        <time>2020-04-19T18:02:03Z</time>
      </trkpt>
      <trkpt lat="42.99223" lon="0.37657">
        <ele>610.964</ele>
        <time>2020-04-19T18:02:23Z</time>
      </trkpt>
      <trkpt lat="42.99204" lon="0.37602">
        <ele>604.706</ele>
        <time>2020-04-19T18:02:43Z</time>
      </trkpt>
      <trkpt lat="42.99017" lon="0.3764">
        <ele>605.216</ele>
        <time>2020-04-19T18:03:03Z</time>
      </trkpt>
      <trkpt lat="42.98985" lon="0.37654">
        <ele>605.508</ele>
        <time>2020-04-19T18:03:23Z</time>
      </trkpt>
      <trkpt lat="42.98773" lon="0.37703">
        <ele>609.432</ele>
        <time>2020-04-19T18:03:43Z</time>
      </trkpt>
      <trkpt lat="42.98733" lon="0.37703">
        <ele>608.021</ele>
        <time>2020-04-19T18:04:03Z</time>
      </trkpt>
      <trkpt lat="42.98696" lon="0.37739">
        <ele>609.182</ele>
        <time>2020-04-19T18:04:23Z</time>
      </trkpt>
      <trkpt lat="42.98611" lon="0.37776">
        <ele>616.278</ele>
        <time>2020-04-19T18:04:43Z</time>
      </trkpt>
      <trkpt lat="42.9856" lon="0.37781">
        <ele>615.647</ele>
        <time>2020-04-19T18:05:03Z</time>
      </trkpt>
      <trkpt lat="42.98504" lon="0.37766">
        <ele>612.939</ele>
        <time>2020-04-19T18:05:23Z</time>
      </trkpt>
      <trkpt lat="42.98465" lon="0.3776">
        <ele>614.356</ele>
        <time>2020-04-19T18:05:43Z</time>
      </trkpt>
      <trkpt lat="42.98438" lon="0.37736">
        <ele>610.633</ele>
        <time>2020-04-19T18:06:03Z</time>
      </trkpt>
      <trkpt lat="42.98364" lon="0.37701">
        <ele>609.438</ele>
        <time>2020-04-19T18:06:23Z</time>
      </trkpt>
      <trkpt lat="42.98244" lon="0.37659">
        <ele>611.87</ele>
        <time>2020-04-19T18:06:43Z</time>
      </trkpt>
      <trkpt lat="42.98174" lon="0.37645">
        <ele>612.217</ele>
        <time>2020-04-19T18:07:03Z</time>
      </trkpt>
      <trkpt lat="42.98119" lon="0.37635">
        <ele>612.008</ele>
        <time>2020-04-19T18:07:23Z</time>
      </trkpt>
      <trkpt lat="42.98058" lon="0.37645">
        <ele>613.819</ele>
        <time>2020-04-19T18:07:43Z</time>
      </trkpt>
      <trkpt lat="42.98015" lon="0.37659">
        <ele>615.278</ele>
        <time>2020-04-19T18:08:03Z</time>
      </trkpt>
      <trkpt lat="42.97929" lon="0.37678">
        <ele>616.849</ele>
        <time>2020-04-19T18:08:23Z</time>
      </trkpt>
      <trkpt lat="42.97865" lon="0.37731">
        <ele>618.415</ele>
        <time>2020-04-19T18:08:43Z</time>
      </trkpt>
      <trkpt lat="42.97814" lon="0.37745">
        <ele>619.234</ele>
        <time>2020-04-19T18:09:03Z</time>
      </trkpt>
      <trkpt lat="42.97775" lon="0.37738">
        <ele>618.586</ele>
        <time>2020-04-19T18:09:23Z</time>
      </trkpt>
      <trkpt lat="42.97718" lon="0.37743">
        <ele>618.563</ele>
        <time>2020-04-19T18:09:43Z</time>
      </trkpt>
      <trkpt lat="42.97609" lon="0.37715">
        <ele>616.79</ele>
        <time>2020-04-19T18:10:03Z</time>
      </trkpt>
      <trkpt lat="42.9748" lon="0.37706">
        <ele>619.513</ele>
        <time>2020-04-19T18:10:23Z</time>
      </trkpt>
      <trkpt lat="42.97386" lon="0.37684">
        <ele>620.643</ele>
        <time>2020-04-19T18:10:43Z</time>
      </trkpt>
      <trkpt lat="42.97321" lon="0.37696">
        <ele>622.207</ele>
        <time>2020-04-19T18:11:03Z</time>
      </trkpt>
      <trkpt lat="42.9723" lon="0.37746">
        <ele>621.808</ele>
        <time>2020-04-19T18:11:23Z</time>
      </trkpt>
      <trkpt lat="42.97193" lon="0.37809">
        <ele>626.827</ele>
        <time>2020-04-19T18:11:43Z</time>
      </trkpt>
      <trkpt lat="42.97173" lon="0.3782">
        <ele>627.236</ele>
        <time>2020-04-19T18:12:03Z</time>
      </trkpt>
      <trkpt lat="42.97154" lon="0.37804">
        <ele>624.377</ele>
        <time>2020-04-19T18:12:23Z</time>
      </trkpt>
      <trkpt lat="42.97065" lon="0.37767">
        <ele>621.923</ele>
        <time>2020-04-19T18:12:43Z</time>
      </trkpt>
      <trkpt lat="42.96982" lon="0.37745">
        <ele>620.652</ele>
        <time>2020-04-19T18:13:03Z</time>
      </trkpt>
      <trkpt lat="42.96892" lon="0.3776">
        <ele>623.424</ele>
        <time>2020-04-19T18:13:23Z</time>
      </trkpt>
      <trkpt lat="42.96807" lon="0.37771">
        <ele>625.371</ele>
        <time>2020-04-19T18:13:43Z</time>
      </trkpt>
      <trkpt lat="42.96733" lon="0.37802">
        <ele>626.538</ele>
        <time>2020-04-19T18:14:03Z</time>
      </trkpt>
      <trkpt lat="42.96677" lon="0.37837">
        <ele>625.379</ele>
        <time>2020-04-19T18:14:23Z</time>
      </trkpt>
      <trkpt lat="42.96682" lon="0.37884">
        <ele>627.305</ele>
        <time>2020-04-19T18:14:43Z</time>
      </trkpt>
      <trkpt lat="42.96662" lon="0.37917">
        <ele>627.525</ele>
        <time>2020-04-19T18:15:03Z</time>
      </trkpt>
      <trkpt lat="42.9656" lon="0.37983">
        <ele>629.308</ele>
        <time>2020-04-19T18:15:23Z</time>
      </trkpt>
      <trkpt lat="42.96497" lon="0.38065">
        <ele>628.333</ele>
        <time>2020-04-19T18:15:43Z</time>
      </trkpt>
      <trkpt lat="42.96437" lon="0.38116">
        <ele>630.432</ele>
        <time>2020-04-19T18:16:03Z</time>
      </trkpt>
      <trkpt lat="42.96405" lon="0.38177">
        <ele>633.293</ele>
        <time>2020-04-19T18:16:23Z</time>
      </trkpt>
      <trkpt lat="42.96393" lon="0.38227">
        <ele>635.529</ele>
        <time>2020-04-19T18:16:43Z</time>
      </trkpt>
      <trkpt lat="42.96359" lon="0.38208">
        <ele>634.378</ele>
        <time>2020-04-19T18:17:03Z</time>
      </trkpt>
      <trkpt lat="42.96289" lon="0.38193">
        <ele>633.83</ele>
        <time>2020-04-19T18:17:23Z</time>
      </trkpt>
      <trkpt lat="42.9627" lon="0.38222">
        <ele>635.077</ele>
        <time>2020-04-19T18:17:43Z</time>
      </trkpt>
      <trkpt lat="42.96278" lon="0.38302">
        <ele>645.544</ele>
        <time>2020-04-19T18:18:03Z</time>
      </trkpt>
      <trkpt lat="42.96245" lon="0.38301">
        <ele>651.632</ele>
        <time>2020-04-19T18:18:23Z</time>
      </trkpt>
      <trkpt lat="42.9614" lon="0.3824">
        <ele>644.992</ele>
        <time>2020-04-19T18:18:43Z</time>
      </trkpt>
      <trkpt lat="42.95997" lon="0.38135">
        <ele>649.811</ele>
        <time>2020-04-19T18:19:03Z</time>
      </trkpt>
      <trkpt lat="42.95935" lon="0.38112">
        <ele>647.808</ele>
        <time>2020-04-19T18:19:23Z</time>
      </trkpt>
      <trkpt lat="42.9588" lon="0.38114">
        <ele>650.939</ele>
        <time>2020-04-19T18:19:43Z</time>
      </trkpt>
      <trkpt lat="42.95877" lon="0.38139">
        <ele>654.938</ele>
        <time>2020-04-19T18:20:03Z</time>
      </trkpt>
      <trkpt lat="42.95806" lon="0.38161">
        <ele>658.999</ele>
        <time>2020-04-19T18:20:23Z</time>
      </trkpt>
      <trkpt lat="42.9577" lon="0.38184">
        <ele>677.525</ele>
        <time>2020-04-19T18:20:43Z</time>
      </trkpt>
      <trkpt lat="42.95755" lon="0.38201">
        <ele>681.534</ele>
        <time>2020-04-19T18:21:03Z</time>
      </trkpt>
      <trkpt lat="42.95701" lon="0.38201">
        <ele>685.886</ele>
        <time>2020-04-19T18:21:23Z</time>
      </trkpt>
      <trkpt lat="42.95664" lon="0.38224">
        <ele>697.583</ele>
        <time>2020-04-19T18:21:43Z</time>
      </trkpt>
      <trkpt lat="42.95604" lon="0.38241">
        <ele>702.04</ele>
        <time>2020-04-19T18:22:03Z</time>
      </trkpt>
      <trkpt lat="42.95563" lon="0.38227">
        <ele>708.378</ele>
        <time>2020-04-19T18:22:23Z</time>
      </trkpt>
      <trkpt lat="42.95556" lon="0.38234">
        <ele>709.833</ele>
        <time>2020-04-19T18:22:43Z</time>
      </trkpt>
      <trkpt lat="42.9544" lon="0.38205">
        <ele>729.926</ele>
        <time>2020-04-19T18:23:03Z</time>
      </trkpt>
      <trkpt lat="42.95394" lon="0.38179">
        <ele>738.508</ele>
        <time>2020-04-19T18:23:23Z</time>
      </trkpt>
      <trkpt lat="42.95319" lon="0.38091">
        <ele>732.973</ele>
        <time>2020-04-19T18:23:43Z</time>
      </trkpt>
      <trkpt lat="42.95292" lon="0.38081">
        <ele>722.672</ele>
        <time>2020-04-19T18:24:03Z</time>
      </trkpt>
      <trkpt lat="42.95246" lon="0.38093">
        <ele>746.293</ele>
        <time>2020-04-19T18:24:23Z</time>
      </trkpt>
      <trkpt lat="42.95216" lon="0.3809">
        <ele>759.659</ele>
        <time>2020-04-19T18:24:43Z</time>
      </trkpt>
      <trkpt lat="42.95201" lon="0.38058">
        <ele>746.348</ele>
        <time>2020-04-19T18:25:03Z</time>
      </trkpt>
      <trkpt lat="42.95181" lon="0.37971">
        <ele>727.18</ele>
        <time>2020-04-19T18:25:23Z</time>
      </trkpt>
      <trkpt lat="42.9514" lon="0.37956">
        <ele>748.137</ele>
        <time>2020-04-19T18:25:43Z</time>
      </trkpt>
      <trkpt lat="42.95113" lon="0.37928">
        <ele>748.474</ele>
        <time>2020-04-19T18:26:03Z</time>
      </trkpt>
      <trkpt lat="42.95046" lon="0.37891">
        <ele>741.297</ele>
        <time>2020-04-19T18:26:23Z</time>
      </trkpt>
      <trkpt lat="42.95114" lon="0.37844">
        <ele>722.523</ele>
        <time>2020-04-19T18:26:43Z</time>
      </trkpt>
      <trkpt lat="42.95094" lon="0.3782">
        <ele>711.825</ele>
        <time>2020-04-19T18:27:03Z</time>
      </trkpt>
      <trkpt lat="42.95081" lon="0.3779">
        <ele>706.608</ele>
        <time>2020-04-19T18:27:23Z</time>
      </trkpt>
      <trkpt lat="42.9504" lon="0.37781">
        <ele>703.245</ele>
        <time>2020-04-19T18:27:43Z</time>
      </trkpt>
      <trkpt lat="42.95009" lon="0.37743">
        <ele>679.644</ele>
        <time>2020-04-19T18:28:03Z</time>
      </trkpt>
      <trkpt lat="42.94956" lon="0.37757">
        <ele>690.975</ele>
        <time>2020-04-19T18:28:23Z</time>
      </trkpt>
      <trkpt lat="42.94894" lon="0.37738">
        <ele>675.851</ele>
        <time>2020-04-19T18:28:43Z</time>
      </trkpt>
      <trkpt lat="42.94808" lon="0.37626">
        <ele>671.92</ele>
        <time>2020-04-19T18:29:03Z</time>
      </trkpt>
      <trkpt lat="42.9476" lon="0.37576">
        <ele>662.542</ele>
        <time>2020-04-19T18:29:23Z</time>
      </trkpt>
      <trkpt lat="42.9472" lon="0.37563">
        <ele>663.979</ele>
        <time>2020-04-19T18:29:43Z</time>
      </trkpt>
      <trkpt lat="42.94686" lon="0.37572">
        <ele>667.796</ele>
        <time>2020-04-19T18:30:03Z</time>
      </trkpt>
      <trkpt lat="42.94633" lon="0.37562">
        <ele>668.032</ele>
        <time>2020-04-19T18:30:23Z</time>
      </trkpt>
      <trkpt lat="42.94571" lon="0.37535">
        <ele>664.292</ele>
        <time>2020-04-19T18:30:43Z</time>
      </trkpt>
      <trkpt lat="42.94524" lon="0.3753">
        <ele>662.611</ele>
        <time>2020-04-19T18:31:03Z</time>
      </trkpt>
      <trkpt lat="42.94524" lon="0.37508">
        <ele>661.008</ele>
        <time>2020-04-19T18:31:23Z</time>
      </trkpt>
      <trkpt lat="42.94542" lon="0.3749">
        <ele>655.159</ele>
        <time>2020-04-19T18:31:43Z</time>
      </trkpt>
      <trkpt lat="42.94537" lon="0.37443">
        <ele>652.958</ele>
        <time>2020-04-19T18:32:03Z</time>
      </trkpt>
      <trkpt lat="42.94436" lon="0.37478">
        <ele>652.839</ele>
        <time>2020-04-19T18:32:23Z</time>
      </trkpt>
      <trkpt lat="42.9436" lon="0.37487">
        <ele>653.635</ele>
        <time>2020-04-19T18:32:43Z</time>
      </trkpt>
      <trkpt lat="42.94306" lon="0.37487">
        <ele>659.554</ele>
        <time>2020-04-19T18:33:03Z</time>
      </trkpt>
      <trkpt lat="42.94202" lon="0.37427">
        <ele>670.136</ele>
        <time>2020-04-19T18:33:23Z</time>
      </trkpt>
      <trkpt lat="42.94128" lon="0.37352">
        <ele>674.413</ele>
        <time>2020-04-19T18:33:43Z</time>
      </trkpt>
      <trkpt lat="42.94103" lon="0.37269">
        <ele>662.47</ele>
        <time>2020-04-19T18:34:03Z</time>
      </trkpt>
      <trkpt lat="42.94104" lon="0.37257">
        <ele>661.735</ele>
        <time>2020-04-19T18:34:23Z</time>
      </trkpt>
      <trkpt lat="42.94033" lon="0.37244">
        <ele>659.486</ele>
        <time>2020-04-19T18:34:43Z</time>
      </trkpt>
      <trkpt lat="42.94003" lon="0.3725">
        <ele>659.914</ele>
        <time>2020-04-19T18:35:03Z</time>
      </trkpt>
      <trkpt lat="42.93969" lon="0.37237">
        <ele>661.708</ele>
        <time>2020-04-19T18:35:23Z</time>
      </trkpt>
      <trkpt lat="42.93964" lon="0.37283">
        <ele>666.659</ele>
        <time>2020-04-19T18:35:43Z</time>
      </trkpt>
      <trkpt lat="42.93919" lon="0.3729">
        <ele>668.058</ele>
        <time>2020-04-19T18:36:03Z</time>
      </trkpt>
      <trkpt lat="42.93877" lon="0.37394">
        <ele>688.039</ele>
        <time>2020-04-19T18:36:23Z</time>
      </trkpt>
      <trkpt lat="42.93886" lon="0.37328">
        <ele>682.025</ele>
        <time>2020-04-19T18:36:43Z</time>
      </trkpt>
      <trkpt lat="42.93886" lon="0.37274">
        <ele>679.144</ele>
        <time>2020-04-19T18:37:03Z</time>
      </trkpt>
      <trkpt lat="42.9385" lon="0.37251">
        <ele>682.896</ele>
        <time>2020-04-19T18:37:23Z</time>
      </trkpt>
      <trkpt lat="42.93832" lon="0.37248">
        <ele>684.023</ele>
        <time>2020-04-19T18:37:43Z</time>
      </trkpt>
      <trkpt lat="42.93805" lon="0.3722">
        <ele>683.63</ele>
        <time>2020-04-19T18:38:03Z</time>
      </trkpt>
      <trkpt lat="42.93717" lon="0.37171">
        <ele>697.789</ele>
        <time>2020-04-19T18:38:23Z</time>
      </trkpt>
      <trkpt lat="42.93696" lon="0.37152">
        <ele>684.006</ele>
        <time>2020-04-19T18:38:43Z</time>
      </trkpt>
      <trkpt lat="42.93674" lon="0.37115">
        <ele>678.926</ele>
        <time>2020-04-19T18:39:03Z</time>
      </trkpt>
      <trkpt lat="42.93596" lon="0.37051">
        <ele>675.708</ele>
        <time>2020-04-19T18:39:23Z</time>
      </trkpt>
      <trkpt lat="42.93541" lon="0.37035">
        <ele>682.614</ele>
        <time>2020-04-19T18:39:43Z</time>
      </trkpt>
      <trkpt lat="42.93335" lon="0.37082">
        <ele>723.013</ele>
        <time>2020-04-19T18:40:03Z</time>
      </trkpt>
      <trkpt lat="42.93257" lon="0.37075">
        <ele>722.044</ele>
        <time>2020-04-19T18:40:23Z</time>
      </trkpt>
      <trkpt lat="42.93303" lon="0.37105">
        <ele>735.77</ele>
        <time>2020-04-19T18:40:43Z</time>
      </trkpt>
      <trkpt lat="42.93174" lon="0.37157">
        <ele>744.289</ele>
        <time>2020-04-19T18:41:03Z</time>
      </trkpt>
      <trkpt lat="42.93152" lon="0.37154">
        <ele>743.091</ele>
        <time>2020-04-19T18:41:23Z</time>
      </trkpt>
      <trkpt lat="42.93114" lon="0.37176">
        <ele>754.828</ele>
        <time>2020-04-19T18:41:43Z</time>
      </trkpt>
      <trkpt lat="42.9307" lon="0.37171">
        <ele>756.145</ele>
        <time>2020-04-19T18:42:03Z</time>
      </trkpt>
      <trkpt lat="42.93049" lon="0.37122">
        <ele>746.887</ele>
        <time>2020-04-19T18:42:23Z</time>
      </trkpt>
      <trkpt lat="42.9297" lon="0.37082">
        <ele>753.342</ele>
        <time>2020-04-19T18:42:43Z</time>
      </trkpt>
      <trkpt lat="42.92883" lon="0.37049">
        <ele>782.826</ele>
        <time>2020-04-19T18:43:03Z</time>
      </trkpt>
      <trkpt lat="42.92828" lon="0.37021">
        <ele>788.008</ele>
        <time>2020-04-19T18:43:23Z</time>
      </trkpt>
      <trkpt lat="42.92792" lon="0.3702">
        <ele>787.274</ele>
        <time>2020-04-19T18:43:43Z</time>
      </trkpt>
      <trkpt lat="42.92739" lon="0.37065">
        <ele>787.933</ele>
        <time>2020-04-19T18:44:03Z</time>
      </trkpt>
      <trkpt lat="42.9267" lon="0.37107">
        <ele>805.084</ele>
        <time>2020-04-19T18:44:23Z</time>
      </trkpt>
      <trkpt lat="42.92626" lon="0.37129">
        <ele>808.32</ele>
        <time>2020-04-19T18:44:43Z</time>
      </trkpt>
      <trkpt lat="42.92575" lon="0.37128">
        <ele>811.399</ele>
        <time>2020-04-19T18:45:03Z</time>
      </trkpt>
      <trkpt lat="42.92402" lon="0.37091">
        <ele>806.321</ele>
        <time>2020-04-19T18:45:23Z</time>
      </trkpt>
      <trkpt lat="42.92333" lon="0.37166">
        <ele>823.158</ele>
        <time>2020-04-19T18:45:43Z</time>
      </trkpt>
      <trkpt lat="42.92275" lon="0.37211">
        <ele>832.655</ele>
        <time>2020-04-19T18:46:03Z</time>
      </trkpt>
      <trkpt lat="42.92229" lon="0.37267">
        <ele>853.279</ele>
        <time>2020-04-19T18:46:23Z</time>
      </trkpt>
      <trkpt lat="42.92187" lon="0.37291">
        <ele>860.205</ele>
        <time>2020-04-19T18:46:43Z</time>
      </trkpt>
      <trkpt lat="42.92121" lon="0.37281">
        <ele>868.925</ele>
        <time>2020-04-19T18:47:03Z</time>
      </trkpt>
      <trkpt lat="42.9208" lon="0.37295">
        <ele>896.208</ele>
        <time>2020-04-19T18:47:23Z</time>
      </trkpt>
      <trkpt lat="42.92069" lon="0.37272">
        <ele>893.563</ele>
        <time>2020-04-19T18:47:43Z</time>
      </trkpt>
      <trkpt lat="42.92071" lon="0.3718">
        <ele>884.572</ele>
        <time>2020-04-19T18:48:03Z</time>
      </trkpt>
      <trkpt lat="42.92116" lon="0.37072">
        <ele>854.993</ele>
        <time>2020-04-19T18:48:23Z</time>
      </trkpt>
      <trkpt lat="42.92122" lon="0.3699">
        <ele>843.189</ele>
        <time>2020-04-19T18:48:43Z</time>
      </trkpt>
      <trkpt lat="42.92116" lon="0.36952">
        <ele>840.128</ele>
        <time>2020-04-19T18:49:03Z</time>
      </trkpt>
      <trkpt lat="42.92047" lon="0.36892">
        <ele>838.78</ele>
        <time>2020-04-19T18:49:23Z</time>
      </trkpt>
      <trkpt lat="42.91954" lon="0.36847">
        <ele>845.497</ele>
        <time>2020-04-19T18:49:43Z</time>
      </trkpt>
      <trkpt lat="42.91875" lon="0.36791">
        <ele>822.984</ele>
        <time>2020-04-19T18:50:03Z</time>
      </trkpt>
      <trkpt lat="42.91824" lon="0.36819">
        <ele>826.742</ele>
        <time>2020-04-19T18:50:23Z</time>
      </trkpt>
      <trkpt lat="42.91765" lon="0.36849">
        <ele>832.822</ele>
        <time>2020-04-19T18:50:43Z</time>
      </trkpt>
      <trkpt lat="42.91737" lon="0.36873">
        <ele>829.214</ele>
        <time>2020-04-19T18:51:03Z</time>
      </trkpt>
      <trkpt lat="42.91718" lon="0.36905">
        <ele>833.208</ele>
        <time>2020-04-19T18:51:23Z</time>
      </trkpt>
      <trkpt lat="42.91682" lon="0.36922">
        <ele>845.04</ele>
        <time>2020-04-19T18:51:43Z</time>
      </trkpt>
      <trkpt lat="42.91635" lon="0.36905">
        <ele>844.179</ele>
        <time>2020-04-19T18:52:03Z</time>
      </trkpt>
      <trkpt lat="42.9163" lon="0.36882">
        <ele>844.54</ele>
        <time>2020-04-19T18:52:23Z</time>
      </trkpt>
      <trkpt lat="42.91654" lon="0.36809">
        <ele>833.326</ele>
        <time>2020-04-19T18:52:43Z</time>
      </trkpt>
      <trkpt lat="42.91641" lon="0.36697">
        <ele>838.525</ele>
        <time>2020-04-19T18:53:03Z</time>
      </trkpt>
      <trkpt lat="42.91642" lon="0.36636">
        <ele>830.187</ele>
        <time>2020-04-19T18:53:23Z</time>
      </trkpt>
      <trkpt lat="42.9152" lon="0.36469">
        <ele>805.564</ele>
        <time>2020-04-19T18:53:43Z</time>
      </trkpt>
      <trkpt lat="42.91446" lon="0.36455">
        <ele>819.291</ele>
        <time>2020-04-19T18:54:03Z</time>
      </trkpt>
      <trkpt lat="42.91415" lon="0.36429">
        <ele>811.913</ele>
        <time>2020-04-19T18:54:23Z</time>
      </trkpt>
      <trkpt lat="42.91358" lon="0.36432">
        <ele>814.543</ele>
        <time>2020-04-19T18:54:43Z</time>
      </trkpt>
      <trkpt lat="42.91304" lon="0.36464">
        <ele>812.407</ele>
        <time>2020-04-19T18:55:03Z</time>
      </trkpt>
      <trkpt lat="42.91176" lon="0.36565">
        <ele>817.808</ele>
        <time>2020-04-19T18:55:23Z</time>
      </trkpt>
      <trkpt lat="42.91082" lon="0.36626">
        <ele>792.417</ele>
        <time>2020-04-19T18:55:43Z</time>
      </trkpt>
      <trkpt lat="42.91028" lon="0.36626">
        <ele>787.016</ele>
        <time>2020-04-19T18:56:03Z</time>
      </trkpt>
      <trkpt lat="42.90972" lon="0.36654">
        <ele>776.577</ele>
        <time>2020-04-19T18:56:23Z</time>
      </trkpt>
      <trkpt lat="42.90876" lon="0.36735">
        <ele>776.623</ele>
        <time>2020-04-19T18:56:43Z</time>
      </trkpt>
      <trkpt lat="42.90816" lon="0.36772">
        <ele>777.832</ele>
        <time>2020-04-19T18:57:03Z</time>
      </trkpt>
      <trkpt lat="42.90782" lon="0.36749">
        <ele>776.394</ele>
        <time>2020-04-19T18:57:23Z</time>
      </trkpt>
      <trkpt lat="42.90722" lon="0.36756">
        <ele>783.871</ele>
        <time>2020-04-19T18:57:43Z</time>
      </trkpt>
      <trkpt lat="42.90712" lon="0.36659">
        <ele>779.498</ele>
        <time>2020-04-19T18:58:03Z</time>
      </trkpt>
      <trkpt lat="42.90685" lon="0.3661">
        <ele>779.439</ele>
        <time>2020-04-19T18:58:23Z</time>
      </trkpt>
      <trkpt lat="42.90647" lon="0.36596">
        <ele>777.301</ele>
        <time>2020-04-19T18:58:43Z</time>
      </trkpt>
      <trkpt lat="42.90625" lon="0.36547">
        <ele>767.321</ele>
        <time>2020-04-19T18:59:03Z</time>
      </trkpt>
      <trkpt lat="42.90613" lon="0.36476">
        <ele>757.008</ele>
        <time>2020-04-19T18:59:23Z</time>
      </trkpt>
      <trkpt lat="42.90581" lon="0.36392">
        <ele>740.739</ele>
        <time>2020-04-19T18:59:43Z</time>
      </trkpt>
      <trkpt lat="42.90556" lon="0.36354">
        <ele>737.818</ele>
        <time>2020-04-19T19:00:03Z</time>
      </trkpt>
      <trkpt lat="42.90528" lon="0.36261">
        <ele>732.039</ele>
        <time>2020-04-19T19:00:23Z</time>
      </trkpt>
      <trkpt lat="42.9053" lon="0.36176">
        <ele>728.165</ele>
        <time>2020-04-19T19:00:43Z</time>
      </trkpt>
      <trkpt lat="42.90511" lon="0.36145">
        <ele>722.264</ele>
        <time>2020-04-19T19:01:03Z</time>
      </trkpt>
      <trkpt lat="42.90524" lon="0.35963">
        <ele>708.496</ele>
        <time>2020-04-19T19:01:23Z</time>
      </trkpt>
      <trkpt lat="42.90506" lon="0.35977">
        <ele>708.423</ele>
        <time>2020-04-19T19:01:43Z</time>
      </trkpt>
      <trkpt lat="42.90468" lon="0.35937">
        <ele>709.26</ele>
        <time>2020-04-19T19:02:03Z</time>
      </trkpt>
      <trkpt lat="42.90455" lon="0.35948">
        <ele>709.691</ele>
        <time>2020-04-19T19:02:23Z</time>
      </trkpt>
      <trkpt lat="42.90441" lon="0.35934">
        <ele>710.181</ele>
        <time>2020-04-19T19:02:43Z</time>
      </trkpt>
      <trkpt lat="42.90427" lon="0.3593">
        <ele>710.719</ele>
        <time>2020-04-19T19:03:03Z</time>
      </trkpt>
      <trkpt lat="42.90417" lon="0.35922">
        <ele>711.608</ele>
        <time>2020-04-19T19:03:23Z</time>
      </trkpt>
      <trkpt lat="42.90396" lon="0.35932">
        <ele>713.775</ele>
        <time>2020-04-19T19:03:43Z</time>
      </trkpt>
      <trkpt lat="42.90386" lon="0.35909">
        <ele>713.764</ele>
        <time>2020-04-19T19:04:03Z</time>
      </trkpt>
      <trkpt lat="42.9039" lon="0.3582">
        <ele>709.365</ele>
        <time>2020-04-19T19:04:23Z</time>
      </trkpt>
      <trkpt lat="42.90283" lon="0.35737">
        <ele>710.291</ele>
        <time>2020-04-19T19:04:43Z</time>
      </trkpt>
      <trkpt lat="42.90285" lon="0.35702">
        <ele>709.02</ele>
        <time>2020-04-19T19:05:03Z</time>
      </trkpt>
      <trkpt lat="42.90264" lon="0.35681">
        <ele>709.072</ele>
        <time>2020-04-19T19:05:23Z</time>
      </trkpt>
      <trkpt lat="42.9028" lon="0.35643">
        <ele>706.319</ele>
        <time>2020-04-19T19:05:43Z</time>
      </trkpt>
      <trkpt lat="42.90271" lon="0.35611">
        <ele>706.056</ele>
        <time>2020-04-19T19:06:03Z</time>
      </trkpt>
      <trkpt lat="42.90301" lon="0.35573">
        <ele>705.646</ele>
        <time>2020-04-19T19:06:23Z</time>
      </trkpt>
      <trkpt lat="42.90311" lon="0.35533">
        <ele>706.488</ele>
        <time>2020-04-19T19:06:43Z</time>
      </trkpt>
      <trkpt lat="42.9034" lon="0.35474">
        <ele>713.416</ele>
        <time>2020-04-19T19:07:03Z</time>
      </trkpt>
      <trkpt lat="42.90384" lon="0.35508">
        <ele>709.108</ele>
        <time>2020-04-19T19:07:23Z</time>
      </trkpt>
      <trkpt lat="42.90387" lon="0.35481">
        <ele>714.06</ele>
        <time>2020-04-19T19:07:43Z</time>
      </trkpt>
      <trkpt lat="42.90358" lon="0.3542">
        <ele>717.419</ele>
        <time>2020-04-19T19:08:03Z</time>
      </trkpt>
      <trkpt lat="42.90322" lon="0.35378">
        <ele>727.03</ele>
        <time>2020-04-19T19:08:23Z</time>
      </trkpt>
      <trkpt lat="42.90333" lon="0.35352">
        <ele>732.456</ele>
        <time>2020-04-19T19:08:43Z</time>
      </trkpt>
      <trkpt lat="42.90331" lon="0.35289">
        <ele>749.525</ele>
        <time>2020-04-19T19:09:03Z</time>
      </trkpt>
      <trkpt lat="42.90345" lon="0.35242">
        <ele>757.277</ele>
        <time>2020-04-19T19:09:23Z</time>
      </trkpt>
      <trkpt lat="42.90306" lon="0.35181">
        <ele>776.824</ele>
        <time>2020-04-19T19:09:43Z</time>
      </trkpt>
      <trkpt lat="42.90244" lon="0.35144">
        <ele>803.651</ele>
        <time>2020-04-19T19:10:03Z</time>
      </trkpt>
      <trkpt lat="42.90184" lon="0.35122">
        <ele>810.144</ele>
        <time>2020-04-19T19:10:23Z</time>
      </trkpt>
      <trkpt lat="42.90116" lon="0.35073">
        <ele>830.905</ele>
        <time>2020-04-19T19:10:43Z</time>
      </trkpt>
      <trkpt lat="42.90063" lon="0.35022">
        <ele>837.615</ele>
        <time>2020-04-19T19:11:03Z</time>
      </trkpt>
      <trkpt lat="42.89967" lon="0.35003">
        <ele>834.908</ele>
        <time>2020-04-19T19:11:23Z</time>
      </trkpt>
      <trkpt lat="42.89913" lon="0.34979">
        <ele>855.28</ele>
        <time>2020-04-19T19:11:43Z</time>
      </trkpt>
      <trkpt lat="42.89868" lon="0.34975">
        <ele>861.089</ele>
        <time>2020-04-19T19:12:03Z</time>
      </trkpt>
      <trkpt lat="42.89846" lon="0.34965">
        <ele>864.07</ele>
        <time>2020-04-19T19:12:23Z</time>
      </trkpt>
      <trkpt lat="42.89777" lon="0.34982">
        <ele>866.716</ele>
        <time>2020-04-19T19:12:43Z</time>
      </trkpt>
      <trkpt lat="42.89727" lon="0.34965">
        <ele>873.395</ele>
        <time>2020-04-19T19:13:03Z</time>
      </trkpt>
      <trkpt lat="42.89688" lon="0.34986">
        <ele>865.627</ele>
        <time>2020-04-19T19:13:23Z</time>
      </trkpt>
      <trkpt lat="42.89635" lon="0.34987">
        <ele>857.344</ele>
        <time>2020-04-19T19:13:43Z</time>
      </trkpt>
      <trkpt lat="42.89588" lon="0.34952">
        <ele>860.811</ele>
        <time>2020-04-19T19:14:03Z</time>
      </trkpt>
      <trkpt lat="42.89476" lon="0.34893">
        <ele>831.233</ele>
        <time>2020-04-19T19:14:23Z</time>
      </trkpt>
      <trkpt lat="42.89421" lon="0.34834">
        <ele>830.423</ele>
        <time>2020-04-19T19:14:43Z</time>
      </trkpt>
      <trkpt lat="42.89388" lon="0.34797">
        <ele>839.015</ele>
        <time>2020-04-19T19:15:03Z</time>
      </trkpt>
      <trkpt lat="42.89321" lon="0.34851">
        <ele>813.308</ele>
        <time>2020-04-19T19:15:23Z</time>
      </trkpt>
      <trkpt lat="42.89273" lon="0.34891">
        <ele>803.249</ele>
        <time>2020-04-19T19:15:43Z</time>
      </trkpt>
      <trkpt lat="42.89209" lon="0.34954">
        <ele>769.648</ele>
        <time>2020-04-19T19:16:03Z</time>
      </trkpt>
      <trkpt lat="42.89127" lon="0.34993">
        <ele>753.919</ele>
        <time>2020-04-19T19:16:23Z</time>
      </trkpt>
      <trkpt lat="42.8909" lon="0.34991">
        <ele>747.565</ele>
        <time>2020-04-19T19:16:43Z</time>
      </trkpt>
      <trkpt lat="42.89048" lon="0.34975">
        <ele>744.264</ele>
        <time>2020-04-19T19:17:03Z</time>
      </trkpt>
      <trkpt lat="42.89074" lon="0.34932">
        <ele>753.756</ele>
        <time>2020-04-19T19:17:23Z</time>
      </trkpt>
      <trkpt lat="42.89048" lon="0.34888">
        <ele>764.753</ele>
        <time>2020-04-19T19:17:43Z</time>
      </trkpt>
      <trkpt lat="42.89033" lon="0.34881">
        <ele>762.87</ele>
        <time>2020-04-19T19:18:03Z</time>
      </trkpt>
      <trkpt lat="42.89019" lon="0.34865">
        <ele>762.298</ele>
        <time>2020-04-19T19:18:23Z</time>
      </trkpt>
      <trkpt lat="42.89005" lon="0.34885">
        <ele>757.715</ele>
        <time>2020-04-19T19:18:43Z</time>
      </trkpt>
      <trkpt lat="42.88966" lon="0.34834">
        <ele>750.226</ele>
        <time>2020-04-19T19:19:03Z</time>
      </trkpt>
      <trkpt lat="42.88923" lon="0.34731">
        <ele>770.008</ele>
        <time>2020-04-19T19:19:23Z</time>
      </trkpt>
      <trkpt lat="42.8892" lon="0.34708">
        <ele>768.775</ele>
        <time>2021-02-12T20:15:54Z</time>
      </trkpt>
      <trkpt lat="42.88912" lon="0.34754">
        <ele>763.084</ele>
        <time>2021-02-12T20:16:14Z</time>
      </trkpt>
      <trkpt lat="42.88914" lon="0.3479">
        <ele>758.325</ele>
        <time>2021-02-12T20:16:34Z</time>
      </trkpt>
      <trkpt lat="42.88898" lon="0.34804">
        <ele>754.421</ele>
        <time>2021-02-12T20:16:54Z</time>
      </trkpt>
      <trkpt lat="42.8885" lon="0.34796">
        <ele>749.88</ele>
        <time>2021-02-12T20:17:14Z</time>
      </trkpt>
      <trkpt lat="42.8881" lon="0.34694">
        <ele>761.492</ele>
        <time>2021-02-12T20:17:34Z</time>
      </trkpt>
      <trkpt lat="42.88808" lon="0.34742">
        <ele>752.099</ele>
        <time>2021-02-12T20:17:54Z</time>
      </trkpt>
      <trkpt lat="42.88815" lon="0.3478">
        <ele>747.016</ele>
        <time>2021-02-12T20:18:14Z</time>
      </trkpt>
      <trkpt lat="42.88787" lon="0.34755">
        <ele>744.763</ele>
        <time>2021-02-12T20:18:34Z</time>
      </trkpt>
      <trkpt lat="42.88611" lon="0.34763">
        <ele>739.344</ele>
        <time>2021-02-12T20:18:54Z</time>
      </trkpt>
      <trkpt lat="42.88444" lon="0.34738">
        <ele>745.118</ele>
        <time>2021-02-12T20:19:14Z</time>
      </trkpt>
      <trkpt lat="42.88336" lon="0.34765">
        <ele>736.508</ele>
        <time>2021-02-12T20:19:34Z</time>
      </trkpt>
      <trkpt lat="42.8831" lon="0.34762">
        <ele>735.612</ele>
        <time>2021-02-12T20:19:54Z</time>
      </trkpt>
      <trkpt lat="42.88291" lon="0.3474">
        <ele>736.931</ele>
        <time>2021-02-12T20:20:14Z</time>
      </trkpt>
      <trkpt lat="42.8826" lon="0.347">
        <ele>742.562</ele>
        <time>2021-02-12T20:20:34Z</time>
      </trkpt>
      <trkpt lat="42.88232" lon="0.34677">
        <ele>746.258</ele>
        <time>2021-02-12T20:20:54Z</time>
      </trkpt>
      <trkpt lat="42.88197" lon="0.34651">
        <ele>756.457</ele>
        <time>2021-02-12T20:21:14Z</time>
      </trkpt>
      <trkpt lat="42.88159" lon="0.34657">
        <ele>753.889</ele>
        <time>2021-02-12T20:21:34Z</time>
      </trkpt>
      <trkpt lat="42.88157" lon="0.34642">
        <ele>762.516</ele>
        <time>2021-02-12T20:21:54Z</time>
      </trkpt>
      <trkpt lat="42.8812" lon="0.34661">
        <ele>752.243</ele>
        <time>2021-02-12T20:22:14Z</time>
      </trkpt>
      <trkpt lat="42.88086" lon="0.34665">
        <ele>751.149</ele>
        <time>2021-02-12T20:22:34Z</time>
      </trkpt>
      <trkpt lat="42.88062" lon="0.34646">
        <ele>758.502</ele>
        <time>2021-02-12T20:22:54Z</time>
      </trkpt>
      <trkpt lat="42.88038" lon="0.34614">
        <ele>768.922</ele>
        <time>2020-04-19T19:29:23Z</time>
      </trkpt>
      <trkpt lat="42.87993" lon="0.34579">
        <ele>786.808</ele>
        <time>2020-04-19T19:29:43Z</time>
      </trkpt>
      <trkpt lat="42.8796" lon="0.34571">
        <ele>792.51</ele>
        <time>2020-04-19T19:30:03Z</time>
      </trkpt>
      <trkpt lat="42.87931" lon="0.34548">
        <ele>795.179</ele>
        <time>2020-04-19T19:30:23Z</time>
      </trkpt>
      <trkpt lat="42.87904" lon="0.34548">
        <ele>781.99</ele>
        <time>2020-04-19T19:30:43Z</time>
      </trkpt>
      <trkpt lat="42.87876" lon="0.34532">
        <ele>783.346</ele>
        <time>2020-04-19T19:31:03Z</time>
      </trkpt>
      <trkpt lat="42.87859" lon="0.34527">
        <ele>782.425</ele>
        <time>2020-04-19T19:31:23Z</time>
      </trkpt>
      <trkpt lat="42.87832" lon="0.34494">
        <ele>790.967</ele>
        <time>2020-04-19T19:31:43Z</time>
      </trkpt>
      <trkpt lat="42.87802" lon="0.34478">
        <ele>793.394</ele>
        <time>2020-04-19T19:32:03Z</time>
      </trkpt>
      <trkpt lat="42.87759" lon="0.34421">
        <ele>792.141</ele>
        <time>2020-04-19T19:32:23Z</time>
      </trkpt>
      <trkpt lat="42.8774" lon="0.34374">
        <ele>793.791</ele>
        <time>2020-04-19T19:32:43Z</time>
      </trkpt>
      <trkpt lat="42.87699" lon="0.34343">
        <ele>794.781</ele>
        <time>2021-02-12T20:26:54Z</time>
      </trkpt>
      <trkpt lat="42.87699" lon="0.34318">
        <ele>802.419</ele>
        <time>2021-02-12T20:27:14Z</time>
      </trkpt>
      <trkpt lat="42.87686" lon="0.34312">
        <ele>798.408</ele>
        <time>2021-02-12T20:27:34Z</time>
      </trkpt>
      <trkpt lat="42.87675" lon="0.34295">
        <ele>807.935</ele>
        <time>2020-04-19T19:34:03Z</time>
      </trkpt>
      <trkpt lat="42.87652" lon="0.34288">
        <ele>788.784</ele>
        <time>2020-04-19T19:34:23Z</time>
      </trkpt>
      <trkpt lat="42.87648" lon="0.34277">
        <ele>795.335</ele>
        <time>2021-02-12T20:28:34Z</time>
      </trkpt>
      <trkpt lat="42.87626" lon="0.34284">
        <ele>786.641</ele>
        <time>2021-02-12T20:28:54Z</time>
      </trkpt>
      <trkpt lat="42.87621" lon="0.34257">
        <ele>791.83</ele>
        <time>2021-02-12T20:29:14Z</time>
      </trkpt>
      <trkpt lat="42.87606" lon="0.34235">
        <ele>792.742</ele>
        <time>2021-02-12T20:29:34Z</time>
      </trkpt>
      <trkpt lat="42.87578" lon="0.34164">
        <ele>803.319</ele>
        <time>2021-02-12T20:29:54Z</time>
      </trkpt>
      <trkpt lat="42.87576" lon="0.34145">
        <ele>806.476</ele>
        <time>2021-02-12T20:30:14Z</time>
      </trkpt>
      <trkpt lat="42.87554" lon="0.34128">
        <ele>797.694</ele>
        <time>2020-04-19T19:36:03Z</time>
      </trkpt>
      <trkpt lat="42.87555" lon="0.34078">
        <ele>810.657</ele>
        <time>2020-04-19T19:36:23Z</time>
      </trkpt>
      <trkpt lat="42.87544" lon="0.34003">
        <ele>810.522</ele>
        <time>2020-04-19T19:36:43Z</time>
      </trkpt>
      <trkpt lat="42.87499" lon="0.33827">
        <ele>812.308</ele>
        <time>2020-04-19T19:37:03Z</time>
      </trkpt>
      <trkpt lat="42.87466" lon="0.33764">
        <ele>810.285</ele>
        <time>2020-04-19T19:37:23Z</time>
      </trkpt>
      <trkpt lat="42.87431" lon="0.33732">
        <ele>810.974</ele>
        <time>2020-04-19T19:37:43Z</time>
      </trkpt>
      <trkpt lat="42.8741" lon="0.33689">
        <ele>805.365</ele>
        <time>2020-04-19T19:38:03Z</time>
      </trkpt>
      <trkpt lat="42.87388" lon="0.33712">
        <ele>802.041</ele>
        <time>2020-04-19T19:38:23Z</time>
      </trkpt>
      <trkpt lat="42.8737" lon="0.33698">
        <ele>802.47</ele>
        <time>2020-04-19T19:38:43Z</time>
      </trkpt>
      <trkpt lat="42.87281" lon="0.33708">
        <ele>799.732</ele>
        <time>2020-04-19T19:39:03Z</time>
      </trkpt>
      <trkpt lat="42.87318" lon="0.33769">
        <ele>789.779</ele>
        <time>2020-04-19T19:39:23Z</time>
      </trkpt>
      <trkpt lat="42.87325" lon="0.33806">
        <ele>788.156</ele>
        <time>2020-04-19T19:39:43Z</time>
      </trkpt>
      <trkpt lat="42.87288" lon="0.33854">
        <ele>782.738</ele>
        <time>2020-04-19T19:40:03Z</time>
      </trkpt>
      <trkpt lat="42.87242" lon="0.33879">
        <ele>778.37</ele>
        <time>2020-04-19T19:40:23Z</time>
      </trkpt>
      <trkpt lat="42.87218" lon="0.33858">
        <ele>778.117</ele>
        <time>2020-04-19T19:40:43Z</time>
      </trkpt>
      <trkpt lat="42.87095" lon="0.33868">
        <ele>772.008</ele>
        <time>2020-04-19T19:41:03Z</time>
      </trkpt>
      <trkpt lat="42.87017" lon="0.33865">
        <ele>769.989</ele>
        <time>2020-04-19T19:41:23Z</time>
      </trkpt>
      <trkpt lat="42.8698" lon="0.33849">
        <ele>769.128</ele>
        <time>2020-04-19T19:41:43Z</time>
      </trkpt>
      <trkpt lat="42.86895" lon="0.3386">
        <ele>769.289</ele>
        <time>2020-04-19T19:42:03Z</time>
      </trkpt>
      <trkpt lat="42.86853" lon="0.33849">
        <ele>771.315</ele>
        <time>2020-04-19T19:42:23Z</time>
      </trkpt>
      <trkpt lat="42.86822" lon="0.33832">
        <ele>777.694</ele>
        <time>2020-04-19T19:42:43Z</time>
      </trkpt>
      <trkpt lat="42.86662" lon="0.33813">
        <ele>773.946</ele>
        <time>2020-04-19T19:43:03Z</time>
      </trkpt>
      <trkpt lat="42.86612" lon="0.33837">
        <ele>773.483</ele>
        <time>2020-04-19T19:43:23Z</time>
      </trkpt>
      <trkpt lat="42.8656" lon="0.33839">
        <ele>774.95</ele>
        <time>2020-04-19T19:43:43Z</time>
      </trkpt>
      <trkpt lat="42.86511" lon="0.33871">
        <ele>774.234</ele>
        <time>2021-02-12T20:38:34Z</time>
      </trkpt>
      <trkpt lat="42.86498" lon="0.33899">
        <ele>772.855</ele>
        <time>2021-02-12T20:38:54Z</time>
      </trkpt>
      <trkpt lat="42.86346" lon="0.33824">
        <ele>777.61</ele>
        <time>2021-02-12T20:39:14Z</time>
      </trkpt>
      <trkpt lat="42.86339" lon="0.33843">
        <ele>777.208</ele>
        <time>2021-02-12T20:39:34Z</time>
      </trkpt>
      <trkpt lat="42.86165" lon="0.33879">
        <ele>771.559</ele>
        <time>2020-04-19T19:45:03Z</time>
      </trkpt>
      <trkpt lat="42.8598" lon="0.33961">
        <ele>768.928</ele>
        <time>2020-04-19T19:45:23Z</time>
      </trkpt>
      <trkpt lat="42.85824" lon="0.34006">
        <ele>774.179</ele>
        <time>2020-04-19T19:45:43Z</time>
      </trkpt>
      <trkpt lat="42.85717" lon="0.34065">
        <ele>776.335</ele>
        <time>2020-04-19T19:46:03Z</time>
      </trkpt>
      <trkpt lat="42.8565" lon="0.34081">
        <ele>778.934</ele>
        <time>2020-04-19T19:46:23Z</time>
      </trkpt>
      <trkpt lat="42.85615" lon="0.34051">
        <ele>785.216</ele>
        <time>2020-04-19T19:46:43Z</time>
      </trkpt>
      <trkpt lat="42.85613" lon="0.33992">
        <ele>808.713</ele>
        <time>2020-04-19T19:47:03Z</time>
      </trkpt>
      <trkpt lat="42.8563" lon="0.33964">
        <ele>812.65</ele>
        <time>2020-04-19T19:47:23Z</time>
      </trkpt>
      <trkpt lat="42.85612" lon="0.33959">
        <ele>814.535</ele>
        <time>2020-04-19T19:47:43Z</time>
      </trkpt>
      <trkpt lat="42.85607" lon="0.33963">
        <ele>813.986</ele>
        <time>2020-04-19T19:48:03Z</time>
      </trkpt>
      <trkpt lat="42.8559" lon="0.3395">
        <ele>817.714</ele>
        <time>2020-04-19T19:48:23Z</time>
      </trkpt>
      <trkpt lat="42.85542" lon="0.33968">
        <ele>824.208</ele>
        <time>2020-04-19T19:48:43Z</time>
      </trkpt>
      <trkpt lat="42.85496" lon="0.34003">
        <ele>814.129</ele>
        <time>2020-04-19T19:49:03Z</time>
      </trkpt>
      <trkpt lat="42.85295" lon="0.34081">
        <ele>793.958</ele>
        <time>2020-04-19T19:49:23Z</time>
      </trkpt>
      <trkpt lat="42.85248" lon="0.34083">
        <ele>783.759</ele>
        <time>2020-04-19T19:49:43Z</time>
      </trkpt>
      <trkpt lat="42.85185" lon="0.34062">
        <ele>795.895</ele>
        <time>2020-04-19T19:50:03Z</time>
      </trkpt>
      <trkpt lat="42.85174" lon="0.34088">
        <ele>776.394</ele>
        <time>2020-04-19T19:50:23Z</time>
      </trkpt>
      <trkpt lat="42.85062" lon="0.34099">
        <ele>782.256</ele>
        <time>2021-02-12T20:45:34Z</time>
      </trkpt>
      <trkpt lat="42.85006" lon="0.34123">
        <ele>778.023</ele>
        <time>2020-04-19T19:51:03Z</time>
      </trkpt>
      <trkpt lat="42.84918" lon="0.34102">
        <ele>783.47</ele>
        <time>2020-04-19T19:51:23Z</time>
      </trkpt>
      <trkpt lat="42.84879" lon="0.34088">
        <ele>777.662</ele>
        <time>2020-04-19T19:51:43Z</time>
      </trkpt>
      <trkpt lat="42.84766" lon="0.34043">
        <ele>782.383</ele>
        <time>2020-04-19T19:52:03Z</time>
      </trkpt>
      <trkpt lat="42.84389" lon="0.33813">
        <ele>774.411</ele>
        <time>2020-04-19T19:52:23Z</time>
      </trkpt>
      <trkpt lat="42.84366" lon="0.33912">
        <ele>772.108</ele>
        <time>2020-04-19T19:52:43Z</time>
      </trkpt>
      <trkpt lat="42.84342" lon="0.33933">
        <ele>771.312</ele>
        <time>2020-04-19T19:53:03Z</time>
      </trkpt>
      <trkpt lat="42.84338" lon="0.33968">
        <ele>770.951</ele>
        <time>2020-04-19T19:53:23Z</time>
      </trkpt>
      <trkpt lat="42.84324" lon="0.34015">
        <ele>769.012</ele>
        <time>2020-04-19T19:53:43Z</time>
      </trkpt>
      <trkpt lat="42.84274" lon="0.33992">
        <ele>770.198</ele>
        <time>2020-04-19T19:54:03Z</time>
      </trkpt>
      <trkpt lat="42.84255" lon="0.33999">
        <ele>770.027</ele>
        <time>2020-04-19T19:54:23Z</time>
      </trkpt>
      <trkpt lat="42.84186" lon="0.33954">
        <ele>771.769</ele>
        <time>2020-04-19T19:54:43Z</time>
      </trkpt>
      <trkpt lat="42.84113" lon="0.33858">
        <ele>773.046</ele>
        <time>2020-04-19T19:55:03Z</time>
      </trkpt>
      <trkpt lat="42.84063" lon="0.33811">
        <ele>773.113</ele>
        <time>2020-04-19T19:55:23Z</time>
      </trkpt>
      <trkpt lat="42.84051" lon="0.3378">
        <ele>773.134</ele>
        <time>2020-04-19T19:55:43Z</time>
      </trkpt>
      <trkpt lat="42.84014" lon="0.33755">
        <ele>773.655</ele>
        <time>2020-04-19T19:56:03Z</time>
      </trkpt>
      <trkpt lat="42.84001" lon="0.33759">
        <ele>773.81</ele>
        <time>2020-04-19T19:56:23Z</time>
      </trkpt>
      <trkpt lat="42.83935" lon="0.33711">
        <ele>775.408</ele>
        <time>2020-04-19T19:56:43Z</time>
      </trkpt>
      <trkpt lat="42.83934" lon="0.33693">
        <ele>775.749</ele>
        <time>2020-04-19T19:57:03Z</time>
      </trkpt>
      <trkpt lat="42.83916" lon="0.33675">
        <ele>777.118</ele>
        <time>2020-04-19T19:57:23Z</time>
      </trkpt>
      <trkpt lat="42.83891" lon="0.3358">
        <ele>777.239</ele>
        <time>2020-04-19T19:57:43Z</time>
      </trkpt>
      <trkpt lat="42.83832" lon="0.33284">
        <ele>785.745</ele>
        <time>2020-04-19T19:58:03Z</time>
      </trkpt>
      <trkpt lat="42.83839" lon="0.33272">
        <ele>791.834</ele>
        <time>2020-04-19T19:58:23Z</time>
      </trkpt>
      <trkpt lat="42.83835" lon="0.33262">
        <ele>791.716</ele>
        <time>2020-04-19T19:58:43Z</time>
      </trkpt>
      <trkpt lat="42.83793" lon="0.33276">
        <ele>784.963</ele>
        <time>2020-04-19T19:59:03Z</time>
      </trkpt>
      <trkpt lat="42.83791" lon="0.33246">
        <ele>789.06</ele>
        <time>2020-04-19T19:59:23Z</time>
      </trkpt>
      <trkpt lat="42.83773" lon="0.33216">
        <ele>788.634</ele>
        <time>2020-04-19T19:59:43Z</time>
      </trkpt>
      <trkpt lat="42.83765" lon="0.33187">
        <ele>788.255</ele>
        <time>2020-04-19T20:00:03Z</time>
      </trkpt>
      <trkpt lat="42.83542" lon="0.33054">
        <ele>786.11</ele>
        <time>2020-04-19T20:00:23Z</time>
      </trkpt>
      <trkpt lat="42.83323" lon="0.32947">
        <ele>787.708</ele>
        <time>2020-04-19T20:00:43Z</time>
      </trkpt>
      <trkpt lat="42.83284" lon="0.3294">
        <ele>788.059</ele>
        <time>2020-04-19T20:01:03Z</time>
      </trkpt>
      <trkpt lat="42.83152" lon="0.32942">
        <ele>790.568</ele>
        <time>2020-04-19T20:01:23Z</time>
      </trkpt>
      <trkpt lat="42.8309" lon="0.32925">
        <ele>791.679</ele>
        <time>2020-04-19T20:01:43Z</time>
      </trkpt>
      <trkpt lat="42.82961" lon="0.32843">
        <ele>793.335</ele>
        <time>2020-04-19T20:02:03Z</time>
      </trkpt>
      <trkpt lat="42.82973" lon="0.32792">
        <ele>793.414</ele>
        <time>2020-04-19T20:02:23Z</time>
      </trkpt>
      <trkpt lat="42.82978" lon="0.32712">
        <ele>794.196</ele>
        <time>2020-04-19T20:02:43Z</time>
      </trkpt>
      <trkpt lat="42.82938" lon="0.32669">
        <ele>795.023</ele>
        <time>2020-04-19T20:03:03Z</time>
      </trkpt>
      <trkpt lat="42.82857" lon="0.32609">
        <ele>797.08</ele>
        <time>2020-04-19T20:03:23Z</time>
      </trkpt>
      <trkpt lat="42.82852" lon="0.32568">
        <ele>797.294</ele>
        <time>2020-04-19T20:03:43Z</time>
      </trkpt>
      <trkpt lat="42.8279" lon="0.32462">
        <ele>798.557</ele>
        <time>2020-04-19T20:04:03Z</time>
      </trkpt>
      <trkpt lat="42.82649" lon="0.32161">
        <ele>804.922</ele>
        <time>2020-04-19T20:04:23Z</time>
      </trkpt>
      <trkpt lat="42.82635" lon="0.32092">
        <ele>805.908</ele>
        <time>2020-04-19T20:04:43Z</time>
      </trkpt>
      <trkpt lat="42.82616" lon="0.31978">
        <ele>811.895</ele>
        <time>2020-04-19T20:05:03Z</time>
      </trkpt>
      <trkpt lat="42.82558" lon="0.31855">
        <ele>817.634</ele>
        <time>2020-04-19T20:05:23Z</time>
      </trkpt>
      <trkpt lat="42.82578" lon="0.31789">
        <ele>820.825</ele>
        <time>2020-04-19T20:05:43Z</time>
      </trkpt>
      <trkpt lat="42.82554" lon="0.31765">
        <ele>820.941</ele>
        <time>2020-04-19T20:06:03Z</time>
      </trkpt>
      <trkpt lat="42.82547" lon="0.31666">
        <ele>828.19</ele>
        <time>2020-04-19T20:06:23Z</time>
      </trkpt>
      <trkpt lat="42.82439" lon="0.31582">
        <ele>826.682</ele>
        <time>2020-04-19T20:06:43Z</time>
      </trkpt>
      <trkpt lat="42.82423" lon="0.31606">
        <ele>823.149</ele>
        <time>2020-04-19T20:07:03Z</time>
      </trkpt>
      <trkpt lat="42.82383" lon="0.31578">
        <ele>826.716</ele>
        <time>2020-04-19T20:07:23Z</time>
      </trkpt>
      <trkpt lat="42.82361" lon="0.31593">
        <ele>823.434</ele>
        <time>2020-04-19T20:07:43Z</time>
      </trkpt>
      <trkpt lat="42.8235" lon="0.31546">
        <ele>828.255</ele>
        <time>2020-04-19T20:08:03Z</time>
      </trkpt>
      <trkpt lat="42.82346" lon="0.315">
        <ele>835.81</ele>
        <time>2020-04-19T20:08:23Z</time>
      </trkpt>
      <trkpt lat="42.8233" lon="0.31496">
        <ele>834.708</ele>
        <time>2020-04-19T20:08:43Z</time>
      </trkpt>
      <trkpt lat="42.82312" lon="0.31449">
        <ele>846.399</ele>
        <time>2020-04-19T20:09:03Z</time>
      </trkpt>
      <trkpt lat="42.82242" lon="0.31462">
        <ele>851.388</ele>
        <time>2020-04-19T20:09:23Z</time>
      </trkpt>
      <trkpt lat="42.82208" lon="0.31446">
        <ele>856.099</ele>
        <time>2020-04-19T20:09:43Z</time>
      </trkpt>
      <trkpt lat="42.82184" lon="0.31442">
        <ele>859.175</ele>
        <time>2020-04-19T20:10:03Z</time>
      </trkpt>
      <trkpt lat="42.82193" lon="0.31427">
        <ele>860.984</ele>
        <time>2020-04-19T20:10:23Z</time>
      </trkpt>
      <trkpt lat="42.8226" lon="0.31397">
        <ele>869.216</ele>
        <time>2020-04-19T20:10:43Z</time>
      </trkpt>
      <trkpt lat="42.82223" lon="0.3138">
        <ele>882.183</ele>
        <time>2020-04-19T20:11:03Z</time>
      </trkpt>
      <trkpt lat="42.82177" lon="0.31356">
        <ele>890.77</ele>
        <time>2020-04-19T20:11:23Z</time>
      </trkpt>
      <trkpt lat="42.82098" lon="0.3141">
        <ele>890.016</ele>
        <time>2020-04-19T20:11:43Z</time>
      </trkpt>
      <trkpt lat="42.8205" lon="0.31421">
        <ele>880.876</ele>
        <time>2020-04-19T20:12:03Z</time>
      </trkpt>
      <trkpt lat="42.81976" lon="0.31419">
        <ele>892.413</ele>
        <time>2020-04-19T20:12:23Z</time>
      </trkpt>
      <trkpt lat="42.81887" lon="0.31403">
        <ele>925.308</ele>
        <time>2020-04-19T20:12:43Z</time>
      </trkpt>
      <trkpt lat="42.81868" lon="0.31432">
        <ele>904.237</ele>
        <time>2020-04-19T20:13:03Z</time>
      </trkpt>
      <trkpt lat="42.81787" lon="0.31503">
        <ele>898.676</ele>
        <time>2020-04-19T20:13:23Z</time>
      </trkpt>
      <trkpt lat="42.81723" lon="0.31503">
        <ele>906.097</ele>
        <time>2020-04-19T20:13:43Z</time>
      </trkpt>
      <trkpt lat="42.81701" lon="0.31481">
        <ele>922.683</ele>
        <time>2020-04-19T20:14:03Z</time>
      </trkpt>
      <trkpt lat="42.81631" lon="0.3144">
        <ele>920.912</ele>
        <time>2020-04-19T20:14:23Z</time>
      </trkpt>
      <trkpt lat="42.81565" lon="0.31367">
        <ele>938.264</ele>
        <time>2020-04-19T20:14:43Z</time>
      </trkpt>
      <trkpt lat="42.81499" lon="0.31345">
        <ele>937.451</ele>
        <time>2020-04-19T20:15:03Z</time>
      </trkpt>
      <trkpt lat="42.81412" lon="0.31341">
        <ele>940.518</ele>
        <time>2020-04-19T20:15:23Z</time>
      </trkpt>
      <trkpt lat="42.81299" lon="0.31345">
        <ele>926.714</ele>
        <time>2020-04-19T20:15:43Z</time>
      </trkpt>
      <trkpt lat="42.81253" lon="0.31285">
        <ele>940.054</ele>
        <time>2020-04-19T20:16:03Z</time>
      </trkpt>
      <trkpt lat="42.81201" lon="0.31236">
        <ele>938.709</ele>
        <time>2020-04-19T20:16:23Z</time>
      </trkpt>
      <trkpt lat="42.81175" lon="0.31201">
        <ele>936.208</ele>
        <time>2021-02-12T21:11:34Z</time>
      </trkpt>
      <trkpt lat="42.81135" lon="0.3116">
        <ele>934.917</ele>
        <time>2021-02-12T21:11:54Z</time>
      </trkpt>
      <trkpt lat="42.81127" lon="0.31123">
        <ele>948.876</ele>
        <time>2021-02-12T21:12:14Z</time>
      </trkpt>
      <trkpt lat="42.80993" lon="0.30953">
        <ele>969.887</ele>
        <time>2021-02-12T21:12:34Z</time>
      </trkpt>
      <trkpt lat="42.8092" lon="0.30956">
        <ele>956.063</ele>
        <time>2020-04-19T20:18:03Z</time>
      </trkpt>
      <trkpt lat="42.80857" lon="0.30887">
        <ele>965.532</ele>
        <time>2020-04-19T20:18:23Z</time>
      </trkpt>
      <trkpt lat="42.80808" lon="0.30874">
        <ele>950.244</ele>
        <time>2021-02-12T21:13:34Z</time>
      </trkpt>
      <trkpt lat="42.80774" lon="0.30839">
        <ele>952.781</ele>
        <time>2021-02-12T21:13:54Z</time>
      </trkpt>
      <trkpt lat="42.80747" lon="0.30799">
        <ele>953.988</ele>
        <time>2021-02-12T21:14:14Z</time>
      </trkpt>
      <trkpt lat="42.80719" lon="0.30784">
        <ele>943.858</ele>
        <time>2021-02-12T21:14:34Z</time>
      </trkpt>
      <trkpt lat="42.80705" lon="0.30745">
        <ele>945.552</ele>
        <time>2021-02-12T21:14:54Z</time>
      </trkpt>
      <trkpt lat="42.80702" lon="0.30702">
        <ele>954.617</ele>
        <time>2020-04-19T20:19:43Z</time>
      </trkpt>
      <trkpt lat="42.8067" lon="0.30612">
        <ele>969.108</ele>
        <time>2020-04-19T20:20:03Z</time>
      </trkpt>
      <trkpt lat="42.80617" lon="0.3053">
        <ele>961.661</ele>
        <time>2020-04-19T20:20:23Z</time>
      </trkpt>
      <trkpt lat="42.80552" lon="0.30472">
        <ele>951.87</ele>
        <time>2020-04-19T20:20:43Z</time>
      </trkpt>
      <trkpt lat="42.80511" lon="0.30384">
        <ele>961.591</ele>
        <time>2020-04-19T20:21:03Z</time>
      </trkpt>
      <trkpt lat="42.80503" lon="0.30343">
        <ele>958.847</ele>
        <time>2020-04-19T20:21:23Z</time>
      </trkpt>
      <trkpt lat="42.80492" lon="0.30314">
        <ele>946.966</ele>
        <time>2020-04-19T20:21:43Z</time>
      </trkpt>
      <trkpt lat="42.80489" lon="0.30281">
        <ele>950.288</ele>
        <time>2020-04-19T20:22:03Z</time>
      </trkpt>
      <trkpt lat="42.80446" lon="0.30181">
        <ele>960.435</ele>
        <time>2020-04-19T20:22:23Z</time>
      </trkpt>
      <trkpt lat="42.80402" lon="0.30127">
        <ele>945.882</ele>
        <time>2020-04-19T20:22:43Z</time>
      </trkpt>
      <trkpt lat="42.80394" lon="0.30082">
        <ele>966.224</ele>
        <time>2020-04-19T20:23:03Z</time>
      </trkpt>
      <trkpt lat="42.80359" lon="0.30047">
        <ele>958.504</ele>
        <time>2020-04-19T20:23:23Z</time>
      </trkpt>
      <trkpt lat="42.80289" lon="0.29929">
        <ele>949.114</ele>
        <time>2020-04-19T20:23:43Z</time>
      </trkpt>
      <trkpt lat="42.80242" lon="0.29837">
        <ele>948.808</ele>
        <time>2020-04-19T20:24:03Z</time>
      </trkpt>
      <trkpt lat="42.80212" lon="0.29746">
        <ele>961.988</ele>
        <time>2020-04-19T20:24:23Z</time>
      </trkpt>
      <trkpt lat="42.80196" lon="0.29715">
        <ele>957.447</ele>
        <time>2020-04-19T20:24:43Z</time>
      </trkpt>
      <trkpt lat="42.80198" lon="0.29671">
        <ele>959.698</ele>
        <time>2020-04-19T20:25:03Z</time>
      </trkpt>
      <trkpt lat="42.80182" lon="0.29646">
        <ele>963.934</ele>
        <time>2020-04-19T20:25:23Z</time>
      </trkpt>
      <trkpt lat="42.80172" lon="0.29553">
        <ele>980.243</ele>
        <time>2020-04-19T20:25:43Z</time>
      </trkpt>
      <trkpt lat="42.8014" lon="0.29466">
        <ele>957.645</ele>
        <time>2020-04-19T20:26:03Z</time>
      </trkpt>
      <trkpt lat="42.80092" lon="0.29374">
        <ele>966.072</ele>
        <time>2020-04-19T20:26:23Z</time>
      </trkpt>
      <trkpt lat="42.80079" lon="0.29316">
        <ele>952.789</ele>
        <time>2020-04-19T20:26:43Z</time>
      </trkpt>
      <trkpt lat="42.8005" lon="0.29265">
        <ele>951.713</ele>
        <time>2020-04-19T20:27:03Z</time>
      </trkpt>
      <trkpt lat="42.80012" lon="0.29228">
        <ele>951.843</ele>
        <time>2020-04-19T20:27:23Z</time>
      </trkpt>
      <trkpt lat="42.79967" lon="0.29045">
        <ele>952.907</ele>
        <time>2020-04-19T20:27:43Z</time>
      </trkpt>
      <trkpt lat="42.79942" lon="0.28997">
        <ele>954.808</ele>
        <time>2020-04-19T20:28:03Z</time>
      </trkpt>
      <trkpt lat="42.79917" lon="0.28917">
        <ele>945.317</ele>
        <time>2020-04-19T20:28:23Z</time>
      </trkpt>
      <trkpt lat="42.79908" lon="0.28839">
        <ele>953.016</ele>
        <time>2020-04-19T20:28:43Z</time>
      </trkpt>
      <trkpt lat="42.79854" lon="0.28777">
        <ele>950.987</ele>
        <time>2020-04-19T20:29:03Z</time>
      </trkpt>
      <trkpt lat="42.79851" lon="0.28737">
        <ele>953.473</ele>
        <time>2020-04-19T20:29:23Z</time>
      </trkpt>
      <trkpt lat="42.79833" lon="0.28731">
        <ele>957.422</ele>
        <time>2020-04-19T20:29:43Z</time>
      </trkpt>
      <trkpt lat="42.7982" lon="0.28745">
        <ele>956.084</ele>
        <time>2020-04-19T20:30:03Z</time>
      </trkpt>
      <trkpt lat="42.79807" lon="0.28803">
        <ele>955.871</ele>
        <time>2020-04-19T20:30:23Z</time>
      </trkpt>
      <trkpt lat="42.79792" lon="0.28775">
        <ele>959.818</ele>
        <time>2020-04-19T20:30:43Z</time>
      </trkpt>
      <trkpt lat="42.79783" lon="0.28791">
        <ele>960.971</ele>
        <time>2020-04-19T20:31:03Z</time>
      </trkpt>
      <trkpt lat="42.79798" lon="0.28871">
        <ele>956.541</ele>
        <time>2020-04-19T20:31:23Z</time>
      </trkpt>
      <trkpt lat="42.79755" lon="0.28923">
        <ele>965.015</ele>
        <time>2020-04-19T20:31:43Z</time>
      </trkpt>
      <trkpt lat="42.79711" lon="0.28885">
        <ele>968.908</ele>
        <time>2020-04-19T20:32:03Z</time>
      </trkpt>
      <trkpt lat="42.79691" lon="0.28847">
        <ele>968.853</ele>
        <time>2020-04-19T20:32:23Z</time>
      </trkpt>
      <trkpt lat="42.79591" lon="0.28881">
        <ele>992.032</ele>
        <time>2021-02-12T21:28:14Z</time>
      </trkpt>
      <trkpt lat="42.79557" lon="0.28809">
        <ele>1009.033</ele>
        <time>2021-02-12T21:28:34Z</time>
      </trkpt>
      <trkpt lat="42.79497" lon="0.28737">
        <ele>1037.099</ele>
        <time>2021-02-12T21:28:54Z</time>
      </trkpt>
      <trkpt lat="42.79477" lon="0.28689">
        <ele>1046.988</ele>
        <time>2021-02-12T21:29:14Z</time>
      </trkpt>
      <trkpt lat="42.79449" lon="0.28593">
        <ele>1066.71</ele>
        <time>2021-02-12T21:29:34Z</time>
      </trkpt>
      <trkpt lat="42.79433" lon="0.28639">
        <ele>1076.227</ele>
        <time>2021-02-12T21:29:54Z</time>
      </trkpt>
      <trkpt lat="42.79424" lon="0.287">
        <ele>1084.084</ele>
        <time>2021-02-12T21:30:14Z</time>
      </trkpt>
      <trkpt lat="42.79402" lon="0.28685">
        <ele>1096.427</ele>
        <time>2021-02-12T21:30:34Z</time>
      </trkpt>
      <trkpt lat="42.7934" lon="0.28515">
        <ele>1129.768</ele>
        <time>2021-02-12T21:30:54Z</time>
      </trkpt>
      <trkpt lat="42.79321" lon="0.28432">
        <ele>1134.714</ele>
        <time>2021-02-12T21:31:14Z</time>
      </trkpt>
      <trkpt lat="42.79313" lon="0.28352">
        <ele>1137.708</ele>
        <time>2021-02-12T21:31:34Z</time>
      </trkpt>
      <trkpt lat="42.79279" lon="0.28299">
        <ele>1147.748</ele>
        <time>2021-02-12T21:31:54Z</time>
      </trkpt>
      <trkpt lat="42.79268" lon="0.28223">
        <ele>1152.237</ele>
        <time>2021-02-12T21:32:14Z</time>
      </trkpt>
      <trkpt lat="42.79211" lon="0.28209">
        <ele>1168.798</ele>
        <time>2021-02-12T21:32:34Z</time>
      </trkpt>
      <trkpt lat="42.79183" lon="0.28181">
        <ele>1177.854</ele>
        <time>2021-02-12T21:32:54Z</time>
      </trkpt>
      <trkpt lat="42.79184" lon="0.2821">
        <ele>1178.183</ele>
        <time>2021-02-12T21:33:14Z</time>
      </trkpt>
      <trkpt lat="42.7919" lon="0.28253">
        <ele>1176.765</ele>
        <time>2021-02-12T21:33:34Z</time>
      </trkpt>
      <trkpt lat="42.79184" lon="0.28343">
        <ele>1189.572</ele>
        <time>2021-02-12T21:33:54Z</time>
      </trkpt>
      <trkpt lat="42.79191" lon="0.28384">
        <ele>1190.479</ele>
        <time>2021-02-12T21:34:14Z</time>
      </trkpt>
      <trkpt lat="42.7919" lon="0.28464">
        <ele>1199.146</ele>
        <time>2021-02-12T21:34:34Z</time>
      </trkpt>
      <trkpt lat="42.79195" lon="0.28494">
        <ele>1200.188</ele>
        <time>2021-02-12T21:34:54Z</time>
      </trkpt>
      <trkpt lat="42.79172" lon="0.28603">
        <ele>1210.616</ele>
        <time>2021-02-12T21:35:14Z</time>
      </trkpt>
      <trkpt lat="42.79157" lon="0.28655">
        <ele>1223.008</ele>
        <time>2021-02-12T21:35:34Z</time>
      </trkpt>
      <trkpt lat="42.79164" lon="0.28736">
        <ele>1223.01</ele>
        <time>2021-02-12T21:35:54Z</time>
      </trkpt>
      <trkpt lat="42.79158" lon="0.28888">
        <ele>1223.529</ele>
        <time>2021-02-12T21:36:14Z</time>
      </trkpt>
      <trkpt lat="42.79143" lon="0.28943">
        <ele>1232.03</ele>
        <time>2021-02-12T21:36:34Z</time>
      </trkpt>
      <trkpt lat="42.79171" lon="0.29023">
        <ele>1218.716</ele>
        <time>2021-02-12T21:36:54Z</time>
      </trkpt>
      <trkpt lat="42.79181" lon="0.29077">
        <ele>1219.425</ele>
        <time>2021-02-12T21:37:14Z</time>
      </trkpt>
      <trkpt lat="42.79181" lon="0.29096">
        <ele>1221.077</ele>
        <time>2021-02-12T21:37:34Z</time>
      </trkpt>
      <trkpt lat="42.79191" lon="0.29123">
        <ele>1218.194</ele>
        <time>2021-02-12T21:37:54Z</time>
      </trkpt>
      <trkpt lat="42.79183" lon="0.292">
        <ele>1222.131</ele>
        <time>2021-02-12T21:38:14Z</time>
      </trkpt>
      <trkpt lat="42.79183" lon="0.29245">
        <ele>1218.626</ele>
        <time>2021-02-12T21:38:34Z</time>
      </trkpt>
      <trkpt lat="42.79171" lon="0.29279">
        <ele>1220.347</ele>
        <time>2021-02-12T21:38:54Z</time>
      </trkpt>
      <trkpt lat="42.79153" lon="0.29298">
        <ele>1227.011</ele>
        <time>2021-02-12T21:39:14Z</time>
      </trkpt>
      <trkpt lat="42.79147" lon="0.29346">
        <ele>1226.608</ele>
        <time>2021-02-12T21:39:34Z</time>
      </trkpt>
      <trkpt lat="42.79155" lon="0.29401">
        <ele>1222.228</ele>
        <time>2021-02-12T21:39:54Z</time>
      </trkpt>
      <trkpt lat="42.79126" lon="0.29571">
        <ele>1224.947</ele>
        <time>2021-02-12T21:40:14Z</time>
      </trkpt>
      <trkpt lat="42.79106" lon="0.2963">
        <ele>1223.998</ele>
        <time>2021-02-12T21:40:34Z</time>
      </trkpt>
      <trkpt lat="42.79094" lon="0.29723">
        <ele>1208.974</ele>
        <time>2021-02-12T21:40:54Z</time>
      </trkpt>
      <trkpt lat="42.79072" lon="0.29757">
        <ele>1210.873</ele>
        <time>2021-02-12T21:41:14Z</time>
      </trkpt>
      <trkpt lat="42.79058" lon="0.29783">
        <ele>1207.985</ele>
        <time>2021-02-12T21:41:34Z</time>
      </trkpt>
      <trkpt lat="42.78998" lon="0.29808">
        <ele>1225.632</ele>
        <time>2021-02-12T21:41:54Z</time>
      </trkpt>
      <trkpt lat="42.78934" lon="0.29923">
        <ele>1232.049</ele>
        <time>2021-02-12T21:42:14Z</time>
      </trkpt>
      <trkpt lat="42.78899" lon="0.30042">
        <ele>1235.976</ele>
        <time>2021-02-12T21:42:34Z</time>
      </trkpt>
      <trkpt lat="42.78903" lon="0.30118">
        <ele>1225.89</ele>
        <time>2021-02-12T21:42:54Z</time>
      </trkpt>
      <trkpt lat="42.78872" lon="0.3021">
        <ele>1223.919</ele>
        <time>2021-02-12T21:43:14Z</time>
      </trkpt>
      <trkpt lat="42.78863" lon="0.30284">
        <ele>1207.208</ele>
        <time>2021-02-12T21:43:34Z</time>
      </trkpt>
      <trkpt lat="42.78843" lon="0.3031">
        <ele>1205.933</ele>
        <time>2021-02-12T21:43:54Z</time>
      </trkpt>
      <trkpt lat="42.78777" lon="0.30328">
        <ele>1209.642</ele>
        <time>2021-02-12T21:44:14Z</time>
      </trkpt>
      <trkpt lat="42.78711" lon="0.30381">
        <ele>1195.553</ele>
        <time>2021-02-12T21:44:34Z</time>
      </trkpt>
      <trkpt lat="42.78488" lon="0.30479">
        <ele>1179.639</ele>
        <time>2021-02-12T21:44:54Z</time>
      </trkpt>
      <trkpt lat="42.78437" lon="0.30557">
        <ele>1164.688</ele>
        <time>2021-02-12T21:45:14Z</time>
      </trkpt>
      <trkpt lat="42.78375" lon="0.30622">
        <ele>1159.71</ele>
        <time>2021-02-12T21:45:34Z</time>
      </trkpt>
      <trkpt lat="42.78381" lon="0.30637">
        <ele>1152.167</ele>
        <time>2021-02-12T21:45:54Z</time>
      </trkpt>
      <trkpt lat="42.78459" lon="0.30584">
        <ele>1147.844</ele>
        <time>2021-02-12T21:46:14Z</time>
      </trkpt>
      <trkpt lat="42.7846" lon="0.30596">
        <ele>1144.317</ele>
        <time>2021-02-12T21:46:34Z</time>
      </trkpt>
      <trkpt lat="42.78363" lon="0.30717">
        <ele>1144.987</ele>
        <time>2021-02-12T21:46:54Z</time>
      </trkpt>
      <trkpt lat="42.78286" lon="0.30722">
        <ele>1155.315</ele>
        <time>2020-04-19T20:51:03Z</time>
      </trkpt>
      <trkpt lat="42.78251" lon="0.30718">
        <ele>1160.608</ele>
        <time>2021-02-12T21:47:34Z</time>
      </trkpt>
      <trkpt lat="42.782" lon="0.30758">
        <ele>1161.247</ele>
        <time>2021-02-12T21:47:54Z</time>
      </trkpt>
      <trkpt lat="42.78131" lon="0.30762">
        <ele>1170.226</ele>
        <time>2021-02-12T21:48:14Z</time>
      </trkpt>
      <trkpt lat="42.78099" lon="0.30746">
        <ele>1172.097</ele>
        <time>2021-02-12T21:48:34Z</time>
      </trkpt>
      <trkpt lat="42.78047" lon="0.3073">
        <ele>1182.553</ele>
        <time>2021-02-12T21:48:54Z</time>
      </trkpt>
      <trkpt lat="42.78036" lon="0.3068">
        <ele>1182.612</ele>
        <time>2020-04-19T20:53:03Z</time>
      </trkpt>
      <trkpt lat="42.78005" lon="0.30659">
        <ele>1183.994</ele>
        <time>2020-04-19T20:53:23Z</time>
      </trkpt>
      <trkpt lat="42.77976" lon="0.30618">
        <ele>1194.751</ele>
        <time>2020-04-19T20:53:43Z</time>
      </trkpt>
      <trkpt lat="42.7782" lon="0.30577">
        <ele>1205.138</ele>
        <time>2020-04-19T20:54:03Z</time>
      </trkpt>
      <trkpt lat="42.77751" lon="0.30603">
        <ele>1198.482</ele>
        <time>2020-04-19T20:54:23Z</time>
      </trkpt>
      <trkpt lat="42.77683" lon="0.3059">
        <ele>1193.143</ele>
        <time>2020-04-19T20:54:43Z</time>
      </trkpt>
      <trkpt lat="42.77617" lon="0.30547">
        <ele>1212.617</ele>
        <time>2020-04-19T20:55:03Z</time>
      </trkpt>
      <trkpt lat="42.77545" lon="0.30519">
        <ele>1219.608</ele>
        <time>2020-04-19T20:55:23Z</time>
      </trkpt>
      <trkpt lat="42.77466" lon="0.30519">
        <ele>1232.474</ele>
        <time>2020-04-19T20:55:43Z</time>
      </trkpt>
      <trkpt lat="42.77384" lon="0.30575">
        <ele>1230.443</ele>
        <time>2020-04-19T20:56:03Z</time>
      </trkpt>
      <trkpt lat="42.77343" lon="0.30558">
        <ele>1231.734</ele>
        <time>2020-04-19T20:56:23Z</time>
      </trkpt>
      <trkpt lat="42.77304" lon="0.30515">
        <ele>1237.58</ele>
        <time>2020-04-19T20:56:43Z</time>
      </trkpt>
      <trkpt lat="42.77214" lon="0.30468">
        <ele>1253.199</ele>
        <time>2020-04-19T20:57:03Z</time>
      </trkpt>
      <trkpt lat="42.77145" lon="0.30453">
        <ele>1255.541</ele>
        <time>2020-04-19T20:57:23Z</time>
      </trkpt>
      <trkpt lat="42.77008" lon="0.30386">
        <ele>1288.288</ele>
        <time>2020-04-19T20:57:43Z</time>
      </trkpt>
      <trkpt lat="42.76907" lon="0.30446">
        <ele>1265.215</ele>
        <time>2020-04-19T20:58:03Z</time>
      </trkpt>
      <trkpt lat="42.76853" lon="0.30459">
        <ele>1266.282</ele>
        <time>2020-04-19T20:58:23Z</time>
      </trkpt>
      <trkpt lat="42.76781" lon="0.30418">
        <ele>1272.943</ele>
        <time>2020-04-19T20:58:43Z</time>
      </trkpt>
      <trkpt lat="42.76729" lon="0.30401">
        <ele>1282.117</ele>
        <time>2020-04-19T20:59:03Z</time>
      </trkpt>
      <trkpt lat="42.76649" lon="0.30348">
        <ele>1285.208</ele>
        <time>2020-04-19T20:59:23Z</time>
      </trkpt>
      <trkpt lat="42.76581" lon="0.30247">
        <ele>1309.154</ele>
        <time>2020-04-19T20:59:43Z</time>
      </trkpt>
      <trkpt lat="42.76535" lon="0.3024">
        <ele>1313.223</ele>
        <time>2020-04-19T21:00:03Z</time>
      </trkpt>
      <trkpt lat="42.76477" lon="0.30217">
        <ele>1318.594</ele>
        <time>2020-04-19T21:00:23Z</time>
      </trkpt>
      <trkpt lat="42.76428" lon="0.30219">
        <ele>1320.61</ele>
        <time>2020-04-19T21:00:43Z</time>
      </trkpt>
      <trkpt lat="42.76444" lon="0.3027">
        <ele>1296.759</ele>
        <time>2020-04-19T21:01:03Z</time>
      </trkpt>
      <trkpt lat="42.7646" lon="0.30276">
        <ele>1295.691</ele>
        <time>2020-04-19T21:01:23Z</time>
      </trkpt>
      <trkpt lat="42.76468" lon="0.30321">
        <ele>1292.938</ele>
        <time>2020-04-19T21:01:43Z</time>
      </trkpt>
      <trkpt lat="42.76466" lon="0.30353">
        <ele>1298.025</ele>
        <time>2020-04-19T21:02:03Z</time>
      </trkpt>
      <trkpt lat="42.7648" lon="0.30373">
        <ele>1298.265</ele>
        <time>2020-04-19T21:02:23Z</time>
      </trkpt>
      <trkpt lat="42.76484" lon="0.30397">
        <ele>1299.168</ele>
        <time>2020-04-19T21:02:43Z</time>
      </trkpt>
      <trkpt lat="42.76494" lon="0.30411">
        <ele>1296.814</ele>
        <time>2020-04-19T21:03:03Z</time>
      </trkpt>
      <trkpt lat="42.76491" lon="0.30443">
        <ele>1314.008</ele>
        <time>2020-04-19T21:03:23Z</time>
      </trkpt>
      <trkpt lat="42.76556" lon="0.30495">
        <ele>1303.572</ele>
        <time>2020-04-19T21:03:43Z</time>
      </trkpt>
      <trkpt lat="42.76548" lon="0.30508">
        <ele>1325.611</ele>
        <time>2020-04-19T21:04:03Z</time>
      </trkpt>
      <trkpt lat="42.7655" lon="0.30516">
        <ele>1326.532</ele>
        <time>2020-04-19T21:04:23Z</time>
      </trkpt>
      <trkpt lat="42.76451" lon="0.30445">
        <ele>1323.198</ele>
        <time>2020-04-19T21:04:43Z</time>
      </trkpt>
      <trkpt lat="42.76369" lon="0.30399">
        <ele>1326.937</ele>
        <time>2020-04-19T21:05:03Z</time>
      </trkpt>
      <trkpt lat="42.76311" lon="0.30359">
        <ele>1323.479</ele>
        <time>2020-04-19T21:05:23Z</time>
      </trkpt>
      <trkpt lat="42.7625" lon="0.30355">
        <ele>1318.016</ele>
        <time>2020-04-19T21:05:43Z</time>
      </trkpt>
      <trkpt lat="42.76214" lon="0.30375">
        <ele>1318.733</ele>
        <time>2020-04-19T21:06:03Z</time>
      </trkpt>
      <trkpt lat="42.76158" lon="0.30451">
        <ele>1327.043</ele>
        <time>2020-04-19T21:06:23Z</time>
      </trkpt>
      <trkpt lat="42.76066" lon="0.30519">
        <ele>1335.864</ele>
        <time>2020-04-19T21:06:43Z</time>
      </trkpt>
      <trkpt lat="42.76012" lon="0.30552">
        <ele>1343.11</ele>
        <time>2020-04-19T21:07:03Z</time>
      </trkpt>
      <trkpt lat="42.75956" lon="0.30573">
        <ele>1345.308</ele>
        <time>2020-04-19T21:07:23Z</time>
      </trkpt>
      <trkpt lat="42.75818" lon="0.30525">
        <ele>1349.89</ele>
        <time>2020-04-19T21:07:43Z</time>
      </trkpt>
      <trkpt lat="42.7575" lon="0.30511">
        <ele>1343.679</ele>
        <time>2020-04-19T21:08:03Z</time>
      </trkpt>
      <trkpt lat="42.75691" lon="0.30512">
        <ele>1349.38</ele>
        <time>2020-04-19T21:08:23Z</time>
      </trkpt>
      <trkpt lat="42.7564" lon="0.30502">
        <ele>1353.986</ele>
        <time>2020-04-19T21:08:43Z</time>
      </trkpt>
      <trkpt lat="42.75584" lon="0.30509">
        <ele>1350.295</ele>
        <time>2020-04-19T21:09:03Z</time>
      </trkpt>
      <trkpt lat="42.75461" lon="0.30472">
        <ele>1357.297</ele>
        <time>2020-04-19T21:09:23Z</time>
      </trkpt>
      <trkpt lat="42.75396" lon="0.30479">
        <ele>1354.094</ele>
        <time>2020-04-19T21:09:43Z</time>
      </trkpt>
      <trkpt lat="42.75199" lon="0.30569">
        <ele>1358.391</ele>
        <time>2020-04-19T21:10:03Z</time>
      </trkpt>
      <trkpt lat="42.75186" lon="0.30557">
        <ele>1357.529</ele>
        <time>2021-02-12T22:06:34Z</time>
      </trkpt>
      <trkpt lat="42.75083" lon="0.30691">
        <ele>1365.4</ele>
        <time>2021-02-12T22:06:54Z</time>
      </trkpt>
      <trkpt lat="42.74946" lon="0.30794">
        <ele>1387.42</ele>
        <time>2021-02-12T22:07:14Z</time>
      </trkpt>
      <trkpt lat="42.74859" lon="0.30769">
        <ele>1376.508</ele>
        <time>2021-02-12T22:07:34Z</time>
      </trkpt>
      <trkpt lat="42.74832" lon="0.30784">
        <ele>1380.288</ele>
        <time>2021-02-12T22:07:54Z</time>
      </trkpt>
      <trkpt lat="42.74788" lon="0.3077">
        <ele>1377.357</ele>
        <time>2021-02-12T22:08:14Z</time>
      </trkpt>
      <trkpt lat="42.74779" lon="0.30749">
        <ele>1370.048</ele>
        <time>2021-02-12T22:08:34Z</time>
      </trkpt>
      <trkpt lat="42.74738" lon="0.30752">
        <ele>1370.394</ele>
        <time>2021-02-12T22:08:54Z</time>
      </trkpt>
      <trkpt lat="42.74715" lon="0.30771">
        <ele>1377.853</ele>
        <time>2021-02-12T22:09:14Z</time>
      </trkpt>
      <trkpt lat="42.74625" lon="0.30779">
        <ele>1378.165</ele>
        <time>2021-02-12T22:09:34Z</time>
      </trkpt>
      <trkpt lat="42.74552" lon="0.30751">
        <ele>1370.662</ele>
        <time>2021-02-12T22:09:54Z</time>
      </trkpt>
      <trkpt lat="42.74464" lon="0.30807">
        <ele>1386.029</ele>
        <time>2021-02-12T22:10:14Z</time>
      </trkpt>
      <trkpt lat="42.7439" lon="0.30797">
        <ele>1384.453</ele>
        <time>2021-02-12T22:10:34Z</time>
      </trkpt>
      <trkpt lat="42.74297" lon="0.30835">
        <ele>1387.904</ele>
        <time>2021-02-12T22:10:54Z</time>
      </trkpt>
      <trkpt lat="42.74271" lon="0.30867">
        <ele>1399.114</ele>
        <time>2021-02-12T22:11:14Z</time>
      </trkpt>
      <trkpt lat="42.74201" lon="0.3087">
        <ele>1391.308</ele>
        <time>2021-02-12T22:11:34Z</time>
      </trkpt>
      <trkpt lat="42.74119" lon="0.30918">
        <ele>1394.381</ele>
        <time>2021-02-12T22:11:54Z</time>
      </trkpt>
      <trkpt lat="42.7408" lon="0.30925">
        <ele>1397.12</ele>
        <time>2021-02-12T22:12:14Z</time>
      </trkpt>
      <trkpt lat="42.73978" lon="0.3093">
        <ele>1398.561</ele>
        <time>2021-02-12T22:12:34Z</time>
      </trkpt>
      <trkpt lat="42.73935" lon="0.30895">
        <ele>1392.857</ele>
        <time>2021-02-12T22:12:54Z</time>
      </trkpt>
      <trkpt lat="42.73976" lon="0.30882">
        <ele>1390.556</ele>
        <time>2021-02-12T22:13:14Z</time>
      </trkpt>
      <trkpt lat="42.74006" lon="0.30851">
        <ele>1386.168</ele>
        <time>2021-02-12T22:13:34Z</time>
      </trkpt>
      <trkpt lat="42.74034" lon="0.30789">
        <ele>1390.775</ele>
        <time>2021-02-12T22:13:54Z</time>
      </trkpt>
      <trkpt lat="42.74054" lon="0.30774">
        <ele>1392.682</ele>
        <time>2021-02-12T22:14:14Z</time>
      </trkpt>
      <trkpt lat="42.74014" lon="0.30768">
        <ele>1392.879</ele>
        <time>2020-04-19T21:15:23Z</time>
      </trkpt>
      <trkpt lat="42.73945" lon="0.30772">
        <ele>1393.705</ele>
        <time>2020-04-19T21:15:43Z</time>
      </trkpt>
      <trkpt lat="42.73891" lon="0.30751">
        <ele>1398.825</ele>
        <time>2020-04-19T21:16:03Z</time>
      </trkpt>
      <trkpt lat="42.73863" lon="0.30757">
        <ele>1400.708</ele>
        <time>2020-04-19T21:16:23Z</time>
      </trkpt>
      <trkpt lat="42.73833" lon="0.30738">
        <ele>1418.963</ele>
        <time>2020-04-19T21:16:43Z</time>
      </trkpt>
      <trkpt lat="42.73795" lon="0.30742">
        <ele>1426.932</ele>
        <time>2020-04-19T21:17:03Z</time>
      </trkpt>
      <trkpt lat="42.73753" lon="0.30736">
        <ele>1423.383</ele>
        <time>2020-04-19T21:17:23Z</time>
      </trkpt>
      <trkpt lat="42.73679" lon="0.30736">
        <ele>1427.249</ele>
        <time>2020-04-19T21:17:43Z</time>
      </trkpt>
      <trkpt lat="42.73626" lon="0.3073">
        <ele>1438.638</ele>
        <time>2020-04-19T21:18:03Z</time>
      </trkpt>
      <trkpt lat="42.73589" lon="0.30731">
        <ele>1435.93</ele>
        <time>2020-04-19T21:18:23Z</time>
      </trkpt>
      <trkpt lat="42.73535" lon="0.30744">
        <ele>1443.737</ele>
        <time>2020-04-19T21:18:43Z</time>
      </trkpt>
      <trkpt lat="42.7349" lon="0.30731">
        <ele>1450.884</ele>
        <time>2020-04-19T21:19:03Z</time>
      </trkpt>
      <trkpt lat="42.73457" lon="0.30743">
        <ele>1457.897</ele>
        <time>2020-04-19T21:19:23Z</time>
      </trkpt>
      <trkpt lat="42.73413" lon="0.30765">
        <ele>1444.123</ele>
        <time>2020-04-19T21:19:43Z</time>
      </trkpt>
      <trkpt lat="42.73382" lon="0.30769">
        <ele>1438.925</ele>
        <time>2020-04-19T21:20:03Z</time>
      </trkpt>
      <trkpt lat="42.73306" lon="0.30714">
        <ele>1451.608</ele>
        <time>2020-04-19T21:20:23Z</time>
      </trkpt>
      <trkpt lat="42.73302" lon="0.30693">
        <ele>1453.725</ele>
        <time>2020-04-19T21:20:43Z</time>
      </trkpt>
      <trkpt lat="42.73309" lon="0.30671">
        <ele>1456.194</ele>
        <time>2020-04-19T21:21:03Z</time>
      </trkpt>
      <trkpt lat="42.73304" lon="0.30659">
        <ele>1466.975</ele>
        <time>2020-04-19T21:21:23Z</time>
      </trkpt>
      <trkpt lat="42.73289" lon="0.30651">
        <ele>1465.811</ele>
        <time>2020-04-19T21:21:43Z</time>
      </trkpt>
      <trkpt lat="42.73282" lon="0.30637">
        <ele>1466.93</ele>
        <time>2020-04-19T21:22:03Z</time>
      </trkpt>
      <trkpt lat="42.73259" lon="0.30614">
        <ele>1467.462</ele>
        <time>2020-04-19T21:22:23Z</time>
      </trkpt>
      <trkpt lat="42.73237" lon="0.30581">
        <ele>1470.299</ele>
        <time>2020-04-19T21:22:43Z</time>
      </trkpt>
      <trkpt lat="42.73188" lon="0.30532">
        <ele>1476.226</ele>
        <time>2020-04-19T21:23:03Z</time>
      </trkpt>
      <trkpt lat="42.73151" lon="0.30506">
        <ele>1473.776</ele>
        <time>2020-04-19T21:23:23Z</time>
      </trkpt>
      <trkpt lat="42.7312" lon="0.30487">
        <ele>1478.89</ele>
        <time>2020-04-19T21:23:43Z</time>
      </trkpt>
      <trkpt lat="42.73105" lon="0.30467">
        <ele>1479.619</ele>
        <time>2020-04-19T21:24:03Z</time>
      </trkpt>
      <trkpt lat="42.73068" lon="0.30459">
        <ele>1476.008</ele>
        <time>2020-04-19T21:24:23Z</time>
      </trkpt>
      <trkpt lat="42.73055" lon="0.30443">
        <ele>1477.943</ele>
        <time>2020-04-19T21:24:43Z</time>
      </trkpt>
      <trkpt lat="42.73024" lon="0.30438">
        <ele>1478.832</ele>
        <time>2020-04-19T21:25:03Z</time>
      </trkpt>
      <trkpt lat="42.72988" lon="0.30419">
        <ele>1482.263</ele>
        <time>2020-04-19T21:25:23Z</time>
      </trkpt>
      <trkpt lat="42.72949" lon="0.304">
        <ele>1489.959</ele>
        <time>2020-04-19T21:25:43Z</time>
      </trkpt>
      <trkpt lat="42.72922" lon="0.30392">
        <ele>1488.438</ele>
        <time>2020-04-19T21:26:03Z</time>
      </trkpt>
      <trkpt lat="42.72898" lon="0.30388">
        <ele>1493.94</ele>
        <time>2020-04-19T21:26:23Z</time>
      </trkpt>
      <trkpt lat="42.72858" lon="0.30347">
        <ele>1498.127</ele>
        <time>2020-04-19T21:26:43Z</time>
      </trkpt>
      <trkpt lat="42.72835" lon="0.30307">
        <ele>1512.944</ele>
        <time>2020-04-19T21:27:03Z</time>
      </trkpt>
      <trkpt lat="42.72773" lon="0.30257">
        <ele>1510.117</ele>
        <time>2020-04-19T21:27:23Z</time>
      </trkpt>
      <trkpt lat="42.72758" lon="0.30249">
        <ele>1510.987</ele>
        <time>2020-04-19T21:27:43Z</time>
      </trkpt>
      <trkpt lat="42.72739" lon="0.30244">
        <ele>1503.115</ele>
        <time>2020-04-19T21:28:03Z</time>
      </trkpt>
      <trkpt lat="42.72714" lon="0.30227">
        <ele>1504.308</ele>
        <time>2020-04-19T21:28:23Z</time>
      </trkpt>
      <trkpt lat="42.72691" lon="0.30206">
        <ele>1503.447</ele>
        <time>2020-04-19T21:28:43Z</time>
      </trkpt>
      <trkpt lat="42.72675" lon="0.30193">
        <ele>1501.726</ele>
        <time>2020-04-19T21:29:03Z</time>
      </trkpt>
      <trkpt lat="42.72655" lon="0.30136">
        <ele>1502.927</ele>
        <time>2020-04-19T21:29:23Z</time>
      </trkpt>
      <trkpt lat="42.72634" lon="0.30113">
        <ele>1505.353</ele>
        <time>2020-04-19T21:29:43Z</time>
      </trkpt>
      <trkpt lat="42.72609" lon="0.30093">
        <ele>1501.872</ele>
        <time>2020-04-19T21:30:03Z</time>
      </trkpt>
      <trkpt lat="42.72581" lon="0.30093">
        <ele>1496.654</ele>
        <time>2020-04-19T21:30:23Z</time>
      </trkpt>
      <trkpt lat="42.72559" lon="0.30079">
        <ele>1505.021</ele>
        <time>2020-04-19T21:30:43Z</time>
      </trkpt>
      <trkpt lat="42.72488" lon="0.30059">
        <ele>1505.668</ele>
        <time>2020-04-19T21:31:03Z</time>
      </trkpt>
      <trkpt lat="42.72457" lon="0.30031">
        <ele>1512.333</ele>
        <time>2020-04-19T21:31:23Z</time>
      </trkpt>
      <trkpt lat="42.72432" lon="0.30016">
        <ele>1513.423</ele>
        <time>2020-04-19T21:31:43Z</time>
      </trkpt>
      <trkpt lat="42.72383" lon="0.29947">
        <ele>1525.915</ele>
        <time>2020-04-19T21:32:03Z</time>
      </trkpt>
      <trkpt lat="42.72296" lon="0.299">
        <ele>1524.408</ele>
        <time>2020-04-19T21:32:23Z</time>
      </trkpt>
      <trkpt lat="42.72245" lon="0.29825">
        <ele>1522.349</ele>
        <time>2020-04-19T21:32:43Z</time>
      </trkpt>
      <trkpt lat="42.72213" lon="0.29792">
        <ele>1532.548</ele>
        <time>2020-04-19T21:33:03Z</time>
      </trkpt>
      <trkpt lat="42.72153" lon="0.29799">
        <ele>1526.499</ele>
        <time>2020-04-19T21:33:23Z</time>
      </trkpt>
      <trkpt lat="42.7213" lon="0.2977">
        <ele>1530.275</ele>
        <time>2020-04-19T21:33:43Z</time>
      </trkpt>
      <trkpt lat="42.72091" lon="0.2977">
        <ele>1532.074</ele>
        <time>2020-04-19T21:34:03Z</time>
      </trkpt>
      <trkpt lat="42.72034" lon="0.29745">
        <ele>1542.376</ele>
        <time>2020-04-19T21:34:23Z</time>
      </trkpt>
      <trkpt lat="42.71899" lon="0.29739">
        <ele>1536.023</ele>
        <time>2020-04-19T21:34:43Z</time>
      </trkpt>
      <trkpt lat="42.7179" lon="0.29723">
        <ele>1541.71</ele>
        <time>2020-04-19T21:35:03Z</time>
      </trkpt>
      <trkpt lat="42.71728" lon="0.29752">
        <ele>1533.576</ele>
        <time>2020-04-19T21:35:23Z</time>
      </trkpt>
      <trkpt lat="42.71704" lon="0.2975">
        <ele>1534.29</ele>
        <time>2020-04-19T21:35:43Z</time>
      </trkpt>
      <trkpt lat="42.71671" lon="0.29726">
        <ele>1541.819</ele>
        <time>2020-04-19T21:36:03Z</time>
      </trkpt>
      <trkpt lat="42.71575" lon="0.29713">
        <ele>1549.708</ele>
        <time>2020-04-19T21:36:23Z</time>
      </trkpt>
      <trkpt lat="42.71476" lon="0.29679">
        <ele>1552.233</ele>
        <time>2020-04-19T21:36:43Z</time>
      </trkpt>
      <trkpt lat="42.71423" lon="0.29674">
        <ele>1550.842</ele>
        <time>2020-04-19T21:37:03Z</time>
      </trkpt>
      <trkpt lat="42.71397" lon="0.29656">
        <ele>1556.613</ele>
        <time>2020-04-19T21:37:23Z</time>
      </trkpt>
      <trkpt lat="42.71373" lon="0.29612">
        <ele>1562.319</ele>
        <time>2020-04-19T21:37:43Z</time>
      </trkpt>
      <trkpt lat="42.7134" lon="0.29596">
        <ele>1565.818</ele>
        <time>2020-04-19T21:38:03Z</time>
      </trkpt>
      <trkpt lat="42.71251" lon="0.29633">
        <ele>1559.48</ele>
        <time>2020-04-19T21:38:23Z</time>
      </trkpt>
      <trkpt lat="42.71164" lon="0.29653">
        <ele>1565.457</ele>
        <time>2020-04-19T21:38:43Z</time>
      </trkpt>
      <trkpt lat="42.71052" lon="0.29656">
        <ele>1560.214</ele>
        <time>2020-04-19T21:39:03Z</time>
      </trkpt>
      <trkpt lat="42.71011" lon="0.29643">
        <ele>1559.875</ele>
        <time>2020-04-19T21:39:23Z</time>
      </trkpt>
      <trkpt lat="42.70971" lon="0.29594">
        <ele>1557.428</ele>
        <time>2020-04-19T21:39:43Z</time>
      </trkpt>
      <trkpt lat="42.70895" lon="0.29553">
        <ele>1553.32</ele>
        <time>2020-04-19T21:40:03Z</time>
      </trkpt>
      <trkpt lat="42.70797" lon="0.29433">
        <ele>1560.008</ele>
        <time>2020-04-19T21:40:23Z</time>
      </trkpt>
      <trkpt lat="42.7072" lon="0.29379">
        <ele>1565.143</ele>
        <time>2020-04-19T21:40:43Z</time>
      </trkpt>
      <trkpt lat="42.70698" lon="0.29326">
        <ele>1567.722</ele>
        <time>2021-02-12T22:40:14Z</time>
      </trkpt>
      <trkpt lat="42.7071" lon="0.29263">
        <ele>1580.663</ele>
        <time>2021-02-12T22:40:34Z</time>
      </trkpt>
      <trkpt lat="42.70657" lon="0.29283">
        <ele>1573.699</ele>
        <time>2021-02-12T22:40:54Z</time>
      </trkpt>
      <trkpt lat="42.70574" lon="0.29272">
        <ele>1580.678</ele>
        <time>2020-04-19T21:41:43Z</time>
      </trkpt>
      <trkpt lat="42.70539" lon="0.29266">
        <ele>1583.32</ele>
        <time>2020-04-19T21:42:03Z</time>
      </trkpt>
      <trkpt lat="42.70462" lon="0.29279">
        <ele>1595.757</ele>
        <time>2020-04-19T21:42:23Z</time>
      </trkpt>
      <trkpt lat="42.70415" lon="0.29311">
        <ele>1603.814</ele>
        <time>2020-04-19T21:42:43Z</time>
      </trkpt>
      <trkpt lat="42.70365" lon="0.29332">
        <ele>1611.147</ele>
        <time>2020-04-19T21:43:03Z</time>
      </trkpt>
      <trkpt lat="42.70347" lon="0.29368">
        <ele>1611.829</ele>
        <time>2021-02-12T22:42:54Z</time>
      </trkpt>
      <trkpt lat="42.70314" lon="0.29333">
        <ele>1626.621</ele>
        <time>2020-04-19T21:43:43Z</time>
      </trkpt>
      <trkpt lat="42.70302" lon="0.29366">
        <ele>1623.208</ele>
        <time>2021-02-12T22:43:34Z</time>
      </trkpt>
      <trkpt lat="42.70274" lon="0.29385">
        <ele>1628.23</ele>
        <time>2021-02-12T22:43:54Z</time>
      </trkpt>
      <trkpt lat="42.70129" lon="0.29386">
        <ele>1660.999</ele>
        <time>2021-02-12T22:44:14Z</time>
      </trkpt>
      <trkpt lat="42.70088" lon="0.29364">
        <ele>1676.64</ele>
        <time>2021-02-12T22:44:34Z</time>
      </trkpt>
      <trkpt lat="42.70144" lon="0.29258">
        <ele>1684.786</ele>
        <time>2020-04-19T21:47:23Z</time>
      </trkpt>
      <trkpt lat="42.70115" lon="0.29244">
        <ele>1699.985</ele>
        <time>2021-02-12T22:45:14Z</time>
      </trkpt>
      <trkpt lat="42.70047" lon="0.29251">
        <ele>1711.087</ele>
        <time>2020-04-19T21:48:03Z</time>
      </trkpt>
      <trkpt lat="42.70082" lon="0.29194">
        <ele>1736.384</ele>
        <time>2020-04-19T21:48:23Z</time>
      </trkpt>
      <trkpt lat="42.7013" lon="0.29142">
        <ele>1741.321</ele>
        <time>2020-04-19T21:48:43Z</time>
      </trkpt>
      <trkpt lat="42.70098" lon="0.29143">
        <ele>1744.562</ele>
        <time>2020-04-19T21:49:03Z</time>
      </trkpt>
      <trkpt lat="42.70075" lon="0.29147">
        <ele>1759.583</ele>
        <time>2020-04-19T21:49:23Z</time>
      </trkpt>
      <trkpt lat="42.7005" lon="0.29141">
        <ele>1769.011</ele>
        <time>2020-04-19T21:49:43Z</time>
      </trkpt>
      <trkpt lat="42.70007" lon="0.2917">
        <ele>1770.508</ele>
        <time>2021-02-12T22:47:34Z</time>
      </trkpt>
      <trkpt lat="42.69993" lon="0.29195">
        <ele>1769.832</ele>
        <time>2020-04-19T21:50:23Z</time>
      </trkpt>
      <trkpt lat="42.69872" lon="0.29208">
        <ele>1804.871</ele>
        <time>2020-04-19T21:50:43Z</time>
      </trkpt>
      <trkpt lat="42.69822" lon="0.29232">
        <ele>1814.762</ele>
        <time>2020-04-19T21:51:03Z</time>
      </trkpt>
      <trkpt lat="42.69794" lon="0.2922">
        <ele>1825.858</ele>
        <time>2020-04-19T21:51:23Z</time>
      </trkpt>
      <trkpt lat="42.69767" lon="0.29248">
        <ele>1822.777</ele>
        <time>2020-04-19T21:51:43Z</time>
      </trkpt>
      <trkpt lat="42.6973" lon="0.29251">
        <ele>1818.969</ele>
        <time>2020-04-19T21:52:03Z</time>
      </trkpt>
      <trkpt lat="42.69701" lon="0.29281">
        <ele>1819.316</ele>
        <time>2020-04-19T21:52:23Z</time>
      </trkpt>
      <trkpt lat="42.69651" lon="0.29261">
        <ele>1839.943</ele>
        <time>2020-04-19T21:52:43Z</time>
      </trkpt>
      <trkpt lat="42.69603" lon="0.29261">
        <ele>1844.393</ele>
        <time>2020-04-19T21:53:03Z</time>
      </trkpt>
      <trkpt lat="42.69571" lon="0.29256">
        <ele>1853.965</ele>
        <time>2020-04-19T21:53:23Z</time>
      </trkpt>
      <trkpt lat="42.69602" lon="0.2922">
        <ele>1867.221</ele>
        <time>2020-04-19T21:53:43Z</time>
      </trkpt>
      <trkpt lat="42.69627" lon="0.29179">
        <ele>1873.308</ele>
        <time>2020-04-19T21:54:03Z</time>
      </trkpt>
      <trkpt lat="42.69577" lon="0.29179">
        <ele>1885.735</ele>
        <time>2020-04-19T21:54:23Z</time>
      </trkpt>
      <trkpt lat="42.69548" lon="0.29187">
        <ele>1887.664</ele>
        <time>2020-04-19T21:54:43Z</time>
      </trkpt>
      <trkpt lat="42.69527" lon="0.29177">
        <ele>1907.285</ele>
        <time>2021-02-12T22:52:34Z</time>
      </trkpt>
      <trkpt lat="42.69532" lon="0.29165">
        <ele>1912.921</ele>
        <time>2021-02-12T22:52:54Z</time>
      </trkpt>
      <trkpt lat="42.69476" lon="0.29148">
        <ele>1964.59</ele>
        <time>2020-04-19T21:55:03Z</time>
      </trkpt>
      <trkpt lat="42.69455" lon="0.29144">
        <ele>1971.232</ele>
        <time>2020-04-19T21:55:23Z</time>
      </trkpt>
      <trkpt lat="42.6944" lon="0.29147">
        <ele>1969.669</ele>
        <time>2020-04-19T21:55:43Z</time>
      </trkpt>
      <trkpt lat="42.69416" lon="0.29136">
        <ele>1974.746</ele>
        <time>2020-04-19T21:56:03Z</time>
      </trkpt>
      <trkpt lat="42.69387" lon="0.29138">
        <ele>1973.195</ele>
        <time>2021-02-12T22:54:34Z</time>
      </trkpt>
      <trkpt lat="42.69382" lon="0.29126">
        <ele>1980.249</ele>
        <time>2021-02-12T22:54:54Z</time>
      </trkpt>
      <trkpt lat="42.69351" lon="0.29134">
        <ele>1979.923</ele>
        <time>2020-04-19T21:57:03Z</time>
      </trkpt>
      <trkpt lat="42.69309" lon="0.29134">
        <ele>1979.308</ele>
        <time>2020-04-19T21:57:23Z</time>
      </trkpt>
      <trkpt lat="42.6928" lon="0.29107">
        <ele>1983.695</ele>
        <time>2020-04-19T21:57:43Z</time>
      </trkpt>
      <trkpt lat="42.69287" lon="0.29092">
        <ele>1986.134</ele>
        <time>2020-04-19T21:58:03Z</time>
      </trkpt>
      <trkpt lat="42.69269" lon="0.29079">
        <ele>2009.635</ele>
        <time>2020-04-19T21:58:23Z</time>
      </trkpt>
      <trkpt lat="42.69289" lon="0.29066">
        <ele>2018.911</ele>
        <time>2020-04-19T21:58:43Z</time>
      </trkpt>
      <trkpt lat="42.69248" lon="0.29046">
        <ele>2015.77</ele>
        <time>2020-04-19T21:59:03Z</time>
      </trkpt>
      <trkpt lat="42.6921" lon="0.28996">
        <ele>2054.292</ele>
        <time>2020-04-19T21:59:23Z</time>
      </trkpt>
      <trkpt lat="42.69202" lon="0.28975">
        <ele>2056.829</ele>
        <time>2020-04-19T21:59:43Z</time>
      </trkpt>
      <trkpt lat="42.69179" lon="0.28951">
        <ele>2061.636</ele>
        <time>2020-04-19T22:00:03Z</time>
      </trkpt>
      <trkpt lat="42.69165" lon="0.28904">
        <ele>2074.414</ele>
        <time>2020-04-19T22:00:23Z</time>
      </trkpt>
      <trkpt lat="42.69155" lon="0.28886">
        <ele>2076.754</ele>
        <time>2020-04-19T22:00:43Z</time>
      </trkpt>
      <trkpt lat="42.69139" lon="0.28871">
        <ele>2078.209</ele>
        <time>2020-04-19T22:01:03Z</time>
      </trkpt>
      <trkpt lat="42.69132" lon="0.28839">
        <ele>2082.608</ele>
        <time>2020-04-19T22:01:23Z</time>
      </trkpt>
      <trkpt lat="42.69123" lon="0.28808">
        <ele>2109.377</ele>
        <time>2020-04-19T22:01:43Z</time>
      </trkpt>
      <trkpt lat="42.6909" lon="0.28783">
        <ele>2116.316</ele>
        <time>2020-04-19T22:02:03Z</time>
      </trkpt>
      <trkpt lat="42.69078" lon="0.28781">
        <ele>2115.617</ele>
        <time>2020-04-19T22:02:23Z</time>
      </trkpt>
      <trkpt lat="42.69057" lon="0.28794">
        <ele>2110.483</ele>
        <time>2020-04-19T22:02:43Z</time>
      </trkpt>
      <trkpt lat="42.69011" lon="0.28795">
        <ele>2110.092</ele>
        <time>2020-04-19T22:03:03Z</time>
      </trkpt>
      <trkpt lat="42.68997" lon="0.28785">
        <ele>2119.784</ele>
        <time>2020-04-19T22:03:23Z</time>
      </trkpt>
      <trkpt lat="42.68971" lon="0.28791">
        <ele>2120.751</ele>
        <time>2020-04-19T22:03:43Z</time>
      </trkpt>
      <trkpt lat="42.68944" lon="0.28766">
        <ele>2129.938</ele>
        <time>2020-04-19T22:04:03Z</time>
      </trkpt>
      <trkpt lat="42.68936" lon="0.2877">
        <ele>2131.178</ele>
        <time>2020-04-19T22:04:23Z</time>
      </trkpt>
      <trkpt lat="42.68908" lon="0.28813">
        <ele>2140.433</ele>
        <time>2020-04-19T22:04:43Z</time>
      </trkpt>
      <trkpt lat="42.68887" lon="0.28835">
        <ele>2131.626</ele>
        <time>2020-04-19T22:05:03Z</time>
      </trkpt>
      <trkpt lat="42.68863" lon="0.28853">
        <ele>2139.708</ele>
        <time>2020-04-19T22:05:23Z</time>
      </trkpt>
      <trkpt lat="42.68828" lon="0.28911">
        <ele>2155.993</ele>
        <time>2020-04-19T22:05:43Z</time>
      </trkpt>
      <trkpt lat="42.6883" lon="0.2893">
        <ele>2159.032</ele>
        <time>2020-04-19T22:06:03Z</time>
      </trkpt>
      <trkpt lat="42.68847" lon="0.28976">
        <ele>2135.913</ele>
        <time>2020-04-19T22:06:23Z</time>
      </trkpt>
      <trkpt lat="42.68828" lon="0.29076">
        <ele>2168.099</ele>
        <time>2020-04-19T22:06:43Z</time>
      </trkpt>
      <trkpt lat="42.68828" lon="0.29131">
        <ele>2190.748</ele>
        <time>2020-04-19T22:07:03Z</time>
      </trkpt>
      <trkpt lat="42.68823" lon="0.29135">
        <ele>2192.05</ele>
        <time>2020-04-19T22:07:23Z</time>
      </trkpt>
      <trkpt lat="42.68804" lon="0.29067">
        <ele>2180.567</ele>
        <time>2020-04-19T22:07:43Z</time>
      </trkpt>
      <trkpt lat="42.68793" lon="0.29082">
        <ele>2185.294</ele>
        <time>2020-04-19T22:08:03Z</time>
      </trkpt>
      <trkpt lat="42.68788" lon="0.29111">
        <ele>2198.452</ele>
        <time>2020-04-19T22:08:23Z</time>
      </trkpt>
      <trkpt lat="42.68773" lon="0.29079">
        <ele>2195.253</ele>
        <time>2020-04-19T22:08:43Z</time>
      </trkpt>
      <trkpt lat="42.68778" lon="0.29044">
        <ele>2188.808</ele>
        <time>2020-04-19T22:09:03Z</time>
      </trkpt>
      <trkpt lat="42.68772" lon="0.29012">
        <ele>2191.708</ele>
        <time>2020-04-19T22:09:23Z</time>
      </trkpt>
      <trkpt lat="42.68755" lon="0.29037">
        <ele>2193.611</ele>
        <time>2020-04-19T22:09:43Z</time>
      </trkpt>
      <trkpt lat="42.68741" lon="0.2908">
        <ele>2219.59</ele>
        <time>2020-04-19T22:10:03Z</time>
      </trkpt>
      <trkpt lat="42.68717" lon="0.29022">
        <ele>2225.521</ele>
        <time>2020-04-19T22:10:23Z</time>
      </trkpt>
      <trkpt lat="42.68711" lon="0.28984">
        <ele>2222.217</ele>
        <time>2020-04-19T22:10:43Z</time>
      </trkpt>
      <trkpt lat="42.68694" lon="0.29032">
        <ele>2231.566</ele>
        <time>2020-04-19T22:11:03Z</time>
      </trkpt>
      <trkpt lat="42.68672" lon="0.29057">
        <ele>2237.318</ele>
        <time>2020-04-19T22:11:23Z</time>
      </trkpt>
      <trkpt lat="42.68668" lon="0.29079">
        <ele>2246.385</ele>
        <time>2020-04-19T22:11:43Z</time>
      </trkpt>
      <trkpt lat="42.68677" lon="0.29114">
        <ele>2248.872</ele>
        <time>2020-04-19T22:12:03Z</time>
      </trkpt>
      <trkpt lat="42.68638" lon="0.29095">
        <ele>2272.247</ele>
        <time>2020-04-19T22:12:23Z</time>
      </trkpt>
      <trkpt lat="42.68562" lon="0.29035">
        <ele>2285.029</ele>
        <time>2020-04-19T22:12:43Z</time>
      </trkpt>
      <trkpt lat="42.68555" lon="0.29013">
        <ele>2284.021</ele>
        <time>2020-04-19T22:13:03Z</time>
      </trkpt>
      <trkpt lat="42.68558" lon="0.28995">
        <ele>2283.108</ele>
        <time>2020-04-19T22:13:23Z</time>
      </trkpt>
      <trkpt lat="42.68531" lon="0.29028">
        <ele>2288.53</ele>
        <time>2020-04-19T22:13:43Z</time>
      </trkpt>
      <trkpt lat="42.68494" lon="0.29039">
        <ele>2296.099</ele>
        <time>2021-02-12T23:12:14Z</time>
      </trkpt>
      <trkpt lat="42.68454" lon="0.29035">
        <ele>2299.29</ele>
        <time>2021-02-12T23:12:34Z</time>
      </trkpt>
      <trkpt lat="42.68428" lon="0.29045">
        <ele>2298.456</ele>
        <time>2021-02-12T23:12:54Z</time>
      </trkpt>
      <trkpt lat="42.68388" lon="0.29034">
        <ele>2296.855</ele>
        <time>2021-02-12T23:13:14Z</time>
      </trkpt>
      <trkpt lat="42.68374" lon="0.29004">
        <ele>2302.567</ele>
        <time>2021-02-12T23:13:34Z</time>
      </trkpt>
      <trkpt lat="42.68253" lon="0.28806">
        <ele>2323.534</ele>
        <time>2021-02-12T23:13:54Z</time>
      </trkpt>
      <trkpt lat="42.68233" lon="0.28752">
        <ele>2328.831</ele>
        <time>2021-02-12T23:14:14Z</time>
      </trkpt>
      <trkpt lat="42.68214" lon="0.28729">
        <ele>2330.978</ele>
        <time>2021-02-12T23:14:34Z</time>
      </trkpt>
      <trkpt lat="42.6816" lon="0.28711">
        <ele>2330.633</ele>
        <time>2021-02-12T23:14:54Z</time>
      </trkpt>
      <trkpt lat="42.68111" lon="0.28649">
        <ele>2348.026</ele>
        <time>2021-02-12T23:15:14Z</time>
      </trkpt>
      <trkpt lat="42.68083" lon="0.28631">
        <ele>2361.008</ele>
        <time>2020-04-19T22:19:03Z</time>
      </trkpt>
      <trkpt lat="42.68051" lon="0.28615">
        <ele>2366.013</ele>
        <time>2020-04-19T22:19:23Z</time>
      </trkpt>
      <trkpt lat="42.68055" lon="0.28596">
        <ele>2366.712</ele>
        <time>2020-04-19T22:19:43Z</time>
      </trkpt>
      <trkpt lat="42.68042" lon="0.2855">
        <ele>2386.073</ele>
        <time>2020-04-19T22:20:03Z</time>
      </trkpt>
      <trkpt lat="42.68015" lon="0.2857">
        <ele>2386.149</ele>
        <time>2020-04-19T22:20:23Z</time>
      </trkpt>
      <trkpt lat="42.68019" lon="0.2853">
        <ele>2390.288</ele>
        <time>2020-04-19T22:20:43Z</time>
      </trkpt>
      <trkpt lat="42.67984" lon="0.28561">
        <ele>2387.06</ele>
        <time>2020-04-19T22:21:03Z</time>
      </trkpt>
      <trkpt lat="42.67947" lon="0.28563">
        <ele>2386.357</ele>
        <time>2020-04-19T22:21:23Z</time>
      </trkpt>
    </trkseg>
  </trk>
</gpx>